<?xml version="1.0" encoding="UTF-8"?><gpx creator="Wikiloc - https://www.wikiloc.com" version="1.1" xmlns="http://www.topografix.com/GPX/1/1" xmlns:xsi="http://www.w3.org/2001/XMLSchema-instance" xsi:schemaLocation="http://www.topografix.com/GPX/1/1 http://www.topografix.com/GPX/1/1/gpx.xsd"><metadata><name>Wikiloc - Eurovelo 1 (Track oficial)</name><author><name>ConAlforjas.com</name><link href="https://www.wikiloc.com/wikiloc/user.do?id=750077"><text>ConAlforjas.com on Wikiloc</text></link></author><link href="https://www.wikiloc.com/bicycle-touring-trails/eurovelo-1-track-oficial-118724734"><text>Eurovelo 1 (Track oficial) on Wikiloc</text></link><time>2022-11-09T19:44:41Z</time></metadata><trk><name>Eurovelo 1 (Track oficial)</name><cmt></cmt><desc></desc><trkseg><trkpt lat="41.879143" lon="-8.837814"><ele>-0.624</ele><time>2022-11-09T19:44:50Z</time></trkpt><trkpt lat="41.878657" lon="-8.839674"><ele>0.104</ele><time>2022-11-09T19:45:30Z</time></trkpt><trkpt lat="41.866141" lon="-8.848250"><ele>2.414</ele><time>2022-11-09T19:46:10Z</time></trkpt><trkpt lat="41.866718" lon="-8.861644"><ele>12.709</ele><time>2022-11-09T19:46:50Z</time></trkpt><trkpt lat="41.865363" lon="-8.862250"><ele>15.463</ele><time>2022-11-09T19:47:30Z</time></trkpt><trkpt lat="41.864342" lon="-8.858970"><ele>15.483</ele><time>2022-11-09T19:48:10Z</time></trkpt><trkpt lat="41.852654" lon="-8.864158"><ele>8.090</ele><time>2022-11-09T19:48:50Z</time></trkpt><trkpt lat="41.852700" lon="-8.865703"><ele>6.589</ele><time>2022-11-09T19:49:30Z</time></trkpt><trkpt lat="41.846582" lon="-8.866281"><ele>6.254</ele><time>2022-11-09T19:50:10Z</time></trkpt><trkpt lat="41.839454" lon="-8.873734"><ele>4.676</ele><time>2022-11-09T19:50:50Z</time></trkpt><trkpt lat="41.831306" lon="-8.875081"><ele>4.769</ele><time>2022-11-09T19:51:30Z</time></trkpt><trkpt lat="41.828203" lon="-8.872950"><ele>8.195</ele><time>2022-11-09T19:52:10Z</time></trkpt><trkpt lat="41.820137" lon="-8.872618"><ele>5.126</ele><time>2022-11-09T19:52:50Z</time></trkpt><trkpt lat="41.807779" lon="-8.855629"><ele>6.052</ele><time>2022-11-09T19:53:30Z</time></trkpt><trkpt lat="41.798007" lon="-8.857598"><ele>30.553</ele><time>2022-11-09T19:54:10Z</time></trkpt><trkpt lat="41.792991" lon="-8.865574"><ele>42.208</ele><time>2022-11-09T19:54:50Z</time></trkpt><trkpt lat="41.782690" lon="-8.860276"><ele>41.709</ele><time>2022-11-09T19:55:30Z</time></trkpt><trkpt lat="41.773840" lon="-8.860432"><ele>19.566</ele><time>2022-11-09T19:56:10Z</time></trkpt><trkpt lat="41.772824" lon="-8.867154"><ele>7.036</ele><time>2022-11-09T19:56:50Z</time></trkpt><trkpt lat="41.767959" lon="-8.867570"><ele>12.823</ele><time>2022-11-09T19:57:30Z</time></trkpt><trkpt lat="41.764929" lon="-8.870595"><ele>10.382</ele><time>2022-11-09T19:58:10Z</time></trkpt><trkpt lat="41.760316" lon="-8.869091"><ele>22.657</ele><time>2022-11-09T19:58:50Z</time></trkpt><trkpt lat="41.760869" lon="-8.875982"><ele>9.559</ele><time>2022-11-09T19:59:30Z</time></trkpt><trkpt lat="41.757438" lon="-8.876407"><ele>5.112</ele><time>2022-11-09T20:00:10Z</time></trkpt><trkpt lat="41.758534" lon="-8.874001"><ele>11.258</ele><time>2022-11-09T20:00:50Z</time></trkpt><trkpt lat="41.756821" lon="-8.872561"><ele>34.199</ele><time>2022-11-09T20:01:30Z</time></trkpt><trkpt lat="41.755064" lon="-8.875525"><ele>36.439</ele><time>2022-11-09T20:02:10Z</time></trkpt><trkpt lat="41.748609" lon="-8.874371"><ele>36.001</ele><time>2022-11-09T20:02:50Z</time></trkpt><trkpt lat="41.745051" lon="-8.877147"><ele>1.121</ele><time>2022-11-09T20:03:30Z</time></trkpt><trkpt lat="41.727776" lon="-8.870870"><ele>2.609</ele><time>2022-11-09T20:04:10Z</time></trkpt><trkpt lat="41.722801" lon="-8.866852"><ele>2.174</ele><time>2022-11-09T20:04:50Z</time></trkpt><trkpt lat="41.704633" lon="-8.859276"><ele>2.044</ele><time>2022-11-09T20:05:30Z</time></trkpt><trkpt lat="41.699841" lon="-8.855951"><ele>-0.331</ele><time>2022-11-09T20:06:10Z</time></trkpt><trkpt lat="41.699375" lon="-8.852710"><ele>1.230</ele><time>2022-11-09T20:06:50Z</time></trkpt><trkpt lat="41.693419" lon="-8.848946"><ele>2.395</ele><time>2022-11-09T20:07:30Z</time></trkpt><trkpt lat="41.692004" lon="-8.836838"><ele>11.227</ele><time>2022-11-09T20:08:10Z</time></trkpt><trkpt lat="41.689295" lon="-8.834414"><ele>2.390</ele><time>2022-11-09T20:08:50Z</time></trkpt><trkpt lat="41.692611" lon="-8.823211"><ele>3.946</ele><time>2022-11-09T20:09:30Z</time></trkpt><trkpt lat="41.693674" lon="-8.824362"><ele>4.687</ele><time>2022-11-09T20:10:10Z</time></trkpt><trkpt lat="41.694990" lon="-8.821969"><ele>6.853</ele><time>2022-11-09T20:10:50Z</time></trkpt><trkpt lat="41.696104" lon="-8.822984"><ele>8.004</ele><time>2022-11-09T20:11:30Z</time></trkpt><trkpt lat="41.688301" lon="-8.812733"><ele>0.014</ele><time>2022-11-09T20:12:10Z</time></trkpt><trkpt lat="41.685919" lon="-8.812477"><ele>5.009</ele><time>2022-11-09T20:12:50Z</time></trkpt><trkpt lat="41.680630" lon="-8.806817"><ele>17.666</ele><time>2022-11-09T20:13:30Z</time></trkpt><trkpt lat="41.675054" lon="-8.811645"><ele>24.166</ele><time>2022-11-09T20:14:10Z</time></trkpt><trkpt lat="41.671339" lon="-8.812204"><ele>21.913</ele><time>2022-11-09T20:14:50Z</time></trkpt><trkpt lat="41.669258" lon="-8.810104"><ele>19.682</ele><time>2022-11-09T20:15:30Z</time></trkpt><trkpt lat="41.659228" lon="-8.807651"><ele>20.447</ele><time>2022-11-09T20:16:10Z</time></trkpt><trkpt lat="41.631458" lon="-8.802991"><ele>32.119</ele><time>2022-11-09T20:16:50Z</time></trkpt><trkpt lat="41.623808" lon="-8.796584"><ele>49.552</ele><time>2022-11-09T20:17:30Z</time></trkpt><trkpt lat="41.621655" lon="-8.789634"><ele>68.618</ele><time>2022-11-09T20:18:10Z</time></trkpt><trkpt lat="41.622700" lon="-8.785298"><ele>64.799</ele><time>2022-11-09T20:18:50Z</time></trkpt><trkpt lat="41.616029" lon="-8.779401"><ele>41.381</ele><time>2022-11-09T20:19:30Z</time></trkpt><trkpt lat="41.616528" lon="-8.776922"><ele>24.261</ele><time>2022-11-09T20:20:10Z</time></trkpt><trkpt lat="41.614179" lon="-8.776234"><ele>34.417</ele><time>2022-11-09T20:20:50Z</time></trkpt><trkpt lat="41.608901" lon="-8.779238"><ele>33.509</ele><time>2022-11-09T20:21:30Z</time></trkpt><trkpt lat="41.605235" lon="-8.783540"><ele>41.389</ele><time>2022-11-09T20:22:10Z</time></trkpt><trkpt lat="41.585377" lon="-8.786689"><ele>31.599</ele><time>2022-11-09T20:22:50Z</time></trkpt><trkpt lat="41.575824" lon="-8.790609"><ele>13.896</ele><time>2022-11-09T20:23:30Z</time></trkpt><trkpt lat="41.567550" lon="-8.788354"><ele>9.135</ele><time>2022-11-09T20:24:10Z</time></trkpt><trkpt lat="41.559310" lon="-8.783450"><ele>14.170</ele><time>2022-11-09T20:24:50Z</time></trkpt><trkpt lat="41.548601" lon="-8.782672"><ele>8.022</ele><time>2022-11-09T20:25:30Z</time></trkpt><trkpt lat="41.547649" lon="-8.790497"><ele>6.055</ele><time>2022-11-09T20:26:10Z</time></trkpt><trkpt lat="41.546113" lon="-8.791100"><ele>6.071</ele><time>2022-11-09T20:26:50Z</time></trkpt><trkpt lat="41.538167" lon="-8.785888"><ele>-0.052</ele><time>2022-11-09T20:27:30Z</time></trkpt><trkpt lat="41.537863" lon="-8.785542"><ele>2.189</ele><time>2022-11-09T20:28:10Z</time></trkpt><trkpt lat="41.529233" lon="-8.781755"><ele>1.206</ele><time>2022-11-09T20:28:50Z</time></trkpt><trkpt lat="41.525707" lon="-8.776487"><ele>4.426</ele><time>2022-11-09T20:29:30Z</time></trkpt><trkpt lat="41.517130" lon="-8.770855"><ele>1.709</ele><time>2022-11-09T20:30:10Z</time></trkpt><trkpt lat="41.513888" lon="-8.773493"><ele>4.419</ele><time>2022-11-09T20:30:50Z</time></trkpt><trkpt lat="41.516761" lon="-8.785063"><ele>12.539</ele><time>2022-11-09T20:31:30Z</time></trkpt><trkpt lat="41.511380" lon="-8.782443"><ele>10.136</ele><time>2022-11-09T20:32:10Z</time></trkpt><trkpt lat="41.498928" lon="-8.785249"><ele>10.065</ele><time>2022-11-09T20:32:50Z</time></trkpt><trkpt lat="41.488669" lon="-8.782537"><ele>10.020</ele><time>2022-11-09T20:33:30Z</time></trkpt><trkpt lat="41.483687" lon="-8.776851"><ele>6.912</ele><time>2022-11-09T20:34:10Z</time></trkpt><trkpt lat="41.483636" lon="-8.769118"><ele>9.965</ele><time>2022-11-09T20:34:50Z</time></trkpt><trkpt lat="41.481878" lon="-8.767051"><ele>8.051</ele><time>2022-11-09T20:35:30Z</time></trkpt><trkpt lat="41.479804" lon="-8.765121"><ele>10.122</ele><time>2022-11-09T20:36:10Z</time></trkpt><trkpt lat="41.470288" lon="-8.764720"><ele>13.019</ele><time>2022-11-09T20:36:50Z</time></trkpt><trkpt lat="41.467349" lon="-8.767640"><ele>13.709</ele><time>2022-11-09T20:37:30Z</time></trkpt><trkpt lat="41.462845" lon="-8.768944"><ele>5.019</ele><time>2022-11-09T20:38:10Z</time></trkpt><trkpt lat="41.460232" lon="-8.767471"><ele>6.009</ele><time>2022-11-09T20:38:50Z</time></trkpt><trkpt lat="41.459230" lon="-8.769946"><ele>4.432</ele><time>2022-11-09T20:39:30Z</time></trkpt><trkpt lat="41.434432" lon="-8.778593"><ele>7.092</ele><time>2022-11-09T20:40:10Z</time></trkpt><trkpt lat="41.434339" lon="-8.781961"><ele>2.719</ele><time>2022-11-09T20:40:50Z</time></trkpt><trkpt lat="41.430646" lon="-8.783728"><ele>4.358</ele><time>2022-11-09T20:41:30Z</time></trkpt><trkpt lat="41.424566" lon="-8.783293"><ele>8.123</ele><time>2022-11-09T20:42:10Z</time></trkpt><trkpt lat="41.416792" lon="-8.785809"><ele>7.075</ele><time>2022-11-09T20:42:50Z</time></trkpt><trkpt lat="41.408247" lon="-8.779269"><ele>8.048</ele><time>2022-11-09T20:43:30Z</time></trkpt><trkpt lat="41.405473" lon="-8.780157"><ele>5.014</ele><time>2022-11-09T20:44:10Z</time></trkpt><trkpt lat="41.399541" lon="-8.776372"><ele>7.725</ele><time>2022-11-09T20:44:50Z</time></trkpt><trkpt lat="41.396550" lon="-8.777993"><ele>10.255</ele><time>2022-11-09T20:45:30Z</time></trkpt><trkpt lat="41.391262" lon="-8.774141"><ele>10.507</ele><time>2022-11-09T20:46:10Z</time></trkpt><trkpt lat="41.388060" lon="-8.773984"><ele>5.617</ele><time>2022-11-09T20:46:50Z</time></trkpt><trkpt lat="41.378331" lon="-8.767390"><ele>1.409</ele><time>2022-11-09T20:47:30Z</time></trkpt><trkpt lat="41.375119" lon="-8.762228"><ele>10.936</ele><time>2022-11-09T20:48:10Z</time></trkpt><trkpt lat="41.365929" lon="-8.761103"><ele>12.776</ele><time>2022-11-09T20:48:50Z</time></trkpt><trkpt lat="41.356245" lon="-8.754841"><ele>3.413</ele><time>2022-11-09T20:49:30Z</time></trkpt><trkpt lat="41.345866" lon="-8.753533"><ele>6.952</ele><time>2022-11-09T20:50:10Z</time></trkpt><trkpt lat="41.341359" lon="-8.750807"><ele>4.927</ele><time>2022-11-09T20:50:50Z</time></trkpt><trkpt lat="41.342772" lon="-8.746270"><ele>2.079</ele><time>2022-11-09T20:51:30Z</time></trkpt><trkpt lat="41.350112" lon="-8.743564"><ele>4.282</ele><time>2022-11-09T20:52:10Z</time></trkpt><trkpt lat="41.352024" lon="-8.739796"><ele>7.578</ele><time>2022-11-09T20:52:50Z</time></trkpt><trkpt lat="41.332583" lon="-8.730931"><ele>22.259</ele><time>2022-11-09T20:53:30Z</time></trkpt><trkpt lat="41.331561" lon="-8.733804"><ele>14.342</ele><time>2022-11-09T20:54:10Z</time></trkpt><trkpt lat="41.317933" lon="-8.735464"><ele>5.322</ele><time>2022-11-09T20:54:50Z</time></trkpt><trkpt lat="41.315385" lon="-8.733233"><ele>13.614</ele><time>2022-11-09T20:55:30Z</time></trkpt><trkpt lat="41.315100" lon="-8.735851"><ele>7.309</ele><time>2022-11-09T20:56:10Z</time></trkpt><trkpt lat="41.305592" lon="-8.736359"><ele>8.965</ele><time>2022-11-09T20:56:50Z</time></trkpt><trkpt lat="41.305047" lon="-8.737860"><ele>3.555</ele><time>2022-11-09T20:57:30Z</time></trkpt><trkpt lat="41.296320" lon="-8.733573"><ele>16.822</ele><time>2022-11-09T20:58:10Z</time></trkpt><trkpt lat="41.281700" lon="-8.730882"><ele>0.081</ele><time>2022-11-09T20:58:50Z</time></trkpt><trkpt lat="41.278766" lon="-8.728066"><ele>7.516</ele><time>2022-11-09T20:59:30Z</time></trkpt><trkpt lat="41.270114" lon="-8.726001"><ele>3.238</ele><time>2022-11-09T21:00:10Z</time></trkpt><trkpt lat="41.265051" lon="-8.727518"><ele>0.081</ele><time>2022-11-09T21:00:50Z</time></trkpt><trkpt lat="41.258739" lon="-8.723652"><ele>1.337</ele><time>2022-11-09T21:01:30Z</time></trkpt><trkpt lat="41.243738" lon="-8.724860"><ele>4.738</ele><time>2022-11-09T21:02:10Z</time></trkpt><trkpt lat="41.242353" lon="-8.726289"><ele>2.027</ele><time>2022-11-09T21:02:50Z</time></trkpt><trkpt lat="41.231271" lon="-8.720712"><ele>3.568</ele><time>2022-11-09T21:03:30Z</time></trkpt><trkpt lat="41.228118" lon="-8.720853"><ele>0.014</ele><time>2022-11-09T21:04:10Z</time></trkpt><trkpt lat="41.226272" lon="-8.716840"><ele>2.709</ele><time>2022-11-09T21:04:50Z</time></trkpt><trkpt lat="41.220416" lon="-8.714111"><ele>4.443</ele><time>2022-11-09T21:05:30Z</time></trkpt><trkpt lat="41.204987" lon="-8.714948"><ele>2.473</ele><time>2022-11-09T21:06:10Z</time></trkpt><trkpt lat="41.190713" lon="-8.705412"><ele>1.120</ele><time>2022-11-09T21:06:50Z</time></trkpt><trkpt lat="41.190849" lon="-8.696423"><ele>14.399</ele><time>2022-11-09T21:07:30Z</time></trkpt><trkpt lat="41.187568" lon="-8.692826"><ele>7.834</ele><time>2022-11-09T21:08:10Z</time></trkpt><trkpt lat="41.184928" lon="-8.696711"><ele>4.866</ele><time>2022-11-09T21:08:50Z</time></trkpt><trkpt lat="41.170559" lon="-8.687224"><ele>5.099</ele><time>2022-11-09T21:09:30Z</time></trkpt><trkpt lat="41.167341" lon="-8.688262"><ele>7.045</ele><time>2022-11-09T21:10:10Z</time></trkpt><trkpt lat="41.159309" lon="-8.683670"><ele>14.146</ele><time>2022-11-09T21:10:50Z</time></trkpt><trkpt lat="41.148332" lon="-8.675087"><ele>1.471</ele><time>2022-11-09T21:11:30Z</time></trkpt><trkpt lat="41.146771" lon="-8.658060"><ele>1.941</ele><time>2022-11-09T21:12:10Z</time></trkpt><trkpt lat="41.148545" lon="-8.654439"><ele>11.015</ele><time>2022-11-09T21:12:50Z</time></trkpt><trkpt lat="41.148476" lon="-8.637106"><ele>11.209</ele><time>2022-11-09T21:13:30Z</time></trkpt><trkpt lat="41.144952" lon="-8.629640"><ele>1.038</ele><time>2022-11-09T21:14:10Z</time></trkpt><trkpt lat="41.143514" lon="-8.621451"><ele>11.428</ele><time>2022-11-09T21:14:50Z</time></trkpt><trkpt lat="41.140537" lon="-8.616589"><ele>12.935</ele><time>2022-11-09T21:15:30Z</time></trkpt><trkpt lat="41.140302" lon="-8.609112"><ele>1.094</ele><time>2022-11-09T21:16:10Z</time></trkpt><trkpt lat="41.139915" lon="-8.609391"><ele>1.039</ele><time>2022-11-09T21:16:50Z</time></trkpt><trkpt lat="41.137391" lon="-8.615154"><ele>3.361</ele><time>2022-11-09T21:17:30Z</time></trkpt><trkpt lat="41.137643" lon="-8.619936"><ele>6.274</ele><time>2022-11-09T21:18:10Z</time></trkpt><trkpt lat="41.141630" lon="-8.624059"><ele>15.390</ele><time>2022-11-09T21:18:50Z</time></trkpt><trkpt lat="41.146293" lon="-8.639958"><ele>30.321</ele><time>2022-11-09T21:19:30Z</time></trkpt><trkpt lat="41.144460" lon="-8.646414"><ele>1.879</ele><time>2022-11-09T21:20:10Z</time></trkpt><trkpt lat="41.141866" lon="-8.648478"><ele>3.105</ele><time>2022-11-09T21:20:50Z</time></trkpt><trkpt lat="41.135941" lon="-8.660856"><ele>6.425</ele><time>2022-11-09T21:21:30Z</time></trkpt><trkpt lat="41.136857" lon="-8.668123"><ele>6.309</ele><time>2022-11-09T21:22:10Z</time></trkpt><trkpt lat="41.134963" lon="-8.670043"><ele>6.058</ele><time>2022-11-09T21:22:50Z</time></trkpt><trkpt lat="41.122206" lon="-8.666245"><ele>9.938</ele><time>2022-11-09T21:23:30Z</time></trkpt><trkpt lat="41.117383" lon="-8.662699"><ele>9.045</ele><time>2022-11-09T21:24:10Z</time></trkpt><trkpt lat="41.103045" lon="-8.661102"><ele>6.874</ele><time>2022-11-09T21:24:50Z</time></trkpt><trkpt lat="41.093596" lon="-8.656849"><ele>9.059</ele><time>2022-11-09T21:25:30Z</time></trkpt><trkpt lat="41.075926" lon="-8.655054"><ele>5.731</ele><time>2022-11-09T21:26:10Z</time></trkpt><trkpt lat="41.070223" lon="-8.655202"><ele>9.844</ele><time>2022-11-09T21:26:50Z</time></trkpt><trkpt lat="41.069362" lon="-8.656677"><ele>4.230</ele><time>2022-11-09T21:27:30Z</time></trkpt><trkpt lat="41.066298" lon="-8.656011"><ele>5.541</ele><time>2022-11-09T21:28:10Z</time></trkpt><trkpt lat="41.064582" lon="-8.652690"><ele>8.242</ele><time>2022-11-09T21:28:50Z</time></trkpt><trkpt lat="41.058640" lon="-8.654130"><ele>11.122</ele><time>2022-11-09T21:29:30Z</time></trkpt><trkpt lat="41.057853" lon="-8.655804"><ele>6.114</ele><time>2022-11-09T21:30:10Z</time></trkpt><trkpt lat="41.044712" lon="-8.651445"><ele>6.009</ele><time>2022-11-09T21:30:50Z</time></trkpt><trkpt lat="41.045057" lon="-8.649484"><ele>10.485</ele><time>2022-11-09T21:31:30Z</time></trkpt><trkpt lat="41.034166" lon="-8.645847"><ele>9.055</ele><time>2022-11-09T21:32:10Z</time></trkpt><trkpt lat="41.029809" lon="-8.641602"><ele>20.582</ele><time>2022-11-09T21:32:50Z</time></trkpt><trkpt lat="41.025439" lon="-8.643004"><ele>10.021</ele><time>2022-11-09T21:33:30Z</time></trkpt><trkpt lat="41.015737" lon="-8.639833"><ele>14.476</ele><time>2022-11-09T21:34:10Z</time></trkpt><trkpt lat="41.014318" lon="-8.644606"><ele>3.978</ele><time>2022-11-09T21:34:50Z</time></trkpt><trkpt lat="40.998751" lon="-8.646378"><ele>4.531</ele><time>2022-11-09T21:35:30Z</time></trkpt><trkpt lat="40.988472" lon="-8.646232"><ele>5.367</ele><time>2022-11-09T21:36:10Z</time></trkpt><trkpt lat="40.988387" lon="-8.644379"><ele>5.098</ele><time>2022-11-09T21:36:50Z</time></trkpt><trkpt lat="40.980250" lon="-8.642086"><ele>4.926</ele><time>2022-11-09T21:37:30Z</time></trkpt><trkpt lat="40.975599" lon="-8.643875"><ele>4.047</ele><time>2022-11-09T21:38:10Z</time></trkpt><trkpt lat="40.974899" lon="-8.641472"><ele>2.011</ele><time>2022-11-09T21:38:50Z</time></trkpt><trkpt lat="40.972498" lon="-8.641154"><ele>-0.709</ele><time>2022-11-09T21:39:30Z</time></trkpt><trkpt lat="40.969598" lon="-8.644120"><ele>0.143</ele><time>2022-11-09T21:40:10Z</time></trkpt><trkpt lat="40.968051" lon="-8.649730"><ele>1.033</ele><time>2022-11-09T21:40:50Z</time></trkpt><trkpt lat="40.965828" lon="-8.648803"><ele>0.770</ele><time>2022-11-09T21:41:30Z</time></trkpt><trkpt lat="40.962123" lon="-8.652181"><ele>1.139</ele><time>2022-11-09T21:42:10Z</time></trkpt><trkpt lat="40.959625" lon="-8.650945"><ele>7.634</ele><time>2022-11-09T21:42:50Z</time></trkpt><trkpt lat="40.957483" lon="-8.655143"><ele>2.126</ele><time>2022-11-09T21:43:30Z</time></trkpt><trkpt lat="40.953848" lon="-8.655143"><ele>3.059</ele><time>2022-11-09T21:44:10Z</time></trkpt><trkpt lat="40.954494" lon="-8.644947"><ele>7.065</ele><time>2022-11-09T21:44:50Z</time></trkpt><trkpt lat="40.931904" lon="-8.645766"><ele>14.956</ele><time>2022-11-09T21:45:30Z</time></trkpt><trkpt lat="40.929927" lon="-8.654977"><ele>19.538</ele><time>2022-11-09T21:46:10Z</time></trkpt><trkpt lat="40.928193" lon="-8.657160"><ele>20.470</ele><time>2022-11-09T21:46:50Z</time></trkpt><trkpt lat="40.911484" lon="-8.655180"><ele>28.617</ele><time>2022-11-09T21:47:30Z</time></trkpt><trkpt lat="40.905064" lon="-8.656186"><ele>25.509</ele><time>2022-11-09T21:48:10Z</time></trkpt><trkpt lat="40.899819" lon="-8.648125"><ele>28.854</ele><time>2022-11-09T21:48:50Z</time></trkpt><trkpt lat="40.888610" lon="-8.655758"><ele>26.034</ele><time>2022-11-09T21:49:30Z</time></trkpt><trkpt lat="40.884130" lon="-8.661387"><ele>18.011</ele><time>2022-11-09T21:50:10Z</time></trkpt><trkpt lat="40.876977" lon="-8.664206"><ele>16.190</ele><time>2022-11-09T21:50:50Z</time></trkpt><trkpt lat="40.875967" lon="-8.667020"><ele>9.295</ele><time>2022-11-09T21:51:30Z</time></trkpt><trkpt lat="40.876705" lon="-8.674891"><ele>6.647</ele><time>2022-11-09T21:52:10Z</time></trkpt><trkpt lat="40.870584" lon="-8.677781"><ele>4.170</ele><time>2022-11-09T21:52:50Z</time></trkpt><trkpt lat="40.870041" lon="-8.673542"><ele>5.296</ele><time>2022-11-09T21:53:30Z</time></trkpt><trkpt lat="40.871186" lon="-8.671282"><ele>8.477</ele><time>2022-11-09T21:54:10Z</time></trkpt><trkpt lat="40.865215" lon="-8.656880"><ele>4.658</ele><time>2022-11-09T21:54:50Z</time></trkpt><trkpt lat="40.860862" lon="-8.633294"><ele>16.052</ele><time>2022-11-09T21:55:30Z</time></trkpt><trkpt lat="40.856750" lon="-8.631601"><ele>9.017</ele><time>2022-11-09T21:56:10Z</time></trkpt><trkpt lat="40.850997" lon="-8.622272"><ele>7.609</ele><time>2022-11-09T21:56:50Z</time></trkpt><trkpt lat="40.845266" lon="-8.622242"><ele>8.946</ele><time>2022-11-09T21:57:30Z</time></trkpt><trkpt lat="40.828431" lon="-8.613834"><ele>13.936</ele><time>2022-11-09T21:58:10Z</time></trkpt><trkpt lat="40.812801" lon="-8.610796"><ele>16.983</ele><time>2022-11-09T21:58:50Z</time></trkpt><trkpt lat="40.812927" lon="-8.615222"><ele>1.132</ele><time>2022-11-09T21:59:30Z</time></trkpt><trkpt lat="40.808653" lon="-8.619025"><ele>1.297</ele><time>2022-11-09T22:00:10Z</time></trkpt><trkpt lat="40.806379" lon="-8.619063"><ele>2.039</ele><time>2022-11-09T22:00:50Z</time></trkpt><trkpt lat="40.807588" lon="-8.624653"><ele>3.742</ele><time>2022-11-09T22:01:30Z</time></trkpt><trkpt lat="40.813316" lon="-8.626098"><ele>0.958</ele><time>2022-11-09T22:02:10Z</time></trkpt><trkpt lat="40.812668" lon="-8.630643"><ele>-0.369</ele><time>2022-11-09T22:02:50Z</time></trkpt><trkpt lat="40.808667" lon="-8.627201"><ele>5.741</ele><time>2022-11-09T22:03:30Z</time></trkpt><trkpt lat="40.805400" lon="-8.628076"><ele>8.181</ele><time>2022-11-09T22:04:10Z</time></trkpt><trkpt lat="40.805717" lon="-8.632335"><ele>2.809</ele><time>2022-11-09T22:04:50Z</time></trkpt><trkpt lat="40.803587" lon="-8.633666"><ele>1.109</ele><time>2022-11-09T22:05:30Z</time></trkpt><trkpt lat="40.796131" lon="-8.625775"><ele>11.045</ele><time>2022-11-09T22:06:10Z</time></trkpt><trkpt lat="40.790804" lon="-8.633647"><ele>7.935</ele><time>2022-11-09T22:06:50Z</time></trkpt><trkpt lat="40.785377" lon="-8.635529"><ele>8.752</ele><time>2022-11-09T22:07:30Z</time></trkpt><trkpt lat="40.780266" lon="-8.643477"><ele>1.171</ele><time>2022-11-09T22:08:10Z</time></trkpt><trkpt lat="40.768300" lon="-8.651540"><ele>5.916</ele><time>2022-11-09T22:08:50Z</time></trkpt><trkpt lat="40.769366" lon="-8.655399"><ele>-0.398</ele><time>2022-11-09T22:09:30Z</time></trkpt><trkpt lat="40.764772" lon="-8.655076"><ele>0.811</ele><time>2022-11-09T22:10:10Z</time></trkpt><trkpt lat="40.763980" lon="-8.659354"><ele>0.067</ele><time>2022-11-09T22:10:50Z</time></trkpt><trkpt lat="40.761949" lon="-8.659183"><ele>0.098</ele><time>2022-11-09T22:11:30Z</time></trkpt><trkpt lat="40.761934" lon="-8.664412"><ele>2.146</ele><time>2022-11-09T22:12:10Z</time></trkpt><trkpt lat="40.786909" lon="-8.669510"><ele>0.788</ele><time>2022-11-09T22:12:50Z</time></trkpt><trkpt lat="40.790724" lon="-8.675071"><ele>-0.416</ele><time>2022-11-09T22:13:30Z</time></trkpt><trkpt lat="40.782812" lon="-8.687457"><ele>1.909</ele><time>2022-11-09T22:14:10Z</time></trkpt><trkpt lat="40.766075" lon="-8.698188"><ele>1.965</ele><time>2022-11-09T22:14:50Z</time></trkpt><trkpt lat="40.764612" lon="-8.701992"><ele>5.375</ele><time>2022-11-09T22:15:30Z</time></trkpt><trkpt lat="40.764471" lon="-8.711286"><ele>7.312</ele><time>2022-11-09T22:16:10Z</time></trkpt><trkpt lat="40.760831" lon="-8.713051"><ele>7.091</ele><time>2022-11-09T22:16:50Z</time></trkpt><trkpt lat="40.758528" lon="-8.701845"><ele>2.666</ele><time>2022-11-09T22:17:30Z</time></trkpt><trkpt lat="40.753369" lon="-8.702051"><ele>5.718</ele><time>2022-11-09T22:18:10Z</time></trkpt><trkpt lat="40.739043" lon="-8.696844"><ele>4.841</ele><time>2022-11-09T22:18:50Z</time></trkpt><trkpt lat="40.720770" lon="-8.699172"><ele>1.087</ele><time>2022-11-09T22:19:30Z</time></trkpt><trkpt lat="40.717684" lon="-8.700534"><ele>1.298</ele><time>2022-11-09T22:20:10Z</time></trkpt><trkpt lat="40.713472" lon="-8.707091"><ele>2.286</ele><time>2022-11-09T22:20:50Z</time></trkpt><trkpt lat="40.705715" lon="-8.714617"><ele>2.860</ele><time>2022-11-09T22:21:30Z</time></trkpt><trkpt lat="40.696820" lon="-8.720132"><ele>0.726</ele><time>2022-11-09T22:22:10Z</time></trkpt><trkpt lat="40.678288" lon="-8.718211"><ele>1.009</ele><time>2022-11-09T22:22:50Z</time></trkpt><trkpt lat="40.664990" lon="-8.728759"><ele>0.589</ele><time>2022-11-09T22:23:30Z</time></trkpt><trkpt lat="40.663852" lon="-8.729478"><ele>0.469</ele><time>2022-11-09T22:24:10Z</time></trkpt><trkpt lat="40.663019" lon="-8.727128"><ele>2.546</ele><time>2022-11-09T22:24:50Z</time></trkpt><trkpt lat="40.660843" lon="-8.729584"><ele>0.585</ele><time>2022-11-09T22:25:30Z</time></trkpt><trkpt lat="40.650292" lon="-8.730739"><ele>3.520</ele><time>2022-11-09T22:26:10Z</time></trkpt><trkpt lat="40.647440" lon="-8.734751"><ele>0.922</ele><time>2022-11-09T22:26:50Z</time></trkpt><trkpt lat="40.642263" lon="-8.729149"><ele>0.245</ele><time>2022-11-09T22:27:30Z</time></trkpt><trkpt lat="40.639318" lon="-8.729360"><ele>-0.551</ele><time>2022-11-09T22:28:10Z</time></trkpt><trkpt lat="40.639075" lon="-8.726408"><ele>1.632</ele><time>2022-11-09T22:28:50Z</time></trkpt><trkpt lat="40.625845" lon="-8.731678"><ele>3.036</ele><time>2022-11-09T22:29:30Z</time></trkpt><trkpt lat="40.625400" lon="-8.734997"><ele>-0.017</ele><time>2022-11-09T22:30:10Z</time></trkpt><trkpt lat="40.619710" lon="-8.737907"><ele>0.518</ele><time>2022-11-09T22:30:50Z</time></trkpt><trkpt lat="40.614251" lon="-8.738633"><ele>-1.109</ele><time>2022-11-09T22:31:30Z</time></trkpt><trkpt lat="40.606771" lon="-8.735265"><ele>1.494</ele><time>2022-11-09T22:32:10Z</time></trkpt><trkpt lat="40.601811" lon="-8.736410"><ele>2.044</ele><time>2022-11-09T22:32:50Z</time></trkpt><trkpt lat="40.598094" lon="-8.740771"><ele>0.141</ele><time>2022-11-09T22:33:30Z</time></trkpt><trkpt lat="40.588449" lon="-8.746707"><ele>0.860</ele><time>2022-11-09T22:34:10Z</time></trkpt><trkpt lat="40.580462" lon="-8.747604"><ele>-0.255</ele><time>2022-11-09T22:34:50Z</time></trkpt><trkpt lat="40.560022" lon="-8.756909"><ele>1.977</ele><time>2022-11-09T22:35:30Z</time></trkpt><trkpt lat="40.550757" lon="-8.768133"><ele>0.480</ele><time>2022-11-09T22:36:10Z</time></trkpt><trkpt lat="40.535476" lon="-8.765406"><ele>-0.236</ele><time>2022-11-09T22:36:50Z</time></trkpt><trkpt lat="40.526463" lon="-8.773519"><ele>-0.057</ele><time>2022-11-09T22:37:30Z</time></trkpt><trkpt lat="40.520843" lon="-8.775161"><ele>0.616</ele><time>2022-11-09T22:38:10Z</time></trkpt><trkpt lat="40.511422" lon="-8.774852"><ele>0.076</ele><time>2022-11-09T22:38:50Z</time></trkpt><trkpt lat="40.510284" lon="-8.769674"><ele>7.213</ele><time>2022-11-09T22:39:30Z</time></trkpt><trkpt lat="40.496695" lon="-8.778027"><ele>7.209</ele><time>2022-11-09T22:40:10Z</time></trkpt><trkpt lat="40.471361" lon="-8.782134"><ele>10.862</ele><time>2022-11-09T22:40:50Z</time></trkpt><trkpt lat="40.471590" lon="-8.783507"><ele>8.022</ele><time>2022-11-09T22:41:30Z</time></trkpt><trkpt lat="40.456015" lon="-8.782443"><ele>10.499</ele><time>2022-11-09T22:42:10Z</time></trkpt><trkpt lat="40.453556" lon="-8.778029"><ele>15.938</ele><time>2022-11-09T22:42:50Z</time></trkpt><trkpt lat="40.453780" lon="-8.779794"><ele>14.193</ele><time>2022-11-09T22:43:30Z</time></trkpt><trkpt lat="40.451064" lon="-8.781003"><ele>15.965</ele><time>2022-11-09T22:44:10Z</time></trkpt><trkpt lat="40.448463" lon="-8.785972"><ele>18.358</ele><time>2022-11-09T22:44:50Z</time></trkpt><trkpt lat="40.450230" lon="-8.786401"><ele>6.264</ele><time>2022-11-09T22:45:30Z</time></trkpt><trkpt lat="40.449453" lon="-8.793373"><ele>3.045</ele><time>2022-11-09T22:46:10Z</time></trkpt><trkpt lat="40.450225" lon="-8.791696"><ele>4.283</ele><time>2022-11-09T22:46:50Z</time></trkpt><trkpt lat="40.453142" lon="-8.793709"><ele>2.325</ele><time>2022-11-09T22:47:30Z</time></trkpt><trkpt lat="40.452873" lon="-8.799421"><ele>3.017</ele><time>2022-11-09T22:48:10Z</time></trkpt><trkpt lat="40.455564" lon="-8.800394"><ele>7.509</ele><time>2022-11-09T22:48:50Z</time></trkpt><trkpt lat="40.455728" lon="-8.802736"><ele>15.529</ele><time>2022-11-09T22:49:30Z</time></trkpt><trkpt lat="40.454407" lon="-8.803456"><ele>9.999</ele><time>2022-11-09T22:50:10Z</time></trkpt><trkpt lat="40.452418" lon="-8.803666"><ele>13.986</ele><time>2022-11-09T22:50:50Z</time></trkpt><trkpt lat="40.445396" lon="-8.797131"><ele>4.955</ele><time>2022-11-09T22:51:30Z</time></trkpt><trkpt lat="40.444513" lon="-8.798031"><ele>12.530</ele><time>2022-11-09T22:52:10Z</time></trkpt><trkpt lat="40.426043" lon="-8.785408"><ele>20.322</ele><time>2022-11-09T22:52:50Z</time></trkpt><trkpt lat="40.379064" lon="-8.784564"><ele>30.245</ele><time>2022-11-09T22:53:30Z</time></trkpt><trkpt lat="40.258429" lon="-8.835475"><ele>38.341</ele><time>2022-11-09T22:54:10Z</time></trkpt><trkpt lat="40.240475" lon="-8.849422"><ele>40.882</ele><time>2022-11-09T22:54:50Z</time></trkpt><trkpt lat="40.217108" lon="-8.848910"><ele>47.315</ele><time>2022-11-09T22:55:30Z</time></trkpt><trkpt lat="40.214596" lon="-8.851029"><ele>45.565</ele><time>2022-11-09T22:56:10Z</time></trkpt><trkpt lat="40.214230" lon="-8.853955"><ele>43.611</ele><time>2022-11-09T22:56:50Z</time></trkpt><trkpt lat="40.215948" lon="-8.862297"><ele>35.209</ele><time>2022-11-09T22:57:30Z</time></trkpt><trkpt lat="40.215940" lon="-8.877829"><ele>21.322</ele><time>2022-11-09T22:58:10Z</time></trkpt><trkpt lat="40.217751" lon="-8.879274"><ele>17.692</ele><time>2022-11-09T22:58:50Z</time></trkpt><trkpt lat="40.217674" lon="-8.887610"><ele>10.489</ele><time>2022-11-09T22:59:30Z</time></trkpt><trkpt lat="40.220792" lon="-8.890566"><ele>9.078</ele><time>2022-11-09T23:00:10Z</time></trkpt><trkpt lat="40.209969" lon="-8.895971"><ele>6.613</ele><time>2022-11-09T23:00:50Z</time></trkpt><trkpt lat="40.205978" lon="-8.894558"><ele>45.735</ele><time>2022-11-09T23:01:30Z</time></trkpt><trkpt lat="40.199419" lon="-8.902242"><ele>42.718</ele><time>2022-11-09T23:02:10Z</time></trkpt><trkpt lat="40.191642" lon="-8.905883"><ele>49.624</ele><time>2022-11-09T23:02:50Z</time></trkpt><trkpt lat="40.186893" lon="-8.904934"><ele>90.245</ele><time>2022-11-09T23:03:30Z</time></trkpt><trkpt lat="40.185501" lon="-8.902617"><ele>98.622</ele><time>2022-11-09T23:04:10Z</time></trkpt><trkpt lat="40.181484" lon="-8.905561"><ele>64.162</ele><time>2022-11-09T23:04:50Z</time></trkpt><trkpt lat="40.179216" lon="-8.904230"><ele>53.508</ele><time>2022-11-09T23:05:30Z</time></trkpt><trkpt lat="40.178243" lon="-8.900202"><ele>25.709</ele><time>2022-11-09T23:06:10Z</time></trkpt><trkpt lat="40.166805" lon="-8.884940"><ele>9.383</ele><time>2022-11-09T23:06:50Z</time></trkpt><trkpt lat="40.164054" lon="-8.879444"><ele>5.943</ele><time>2022-11-09T23:07:30Z</time></trkpt><trkpt lat="40.163912" lon="-8.874577"><ele>5.540</ele><time>2022-11-09T23:08:10Z</time></trkpt><trkpt lat="40.156891" lon="-8.868490"><ele>10.379</ele><time>2022-11-09T23:08:50Z</time></trkpt><trkpt lat="40.148936" lon="-8.866153"><ele>11.214</ele><time>2022-11-09T23:09:30Z</time></trkpt><trkpt lat="40.148092" lon="-8.856578"><ele>2.626</ele><time>2022-11-09T23:10:10Z</time></trkpt><trkpt lat="40.148092" lon="-8.856578"><ele>2.649</ele><time>2022-11-09T23:10:50Z</time></trkpt><trkpt lat="40.147240" lon="-8.827966"><ele>9.575</ele><time>2022-11-09T23:11:30Z</time></trkpt><trkpt lat="40.139383" lon="-8.803677"><ele>2.856</ele><time>2022-11-09T23:12:10Z</time></trkpt><trkpt lat="40.137770" lon="-8.800885"><ele>9.125</ele><time>2022-11-09T23:12:50Z</time></trkpt><trkpt lat="40.134922" lon="-8.801388"><ele>-1.026</ele><time>2022-11-09T23:13:30Z</time></trkpt><trkpt lat="40.118413" lon="-8.791425"><ele>0.708</ele><time>2022-11-09T23:14:10Z</time></trkpt><trkpt lat="40.115196" lon="-8.784216"><ele>1.109</ele><time>2022-11-09T23:14:50Z</time></trkpt><trkpt lat="40.117613" lon="-8.777067"><ele>1.853</ele><time>2022-11-09T23:15:30Z</time></trkpt><trkpt lat="40.135979" lon="-8.764266"><ele>-1.073</ele><time>2022-11-09T23:16:10Z</time></trkpt><trkpt lat="40.141059" lon="-8.756284"><ele>1.510</ele><time>2022-11-09T23:16:50Z</time></trkpt><trkpt lat="40.148393" lon="-8.735955"><ele>-0.669</ele><time>2022-11-09T23:17:30Z</time></trkpt><trkpt lat="40.149239" lon="-8.719954"><ele>0.414</ele><time>2022-11-09T23:18:10Z</time></trkpt><trkpt lat="40.145628" lon="-8.708907"><ele>5.536</ele><time>2022-11-09T23:18:50Z</time></trkpt><trkpt lat="40.141964" lon="-8.712073"><ele>4.619</ele><time>2022-11-09T23:19:30Z</time></trkpt><trkpt lat="40.145398" lon="-8.719401"><ele>2.495</ele><time>2022-11-09T23:20:10Z</time></trkpt><trkpt lat="40.144854" lon="-8.734351"><ele>5.056</ele><time>2022-11-09T23:20:50Z</time></trkpt><trkpt lat="40.138697" lon="-8.751173"><ele>2.513</ele><time>2022-11-09T23:21:30Z</time></trkpt><trkpt lat="40.136280" lon="-8.751400"><ele>2.643</ele><time>2022-11-09T23:22:10Z</time></trkpt><trkpt lat="40.126704" lon="-8.760599"><ele>0.007</ele><time>2022-11-09T23:22:50Z</time></trkpt><trkpt lat="40.119807" lon="-8.754902"><ele>6.109</ele><time>2022-11-09T23:23:30Z</time></trkpt><trkpt lat="40.118974" lon="-8.762354"><ele>9.942</ele><time>2022-11-09T23:24:10Z</time></trkpt><trkpt lat="40.116501" lon="-8.758014"><ele>8.032</ele><time>2022-11-09T23:24:50Z</time></trkpt><trkpt lat="40.110331" lon="-8.758703"><ele>13.259</ele><time>2022-11-09T23:25:30Z</time></trkpt><trkpt lat="40.104667" lon="-8.751937"><ele>8.988</ele><time>2022-11-09T23:26:10Z</time></trkpt><trkpt lat="40.095208" lon="-8.747204"><ele>11.093</ele><time>2022-11-09T23:26:50Z</time></trkpt><trkpt lat="40.089739" lon="-8.759514"><ele>-0.725</ele><time>2022-11-09T23:27:30Z</time></trkpt><trkpt lat="40.084495" lon="-8.757644"><ele>2.498</ele><time>2022-11-09T23:28:10Z</time></trkpt><trkpt lat="40.079201" lon="-8.758364"><ele>33.064</ele><time>2022-11-09T23:28:50Z</time></trkpt><trkpt lat="40.078570" lon="-8.760488"><ele>40.985</ele><time>2022-11-09T23:29:30Z</time></trkpt><trkpt lat="40.074938" lon="-8.758470"><ele>21.683</ele><time>2022-11-09T23:30:10Z</time></trkpt><trkpt lat="40.068144" lon="-8.761004"><ele>14.325</ele><time>2022-11-09T23:30:50Z</time></trkpt><trkpt lat="40.060944" lon="-8.768170"><ele>17.217</ele><time>2022-11-09T23:31:30Z</time></trkpt><trkpt lat="40.060382" lon="-8.770516"><ele>23.409</ele><time>2022-11-09T23:32:10Z</time></trkpt><trkpt lat="40.054752" lon="-8.773241"><ele>19.439</ele><time>2022-11-09T23:32:50Z</time></trkpt><trkpt lat="40.050643" lon="-8.780876"><ele>43.699</ele><time>2022-11-09T23:33:30Z</time></trkpt><trkpt lat="40.042620" lon="-8.783705"><ele>50.476</ele><time>2022-11-09T23:34:10Z</time></trkpt><trkpt lat="40.037493" lon="-8.782704"><ele>93.435</ele><time>2022-11-09T23:34:50Z</time></trkpt><trkpt lat="40.022171" lon="-8.797141"><ele>103.280</ele><time>2022-11-09T23:35:30Z</time></trkpt><trkpt lat="40.026382" lon="-8.806363"><ele>94.992</ele><time>2022-11-09T23:36:10Z</time></trkpt><trkpt lat="40.029082" lon="-8.818083"><ele>75.395</ele><time>2022-11-09T23:36:50Z</time></trkpt><trkpt lat="40.026932" lon="-8.820951"><ele>76.661</ele><time>2022-11-09T23:37:30Z</time></trkpt><trkpt lat="40.017508" lon="-8.815973"><ele>80.532</ele><time>2022-11-09T23:38:10Z</time></trkpt><trkpt lat="40.013189" lon="-8.819484"><ele>79.457</ele><time>2022-11-09T23:38:50Z</time></trkpt><trkpt lat="40.014222" lon="-8.823554"><ele>76.000</ele><time>2022-11-09T23:39:30Z</time></trkpt><trkpt lat="40.011320" lon="-8.839114"><ele>62.620</ele><time>2022-11-09T23:40:10Z</time></trkpt><trkpt lat="40.013148" lon="-8.848886"><ele>49.309</ele><time>2022-11-09T23:40:50Z</time></trkpt><trkpt lat="40.011280" lon="-8.852299"><ele>44.386</ele><time>2022-11-09T23:41:30Z</time></trkpt><trkpt lat="40.002492" lon="-8.858599"><ele>52.066</ele><time>2022-11-09T23:42:10Z</time></trkpt><trkpt lat="40.000291" lon="-8.863625"><ele>41.093</ele><time>2022-11-09T23:42:50Z</time></trkpt><trkpt lat="39.997147" lon="-8.860992"><ele>44.822</ele><time>2022-11-09T23:43:30Z</time></trkpt><trkpt lat="39.979762" lon="-8.856816"><ele>54.747</ele><time>2022-11-09T23:44:10Z</time></trkpt><trkpt lat="39.978956" lon="-8.863259"><ele>51.429</ele><time>2022-11-09T23:44:50Z</time></trkpt><trkpt lat="39.965626" lon="-8.895583"><ele>56.852</ele><time>2022-11-09T23:45:30Z</time></trkpt><trkpt lat="39.943877" lon="-8.891511"><ele>72.028</ele><time>2022-11-09T23:46:10Z</time></trkpt><trkpt lat="39.933323" lon="-8.896736"><ele>57.069</ele><time>2022-11-09T23:46:50Z</time></trkpt><trkpt lat="39.928812" lon="-8.901645"><ele>59.832</ele><time>2022-11-09T23:47:30Z</time></trkpt><trkpt lat="39.922566" lon="-8.903972"><ele>70.192</ele><time>2022-11-09T23:48:10Z</time></trkpt><trkpt lat="39.924585" lon="-8.916816"><ele>61.211</ele><time>2022-11-09T23:48:50Z</time></trkpt><trkpt lat="39.923507" lon="-8.921437"><ele>67.309</ele><time>2022-11-09T23:49:30Z</time></trkpt><trkpt lat="39.920300" lon="-8.922291"><ele>70.794</ele><time>2022-11-09T23:50:10Z</time></trkpt><trkpt lat="39.919209" lon="-8.925335"><ele>77.384</ele><time>2022-11-09T23:50:50Z</time></trkpt><trkpt lat="39.922784" lon="-8.941297"><ele>44.781</ele><time>2022-11-09T23:51:30Z</time></trkpt><trkpt lat="39.920548" lon="-8.945561"><ele>33.040</ele><time>2022-11-09T23:52:10Z</time></trkpt><trkpt lat="39.922463" lon="-8.951370"><ele>15.175</ele><time>2022-11-09T23:52:50Z</time></trkpt><trkpt lat="39.917259" lon="-8.954344"><ele>9.067</ele><time>2022-11-09T23:53:30Z</time></trkpt><trkpt lat="39.914341" lon="-8.950790"><ele>17.550</ele><time>2022-11-09T23:54:10Z</time></trkpt><trkpt lat="39.880040" lon="-8.963239"><ele>2.336</ele><time>2022-11-09T23:54:50Z</time></trkpt><trkpt lat="39.879778" lon="-8.967382"><ele>1.387</ele><time>2022-11-09T23:55:30Z</time></trkpt><trkpt lat="39.876584" lon="-8.970470"><ele>13.574</ele><time>2022-11-09T23:56:10Z</time></trkpt><trkpt lat="39.876584" lon="-8.970470"><ele>13.556</ele><time>2022-11-09T23:56:50Z</time></trkpt><trkpt lat="39.874626" lon="-8.972206"><ele>6.621</ele><time>2022-11-09T23:57:30Z</time></trkpt><trkpt lat="39.872664" lon="-8.966095"><ele>4.009</ele><time>2022-11-09T23:58:10Z</time></trkpt><trkpt lat="39.791809" lon="-8.995689"><ele>41.268</ele><time>2022-11-09T23:58:50Z</time></trkpt><trkpt lat="39.786099" lon="-9.007380"><ele>37.468</ele><time>2022-11-09T23:59:30Z</time></trkpt><trkpt lat="39.781294" lon="-9.014018"><ele>37.365</ele><time>2022-11-10T00:00:10Z</time></trkpt><trkpt lat="39.777718" lon="-9.015665"><ele>37.434</ele><time>2022-11-10T00:00:50Z</time></trkpt><trkpt lat="39.773728" lon="-9.023336"><ele>18.139</ele><time>2022-11-10T00:01:30Z</time></trkpt><trkpt lat="39.770493" lon="-9.025172"><ele>22.211</ele><time>2022-11-10T00:02:10Z</time></trkpt><trkpt lat="39.768772" lon="-9.028603"><ele>15.134</ele><time>2022-11-10T00:02:50Z</time></trkpt><trkpt lat="39.763558" lon="-9.031175"><ele>21.290</ele><time>2022-11-10T00:03:30Z</time></trkpt><trkpt lat="39.760161" lon="-9.030337"><ele>30.821</ele><time>2022-11-10T00:04:10Z</time></trkpt><trkpt lat="39.757827" lon="-9.032563"><ele>18.825</ele><time>2022-11-10T00:04:50Z</time></trkpt><trkpt lat="39.754453" lon="-9.027854"><ele>42.426</ele><time>2022-11-10T00:05:30Z</time></trkpt><trkpt lat="39.746783" lon="-9.026706"><ele>63.408</ele><time>2022-11-10T00:06:10Z</time></trkpt><trkpt lat="39.730559" lon="-9.032541"><ele>52.909</ele><time>2022-11-10T00:06:50Z</time></trkpt><trkpt lat="39.721108" lon="-9.047000"><ele>45.813</ele><time>2022-11-10T00:07:30Z</time></trkpt><trkpt lat="39.704131" lon="-9.047888"><ele>53.933</ele><time>2022-11-10T00:08:10Z</time></trkpt><trkpt lat="39.698951" lon="-9.031006"><ele>100.960</ele><time>2022-11-10T00:08:50Z</time></trkpt><trkpt lat="39.698576" lon="-9.023916"><ele>97.969</ele><time>2022-11-10T00:09:30Z</time></trkpt><trkpt lat="39.696495" lon="-9.020049"><ele>104.084</ele><time>2022-11-10T00:10:10Z</time></trkpt><trkpt lat="39.695164" lon="-9.034398"><ele>91.336</ele><time>2022-11-10T00:10:50Z</time></trkpt><trkpt lat="39.697918" lon="-9.041584"><ele>65.599</ele><time>2022-11-10T00:11:30Z</time></trkpt><trkpt lat="39.698227" lon="-9.047016"><ele>58.235</ele><time>2022-11-10T00:12:10Z</time></trkpt><trkpt lat="39.688119" lon="-9.055761"><ele>58.796</ele><time>2022-11-10T00:12:50Z</time></trkpt><trkpt lat="39.685216" lon="-9.056453"><ele>55.395</ele><time>2022-11-10T00:13:30Z</time></trkpt><trkpt lat="39.683410" lon="-9.046651"><ele>86.149</ele><time>2022-11-10T00:14:10Z</time></trkpt><trkpt lat="39.679967" lon="-9.051959"><ele>84.123</ele><time>2022-11-10T00:14:50Z</time></trkpt><trkpt lat="39.655754" lon="-9.064409"><ele>73.809</ele><time>2022-11-10T00:15:30Z</time></trkpt><trkpt lat="39.646393" lon="-9.063237"><ele>85.390</ele><time>2022-11-10T00:16:10Z</time></trkpt><trkpt lat="39.635642" lon="-9.069425"><ele>75.030</ele><time>2022-11-10T00:16:50Z</time></trkpt><trkpt lat="39.620524" lon="-9.071194"><ele>95.417</ele><time>2022-11-10T00:17:30Z</time></trkpt><trkpt lat="39.612786" lon="-9.070220"><ele>96.836</ele><time>2022-11-10T00:18:10Z</time></trkpt><trkpt lat="39.606576" lon="-9.075507"><ele>105.831</ele><time>2022-11-10T00:18:50Z</time></trkpt><trkpt lat="39.606630" lon="-9.080551"><ele>61.193</ele><time>2022-11-10T00:19:30Z</time></trkpt><trkpt lat="39.605163" lon="-9.081440"><ele>71.386</ele><time>2022-11-10T00:20:10Z</time></trkpt><trkpt lat="39.604473" lon="-9.076287"><ele>76.312</ele><time>2022-11-10T00:20:50Z</time></trkpt><trkpt lat="39.606700" lon="-9.069403"><ele>116.023</ele><time>2022-11-10T00:21:30Z</time></trkpt><trkpt lat="39.604992" lon="-9.067545"><ele>76.015</ele><time>2022-11-10T00:22:10Z</time></trkpt><trkpt lat="39.601441" lon="-9.069794"><ele>31.165</ele><time>2022-11-10T00:22:50Z</time></trkpt><trkpt lat="39.601135" lon="-9.073698"><ele>9.711</ele><time>2022-11-10T00:23:30Z</time></trkpt><trkpt lat="39.595692" lon="-9.072315"><ele>12.209</ele><time>2022-11-10T00:24:10Z</time></trkpt><trkpt lat="39.588770" lon="-9.074323"><ele>1.192</ele><time>2022-11-10T00:24:50Z</time></trkpt><trkpt lat="39.585422" lon="-9.070911"><ele>5.812</ele><time>2022-11-10T00:25:30Z</time></trkpt><trkpt lat="39.578011" lon="-9.074119"><ele>4.449</ele><time>2022-11-10T00:26:10Z</time></trkpt><trkpt lat="39.576938" lon="-9.071507"><ele>9.488</ele><time>2022-11-10T00:26:50Z</time></trkpt><trkpt lat="39.574127" lon="-9.071705"><ele>3.693</ele><time>2022-11-10T00:27:30Z</time></trkpt><trkpt lat="39.572812" lon="-9.068672"><ele>6.075</ele><time>2022-11-10T00:28:10Z</time></trkpt><trkpt lat="39.569497" lon="-9.069099"><ele>43.718</ele><time>2022-11-10T00:28:50Z</time></trkpt><trkpt lat="39.567296" lon="-9.073561"><ele>75.794</ele><time>2022-11-10T00:29:30Z</time></trkpt><trkpt lat="39.557279" lon="-9.081374"><ele>152.515</ele><time>2022-11-10T00:30:10Z</time></trkpt><trkpt lat="39.553771" lon="-9.086540"><ele>163.223</ele><time>2022-11-10T00:30:50Z</time></trkpt><trkpt lat="39.548526" lon="-9.096836"><ele>162.983</ele><time>2022-11-10T00:31:30Z</time></trkpt><trkpt lat="39.537145" lon="-9.112220"><ele>112.711</ele><time>2022-11-10T00:32:10Z</time></trkpt><trkpt lat="39.532875" lon="-9.124819"><ele>108.909</ele><time>2022-11-10T00:32:50Z</time></trkpt><trkpt lat="39.527401" lon="-9.126005"><ele>85.973</ele><time>2022-11-10T00:33:30Z</time></trkpt><trkpt lat="39.523327" lon="-9.129850"><ele>71.093</ele><time>2022-11-10T00:34:10Z</time></trkpt><trkpt lat="39.517884" lon="-9.139000"><ele>67.820</ele><time>2022-11-10T00:34:50Z</time></trkpt><trkpt lat="39.519577" lon="-9.141958"><ele>71.119</ele><time>2022-11-10T00:35:30Z</time></trkpt><trkpt lat="39.512510" lon="-9.140792"><ele>21.024</ele><time>2022-11-10T00:36:10Z</time></trkpt><trkpt lat="39.513245" lon="-9.137049"><ele>9.036</ele><time>2022-11-10T00:36:50Z</time></trkpt><trkpt lat="39.509513" lon="-9.134511"><ele>8.689</ele><time>2022-11-10T00:37:30Z</time></trkpt><trkpt lat="39.504689" lon="-9.135750"><ele>9.535</ele><time>2022-11-10T00:38:10Z</time></trkpt><trkpt lat="39.501804" lon="-9.141230"><ele>7.796</ele><time>2022-11-10T00:38:50Z</time></trkpt><trkpt lat="39.503834" lon="-9.148474"><ele>0.033</ele><time>2022-11-10T00:39:30Z</time></trkpt><trkpt lat="39.496438" lon="-9.153478"><ele>31.023</ele><time>2022-11-10T00:40:10Z</time></trkpt><trkpt lat="39.490484" lon="-9.160593"><ele>87.315</ele><time>2022-11-10T00:40:50Z</time></trkpt><trkpt lat="39.489994" lon="-9.171233"><ele>96.109</ele><time>2022-11-10T00:41:30Z</time></trkpt><trkpt lat="39.487606" lon="-9.176869"><ele>96.434</ele><time>2022-11-10T00:42:10Z</time></trkpt><trkpt lat="39.474928" lon="-9.191416"><ele>98.044</ele><time>2022-11-10T00:42:50Z</time></trkpt><trkpt lat="39.450665" lon="-9.203141"><ele>152.791</ele><time>2022-11-10T00:43:30Z</time></trkpt><trkpt lat="39.445876" lon="-9.214893"><ele>90.820</ele><time>2022-11-10T00:44:10Z</time></trkpt><trkpt lat="39.439493" lon="-9.222741"><ele>63.785</ele><time>2022-11-10T00:44:50Z</time></trkpt><trkpt lat="39.433343" lon="-9.227265"><ele>19.057</ele><time>2022-11-10T00:45:30Z</time></trkpt><trkpt lat="39.433343" lon="-9.227265"><ele>19.020</ele><time>2022-11-10T00:46:10Z</time></trkpt><trkpt lat="39.429511" lon="-9.224210"><ele>7.536</ele><time>2022-11-10T00:46:50Z</time></trkpt><trkpt lat="39.426261" lon="-9.216252"><ele>0.067</ele><time>2022-11-10T00:47:30Z</time></trkpt><trkpt lat="39.425842" lon="-9.211187"><ele>1.197</ele><time>2022-11-10T00:48:10Z</time></trkpt><trkpt lat="39.421993" lon="-9.206285"><ele>3.123</ele><time>2022-11-10T00:48:50Z</time></trkpt><trkpt lat="39.404887" lon="-9.199177"><ele>2.925</ele><time>2022-11-10T00:49:30Z</time></trkpt><trkpt lat="39.406055" lon="-9.192474"><ele>4.809</ele><time>2022-11-10T00:50:10Z</time></trkpt><trkpt lat="39.408991" lon="-9.189990"><ele>6.280</ele><time>2022-11-10T00:50:50Z</time></trkpt><trkpt lat="39.418152" lon="-9.189058"><ele>32.590</ele><time>2022-11-10T00:51:30Z</time></trkpt><trkpt lat="39.419388" lon="-9.185593"><ele>8.757</ele><time>2022-11-10T00:52:10Z</time></trkpt><trkpt lat="39.415366" lon="-9.183176"><ele>33.256</ele><time>2022-11-10T00:52:50Z</time></trkpt><trkpt lat="39.414905" lon="-9.180831"><ele>46.021</ele><time>2022-11-10T00:53:30Z</time></trkpt><trkpt lat="39.412943" lon="-9.180748"><ele>52.263</ele><time>2022-11-10T00:54:10Z</time></trkpt><trkpt lat="39.412522" lon="-9.178956"><ele>64.526</ele><time>2022-11-10T00:54:50Z</time></trkpt><trkpt lat="39.410546" lon="-9.181349"><ele>46.972</ele><time>2022-11-10T00:55:30Z</time></trkpt><trkpt lat="39.404195" lon="-9.176655"><ele>12.063</ele><time>2022-11-10T00:56:10Z</time></trkpt><trkpt lat="39.399285" lon="-9.176925"><ele>12.015</ele><time>2022-11-10T00:56:50Z</time></trkpt><trkpt lat="39.392838" lon="-9.172682"><ele>32.065</ele><time>2022-11-10T00:57:30Z</time></trkpt><trkpt lat="39.391985" lon="-9.170327"><ele>47.711</ele><time>2022-11-10T00:58:10Z</time></trkpt><trkpt lat="39.383921" lon="-9.170706"><ele>26.509</ele><time>2022-11-10T00:58:50Z</time></trkpt><trkpt lat="39.378379" lon="-9.167944"><ele>25.822</ele><time>2022-11-10T00:59:30Z</time></trkpt><trkpt lat="39.370464" lon="-9.167758"><ele>8.232</ele><time>2022-11-10T01:00:10Z</time></trkpt><trkpt lat="39.377180" lon="-9.178919"><ele>8.469</ele><time>2022-11-10T01:00:50Z</time></trkpt><trkpt lat="39.390528" lon="-9.187683"><ele>22.198</ele><time>2022-11-10T01:01:30Z</time></trkpt><trkpt lat="39.392580" lon="-9.191706"><ele>6.473</ele><time>2022-11-10T01:02:10Z</time></trkpt><trkpt lat="39.388719" lon="-9.191983"><ele>4.985</ele><time>2022-11-10T01:02:50Z</time></trkpt><trkpt lat="39.386577" lon="-9.197254"><ele>0.268</ele><time>2022-11-10T01:03:30Z</time></trkpt><trkpt lat="39.388217" lon="-9.200166"><ele>2.864</ele><time>2022-11-10T01:04:10Z</time></trkpt><trkpt lat="39.391493" lon="-9.198943"><ele>0.615</ele><time>2022-11-10T01:04:50Z</time></trkpt><trkpt lat="39.397430" lon="-9.205389"><ele>-0.765</ele><time>2022-11-10T01:05:30Z</time></trkpt><trkpt lat="39.394621" lon="-9.214857"><ele>0.868</ele><time>2022-11-10T01:06:10Z</time></trkpt><trkpt lat="39.384390" lon="-9.227053"><ele>6.314</ele><time>2022-11-10T01:06:50Z</time></trkpt><trkpt lat="39.387157" lon="-9.228043"><ele>12.209</ele><time>2022-11-10T01:07:30Z</time></trkpt><trkpt lat="39.395258" lon="-9.219750"><ele>3.327</ele><time>2022-11-10T01:08:10Z</time></trkpt><trkpt lat="39.397407" lon="-9.219309"><ele>7.747</ele><time>2022-11-10T01:08:50Z</time></trkpt><trkpt lat="39.397606" lon="-9.216275"><ele>0.584</ele><time>2022-11-10T01:09:30Z</time></trkpt><trkpt lat="39.399912" lon="-9.216710"><ele>0.473</ele><time>2022-11-10T01:10:10Z</time></trkpt><trkpt lat="39.401347" lon="-9.219707"><ele>0.038</ele><time>2022-11-10T01:10:50Z</time></trkpt><trkpt lat="39.406214" lon="-9.212648"><ele>3.250</ele><time>2022-11-10T01:11:30Z</time></trkpt><trkpt lat="39.408260" lon="-9.217770"><ele>4.173</ele><time>2022-11-10T01:12:10Z</time></trkpt><trkpt lat="39.413076" lon="-9.222851"><ele>7.639</ele><time>2022-11-10T01:12:50Z</time></trkpt><trkpt lat="39.416612" lon="-9.221865"><ele>0.780</ele><time>2022-11-10T01:13:30Z</time></trkpt><trkpt lat="39.422242" lon="-9.228399"><ele>0.051</ele><time>2022-11-10T01:14:10Z</time></trkpt><trkpt lat="39.421205" lon="-9.228975"><ele>9.601</ele><time>2022-11-10T01:14:50Z</time></trkpt><trkpt lat="39.423290" lon="-9.237317"><ele>39.311</ele><time>2022-11-10T01:15:30Z</time></trkpt><trkpt lat="39.416610" lon="-9.236384"><ele>75.009</ele><time>2022-11-10T01:16:10Z</time></trkpt><trkpt lat="39.403987" lon="-9.241043"><ele>98.296</ele><time>2022-11-10T01:16:50Z</time></trkpt><trkpt lat="39.403901" lon="-9.255112"><ele>79.616</ele><time>2022-11-10T01:17:30Z</time></trkpt><trkpt lat="39.400547" lon="-9.260212"><ele>80.163</ele><time>2022-11-10T01:18:10Z</time></trkpt><trkpt lat="39.394422" lon="-9.263186"><ele>55.142</ele><time>2022-11-10T01:18:50Z</time></trkpt><trkpt lat="39.396687" lon="-9.277677"><ele>9.477</ele><time>2022-11-10T01:19:30Z</time></trkpt><trkpt lat="39.390958" lon="-9.280573"><ele>33.469</ele><time>2022-11-10T01:20:10Z</time></trkpt><trkpt lat="39.386376" lon="-9.279651"><ele>34.742</ele><time>2022-11-10T01:20:50Z</time></trkpt><trkpt lat="39.377958" lon="-9.294781"><ele>31.858</ele><time>2022-11-10T01:21:30Z</time></trkpt><trkpt lat="39.374432" lon="-9.312837"><ele>36.399</ele><time>2022-11-10T01:22:10Z</time></trkpt><trkpt lat="39.374643" lon="-9.319524"><ele>33.186</ele><time>2022-11-10T01:22:50Z</time></trkpt><trkpt lat="39.372110" lon="-9.321474"><ele>27.760</ele><time>2022-11-10T01:23:30Z</time></trkpt><trkpt lat="39.370519" lon="-9.328701"><ele>21.226</ele><time>2022-11-10T01:24:10Z</time></trkpt><trkpt lat="39.373643" lon="-9.340041"><ele>0.009</ele><time>2022-11-10T01:24:50Z</time></trkpt><trkpt lat="39.377134" lon="-9.341147"><ele>0.049</ele><time>2022-11-10T01:25:30Z</time></trkpt><trkpt lat="39.373540" lon="-9.341229"><ele>0.069</ele><time>2022-11-10T01:26:10Z</time></trkpt><trkpt lat="39.372550" lon="-9.336408"><ele>9.836</ele><time>2022-11-10T01:26:50Z</time></trkpt><trkpt lat="39.366591" lon="-9.336823"><ele>10.875</ele><time>2022-11-10T01:27:30Z</time></trkpt><trkpt lat="39.362575" lon="-9.338917"><ele>9.780</ele><time>2022-11-10T01:28:10Z</time></trkpt><trkpt lat="39.358282" lon="-9.346631"><ele>10.522</ele><time>2022-11-10T01:28:50Z</time></trkpt><trkpt lat="39.356839" lon="-9.355153"><ele>6.335</ele><time>2022-11-10T01:29:30Z</time></trkpt><trkpt lat="39.358696" lon="-9.366251"><ele>1.781</ele><time>2022-11-10T01:30:10Z</time></trkpt><trkpt lat="39.364676" lon="-9.374394"><ele>2.352</ele><time>2022-11-10T01:30:50Z</time></trkpt><trkpt lat="39.369857" lon="-9.372722"><ele>9.488</ele><time>2022-11-10T01:31:30Z</time></trkpt><trkpt lat="39.371646" lon="-9.375808"><ele>11.024</ele><time>2022-11-10T01:32:10Z</time></trkpt><trkpt lat="39.367730" lon="-9.377414"><ele>12.226</ele><time>2022-11-10T01:32:50Z</time></trkpt><trkpt lat="39.369972" lon="-9.384351"><ele>11.409</ele><time>2022-11-10T01:33:30Z</time></trkpt><trkpt lat="39.369899" lon="-9.397143"><ele>11.659</ele><time>2022-11-10T01:34:10Z</time></trkpt><trkpt lat="39.366640" lon="-9.403223"><ele>11.569</ele><time>2022-11-10T01:34:50Z</time></trkpt><trkpt lat="39.359477" lon="-9.408405"><ele>14.356</ele><time>2022-11-10T01:35:30Z</time></trkpt><trkpt lat="39.359477" lon="-9.408405"><ele>14.385</ele><time>2022-11-10T01:36:10Z</time></trkpt><trkpt lat="39.359793" lon="-9.404853"><ele>18.190</ele><time>2022-11-10T01:36:50Z</time></trkpt><trkpt lat="39.357633" lon="-9.403663"><ele>13.992</ele><time>2022-11-10T01:37:30Z</time></trkpt><trkpt lat="39.356658" lon="-9.397339"><ele>16.555</ele><time>2022-11-10T01:38:10Z</time></trkpt><trkpt lat="39.354703" lon="-9.396033"><ele>11.681</ele><time>2022-11-10T01:38:50Z</time></trkpt><trkpt lat="39.355445" lon="-9.393693"><ele>18.052</ele><time>2022-11-10T01:39:30Z</time></trkpt><trkpt lat="39.353677" lon="-9.391525"><ele>22.912</ele><time>2022-11-10T01:40:10Z</time></trkpt><trkpt lat="39.355940" lon="-9.387677"><ele>19.432</ele><time>2022-11-10T01:40:50Z</time></trkpt><trkpt lat="39.353805" lon="-9.379135"><ele>5.005</ele><time>2022-11-10T01:41:30Z</time></trkpt><trkpt lat="39.356615" lon="-9.378376"><ele>4.309</ele><time>2022-11-10T01:42:10Z</time></trkpt><trkpt lat="39.358642" lon="-9.371361"><ele>2.012</ele><time>2022-11-10T01:42:50Z</time></trkpt><trkpt lat="39.356428" lon="-9.365305"><ele>3.632</ele><time>2022-11-10T01:43:30Z</time></trkpt><trkpt lat="39.352363" lon="-9.364575"><ele>2.549</ele><time>2022-11-10T01:44:10Z</time></trkpt><trkpt lat="39.351028" lon="-9.367224"><ele>3.498</ele><time>2022-11-10T01:44:50Z</time></trkpt><trkpt lat="39.349070" lon="-9.363347"><ele>1.723</ele><time>2022-11-10T01:45:30Z</time></trkpt><trkpt lat="39.349965" lon="-9.359808"><ele>2.085</ele><time>2022-11-10T01:46:10Z</time></trkpt><trkpt lat="39.346111" lon="-9.352643"><ele>5.048</ele><time>2022-11-10T01:46:50Z</time></trkpt><trkpt lat="39.340534" lon="-9.352229"><ele>5.134</ele><time>2022-11-10T01:47:30Z</time></trkpt><trkpt lat="39.340026" lon="-9.354357"><ele>11.055</ele><time>2022-11-10T01:48:10Z</time></trkpt><trkpt lat="39.328045" lon="-9.353897"><ele>17.176</ele><time>2022-11-10T01:48:50Z</time></trkpt><trkpt lat="39.327742" lon="-9.356658"><ele>12.290</ele><time>2022-11-10T01:49:30Z</time></trkpt><trkpt lat="39.324284" lon="-9.358041"><ele>17.519</ele><time>2022-11-10T01:50:10Z</time></trkpt><trkpt lat="39.324377" lon="-9.360816"><ele>3.009</ele><time>2022-11-10T01:50:50Z</time></trkpt><trkpt lat="39.319599" lon="-9.354761"><ele>16.568</ele><time>2022-11-10T01:51:30Z</time></trkpt><trkpt lat="39.319847" lon="-9.349010"><ele>23.098</ele><time>2022-11-10T01:52:10Z</time></trkpt><trkpt lat="39.322166" lon="-9.342382"><ele>35.695</ele><time>2022-11-10T01:52:50Z</time></trkpt><trkpt lat="39.321374" lon="-9.340451"><ele>38.134</ele><time>2022-11-10T01:53:30Z</time></trkpt><trkpt lat="39.311487" lon="-9.335540"><ele>58.119</ele><time>2022-11-10T01:54:10Z</time></trkpt><trkpt lat="39.308204" lon="-9.338929"><ele>65.331</ele><time>2022-11-10T01:54:50Z</time></trkpt><trkpt lat="39.302130" lon="-9.321177"><ele>103.624</ele><time>2022-11-10T01:55:30Z</time></trkpt><trkpt lat="39.294823" lon="-9.315547"><ele>113.020</ele><time>2022-11-10T01:56:10Z</time></trkpt><trkpt lat="39.288840" lon="-9.317502"><ele>90.641</ele><time>2022-11-10T01:56:50Z</time></trkpt><trkpt lat="39.288261" lon="-9.319115"><ele>88.074</ele><time>2022-11-10T01:57:30Z</time></trkpt><trkpt lat="39.287963" lon="-9.325541"><ele>74.156</ele><time>2022-11-10T01:58:10Z</time></trkpt><trkpt lat="39.289640" lon="-9.330194"><ele>74.021</ele><time>2022-11-10T01:58:50Z</time></trkpt><trkpt lat="39.288653" lon="-9.334831"><ele>68.609</ele><time>2022-11-10T01:59:30Z</time></trkpt><trkpt lat="39.289675" lon="-9.335357"><ele>61.988</ele><time>2022-11-10T02:00:10Z</time></trkpt><trkpt lat="39.287835" lon="-9.338188"><ele>44.168</ele><time>2022-11-10T02:00:50Z</time></trkpt><trkpt lat="39.283804" lon="-9.332501"><ele>33.915</ele><time>2022-11-10T02:01:30Z</time></trkpt><trkpt lat="39.282010" lon="-9.334869"><ele>43.584</ele><time>2022-11-10T02:02:10Z</time></trkpt><trkpt lat="39.277984" lon="-9.335003"><ele>46.919</ele><time>2022-11-10T02:02:50Z</time></trkpt><trkpt lat="39.276093" lon="-9.332548"><ele>25.841</ele><time>2022-11-10T02:03:30Z</time></trkpt><trkpt lat="39.274157" lon="-9.334414"><ele>42.154</ele><time>2022-11-10T02:04:10Z</time></trkpt><trkpt lat="39.264519" lon="-9.336119"><ele>2.830</ele><time>2022-11-10T02:04:50Z</time></trkpt><trkpt lat="39.264674" lon="-9.328425"><ele>11.571</ele><time>2022-11-10T02:05:30Z</time></trkpt><trkpt lat="39.262299" lon="-9.325831"><ele>6.353</ele><time>2022-11-10T02:06:10Z</time></trkpt><trkpt lat="39.254659" lon="-9.326764"><ele>17.904</ele><time>2022-11-10T02:06:50Z</time></trkpt><trkpt lat="39.254339" lon="-9.329192"><ele>40.014</ele><time>2022-11-10T02:07:30Z</time></trkpt><trkpt lat="39.249452" lon="-9.333808"><ele>85.309</ele><time>2022-11-10T02:08:10Z</time></trkpt><trkpt lat="39.244809" lon="-9.329955"><ele>93.316</ele><time>2022-11-10T02:08:50Z</time></trkpt><trkpt lat="39.235999" lon="-9.331861"><ele>105.146</ele><time>2022-11-10T02:09:30Z</time></trkpt><trkpt lat="39.225136" lon="-9.324389"><ele>108.313</ele><time>2022-11-10T02:10:10Z</time></trkpt><trkpt lat="39.220047" lon="-9.326439"><ele>107.132</ele><time>2022-11-10T02:10:50Z</time></trkpt><trkpt lat="39.219162" lon="-9.329794"><ele>106.597</ele><time>2022-11-10T02:11:30Z</time></trkpt><trkpt lat="39.220481" lon="-9.337332"><ele>91.729</ele><time>2022-11-10T02:12:10Z</time></trkpt><trkpt lat="39.218054" lon="-9.341323"><ele>56.942</ele><time>2022-11-10T02:12:50Z</time></trkpt><trkpt lat="39.213138" lon="-9.344613"><ele>15.518</ele><time>2022-11-10T02:13:30Z</time></trkpt><trkpt lat="39.209897" lon="-9.330403"><ele>111.619</ele><time>2022-11-10T02:14:10Z</time></trkpt><trkpt lat="39.211133" lon="-9.326518"><ele>120.557</ele><time>2022-11-10T02:14:50Z</time></trkpt><trkpt lat="39.209351" lon="-9.321174"><ele>126.700</ele><time>2022-11-10T02:15:30Z</time></trkpt><trkpt lat="39.207700" lon="-9.322582"><ele>120.720</ele><time>2022-11-10T02:16:10Z</time></trkpt><trkpt lat="39.207565" lon="-9.319993"><ele>109.409</ele><time>2022-11-10T02:16:50Z</time></trkpt><trkpt lat="39.209173" lon="-9.318008"><ele>109.396</ele><time>2022-11-10T02:17:30Z</time></trkpt><trkpt lat="39.208748" lon="-9.312948"><ele>125.456</ele><time>2022-11-10T02:18:10Z</time></trkpt><trkpt lat="39.204284" lon="-9.314111"><ele>124.613</ele><time>2022-11-10T02:18:50Z</time></trkpt><trkpt lat="39.202489" lon="-9.310660"><ele>139.632</ele><time>2022-11-10T02:19:30Z</time></trkpt><trkpt lat="39.200827" lon="-9.312151"><ele>127.927</ele><time>2022-11-10T02:20:10Z</time></trkpt><trkpt lat="39.200707" lon="-9.317386"><ele>102.179</ele><time>2022-11-10T02:20:50Z</time></trkpt><trkpt lat="39.195655" lon="-9.322829"><ele>35.942</ele><time>2022-11-10T02:21:30Z</time></trkpt><trkpt lat="39.183592" lon="-9.326695"><ele>19.138</ele><time>2022-11-10T02:22:10Z</time></trkpt><trkpt lat="39.181125" lon="-9.325566"><ele>14.099</ele><time>2022-11-10T02:22:50Z</time></trkpt><trkpt lat="39.179114" lon="-9.327522"><ele>25.573</ele><time>2022-11-10T02:23:30Z</time></trkpt><trkpt lat="39.179038" lon="-9.331133"><ele>10.685</ele><time>2022-11-10T02:24:10Z</time></trkpt><trkpt lat="39.174372" lon="-9.338055"><ele>7.013</ele><time>2022-11-10T02:24:50Z</time></trkpt><trkpt lat="39.177647" lon="-9.342121"><ele>11.309</ele><time>2022-11-10T02:25:30Z</time></trkpt><trkpt lat="39.176988" lon="-9.346307"><ele>12.918</ele><time>2022-11-10T02:26:10Z</time></trkpt><trkpt lat="39.178382" lon="-9.354273"><ele>11.218</ele><time>2022-11-10T02:26:50Z</time></trkpt><trkpt lat="39.159735" lon="-9.361688"><ele>40.145</ele><time>2022-11-10T02:27:30Z</time></trkpt><trkpt lat="39.153047" lon="-9.360894"><ele>58.294</ele><time>2022-11-10T02:28:10Z</time></trkpt><trkpt lat="39.147440" lon="-9.364173"><ele>59.279</ele><time>2022-11-10T02:28:50Z</time></trkpt><trkpt lat="39.144306" lon="-9.363359"><ele>68.941</ele><time>2022-11-10T02:29:30Z</time></trkpt><trkpt lat="39.143948" lon="-9.373624"><ele>35.274</ele><time>2022-11-10T02:30:10Z</time></trkpt><trkpt lat="39.136322" lon="-9.379123"><ele>21.110</ele><time>2022-11-10T02:30:50Z</time></trkpt><trkpt lat="39.135776" lon="-9.382585"><ele>11.381</ele><time>2022-11-10T02:31:30Z</time></trkpt><trkpt lat="39.133636" lon="-9.382514"><ele>21.526</ele><time>2022-11-10T02:32:10Z</time></trkpt><trkpt lat="39.133636" lon="-9.382514"><ele>21.547</ele><time>2022-11-10T02:32:50Z</time></trkpt><trkpt lat="39.120630" lon="-9.392412"><ele>51.611</ele><time>2022-11-10T02:33:30Z</time></trkpt><trkpt lat="39.116735" lon="-9.388149"><ele>51.709</ele><time>2022-11-10T02:34:10Z</time></trkpt><trkpt lat="39.116506" lon="-9.383513"><ele>57.443</ele><time>2022-11-10T02:34:50Z</time></trkpt><trkpt lat="39.108070" lon="-9.385659"><ele>18.263</ele><time>2022-11-10T02:35:30Z</time></trkpt><trkpt lat="39.106150" lon="-9.384594"><ele>7.370</ele><time>2022-11-10T02:36:10Z</time></trkpt><trkpt lat="39.104158" lon="-9.379575"><ele>14.019</ele><time>2022-11-10T02:36:50Z</time></trkpt><trkpt lat="39.101051" lon="-9.380813"><ele>8.714</ele><time>2022-11-10T02:37:30Z</time></trkpt><trkpt lat="39.099728" lon="-9.377247"><ele>4.916</ele><time>2022-11-10T02:38:10Z</time></trkpt><trkpt lat="39.096257" lon="-9.376200"><ele>4.799</ele><time>2022-11-10T02:38:50Z</time></trkpt><trkpt lat="39.095061" lon="-9.384333"><ele>5.275</ele><time>2022-11-10T02:39:30Z</time></trkpt><trkpt lat="39.095756" lon="-9.386433"><ele>3.986</ele><time>2022-11-10T02:40:10Z</time></trkpt><trkpt lat="39.098701" lon="-9.386536"><ele>3.021</ele><time>2022-11-10T02:40:50Z</time></trkpt><trkpt lat="39.101399" lon="-9.390272"><ele>4.041</ele><time>2022-11-10T02:41:30Z</time></trkpt><trkpt lat="39.103471" lon="-9.396632"><ele>4.005</ele><time>2022-11-10T02:42:10Z</time></trkpt><trkpt lat="39.102551" lon="-9.399426"><ele>0.309</ele><time>2022-11-10T02:42:50Z</time></trkpt><trkpt lat="39.093553" lon="-9.408247"><ele>71.573</ele><time>2022-11-10T02:43:30Z</time></trkpt><trkpt lat="39.084058" lon="-9.413941"><ele>78.313</ele><time>2022-11-10T02:44:10Z</time></trkpt><trkpt lat="39.082068" lon="-9.413607"><ele>80.970</ele><time>2022-11-10T02:44:50Z</time></trkpt><trkpt lat="39.081655" lon="-9.416354"><ele>57.399</ele><time>2022-11-10T02:45:30Z</time></trkpt><trkpt lat="39.078003" lon="-9.411315"><ele>78.744</ele><time>2022-11-10T02:46:10Z</time></trkpt><trkpt lat="39.069742" lon="-9.411724"><ele>76.166</ele><time>2022-11-10T02:46:50Z</time></trkpt><trkpt lat="39.062999" lon="-9.407182"><ele>81.889</ele><time>2022-11-10T02:47:30Z</time></trkpt><trkpt lat="39.054685" lon="-9.415567"><ele>14.995</ele><time>2022-11-10T02:48:10Z</time></trkpt><trkpt lat="39.050769" lon="-9.408342"><ele>44.056</ele><time>2022-11-10T02:48:50Z</time></trkpt><trkpt lat="39.049439" lon="-9.398969"><ele>93.065</ele><time>2022-11-10T02:49:30Z</time></trkpt><trkpt lat="39.042485" lon="-9.402299"><ele>90.368</ele><time>2022-11-10T02:50:10Z</time></trkpt><trkpt lat="39.035735" lon="-9.411267"><ele>98.814</ele><time>2022-11-10T02:50:50Z</time></trkpt><trkpt lat="39.028936" lon="-9.416808"><ele>74.709</ele><time>2022-11-10T02:51:30Z</time></trkpt><trkpt lat="39.019809" lon="-9.419051"><ele>60.297</ele><time>2022-11-10T02:52:10Z</time></trkpt><trkpt lat="39.019934" lon="-9.416191"><ele>51.847</ele><time>2022-11-10T02:52:50Z</time></trkpt><trkpt lat="39.013501" lon="-9.415195"><ele>4.574</ele><time>2022-11-10T02:53:30Z</time></trkpt><trkpt lat="39.010871" lon="-9.418527"><ele>7.853</ele><time>2022-11-10T02:54:10Z</time></trkpt><trkpt lat="39.009851" lon="-9.424950"><ele>13.718</ele><time>2022-11-10T02:54:50Z</time></trkpt><trkpt lat="39.008217" lon="-9.418369"><ele>75.710</ele><time>2022-11-10T02:55:30Z</time></trkpt><trkpt lat="39.007204" lon="-9.417746"><ele>79.273</ele><time>2022-11-10T02:56:10Z</time></trkpt><trkpt lat="39.005818" lon="-9.420070"><ele>79.489</ele><time>2022-11-10T02:56:50Z</time></trkpt><trkpt lat="38.996708" lon="-9.414181"><ele>78.460</ele><time>2022-11-10T02:57:30Z</time></trkpt><trkpt lat="38.988524" lon="-9.415506"><ele>20.046</ele><time>2022-11-10T02:58:10Z</time></trkpt><trkpt lat="38.986520" lon="-9.417980"><ele>50.388</ele><time>2022-11-10T02:58:50Z</time></trkpt><trkpt lat="38.969589" lon="-9.419845"><ele>23.916</ele><time>2022-11-10T02:59:30Z</time></trkpt><trkpt lat="38.964271" lon="-9.417828"><ele>30.909</ele><time>2022-11-10T03:00:10Z</time></trkpt><trkpt lat="38.960824" lon="-9.419491"><ele>4.615</ele><time>2022-11-10T03:00:50Z</time></trkpt><trkpt lat="38.960813" lon="-9.417066"><ele>17.565</ele><time>2022-11-10T03:01:30Z</time></trkpt><trkpt lat="38.955300" lon="-9.415773"><ele>18.552</ele><time>2022-11-10T03:02:10Z</time></trkpt><trkpt lat="38.954586" lon="-9.413912"><ele>44.861</ele><time>2022-11-10T03:02:50Z</time></trkpt><trkpt lat="38.945024" lon="-9.413767"><ele>53.786</ele><time>2022-11-10T03:03:30Z</time></trkpt><trkpt lat="38.942997" lon="-9.411295"><ele>33.588</ele><time>2022-11-10T03:04:10Z</time></trkpt><trkpt lat="38.945173" lon="-9.407819"><ele>26.391</ele><time>2022-11-10T03:04:50Z</time></trkpt><trkpt lat="38.943063" lon="-9.406027"><ele>15.587</ele><time>2022-11-10T03:05:30Z</time></trkpt><trkpt lat="38.944498" lon="-9.399748"><ele>45.458</ele><time>2022-11-10T03:06:10Z</time></trkpt><trkpt lat="38.941375" lon="-9.397193"><ele>67.067</ele><time>2022-11-10T03:06:50Z</time></trkpt><trkpt lat="38.941407" lon="-9.394078"><ele>76.381</ele><time>2022-11-10T03:07:30Z</time></trkpt><trkpt lat="38.935280" lon="-9.397124"><ele>108.619</ele><time>2022-11-10T03:08:10Z</time></trkpt><trkpt lat="38.931106" lon="-9.403791"><ele>89.909</ele><time>2022-11-10T03:08:50Z</time></trkpt><trkpt lat="38.933585" lon="-9.413719"><ele>61.327</ele><time>2022-11-10T03:09:30Z</time></trkpt><trkpt lat="38.931753" lon="-9.417870"><ele>17.697</ele><time>2022-11-10T03:10:10Z</time></trkpt><trkpt lat="38.922440" lon="-9.416744"><ele>94.924</ele><time>2022-11-10T03:10:50Z</time></trkpt><trkpt lat="38.915342" lon="-9.413737"><ele>117.883</ele><time>2022-11-10T03:11:30Z</time></trkpt><trkpt lat="38.904843" lon="-9.417608"><ele>105.058</ele><time>2022-11-10T03:12:10Z</time></trkpt><trkpt lat="38.900171" lon="-9.416976"><ele>103.370</ele><time>2022-11-10T03:12:50Z</time></trkpt><trkpt lat="38.902947" lon="-9.413733"><ele>115.053</ele><time>2022-11-10T03:13:30Z</time></trkpt><trkpt lat="38.903522" lon="-9.406893"><ele>127.019</ele><time>2022-11-10T03:14:10Z</time></trkpt><trkpt lat="38.898708" lon="-9.397202"><ele>140.060</ele><time>2022-11-10T03:14:50Z</time></trkpt><trkpt lat="38.894825" lon="-9.396321"><ele>139.599</ele><time>2022-11-10T03:15:30Z</time></trkpt><trkpt lat="38.889978" lon="-9.390912"><ele>154.707</ele><time>2022-11-10T03:16:10Z</time></trkpt><trkpt lat="38.884107" lon="-9.396363"><ele>124.227</ele><time>2022-11-10T03:16:50Z</time></trkpt><trkpt lat="38.881131" lon="-9.395331"><ele>110.609</ele><time>2022-11-10T03:17:30Z</time></trkpt><trkpt lat="38.875939" lon="-9.398758"><ele>149.820</ele><time>2022-11-10T03:18:10Z</time></trkpt><trkpt lat="38.866413" lon="-9.400049"><ele>149.910</ele><time>2022-11-10T03:18:50Z</time></trkpt><trkpt lat="38.861189" lon="-9.406024"><ele>147.157</ele><time>2022-11-10T03:19:30Z</time></trkpt><trkpt lat="38.855713" lon="-9.409151"><ele>161.536</ele><time>2022-11-10T03:20:10Z</time></trkpt><trkpt lat="38.865502" lon="-9.420543"><ele>140.871</ele><time>2022-11-10T03:20:50Z</time></trkpt><trkpt lat="38.867364" lon="-9.427466"><ele>130.143</ele><time>2022-11-10T03:21:30Z</time></trkpt><trkpt lat="38.868052" lon="-9.439552"><ele>104.616</ele><time>2022-11-10T03:22:10Z</time></trkpt><trkpt lat="38.865345" lon="-9.444261"><ele>86.892</ele><time>2022-11-10T03:22:50Z</time></trkpt><trkpt lat="38.865407" lon="-9.450159"><ele>21.293</ele><time>2022-11-10T03:23:30Z</time></trkpt><trkpt lat="38.862852" lon="-9.446282"><ele>26.144</ele><time>2022-11-10T03:24:10Z</time></trkpt><trkpt lat="38.861920" lon="-9.448955"><ele>50.605</ele><time>2022-11-10T03:24:50Z</time></trkpt><trkpt lat="38.857243" lon="-9.446253"><ele>97.515</ele><time>2022-11-10T03:25:30Z</time></trkpt><trkpt lat="38.853291" lon="-9.446826"><ele>106.809</ele><time>2022-11-10T03:26:10Z</time></trkpt><trkpt lat="38.851131" lon="-9.452725"><ele>86.655</ele><time>2022-11-10T03:26:50Z</time></trkpt><trkpt lat="38.849118" lon="-9.450006"><ele>100.225</ele><time>2022-11-10T03:27:30Z</time></trkpt><trkpt lat="38.850176" lon="-9.455623"><ele>37.692</ele><time>2022-11-10T03:28:10Z</time></trkpt><trkpt lat="38.841791" lon="-9.460982"><ele>50.271</ele><time>2022-11-10T03:28:50Z</time></trkpt><trkpt lat="38.839903" lon="-9.460099"><ele>36.976</ele><time>2022-11-10T03:29:30Z</time></trkpt><trkpt lat="38.839903" lon="-9.460099"><ele>36.928</ele><time>2022-11-10T03:30:10Z</time></trkpt><trkpt lat="38.836888" lon="-9.464822"><ele>37.271</ele><time>2022-11-10T03:30:50Z</time></trkpt><trkpt lat="38.828009" lon="-9.469577"><ele>19.987</ele><time>2022-11-10T03:31:30Z</time></trkpt><trkpt lat="38.821489" lon="-9.464625"><ele>23.268</ele><time>2022-11-10T03:32:10Z</time></trkpt><trkpt lat="38.819747" lon="-9.464972"><ele>14.444</ele><time>2022-11-10T03:32:50Z</time></trkpt><trkpt lat="38.818690" lon="-9.466050"><ele>8.705</ele><time>2022-11-10T03:33:30Z</time></trkpt><trkpt lat="38.819342" lon="-9.472091"><ele>40.015</ele><time>2022-11-10T03:34:10Z</time></trkpt><trkpt lat="38.806914" lon="-9.472779"><ele>121.009</ele><time>2022-11-10T03:34:50Z</time></trkpt><trkpt lat="38.799755" lon="-9.469732"><ele>109.135</ele><time>2022-11-10T03:35:30Z</time></trkpt><trkpt lat="38.797089" lon="-9.472112"><ele>135.365</ele><time>2022-11-10T03:36:10Z</time></trkpt><trkpt lat="38.797350" lon="-9.474681"><ele>109.662</ele><time>2022-11-10T03:36:50Z</time></trkpt><trkpt lat="38.793447" lon="-9.476880"><ele>73.261</ele><time>2022-11-10T03:37:30Z</time></trkpt><trkpt lat="38.791294" lon="-9.480842"><ele>115.336</ele><time>2022-11-10T03:38:10Z</time></trkpt><trkpt lat="38.788693" lon="-9.480366"><ele>130.288</ele><time>2022-11-10T03:38:50Z</time></trkpt><trkpt lat="38.781989" lon="-9.483621"><ele>144.131</ele><time>2022-11-10T03:39:30Z</time></trkpt><trkpt lat="38.782967" lon="-9.486488"><ele>156.057</ele><time>2022-11-10T03:40:10Z</time></trkpt><trkpt lat="38.780279" lon="-9.482380"><ele>182.858</ele><time>2022-11-10T03:40:50Z</time></trkpt><trkpt lat="38.778236" lon="-9.482746"><ele>203.499</ele><time>2022-11-10T03:41:30Z</time></trkpt><trkpt lat="38.771960" lon="-9.477980"><ele>244.307</ele><time>2022-11-10T03:42:10Z</time></trkpt><trkpt lat="38.772650" lon="-9.471654"><ele>238.927</ele><time>2022-11-10T03:42:50Z</time></trkpt><trkpt lat="38.770710" lon="-9.474080"><ele>229.009</ele><time>2022-11-10T03:43:30Z</time></trkpt><trkpt lat="38.768561" lon="-9.474045"><ele>238.850</ele><time>2022-11-10T03:44:10Z</time></trkpt><trkpt lat="38.762510" lon="-9.469660"><ele>231.760</ele><time>2022-11-10T03:44:50Z</time></trkpt><trkpt lat="38.761460" lon="-9.465350"><ele>225.747</ele><time>2022-11-10T03:45:30Z</time></trkpt><trkpt lat="38.759080" lon="-9.464830"><ele>218.476</ele><time>2022-11-10T03:46:10Z</time></trkpt><trkpt lat="38.757350" lon="-9.461250"><ele>206.311</ele><time>2022-11-10T03:46:50Z</time></trkpt><trkpt lat="38.758760" lon="-9.459330"><ele>209.413</ele><time>2022-11-10T03:47:30Z</time></trkpt><trkpt lat="38.754900" lon="-9.456600"><ele>185.946</ele><time>2022-11-10T03:48:10Z</time></trkpt><trkpt lat="38.752470" lon="-9.457240"><ele>175.222</ele><time>2022-11-10T03:48:50Z</time></trkpt><trkpt lat="38.752920" lon="-9.450370"><ele>145.993</ele><time>2022-11-10T03:49:30Z</time></trkpt><trkpt lat="38.745461" lon="-9.451351"><ele>102.856</ele><time>2022-11-10T03:50:10Z</time></trkpt><trkpt lat="38.735787" lon="-9.456873"><ele>59.159</ele><time>2022-11-10T03:50:50Z</time></trkpt><trkpt lat="38.733947" lon="-9.464541"><ele>37.614</ele><time>2022-11-10T03:51:30Z</time></trkpt><trkpt lat="38.730243" lon="-9.469603"><ele>26.609</ele><time>2022-11-10T03:52:10Z</time></trkpt><trkpt lat="38.728936" lon="-9.474566"><ele>16.736</ele><time>2022-11-10T03:52:50Z</time></trkpt><trkpt lat="38.724536" lon="-9.474883"><ele>22.316</ele><time>2022-11-10T03:53:30Z</time></trkpt><trkpt lat="38.722510" lon="-9.477818"><ele>19.983</ele><time>2022-11-10T03:54:10Z</time></trkpt><trkpt lat="38.710962" lon="-9.484785"><ele>10.452</ele><time>2022-11-10T03:54:50Z</time></trkpt><trkpt lat="38.707708" lon="-9.483723"><ele>10.787</ele><time>2022-11-10T03:55:30Z</time></trkpt><trkpt lat="38.703703" lon="-9.477717"><ele>14.319</ele><time>2022-11-10T03:56:10Z</time></trkpt><trkpt lat="38.695949" lon="-9.460088"><ele>13.322</ele><time>2022-11-10T03:56:50Z</time></trkpt><trkpt lat="38.695880" lon="-9.439356"><ele>25.588</ele><time>2022-11-10T03:57:30Z</time></trkpt><trkpt lat="38.692147" lon="-9.433260"><ele>13.999</ele><time>2022-11-10T03:58:10Z</time></trkpt><trkpt lat="38.690246" lon="-9.423556"><ele>10.996</ele><time>2022-11-10T03:58:50Z</time></trkpt><trkpt lat="38.695256" lon="-9.419384"><ele>7.631</ele><time>2022-11-10T03:59:30Z</time></trkpt><trkpt lat="38.698959" lon="-9.420604"><ele>12.324</ele><time>2022-11-10T04:00:10Z</time></trkpt><trkpt lat="38.703765" lon="-9.404548"><ele>7.609</ele><time>2022-11-10T04:00:50Z</time></trkpt><trkpt lat="38.702236" lon="-9.392049"><ele>8.360</ele><time>2022-11-10T04:01:30Z</time></trkpt><trkpt lat="38.700518" lon="-9.390304"><ele>0.060</ele><time>2022-11-10T04:02:10Z</time></trkpt><trkpt lat="38.701641" lon="-9.386355"><ele>26.057</ele><time>2022-11-10T04:02:50Z</time></trkpt><trkpt lat="38.697325" lon="-9.378582"><ele>22.156</ele><time>2022-11-10T04:03:30Z</time></trkpt><trkpt lat="38.698230" lon="-9.377884"><ele>26.961</ele><time>2022-11-10T04:04:10Z</time></trkpt><trkpt lat="38.694744" lon="-9.368355"><ele>20.713</ele><time>2022-11-10T04:04:50Z</time></trkpt><trkpt lat="38.691621" lon="-9.364165"><ele>23.556</ele><time>2022-11-10T04:05:30Z</time></trkpt><trkpt lat="38.687545" lon="-9.347701"><ele>23.072</ele><time>2022-11-10T04:06:10Z</time></trkpt><trkpt lat="38.699195" lon="-9.245275"><ele>3.333</ele><time>2022-11-10T04:06:50Z</time></trkpt><trkpt lat="38.698369" lon="-9.228329"><ele>9.146</ele><time>2022-11-10T04:07:30Z</time></trkpt><trkpt lat="38.693446" lon="-9.218242"><ele>7.288</ele><time>2022-11-10T04:08:10Z</time></trkpt><trkpt lat="38.695653" lon="-9.201008"><ele>5.616</ele><time>2022-11-10T04:08:50Z</time></trkpt><trkpt lat="38.694467" lon="-9.200559"><ele>0.709</ele><time>2022-11-10T04:09:30Z</time></trkpt><trkpt lat="38.698451" lon="-9.178672"><ele>0.015</ele><time>2022-11-10T04:10:10Z</time></trkpt><trkpt lat="38.699524" lon="-9.178948"><ele>2.025</ele><time>2022-11-10T04:10:50Z</time></trkpt><trkpt lat="38.701556" lon="-9.174544"><ele>9.272</ele><time>2022-11-10T04:11:30Z</time></trkpt><trkpt lat="38.703261" lon="-9.165909"><ele>8.011</ele><time>2022-11-10T04:12:10Z</time></trkpt><trkpt lat="38.702718" lon="-9.161731"><ele>3.276</ele><time>2022-11-10T04:12:50Z</time></trkpt><trkpt lat="38.704761" lon="-9.158175"><ele>4.118</ele><time>2022-11-10T04:13:30Z</time></trkpt><trkpt lat="38.705406" lon="-9.143897"><ele>7.091</ele><time>2022-11-10T04:14:10Z</time></trkpt><trkpt lat="38.688241" lon="-9.148443"><ele>0.547</ele><time>2022-11-10T04:14:50Z</time></trkpt><trkpt lat="38.684974" lon="-9.146727"><ele>0.768</ele><time>2022-11-10T04:15:30Z</time></trkpt><trkpt lat="38.675196" lon="-9.152520"><ele>4.978</ele><time>2022-11-10T04:16:10Z</time></trkpt><trkpt lat="38.669118" lon="-9.159102"><ele>13.333</ele><time>2022-11-10T04:16:50Z</time></trkpt><trkpt lat="38.665512" lon="-9.160103"><ele>19.426</ele><time>2022-11-10T04:17:30Z</time></trkpt><trkpt lat="38.656341" lon="-9.154364"><ele>56.509</ele><time>2022-11-10T04:18:10Z</time></trkpt><trkpt lat="38.643812" lon="-9.152417"><ele>16.058</ele><time>2022-11-10T04:18:50Z</time></trkpt><trkpt lat="38.639853" lon="-9.149908"><ele>7.648</ele><time>2022-11-10T04:19:30Z</time></trkpt><trkpt lat="38.635348" lon="-9.145190"><ele>15.365</ele><time>2022-11-10T04:20:10Z</time></trkpt><trkpt lat="38.623397" lon="-9.125565"><ele>46.534</ele><time>2022-11-10T04:20:50Z</time></trkpt><trkpt lat="38.617445" lon="-9.111946"><ele>12.049</ele><time>2022-11-10T04:21:30Z</time></trkpt><trkpt lat="38.608133" lon="-9.102695"><ele>17.291</ele><time>2022-11-10T04:22:10Z</time></trkpt><trkpt lat="38.608637" lon="-9.076376"><ele>25.874</ele><time>2022-11-10T04:22:50Z</time></trkpt><trkpt lat="38.597725" lon="-9.052654"><ele>6.610</ele><time>2022-11-10T04:23:30Z</time></trkpt><trkpt lat="38.596920" lon="-9.051459"><ele>4.911</ele><time>2022-11-10T04:24:10Z</time></trkpt><trkpt lat="38.593142" lon="-9.054453"><ele>12.135</ele><time>2022-11-10T04:24:50Z</time></trkpt><trkpt lat="38.580297" lon="-9.054988"><ele>25.186</ele><time>2022-11-10T04:25:30Z</time></trkpt><trkpt lat="38.563063" lon="-9.071375"><ele>66.114</ele><time>2022-11-10T04:26:10Z</time></trkpt><trkpt lat="38.562044" lon="-9.077314"><ele>69.909</ele><time>2022-11-10T04:26:50Z</time></trkpt><trkpt lat="38.554303" lon="-9.089476"><ele>70.934</ele><time>2022-11-10T04:27:30Z</time></trkpt><trkpt lat="38.551386" lon="-9.100161"><ele>73.814</ele><time>2022-11-10T04:28:10Z</time></trkpt><trkpt lat="38.545250" lon="-9.109018"><ele>64.691</ele><time>2022-11-10T04:28:50Z</time></trkpt><trkpt lat="38.536801" lon="-9.117050"><ele>34.930</ele><time>2022-11-10T04:29:30Z</time></trkpt><trkpt lat="38.533287" lon="-9.125559"><ele>18.895</ele><time>2022-11-10T04:30:10Z</time></trkpt><trkpt lat="38.530079" lon="-9.126935"><ele>12.337</ele><time>2022-11-10T04:30:50Z</time></trkpt><trkpt lat="38.525402" lon="-9.140085"><ele>8.270</ele><time>2022-11-10T04:31:30Z</time></trkpt><trkpt lat="38.523482" lon="-9.140157"><ele>7.636</ele><time>2022-11-10T04:32:10Z</time></trkpt><trkpt lat="38.521413" lon="-9.143468"><ele>17.847</ele><time>2022-11-10T04:32:50Z</time></trkpt><trkpt lat="38.509942" lon="-9.145125"><ele>12.117</ele><time>2022-11-10T04:33:30Z</time></trkpt><trkpt lat="38.508776" lon="-9.147930"><ele>22.887</ele><time>2022-11-10T04:34:10Z</time></trkpt><trkpt lat="38.502247" lon="-9.148751"><ele>22.015</ele><time>2022-11-10T04:34:50Z</time></trkpt><trkpt lat="38.492688" lon="-9.157023"><ele>59.209</ele><time>2022-11-10T04:35:30Z</time></trkpt><trkpt lat="38.477307" lon="-9.161453"><ele>62.732</ele><time>2022-11-10T04:36:10Z</time></trkpt><trkpt lat="38.476627" lon="-9.164976"><ele>41.752</ele><time>2022-11-10T04:36:50Z</time></trkpt><trkpt lat="38.474565" lon="-9.165565"><ele>37.829</ele><time>2022-11-10T04:37:30Z</time></trkpt><trkpt lat="38.474991" lon="-9.168121"><ele>35.688</ele><time>2022-11-10T04:38:10Z</time></trkpt><trkpt lat="38.454411" lon="-9.171498"><ele>105.533</ele><time>2022-11-10T04:38:50Z</time></trkpt><trkpt lat="38.452596" lon="-9.173738"><ele>106.985</ele><time>2022-11-10T04:39:30Z</time></trkpt><trkpt lat="38.449687" lon="-9.173246"><ele>114.988</ele><time>2022-11-10T04:40:10Z</time></trkpt><trkpt lat="38.446869" lon="-9.176453"><ele>127.574</ele><time>2022-11-10T04:40:50Z</time></trkpt><trkpt lat="38.440069" lon="-9.174510"><ele>170.675</ele><time>2022-11-10T04:41:30Z</time></trkpt><trkpt lat="38.431279" lon="-9.184553"><ele>159.086</ele><time>2022-11-10T04:42:10Z</time></trkpt><trkpt lat="38.421955" lon="-9.199381"><ele>147.060</ele><time>2022-11-10T04:42:50Z</time></trkpt><trkpt lat="38.419563" lon="-9.203679"><ele>138.826</ele><time>2022-11-10T04:43:30Z</time></trkpt><trkpt lat="38.419977" lon="-9.212470"><ele>132.109</ele><time>2022-11-10T04:44:10Z</time></trkpt><trkpt lat="38.417307" lon="-9.211916"><ele>132.189</ele><time>2022-11-10T04:44:50Z</time></trkpt><trkpt lat="38.415631" lon="-9.216033"><ele>138.439</ele><time>2022-11-10T04:45:30Z</time></trkpt><trkpt lat="38.417307" lon="-9.211916"><ele>132.116</ele><time>2022-11-10T04:46:10Z</time></trkpt><trkpt lat="38.419977" lon="-9.212470"><ele>132.165</ele><time>2022-11-10T04:46:50Z</time></trkpt><trkpt lat="38.419563" lon="-9.203679"><ele>138.860</ele><time>2022-11-10T04:47:30Z</time></trkpt><trkpt lat="38.421955" lon="-9.199381"><ele>147.022</ele><time>2022-11-10T04:48:10Z</time></trkpt><trkpt lat="38.444612" lon="-9.166335"><ele>178.225</ele><time>2022-11-10T04:48:50Z</time></trkpt><trkpt lat="38.446233" lon="-9.154927"><ele>197.451</ele><time>2022-11-10T04:49:30Z</time></trkpt><trkpt lat="38.442821" lon="-9.138670"><ele>190.712</ele><time>2022-11-10T04:50:10Z</time></trkpt><trkpt lat="38.447089" lon="-9.133019"><ele>196.953</ele><time>2022-11-10T04:50:50Z</time></trkpt><trkpt lat="38.450306" lon="-9.123767"><ele>190.504</ele><time>2022-11-10T04:51:30Z</time></trkpt><trkpt lat="38.457885" lon="-9.114441"><ele>189.614</ele><time>2022-11-10T04:52:10Z</time></trkpt><trkpt lat="38.458959" lon="-9.107061"><ele>191.409</ele><time>2022-11-10T04:52:50Z</time></trkpt><trkpt lat="38.464214" lon="-9.097802"><ele>172.456</ele><time>2022-11-10T04:53:30Z</time></trkpt><trkpt lat="38.464742" lon="-9.081799"><ele>139.316</ele><time>2022-11-10T04:54:10Z</time></trkpt><trkpt lat="38.464230" lon="-9.078864"><ele>148.113</ele><time>2022-11-10T04:54:50Z</time></trkpt><trkpt lat="38.460815" lon="-9.074953"><ele>151.042</ele><time>2022-11-10T04:55:30Z</time></trkpt><trkpt lat="38.461353" lon="-9.069794"><ele>147.327</ele><time>2022-11-10T04:56:10Z</time></trkpt><trkpt lat="38.460015" lon="-9.066496"><ele>143.969</ele><time>2022-11-10T04:56:50Z</time></trkpt><trkpt lat="38.461552" lon="-9.063248"><ele>144.032</ele><time>2022-11-10T04:57:30Z</time></trkpt><trkpt lat="38.461425" lon="-9.056810"><ele>118.168</ele><time>2022-11-10T04:58:10Z</time></trkpt><trkpt lat="38.465735" lon="-9.048078"><ele>106.369</ele><time>2022-11-10T04:58:50Z</time></trkpt><trkpt lat="38.471059" lon="-9.041384"><ele>113.429</ele><time>2022-11-10T04:59:30Z</time></trkpt><trkpt lat="38.475898" lon="-9.029849"><ele>118.300</ele><time>2022-11-10T05:00:10Z</time></trkpt><trkpt lat="38.470919" lon="-9.030465"><ele>159.420</ele><time>2022-11-10T05:00:50Z</time></trkpt><trkpt lat="38.468259" lon="-9.027098"><ele>195.409</ele><time>2022-11-10T05:01:30Z</time></trkpt><trkpt lat="38.464153" lon="-9.027060"><ele>212.393</ele><time>2022-11-10T05:02:10Z</time></trkpt><trkpt lat="38.460763" lon="-9.024547"><ele>204.243</ele><time>2022-11-10T05:02:50Z</time></trkpt><trkpt lat="38.460162" lon="-9.010295"><ele>244.270</ele><time>2022-11-10T05:03:30Z</time></trkpt><trkpt lat="38.461834" lon="-9.003327"><ele>166.329</ele><time>2022-11-10T05:04:10Z</time></trkpt><trkpt lat="38.467212" lon="-8.995745"><ele>94.694</ele><time>2022-11-10T05:04:50Z</time></trkpt><trkpt lat="38.469827" lon="-8.994477"><ele>87.676</ele><time>2022-11-10T05:05:30Z</time></trkpt><trkpt lat="38.469956" lon="-8.992438"><ele>66.689</ele><time>2022-11-10T05:06:10Z</time></trkpt><trkpt lat="38.477906" lon="-8.986381"><ele>131.995</ele><time>2022-11-10T05:06:50Z</time></trkpt><trkpt lat="38.483865" lon="-8.978051"><ele>81.566</ele><time>2022-11-10T05:07:30Z</time></trkpt><trkpt lat="38.485116" lon="-8.943633"><ele>22.843</ele><time>2022-11-10T05:08:10Z</time></trkpt><trkpt lat="38.487410" lon="-8.937015"><ele>15.464</ele><time>2022-11-10T05:08:50Z</time></trkpt><trkpt lat="38.489676" lon="-8.934555"><ele>29.410</ele><time>2022-11-10T05:09:30Z</time></trkpt><trkpt lat="38.492641" lon="-8.934247"><ele>18.109</ele><time>2022-11-10T05:10:10Z</time></trkpt><trkpt lat="38.495193" lon="-8.930882"><ele>14.195</ele><time>2022-11-10T05:10:50Z</time></trkpt><trkpt lat="38.502644" lon="-8.929343"><ele>21.845</ele><time>2022-11-10T05:11:30Z</time></trkpt><trkpt lat="38.504753" lon="-8.926298"><ele>14.362</ele><time>2022-11-10T05:12:10Z</time></trkpt><trkpt lat="38.508850" lon="-8.928699"><ele>10.281</ele><time>2022-11-10T05:12:50Z</time></trkpt><trkpt lat="38.508286" lon="-8.925840"><ele>25.786</ele><time>2022-11-10T05:13:30Z</time></trkpt><trkpt lat="38.511930" lon="-8.920420"><ele>55.748</ele><time>2022-11-10T05:14:10Z</time></trkpt><trkpt lat="38.513271" lon="-8.912058"><ele>37.651</ele><time>2022-11-10T05:14:50Z</time></trkpt><trkpt lat="38.523215" lon="-8.898450"><ele>4.857</ele><time>2022-11-10T05:15:30Z</time></trkpt><trkpt lat="38.522571" lon="-8.889355"><ele>7.678</ele><time>2022-11-10T05:16:10Z</time></trkpt><trkpt lat="38.521435" lon="-8.889128"><ele>8.049</ele><time>2022-11-10T05:16:50Z</time></trkpt><trkpt lat="38.522013" lon="-8.884974"><ele>6.302</ele><time>2022-11-10T05:17:30Z</time></trkpt><trkpt lat="38.520188" lon="-8.883429"><ele>2.822</ele><time>2022-11-10T05:18:10Z</time></trkpt><trkpt lat="38.466822" lon="-8.863125"><ele>0.009</ele><time>2022-11-10T05:18:50Z</time></trkpt><trkpt lat="38.463652" lon="-8.866770"><ele>7.235</ele><time>2022-11-10T05:19:30Z</time></trkpt><trkpt lat="38.458435" lon="-8.856622"><ele>9.215</ele><time>2022-11-10T05:20:10Z</time></trkpt><trkpt lat="38.451228" lon="-8.850971"><ele>12.282</ele><time>2022-11-10T05:20:50Z</time></trkpt><trkpt lat="38.439272" lon="-8.833233"><ele>10.211</ele><time>2022-11-10T05:21:30Z</time></trkpt><trkpt lat="38.433676" lon="-8.828661"><ele>13.916</ele><time>2022-11-10T05:22:10Z</time></trkpt><trkpt lat="38.419516" lon="-8.819919"><ele>11.828</ele><time>2022-11-10T05:22:50Z</time></trkpt><trkpt lat="38.417136" lon="-8.816141"><ele>9.681</ele><time>2022-11-10T05:23:30Z</time></trkpt><trkpt lat="38.382716" lon="-8.797403"><ele>15.337</ele><time>2022-11-10T05:24:10Z</time></trkpt><trkpt lat="38.380264" lon="-8.787846"><ele>6.538</ele><time>2022-11-10T05:24:50Z</time></trkpt><trkpt lat="38.347626" lon="-8.777397"><ele>18.468</ele><time>2022-11-10T05:25:30Z</time></trkpt><trkpt lat="38.330136" lon="-8.762359"><ele>23.842</ele><time>2022-11-10T05:26:10Z</time></trkpt><trkpt lat="38.322697" lon="-8.752284"><ele>20.626</ele><time>2022-11-10T05:26:50Z</time></trkpt><trkpt lat="38.308573" lon="-8.741764"><ele>18.009</ele><time>2022-11-10T05:27:30Z</time></trkpt><trkpt lat="38.301365" lon="-8.733393"><ele>27.017</ele><time>2022-11-10T05:28:10Z</time></trkpt><trkpt lat="38.299272" lon="-8.726578"><ele>19.547</ele><time>2022-11-10T05:28:50Z</time></trkpt><trkpt lat="38.297121" lon="-8.724652"><ele>17.894</ele><time>2022-11-10T05:29:30Z</time></trkpt><trkpt lat="38.295551" lon="-8.726800"><ele>31.073</ele><time>2022-11-10T05:30:10Z</time></trkpt><trkpt lat="38.278630" lon="-8.725763"><ele>57.978</ele><time>2022-11-10T05:30:50Z</time></trkpt><trkpt lat="38.268394" lon="-8.727245"><ele>57.860</ele><time>2022-11-10T05:31:30Z</time></trkpt><trkpt lat="38.256063" lon="-8.737468"><ele>68.153</ele><time>2022-11-10T05:32:10Z</time></trkpt><trkpt lat="38.238435" lon="-8.737023"><ele>70.079</ele><time>2022-11-10T05:32:50Z</time></trkpt><trkpt lat="38.183545" lon="-8.728578"><ele>68.830</ele><time>2022-11-10T05:33:30Z</time></trkpt><trkpt lat="38.177780" lon="-8.730726"><ele>65.671</ele><time>2022-11-10T05:34:10Z</time></trkpt><trkpt lat="38.163569" lon="-8.729986"><ele>76.041</ele><time>2022-11-10T05:34:50Z</time></trkpt><trkpt lat="38.150346" lon="-8.731986"><ele>51.515</ele><time>2022-11-10T05:35:30Z</time></trkpt><trkpt lat="38.150346" lon="-8.731986"><ele>51.509</ele><time>2022-11-10T05:36:10Z</time></trkpt><trkpt lat="38.148599" lon="-8.733393"><ele>41.868</ele><time>2022-11-10T05:36:50Z</time></trkpt><trkpt lat="38.145278" lon="-8.732727"><ele>29.518</ele><time>2022-11-10T05:37:30Z</time></trkpt><trkpt lat="38.140442" lon="-8.738431"><ele>31.125</ele><time>2022-11-10T05:38:10Z</time></trkpt><trkpt lat="38.139452" lon="-8.742579"><ele>29.764</ele><time>2022-11-10T05:38:50Z</time></trkpt><trkpt lat="38.133975" lon="-8.745320"><ele>25.619</ele><time>2022-11-10T05:39:30Z</time></trkpt><trkpt lat="38.125467" lon="-8.741690"><ele>50.371</ele><time>2022-11-10T05:40:10Z</time></trkpt><trkpt lat="38.109264" lon="-8.746950"><ele>50.484</ele><time>2022-11-10T05:40:50Z</time></trkpt><trkpt lat="38.106291" lon="-8.745691"><ele>49.860</ele><time>2022-11-10T05:41:30Z</time></trkpt><trkpt lat="38.102211" lon="-8.747098"><ele>27.011</ele><time>2022-11-10T05:42:10Z</time></trkpt><trkpt lat="38.102269" lon="-8.754951"><ele>48.446</ele><time>2022-11-10T05:42:50Z</time></trkpt><trkpt lat="38.106175" lon="-8.765544"><ele>44.788</ele><time>2022-11-10T05:43:30Z</time></trkpt><trkpt lat="38.100346" lon="-8.769322"><ele>20.216</ele><time>2022-11-10T05:44:10Z</time></trkpt><trkpt lat="38.079997" lon="-8.775175"><ele>21.409</ele><time>2022-11-10T05:44:50Z</time></trkpt><trkpt lat="38.077315" lon="-8.776730"><ele>17.185</ele><time>2022-11-10T05:45:30Z</time></trkpt><trkpt lat="38.074399" lon="-8.782286"><ele>7.635</ele><time>2022-11-10T05:46:10Z</time></trkpt><trkpt lat="38.068165" lon="-8.783322"><ele>15.142</ele><time>2022-11-10T05:46:50Z</time></trkpt><trkpt lat="38.060723" lon="-8.788731"><ele>24.671</ele><time>2022-11-10T05:47:30Z</time></trkpt><trkpt lat="38.047423" lon="-8.793769"><ele>27.476</ele><time>2022-11-10T05:48:10Z</time></trkpt><trkpt lat="38.008822" lon="-8.824734"><ele>22.728</ele><time>2022-11-10T05:48:50Z</time></trkpt><trkpt lat="37.996505" lon="-8.832735"><ele>33.681</ele><time>2022-11-10T05:49:30Z</time></trkpt><trkpt lat="37.988623" lon="-8.834661"><ele>33.417</ele><time>2022-11-10T05:50:10Z</time></trkpt><trkpt lat="37.989849" lon="-8.836365"><ele>36.418</ele><time>2022-11-10T05:50:50Z</time></trkpt><trkpt lat="37.988623" lon="-8.838884"><ele>33.098</ele><time>2022-11-10T05:51:30Z</time></trkpt><trkpt lat="37.976945" lon="-8.841995"><ele>22.215</ele><time>2022-11-10T05:52:10Z</time></trkpt><trkpt lat="37.974259" lon="-8.849255"><ele>38.326</ele><time>2022-11-10T05:52:50Z</time></trkpt><trkpt lat="37.966434" lon="-8.855700"><ele>33.709</ele><time>2022-11-10T05:53:30Z</time></trkpt><trkpt lat="37.960651" lon="-8.874664"><ele>35.670</ele><time>2022-11-10T05:54:10Z</time></trkpt><trkpt lat="37.956212" lon="-8.878887"><ele>33.030</ele><time>2022-11-10T05:54:50Z</time></trkpt><trkpt lat="37.952240" lon="-8.873924"><ele>6.657</ele><time>2022-11-10T05:55:30Z</time></trkpt><trkpt lat="37.954226" lon="-8.871775"><ele>15.916</ele><time>2022-11-10T05:56:10Z</time></trkpt><trkpt lat="37.954168" lon="-8.866516"><ele>13.011</ele><time>2022-11-10T05:56:50Z</time></trkpt><trkpt lat="37.948502" lon="-8.860441"><ele>7.843</ele><time>2022-11-10T05:57:30Z</time></trkpt><trkpt lat="37.946924" lon="-8.853329"><ele>7.986</ele><time>2022-11-10T05:58:10Z</time></trkpt><trkpt lat="37.943536" lon="-8.848736"><ele>20.762</ele><time>2022-11-10T05:58:50Z</time></trkpt><trkpt lat="37.942251" lon="-8.837476"><ele>33.833</ele><time>2022-11-10T05:59:30Z</time></trkpt><trkpt lat="37.929981" lon="-8.808066"><ele>16.091</ele><time>2022-11-10T06:00:10Z</time></trkpt><trkpt lat="37.911924" lon="-8.801918"><ele>5.081</ele><time>2022-11-10T06:00:50Z</time></trkpt><trkpt lat="37.902045" lon="-8.793769"><ele>21.619</ele><time>2022-11-10T06:01:30Z</time></trkpt><trkpt lat="37.882110" lon="-8.791176"><ele>18.309</ele><time>2022-11-10T06:02:10Z</time></trkpt><trkpt lat="37.879654" lon="-8.789324"><ele>22.390</ele><time>2022-11-10T06:02:50Z</time></trkpt><trkpt lat="37.860882" lon="-8.793546"><ele>15.690</ele><time>2022-11-10T06:03:30Z</time></trkpt><trkpt lat="37.859370" lon="-8.792049"><ele>22.027</ele><time>2022-11-10T06:04:10Z</time></trkpt><trkpt lat="37.851402" lon="-8.793628"><ele>20.956</ele><time>2022-11-10T06:04:50Z</time></trkpt><trkpt lat="37.857515" lon="-8.764306"><ele>67.641</ele><time>2022-11-10T06:05:30Z</time></trkpt><trkpt lat="37.855758" lon="-8.763518"><ele>69.853</ele><time>2022-11-10T06:06:10Z</time></trkpt><trkpt lat="37.847564" lon="-8.768043"><ele>62.076</ele><time>2022-11-10T06:06:50Z</time></trkpt><trkpt lat="37.844695" lon="-8.774091"><ele>58.112</ele><time>2022-11-10T06:07:30Z</time></trkpt><trkpt lat="37.847592" lon="-8.792361"><ele>21.263</ele><time>2022-11-10T06:08:10Z</time></trkpt><trkpt lat="37.838057" lon="-8.787501"><ele>21.021</ele><time>2022-11-10T06:08:50Z</time></trkpt><trkpt lat="37.832239" lon="-8.786837"><ele>21.041</ele><time>2022-11-10T06:09:30Z</time></trkpt><trkpt lat="37.827973" lon="-8.790818"><ele>28.405</ele><time>2022-11-10T06:10:10Z</time></trkpt><trkpt lat="37.819574" lon="-8.790024"><ele>12.509</ele><time>2022-11-10T06:10:50Z</time></trkpt><trkpt lat="37.820139" lon="-8.786959"><ele>23.943</ele><time>2022-11-10T06:11:30Z</time></trkpt><trkpt lat="37.815534" lon="-8.774804"><ele>53.013</ele><time>2022-11-10T06:12:10Z</time></trkpt><trkpt lat="37.811218" lon="-8.772316"><ele>56.820</ele><time>2022-11-10T06:12:50Z</time></trkpt><trkpt lat="37.807967" lon="-8.775792"><ele>57.999</ele><time>2022-11-10T06:13:30Z</time></trkpt><trkpt lat="37.806882" lon="-8.788419"><ele>28.764</ele><time>2022-11-10T06:14:10Z</time></trkpt><trkpt lat="37.805317" lon="-8.788603"><ele>22.096</ele><time>2022-11-10T06:14:50Z</time></trkpt><trkpt lat="37.803427" lon="-8.793105"><ele>25.889</ele><time>2022-11-10T06:15:30Z</time></trkpt><trkpt lat="37.792499" lon="-8.794830"><ele>20.455</ele><time>2022-11-10T06:16:10Z</time></trkpt><trkpt lat="37.788674" lon="-8.797881"><ele>17.626</ele><time>2022-11-10T06:16:50Z</time></trkpt><trkpt lat="37.785725" lon="-8.797427"><ele>20.437</ele><time>2022-11-10T06:17:30Z</time></trkpt><trkpt lat="37.782187" lon="-8.800648"><ele>19.349</ele><time>2022-11-10T06:18:10Z</time></trkpt><trkpt lat="37.777332" lon="-8.801541"><ele>28.313</ele><time>2022-11-10T06:18:50Z</time></trkpt><trkpt lat="37.767230" lon="-8.796915"><ele>67.909</ele><time>2022-11-10T06:19:30Z</time></trkpt><trkpt lat="37.747357" lon="-8.792209"><ele>47.524</ele><time>2022-11-10T06:20:10Z</time></trkpt><trkpt lat="37.743185" lon="-8.795448"><ele>36.094</ele><time>2022-11-10T06:20:50Z</time></trkpt><trkpt lat="37.736143" lon="-8.796072"><ele>19.591</ele><time>2022-11-10T06:21:30Z</time></trkpt><trkpt lat="37.725045" lon="-8.788553"><ele>17.630</ele><time>2022-11-10T06:22:10Z</time></trkpt><trkpt lat="37.723302" lon="-8.786342"><ele>11.885</ele><time>2022-11-10T06:22:50Z</time></trkpt><trkpt lat="37.723229" lon="-8.782826"><ele>17.377</ele><time>2022-11-10T06:23:30Z</time></trkpt><trkpt lat="37.723229" lon="-8.782826"><ele>17.340</ele><time>2022-11-10T06:24:10Z</time></trkpt><trkpt lat="37.733118" lon="-8.772343"><ele>44.436</ele><time>2022-11-10T06:24:50Z</time></trkpt><trkpt lat="37.717017" lon="-8.766517"><ele>53.017</ele><time>2022-11-10T06:25:30Z</time></trkpt><trkpt lat="37.701572" lon="-8.771175"><ele>51.219</ele><time>2022-11-10T06:26:10Z</time></trkpt><trkpt lat="37.681110" lon="-8.763170"><ele>56.609</ele><time>2022-11-10T06:26:50Z</time></trkpt><trkpt lat="37.657520" lon="-8.775661"><ele>42.419</ele><time>2022-11-10T06:27:30Z</time></trkpt><trkpt lat="37.655516" lon="-8.786506"><ele>25.109</ele><time>2022-11-10T06:28:10Z</time></trkpt><trkpt lat="37.652256" lon="-8.792501"><ele>30.842</ele><time>2022-11-10T06:28:50Z</time></trkpt><trkpt lat="37.638528" lon="-8.784187"><ele>47.092</ele><time>2022-11-10T06:29:30Z</time></trkpt><trkpt lat="37.619656" lon="-8.782480"><ele>58.569</ele><time>2022-11-10T06:30:10Z</time></trkpt><trkpt lat="37.612923" lon="-8.791793"><ele>60.278</ele><time>2022-11-10T06:30:50Z</time></trkpt><trkpt lat="37.598712" lon="-8.805457"><ele>46.633</ele><time>2022-11-10T06:31:30Z</time></trkpt><trkpt lat="37.600134" lon="-8.772893"><ele>74.335</ele><time>2022-11-10T06:32:10Z</time></trkpt><trkpt lat="37.598657" lon="-8.770635"><ele>74.998</ele><time>2022-11-10T06:32:50Z</time></trkpt><trkpt lat="37.593848" lon="-8.777216"><ele>76.074</ele><time>2022-11-10T06:33:30Z</time></trkpt><trkpt lat="37.575525" lon="-8.778985"><ele>64.095</ele><time>2022-11-10T06:34:10Z</time></trkpt><trkpt lat="37.563348" lon="-8.777139"><ele>66.942</ele><time>2022-11-10T06:34:50Z</time></trkpt><trkpt lat="37.557294" lon="-8.779526"><ele>54.322</ele><time>2022-11-10T06:35:30Z</time></trkpt><trkpt lat="37.549416" lon="-8.791559"><ele>35.014</ele><time>2022-11-10T06:36:10Z</time></trkpt><trkpt lat="37.535825" lon="-8.784779"><ele>48.809</ele><time>2022-11-10T06:36:50Z</time></trkpt><trkpt lat="37.524452" lon="-8.783836"><ele>38.665</ele><time>2022-11-10T06:37:30Z</time></trkpt><trkpt lat="37.524090" lon="-8.786349"><ele>27.265</ele><time>2022-11-10T06:38:10Z</time></trkpt><trkpt lat="37.520200" lon="-8.787999"><ele>29.782</ele><time>2022-11-10T06:38:50Z</time></trkpt><trkpt lat="37.514467" lon="-8.789391"><ele>38.971</ele><time>2022-11-10T06:39:30Z</time></trkpt><trkpt lat="37.510763" lon="-8.787966"><ele>58.576</ele><time>2022-11-10T06:40:10Z</time></trkpt><trkpt lat="37.510296" lon="-8.789569"><ele>62.988</ele><time>2022-11-10T06:40:50Z</time></trkpt><trkpt lat="37.503983" lon="-8.789966"><ele>41.871</ele><time>2022-11-10T06:41:30Z</time></trkpt><trkpt lat="37.502348" lon="-8.792492"><ele>18.497</ele><time>2022-11-10T06:42:10Z</time></trkpt><trkpt lat="37.499849" lon="-8.789768"><ele>10.328</ele><time>2022-11-10T06:42:50Z</time></trkpt><trkpt lat="37.498318" lon="-8.790880"><ele>30.469</ele><time>2022-11-10T06:43:30Z</time></trkpt><trkpt lat="37.496184" lon="-8.789339"><ele>45.904</ele><time>2022-11-10T06:44:10Z</time></trkpt><trkpt lat="37.489399" lon="-8.776499"><ele>66.224</ele><time>2022-11-10T06:44:50Z</time></trkpt><trkpt lat="37.481398" lon="-8.767866"><ele>86.709</ele><time>2022-11-10T06:45:30Z</time></trkpt><trkpt lat="37.478053" lon="-8.785323"><ele>62.047</ele><time>2022-11-10T06:46:10Z</time></trkpt><trkpt lat="37.476247" lon="-8.786764"><ele>65.767</ele><time>2022-11-10T06:46:50Z</time></trkpt><trkpt lat="37.472211" lon="-8.788751"><ele>65.024</ele><time>2022-11-10T06:47:30Z</time></trkpt><trkpt lat="37.458143" lon="-8.790235"><ele>56.873</ele><time>2022-11-10T06:48:10Z</time></trkpt><trkpt lat="37.450870" lon="-8.777399"><ele>79.468</ele><time>2022-11-10T06:48:50Z</time></trkpt><trkpt lat="37.441258" lon="-8.788417"><ele>63.040</ele><time>2022-11-10T06:49:30Z</time></trkpt><trkpt lat="37.435505" lon="-8.782723"><ele>7.053</ele><time>2022-11-10T06:50:10Z</time></trkpt><trkpt lat="37.437928" lon="-8.773763"><ele>16.079</ele><time>2022-11-10T06:50:50Z</time></trkpt><trkpt lat="37.435287" lon="-8.764825"><ele>6.340</ele><time>2022-11-10T06:51:30Z</time></trkpt><trkpt lat="37.433669" lon="-8.766353"><ele>6.159</ele><time>2022-11-10T06:52:10Z</time></trkpt><trkpt lat="37.434222" lon="-8.771874"><ele>3.303</ele><time>2022-11-10T06:52:50Z</time></trkpt><trkpt lat="37.430828" lon="-8.776628"><ele>9.123</ele><time>2022-11-10T06:53:30Z</time></trkpt><trkpt lat="37.432900" lon="-8.784134"><ele>7.809</ele><time>2022-11-10T06:54:10Z</time></trkpt><trkpt lat="37.434763" lon="-8.785646"><ele>5.316</ele><time>2022-11-10T06:54:50Z</time></trkpt><trkpt lat="37.433475" lon="-8.787004"><ele>3.366</ele><time>2022-11-10T06:55:30Z</time></trkpt><trkpt lat="37.435025" lon="-8.793106"><ele>28.363</ele><time>2022-11-10T06:56:10Z</time></trkpt><trkpt lat="37.440728" lon="-8.798106"><ele>10.992</ele><time>2022-11-10T06:56:50Z</time></trkpt><trkpt lat="37.439108" lon="-8.799731"><ele>25.687</ele><time>2022-11-10T06:57:30Z</time></trkpt><trkpt lat="37.437866" lon="-8.795817"><ele>46.319</ele><time>2022-11-10T06:58:10Z</time></trkpt><trkpt lat="37.431333" lon="-8.792581"><ele>64.012</ele><time>2022-11-10T06:58:50Z</time></trkpt><trkpt lat="37.425934" lon="-8.785612"><ele>83.528</ele><time>2022-11-10T06:59:30Z</time></trkpt><trkpt lat="37.420146" lon="-8.786185"><ele>81.399</ele><time>2022-11-10T07:00:10Z</time></trkpt><trkpt lat="37.419576" lon="-8.782743"><ele>86.519</ele><time>2022-11-10T07:00:50Z</time></trkpt><trkpt lat="37.410125" lon="-8.785453"><ele>84.309</ele><time>2022-11-10T07:01:30Z</time></trkpt><trkpt lat="37.402023" lon="-8.782339"><ele>96.619</ele><time>2022-11-10T07:02:10Z</time></trkpt><trkpt lat="37.403357" lon="-8.786588"><ele>87.609</ele><time>2022-11-10T07:02:50Z</time></trkpt><trkpt lat="37.400622" lon="-8.786985"><ele>87.392</ele><time>2022-11-10T07:03:30Z</time></trkpt><trkpt lat="37.400975" lon="-8.789319"><ele>87.952</ele><time>2022-11-10T07:04:10Z</time></trkpt><trkpt lat="37.397983" lon="-8.790966"><ele>85.689</ele><time>2022-11-10T07:04:50Z</time></trkpt><trkpt lat="37.397752" lon="-8.801114"><ele>72.058</ele><time>2022-11-10T07:05:30Z</time></trkpt><trkpt lat="37.386868" lon="-8.809517"><ele>64.733</ele><time>2022-11-10T07:06:10Z</time></trkpt><trkpt lat="37.380011" lon="-8.803994"><ele>79.635</ele><time>2022-11-10T07:06:50Z</time></trkpt><trkpt lat="37.373548" lon="-8.811212"><ele>73.588</ele><time>2022-11-10T07:07:30Z</time></trkpt><trkpt lat="37.369808" lon="-8.807101"><ele>81.164</ele><time>2022-11-10T07:08:10Z</time></trkpt><trkpt lat="37.369314" lon="-8.802200"><ele>93.035</ele><time>2022-11-10T07:08:50Z</time></trkpt><trkpt lat="37.356461" lon="-8.815273"><ele>86.783</ele><time>2022-11-10T07:09:30Z</time></trkpt><trkpt lat="37.342161" lon="-8.801449"><ele>116.825</ele><time>2022-11-10T07:10:10Z</time></trkpt><trkpt lat="37.340940" lon="-8.801554"><ele>117.217</ele><time>2022-11-10T07:10:50Z</time></trkpt><trkpt lat="37.339112" lon="-8.806945"><ele>111.009</ele><time>2022-11-10T07:11:30Z</time></trkpt><trkpt lat="37.335511" lon="-8.808614"><ele>105.859</ele><time>2022-11-10T07:12:10Z</time></trkpt><trkpt lat="37.322321" lon="-8.802611"><ele>27.129</ele><time>2022-11-10T07:12:50Z</time></trkpt><trkpt lat="37.318532" lon="-8.804349"><ele>41.996</ele><time>2022-11-10T07:13:30Z</time></trkpt><trkpt lat="37.318532" lon="-8.804349"><ele>41.935</ele><time>2022-11-10T07:14:10Z</time></trkpt><trkpt lat="37.312687" lon="-8.806141"><ele>75.280</ele><time>2022-11-10T07:14:50Z</time></trkpt><trkpt lat="37.309169" lon="-8.812257"><ele>118.042</ele><time>2022-11-10T07:15:30Z</time></trkpt><trkpt lat="37.296199" lon="-8.812906"><ele>132.335</ele><time>2022-11-10T07:16:10Z</time></trkpt><trkpt lat="37.282662" lon="-8.823459"><ele>145.811</ele><time>2022-11-10T07:16:50Z</time></trkpt><trkpt lat="37.269294" lon="-8.821506"><ele>146.382</ele><time>2022-11-10T07:17:30Z</time></trkpt><trkpt lat="37.260540" lon="-8.827107"><ele>159.731</ele><time>2022-11-10T07:18:10Z</time></trkpt><trkpt lat="37.257900" lon="-8.832836"><ele>155.861</ele><time>2022-11-10T07:18:50Z</time></trkpt><trkpt lat="37.252214" lon="-8.835626"><ele>149.507</ele><time>2022-11-10T07:19:30Z</time></trkpt><trkpt lat="37.246699" lon="-8.835197"><ele>137.309</ele><time>2022-11-10T07:20:10Z</time></trkpt><trkpt lat="37.239747" lon="-8.844595"><ele>145.764</ele><time>2022-11-10T07:20:50Z</time></trkpt><trkpt lat="37.233374" lon="-8.848157"><ele>143.274</ele><time>2022-11-10T07:21:30Z</time></trkpt><trkpt lat="37.228074" lon="-8.848736"><ele>112.851</ele><time>2022-11-10T07:22:10Z</time></trkpt><trkpt lat="37.222753" lon="-8.854423"><ele>85.380</ele><time>2022-11-10T07:22:50Z</time></trkpt><trkpt lat="37.221830" lon="-8.857555"><ele>82.965</ele><time>2022-11-10T07:23:30Z</time></trkpt><trkpt lat="37.213547" lon="-8.861268"><ele>25.667</ele><time>2022-11-10T07:24:10Z</time></trkpt><trkpt lat="37.208655" lon="-8.866138"><ele>19.150</ele><time>2022-11-10T07:24:50Z</time></trkpt><trkpt lat="37.201289" lon="-8.886487"><ele>15.986</ele><time>2022-11-10T07:25:30Z</time></trkpt><trkpt lat="37.188875" lon="-8.890521"><ele>18.677</ele><time>2022-11-10T07:26:10Z</time></trkpt><trkpt lat="37.186844" lon="-8.892899"><ele>7.844</ele><time>2022-11-10T07:26:50Z</time></trkpt><trkpt lat="37.191475" lon="-8.896090"><ele>4.705</ele><time>2022-11-10T07:27:30Z</time></trkpt><trkpt lat="37.192143" lon="-8.903054"><ele>10.615</ele><time>2022-11-10T07:28:10Z</time></trkpt><trkpt lat="37.197323" lon="-8.908394"><ele>33.509</ele><time>2022-11-10T07:28:50Z</time></trkpt><trkpt lat="37.195819" lon="-8.916619"><ele>39.465</ele><time>2022-11-10T07:29:30Z</time></trkpt><trkpt lat="37.189964" lon="-8.908298"><ele>37.955</ele><time>2022-11-10T07:30:10Z</time></trkpt><trkpt lat="37.184534" lon="-8.911176"><ele>28.412</ele><time>2022-11-10T07:30:50Z</time></trkpt><trkpt lat="37.180576" lon="-8.907932"><ele>27.491</ele><time>2022-11-10T07:31:30Z</time></trkpt><trkpt lat="37.176817" lon="-8.909251"><ele>40.426</ele><time>2022-11-10T07:32:10Z</time></trkpt><trkpt lat="37.168688" lon="-8.901403"><ele>21.268</ele><time>2022-11-10T07:32:50Z</time></trkpt><trkpt lat="37.169435" lon="-8.899623"><ele>18.571</ele><time>2022-11-10T07:33:30Z</time></trkpt><trkpt lat="37.167590" lon="-8.898267"><ele>9.357</ele><time>2022-11-10T07:34:10Z</time></trkpt><trkpt lat="37.167132" lon="-8.893020"><ele>13.958</ele><time>2022-11-10T07:34:50Z</time></trkpt><trkpt lat="37.171635" lon="-8.890715"><ele>52.344</ele><time>2022-11-10T07:35:30Z</time></trkpt><trkpt lat="37.169512" lon="-8.886892"><ele>86.605</ele><time>2022-11-10T07:36:10Z</time></trkpt><trkpt lat="37.170018" lon="-8.885130"><ele>99.515</ele><time>2022-11-10T07:36:50Z</time></trkpt><trkpt lat="37.161742" lon="-8.875120"><ele>109.409</ele><time>2022-11-10T07:37:30Z</time></trkpt><trkpt lat="37.157533" lon="-8.873798"><ele>117.195</ele><time>2022-11-10T07:38:10Z</time></trkpt><trkpt lat="37.156591" lon="-8.869497"><ele>118.425</ele><time>2022-11-10T07:38:50Z</time></trkpt><trkpt lat="37.156589" lon="-8.869496"><ele>118.412</ele><time>2022-11-10T07:39:30Z</time></trkpt><trkpt lat="37.153564" lon="-8.868947"><ele>123.511</ele><time>2022-11-10T07:40:10Z</time></trkpt><trkpt lat="37.151481" lon="-8.871559"><ele>122.026</ele><time>2022-11-10T07:40:50Z</time></trkpt><trkpt lat="37.147972" lon="-8.871610"><ele>129.328</ele><time>2022-11-10T07:41:30Z</time></trkpt><trkpt lat="37.126198" lon="-8.885094"><ele>130.811</ele><time>2022-11-10T07:42:10Z</time></trkpt><trkpt lat="37.101706" lon="-8.909139"><ele>124.057</ele><time>2022-11-10T07:42:50Z</time></trkpt><trkpt lat="37.093126" lon="-8.912338"><ele>121.378</ele><time>2022-11-10T07:43:30Z</time></trkpt><trkpt lat="37.084164" lon="-8.911086"><ele>82.286</ele><time>2022-11-10T07:44:10Z</time></trkpt><trkpt lat="37.083151" lon="-8.915392"><ele>83.960</ele><time>2022-11-10T07:44:50Z</time></trkpt><trkpt lat="37.081115" lon="-8.915481"><ele>74.026</ele><time>2022-11-10T07:45:30Z</time></trkpt><trkpt lat="37.074608" lon="-8.924196"><ele>104.509</ele><time>2022-11-10T07:46:10Z</time></trkpt><trkpt lat="37.071697" lon="-8.933091"><ele>84.169</ele><time>2022-11-10T07:46:50Z</time></trkpt><trkpt lat="37.055766" lon="-8.953810"><ele>75.249</ele><time>2022-11-10T07:47:30Z</time></trkpt><trkpt lat="37.049125" lon="-8.966502"><ele>71.386</ele><time>2022-11-10T07:48:10Z</time></trkpt><trkpt lat="37.030642" lon="-8.968483"><ele>51.955</ele><time>2022-11-10T07:48:50Z</time></trkpt><trkpt lat="37.027531" lon="-8.971483"><ele>44.680</ele><time>2022-11-10T07:49:30Z</time></trkpt><trkpt lat="37.028210" lon="-8.983534"><ele>52.422</ele><time>2022-11-10T07:50:10Z</time></trkpt><trkpt lat="37.023464" lon="-8.995301"><ele>44.225</ele><time>2022-11-10T07:50:50Z</time></trkpt><trkpt lat="37.023524" lon="-8.994992"><ele>48.031</ele><time>2022-11-10T07:51:30Z</time></trkpt><trkpt lat="37.028230" lon="-8.983610"><ele>52.482</ele><time>2022-11-10T07:52:10Z</time></trkpt><trkpt lat="37.027550" lon="-8.963550"><ele>39.136</ele><time>2022-11-10T07:52:50Z</time></trkpt><trkpt lat="37.010060" lon="-8.948990"><ele>21.817</ele><time>2022-11-10T07:53:30Z</time></trkpt><trkpt lat="37.007570" lon="-8.944740"><ele>28.718</ele><time>2022-11-10T07:54:10Z</time></trkpt><trkpt lat="37.047350" lon="-8.929240"><ele>48.509</ele><time>2022-11-10T07:54:50Z</time></trkpt><trkpt lat="37.053710" lon="-8.924210"><ele>61.244</ele><time>2022-11-10T07:55:30Z</time></trkpt><trkpt lat="37.066460" lon="-8.922840"><ele>72.244</ele><time>2022-11-10T07:56:10Z</time></trkpt><trkpt lat="37.080670" lon="-8.911810"><ele>72.431</ele><time>2022-11-10T07:56:50Z</time></trkpt><trkpt lat="37.082540" lon="-8.907610"><ele>80.930</ele><time>2022-11-10T07:57:30Z</time></trkpt><trkpt lat="37.085230" lon="-8.909850"><ele>82.645</ele><time>2022-11-10T07:58:10Z</time></trkpt><trkpt lat="37.088370" lon="-8.902390"><ele>75.147</ele><time>2022-11-10T07:58:50Z</time></trkpt><trkpt lat="37.084040" lon="-8.889690"><ele>66.150</ele><time>2022-11-10T07:59:30Z</time></trkpt><trkpt lat="37.080930" lon="-8.889480"><ele>60.896</ele><time>2022-11-10T08:00:10Z</time></trkpt><trkpt lat="37.079391" lon="-8.887535"><ele>67.447</ele><time>2022-11-10T08:00:50Z</time></trkpt><trkpt lat="37.081400" lon="-8.883990"><ele>86.262</ele><time>2022-11-10T08:01:30Z</time></trkpt><trkpt lat="37.079590" lon="-8.879730"><ele>104.583</ele><time>2022-11-10T08:02:10Z</time></trkpt><trkpt lat="37.076810" lon="-8.875820"><ele>64.311</ele><time>2022-11-10T08:02:50Z</time></trkpt><trkpt lat="37.073540" lon="-8.875160"><ele>60.309</ele><time>2022-11-10T08:03:30Z</time></trkpt><trkpt lat="37.072440" lon="-8.872500"><ele>52.017</ele><time>2022-11-10T08:04:10Z</time></trkpt><trkpt lat="37.068450" lon="-8.872140"><ele>40.867</ele><time>2022-11-10T08:04:50Z</time></trkpt><trkpt lat="37.066410" lon="-8.868500"><ele>52.864</ele><time>2022-11-10T08:05:30Z</time></trkpt><trkpt lat="37.068210" lon="-8.853810"><ele>41.473</ele><time>2022-11-10T08:06:10Z</time></trkpt><trkpt lat="37.073690" lon="-8.846670"><ele>24.058</ele><time>2022-11-10T08:06:50Z</time></trkpt><trkpt lat="37.073410" lon="-8.841960"><ele>43.530</ele><time>2022-11-10T08:07:30Z</time></trkpt><trkpt lat="37.070370" lon="-8.838070"><ele>69.213</ele><time>2022-11-10T08:08:10Z</time></trkpt><trkpt lat="37.070410" lon="-8.833800"><ele>66.339</ele><time>2022-11-10T08:08:50Z</time></trkpt><trkpt lat="37.066000" lon="-8.829270"><ele>53.940</ele><time>2022-11-10T08:09:30Z</time></trkpt><trkpt lat="37.065650" lon="-8.824440"><ele>5.439</ele><time>2022-11-10T08:10:10Z</time></trkpt><trkpt lat="37.068720" lon="-8.823040"><ele>38.001</ele><time>2022-11-10T08:10:50Z</time></trkpt><trkpt lat="37.070170" lon="-8.819090"><ele>49.921</ele><time>2022-11-10T08:11:30Z</time></trkpt><trkpt lat="37.069840" lon="-8.814450"><ele>47.609</ele><time>2022-11-10T08:12:10Z</time></trkpt><trkpt lat="37.065680" lon="-8.811850"><ele>12.434</ele><time>2022-11-10T08:12:50Z</time></trkpt><trkpt lat="37.072930" lon="-8.813190"><ele>11.254</ele><time>2022-11-10T08:13:30Z</time></trkpt><trkpt lat="37.072510" lon="-8.805890"><ele>6.931</ele><time>2022-11-10T08:14:10Z</time></trkpt><trkpt lat="37.074590" lon="-8.803370"><ele>8.260</ele><time>2022-11-10T08:14:50Z</time></trkpt><trkpt lat="37.074220" lon="-8.799380"><ele>6.955</ele><time>2022-11-10T08:15:30Z</time></trkpt><trkpt lat="37.075770" lon="-8.795100"><ele>42.017</ele><time>2022-11-10T08:16:10Z</time></trkpt><trkpt lat="37.071720" lon="-8.791250"><ele>29.630</ele><time>2022-11-10T08:16:50Z</time></trkpt><trkpt lat="37.070330" lon="-8.786650"><ele>44.056</ele><time>2022-11-10T08:17:30Z</time></trkpt><trkpt lat="37.078150" lon="-8.762880"><ele>32.497</ele><time>2022-11-10T08:18:10Z</time></trkpt><trkpt lat="37.083170" lon="-8.755270"><ele>53.867</ele><time>2022-11-10T08:18:50Z</time></trkpt><trkpt lat="37.078020" lon="-8.751930"><ele>60.881</ele><time>2022-11-10T08:19:30Z</time></trkpt><trkpt lat="37.078260" lon="-8.746360"><ele>24.719</ele><time>2022-11-10T08:20:10Z</time></trkpt><trkpt lat="37.083900" lon="-8.736850"><ele>22.809</ele><time>2022-11-10T08:20:50Z</time></trkpt><trkpt lat="37.086850" lon="-8.737000"><ele>47.517</ele><time>2022-11-10T08:21:30Z</time></trkpt><trkpt lat="37.091360" lon="-8.727020"><ele>28.877</ele><time>2022-11-10T08:22:10Z</time></trkpt><trkpt lat="37.100820" lon="-8.713870"><ele>42.124</ele><time>2022-11-10T08:22:50Z</time></trkpt><trkpt lat="37.097850" lon="-8.699660"><ele>50.123</ele><time>2022-11-10T08:23:30Z</time></trkpt><trkpt lat="37.099340" lon="-8.691450"><ele>32.278</ele><time>2022-11-10T08:24:10Z</time></trkpt><trkpt lat="37.098750" lon="-8.682660"><ele>44.230</ele><time>2022-11-10T08:24:50Z</time></trkpt><trkpt lat="37.092740" lon="-8.678030"><ele>57.153</ele><time>2022-11-10T08:25:30Z</time></trkpt><trkpt lat="37.093690" lon="-8.674650"><ele>48.059</ele><time>2022-11-10T08:26:10Z</time></trkpt><trkpt lat="37.095417" lon="-8.674611"><ele>41.840</ele><time>2022-11-10T08:26:50Z</time></trkpt><trkpt lat="37.096790" lon="-8.668650"><ele>20.457</ele><time>2022-11-10T08:27:30Z</time></trkpt><trkpt lat="37.099920" lon="-8.669140"><ele>3.100</ele><time>2022-11-10T08:28:10Z</time></trkpt><trkpt lat="37.107422" lon="-8.675012"><ele>0.420</ele><time>2022-11-10T08:28:50Z</time></trkpt><trkpt lat="37.108458" lon="-8.672955"><ele>1.709</ele><time>2022-11-10T08:29:30Z</time></trkpt><trkpt lat="37.111590" lon="-8.672100"><ele>3.236</ele><time>2022-11-10T08:30:10Z</time></trkpt><trkpt lat="37.110032" lon="-8.662484"><ele>1.116</ele><time>2022-11-10T08:30:50Z</time></trkpt><trkpt lat="37.119140" lon="-8.647560"><ele>3.063</ele><time>2022-11-10T08:31:30Z</time></trkpt><trkpt lat="37.124303" lon="-8.632872"><ele>0.532</ele><time>2022-11-10T08:32:10Z</time></trkpt><trkpt lat="37.133530" lon="-8.624560"><ele>0.357</ele><time>2022-11-10T08:32:50Z</time></trkpt><trkpt lat="37.139290" lon="-8.626540"><ele>-1.569</ele><time>2022-11-10T08:33:30Z</time></trkpt><trkpt lat="37.145520" lon="-8.633770"><ele>16.582</ele><time>2022-11-10T08:34:10Z</time></trkpt><trkpt lat="37.149220" lon="-8.648420"><ele>4.388</ele><time>2022-11-10T08:34:50Z</time></trkpt><trkpt lat="37.151100" lon="-8.650630"><ele>2.129</ele><time>2022-11-10T08:35:30Z</time></trkpt><trkpt lat="37.157760" lon="-8.639390"><ele>2.099</ele><time>2022-11-10T08:36:10Z</time></trkpt><trkpt lat="37.158570" lon="-8.632870"><ele>2.207</ele><time>2022-11-10T08:36:50Z</time></trkpt><trkpt lat="37.153930" lon="-8.626330"><ele>4.827</ele><time>2022-11-10T08:37:30Z</time></trkpt><trkpt lat="37.152440" lon="-8.618530"><ele>11.209</ele><time>2022-11-10T08:38:10Z</time></trkpt><trkpt lat="37.156150" lon="-8.608070"><ele>16.130</ele><time>2022-11-10T08:38:50Z</time></trkpt><trkpt lat="37.162350" lon="-8.598400"><ele>13.080</ele><time>2022-11-10T08:39:30Z</time></trkpt><trkpt lat="37.161440" lon="-8.572130"><ele>0.197</ele><time>2022-11-10T08:40:10Z</time></trkpt><trkpt lat="37.162599" lon="-8.569443"><ele>4.426</ele><time>2022-11-10T08:40:50Z</time></trkpt><trkpt lat="37.157820" lon="-8.572180"><ele>1.831</ele><time>2022-11-10T08:41:30Z</time></trkpt><trkpt lat="37.152690" lon="-8.562690"><ele>42.023</ele><time>2022-11-10T08:42:10Z</time></trkpt><trkpt lat="37.148170" lon="-8.561830"><ele>46.076</ele><time>2022-11-10T08:42:50Z</time></trkpt><trkpt lat="37.148680" lon="-8.559550"><ele>44.062</ele><time>2022-11-10T08:43:30Z</time></trkpt><trkpt lat="37.145110" lon="-8.556140"><ele>31.413</ele><time>2022-11-10T08:44:10Z</time></trkpt><trkpt lat="37.143787" lon="-8.549343"><ele>20.651</ele><time>2022-11-10T08:44:50Z</time></trkpt><trkpt lat="37.145027" lon="-8.546687"><ele>19.001</ele><time>2022-11-10T08:45:30Z</time></trkpt><trkpt lat="37.143110" lon="-8.542460"><ele>10.511</ele><time>2022-11-10T08:46:10Z</time></trkpt><trkpt lat="37.144014" lon="-8.540380"><ele>10.809</ele><time>2022-11-10T08:46:50Z</time></trkpt><trkpt lat="37.146010" lon="-8.540730"><ele>6.176</ele><time>2022-11-10T08:47:30Z</time></trkpt><trkpt lat="37.146010" lon="-8.535190"><ele>5.316</ele><time>2022-11-10T08:48:10Z</time></trkpt><trkpt lat="37.142017" lon="-8.530015"><ele>0.573</ele><time>2022-11-10T08:48:50Z</time></trkpt><trkpt lat="37.139932" lon="-8.531871"><ele>1.072</ele><time>2022-11-10T08:49:30Z</time></trkpt><trkpt lat="37.139281" lon="-8.530455"><ele>0.037</ele><time>2022-11-10T08:50:10Z</time></trkpt><trkpt lat="37.139197" lon="-8.530244"><ele>0.029</ele><time>2022-11-10T08:50:50Z</time></trkpt><trkpt lat="37.135149" lon="-8.521310"><ele>2.532</ele><time>2022-11-10T08:51:30Z</time></trkpt><trkpt lat="37.125667" lon="-8.521499"><ele>9.638</ele><time>2022-11-10T08:52:10Z</time></trkpt><trkpt lat="37.125036" lon="-8.514059"><ele>5.179</ele><time>2022-11-10T08:52:50Z</time></trkpt><trkpt lat="37.125304" lon="-8.519851"><ele>8.285</ele><time>2022-11-10T08:53:30Z</time></trkpt><trkpt lat="37.125036" lon="-8.514054"><ele>5.189</ele><time>2022-11-10T08:54:10Z</time></trkpt><trkpt lat="37.130395" lon="-8.495085"><ele>14.717</ele><time>2022-11-10T08:54:50Z</time></trkpt><trkpt lat="37.131038" lon="-8.487784"><ele>22.709</ele><time>2022-11-10T08:55:30Z</time></trkpt><trkpt lat="37.136784" lon="-8.470286"><ele>43.389</ele><time>2022-11-10T08:56:10Z</time></trkpt><trkpt lat="37.136154" lon="-8.461904"><ele>42.759</ele><time>2022-11-10T08:56:50Z</time></trkpt><trkpt lat="37.137312" lon="-8.459070"><ele>46.586</ele><time>2022-11-10T08:57:30Z</time></trkpt><trkpt lat="37.135908" lon="-8.459026"><ele>50.115</ele><time>2022-11-10T08:58:10Z</time></trkpt><trkpt lat="37.135344" lon="-8.455657"><ele>57.250</ele><time>2022-11-10T08:58:50Z</time></trkpt><trkpt lat="37.138541" lon="-8.452172"><ele>51.432</ele><time>2022-11-10T08:59:30Z</time></trkpt><trkpt lat="37.128569" lon="-8.445196"><ele>36.355</ele><time>2022-11-10T09:00:10Z</time></trkpt><trkpt lat="37.120863" lon="-8.431048"><ele>51.721</ele><time>2022-11-10T09:00:50Z</time></trkpt><trkpt lat="37.123749" lon="-8.418939"><ele>85.392</ele><time>2022-11-10T09:01:30Z</time></trkpt><trkpt lat="37.119368" lon="-8.407067"><ele>72.474</ele><time>2022-11-10T09:02:10Z</time></trkpt><trkpt lat="37.111664" lon="-8.398273"><ele>79.056</ele><time>2022-11-10T09:02:50Z</time></trkpt><trkpt lat="37.103749" lon="-8.396467"><ele>60.121</ele><time>2022-11-10T09:03:30Z</time></trkpt><trkpt lat="37.100494" lon="-8.391681"><ele>47.809</ele><time>2022-11-10T09:04:10Z</time></trkpt><trkpt lat="37.101009" lon="-8.389009"><ele>47.388</ele><time>2022-11-10T09:04:50Z</time></trkpt><trkpt lat="37.106044" lon="-8.382798"><ele>59.158</ele><time>2022-11-10T09:05:30Z</time></trkpt><trkpt lat="37.101067" lon="-8.362126"><ele>17.145</ele><time>2022-11-10T09:06:10Z</time></trkpt><trkpt lat="37.100962" lon="-8.356547"><ele>17.254</ele><time>2022-11-10T09:06:50Z</time></trkpt><trkpt lat="37.104194" lon="-8.355681"><ele>8.029</ele><time>2022-11-10T09:07:30Z</time></trkpt><trkpt lat="37.108702" lon="-8.349676"><ele>4.091</ele><time>2022-11-10T09:08:10Z</time></trkpt><trkpt lat="37.116242" lon="-8.346101"><ele>3.044</ele><time>2022-11-10T09:08:50Z</time></trkpt><trkpt lat="37.115223" lon="-8.341080"><ele>6.950</ele><time>2022-11-10T09:09:30Z</time></trkpt><trkpt lat="37.095495" lon="-8.336493"><ele>7.671</ele><time>2022-11-10T09:10:10Z</time></trkpt><trkpt lat="37.090436" lon="-8.329414"><ele>2.611</ele><time>2022-11-10T09:10:50Z</time></trkpt><trkpt lat="37.090812" lon="-8.324207"><ele>3.021</ele><time>2022-11-10T09:11:30Z</time></trkpt><trkpt lat="37.088049" lon="-8.320936"><ele>12.703</ele><time>2022-11-10T09:12:10Z</time></trkpt><trkpt lat="37.087681" lon="-8.317115"><ele>22.309</ele><time>2022-11-10T09:12:50Z</time></trkpt><trkpt lat="37.094322" lon="-8.318088"><ele>6.082</ele><time>2022-11-10T09:13:30Z</time></trkpt><trkpt lat="37.094814" lon="-8.315445"><ele>7.072</ele><time>2022-11-10T09:14:10Z</time></trkpt><trkpt lat="37.089441" lon="-8.308306"><ele>11.089</ele><time>2022-11-10T09:14:50Z</time></trkpt><trkpt lat="37.085983" lon="-8.291449"><ele>28.358</ele><time>2022-11-10T09:15:30Z</time></trkpt><trkpt lat="37.084461" lon="-8.291235"><ele>32.543</ele><time>2022-11-10T09:16:10Z</time></trkpt><trkpt lat="37.081808" lon="-8.285708"><ele>51.355</ele><time>2022-11-10T09:16:50Z</time></trkpt><trkpt lat="37.080549" lon="-8.287286"><ele>44.068</ele><time>2022-11-10T09:17:30Z</time></trkpt><trkpt lat="37.081065" lon="-8.278729"><ele>50.194</ele><time>2022-11-10T09:18:10Z</time></trkpt><trkpt lat="37.085110" lon="-8.276047"><ele>11.335</ele><time>2022-11-10T09:18:50Z</time></trkpt><trkpt lat="37.085609" lon="-8.265028"><ele>15.996</ele><time>2022-11-10T09:19:30Z</time></trkpt><trkpt lat="37.083114" lon="-8.261720"><ele>18.831</ele><time>2022-11-10T09:20:10Z</time></trkpt><trkpt lat="37.083629" lon="-8.258979"><ele>29.424</ele><time>2022-11-10T09:20:50Z</time></trkpt><trkpt lat="37.089825" lon="-8.257291"><ele>54.709</ele><time>2022-11-10T09:21:30Z</time></trkpt><trkpt lat="37.094931" lon="-8.251565"><ele>51.710</ele><time>2022-11-10T09:22:10Z</time></trkpt><trkpt lat="37.090667" lon="-8.245160"><ele>41.970</ele><time>2022-11-10T09:22:50Z</time></trkpt><trkpt lat="37.092404" lon="-8.236558"><ele>35.527</ele><time>2022-11-10T09:23:30Z</time></trkpt><trkpt lat="37.091307" lon="-8.234008"><ele>37.616</ele><time>2022-11-10T09:24:10Z</time></trkpt><trkpt lat="37.093814" lon="-8.232909"><ele>43.731</ele><time>2022-11-10T09:24:50Z</time></trkpt><trkpt lat="37.097578" lon="-8.219305"><ele>37.933</ele><time>2022-11-10T09:25:30Z</time></trkpt><trkpt lat="37.102374" lon="-8.213887"><ele>61.156</ele><time>2022-11-10T09:26:10Z</time></trkpt><trkpt lat="37.099071" lon="-8.211842"><ele>50.362</ele><time>2022-11-10T09:26:50Z</time></trkpt><trkpt lat="37.099615" lon="-8.207652"><ele>40.983</ele><time>2022-11-10T09:27:30Z</time></trkpt><trkpt lat="37.093442" lon="-8.200340"><ele>31.015</ele><time>2022-11-10T09:28:10Z</time></trkpt><trkpt lat="37.093217" lon="-8.189241"><ele>36.465</ele><time>2022-11-10T09:28:50Z</time></trkpt><trkpt lat="37.095505" lon="-8.181591"><ele>45.711</ele><time>2022-11-10T09:29:30Z</time></trkpt><trkpt lat="37.097695" lon="-8.181753"><ele>46.509</ele><time>2022-11-10T09:30:10Z</time></trkpt><trkpt lat="37.096430" lon="-8.175836"><ele>38.242</ele><time>2022-11-10T09:30:50Z</time></trkpt><trkpt lat="37.098597" lon="-8.162682"><ele>18.752</ele><time>2022-11-10T09:31:30Z</time></trkpt><trkpt lat="37.093748" lon="-8.162799"><ele>12.269</ele><time>2022-11-10T09:32:10Z</time></trkpt><trkpt lat="37.088056" lon="-8.157292"><ele>10.278</ele><time>2022-11-10T09:32:50Z</time></trkpt><trkpt lat="37.085032" lon="-8.146105"><ele>8.753</ele><time>2022-11-10T09:33:30Z</time></trkpt><trkpt lat="37.080154" lon="-8.139588"><ele>6.125</ele><time>2022-11-10T09:34:10Z</time></trkpt><trkpt lat="37.079595" lon="-8.136098"><ele>2.958</ele><time>2022-11-10T09:34:50Z</time></trkpt><trkpt lat="37.076869" lon="-8.133938"><ele>4.454</ele><time>2022-11-10T09:35:30Z</time></trkpt><trkpt lat="37.074325" lon="-8.125724"><ele>2.035</ele><time>2022-11-10T09:36:10Z</time></trkpt><trkpt lat="37.077627" lon="-8.128492"><ele>3.554</ele><time>2022-11-10T09:36:50Z</time></trkpt><trkpt lat="37.083501" lon="-8.127665"><ele>2.056</ele><time>2022-11-10T09:37:30Z</time></trkpt><trkpt lat="37.085761" lon="-8.124714"><ele>5.711</ele><time>2022-11-10T09:38:10Z</time></trkpt><trkpt lat="37.086628" lon="-8.125668"><ele>4.709</ele><time>2022-11-10T09:38:50Z</time></trkpt><trkpt lat="37.089994" lon="-8.123310"><ele>15.176</ele><time>2022-11-10T09:39:30Z</time></trkpt><trkpt lat="37.087819" lon="-8.119116"><ele>18.146</ele><time>2022-11-10T09:40:10Z</time></trkpt><trkpt lat="37.084806" lon="-8.119200"><ele>12.173</ele><time>2022-11-10T09:40:50Z</time></trkpt><trkpt lat="37.081549" lon="-8.116712"><ele>11.032</ele><time>2022-11-10T09:41:30Z</time></trkpt><trkpt lat="37.081429" lon="-8.115066"><ele>10.187</ele><time>2022-11-10T09:42:10Z</time></trkpt><trkpt lat="37.090010" lon="-8.123396"><ele>14.889</ele><time>2022-11-10T09:42:50Z</time></trkpt><trkpt lat="37.081429" lon="-8.115066"><ele>10.182</ele><time>2022-11-10T09:43:30Z</time></trkpt><trkpt lat="37.081579" lon="-8.112539"><ele>14.848</ele><time>2022-11-10T09:44:10Z</time></trkpt><trkpt lat="37.078528" lon="-8.109251"><ele>10.499</ele><time>2022-11-10T09:44:50Z</time></trkpt><trkpt lat="37.069324" lon="-8.108274"><ele>4.671</ele><time>2022-11-10T09:45:30Z</time></trkpt><trkpt lat="37.062791" lon="-8.091300"><ele>9.741</ele><time>2022-11-10T09:46:10Z</time></trkpt><trkpt lat="37.063656" lon="-8.089423"><ele>11.915</ele><time>2022-11-10T09:46:50Z</time></trkpt><trkpt lat="37.059751" lon="-8.084599"><ele>11.409</ele><time>2022-11-10T09:47:30Z</time></trkpt><trkpt lat="37.069284" lon="-8.083293"><ele>7.918</ele><time>2022-11-10T09:48:10Z</time></trkpt><trkpt lat="37.068670" lon="-8.075980"><ele>20.538</ele><time>2022-11-10T09:48:50Z</time></trkpt><trkpt lat="37.066540" lon="-8.075187"><ele>15.085</ele><time>2022-11-10T09:49:30Z</time></trkpt><trkpt lat="37.064266" lon="-8.071211"><ele>9.214</ele><time>2022-11-10T09:50:10Z</time></trkpt><trkpt lat="37.061792" lon="-8.071795"><ele>7.579</ele><time>2022-11-10T09:50:50Z</time></trkpt><trkpt lat="37.060095" lon="-8.069696"><ele>9.871</ele><time>2022-11-10T09:51:30Z</time></trkpt><trkpt lat="37.062053" lon="-8.031633"><ele>44.944</ele><time>2022-11-10T09:52:10Z</time></trkpt><trkpt lat="37.058464" lon="-8.016835"><ele>14.860</ele><time>2022-11-10T09:52:50Z</time></trkpt><trkpt lat="37.043403" lon="-8.009974"><ele>5.151</ele><time>2022-11-10T09:53:30Z</time></trkpt><trkpt lat="37.039253" lon="-8.009001"><ele>9.139</ele><time>2022-11-10T09:54:10Z</time></trkpt><trkpt lat="37.038376" lon="-8.011100"><ele>19.801</ele><time>2022-11-10T09:54:50Z</time></trkpt><trkpt lat="37.037222" lon="-8.008542"><ele>9.321</ele><time>2022-11-10T09:55:30Z</time></trkpt><trkpt lat="37.031305" lon="-8.007486"><ele>10.009</ele><time>2022-11-10T09:56:10Z</time></trkpt><trkpt lat="37.028999" lon="-8.004664"><ele>9.524</ele><time>2022-11-10T09:56:50Z</time></trkpt><trkpt lat="37.024287" lon="-8.007437"><ele>7.274</ele><time>2022-11-10T09:57:30Z</time></trkpt><trkpt lat="37.024676" lon="-8.015444"><ele>3.631</ele><time>2022-11-10T09:58:10Z</time></trkpt><trkpt lat="37.024676" lon="-8.015444"><ele>3.680</ele><time>2022-11-10T09:58:50Z</time></trkpt><trkpt lat="37.018882" lon="-8.001026"><ele>-0.645</ele><time>2022-11-10T09:59:30Z</time></trkpt><trkpt lat="37.016856" lon="-7.988232"><ele>0.027</ele><time>2022-11-10T10:00:10Z</time></trkpt><trkpt lat="37.014631" lon="-7.988009"><ele>-0.680</ele><time>2022-11-10T10:00:50Z</time></trkpt><trkpt lat="37.015685" lon="-7.986529"><ele>1.946</ele><time>2022-11-10T10:01:30Z</time></trkpt><trkpt lat="37.014564" lon="-7.977701"><ele>3.747</ele><time>2022-11-10T10:02:10Z</time></trkpt><trkpt lat="37.012433" lon="-7.977562"><ele>-0.374</ele><time>2022-11-10T10:02:50Z</time></trkpt><trkpt lat="37.011334" lon="-7.972863"><ele>1.956</ele><time>2022-11-10T10:03:30Z</time></trkpt><trkpt lat="37.013776" lon="-7.970778"><ele>2.421</ele><time>2022-11-10T10:04:10Z</time></trkpt><trkpt lat="37.011556" lon="-7.965287"><ele>1.709</ele><time>2022-11-10T10:04:50Z</time></trkpt><trkpt lat="37.011556" lon="-7.957099"><ele>1.778</ele><time>2022-11-10T10:05:30Z</time></trkpt><trkpt lat="37.012810" lon="-7.953150"><ele>1.738</ele><time>2022-11-10T10:06:10Z</time></trkpt><trkpt lat="37.019692" lon="-7.963201"><ele>2.985</ele><time>2022-11-10T10:06:50Z</time></trkpt><trkpt lat="37.022617" lon="-7.959517"><ele>8.214</ele><time>2022-11-10T10:07:30Z</time></trkpt><trkpt lat="37.032850" lon="-7.955319"><ele>6.149</ele><time>2022-11-10T10:08:10Z</time></trkpt><trkpt lat="37.033194" lon="-7.951899"><ele>2.991</ele><time>2022-11-10T10:08:50Z</time></trkpt><trkpt lat="37.015985" lon="-7.938130"><ele>2.474</ele><time>2022-11-10T10:09:30Z</time></trkpt><trkpt lat="37.016135" lon="-7.935363"><ele>4.120</ele><time>2022-11-10T10:10:10Z</time></trkpt><trkpt lat="37.012599" lon="-7.935704"><ele>6.251</ele><time>2022-11-10T10:10:50Z</time></trkpt><trkpt lat="37.011212" lon="-7.932458"><ele>4.276</ele><time>2022-11-10T10:11:30Z</time></trkpt><trkpt lat="37.013686" lon="-7.926257"><ele>10.390</ele><time>2022-11-10T10:12:10Z</time></trkpt><trkpt lat="37.015286" lon="-7.915734"><ele>7.719</ele><time>2022-11-10T10:12:50Z</time></trkpt><trkpt lat="37.020103" lon="-7.914413"><ele>11.409</ele><time>2022-11-10T10:13:30Z</time></trkpt><trkpt lat="37.025875" lon="-7.917040"><ele>8.868</ele><time>2022-11-10T10:14:10Z</time></trkpt><trkpt lat="37.029198" lon="-7.909867"><ele>7.528</ele><time>2022-11-10T10:14:50Z</time></trkpt><trkpt lat="37.025880" lon="-7.895388"><ele>5.365</ele><time>2022-11-10T10:15:30Z</time></trkpt><trkpt lat="37.028094" lon="-7.875439"><ele>6.364</ele><time>2022-11-10T10:16:10Z</time></trkpt><trkpt lat="37.025442" lon="-7.868787"><ele>3.889</ele><time>2022-11-10T10:16:50Z</time></trkpt><trkpt lat="37.026879" lon="-7.862462"><ele>5.631</ele><time>2022-11-10T10:17:30Z</time></trkpt><trkpt lat="37.026773" lon="-7.851626"><ele>8.444</ele><time>2022-11-10T10:18:10Z</time></trkpt><trkpt lat="37.023449" lon="-7.850117"><ele>6.050</ele><time>2022-11-10T10:18:50Z</time></trkpt><trkpt lat="37.024065" lon="-7.836709"><ele>6.111</ele><time>2022-11-10T10:19:30Z</time></trkpt><trkpt lat="37.028888" lon="-7.836511"><ele>7.355</ele><time>2022-11-10T10:20:10Z</time></trkpt><trkpt lat="37.029343" lon="-7.827722"><ele>6.007</ele><time>2022-11-10T10:20:50Z</time></trkpt><trkpt lat="37.030869" lon="-7.827770"><ele>8.017</ele><time>2022-11-10T10:21:30Z</time></trkpt><trkpt lat="37.032700" lon="-7.822022"><ele>7.209</ele><time>2022-11-10T10:22:10Z</time></trkpt><trkpt lat="37.040762" lon="-7.823509"><ele>20.436</ele><time>2022-11-10T10:22:50Z</time></trkpt><trkpt lat="37.043317" lon="-7.818309"><ele>20.886</ele><time>2022-11-10T10:23:30Z</time></trkpt><trkpt lat="37.044568" lon="-7.799793"><ele>18.923</ele><time>2022-11-10T10:24:10Z</time></trkpt><trkpt lat="37.038887" lon="-7.797805"><ele>7.922</ele><time>2022-11-10T10:24:50Z</time></trkpt><trkpt lat="37.039014" lon="-7.794392"><ele>9.217</ele><time>2022-11-10T10:25:30Z</time></trkpt><trkpt lat="37.042182" lon="-7.792606"><ele>18.969</ele><time>2022-11-10T10:26:10Z</time></trkpt><trkpt lat="37.040901" lon="-7.790152"><ele>16.682</ele><time>2022-11-10T10:26:50Z</time></trkpt><trkpt lat="37.043192" lon="-7.787462"><ele>25.188</ele><time>2022-11-10T10:27:30Z</time></trkpt><trkpt lat="37.041145" lon="-7.782534"><ele>5.289</ele><time>2022-11-10T10:28:10Z</time></trkpt><trkpt lat="37.038903" lon="-7.782388"><ele>6.146</ele><time>2022-11-10T10:28:50Z</time></trkpt><trkpt lat="37.039403" lon="-7.780337"><ele>4.188</ele><time>2022-11-10T10:29:30Z</time></trkpt><trkpt lat="37.041073" lon="-7.775687"><ele>3.916</ele><time>2022-11-10T10:30:10Z</time></trkpt><trkpt lat="37.042609" lon="-7.776619"><ele>3.909</ele><time>2022-11-10T10:30:50Z</time></trkpt><trkpt lat="37.046049" lon="-7.765893"><ele>6.635</ele><time>2022-11-10T10:31:30Z</time></trkpt><trkpt lat="37.046288" lon="-7.760013"><ele>3.255</ele><time>2022-11-10T10:32:10Z</time></trkpt><trkpt lat="37.049716" lon="-7.755370"><ele>6.682</ele><time>2022-11-10T10:32:50Z</time></trkpt><trkpt lat="37.053400" lon="-7.745833"><ele>7.241</ele><time>2022-11-10T10:33:30Z</time></trkpt><trkpt lat="37.056390" lon="-7.745075"><ele>6.376</ele><time>2022-11-10T10:34:10Z</time></trkpt><trkpt lat="37.060727" lon="-7.752374"><ele>7.088</ele><time>2022-11-10T10:34:50Z</time></trkpt><trkpt lat="37.063135" lon="-7.752839"><ele>5.331</ele><time>2022-11-10T10:35:30Z</time></trkpt><trkpt lat="37.062819" lon="-7.743060"><ele>4.057</ele><time>2022-11-10T10:36:10Z</time></trkpt><trkpt lat="37.064022" lon="-7.739515"><ele>2.528</ele><time>2022-11-10T10:36:50Z</time></trkpt><trkpt lat="37.061909" lon="-7.736150"><ele>6.774</ele><time>2022-11-10T10:37:30Z</time></trkpt><trkpt lat="37.070212" lon="-7.731723"><ele>17.656</ele><time>2022-11-10T10:38:10Z</time></trkpt><trkpt lat="37.071792" lon="-7.728657"><ele>8.921</ele><time>2022-11-10T10:38:50Z</time></trkpt><trkpt lat="37.068182" lon="-7.726419"><ele>6.109</ele><time>2022-11-10T10:39:30Z</time></trkpt><trkpt lat="37.074399" lon="-7.710592"><ele>4.838</ele><time>2022-11-10T10:40:10Z</time></trkpt><trkpt lat="37.077061" lon="-7.706324"><ele>6.348</ele><time>2022-11-10T10:40:50Z</time></trkpt><trkpt lat="37.081531" lon="-7.708229"><ele>9.785</ele><time>2022-11-10T10:41:30Z</time></trkpt><trkpt lat="37.082556" lon="-7.703363"><ele>10.084</ele><time>2022-11-10T10:42:10Z</time></trkpt><trkpt lat="37.088900" lon="-7.697274"><ele>26.099</ele><time>2022-11-10T10:42:50Z</time></trkpt><trkpt lat="37.090563" lon="-7.685847"><ele>14.071</ele><time>2022-11-10T10:43:30Z</time></trkpt><trkpt lat="37.096063" lon="-7.679313"><ele>28.994</ele><time>2022-11-10T10:44:10Z</time></trkpt><trkpt lat="37.097793" lon="-7.674169"><ele>21.180</ele><time>2022-11-10T10:44:50Z</time></trkpt><trkpt lat="37.118065" lon="-7.650953"><ele>18.041</ele><time>2022-11-10T10:45:30Z</time></trkpt><trkpt lat="37.121313" lon="-7.650578"><ele>23.492</ele><time>2022-11-10T10:46:10Z</time></trkpt><trkpt lat="37.122236" lon="-7.644898"><ele>4.673</ele><time>2022-11-10T10:46:50Z</time></trkpt><trkpt lat="37.128673" lon="-7.643064"><ele>7.020</ele><time>2022-11-10T10:47:30Z</time></trkpt><trkpt lat="37.130353" lon="-7.636636"><ele>4.309</ele><time>2022-11-10T10:48:10Z</time></trkpt><trkpt lat="37.134670" lon="-7.634784"><ele>12.680</ele><time>2022-11-10T10:48:50Z</time></trkpt><trkpt lat="37.135875" lon="-7.626261"><ele>21.570</ele><time>2022-11-10T10:49:30Z</time></trkpt><trkpt lat="37.142763" lon="-7.622665"><ele>11.277</ele><time>2022-11-10T10:50:10Z</time></trkpt><trkpt lat="37.146660" lon="-7.616073"><ele>7.346</ele><time>2022-11-10T10:50:50Z</time></trkpt><trkpt lat="37.147770" lon="-7.605012"><ele>30.031</ele><time>2022-11-10T10:51:30Z</time></trkpt><trkpt lat="37.136592" lon="-7.604626"><ele>7.183</ele><time>2022-11-10T10:52:10Z</time></trkpt><trkpt lat="37.134176" lon="-7.602651"><ele>6.016</ele><time>2022-11-10T10:52:50Z</time></trkpt><trkpt lat="37.137656" lon="-7.593587"><ele>5.682</ele><time>2022-11-10T10:53:30Z</time></trkpt><trkpt lat="37.147286" lon="-7.592851"><ele>25.113</ele><time>2022-11-10T10:54:10Z</time></trkpt><trkpt lat="37.147651" lon="-7.586442"><ele>28.862</ele><time>2022-11-10T10:54:50Z</time></trkpt><trkpt lat="37.153214" lon="-7.586998"><ele>39.883</ele><time>2022-11-10T10:55:30Z</time></trkpt><trkpt lat="37.156582" lon="-7.579839"><ele>42.411</ele><time>2022-11-10T10:56:10Z</time></trkpt><trkpt lat="37.157335" lon="-7.566229"><ele>35.409</ele><time>2022-11-10T10:56:50Z</time></trkpt><trkpt lat="37.158961" lon="-7.560500"><ele>22.377</ele><time>2022-11-10T10:57:30Z</time></trkpt><trkpt lat="37.158886" lon="-7.546572"><ele>20.717</ele><time>2022-11-10T10:58:10Z</time></trkpt><trkpt lat="37.169625" lon="-7.538832"><ele>28.314</ele><time>2022-11-10T10:58:50Z</time></trkpt><trkpt lat="37.166269" lon="-7.533224"><ele>16.663</ele><time>2022-11-10T10:59:30Z</time></trkpt><trkpt lat="37.167207" lon="-7.522869"><ele>9.438</ele><time>2022-11-10T11:00:10Z</time></trkpt><trkpt lat="37.171643" lon="-7.513617"><ele>16.130</ele><time>2022-11-10T11:00:50Z</time></trkpt><trkpt lat="37.176550" lon="-7.508342"><ele>4.583</ele><time>2022-11-10T11:01:30Z</time></trkpt><trkpt lat="37.171599" lon="-7.502837"><ele>8.289</ele><time>2022-11-10T11:02:10Z</time></trkpt><trkpt lat="37.174612" lon="-7.494482"><ele>4.150</ele><time>2022-11-10T11:02:50Z</time></trkpt><trkpt lat="37.181649" lon="-7.494647"><ele>10.497</ele><time>2022-11-10T11:03:30Z</time></trkpt><trkpt lat="37.185062" lon="-7.480399"><ele>16.123</ele><time>2022-11-10T11:04:10Z</time></trkpt><trkpt lat="37.181634" lon="-7.477410"><ele>20.525</ele><time>2022-11-10T11:04:50Z</time></trkpt><trkpt lat="37.178339" lon="-7.470174"><ele>7.409</ele><time>2022-11-10T11:05:30Z</time></trkpt><trkpt lat="37.179242" lon="-7.443677"><ele>6.850</ele><time>2022-11-10T11:06:10Z</time></trkpt><trkpt lat="37.188112" lon="-7.412387"><ele>7.660</ele><time>2022-11-10T11:06:50Z</time></trkpt><trkpt lat="37.196851" lon="-7.414581"><ele>4.787</ele><time>2022-11-10T11:07:30Z</time></trkpt><trkpt lat="37.216020" lon="-7.394080"><ele>4.766</ele><time>2010-01-01T04:48:32Z</time></trkpt><trkpt lat="37.218400" lon="-7.384760"><ele>2.321</ele><time>2010-01-01T04:43:20Z</time></trkpt><trkpt lat="37.218850" lon="-7.380970"><ele>4.273</ele><time>2010-01-01T04:41:18Z</time></trkpt><trkpt lat="37.218860" lon="-7.378640"><ele>2.156</ele><time>2010-01-01T04:40:03Z</time></trkpt><trkpt lat="37.218840" lon="-7.375100"><ele>7.972</ele><time>2010-01-01T04:38:10Z</time></trkpt><trkpt lat="37.222480" lon="-7.330550"><ele>7.873</ele><time>2010-01-01T04:14:23Z</time></trkpt><trkpt lat="37.222520" lon="-7.329490"><ele>6.869</ele><time>2010-01-01T04:13:49Z</time></trkpt><trkpt lat="37.222280" lon="-7.326350"><ele>9.704</ele><time>2010-01-01T04:12:08Z</time></trkpt><trkpt lat="37.221860" lon="-7.323460"><ele>4.524</ele><time>2010-01-01T04:10:34Z</time></trkpt><trkpt lat="37.220330" lon="-7.319190"><ele>6.009</ele><time>2010-01-01T04:08:05Z</time></trkpt><trkpt lat="37.220000" lon="-7.318420"><ele>3.067</ele><time>2010-01-01T04:07:37Z</time></trkpt><trkpt lat="37.216380" lon="-7.311370"><ele>8.037</ele><time>2010-01-01T04:03:10Z</time></trkpt><trkpt lat="37.210910" lon="-7.295970"><ele>6.334</ele><time>2010-01-01T03:54:12Z</time></trkpt><trkpt lat="37.210810" lon="-7.295340"><ele>5.123</ele><time>2010-01-01T03:53:52Z</time></trkpt><trkpt lat="37.210800" lon="-7.294420"><ele>3.788</ele><time>2010-01-01T03:53:22Z</time></trkpt><trkpt lat="37.210860" lon="-7.293860"><ele>2.280</ele><time>2010-01-01T03:53:04Z</time></trkpt><trkpt lat="37.211050" lon="-7.293050"><ele>4.883</ele><time>2010-01-01T03:52:37Z</time></trkpt><trkpt lat="37.211560" lon="-7.292020"><ele>3.939</ele><time>2010-01-01T03:51:59Z</time></trkpt><trkpt lat="37.212060" lon="-7.291350"><ele>3.560</ele><time>2010-01-01T03:51:29Z</time></trkpt><trkpt lat="37.215670" lon="-7.287220"><ele>10.065</ele><time>2010-01-01T03:48:14Z</time></trkpt><trkpt lat="37.219930" lon="-7.282370"><ele>10.968</ele><time>2010-01-01T03:44:24Z</time></trkpt><trkpt lat="37.220680" lon="-7.281480"><ele>11.714</ele><time>2010-01-01T03:43:42Z</time></trkpt><trkpt lat="37.221450" lon="-7.280570"><ele>8.309</ele><time>2010-01-01T03:43:00Z</time></trkpt><trkpt lat="37.222250" lon="-7.279400"><ele>6.857</ele><time>2010-01-01T03:42:11Z</time></trkpt><trkpt lat="37.223300" lon="-7.277030"><ele>5.067</ele><time>2010-01-01T03:40:44Z</time></trkpt><trkpt lat="37.224520" lon="-7.272250"><ele>7.514</ele><time>2010-01-01T03:38:04Z</time></trkpt><trkpt lat="37.224860" lon="-7.270860"><ele>5.083</ele><time>2010-01-01T03:37:18Z</time></trkpt><trkpt lat="37.225110" lon="-7.270180"><ele>8.338</ele><time>2010-01-01T03:36:54Z</time></trkpt><trkpt lat="37.225710" lon="-7.268800"><ele>9.690</ele><time>2010-01-01T03:36:04Z</time></trkpt><trkpt lat="37.225970" lon="-7.268470"><ele>10.573</ele><time>2010-01-01T03:35:49Z</time></trkpt><trkpt lat="37.226170" lon="-7.268070"><ele>11.269</ele><time>2010-01-01T03:35:33Z</time></trkpt><trkpt lat="37.226040" lon="-7.267970"><ele>10.540</ele><time>2010-01-01T03:35:27Z</time></trkpt><trkpt lat="37.227790" lon="-7.263830"><ele>20.061</ele><time>2010-01-01T03:32:57Z</time></trkpt><trkpt lat="37.228570" lon="-7.262760"><ele>21.121</ele><time>2010-01-01T03:32:11Z</time></trkpt><trkpt lat="37.229020" lon="-7.262330"><ele>21.813</ele><time>2010-01-01T03:31:48Z</time></trkpt><trkpt lat="37.230030" lon="-7.261590"><ele>21.909</ele><time>2010-01-01T03:31:01Z</time></trkpt><trkpt lat="37.240690" lon="-7.253790"><ele>34.217</ele><time>2010-01-01T03:22:47Z</time></trkpt><trkpt lat="37.240700" lon="-7.253790"><ele>34.277</ele><time>2010-01-01T03:22:46Z</time></trkpt><trkpt lat="37.242650" lon="-7.251970"><ele>39.314</ele><time>2010-01-01T03:21:09Z</time></trkpt><trkpt lat="37.246010" lon="-7.247990"><ele>43.043</ele><time>2010-01-01T03:18:04Z</time></trkpt><trkpt lat="37.247460" lon="-7.246650"><ele>43.228</ele><time>2010-01-01T03:16:52Z</time></trkpt><trkpt lat="37.248800" lon="-7.245850"><ele>44.390</ele><time>2010-01-01T03:15:53Z</time></trkpt><trkpt lat="37.252100" lon="-7.244590"><ele>56.243</ele><time>2010-01-01T03:13:35Z</time></trkpt><trkpt lat="37.253090" lon="-7.243970"><ele>59.489</ele><time>2010-01-01T03:12:50Z</time></trkpt><trkpt lat="37.253850" lon="-7.243160"><ele>55.140</ele><time>2010-01-01T03:12:10Z</time></trkpt><trkpt lat="37.254200" lon="-7.242480"><ele>56.038</ele><time>2010-01-01T03:11:44Z</time></trkpt><trkpt lat="37.254610" lon="-7.240890"><ele>62.970</ele><time>2010-01-01T03:10:51Z</time></trkpt><trkpt lat="37.255170" lon="-7.236810"><ele>59.317</ele><time>2010-01-01T03:08:39Z</time></trkpt><trkpt lat="37.255350" lon="-7.235720"><ele>54.109</ele><time>2010-01-01T03:08:04Z</time></trkpt><trkpt lat="37.255320" lon="-7.233460"><ele>50.294</ele><time>2010-01-01T03:06:51Z</time></trkpt><trkpt lat="37.254690" lon="-7.230230"><ele>51.664</ele><time>2010-01-01T03:05:05Z</time></trkpt><trkpt lat="37.254730" lon="-7.228800"><ele>46.241</ele><time>2010-01-01T03:04:19Z</time></trkpt><trkpt lat="37.255480" lon="-7.223100"><ele>32.820</ele><time>2010-01-01T03:01:15Z</time></trkpt><trkpt lat="37.255540" lon="-7.221340"><ele>31.195</ele><time>2010-01-01T03:00:19Z</time></trkpt><trkpt lat="37.255420" lon="-7.218850"><ele>28.377</ele><time>2010-01-01T02:58:59Z</time></trkpt><trkpt lat="37.254920" lon="-7.214820"><ele>29.130</ele><time>2010-01-01T02:56:49Z</time></trkpt><trkpt lat="37.254910" lon="-7.213740"><ele>25.086</ele><time>2010-01-01T02:56:15Z</time></trkpt><trkpt lat="37.256320" lon="-7.206620"><ele>21.567</ele><time>2010-01-01T02:52:21Z</time></trkpt><trkpt lat="37.257250" lon="-7.206920"><ele>23.199</ele><time>2010-01-01T02:51:42Z</time></trkpt><trkpt lat="37.257630" lon="-7.204930"><ele>29.207</ele><time>2010-01-01T02:50:37Z</time></trkpt><trkpt lat="37.257930" lon="-7.203660"><ele>25.527</ele><time>2010-01-01T02:49:55Z</time></trkpt><trkpt lat="37.258060" lon="-7.203710"><ele>25.409</ele><time>2010-01-01T02:49:49Z</time></trkpt><trkpt lat="37.258100" lon="-7.203470"><ele>25.250</ele><time>2010-01-01T02:49:42Z</time></trkpt><trkpt lat="37.258150" lon="-7.203400"><ele>25.360</ele><time>2010-01-01T02:49:39Z</time></trkpt><trkpt lat="37.259370" lon="-7.202520"><ele>24.017</ele><time>2010-01-01T02:48:42Z</time></trkpt><trkpt lat="37.259390" lon="-7.202470"><ele>24.066</ele><time>2010-01-01T02:48:40Z</time></trkpt><trkpt lat="37.259520" lon="-7.202440"><ele>24.071</ele><time>2010-01-01T02:48:35Z</time></trkpt><trkpt lat="37.259930" lon="-7.203290"><ele>25.013</ele><time>2010-01-01T02:48:03Z</time></trkpt><trkpt lat="37.260450" lon="-7.202910"><ele>26.276</ele><time>2010-01-01T02:47:39Z</time></trkpt><trkpt lat="37.260490" lon="-7.202840"><ele>26.152</ele><time>2010-01-01T02:47:36Z</time></trkpt><trkpt lat="37.260450" lon="-7.202340"><ele>24.613</ele><time>2010-01-01T02:47:20Z</time></trkpt><trkpt lat="37.260820" lon="-7.202070"><ele>22.544</ele><time>2010-01-01T02:47:03Z</time></trkpt><trkpt lat="37.260640" lon="-7.201550"><ele>21.105</ele><time>2010-01-01T02:46:43Z</time></trkpt><trkpt lat="37.260680" lon="-7.201500"><ele>20.815</ele><time>2010-01-01T02:46:40Z</time></trkpt><trkpt lat="37.263130" lon="-7.199740"><ele>26.209</ele><time>2010-01-01T02:44:47Z</time></trkpt><trkpt lat="37.264080" lon="-7.199220"><ele>28.115</ele><time>2010-01-01T02:44:05Z</time></trkpt><trkpt lat="37.267610" lon="-7.196760"><ele>32.355</ele><time>2010-01-01T02:41:24Z</time></trkpt><trkpt lat="37.275200" lon="-7.191450"><ele>23.092</ele><time>2010-01-01T02:35:36Z</time></trkpt><trkpt lat="37.275750" lon="-7.191160"><ele>26.641</ele><time>2010-01-01T02:35:12Z</time></trkpt><trkpt lat="37.278240" lon="-7.190330"><ele>15.136</ele><time>2010-01-01T02:33:29Z</time></trkpt><trkpt lat="37.278550" lon="-7.190220"><ele>14.888</ele><time>2010-01-01T02:33:16Z</time></trkpt><trkpt lat="37.279460" lon="-7.190010"><ele>22.071</ele><time>2010-01-01T02:32:39Z</time></trkpt><trkpt lat="37.280030" lon="-7.189720"><ele>22.167</ele><time>2010-01-01T02:32:14Z</time></trkpt><trkpt lat="37.286620" lon="-7.187480"><ele>27.398</ele><time>2010-01-01T02:27:41Z</time></trkpt><trkpt lat="37.288190" lon="-7.187470"><ele>22.543</ele><time>2010-01-01T02:26:38Z</time></trkpt><trkpt lat="37.290590" lon="-7.188400"><ele>17.864</ele><time>2010-01-01T02:24:57Z</time></trkpt><trkpt lat="37.291480" lon="-7.188650"><ele>13.310</ele><time>2010-01-01T02:24:20Z</time></trkpt><trkpt lat="37.293500" lon="-7.188410"><ele>14.409</ele><time>2010-01-01T02:22:59Z</time></trkpt><trkpt lat="37.294890" lon="-7.188100"><ele>13.065</ele><time>2010-01-01T02:22:03Z</time></trkpt><trkpt lat="37.295350" lon="-7.187970"><ele>12.395</ele><time>2010-01-01T02:21:44Z</time></trkpt><trkpt lat="37.296250" lon="-7.187530"><ele>9.032</ele><time>2010-01-01T02:21:05Z</time></trkpt><trkpt lat="37.296790" lon="-7.187050"><ele>9.881</ele><time>2010-01-01T02:20:38Z</time></trkpt><trkpt lat="37.297260" lon="-7.186420"><ele>10.156</ele><time>2010-01-01T02:20:11Z</time></trkpt><trkpt lat="37.298210" lon="-7.184490"><ele>9.158</ele><time>2010-01-01T02:18:59Z</time></trkpt><trkpt lat="37.298560" lon="-7.183220"><ele>7.421</ele><time>2010-01-01T02:18:15Z</time></trkpt><trkpt lat="37.298710" lon="-7.181220"><ele>6.587</ele><time>2010-01-01T02:17:11Z</time></trkpt><trkpt lat="37.298730" lon="-7.180820"><ele>8.168</ele><time>2010-01-01T02:16:59Z</time></trkpt><trkpt lat="37.298710" lon="-7.180810"><ele>8.278</ele><time>2010-01-01T02:16:58Z</time></trkpt><trkpt lat="37.298350" lon="-7.179090"><ele>14.333</ele><time>2010-01-01T02:16:01Z</time></trkpt><trkpt lat="37.297690" lon="-7.177900"><ele>19.226</ele><time>2010-01-01T02:15:14Z</time></trkpt><trkpt lat="37.293750" lon="-7.171070"><ele>8.409</ele><time>2010-01-01T02:10:45Z</time></trkpt><trkpt lat="37.293110" lon="-7.170190"><ele>11.018</ele><time>2010-01-01T02:10:07Z</time></trkpt><trkpt lat="37.291500" lon="-7.168570"><ele>16.568</ele><time>2010-01-01T02:08:45Z</time></trkpt><trkpt lat="37.290910" lon="-7.167680"><ele>15.435</ele><time>2010-01-01T02:08:08Z</time></trkpt><trkpt lat="37.290660" lon="-7.167170"><ele>17.274</ele><time>2010-01-01T02:07:49Z</time></trkpt><trkpt lat="37.288240" lon="-7.161200"><ele>9.849</ele><time>2010-01-01T02:04:15Z</time></trkpt><trkpt lat="37.287970" lon="-7.160220"><ele>14.091</ele><time>2010-01-01T02:03:42Z</time></trkpt><trkpt lat="37.287850" lon="-7.158620"><ele>16.014</ele><time>2010-01-01T02:02:51Z</time></trkpt><trkpt lat="37.288860" lon="-7.151030"><ele>25.030</ele><time>2010-01-01T01:58:46Z</time></trkpt><trkpt lat="37.288930" lon="-7.150590"><ele>25.011</ele><time>2010-01-01T01:58:31Z</time></trkpt><trkpt lat="37.289010" lon="-7.149950"><ele>25.444</ele><time>2010-01-01T01:58:11Z</time></trkpt><trkpt lat="37.289240" lon="-7.147790"><ele>27.405</ele><time>2010-01-01T01:57:01Z</time></trkpt><trkpt lat="37.289890" lon="-7.142630"><ele>20.315</ele><time>2010-01-01T01:54:14Z</time></trkpt><trkpt lat="37.290040" lon="-7.142630"><ele>20.709</ele><time>2010-01-01T01:54:08Z</time></trkpt><trkpt lat="37.290310" lon="-7.142520"><ele>21.965</ele><time>2010-01-01T01:53:57Z</time></trkpt><trkpt lat="37.290490" lon="-7.142250"><ele>23.625</ele><time>2010-01-01T01:53:46Z</time></trkpt><trkpt lat="37.290770" lon="-7.141850"><ele>24.672</ele><time>2010-01-01T01:53:28Z</time></trkpt><trkpt lat="37.290770" lon="-7.141660"><ele>25.881</ele><time>2010-01-01T01:53:22Z</time></trkpt><trkpt lat="37.290390" lon="-7.140770"><ele>27.016</ele><time>2010-01-01T01:52:48Z</time></trkpt><trkpt lat="37.290860" lon="-7.138840"><ele>25.878</ele><time>2010-01-01T01:51:44Z</time></trkpt><trkpt lat="37.295890" lon="-7.128600"><ele>39.961</ele><time>2010-01-01T01:45:20Z</time></trkpt><trkpt lat="37.296260" lon="-7.127620"><ele>42.347</ele><time>2010-01-01T01:44:46Z</time></trkpt><trkpt lat="37.296430" lon="-7.126200"><ele>46.018</ele><time>2010-01-01T01:44:00Z</time></trkpt><trkpt lat="37.296260" lon="-7.124800"><ele>43.377</ele><time>2010-01-01T01:43:14Z</time></trkpt><trkpt lat="37.295670" lon="-7.122650"><ele>36.761</ele><time>2010-01-01T01:42:02Z</time></trkpt><trkpt lat="37.295580" lon="-7.121800"><ele>35.427</ele><time>2010-01-01T01:41:35Z</time></trkpt><trkpt lat="37.295730" lon="-7.120360"><ele>37.309</ele><time>2010-01-01T01:40:48Z</time></trkpt><trkpt lat="37.295950" lon="-7.119660"><ele>37.828</ele><time>2010-01-01T01:40:24Z</time></trkpt><trkpt lat="37.296590" lon="-7.118150"><ele>29.448</ele><time>2010-01-01T01:39:30Z</time></trkpt><trkpt lat="37.297930" lon="-7.115080"><ele>43.535</ele><time>2010-01-01T01:37:38Z</time></trkpt><trkpt lat="37.299720" lon="-7.110790"><ele>47.024</ele><time>2010-01-01T01:35:03Z</time></trkpt><trkpt lat="37.299970" lon="-7.109270"><ele>48.949</ele><time>2010-01-01T01:34:14Z</time></trkpt><trkpt lat="37.300020" lon="-7.108270"><ele>48.081</ele><time>2010-01-01T01:33:41Z</time></trkpt><trkpt lat="37.299870" lon="-7.108070"><ele>48.024</ele><time>2010-01-01T01:33:33Z</time></trkpt><trkpt lat="37.299860" lon="-7.106680"><ele>44.010</ele><time>2010-01-01T01:32:48Z</time></trkpt><trkpt lat="37.300500" lon="-7.104610"><ele>44.861</ele><time>2010-01-01T01:31:37Z</time></trkpt><trkpt lat="37.300750" lon="-7.104260"><ele>46.952</ele><time>2010-01-01T01:31:21Z</time></trkpt><trkpt lat="37.306410" lon="-7.095740"><ele>48.653</ele><time>2010-01-01T01:25:27Z</time></trkpt><trkpt lat="37.306790" lon="-7.094960"><ele>51.508</ele><time>2010-01-01T01:24:58Z</time></trkpt><trkpt lat="37.307340" lon="-7.093570"><ele>48.609</ele><time>2010-01-01T01:24:09Z</time></trkpt><trkpt lat="37.307510" lon="-7.093010"><ele>52.246</ele><time>2010-01-01T01:23:50Z</time></trkpt><trkpt lat="37.307800" lon="-7.091850"><ele>52.686</ele><time>2010-01-01T01:23:11Z</time></trkpt><trkpt lat="37.307900" lon="-7.091200"><ele>50.823</ele><time>2010-01-01T01:22:50Z</time></trkpt><trkpt lat="37.308230" lon="-7.087770"><ele>57.012</ele><time>2010-01-01T01:21:00Z</time></trkpt><trkpt lat="37.308320" lon="-7.086880"><ele>57.797</ele><time>2010-01-01T01:20:31Z</time></trkpt><trkpt lat="37.308920" lon="-7.085160"><ele>56.829</ele><time>2010-01-01T01:19:31Z</time></trkpt><trkpt lat="37.318290" lon="-7.070960"><ele>57.522</ele><time>2010-01-01T01:09:43Z</time></trkpt><trkpt lat="37.318530" lon="-7.071050"><ele>57.868</ele><time>2010-01-01T01:09:33Z</time></trkpt><trkpt lat="37.318900" lon="-7.070490"><ele>57.089</ele><time>2010-01-01T01:09:10Z</time></trkpt><trkpt lat="37.319010" lon="-7.069870"><ele>57.048</ele><time>2010-01-01T01:08:50Z</time></trkpt><trkpt lat="37.319960" lon="-7.068300"><ele>59.061</ele><time>2010-01-01T01:07:47Z</time></trkpt><trkpt lat="37.320560" lon="-7.067290"><ele>56.217</ele><time>2010-01-01T01:07:06Z</time></trkpt><trkpt lat="37.321070" lon="-7.065950"><ele>52.709</ele><time>2010-01-01T01:06:19Z</time></trkpt><trkpt lat="37.325180" lon="-7.046430"><ele>53.025</ele><time>2010-01-01T00:55:36Z</time></trkpt><trkpt lat="37.326510" lon="-7.041080"><ele>43.575</ele><time>2010-01-01T00:52:38Z</time></trkpt><trkpt lat="37.328040" lon="-7.037430"><ele>46.362</ele><time>2010-01-01T00:50:26Z</time></trkpt><trkpt lat="37.332070" lon="-7.030940"><ele>38.831</ele><time>2010-01-01T00:46:04Z</time></trkpt><trkpt lat="37.333100" lon="-7.029710"><ele>42.016</ele><time>2010-01-01T00:45:07Z</time></trkpt><trkpt lat="37.333350" lon="-7.029450"><ele>41.958</ele><time>2010-01-01T00:44:54Z</time></trkpt><trkpt lat="37.333800" lon="-7.029090"><ele>37.461</ele><time>2010-01-01T00:44:33Z</time></trkpt><trkpt lat="37.334260" lon="-7.026880"><ele>31.427</ele><time>2010-01-01T00:43:20Z</time></trkpt><trkpt lat="37.334960" lon="-7.027090"><ele>31.958</ele><time>2010-01-01T00:42:51Z</time></trkpt><trkpt lat="37.335410" lon="-7.027440"><ele>34.862</ele><time>2010-01-01T00:42:29Z</time></trkpt><trkpt lat="37.335730" lon="-7.028370"><ele>38.983</ele><time>2010-01-01T00:41:56Z</time></trkpt><trkpt lat="37.335840" lon="-7.028440"><ele>40.011</ele><time>2010-01-01T00:41:52Z</time></trkpt><trkpt lat="37.336240" lon="-7.028570"><ele>40.509</ele><time>2010-01-01T00:41:35Z</time></trkpt><trkpt lat="37.336830" lon="-7.029120"><ele>42.627</ele><time>2010-01-01T00:41:05Z</time></trkpt><trkpt lat="37.336930" lon="-7.028820"><ele>42.487</ele><time>2010-01-01T00:40:55Z</time></trkpt><trkpt lat="37.337290" lon="-7.028160"><ele>40.844</ele><time>2010-01-01T00:40:30Z</time></trkpt><trkpt lat="37.337750" lon="-7.027640"><ele>41.983</ele><time>2010-01-01T00:40:05Z</time></trkpt><trkpt lat="37.344520" lon="-7.020900"><ele>33.318</ele><time>2010-01-01T00:34:19Z</time></trkpt><trkpt lat="37.344040" lon="-7.020410"><ele>33.270</ele><time>2010-01-01T00:33:54Z</time></trkpt><trkpt lat="37.344870" lon="-7.019190"><ele>32.073</ele><time>2010-01-01T00:33:03Z</time></trkpt><trkpt lat="37.345300" lon="-7.017810"><ele>36.979</ele><time>2010-01-01T00:32:15Z</time></trkpt><trkpt lat="37.345680" lon="-7.013620"><ele>35.620</ele><time>2010-01-01T00:30:01Z</time></trkpt><trkpt lat="37.345380" lon="-7.012170"><ele>39.373</ele><time>2010-01-01T00:29:13Z</time></trkpt><trkpt lat="37.344220" lon="-7.009610"><ele>46.085</ele><time>2010-01-01T00:27:39Z</time></trkpt><trkpt lat="37.343830" lon="-7.008290"><ele>43.513</ele><time>2010-01-01T00:26:54Z</time></trkpt><trkpt lat="37.343750" lon="-7.007430"><ele>46.709</ele><time>2010-01-01T00:26:27Z</time></trkpt><trkpt lat="37.344050" lon="-7.005660"><ele>39.658</ele><time>2010-01-01T00:25:29Z</time></trkpt><trkpt lat="37.344460" lon="-7.004710"><ele>39.128</ele><time>2010-01-01T00:24:54Z</time></trkpt><trkpt lat="37.346310" lon="-7.001200"><ele>29.495</ele><time>2010-01-01T00:22:40Z</time></trkpt><trkpt lat="37.346380" lon="-7.000910"><ele>29.224</ele><time>2010-01-01T00:22:29Z</time></trkpt><trkpt lat="37.346330" lon="-7.000850"><ele>28.869</ele><time>2010-01-01T00:22:27Z</time></trkpt><trkpt lat="37.346950" lon="-6.999930"><ele>25.741</ele><time>2010-01-01T00:21:48Z</time></trkpt><trkpt lat="37.347610" lon="-6.999250"><ele>22.064</ele><time>2010-01-01T00:21:14Z</time></trkpt><trkpt lat="37.348720" lon="-6.998470"><ele>25.250</ele><time>2010-01-01T00:20:23Z</time></trkpt><trkpt lat="37.349250" lon="-6.998100"><ele>18.671</ele><time>2010-01-01T00:19:59Z</time></trkpt><trkpt lat="37.350210" lon="-6.997740"><ele>15.467</ele><time>2010-01-01T00:19:19Z</time></trkpt><trkpt lat="37.352020" lon="-6.996750"><ele>12.581</ele><time>2010-01-01T00:18:00Z</time></trkpt><trkpt lat="37.352500" lon="-6.996040"><ele>13.719</ele><time>2010-01-01T00:17:30Z</time></trkpt><trkpt lat="37.353580" lon="-6.994830"><ele>9.909</ele><time>2010-01-01T00:16:32Z</time></trkpt><trkpt lat="37.354010" lon="-6.993440"><ele>10.447</ele><time>2010-01-01T00:15:43Z</time></trkpt><trkpt lat="37.355570" lon="-6.992220"><ele>11.117</ele><time>2010-01-01T00:14:30Z</time></trkpt><trkpt lat="37.355970" lon="-6.991750"><ele>11.344</ele><time>2010-01-01T00:14:08Z</time></trkpt><trkpt lat="37.356750" lon="-6.990510"><ele>8.193</ele><time>2010-01-01T00:13:18Z</time></trkpt><trkpt lat="37.357350" lon="-6.989830"><ele>7.288</ele><time>2010-01-01T00:12:45Z</time></trkpt><trkpt lat="37.358700" lon="-6.989180"><ele>7.410</ele><time>2010-01-01T00:11:47Z</time></trkpt><trkpt lat="37.359780" lon="-6.988200"><ele>6.953</ele><time>2010-01-01T00:10:53Z</time></trkpt><trkpt lat="37.360760" lon="-6.987620"><ele>7.589</ele><time>2010-01-01T00:10:10Z</time></trkpt><trkpt lat="37.362190" lon="-6.986580"><ele>11.190</ele><time>2010-01-01T00:09:03Z</time></trkpt><trkpt lat="37.364330" lon="-6.985670"><ele>8.864</ele><time>2010-01-01T00:07:32Z</time></trkpt><trkpt lat="37.367950" lon="-6.982160"><ele>12.606</ele><time>2010-01-01T00:04:29Z</time></trkpt><trkpt lat="37.368760" lon="-6.980990"><ele>14.016</ele><time>2010-01-01T00:03:39Z</time></trkpt><trkpt lat="37.369110" lon="-6.980210"><ele>15.009</ele><time>2010-01-01T00:03:11Z</time></trkpt><trkpt lat="37.370770" lon="-6.975240"><ele>6.397</ele><time>2010-01-01T00:00:19Z</time></trkpt><trkpt lat="37.370890" lon="-6.974800"><ele>9.467</ele><time>2010-01-01T00:00:04Z</time></trkpt><trkpt lat="37.371796" lon="-6.971847"><ele>12.494</ele><time>2010-01-01T04:19:47Z</time></trkpt><trkpt lat="37.371864" lon="-6.970602"><ele>12.723</ele><time>2010-01-01T04:19:07Z</time></trkpt><trkpt lat="37.371625" lon="-6.967019"><ele>19.128</ele><time>2010-01-01T04:17:13Z</time></trkpt><trkpt lat="37.371267" lon="-6.965409"><ele>17.310</ele><time>2010-01-01T04:16:19Z</time></trkpt><trkpt lat="37.370687" lon="-6.963950"><ele>21.553</ele><time>2010-01-01T04:15:28Z</time></trkpt><trkpt lat="37.369766" lon="-6.964079"><ele>24.399</ele><time>2010-01-01T04:14:50Z</time></trkpt><trkpt lat="37.364463" lon="-6.961955"><ele>24.050</ele><time>2010-01-01T04:11:08Z</time></trkpt><trkpt lat="37.364156" lon="-6.961461"><ele>24.282</ele><time>2010-01-01T04:10:48Z</time></trkpt><trkpt lat="37.364855" lon="-6.960796"><ele>26.543</ele><time>2010-01-01T04:10:13Z</time></trkpt><trkpt lat="37.363695" lon="-6.961053"><ele>24.717</ele><time>2010-01-01T04:09:25Z</time></trkpt><trkpt lat="37.362365" lon="-6.961011"><ele>20.709</ele><time>2010-01-01T04:08:32Z</time></trkpt><trkpt lat="37.360489" lon="-6.960260"><ele>15.599</ele><time>2010-01-01T04:07:13Z</time></trkpt><trkpt lat="37.358698" lon="-6.959187"><ele>16.759</ele><time>2010-01-01T04:05:54Z</time></trkpt><trkpt lat="37.357334" lon="-6.957556"><ele>15.336</ele><time>2010-01-01T04:04:39Z</time></trkpt><trkpt lat="37.355628" lon="-6.957234"><ele>18.255</ele><time>2010-01-01T04:03:30Z</time></trkpt><trkpt lat="37.353479" lon="-6.957341"><ele>13.850</ele><time>2010-01-01T04:02:04Z</time></trkpt><trkpt lat="37.347935" lon="-6.955217"><ele>12.732</ele><time>2010-01-01T03:58:12Z</time></trkpt><trkpt lat="37.344847" lon="-6.953629"><ele>12.365</ele><time>2010-01-01T03:55:58Z</time></trkpt><trkpt lat="37.343090" lon="-6.953243"><ele>9.091</ele><time>2010-01-01T03:54:47Z</time></trkpt><trkpt lat="37.334867" lon="-6.950024"><ele>4.412</ele><time>2010-01-01T03:49:02Z</time></trkpt><trkpt lat="37.333554" lon="-6.949144"><ele>5.174</ele><time>2010-01-01T03:48:02Z</time></trkpt><trkpt lat="37.333298" lon="-6.948737"><ele>7.256</ele><time>2010-01-01T03:47:46Z</time></trkpt><trkpt lat="37.332991" lon="-6.948908"><ele>7.221</ele><time>2010-01-01T03:47:32Z</time></trkpt><trkpt lat="37.332069" lon="-6.948951"><ele>9.109</ele><time>2010-01-01T03:46:55Z</time></trkpt><trkpt lat="37.324101" lon="-6.945647"><ele>6.718</ele><time>2010-01-01T03:41:20Z</time></trkpt><trkpt lat="37.321320" lon="-6.944252"><ele>9.488</ele><time>2010-01-01T03:39:20Z</time></trkpt><trkpt lat="37.318777" lon="-6.942965"><ele>8.575</ele><time>2010-01-01T03:37:30Z</time></trkpt><trkpt lat="37.315381" lon="-6.942171"><ele>5.834</ele><time>2010-01-01T03:35:12Z</time></trkpt><trkpt lat="37.310005" lon="-6.939896"><ele>9.669</ele><time>2010-01-01T03:31:25Z</time></trkpt><trkpt lat="37.308811" lon="-6.939574"><ele>9.281</ele><time>2010-01-01T03:30:36Z</time></trkpt><trkpt lat="37.307223" lon="-6.939596"><ele>7.574</ele><time>2010-01-01T03:29:32Z</time></trkpt><trkpt lat="37.299799" lon="-6.941699"><ele>10.770</ele><time>2010-01-01T03:24:27Z</time></trkpt><trkpt lat="37.295548" lon="-6.942600"><ele>2.631</ele><time>2010-01-01T03:21:35Z</time></trkpt><trkpt lat="37.289539" lon="-6.943415"><ele>6.652</ele><time>2010-01-01T03:17:33Z</time></trkpt><trkpt lat="37.284793" lon="-6.945389"><ele>4.653</ele><time>2010-01-01T03:14:13Z</time></trkpt><trkpt lat="37.284350" lon="-6.946119"><ele>3.308</ele><time>2010-01-01T03:13:44Z</time></trkpt><trkpt lat="37.284298" lon="-6.947106"><ele>3.909</ele><time>2010-01-01T03:13:12Z</time></trkpt><trkpt lat="37.283803" lon="-6.948393"><ele>2.896</ele><time>2010-01-01T03:12:27Z</time></trkpt><trkpt lat="37.282694" lon="-6.949316"><ele>2.976</ele><time>2010-01-01T03:11:33Z</time></trkpt><trkpt lat="37.280235" lon="-6.950990"><ele>3.973</ele><time>2010-01-01T03:09:41Z</time></trkpt><trkpt lat="37.273200" lon="-6.955195"><ele>3.552</ele><time>2010-01-01T03:04:30Z</time></trkpt><trkpt lat="37.267463" lon="-6.957427"><ele>7.347</ele><time>2010-01-01T03:00:29Z</time></trkpt><trkpt lat="37.262203" lon="-6.959401"><ele>5.129</ele><time>2010-01-01T02:56:49Z</time></trkpt><trkpt lat="37.255355" lon="-6.957298"><ele>8.452</ele><time>2010-01-01T02:52:07Z</time></trkpt><trkpt lat="37.253869" lon="-6.958607"><ele>4.178</ele><time>2010-01-01T02:50:54Z</time></trkpt><trkpt lat="37.251205" lon="-6.957470"><ele>2.129</ele><time>2010-01-01T02:49:02Z</time></trkpt><trkpt lat="37.250726" lon="-6.957642"><ele>2.888</ele><time>2010-01-01T02:48:42Z</time></trkpt><trkpt lat="37.249906" lon="-6.957856"><ele>1.024</ele><time>2010-01-01T02:48:08Z</time></trkpt><trkpt lat="37.248625" lon="-6.957534"><ele>0.026</ele><time>2010-01-01T02:47:16Z</time></trkpt><trkpt lat="37.246302" lon="-6.956504"><ele>1.909</ele><time>2010-01-01T02:45:37Z</time></trkpt><trkpt lat="37.242078" lon="-6.955637"><ele>2.819</ele><time>2010-01-01T02:42:46Z</time></trkpt><trkpt lat="37.240481" lon="-6.954844"><ele>5.029</ele><time>2010-01-01T02:41:37Z</time></trkpt><trkpt lat="37.239845" lon="-6.954758"><ele>6.476</ele><time>2010-01-01T02:41:11Z</time></trkpt><trkpt lat="37.239367" lon="-6.954822"><ele>4.675</ele><time>2010-01-01T02:40:52Z</time></trkpt><trkpt lat="37.237908" lon="-6.954478"><ele>4.050</ele><time>2010-01-01T02:39:53Z</time></trkpt><trkpt lat="37.237241" lon="-6.954114"><ele>7.192</ele><time>2010-01-01T02:39:24Z</time></trkpt><trkpt lat="37.236519" lon="-6.953910"><ele>4.065</ele><time>2010-01-01T02:38:54Z</time></trkpt><trkpt lat="37.236020" lon="-6.954009"><ele>5.491</ele><time>2010-01-01T02:38:34Z</time></trkpt><trkpt lat="37.235428" lon="-6.953899"><ele>3.582</ele><time>2010-01-01T02:38:10Z</time></trkpt><trkpt lat="37.234937" lon="-6.953631"><ele>3.116</ele><time>2010-01-01T02:37:48Z</time></trkpt><trkpt lat="37.234123" lon="-6.953722"><ele>2.476</ele><time>2010-01-01T02:37:15Z</time></trkpt><trkpt lat="37.232774" lon="-6.953475"><ele>0.513</ele><time>2010-01-01T02:36:21Z</time></trkpt><trkpt lat="37.232112" lon="-6.953465"><ele>1.109</ele><time>2010-01-01T02:35:54Z</time></trkpt><trkpt lat="37.231166" lon="-6.952923"><ele>2.232</ele><time>2010-01-01T02:35:12Z</time></trkpt><trkpt lat="37.230754" lon="-6.953226"><ele>0.912</ele><time>2010-01-01T02:34:52Z</time></trkpt><trkpt lat="37.229833" lon="-6.953022"><ele>4.619</ele><time>2010-01-01T02:34:15Z</time></trkpt><trkpt lat="37.229523" lon="-6.952601"><ele>5.688</ele><time>2010-01-01T02:33:56Z</time></trkpt><trkpt lat="37.229130" lon="-6.952553"><ele>2.813</ele><time>2010-01-01T02:33:41Z</time></trkpt><trkpt lat="37.228268" lon="-6.952612"><ele>2.145</ele><time>2010-01-01T02:33:05Z</time></trkpt><trkpt lat="37.227648" lon="-6.952185"><ele>4.748</ele><time>2010-01-01T02:32:37Z</time></trkpt><trkpt lat="37.227251" lon="-6.951976"><ele>3.284</ele><time>2010-01-01T02:32:20Z</time></trkpt><trkpt lat="37.226856" lon="-6.952212"><ele>1.715</ele><time>2010-01-01T02:32:02Z</time></trkpt><trkpt lat="37.226059" lon="-6.951976"><ele>3.429</ele><time>2010-01-01T02:31:29Z</time></trkpt><trkpt lat="37.225801" lon="-6.951511"><ele>5.700</ele><time>2010-01-01T02:31:11Z</time></trkpt><trkpt lat="37.225651" lon="-6.951342"><ele>7.620</ele><time>2010-01-01T02:31:02Z</time></trkpt><trkpt lat="37.225036" lon="-6.951599"><ele>5.109</ele><time>2010-01-01T02:30:36Z</time></trkpt><trkpt lat="37.223426" lon="-6.951100"><ele>1.033</ele><time>2010-01-01T02:29:30Z</time></trkpt><trkpt lat="37.222939" lon="-6.950623"><ele>4.173</ele><time>2010-01-01T02:29:05Z</time></trkpt><trkpt lat="37.221982" lon="-6.950355"><ele>4.040</ele><time>2010-01-01T02:28:26Z</time></trkpt><trkpt lat="37.221520" lon="-6.949818"><ele>5.199</ele><time>2010-01-01T02:28:00Z</time></trkpt><trkpt lat="37.219480" lon="-6.948467"><ele>2.794</ele><time>2010-01-01T02:26:28Z</time></trkpt><trkpt lat="37.217598" lon="-6.947698"><ele>1.466</ele><time>2010-01-01T02:25:08Z</time></trkpt><trkpt lat="37.215886" lon="-6.946356"><ele>7.049</ele><time>2010-01-01T02:23:48Z</time></trkpt><trkpt lat="37.215599" lon="-6.946227"><ele>5.075</ele><time>2010-01-01T02:23:35Z</time></trkpt><trkpt lat="37.215507" lon="-6.946369"><ele>3.616</ele><time>2010-01-01T02:23:29Z</time></trkpt><trkpt lat="37.215138" lon="-6.945782"><ele>3.444</ele><time>2010-01-01T02:23:05Z</time></trkpt><trkpt lat="37.214478" lon="-6.945087"><ele>3.305</ele><time>2010-01-01T02:22:31Z</time></trkpt><trkpt lat="37.214463" lon="-6.944871"><ele>4.415</ele><time>2010-01-01T02:22:24Z</time></trkpt><trkpt lat="37.214316" lon="-6.944618"><ele>4.309</ele><time>2010-01-01T02:22:14Z</time></trkpt><trkpt lat="37.213995" lon="-6.944170"><ele>2.135</ele><time>2010-01-01T02:21:55Z</time></trkpt><trkpt lat="37.214175" lon="-6.943862"><ele>5.255</ele><time>2010-01-01T02:21:43Z</time></trkpt><trkpt lat="37.214132" lon="-6.943660"><ele>5.392</ele><time>2010-01-01T02:21:36Z</time></trkpt><trkpt lat="37.213327" lon="-6.941366"><ele>7.181</ele><time>2010-01-01T02:20:16Z</time></trkpt><trkpt lat="37.213141" lon="-6.940848"><ele>7.946</ele><time>2010-01-01T02:19:57Z</time></trkpt><trkpt lat="37.213278" lon="-6.939734"><ele>9.548</ele><time>2010-01-01T02:19:21Z</time></trkpt><trkpt lat="37.213688" lon="-6.939208"><ele>11.331</ele><time>2010-01-01T02:18:58Z</time></trkpt><trkpt lat="37.214192" lon="-6.939240"><ele>8.997</ele><time>2010-01-01T02:18:38Z</time></trkpt><trkpt lat="37.214311" lon="-6.938618"><ele>5.548</ele><time>2010-01-01T02:18:17Z</time></trkpt><trkpt lat="37.204946" lon="-6.936687"><ele>6.974</ele><time>2010-01-01T02:11:57Z</time></trkpt><trkpt lat="37.204399" lon="-6.936451"><ele>7.256</ele><time>2010-01-01T02:11:34Z</time></trkpt><trkpt lat="37.203058" lon="-6.934927"><ele>10.521</ele><time>2010-01-01T02:10:22Z</time></trkpt><trkpt lat="37.202314" lon="-6.934262"><ele>10.409</ele><time>2010-01-01T02:09:45Z</time></trkpt><trkpt lat="37.201708" lon="-6.934004"><ele>6.338</ele><time>2010-01-01T02:09:19Z</time></trkpt><trkpt lat="37.200896" lon="-6.933951"><ele>4.258</ele><time>2010-01-01T02:08:47Z</time></trkpt><trkpt lat="37.199708" lon="-6.934315"><ele>7.185</ele><time>2010-01-01T02:07:58Z</time></trkpt><trkpt lat="37.198238" lon="-6.934380"><ele>0.054</ele><time>2010-01-01T02:06:59Z</time></trkpt><trkpt lat="37.192341" lon="-6.931183"><ele>5.019</ele><time>2010-01-01T02:02:42Z</time></trkpt><trkpt lat="37.191862" lon="-6.930346"><ele>7.711</ele><time>2010-01-01T02:02:09Z</time></trkpt><trkpt lat="37.191914" lon="-6.929380"><ele>8.954</ele><time>2010-01-01T02:01:38Z</time></trkpt><trkpt lat="37.192397" lon="-6.928297"><ele>8.250</ele><time>2010-01-01T02:00:59Z</time></trkpt><trkpt lat="37.192961" lon="-6.926870"><ele>0.461</ele><time>2010-01-01T02:00:08Z</time></trkpt><trkpt lat="37.193610" lon="-6.926258"><ele>3.074</ele><time>2010-01-01T01:59:35Z</time></trkpt><trkpt lat="37.194585" lon="-6.925711"><ele>6.156</ele><time>2010-01-01T01:58:53Z</time></trkpt><trkpt lat="37.195294" lon="-6.925604"><ele>8.321</ele><time>2010-01-01T01:58:24Z</time></trkpt><trkpt lat="37.195815" lon="-6.925840"><ele>6.109</ele><time>2010-01-01T01:58:02Z</time></trkpt><trkpt lat="37.195952" lon="-6.925282"><ele>5.468</ele><time>2010-01-01T01:57:43Z</time></trkpt><trkpt lat="37.201011" lon="-6.923458"><ele>8.358</ele><time>2010-01-01T01:54:12Z</time></trkpt><trkpt lat="37.201430" lon="-6.923512"><ele>11.715</ele><time>2010-01-01T01:53:55Z</time></trkpt><trkpt lat="37.205549" lon="-6.927342"><ele>8.164</ele><time>2010-01-01T01:50:30Z</time></trkpt><trkpt lat="37.205660" lon="-6.927578"><ele>6.759</ele><time>2010-01-01T01:50:21Z</time></trkpt><trkpt lat="37.207967" lon="-6.928264"><ele>8.521</ele><time>2010-01-01T01:48:46Z</time></trkpt><trkpt lat="37.208770" lon="-6.928039"><ele>8.234</ele><time>2010-01-01T01:48:13Z</time></trkpt><trkpt lat="37.209360" lon="-6.927599"><ele>0.610</ele><time>2010-01-01T01:47:46Z</time></trkpt><trkpt lat="37.211325" lon="-6.924531"><ele>4.991</ele><time>2010-01-01T01:45:40Z</time></trkpt><trkpt lat="37.211616" lon="-6.924541"><ele>4.945</ele><time>2010-01-01T01:45:29Z</time></trkpt><trkpt lat="37.212239" lon="-6.924016"><ele>5.547</ele><time>2010-01-01T01:44:59Z</time></trkpt><trkpt lat="37.213777" lon="-6.923243"><ele>5.911</ele><time>2010-01-01T01:43:52Z</time></trkpt><trkpt lat="37.215076" lon="-6.923415"><ele>5.709</ele><time>2010-01-01T01:43:00Z</time></trkpt><trkpt lat="37.216922" lon="-6.921655"><ele>2.965</ele><time>2010-01-01T01:41:27Z</time></trkpt><trkpt lat="37.220236" lon="-6.917664"><ele>1.485</ele><time>2010-01-01T01:38:23Z</time></trkpt><trkpt lat="37.222594" lon="-6.914145"><ele>5.052</ele><time>2010-01-01T01:35:57Z</time></trkpt><trkpt lat="37.224132" lon="-6.911613"><ele>5.381</ele><time>2010-01-01T01:34:15Z</time></trkpt><trkpt lat="37.228575" lon="-6.907837"><ele>3.386</ele><time>2010-01-01T01:30:40Z</time></trkpt><trkpt lat="37.229873" lon="-6.905863"><ele>2.118</ele><time>2010-01-01T01:29:19Z</time></trkpt><trkpt lat="37.229976" lon="-6.905219"><ele>3.731</ele><time>2010-01-01T01:28:58Z</time></trkpt><trkpt lat="37.231880" lon="-6.900592"><ele>6.937</ele><time>2010-01-01T01:26:12Z</time></trkpt><trkpt lat="37.232440" lon="-6.900517"><ele>6.248</ele><time>2010-01-01T01:25:49Z</time></trkpt><trkpt lat="37.232504" lon="-6.900050"><ele>6.011</ele><time>2010-01-01T01:25:34Z</time></trkpt><trkpt lat="37.233130" lon="-6.899203"><ele>6.621</ele><time>2010-01-01T01:24:57Z</time></trkpt><trkpt lat="37.233552" lon="-6.898715"><ele>4.803</ele><time>2010-01-01T01:24:34Z</time></trkpt><trkpt lat="37.233421" lon="-6.897011"><ele>3.409</ele><time>2010-01-01T01:23:39Z</time></trkpt><trkpt lat="37.233793" lon="-6.896010"><ele>2.862</ele><time>2010-01-01T01:23:04Z</time></trkpt><trkpt lat="37.234153" lon="-6.895979"><ele>3.962</ele><time>2010-01-01T01:22:49Z</time></trkpt><trkpt lat="37.234600" lon="-6.895656"><ele>5.459</ele><time>2010-01-01T01:22:28Z</time></trkpt><trkpt lat="37.234743" lon="-6.895471"><ele>5.568</ele><time>2010-01-01T01:22:20Z</time></trkpt><trkpt lat="37.234950" lon="-6.895138"><ele>6.413</ele><time>2010-01-01T01:22:07Z</time></trkpt><trkpt lat="37.236430" lon="-6.893056"><ele>2.315</ele><time>2010-01-01T01:20:37Z</time></trkpt><trkpt lat="37.236742" lon="-6.892686"><ele>5.318</ele><time>2010-01-01T01:20:20Z</time></trkpt><trkpt lat="37.237759" lon="-6.892278"><ele>1.524</ele><time>2010-01-01T01:19:37Z</time></trkpt><trkpt lat="37.237963" lon="-6.891957"><ele>4.685</ele><time>2010-01-01T01:19:24Z</time></trkpt><trkpt lat="37.239928" lon="-6.891431"><ele>3.383</ele><time>2010-01-01T01:18:03Z</time></trkpt><trkpt lat="37.240654" lon="-6.890390"><ele>2.525</ele><time>2010-01-01T01:17:19Z</time></trkpt><trkpt lat="37.240731" lon="-6.889929"><ele>2.917</ele><time>2010-01-01T01:17:04Z</time></trkpt><trkpt lat="37.241295" lon="-6.889231"><ele>3.109</ele><time>2010-01-01T01:16:32Z</time></trkpt><trkpt lat="37.242396" lon="-6.888727"><ele>0.739</ele><time>2010-01-01T01:15:45Z</time></trkpt><trkpt lat="37.242721" lon="-6.888277"><ele>2.289</ele><time>2010-01-01T01:15:26Z</time></trkpt><trkpt lat="37.243464" lon="-6.887805"><ele>4.586</ele><time>2010-01-01T01:14:52Z</time></trkpt><trkpt lat="37.244967" lon="-6.886839"><ele>5.855</ele><time>2010-01-01T01:13:45Z</time></trkpt><trkpt lat="37.245480" lon="-6.886013"><ele>4.240</ele><time>2010-01-01T01:13:12Z</time></trkpt><trkpt lat="37.245796" lon="-6.884983"><ele>4.232</ele><time>2010-01-01T01:12:36Z</time></trkpt><trkpt lat="37.246812" lon="-6.884039"><ele>2.935</ele><time>2010-01-01T01:11:46Z</time></trkpt><trkpt lat="37.247666" lon="-6.883438"><ele>3.631</ele><time>2010-01-01T01:11:07Z</time></trkpt><trkpt lat="37.248341" lon="-6.883427"><ele>6.312</ele><time>2010-01-01T01:10:40Z</time></trkpt><trkpt lat="37.248708" lon="-6.883631"><ele>5.331</ele><time>2010-01-01T01:10:23Z</time></trkpt><trkpt lat="37.249126" lon="-6.883331"><ele>5.061</ele><time>2010-01-01T01:10:04Z</time></trkpt><trkpt lat="37.249400" lon="-6.882741"><ele>2.307</ele><time>2010-01-01T01:09:42Z</time></trkpt><trkpt lat="37.249477" lon="-6.882193"><ele>2.909</ele><time>2010-01-01T01:09:25Z</time></trkpt><trkpt lat="37.249605" lon="-6.880359"><ele>6.794</ele><time>2010-01-01T01:08:26Z</time></trkpt><trkpt lat="37.251227" lon="-6.879007"><ele>5.174</ele><time>2010-01-01T01:07:08Z</time></trkpt><trkpt lat="37.252543" lon="-6.878288"><ele>7.041</ele><time>2010-01-01T01:06:10Z</time></trkpt><trkpt lat="37.253285" lon="-6.877526"><ele>7.380</ele><time>2010-01-01T01:05:32Z</time></trkpt><trkpt lat="37.254139" lon="-6.876818"><ele>4.015</ele><time>2010-01-01T01:04:51Z</time></trkpt><trkpt lat="37.255591" lon="-6.876174"><ele>5.877</ele><time>2010-01-01T01:03:49Z</time></trkpt><trkpt lat="37.256116" lon="-6.876231"><ele>2.630</ele><time>2010-01-01T01:03:28Z</time></trkpt><trkpt lat="37.256915" lon="-6.875520"><ele>4.946</ele><time>2010-01-01T01:02:48Z</time></trkpt><trkpt lat="37.263421" lon="-6.868793"><ele>1.277</ele><time>2010-01-01T00:57:11Z</time></trkpt><trkpt lat="37.263532" lon="-6.868439"><ele>1.445</ele><time>2010-01-01T00:56:59Z</time></trkpt><trkpt lat="37.265001" lon="-6.866025"><ele>4.347</ele><time>2010-01-01T00:55:22Z</time></trkpt><trkpt lat="37.266111" lon="-6.864351"><ele>4.311</ele><time>2010-01-01T00:54:12Z</time></trkpt><trkpt lat="37.266931" lon="-6.863579"><ele>5.809</ele><time>2010-01-01T00:53:31Z</time></trkpt><trkpt lat="37.269552" lon="-6.861927"><ele>3.075</ele><time>2010-01-01T00:51:34Z</time></trkpt><trkpt lat="37.270568" lon="-6.861122"><ele>6.095</ele><time>2010-01-01T00:50:46Z</time></trkpt><trkpt lat="37.271063" lon="-6.860350"><ele>3.382</ele><time>2010-01-01T00:50:14Z</time></trkpt><trkpt lat="37.276579" lon="-6.854366"><ele>5.811</ele><time>2010-01-01T00:45:23Z</time></trkpt><trkpt lat="37.279554" lon="-6.851257"><ele>3.476</ele><time>2010-01-01T00:42:48Z</time></trkpt><trkpt lat="37.280427" lon="-6.850254"><ele>4.028</ele><time>2010-01-01T00:42:00Z</time></trkpt><trkpt lat="37.280730" lon="-6.850034"><ele>4.031</ele><time>2010-01-01T00:41:46Z</time></trkpt><trkpt lat="37.280980" lon="-6.849645"><ele>5.027</ele><time>2010-01-01T00:41:30Z</time></trkpt><trkpt lat="37.281524" lon="-6.849283"><ele>7.018</ele><time>2010-01-01T00:41:06Z</time></trkpt><trkpt lat="37.282649" lon="-6.848349"><ele>3.556</ele><time>2010-01-01T00:40:11Z</time></trkpt><trkpt lat="37.284723" lon="-6.846305"><ele>4.359</ele><time>2010-01-01T00:38:26Z</time></trkpt><trkpt lat="37.285801" lon="-6.845450"><ele>3.014</ele><time>2010-01-01T00:37:35Z</time></trkpt><trkpt lat="37.288925" lon="-6.843395"><ele>4.609</ele><time>2010-01-01T00:35:13Z</time></trkpt><trkpt lat="37.290667" lon="-6.841947"><ele>1.486</ele><time>2010-01-01T00:33:50Z</time></trkpt><trkpt lat="37.293082" lon="-6.839348"><ele>2.316</ele><time>2010-01-01T00:31:42Z</time></trkpt><trkpt lat="37.294318" lon="-6.837607"><ele>3.013</ele><time>2010-01-01T00:30:28Z</time></trkpt><trkpt lat="37.295607" lon="-6.835363"><ele>2.772</ele><time>2010-01-01T00:29:00Z</time></trkpt><trkpt lat="37.297011" lon="-6.832702"><ele>4.217</ele><time>2010-01-01T00:27:17Z</time></trkpt><trkpt lat="37.297199" lon="-6.832493"><ele>4.149</ele><time>2010-01-01T00:27:07Z</time></trkpt><trkpt lat="37.297620" lon="-6.831298"><ele>4.682</ele><time>2010-01-01T00:26:25Z</time></trkpt><trkpt lat="37.298252" lon="-6.828987"><ele>4.428</ele><time>2010-01-01T00:25:08Z</time></trkpt><trkpt lat="37.298196" lon="-6.828657"><ele>5.429</ele><time>2010-01-01T00:24:57Z</time></trkpt><trkpt lat="37.299271" lon="-6.827198"><ele>4.467</ele><time>2010-01-01T00:23:54Z</time></trkpt><trkpt lat="37.299527" lon="-6.826468"><ele>4.381</ele><time>2010-01-01T00:23:28Z</time></trkpt><trkpt lat="37.300850" lon="-6.823996"><ele>2.619</ele><time>2010-01-01T00:21:53Z</time></trkpt><trkpt lat="37.302054" lon="-6.822048"><ele>4.509</ele><time>2010-01-01T00:20:35Z</time></trkpt><trkpt lat="37.303009" lon="-6.821319"><ele>2.927</ele><time>2010-01-01T00:19:50Z</time></trkpt><trkpt lat="37.304050" lon="-6.820825"><ele>3.427</ele><time>2010-01-01T00:19:05Z</time></trkpt><trkpt lat="37.305160" lon="-6.820761"><ele>1.074</ele><time>2010-01-01T00:18:21Z</time></trkpt><trkpt lat="37.306790" lon="-6.821083"><ele>4.643</ele><time>2010-01-01T00:17:15Z</time></trkpt><trkpt lat="37.308471" lon="-6.821533"><ele>4.568</ele><time>2010-01-01T00:16:06Z</time></trkpt><trkpt lat="37.311799" lon="-6.824044"><ele>2.510</ele><time>2010-01-01T00:13:31Z</time></trkpt><trkpt lat="37.313325" lon="-6.825712"><ele>3.023</ele><time>2010-01-01T00:12:10Z</time></trkpt><trkpt lat="37.315751" lon="-6.828450"><ele>5.669</ele><time>2010-01-01T00:09:59Z</time></trkpt><trkpt lat="37.315942" lon="-6.829025"><ele>4.610</ele><time>2010-01-01T00:09:39Z</time></trkpt><trkpt lat="37.316151" lon="-6.829043"><ele>4.071</ele><time>2010-01-01T00:09:31Z</time></trkpt><trkpt lat="37.318045" lon="-6.831082"><ele>7.041</ele><time>2010-01-01T00:07:51Z</time></trkpt><trkpt lat="37.318694" lon="-6.831897"><ele>5.815</ele><time>2010-01-01T00:07:14Z</time></trkpt><trkpt lat="37.319069" lon="-6.832992"><ele>9.609</ele><time>2010-01-01T00:06:36Z</time></trkpt><trkpt lat="37.319700" lon="-6.835974"><ele>9.078</ele><time>2010-01-01T00:04:58Z</time></trkpt><trkpt lat="37.319598" lon="-6.836575"><ele>9.198</ele><time>2010-01-01T00:04:39Z</time></trkpt><trkpt lat="37.320042" lon="-6.836854"><ele>9.285</ele><time>2010-01-01T00:04:19Z</time></trkpt><trkpt lat="37.321714" lon="-6.841274"><ele>12.684</ele><time>2010-01-01T00:01:43Z</time></trkpt><trkpt lat="37.321629" lon="-6.841811"><ele>13.959</ele><time>2010-01-01T00:01:25Z</time></trkpt><trkpt lat="37.322038" lon="-6.841918"><ele>13.941</ele><time>2010-01-01T00:01:09Z</time></trkpt><trkpt lat="37.322482" lon="-6.842948"><ele>14.354</ele><time>2010-01-01T00:00:31Z</time></trkpt><trkpt lat="37.322806" lon="-6.843570"><ele>12.260</ele><time>2010-01-01T00:00:08Z</time></trkpt><trkpt lat="37.322789" lon="-6.843828"><ele>12.031</ele><time>2010-01-01T00:00:00Z</time></trkpt><trkpt lat="37.321670" lon="-6.841700"><ele>14.011</ele><time>2010-01-01T03:22:38Z</time></trkpt><trkpt lat="37.322110" lon="-6.841990"><ele>13.921</ele><time>2010-01-01T03:22:17Z</time></trkpt><trkpt lat="37.322450" lon="-6.842800"><ele>14.603</ele><time>2010-01-01T03:21:48Z</time></trkpt><trkpt lat="37.322530" lon="-6.842960"><ele>14.409</ele><time>2010-01-01T03:21:42Z</time></trkpt><trkpt lat="37.322840" lon="-6.843580"><ele>12.372</ele><time>2010-01-01T03:21:18Z</time></trkpt><trkpt lat="37.322800" lon="-6.844660"><ele>13.472</ele><time>2010-01-01T03:20:43Z</time></trkpt><trkpt lat="37.323330" lon="-6.844940"><ele>13.499</ele><time>2010-01-01T03:20:20Z</time></trkpt><trkpt lat="37.323260" lon="-6.845800"><ele>8.478</ele><time>2010-01-01T03:19:52Z</time></trkpt><trkpt lat="37.323420" lon="-6.846150"><ele>8.563</ele><time>2010-01-01T03:19:39Z</time></trkpt><trkpt lat="37.323500" lon="-6.846220"><ele>9.125</ele><time>2010-01-01T03:19:35Z</time></trkpt><trkpt lat="37.347390" lon="-6.839290"><ele>38.758</ele><time>2010-01-01T03:03:14Z</time></trkpt><trkpt lat="37.358080" lon="-6.837610"><ele>48.334</ele><time>2010-01-01T02:56:02Z</time></trkpt><trkpt lat="37.362380" lon="-6.837400"><ele>43.615</ele><time>2010-01-01T02:53:10Z</time></trkpt><trkpt lat="37.362850" lon="-6.837450"><ele>40.711</ele><time>2010-01-01T02:52:51Z</time></trkpt><trkpt lat="37.370470" lon="-6.839400"><ele>50.921</ele><time>2010-01-01T02:47:40Z</time></trkpt><trkpt lat="37.375140" lon="-6.841040"><ele>59.503</ele><time>2010-01-01T02:44:25Z</time></trkpt><trkpt lat="37.378720" lon="-6.841290"><ele>66.909</ele><time>2010-01-01T02:42:02Z</time></trkpt><trkpt lat="37.380040" lon="-6.841050"><ele>70.242</ele><time>2010-01-01T02:41:08Z</time></trkpt><trkpt lat="37.380990" lon="-6.840660"><ele>72.052</ele><time>2010-01-01T02:40:28Z</time></trkpt><trkpt lat="37.381140" lon="-6.840510"><ele>71.889</ele><time>2010-01-01T02:40:21Z</time></trkpt><trkpt lat="37.383490" lon="-6.840090"><ele>76.118</ele><time>2010-01-01T02:38:45Z</time></trkpt><trkpt lat="37.385640" lon="-6.838530"><ele>85.193</ele><time>2010-01-01T02:37:06Z</time></trkpt><trkpt lat="37.386850" lon="-6.837820"><ele>88.245</ele><time>2010-01-01T02:36:12Z</time></trkpt><trkpt lat="37.387430" lon="-6.837740"><ele>90.418</ele><time>2010-01-01T02:35:49Z</time></trkpt><trkpt lat="37.389900" lon="-6.837350"><ele>80.514</ele><time>2010-01-01T02:34:06Z</time></trkpt><trkpt lat="37.390050" lon="-6.837400"><ele>80.265</ele><time>2010-01-01T02:34:00Z</time></trkpt><trkpt lat="37.390240" lon="-6.837490"><ele>78.484</ele><time>2010-01-01T02:33:52Z</time></trkpt><trkpt lat="37.390410" lon="-6.837270"><ele>78.407</ele><time>2010-01-01T02:33:42Z</time></trkpt><trkpt lat="37.391150" lon="-6.836990"><ele>78.717</ele><time>2010-01-01T02:33:10Z</time></trkpt><trkpt lat="37.391360" lon="-6.837060"><ele>77.709</ele><time>2010-01-01T02:33:01Z</time></trkpt><trkpt lat="37.393780" lon="-6.836610"><ele>76.419</ele><time>2010-01-01T02:31:23Z</time></trkpt><trkpt lat="37.394510" lon="-6.836310"><ele>77.229</ele><time>2010-01-01T02:30:52Z</time></trkpt><trkpt lat="37.394800" lon="-6.836130"><ele>77.026</ele><time>2010-01-01T02:30:40Z</time></trkpt><trkpt lat="37.400950" lon="-6.829960"><ele>80.585</ele><time>2010-01-01T02:25:25Z</time></trkpt><trkpt lat="37.404160" lon="-6.827590"><ele>86.330</ele><time>2010-01-01T02:22:55Z</time></trkpt><trkpt lat="37.404860" lon="-6.826770"><ele>88.132</ele><time>2010-01-01T02:22:17Z</time></trkpt><trkpt lat="37.406680" lon="-6.823820"><ele>94.325</ele><time>2010-01-01T02:20:18Z</time></trkpt><trkpt lat="37.407570" lon="-6.823090"><ele>97.171</ele><time>2010-01-01T02:19:36Z</time></trkpt><trkpt lat="37.407730" lon="-6.823000"><ele>97.022</ele><time>2010-01-01T02:19:29Z</time></trkpt><trkpt lat="37.408750" lon="-6.822690"><ele>100.258</ele><time>2010-01-01T02:18:46Z</time></trkpt><trkpt lat="37.409640" lon="-6.822720"><ele>102.952</ele><time>2010-01-01T02:18:11Z</time></trkpt><trkpt lat="37.411880" lon="-6.823320"><ele>98.217</ele><time>2010-01-01T02:16:39Z</time></trkpt><trkpt lat="37.412980" lon="-6.823890"><ele>93.509</ele><time>2010-01-01T02:15:51Z</time></trkpt><trkpt lat="37.416420" lon="-6.827670"><ele>86.156</ele><time>2010-01-01T02:12:48Z</time></trkpt><trkpt lat="37.417920" lon="-6.828550"><ele>89.256</ele><time>2010-01-01T02:11:42Z</time></trkpt><trkpt lat="37.418770" lon="-6.828720"><ele>84.473</ele><time>2010-01-01T02:11:07Z</time></trkpt><trkpt lat="37.421420" lon="-6.828560"><ele>78.022</ele><time>2010-01-01T02:09:21Z</time></trkpt><trkpt lat="37.422520" lon="-6.828230"><ele>78.787</ele><time>2010-01-01T02:08:36Z</time></trkpt><trkpt lat="37.423950" lon="-6.827550"><ele>81.369</ele><time>2010-01-01T02:07:34Z</time></trkpt><trkpt lat="37.424640" lon="-6.827490"><ele>81.392</ele><time>2010-01-01T02:07:07Z</time></trkpt><trkpt lat="37.424860" lon="-6.827510"><ele>80.548</ele><time>2010-01-01T02:06:58Z</time></trkpt><trkpt lat="37.426990" lon="-6.828150"><ele>79.919</ele><time>2010-01-01T02:05:29Z</time></trkpt><trkpt lat="37.428320" lon="-6.828110"><ele>81.847</ele><time>2010-01-01T02:04:36Z</time></trkpt><trkpt lat="37.430240" lon="-6.827960"><ele>80.929</ele><time>2010-01-01T02:03:19Z</time></trkpt><trkpt lat="37.430940" lon="-6.828100"><ele>83.921</ele><time>2010-01-01T02:02:50Z</time></trkpt><trkpt lat="37.431480" lon="-6.828400"><ele>89.009</ele><time>2010-01-01T02:02:27Z</time></trkpt><trkpt lat="37.431880" lon="-6.828790"><ele>88.995</ele><time>2010-01-01T02:02:06Z</time></trkpt><trkpt lat="37.433890" lon="-6.831490"><ele>101.085</ele><time>2010-01-01T02:00:09Z</time></trkpt><trkpt lat="37.434970" lon="-6.832550"><ele>99.582</ele><time>2010-01-01T01:59:14Z</time></trkpt><trkpt lat="37.436710" lon="-6.834790"><ele>109.321</ele><time>2010-01-01T01:57:34Z</time></trkpt><trkpt lat="37.438780" lon="-6.836110"><ele>113.646</ele><time>2010-01-01T01:56:01Z</time></trkpt><trkpt lat="37.440250" lon="-6.836660"><ele>116.038</ele><time>2010-01-01T01:55:00Z</time></trkpt><trkpt lat="37.440680" lon="-6.836910"><ele>114.981</ele><time>2010-01-01T01:54:41Z</time></trkpt><trkpt lat="37.441420" lon="-6.837790"><ele>117.047</ele><time>2010-01-01T01:53:59Z</time></trkpt><trkpt lat="37.441890" lon="-6.838480"><ele>118.468</ele><time>2010-01-01T01:53:31Z</time></trkpt><trkpt lat="37.442660" lon="-6.839170"><ele>118.085</ele><time>2010-01-01T01:52:53Z</time></trkpt><trkpt lat="37.445150" lon="-6.840010"><ele>125.089</ele><time>2010-01-01T01:51:09Z</time></trkpt><trkpt lat="37.447250" lon="-6.841160"><ele>131.117</ele><time>2010-01-01T01:49:37Z</time></trkpt><trkpt lat="37.447620" lon="-6.841270"><ele>131.809</ele><time>2010-01-01T01:49:22Z</time></trkpt><trkpt lat="37.448900" lon="-6.841600"><ele>133.789</ele><time>2010-01-01T01:48:30Z</time></trkpt><trkpt lat="37.453910" lon="-6.842770"><ele>130.249</ele><time>2010-01-01T01:45:06Z</time></trkpt><trkpt lat="37.454720" lon="-6.842770"><ele>134.186</ele><time>2010-01-01T01:44:33Z</time></trkpt><trkpt lat="37.454950" lon="-6.842710"><ele>133.735</ele><time>2010-01-01T01:44:24Z</time></trkpt><trkpt lat="37.456580" lon="-6.842100"><ele>132.470</ele><time>2010-01-01T01:43:16Z</time></trkpt><trkpt lat="37.457490" lon="-6.841980"><ele>128.532</ele><time>2010-01-01T01:42:39Z</time></trkpt><trkpt lat="37.460180" lon="-6.842080"><ele>129.265</ele><time>2010-01-01T01:40:51Z</time></trkpt><trkpt lat="37.460720" lon="-6.842230"><ele>130.111</ele><time>2010-01-01T01:40:29Z</time></trkpt><trkpt lat="37.461480" lon="-6.842820"><ele>135.422</ele><time>2010-01-01T01:39:53Z</time></trkpt><trkpt lat="37.463500" lon="-6.844710"><ele>136.047</ele><time>2010-01-01T01:38:13Z</time></trkpt><trkpt lat="37.465300" lon="-6.845860"><ele>143.129</ele><time>2010-01-01T01:36:52Z</time></trkpt><trkpt lat="37.465980" lon="-6.846060"><ele>141.021</ele><time>2010-01-01T01:36:24Z</time></trkpt><trkpt lat="37.468200" lon="-6.846140"><ele>149.509</ele><time>2010-01-01T01:34:54Z</time></trkpt><trkpt lat="37.469130" lon="-6.845750"><ele>154.855</ele><time>2010-01-01T01:34:15Z</time></trkpt><trkpt lat="37.470600" lon="-6.845110"><ele>164.215</ele><time>2010-01-01T01:33:13Z</time></trkpt><trkpt lat="37.471230" lon="-6.844760"><ele>166.032</ele><time>2010-01-01T01:32:45Z</time></trkpt><trkpt lat="37.471850" lon="-6.844130"><ele>169.191</ele><time>2010-01-01T01:32:13Z</time></trkpt><trkpt lat="37.473270" lon="-6.841960"><ele>163.856</ele><time>2010-01-01T01:30:44Z</time></trkpt><trkpt lat="37.475070" lon="-6.840410"><ele>162.898</ele><time>2010-01-01T01:29:17Z</time></trkpt><trkpt lat="37.475640" lon="-6.840090"><ele>165.281</ele><time>2010-01-01T01:28:51Z</time></trkpt><trkpt lat="37.476300" lon="-6.840030"><ele>164.427</ele><time>2010-01-01T01:28:25Z</time></trkpt><trkpt lat="37.477620" lon="-6.840340"><ele>167.138</ele><time>2010-01-01T01:27:31Z</time></trkpt><trkpt lat="37.480800" lon="-6.840580"><ele>173.981</ele><time>2010-01-01T01:25:24Z</time></trkpt><trkpt lat="37.481270" lon="-6.840700"><ele>175.061</ele><time>2010-01-01T01:25:04Z</time></trkpt><trkpt lat="37.482440" lon="-6.841130"><ele>177.917</ele><time>2010-01-01T01:24:15Z</time></trkpt><trkpt lat="37.486730" lon="-6.841030"><ele>186.209</ele><time>2010-01-01T01:21:23Z</time></trkpt><trkpt lat="37.487120" lon="-6.840930"><ele>187.099</ele><time>2010-01-01T01:21:08Z</time></trkpt><trkpt lat="37.488360" lon="-6.840920"><ele>190.299</ele><time>2010-01-01T01:20:18Z</time></trkpt><trkpt lat="37.489370" lon="-6.840960"><ele>189.366</ele><time>2010-01-01T01:19:37Z</time></trkpt><trkpt lat="37.492140" lon="-6.840580"><ele>191.985</ele><time>2010-01-01T01:17:46Z</time></trkpt><trkpt lat="37.494380" lon="-6.839790"><ele>200.810</ele><time>2010-01-01T01:16:12Z</time></trkpt><trkpt lat="37.495270" lon="-6.839130"><ele>206.192</ele><time>2010-01-01T01:15:31Z</time></trkpt><trkpt lat="37.496100" lon="-6.838160"><ele>198.165</ele><time>2010-01-01T01:14:46Z</time></trkpt><trkpt lat="37.496580" lon="-6.837410"><ele>197.271</ele><time>2010-01-01T01:14:15Z</time></trkpt><trkpt lat="37.497450" lon="-6.835260"><ele>199.862</ele><time>2010-01-01T01:12:58Z</time></trkpt><trkpt lat="37.497940" lon="-6.834450"><ele>200.217</ele><time>2010-01-01T01:12:26Z</time></trkpt><trkpt lat="37.498340" lon="-6.834050"><ele>200.687</ele><time>2010-01-01T01:12:05Z</time></trkpt><trkpt lat="37.499370" lon="-6.833540"><ele>202.715</ele><time>2010-01-01T01:11:21Z</time></trkpt><trkpt lat="37.501620" lon="-6.833580"><ele>209.609</ele><time>2010-01-01T01:09:51Z</time></trkpt><trkpt lat="37.501950" lon="-6.833590"><ele>209.942</ele><time>2010-01-01T01:09:37Z</time></trkpt><trkpt lat="37.502910" lon="-6.833230"><ele>212.022</ele><time>2010-01-01T01:08:57Z</time></trkpt><trkpt lat="37.502980" lon="-6.833190"><ele>212.099</ele><time>2010-01-01T01:08:54Z</time></trkpt><trkpt lat="37.503470" lon="-6.832710"><ele>209.648</ele><time>2010-01-01T01:08:29Z</time></trkpt><trkpt lat="37.505780" lon="-6.828860"><ele>207.413</ele><time>2010-01-01T01:05:56Z</time></trkpt><trkpt lat="37.506170" lon="-6.827780"><ele>208.825</ele><time>2010-01-01T01:05:18Z</time></trkpt><trkpt lat="37.506260" lon="-6.826580"><ele>212.088</ele><time>2010-01-01T01:04:39Z</time></trkpt><trkpt lat="37.506180" lon="-6.823820"><ele>214.514</ele><time>2010-01-01T01:03:12Z</time></trkpt><trkpt lat="37.506640" lon="-6.819650"><ele>214.075</ele><time>2010-01-01T01:00:58Z</time></trkpt><trkpt lat="37.506620" lon="-6.819290"><ele>212.939</ele><time>2010-01-01T01:00:46Z</time></trkpt><trkpt lat="37.506350" lon="-6.817640"><ele>210.101</ele><time>2010-01-01T00:59:53Z</time></trkpt><trkpt lat="37.506400" lon="-6.816580"><ele>211.321</ele><time>2010-01-01T00:59:19Z</time></trkpt><trkpt lat="37.506730" lon="-6.815580"><ele>212.509</ele><time>2010-01-01T00:58:45Z</time></trkpt><trkpt lat="37.507430" lon="-6.814630"><ele>215.074</ele><time>2010-01-01T00:58:03Z</time></trkpt><trkpt lat="37.508980" lon="-6.812690"><ele>214.464</ele><time>2010-01-01T00:56:36Z</time></trkpt><trkpt lat="37.509300" lon="-6.811680"><ele>214.591</ele><time>2010-01-01T00:56:01Z</time></trkpt><trkpt lat="37.509640" lon="-6.807800"><ele>222.130</ele><time>2010-01-01T00:53:57Z</time></trkpt><trkpt lat="37.511190" lon="-6.802850"><ele>224.245</ele><time>2010-01-01T00:51:07Z</time></trkpt><trkpt lat="37.511710" lon="-6.801260"><ele>222.757</ele><time>2010-01-01T00:50:13Z</time></trkpt><trkpt lat="37.512370" lon="-6.800110"><ele>218.260</ele><time>2010-01-01T00:49:28Z</time></trkpt><trkpt lat="37.512790" lon="-6.799620"><ele>216.636</ele><time>2010-01-01T00:49:05Z</time></trkpt><trkpt lat="37.514200" lon="-6.798650"><ele>217.187</ele><time>2010-01-01T00:48:00Z</time></trkpt><trkpt lat="37.518310" lon="-6.796870"><ele>229.497</ele><time>2010-01-01T00:45:06Z</time></trkpt><trkpt lat="37.519010" lon="-6.796590"><ele>228.423</ele><time>2010-01-01T00:44:37Z</time></trkpt><trkpt lat="37.523550" lon="-6.795910"><ele>241.025</ele><time>2010-01-01T00:41:34Z</time></trkpt><trkpt lat="37.523600" lon="-6.795620"><ele>244.209</ele><time>2010-01-01T00:41:24Z</time></trkpt><trkpt lat="37.524150" lon="-6.795510"><ele>252.330</ele><time>2010-01-01T00:41:00Z</time></trkpt><trkpt lat="37.525050" lon="-6.795600"><ele>250.260</ele><time>2010-01-01T00:40:22Z</time></trkpt><trkpt lat="37.525470" lon="-6.795480"><ele>250.077</ele><time>2010-01-01T00:40:05Z</time></trkpt><trkpt lat="37.527330" lon="-6.793670"><ele>259.896</ele><time>2010-01-01T00:38:30Z</time></trkpt><trkpt lat="37.527120" lon="-6.793450"><ele>261.211</ele><time>2010-01-01T00:38:19Z</time></trkpt><trkpt lat="37.527290" lon="-6.792860"><ele>264.423</ele><time>2010-01-01T00:37:58Z</time></trkpt><trkpt lat="37.527390" lon="-6.792770"><ele>264.556</ele><time>2010-01-01T00:37:52Z</time></trkpt><trkpt lat="37.528350" lon="-6.793440"><ele>255.022</ele><time>2010-01-01T00:37:08Z</time></trkpt><trkpt lat="37.528820" lon="-6.793100"><ele>261.283</ele><time>2010-01-01T00:36:46Z</time></trkpt><trkpt lat="37.529680" lon="-6.792700"><ele>265.442</ele><time>2010-01-01T00:36:09Z</time></trkpt><trkpt lat="37.530810" lon="-6.792230"><ele>266.022</ele><time>2010-01-01T00:35:21Z</time></trkpt><trkpt lat="37.531330" lon="-6.791850"><ele>269.414</ele><time>2010-01-01T00:34:57Z</time></trkpt><trkpt lat="37.533360" lon="-6.789490"><ele>268.909</ele><time>2010-01-01T00:33:06Z</time></trkpt><trkpt lat="37.534120" lon="-6.787890"><ele>271.295</ele><time>2010-01-01T00:32:07Z</time></trkpt><trkpt lat="37.534500" lon="-6.786930"><ele>271.975</ele><time>2010-01-01T00:31:33Z</time></trkpt><trkpt lat="37.534820" lon="-6.786450"><ele>268.122</ele><time>2010-01-01T00:31:13Z</time></trkpt><trkpt lat="37.535740" lon="-6.785620"><ele>264.281</ele><time>2010-01-01T00:30:27Z</time></trkpt><trkpt lat="37.536850" lon="-6.784560"><ele>265.796</ele><time>2010-01-01T00:29:31Z</time></trkpt><trkpt lat="37.537800" lon="-6.783310"><ele>265.878</ele><time>2010-01-01T00:28:36Z</time></trkpt><trkpt lat="37.538280" lon="-6.782920"><ele>265.331</ele><time>2010-01-01T00:28:13Z</time></trkpt><trkpt lat="37.538960" lon="-6.782510"><ele>263.857</ele><time>2010-01-01T00:27:43Z</time></trkpt><trkpt lat="37.540330" lon="-6.782180"><ele>264.038</ele><time>2010-01-01T00:26:47Z</time></trkpt><trkpt lat="37.540620" lon="-6.782240"><ele>264.194</ele><time>2010-01-01T00:26:35Z</time></trkpt><trkpt lat="37.541220" lon="-6.782350"><ele>266.157</ele><time>2010-01-01T00:26:11Z</time></trkpt><trkpt lat="37.541410" lon="-6.782370"><ele>266.622</ele><time>2010-01-01T00:26:03Z</time></trkpt><trkpt lat="37.541620" lon="-6.782350"><ele>267.409</ele><time>2010-01-01T00:25:55Z</time></trkpt><trkpt lat="37.543620" lon="-6.781670"><ele>268.010</ele><time>2010-01-01T00:24:32Z</time></trkpt><trkpt lat="37.544270" lon="-6.781170"><ele>269.740</ele><time>2010-01-01T00:24:01Z</time></trkpt><trkpt lat="37.548160" lon="-6.774310"><ele>274.857</ele><time>2010-01-01T00:19:33Z</time></trkpt><trkpt lat="37.548340" lon="-6.773810"><ele>274.346</ele><time>2010-01-01T00:19:16Z</time></trkpt><trkpt lat="37.548710" lon="-6.770860"><ele>273.381</ele><time>2010-01-01T00:17:41Z</time></trkpt><trkpt lat="37.551390" lon="-6.764440"><ele>283.063</ele><time>2010-01-01T00:13:50Z</time></trkpt><trkpt lat="37.552000" lon="-6.763760"><ele>283.366</ele><time>2010-01-01T00:13:17Z</time></trkpt><trkpt lat="37.554730" lon="-6.762580"><ele>286.172</ele><time>2010-01-01T00:11:22Z</time></trkpt><trkpt lat="37.557620" lon="-6.760600"><ele>281.593</ele><time>2010-01-01T00:09:10Z</time></trkpt><trkpt lat="37.558030" lon="-6.760140"><ele>278.349</ele><time>2010-01-01T00:08:48Z</time></trkpt><trkpt lat="37.561450" lon="-6.754120"><ele>284.902</ele><time>2010-01-01T00:04:53Z</time></trkpt><trkpt lat="37.562260" lon="-6.753370"><ele>283.822</ele><time>2010-01-01T00:04:12Z</time></trkpt><trkpt lat="37.572040" lon="-6.749690"><ele>261.909</ele><time>2010-01-01T03:32:23Z</time></trkpt><trkpt lat="37.574510" lon="-6.749770"><ele>265.365</ele><time>2010-01-01T03:30:41Z</time></trkpt><trkpt lat="37.574960" lon="-6.749800"><ele>264.475</ele><time>2010-01-01T03:30:23Z</time></trkpt><trkpt lat="37.577380" lon="-6.750060"><ele>268.992</ele><time>2010-01-01T03:28:46Z</time></trkpt><trkpt lat="37.582080" lon="-6.751140"><ele>284.971</ele><time>2010-01-01T03:25:33Z</time></trkpt><trkpt lat="37.582580" lon="-6.751070"><ele>288.026</ele><time>2010-01-01T03:25:13Z</time></trkpt><trkpt lat="37.583120" lon="-6.750650"><ele>285.278</ele><time>2010-01-01T03:24:48Z</time></trkpt><trkpt lat="37.583310" lon="-6.750350"><ele>282.761</ele><time>2010-01-01T03:24:35Z</time></trkpt><trkpt lat="37.584970" lon="-6.746750"><ele>282.547</ele><time>2010-01-01T03:22:23Z</time></trkpt><trkpt lat="37.586560" lon="-6.742870"><ele>278.848</ele><time>2010-01-01T03:20:05Z</time></trkpt><trkpt lat="37.587700" lon="-6.740930"><ele>282.868</ele><time>2010-01-01T03:18:48Z</time></trkpt><trkpt lat="37.588390" lon="-6.740280"><ele>277.242</ele><time>2010-01-01T03:18:13Z</time></trkpt><trkpt lat="37.590260" lon="-6.739910"><ele>279.126</ele><time>2010-01-01T03:16:57Z</time></trkpt><trkpt lat="37.590380" lon="-6.739920"><ele>278.309</ele><time>2010-01-01T03:16:52Z</time></trkpt><trkpt lat="37.591060" lon="-6.740310"><ele>278.397</ele><time>2010-01-01T03:16:22Z</time></trkpt><trkpt lat="37.591390" lon="-6.740820"><ele>279.017</ele><time>2010-01-01T03:16:01Z</time></trkpt><trkpt lat="37.591990" lon="-6.742370"><ele>275.334</ele><time>2010-01-01T03:15:06Z</time></trkpt><trkpt lat="37.592490" lon="-6.742940"><ele>271.153</ele><time>2010-01-01T03:14:39Z</time></trkpt><trkpt lat="37.592630" lon="-6.743030"><ele>269.668</ele><time>2010-01-01T03:14:33Z</time></trkpt><trkpt lat="37.592890" lon="-6.743130"><ele>267.450</ele><time>2010-01-01T03:14:22Z</time></trkpt><trkpt lat="37.593770" lon="-6.742970"><ele>269.913</ele><time>2010-01-01T03:13:45Z</time></trkpt><trkpt lat="37.596020" lon="-6.741490"><ele>265.039</ele><time>2010-01-01T03:12:04Z</time></trkpt><trkpt lat="37.597290" lon="-6.740630"><ele>265.220</ele><time>2010-01-01T03:11:06Z</time></trkpt><trkpt lat="37.601560" lon="-6.736250"><ele>275.328</ele><time>2010-01-01T03:07:26Z</time></trkpt><trkpt lat="37.602490" lon="-6.735900"><ele>275.289</ele><time>2010-01-01T03:06:46Z</time></trkpt><trkpt lat="37.602640" lon="-6.735900"><ele>274.917</ele><time>2010-01-01T03:06:40Z</time></trkpt><trkpt lat="37.603460" lon="-6.736220"><ele>280.509</ele><time>2010-01-01T03:06:05Z</time></trkpt><trkpt lat="37.603990" lon="-6.736850"><ele>288.233</ele><time>2010-01-01T03:05:36Z</time></trkpt><trkpt lat="37.604320" lon="-6.737120"><ele>284.873</ele><time>2010-01-01T03:05:20Z</time></trkpt><trkpt lat="37.604440" lon="-6.737200"><ele>282.890</ele><time>2010-01-01T03:05:15Z</time></trkpt><trkpt lat="37.607000" lon="-6.737170"><ele>289.869</ele><time>2010-01-01T03:03:32Z</time></trkpt><trkpt lat="37.607700" lon="-6.737570"><ele>297.214</ele><time>2010-01-01T03:03:01Z</time></trkpt><trkpt lat="37.608640" lon="-6.737800"><ele>294.066</ele><time>2010-01-01T03:02:22Z</time></trkpt><trkpt lat="37.609340" lon="-6.737410"><ele>302.679</ele><time>2010-01-01T03:01:51Z</time></trkpt><trkpt lat="37.609440" lon="-6.737290"><ele>302.585</ele><time>2010-01-01T03:01:46Z</time></trkpt><trkpt lat="37.610920" lon="-6.734310"><ele>314.676</ele><time>2010-01-01T02:59:54Z</time></trkpt><trkpt lat="37.611870" lon="-6.734030"><ele>321.155</ele><time>2010-01-01T02:59:14Z</time></trkpt><trkpt lat="37.612080" lon="-6.734050"><ele>322.107</ele><time>2010-01-01T02:59:06Z</time></trkpt><trkpt lat="37.613350" lon="-6.733670"><ele>323.117</ele><time>2010-01-01T02:58:13Z</time></trkpt><trkpt lat="37.613910" lon="-6.733480"><ele>312.909</ele><time>2010-01-01T02:57:49Z</time></trkpt><trkpt lat="37.614120" lon="-6.732960"><ele>312.416</ele><time>2010-01-01T02:57:31Z</time></trkpt><trkpt lat="37.613950" lon="-6.733490"><ele>312.776</ele><time>2010-01-01T02:57:10Z</time></trkpt><trkpt lat="37.614320" lon="-6.733360"><ele>311.433</ele><time>2010-01-01T02:56:54Z</time></trkpt><trkpt lat="37.614400" lon="-6.732960"><ele>311.262</ele><time>2010-01-01T02:56:40Z</time></trkpt><trkpt lat="37.617090" lon="-6.728800"><ele>330.697</ele><time>2010-01-01T02:53:50Z</time></trkpt><trkpt lat="37.622010" lon="-6.717860"><ele>360.049</ele><time>2010-01-01T02:47:11Z</time></trkpt><trkpt lat="37.622250" lon="-6.716140"><ele>361.862</ele><time>2010-01-01T02:46:15Z</time></trkpt><trkpt lat="37.621800" lon="-6.712380"><ele>371.218</ele><time>2010-01-01T02:44:15Z</time></trkpt><trkpt lat="37.621760" lon="-6.711680"><ele>373.019</ele><time>2010-01-01T02:43:52Z</time></trkpt><trkpt lat="37.622470" lon="-6.701240"><ele>363.885</ele><time>2010-01-01T02:38:20Z</time></trkpt><trkpt lat="37.622340" lon="-6.700180"><ele>364.189</ele><time>2010-01-01T02:37:46Z</time></trkpt><trkpt lat="37.620980" lon="-6.696740"><ele>361.617</ele><time>2010-01-01T02:35:44Z</time></trkpt><trkpt lat="37.618990" lon="-6.691750"><ele>345.609</ele><time>2010-01-01T02:32:47Z</time></trkpt><trkpt lat="37.618700" lon="-6.691760"><ele>345.079</ele><time>2010-01-01T02:32:35Z</time></trkpt><trkpt lat="37.618700" lon="-6.691100"><ele>344.339</ele><time>2010-01-01T02:32:14Z</time></trkpt><trkpt lat="37.618550" lon="-6.691000"><ele>344.156</ele><time>2010-01-01T02:32:06Z</time></trkpt><trkpt lat="37.616760" lon="-6.686230"><ele>354.745</ele><time>2010-01-01T02:29:19Z</time></trkpt><trkpt lat="37.616630" lon="-6.686000"><ele>355.420</ele><time>2010-01-01T02:29:10Z</time></trkpt><trkpt lat="37.616610" lon="-6.686010"><ele>355.452</ele><time>2010-01-01T02:29:09Z</time></trkpt><trkpt lat="37.616220" lon="-6.685350"><ele>357.045</ele><time>2010-01-01T02:28:42Z</time></trkpt><trkpt lat="37.615890" lon="-6.684360"><ele>357.411</ele><time>2010-01-01T02:28:08Z</time></trkpt><trkpt lat="37.615780" lon="-6.683660"><ele>358.272</ele><time>2010-01-01T02:27:42Z</time></trkpt><trkpt lat="37.615820" lon="-6.683110"><ele>356.343</ele><time>2010-01-01T02:27:25Z</time></trkpt><trkpt lat="37.616030" lon="-6.682210"><ele>351.864</ele><time>2010-01-01T02:26:54Z</time></trkpt><trkpt lat="37.616640" lon="-6.680690"><ele>348.010</ele><time>2010-01-01T02:26:00Z</time></trkpt><trkpt lat="37.616720" lon="-6.679500"><ele>349.409</ele><time>2010-01-01T02:25:22Z</time></trkpt><trkpt lat="37.616640" lon="-6.678850"><ele>345.935</ele><time>2010-01-01T02:25:01Z</time></trkpt><trkpt lat="37.616220" lon="-6.677500"><ele>356.285</ele><time>2010-01-01T02:24:13Z</time></trkpt><trkpt lat="37.616110" lon="-6.676360"><ele>356.952</ele><time>2010-01-01T02:23:37Z</time></trkpt><trkpt lat="37.616680" lon="-6.670800"><ele>362.131</ele><time>2010-01-01T02:20:38Z</time></trkpt><trkpt lat="37.616710" lon="-6.670750"><ele>362.396</ele><time>2010-01-01T02:20:36Z</time></trkpt><trkpt lat="37.617120" lon="-6.668720"><ele>369.488</ele><time>2010-01-01T02:19:30Z</time></trkpt><trkpt lat="37.617730" lon="-6.667630"><ele>369.461</ele><time>2010-01-01T02:18:47Z</time></trkpt><trkpt lat="37.618240" lon="-6.667050"><ele>363.747</ele><time>2010-01-01T02:18:20Z</time></trkpt><trkpt lat="37.619520" lon="-6.666310"><ele>367.158</ele><time>2010-01-01T02:17:23Z</time></trkpt><trkpt lat="37.622670" lon="-6.665580"><ele>361.153</ele><time>2010-01-01T02:15:15Z</time></trkpt><trkpt lat="37.623120" lon="-6.665280"><ele>361.504</ele><time>2010-01-01T02:14:54Z</time></trkpt><trkpt lat="37.624360" lon="-6.663990"><ele>364.314</ele><time>2010-01-01T02:13:50Z</time></trkpt><trkpt lat="37.625730" lon="-6.662480"><ele>366.209</ele><time>2010-01-01T02:12:37Z</time></trkpt><trkpt lat="37.627930" lon="-6.661320"><ele>373.016</ele><time>2010-01-01T02:11:02Z</time></trkpt><trkpt lat="37.628390" lon="-6.661360"><ele>374.586</ele><time>2010-01-01T02:10:42Z</time></trkpt><trkpt lat="37.629350" lon="-6.661260"><ele>379.283</ele><time>2010-01-01T02:10:02Z</time></trkpt><trkpt lat="37.630860" lon="-6.660160"><ele>375.142</ele><time>2010-01-01T02:08:52Z</time></trkpt><trkpt lat="37.637610" lon="-6.656650"><ele>366.797</ele><time>2010-01-01T02:04:00Z</time></trkpt><trkpt lat="37.638740" lon="-6.656090"><ele>361.459</ele><time>2010-01-01T02:03:09Z</time></trkpt><trkpt lat="37.638650" lon="-6.656040"><ele>363.232</ele><time>2010-01-01T02:03:04Z</time></trkpt><trkpt lat="37.638490" lon="-6.656040"><ele>365.048</ele><time>2010-01-01T02:02:58Z</time></trkpt><trkpt lat="37.639440" lon="-6.655530"><ele>360.569</ele><time>2010-01-01T02:02:17Z</time></trkpt><trkpt lat="37.640090" lon="-6.654840"><ele>364.217</ele><time>2010-01-01T02:01:42Z</time></trkpt><trkpt lat="37.640630" lon="-6.653770"><ele>361.087</ele><time>2010-01-01T02:01:02Z</time></trkpt><trkpt lat="37.640920" lon="-6.652770"><ele>356.615</ele><time>2010-01-01T02:00:28Z</time></trkpt><trkpt lat="37.641280" lon="-6.652080"><ele>353.409</ele><time>2010-01-01T02:00:02Z</time></trkpt><trkpt lat="37.642320" lon="-6.651110"><ele>350.342</ele><time>2010-01-01T01:59:10Z</time></trkpt><trkpt lat="37.642660" lon="-6.650940"><ele>347.322</ele><time>2010-01-01T01:58:55Z</time></trkpt><trkpt lat="37.642620" lon="-6.650870"><ele>347.789</ele><time>2010-01-01T01:58:52Z</time></trkpt><trkpt lat="37.642410" lon="-6.650780"><ele>349.598</ele><time>2010-01-01T01:58:43Z</time></trkpt><trkpt lat="37.642360" lon="-6.650450"><ele>349.163</ele><time>2010-01-01T01:58:31Z</time></trkpt><trkpt lat="37.642580" lon="-6.649850"><ele>345.895</ele><time>2010-01-01T01:58:10Z</time></trkpt><trkpt lat="37.643070" lon="-6.650270"><ele>342.098</ele><time>2010-01-01T01:57:46Z</time></trkpt><trkpt lat="37.643250" lon="-6.650590"><ele>343.184</ele><time>2010-01-01T01:57:34Z</time></trkpt><trkpt lat="37.643590" lon="-6.650670"><ele>344.025</ele><time>2010-01-01T01:57:20Z</time></trkpt><trkpt lat="37.646930" lon="-6.649920"><ele>356.457</ele><time>2010-01-01T01:55:04Z</time></trkpt><trkpt lat="37.647100" lon="-6.649950"><ele>356.000</ele><time>2010-01-01T01:54:57Z</time></trkpt><trkpt lat="37.647870" lon="-6.650210"><ele>352.320</ele><time>2010-01-01T01:54:25Z</time></trkpt><trkpt lat="37.651460" lon="-6.652280"><ele>369.109</ele><time>2010-01-01T01:51:47Z</time></trkpt><trkpt lat="37.653050" lon="-6.653170"><ele>367.126</ele><time>2010-01-01T01:50:38Z</time></trkpt><trkpt lat="37.653520" lon="-6.653620"><ele>368.346</ele><time>2010-01-01T01:50:14Z</time></trkpt><trkpt lat="37.655030" lon="-6.655840"><ele>378.123</ele><time>2010-01-01T01:48:41Z</time></trkpt><trkpt lat="37.655830" lon="-6.656540"><ele>381.492</ele><time>2010-01-01T01:48:02Z</time></trkpt><trkpt lat="37.656500" lon="-6.656780"><ele>378.667</ele><time>2010-01-01T01:47:34Z</time></trkpt><trkpt lat="37.657420" lon="-6.656780"><ele>372.659</ele><time>2010-01-01T01:46:57Z</time></trkpt><trkpt lat="37.657820" lon="-6.656640"><ele>368.642</ele><time>2010-01-01T01:46:40Z</time></trkpt><trkpt lat="37.658370" lon="-6.656280"><ele>366.018</ele><time>2010-01-01T01:46:15Z</time></trkpt><trkpt lat="37.661820" lon="-6.653020"><ele>367.189</ele><time>2010-01-01T01:43:23Z</time></trkpt><trkpt lat="37.662540" lon="-6.652070"><ele>367.478</ele><time>2010-01-01T01:42:41Z</time></trkpt><trkpt lat="37.663120" lon="-6.651440"><ele>369.933</ele><time>2010-01-01T01:42:11Z</time></trkpt><trkpt lat="37.664340" lon="-6.650610"><ele>374.826</ele><time>2010-01-01T01:41:15Z</time></trkpt><trkpt lat="37.665650" lon="-6.649470"><ele>383.309</ele><time>2010-01-01T01:40:11Z</time></trkpt><trkpt lat="37.666510" lon="-6.648340"><ele>388.378</ele><time>2010-01-01T01:39:22Z</time></trkpt><trkpt lat="37.666880" lon="-6.647460"><ele>387.558</ele><time>2010-01-01T01:38:50Z</time></trkpt><trkpt lat="37.669520" lon="-6.642040"><ele>390.995</ele><time>2010-01-01T01:35:28Z</time></trkpt><trkpt lat="37.670170" lon="-6.640350"><ele>396.894</ele><time>2010-01-01T01:34:28Z</time></trkpt><trkpt lat="37.670320" lon="-6.640100"><ele>394.339</ele><time>2010-01-01T01:34:18Z</time></trkpt><trkpt lat="37.671220" lon="-6.639390"><ele>392.661</ele><time>2010-01-01T01:33:35Z</time></trkpt><trkpt lat="37.671890" lon="-6.639340"><ele>390.054</ele><time>2010-01-01T01:33:08Z</time></trkpt><trkpt lat="37.672640" lon="-6.639660"><ele>387.770</ele><time>2010-01-01T01:32:37Z</time></trkpt><trkpt lat="37.673460" lon="-6.640220"><ele>385.741</ele><time>2010-01-01T01:31:59Z</time></trkpt><trkpt lat="37.673930" lon="-6.640690"><ele>386.682</ele><time>2010-01-01T01:31:35Z</time></trkpt><trkpt lat="37.674360" lon="-6.641770"><ele>390.343</ele><time>2010-01-01T01:30:56Z</time></trkpt><trkpt lat="37.674510" lon="-6.643460"><ele>389.417</ele><time>2010-01-01T01:30:02Z</time></trkpt><trkpt lat="37.674790" lon="-6.644050"><ele>385.609</ele><time>2010-01-01T01:29:40Z</time></trkpt><trkpt lat="37.676530" lon="-6.646500"><ele>388.669</ele><time>2010-01-01T01:27:56Z</time></trkpt><trkpt lat="37.677890" lon="-6.647960"><ele>390.779</ele><time>2010-01-01T01:26:45Z</time></trkpt><trkpt lat="37.677990" lon="-6.648090"><ele>392.036</ele><time>2010-01-01T01:26:38Z</time></trkpt><trkpt lat="37.679750" lon="-6.649630"><ele>395.165</ele><time>2010-01-01T01:25:12Z</time></trkpt><trkpt lat="37.679900" lon="-6.649720"><ele>395.040</ele><time>2010-01-01T01:25:06Z</time></trkpt><trkpt lat="37.681070" lon="-6.649870"><ele>392.892</ele><time>2010-01-01T01:24:18Z</time></trkpt><trkpt lat="37.681980" lon="-6.649280"><ele>394.285</ele><time>2010-01-01T01:23:37Z</time></trkpt><trkpt lat="37.682120" lon="-6.649140"><ele>393.211</ele><time>2010-01-01T01:23:29Z</time></trkpt><trkpt lat="37.682500" lon="-6.647930"><ele>395.032</ele><time>2010-01-01T01:22:47Z</time></trkpt><trkpt lat="37.682530" lon="-6.646710"><ele>401.089</ele><time>2010-01-01T01:22:08Z</time></trkpt><trkpt lat="37.682980" lon="-6.644060"><ele>397.506</ele><time>2010-01-01T01:20:42Z</time></trkpt><trkpt lat="37.683250" lon="-6.643410"><ele>401.326</ele><time>2010-01-01T01:20:19Z</time></trkpt><trkpt lat="37.687630" lon="-6.639230"><ele>412.409</ele><time>2010-01-01T01:16:39Z</time></trkpt><trkpt lat="37.688190" lon="-6.638320"><ele>414.679</ele><time>2010-01-01T01:16:03Z</time></trkpt><trkpt lat="37.688650" lon="-6.638020"><ele>416.119</ele><time>2010-01-01T01:15:42Z</time></trkpt><trkpt lat="37.689750" lon="-6.637510"><ele>416.486</ele><time>2010-01-01T01:14:54Z</time></trkpt><trkpt lat="37.690820" lon="-6.635160"><ele>415.585</ele><time>2010-01-01T01:13:28Z</time></trkpt><trkpt lat="37.691300" lon="-6.634650"><ele>419.850</ele><time>2010-01-01T01:13:03Z</time></trkpt><trkpt lat="37.691370" lon="-6.634570"><ele>419.632</ele><time>2010-01-01T01:12:59Z</time></trkpt><trkpt lat="37.691470" lon="-6.634350"><ele>418.745</ele><time>2010-01-01T01:12:51Z</time></trkpt><trkpt lat="37.691370" lon="-6.632720"><ele>415.261</ele><time>2010-01-01T01:11:59Z</time></trkpt><trkpt lat="37.691300" lon="-6.632420"><ele>415.562</ele><time>2010-01-01T01:11:49Z</time></trkpt><trkpt lat="37.691700" lon="-6.631510"><ele>419.063</ele><time>2010-01-01T01:11:16Z</time></trkpt><trkpt lat="37.691720" lon="-6.630790"><ele>419.144</ele><time>2010-01-01T01:10:53Z</time></trkpt><trkpt lat="37.691070" lon="-6.629600"><ele>418.918</ele><time>2010-01-01T01:10:06Z</time></trkpt><trkpt lat="37.690970" lon="-6.628690"><ele>425.609</ele><time>2010-01-01T01:09:37Z</time></trkpt><trkpt lat="37.691100" lon="-6.627180"><ele>419.987</ele><time>2010-01-01T01:08:49Z</time></trkpt><trkpt lat="37.691390" lon="-6.625820"><ele>430.277</ele><time>2010-01-01T01:08:03Z</time></trkpt><trkpt lat="37.691240" lon="-6.625090"><ele>435.484</ele><time>2010-01-01T01:07:39Z</time></trkpt><trkpt lat="37.691250" lon="-6.625020"><ele>435.963</ele><time>2010-01-01T01:07:37Z</time></trkpt><trkpt lat="37.691300" lon="-6.624880"><ele>436.418</ele><time>2010-01-01T01:07:32Z</time></trkpt><trkpt lat="37.691090" lon="-6.624710"><ele>435.320</ele><time>2010-01-01T01:07:22Z</time></trkpt><trkpt lat="37.690940" lon="-6.624240"><ele>437.693</ele><time>2010-01-01T01:07:06Z</time></trkpt><trkpt lat="37.690890" lon="-6.623450"><ele>436.699</ele><time>2010-01-01T01:06:40Z</time></trkpt><trkpt lat="37.690870" lon="-6.623020"><ele>434.920</ele><time>2010-01-01T01:06:26Z</time></trkpt><trkpt lat="37.691010" lon="-6.622690"><ele>433.876</ele><time>2010-01-01T01:06:14Z</time></trkpt><trkpt lat="37.691020" lon="-6.619920"><ele>426.490</ele><time>2010-01-01T01:04:46Z</time></trkpt><trkpt lat="37.690650" lon="-6.617900"><ele>426.319</ele><time>2010-01-01T01:03:40Z</time></trkpt><trkpt lat="37.690670" lon="-6.617640"><ele>424.609</ele><time>2010-01-01T01:03:32Z</time></trkpt><trkpt lat="37.691590" lon="-6.616350"><ele>430.598</ele><time>2010-01-01T01:02:36Z</time></trkpt><trkpt lat="37.692950" lon="-6.615370"><ele>425.818</ele><time>2010-01-01T01:01:33Z</time></trkpt><trkpt lat="37.693130" lon="-6.615010"><ele>429.365</ele><time>2010-01-01T01:01:20Z</time></trkpt><trkpt lat="37.693380" lon="-6.613920"><ele>432.684</ele><time>2010-01-01T01:00:44Z</time></trkpt><trkpt lat="37.693410" lon="-6.613710"><ele>431.339</ele><time>2010-01-01T01:00:37Z</time></trkpt><trkpt lat="37.693390" lon="-6.613140"><ele>431.711</ele><time>2010-01-01T01:00:19Z</time></trkpt><trkpt lat="37.693070" lon="-6.612270"><ele>428.054</ele><time>2010-01-01T00:59:48Z</time></trkpt><trkpt lat="37.693020" lon="-6.611450"><ele>430.260</ele><time>2010-01-01T00:59:22Z</time></trkpt><trkpt lat="37.693080" lon="-6.610280"><ele>428.391</ele><time>2010-01-01T00:58:45Z</time></trkpt><trkpt lat="37.692820" lon="-6.609630"><ele>428.084</ele><time>2010-01-01T00:58:22Z</time></trkpt><trkpt lat="37.692680" lon="-6.608440"><ele>429.407</ele><time>2010-01-01T00:57:43Z</time></trkpt><trkpt lat="37.692510" lon="-6.608050"><ele>430.217</ele><time>2010-01-01T00:57:29Z</time></trkpt><trkpt lat="37.692130" lon="-6.607580"><ele>428.909</ele><time>2010-01-01T00:57:08Z</time></trkpt><trkpt lat="37.691910" lon="-6.607020"><ele>429.899</ele><time>2010-01-01T00:56:48Z</time></trkpt><trkpt lat="37.691850" lon="-6.605940"><ele>430.319</ele><time>2010-01-01T00:56:13Z</time></trkpt><trkpt lat="37.691900" lon="-6.605170"><ele>429.186</ele><time>2010-01-01T00:55:49Z</time></trkpt><trkpt lat="37.692210" lon="-6.604510"><ele>430.195</ele><time>2010-01-01T00:55:24Z</time></trkpt><trkpt lat="37.692300" lon="-6.604440"><ele>430.030</ele><time>2010-01-01T00:55:20Z</time></trkpt><trkpt lat="37.693780" lon="-6.604120"><ele>429.912</ele><time>2010-01-01T00:54:19Z</time></trkpt><trkpt lat="37.694230" lon="-6.603870"><ele>431.115</ele><time>2010-01-01T00:54:00Z</time></trkpt><trkpt lat="37.694930" lon="-6.602760"><ele>430.321</ele><time>2010-01-01T00:53:15Z</time></trkpt><trkpt lat="37.696230" lon="-6.597900"><ele>425.072</ele><time>2010-01-01T00:50:30Z</time></trkpt><trkpt lat="37.696470" lon="-6.597410"><ele>424.439</ele><time>2010-01-01T00:50:11Z</time></trkpt><trkpt lat="37.696130" lon="-6.597020"><ele>423.101</ele><time>2010-01-01T00:49:53Z</time></trkpt><trkpt lat="37.696250" lon="-6.596740"><ele>424.021</ele><time>2010-01-01T00:49:43Z</time></trkpt><trkpt lat="37.696370" lon="-6.596290"><ele>423.609</ele><time>2010-01-01T00:49:28Z</time></trkpt><trkpt lat="37.696350" lon="-6.595670"><ele>421.944</ele><time>2010-01-01T00:49:08Z</time></trkpt><trkpt lat="37.695940" lon="-6.594120"><ele>421.534</ele><time>2010-01-01T00:48:16Z</time></trkpt><trkpt lat="37.695150" lon="-6.592030"><ele>421.811</ele><time>2010-01-01T00:47:03Z</time></trkpt><trkpt lat="37.694800" lon="-6.591400"><ele>419.940</ele><time>2010-01-01T00:46:38Z</time></trkpt><trkpt lat="37.694820" lon="-6.591380"><ele>420.185</ele><time>2010-01-01T00:46:37Z</time></trkpt><trkpt lat="37.694750" lon="-6.591130"><ele>419.327</ele><time>2010-01-01T00:46:26Z</time></trkpt><trkpt lat="37.693980" lon="-6.590140"><ele>415.670</ele><time>2010-01-01T00:45:41Z</time></trkpt><trkpt lat="37.693880" lon="-6.589540"><ele>416.556</ele><time>2010-01-01T00:45:21Z</time></trkpt><trkpt lat="37.692900" lon="-6.588650"><ele>411.837</ele><time>2010-01-01T00:44:33Z</time></trkpt><trkpt lat="37.692070" lon="-6.587530"><ele>407.342</ele><time>2010-01-01T00:43:44Z</time></trkpt><trkpt lat="37.692010" lon="-6.587490"><ele>406.822</ele><time>2010-01-01T00:43:41Z</time></trkpt><trkpt lat="37.688400" lon="-6.582570"><ele>393.714</ele><time>2010-01-01T00:40:09Z</time></trkpt><trkpt lat="37.688000" lon="-6.581780"><ele>394.809</ele><time>2010-01-01T00:39:39Z</time></trkpt><trkpt lat="37.687810" lon="-6.581220"><ele>389.495</ele><time>2010-01-01T00:39:20Z</time></trkpt><trkpt lat="37.687590" lon="-6.579810"><ele>391.295</ele><time>2010-01-01T00:38:34Z</time></trkpt><trkpt lat="37.687500" lon="-6.579460"><ele>391.122</ele><time>2010-01-01T00:38:20Z</time></trkpt><trkpt lat="37.686890" lon="-6.578860"><ele>401.371</ele><time>2010-01-01T00:37:49Z</time></trkpt><trkpt lat="37.687340" lon="-6.579540"><ele>393.826</ele><time>2010-01-01T00:37:20Z</time></trkpt><trkpt lat="37.687320" lon="-6.579920"><ele>392.848</ele><time>2010-01-01T00:37:08Z</time></trkpt><trkpt lat="37.687080" lon="-6.580550"><ele>394.021</ele><time>2010-01-01T00:36:46Z</time></trkpt><trkpt lat="37.686960" lon="-6.580500"><ele>395.827</ele><time>2010-01-01T00:36:41Z</time></trkpt><trkpt lat="37.686750" lon="-6.580310"><ele>398.218</ele><time>2010-01-01T00:36:30Z</time></trkpt><trkpt lat="37.686030" lon="-6.579340"><ele>399.671</ele><time>2010-01-01T00:35:48Z</time></trkpt><trkpt lat="37.685780" lon="-6.578850"><ele>391.441</ele><time>2010-01-01T00:35:29Z</time></trkpt><trkpt lat="37.685770" lon="-6.578760"><ele>390.515</ele><time>2010-01-01T00:35:26Z</time></trkpt><trkpt lat="37.685730" lon="-6.578390"><ele>389.209</ele><time>2010-01-01T00:35:14Z</time></trkpt><trkpt lat="37.685570" lon="-6.578170"><ele>387.138</ele><time>2010-01-01T00:35:05Z</time></trkpt><trkpt lat="37.684540" lon="-6.578100"><ele>376.638</ele><time>2010-01-01T00:34:23Z</time></trkpt><trkpt lat="37.684240" lon="-6.578220"><ele>374.825</ele><time>2010-01-01T00:34:11Z</time></trkpt><trkpt lat="37.684140" lon="-6.578270"><ele>372.774</ele><time>2010-01-01T00:34:06Z</time></trkpt><trkpt lat="37.683150" lon="-6.577840"><ele>368.029</ele><time>2010-01-01T00:33:24Z</time></trkpt><trkpt lat="37.682050" lon="-6.577540"><ele>361.051</ele><time>2010-01-01T00:32:39Z</time></trkpt><trkpt lat="37.681230" lon="-6.577140"><ele>356.224</ele><time>2010-01-01T00:32:04Z</time></trkpt><trkpt lat="37.680590" lon="-6.576860"><ele>347.950</ele><time>2010-01-01T00:31:36Z</time></trkpt><trkpt lat="37.680340" lon="-6.576610"><ele>345.811</ele><time>2010-01-01T00:31:24Z</time></trkpt><trkpt lat="37.680090" lon="-6.576150"><ele>342.555</ele><time>2010-01-01T00:31:06Z</time></trkpt><trkpt lat="37.680030" lon="-6.575650"><ele>343.307</ele><time>2010-01-01T00:30:50Z</time></trkpt><trkpt lat="37.680540" lon="-6.573160"><ele>359.217</ele><time>2010-01-01T00:29:28Z</time></trkpt><trkpt lat="37.679400" lon="-6.570360"><ele>353.109</ele><time>2010-01-01T00:27:48Z</time></trkpt><trkpt lat="37.679420" lon="-6.570130"><ele>353.186</ele><time>2010-01-01T00:27:41Z</time></trkpt><trkpt lat="37.680580" lon="-6.567870"><ele>342.496</ele><time>2010-01-01T00:26:15Z</time></trkpt><trkpt lat="37.681820" lon="-6.566190"><ele>340.133</ele><time>2010-01-01T00:25:02Z</time></trkpt><trkpt lat="37.682510" lon="-6.565410"><ele>339.242</ele><time>2010-01-01T00:24:25Z</time></trkpt><trkpt lat="37.682530" lon="-6.565180"><ele>337.257</ele><time>2010-01-01T00:24:18Z</time></trkpt><trkpt lat="37.682660" lon="-6.563520"><ele>335.699</ele><time>2010-01-01T00:23:25Z</time></trkpt><trkpt lat="37.683390" lon="-6.561810"><ele>335.282</ele><time>2010-01-01T00:22:22Z</time></trkpt><trkpt lat="37.683010" lon="-6.559680"><ele>326.648</ele><time>2010-01-01T00:21:13Z</time></trkpt><trkpt lat="37.683020" lon="-6.558940"><ele>329.179</ele><time>2010-01-01T00:20:49Z</time></trkpt><trkpt lat="37.683080" lon="-6.558700"><ele>328.335</ele><time>2010-01-01T00:20:41Z</time></trkpt><trkpt lat="37.684370" lon="-6.557550"><ele>327.486</ele><time>2010-01-01T00:19:38Z</time></trkpt><trkpt lat="37.684730" lon="-6.557500"><ele>330.714</ele><time>2010-01-01T00:19:23Z</time></trkpt><trkpt lat="37.686270" lon="-6.557810"><ele>326.809</ele><time>2010-01-01T00:18:20Z</time></trkpt><trkpt lat="37.686590" lon="-6.557870"><ele>320.414</ele><time>2010-01-01T00:18:07Z</time></trkpt><trkpt lat="37.687270" lon="-6.558240"><ele>318.944</ele><time>2010-01-01T00:17:37Z</time></trkpt><trkpt lat="37.687720" lon="-6.559080"><ele>318.281</ele><time>2010-01-01T00:17:05Z</time></trkpt><trkpt lat="37.687820" lon="-6.559470"><ele>317.950</ele><time>2010-01-01T00:16:52Z</time></trkpt><trkpt lat="37.688140" lon="-6.559890"><ele>313.865</ele><time>2010-01-01T00:16:33Z</time></trkpt><trkpt lat="37.688380" lon="-6.560090"><ele>309.587</ele><time>2010-01-01T00:16:22Z</time></trkpt><trkpt lat="37.688870" lon="-6.560940"><ele>311.670</ele><time>2010-01-01T00:15:48Z</time></trkpt><trkpt lat="37.689190" lon="-6.562110"><ele>312.946</ele><time>2010-01-01T00:15:09Z</time></trkpt><trkpt lat="37.690090" lon="-6.562080"><ele>313.087</ele><time>2010-01-01T00:14:30Z</time></trkpt><trkpt lat="37.690230" lon="-6.562230"><ele>315.153</ele><time>2010-01-01T00:14:23Z</time></trkpt><trkpt lat="37.690830" lon="-6.563320"><ele>320.204</ele><time>2010-01-01T00:13:40Z</time></trkpt><trkpt lat="37.691320" lon="-6.563680"><ele>325.714</ele><time>2010-01-01T00:13:18Z</time></trkpt><trkpt lat="37.691570" lon="-6.563770"><ele>324.509</ele><time>2010-01-01T00:13:07Z</time></trkpt><trkpt lat="37.692750" lon="-6.562870"><ele>328.136</ele><time>2010-01-01T00:12:12Z</time></trkpt><trkpt lat="37.693160" lon="-6.562390"><ele>327.726</ele><time>2010-01-01T00:11:49Z</time></trkpt><trkpt lat="37.693300" lon="-6.562180"><ele>325.063</ele><time>2010-01-01T00:11:41Z</time></trkpt><trkpt lat="37.693600" lon="-6.562430"><ele>325.832</ele><time>2010-01-01T00:11:26Z</time></trkpt><trkpt lat="37.696250" lon="-6.561990"><ele>324.577</ele><time>2010-01-01T00:09:39Z</time></trkpt><trkpt lat="37.698120" lon="-6.560810"><ele>325.999</ele><time>2010-01-01T00:08:15Z</time></trkpt><trkpt lat="37.698960" lon="-6.560480"><ele>326.322</ele><time>2010-01-01T00:07:40Z</time></trkpt><trkpt lat="37.699380" lon="-6.560150"><ele>327.648</ele><time>2010-01-01T00:07:20Z</time></trkpt><trkpt lat="37.699620" lon="-6.559820"><ele>330.199</ele><time>2010-01-01T00:07:06Z</time></trkpt><trkpt lat="37.699780" lon="-6.559350"><ele>331.163</ele><time>2010-01-01T00:06:49Z</time></trkpt><trkpt lat="37.699820" lon="-6.559010"><ele>328.244</ele><time>2010-01-01T00:06:39Z</time></trkpt><trkpt lat="37.699720" lon="-6.558060"><ele>325.018</ele><time>2010-01-01T00:06:08Z</time></trkpt><trkpt lat="37.698370" lon="-6.556220"><ele>324.709</ele><time>2010-01-01T00:04:48Z</time></trkpt><trkpt lat="37.698070" lon="-6.554550"><ele>326.127</ele><time>2010-01-01T00:03:53Z</time></trkpt><trkpt lat="37.697950" lon="-6.554440"><ele>325.757</ele><time>2010-01-01T00:03:47Z</time></trkpt><trkpt lat="37.698020" lon="-6.554260"><ele>327.224</ele><time>2010-01-01T00:03:41Z</time></trkpt><trkpt lat="37.698200" lon="-6.553580"><ele>328.133</ele><time>2010-01-01T00:03:18Z</time></trkpt><trkpt lat="37.698030" lon="-6.552790"><ele>328.928</ele><time>2010-01-01T00:02:52Z</time></trkpt><trkpt lat="37.696970" lon="-6.551000"><ele>335.390</ele><time>2010-01-01T00:01:41Z</time></trkpt><trkpt lat="37.696490" lon="-6.551050"><ele>337.643</ele><time>2010-01-01T00:01:21Z</time></trkpt><trkpt lat="37.696370" lon="-6.551170"><ele>337.819</ele><time>2010-01-01T00:01:14Z</time></trkpt><trkpt lat="37.695290" lon="-6.551250"><ele>334.030</ele><time>2010-01-01T00:00:31Z</time></trkpt><trkpt lat="37.695280" lon="-6.551020"><ele>334.372</ele><time>2010-01-01T00:00:24Z</time></trkpt><trkpt lat="37.695220" lon="-6.550440"><ele>337.113</ele><time>2010-01-01T00:00:05Z</time></trkpt><trkpt lat="37.695530" lon="-6.550200"><ele>337.014</ele><time>2010-01-01T03:23:55Z</time></trkpt><trkpt lat="37.695930" lon="-6.550220"><ele>336.009</ele><time>2010-01-01T03:23:39Z</time></trkpt><trkpt lat="37.696670" lon="-6.550070"><ele>336.078</ele><time>2010-01-01T03:23:09Z</time></trkpt><trkpt lat="37.697960" lon="-6.549690"><ele>337.128</ele><time>2010-01-01T03:22:16Z</time></trkpt><trkpt lat="37.698570" lon="-6.549090"><ele>338.345</ele><time>2010-01-01T03:21:45Z</time></trkpt><trkpt lat="37.699670" lon="-6.548660"><ele>340.794</ele><time>2010-01-01T03:20:59Z</time></trkpt><trkpt lat="37.701320" lon="-6.547880"><ele>348.279</ele><time>2010-01-01T03:19:48Z</time></trkpt><trkpt lat="37.701690" lon="-6.547720"><ele>347.631</ele><time>2010-01-01T03:19:32Z</time></trkpt><trkpt lat="37.705110" lon="-6.548420"><ele>370.194</ele><time>2010-01-01T03:17:13Z</time></trkpt><trkpt lat="37.705770" lon="-6.548940"><ele>368.710</ele><time>2010-01-01T03:16:42Z</time></trkpt><trkpt lat="37.705970" lon="-6.549010"><ele>369.691</ele><time>2010-01-01T03:16:34Z</time></trkpt><trkpt lat="37.706770" lon="-6.549010"><ele>375.375</ele><time>2010-01-01T03:16:01Z</time></trkpt><trkpt lat="37.707060" lon="-6.549090"><ele>376.028</ele><time>2010-01-01T03:15:49Z</time></trkpt><trkpt lat="37.707390" lon="-6.548950"><ele>377.520</ele><time>2010-01-01T03:15:35Z</time></trkpt><trkpt lat="37.708480" lon="-6.548330"><ele>385.609</ele><time>2010-01-01T03:14:47Z</time></trkpt><trkpt lat="37.708970" lon="-6.548270"><ele>391.198</ele><time>2010-01-01T03:14:28Z</time></trkpt><trkpt lat="37.709760" lon="-6.547870"><ele>399.938</ele><time>2010-01-01T03:13:53Z</time></trkpt><trkpt lat="37.710280" lon="-6.547160"><ele>401.595</ele><time>2010-01-01T03:13:22Z</time></trkpt><trkpt lat="37.710750" lon="-6.546910"><ele>394.134</ele><time>2010-01-01T03:13:02Z</time></trkpt><trkpt lat="37.711280" lon="-6.546800"><ele>392.999</ele><time>2010-01-01T03:12:40Z</time></trkpt><trkpt lat="37.711650" lon="-6.546990"><ele>393.221</ele><time>2010-01-01T03:12:24Z</time></trkpt><trkpt lat="37.712410" lon="-6.547710"><ele>389.814</ele><time>2010-01-01T03:11:46Z</time></trkpt><trkpt lat="37.712810" lon="-6.548480"><ele>392.830</ele><time>2010-01-01T03:11:16Z</time></trkpt><trkpt lat="37.713400" lon="-6.548240"><ele>399.761</ele><time>2010-01-01T03:10:51Z</time></trkpt><trkpt lat="37.713650" lon="-6.548210"><ele>399.155</ele><time>2010-01-01T03:10:41Z</time></trkpt><trkpt lat="37.713850" lon="-6.548280"><ele>399.407</ele><time>2010-01-01T03:10:32Z</time></trkpt><trkpt lat="37.714590" lon="-6.549180"><ele>410.717</ele><time>2010-01-01T03:09:51Z</time></trkpt><trkpt lat="37.715440" lon="-6.549330"><ele>408.209</ele><time>2010-01-01T03:09:17Z</time></trkpt><trkpt lat="37.716250" lon="-6.549070"><ele>413.776</ele><time>2010-01-01T03:08:43Z</time></trkpt><trkpt lat="37.717100" lon="-6.549270"><ele>419.076</ele><time>2010-01-01T03:08:07Z</time></trkpt><trkpt lat="37.717280" lon="-6.549990"><ele>419.473</ele><time>2010-01-01T03:07:43Z</time></trkpt><trkpt lat="37.717460" lon="-6.550210"><ele>420.142</ele><time>2010-01-01T03:07:33Z</time></trkpt><trkpt lat="37.717830" lon="-6.550380"><ele>419.447</ele><time>2010-01-01T03:07:17Z</time></trkpt><trkpt lat="37.719320" lon="-6.550100"><ele>420.859</ele><time>2010-01-01T03:06:16Z</time></trkpt><trkpt lat="37.720110" lon="-6.549280"><ele>414.252</ele><time>2010-01-01T03:05:35Z</time></trkpt><trkpt lat="37.720260" lon="-6.549220"><ele>414.088</ele><time>2010-01-01T03:05:29Z</time></trkpt><trkpt lat="37.721340" lon="-6.549680"><ele>423.689</ele><time>2010-01-01T03:04:43Z</time></trkpt><trkpt lat="37.722370" lon="-6.549850"><ele>425.455</ele><time>2010-01-01T03:04:01Z</time></trkpt><trkpt lat="37.722750" lon="-6.549560"><ele>432.607</ele><time>2010-01-01T03:03:43Z</time></trkpt><trkpt lat="37.722790" lon="-6.549220"><ele>437.017</ele><time>2010-01-01T03:03:32Z</time></trkpt><trkpt lat="37.722630" lon="-6.548180"><ele>445.809</ele><time>2010-01-01T03:02:58Z</time></trkpt><trkpt lat="37.722480" lon="-6.547500"><ele>445.446</ele><time>2010-01-01T03:02:36Z</time></trkpt><trkpt lat="37.722570" lon="-6.547010"><ele>445.196</ele><time>2010-01-01T03:02:19Z</time></trkpt><trkpt lat="37.722850" lon="-6.546700"><ele>449.953</ele><time>2010-01-01T03:02:04Z</time></trkpt><trkpt lat="37.722890" lon="-6.546560"><ele>451.022</ele><time>2010-01-01T03:01:59Z</time></trkpt><trkpt lat="37.722670" lon="-6.546190"><ele>451.517</ele><time>2010-01-01T03:01:44Z</time></trkpt><trkpt lat="37.721960" lon="-6.545900"><ele>456.599</ele><time>2010-01-01T03:01:14Z</time></trkpt><trkpt lat="37.721660" lon="-6.545250"><ele>454.792</ele><time>2010-01-01T03:00:50Z</time></trkpt><trkpt lat="37.721690" lon="-6.544040"><ele>456.868</ele><time>2010-01-01T03:00:11Z</time></trkpt><trkpt lat="37.721950" lon="-6.543160"><ele>466.989</ele><time>2010-01-01T02:59:41Z</time></trkpt><trkpt lat="37.722080" lon="-6.542960"><ele>468.836</ele><time>2010-01-01T02:59:33Z</time></trkpt><trkpt lat="37.722160" lon="-6.541830"><ele>469.717</ele><time>2010-01-01T02:58:56Z</time></trkpt><trkpt lat="37.721990" lon="-6.541720"><ele>465.518</ele><time>2010-01-01T02:58:49Z</time></trkpt><trkpt lat="37.721920" lon="-6.541670"><ele>464.109</ele><time>2010-01-01T02:58:45Z</time></trkpt><trkpt lat="37.721630" lon="-6.540900"><ele>468.764</ele><time>2010-01-01T02:58:18Z</time></trkpt><trkpt lat="37.721600" lon="-6.540680"><ele>467.964</ele><time>2010-01-01T02:58:11Z</time></trkpt><trkpt lat="37.721670" lon="-6.539710"><ele>472.081</ele><time>2010-01-01T02:57:40Z</time></trkpt><trkpt lat="37.721990" lon="-6.539350"><ele>480.350</ele><time>2010-01-01T02:57:22Z</time></trkpt><trkpt lat="37.722550" lon="-6.538510"><ele>479.515</ele><time>2010-01-01T02:56:48Z</time></trkpt><trkpt lat="37.723220" lon="-6.538220"><ele>495.677</ele><time>2010-01-01T02:56:19Z</time></trkpt><trkpt lat="37.723410" lon="-6.537390"><ele>491.450</ele><time>2010-01-01T02:55:51Z</time></trkpt><trkpt lat="37.723570" lon="-6.537260"><ele>492.166</ele><time>2010-01-01T02:55:42Z</time></trkpt><trkpt lat="37.724220" lon="-6.537500"><ele>496.087</ele><time>2010-01-01T02:55:15Z</time></trkpt><trkpt lat="37.724620" lon="-6.538590"><ele>518.269</ele><time>2010-01-01T02:54:36Z</time></trkpt><trkpt lat="37.724650" lon="-6.538690"><ele>518.604</ele><time>2010-01-01T02:54:33Z</time></trkpt><trkpt lat="37.724820" lon="-6.538720"><ele>517.624</ele><time>2010-01-01T02:54:26Z</time></trkpt><trkpt lat="37.725330" lon="-6.538010"><ele>509.009</ele><time>2010-01-01T02:53:55Z</time></trkpt><trkpt lat="37.725420" lon="-6.538020"><ele>509.877</ele><time>2010-01-01T02:53:51Z</time></trkpt><trkpt lat="37.725830" lon="-6.539090"><ele>524.277</ele><time>2010-01-01T02:53:13Z</time></trkpt><trkpt lat="37.726070" lon="-6.539060"><ele>523.334</ele><time>2010-01-01T02:53:02Z</time></trkpt><trkpt lat="37.726260" lon="-6.538180"><ele>517.323</ele><time>2010-01-01T02:52:33Z</time></trkpt><trkpt lat="37.726460" lon="-6.538020"><ele>518.278</ele><time>2010-01-01T02:52:24Z</time></trkpt><trkpt lat="37.728340" lon="-6.538440"><ele>545.060</ele><time>2010-01-01T02:51:07Z</time></trkpt><trkpt lat="37.728730" lon="-6.536990"><ele>548.473</ele><time>2010-01-01T02:50:17Z</time></trkpt><trkpt lat="37.729990" lon="-6.535500"><ele>558.149</ele><time>2010-01-01T02:49:08Z</time></trkpt><trkpt lat="37.730010" lon="-6.535490"><ele>558.650</ele><time>2010-01-01T02:49:07Z</time></trkpt><trkpt lat="37.730370" lon="-6.535490"><ele>568.296</ele><time>2010-01-01T02:48:52Z</time></trkpt><trkpt lat="37.730390" lon="-6.535450"><ele>568.531</ele><time>2010-01-01T02:48:50Z</time></trkpt><trkpt lat="37.730530" lon="-6.533760"><ele>564.824</ele><time>2010-01-01T02:47:56Z</time></trkpt><trkpt lat="37.730940" lon="-6.533510"><ele>570.009</ele><time>2010-01-01T02:47:37Z</time></trkpt><trkpt lat="37.731550" lon="-6.533710"><ele>583.110</ele><time>2010-01-01T02:47:12Z</time></trkpt><trkpt lat="37.731660" lon="-6.533690"><ele>584.380</ele><time>2010-01-01T02:47:07Z</time></trkpt><trkpt lat="37.732180" lon="-6.532760"><ele>588.517</ele><time>2010-01-01T02:46:31Z</time></trkpt><trkpt lat="37.731880" lon="-6.531660"><ele>590.016</ele><time>2010-01-01T02:45:54Z</time></trkpt><trkpt lat="37.731840" lon="-6.531410"><ele>590.011</ele><time>2010-01-01T02:45:46Z</time></trkpt><trkpt lat="37.731920" lon="-6.530460"><ele>582.023</ele><time>2010-01-01T02:45:16Z</time></trkpt><trkpt lat="37.731750" lon="-6.529280"><ele>571.696</ele><time>2010-01-01T02:44:38Z</time></trkpt><trkpt lat="37.731450" lon="-6.528780"><ele>568.092</ele><time>2010-01-01T02:44:17Z</time></trkpt><trkpt lat="37.731060" lon="-6.528710"><ele>573.473</ele><time>2010-01-01T02:44:01Z</time></trkpt><trkpt lat="37.730980" lon="-6.528670"><ele>574.054</ele><time>2010-01-01T02:43:58Z</time></trkpt><trkpt lat="37.730650" lon="-6.526940"><ele>551.556</ele><time>2010-01-01T02:43:01Z</time></trkpt><trkpt lat="37.730210" lon="-6.526590"><ele>551.211</ele><time>2010-01-01T02:42:40Z</time></trkpt><trkpt lat="37.729680" lon="-6.526690"><ele>557.009</ele><time>2010-01-01T02:42:18Z</time></trkpt><trkpt lat="37.729520" lon="-6.526640"><ele>557.016</ele><time>2010-01-01T02:42:11Z</time></trkpt><trkpt lat="37.729690" lon="-6.525580"><ele>536.836</ele><time>2010-01-01T02:41:35Z</time></trkpt><trkpt lat="37.729320" lon="-6.525560"><ele>540.493</ele><time>2010-01-01T02:41:20Z</time></trkpt><trkpt lat="37.728640" lon="-6.524920"><ele>536.082</ele><time>2010-01-01T02:40:46Z</time></trkpt><trkpt lat="37.727790" lon="-6.523270"><ele>520.157</ele><time>2010-01-01T02:39:43Z</time></trkpt><trkpt lat="37.728010" lon="-6.522130"><ele>511.459</ele><time>2010-01-01T02:39:04Z</time></trkpt><trkpt lat="37.727980" lon="-6.521990"><ele>511.212</ele><time>2010-01-01T02:39:00Z</time></trkpt><trkpt lat="37.727970" lon="-6.521830"><ele>510.258</ele><time>2010-01-01T02:38:54Z</time></trkpt><trkpt lat="37.728150" lon="-6.521640"><ele>504.569</ele><time>2010-01-01T02:38:44Z</time></trkpt><trkpt lat="37.728670" lon="-6.521970"><ele>500.597</ele><time>2010-01-01T02:38:20Z</time></trkpt><trkpt lat="37.728780" lon="-6.522150"><ele>498.223</ele><time>2010-01-01T02:38:13Z</time></trkpt><trkpt lat="37.728680" lon="-6.522720"><ele>501.425</ele><time>2010-01-01T02:37:54Z</time></trkpt><trkpt lat="37.728700" lon="-6.522860"><ele>500.909</ele><time>2010-01-01T02:37:50Z</time></trkpt><trkpt lat="37.729440" lon="-6.523170"><ele>492.680</ele><time>2010-01-01T02:37:18Z</time></trkpt><trkpt lat="37.729670" lon="-6.523670"><ele>496.950</ele><time>2010-01-01T02:37:00Z</time></trkpt><trkpt lat="37.729720" lon="-6.523680"><ele>496.337</ele><time>2010-01-01T02:36:58Z</time></trkpt><trkpt lat="37.730070" lon="-6.523300"><ele>487.936</ele><time>2010-01-01T02:36:39Z</time></trkpt><trkpt lat="37.730550" lon="-6.522250"><ele>472.421</ele><time>2010-01-01T02:36:00Z</time></trkpt><trkpt lat="37.730590" lon="-6.522250"><ele>471.933</ele><time>2010-01-01T02:35:58Z</time></trkpt><trkpt lat="37.730970" lon="-6.522870"><ele>476.766</ele><time>2010-01-01T02:35:33Z</time></trkpt><trkpt lat="37.731200" lon="-6.523560"><ele>481.412</ele><time>2010-01-01T02:35:09Z</time></trkpt><trkpt lat="37.731380" lon="-6.523530"><ele>478.563</ele><time>2010-01-01T02:35:01Z</time></trkpt><trkpt lat="37.731410" lon="-6.522170"><ele>463.999</ele><time>2010-01-01T02:34:17Z</time></trkpt><trkpt lat="37.731360" lon="-6.521980"><ele>463.707</ele><time>2010-01-01T02:34:11Z</time></trkpt><trkpt lat="37.731090" lon="-6.521200"><ele>456.027</ele><time>2010-01-01T02:33:44Z</time></trkpt><trkpt lat="37.731060" lon="-6.520490"><ele>455.209</ele><time>2010-01-01T02:33:21Z</time></trkpt><trkpt lat="37.730950" lon="-6.519650"><ele>444.580</ele><time>2010-01-01T02:32:54Z</time></trkpt><trkpt lat="37.731090" lon="-6.519030"><ele>442.380</ele><time>2010-01-01T02:32:34Z</time></trkpt><trkpt lat="37.731180" lon="-6.518000"><ele>435.377</ele><time>2010-01-01T02:32:00Z</time></trkpt><trkpt lat="37.731430" lon="-6.517420"><ele>429.866</ele><time>2010-01-01T02:31:39Z</time></trkpt><trkpt lat="37.731520" lon="-6.517360"><ele>428.931</ele><time>2010-01-01T02:31:35Z</time></trkpt><trkpt lat="37.732310" lon="-6.517640"><ele>433.043</ele><time>2010-01-01T02:31:01Z</time></trkpt><trkpt lat="37.732700" lon="-6.517210"><ele>424.286</ele><time>2010-01-01T02:30:41Z</time></trkpt><trkpt lat="37.733100" lon="-6.517080"><ele>425.252</ele><time>2010-01-01T02:30:24Z</time></trkpt><trkpt lat="37.733200" lon="-6.517080"><ele>424.913</ele><time>2010-01-01T02:30:20Z</time></trkpt><trkpt lat="37.733920" lon="-6.517480"><ele>428.071</ele><time>2010-01-01T02:29:47Z</time></trkpt><trkpt lat="37.734930" lon="-6.516640"><ele>407.841</ele><time>2010-01-01T02:28:58Z</time></trkpt><trkpt lat="37.735210" lon="-6.516700"><ele>405.615</ele><time>2010-01-01T02:28:47Z</time></trkpt><trkpt lat="37.735410" lon="-6.516980"><ele>404.709</ele><time>2010-01-01T02:28:35Z</time></trkpt><trkpt lat="37.735650" lon="-6.517630"><ele>398.948</ele><time>2010-01-01T02:28:12Z</time></trkpt><trkpt lat="37.735680" lon="-6.518060"><ele>397.668</ele><time>2010-01-01T02:27:58Z</time></trkpt><trkpt lat="37.735470" lon="-6.518570"><ele>401.045</ele><time>2010-01-01T02:27:40Z</time></trkpt><trkpt lat="37.735450" lon="-6.518650"><ele>401.394</ele><time>2010-01-01T02:27:37Z</time></trkpt><trkpt lat="37.735640" lon="-6.519220"><ele>393.879</ele><time>2010-01-01T02:27:17Z</time></trkpt><trkpt lat="37.736110" lon="-6.519590"><ele>391.191</ele><time>2010-01-01T02:26:54Z</time></trkpt><trkpt lat="37.736620" lon="-6.519330"><ele>380.114</ele><time>2010-01-01T02:26:31Z</time></trkpt><trkpt lat="37.737180" lon="-6.520070"><ele>374.650</ele><time>2010-01-01T02:25:58Z</time></trkpt><trkpt lat="37.737100" lon="-6.520810"><ele>381.151</ele><time>2010-01-01T02:25:35Z</time></trkpt><trkpt lat="37.737100" lon="-6.520910"><ele>380.885</ele><time>2010-01-01T02:25:31Z</time></trkpt><trkpt lat="37.737280" lon="-6.521010"><ele>377.889</ele><time>2010-01-01T02:25:22Z</time></trkpt><trkpt lat="37.737920" lon="-6.520230"><ele>372.317</ele><time>2010-01-01T02:24:46Z</time></trkpt><trkpt lat="37.737950" lon="-6.518180"><ele>351.409</ele><time>2010-01-01T02:23:40Z</time></trkpt><trkpt lat="37.738480" lon="-6.517720"><ele>348.989</ele><time>2010-01-01T02:23:14Z</time></trkpt><trkpt lat="37.738670" lon="-6.517750"><ele>349.549</ele><time>2010-01-01T02:23:06Z</time></trkpt><trkpt lat="37.739040" lon="-6.518090"><ele>349.626</ele><time>2010-01-01T02:22:48Z</time></trkpt><trkpt lat="37.739290" lon="-6.518690"><ele>350.095</ele><time>2010-01-01T02:22:26Z</time></trkpt><trkpt lat="37.739320" lon="-6.518730"><ele>349.840</ele><time>2010-01-01T02:22:24Z</time></trkpt><trkpt lat="37.739880" lon="-6.518480"><ele>348.592</ele><time>2010-01-01T02:22:00Z</time></trkpt><trkpt lat="37.740720" lon="-6.517150"><ele>361.575</ele><time>2010-01-01T02:21:05Z</time></trkpt><trkpt lat="37.740780" lon="-6.516170"><ele>365.231</ele><time>2010-01-01T02:20:34Z</time></trkpt><trkpt lat="37.741100" lon="-6.515930"><ele>370.212</ele><time>2010-01-01T02:20:19Z</time></trkpt><trkpt lat="37.741270" lon="-6.515720"><ele>371.546</ele><time>2010-01-01T02:20:09Z</time></trkpt><trkpt lat="37.741640" lon="-6.515650"><ele>370.188</ele><time>2010-01-01T02:19:54Z</time></trkpt><trkpt lat="37.741990" lon="-6.515820"><ele>367.116</ele><time>2010-01-01T02:19:39Z</time></trkpt><trkpt lat="37.742680" lon="-6.516710"><ele>367.609</ele><time>2010-01-01T02:18:59Z</time></trkpt><trkpt lat="37.742770" lon="-6.516730"><ele>367.275</ele><time>2010-01-01T02:18:56Z</time></trkpt><trkpt lat="37.743000" lon="-6.516300"><ele>368.465</ele><time>2010-01-01T02:18:38Z</time></trkpt><trkpt lat="37.743000" lon="-6.515960"><ele>368.592</ele><time>2010-01-01T02:18:28Z</time></trkpt><trkpt lat="37.743010" lon="-6.515870"><ele>368.431</ele><time>2010-01-01T02:18:25Z</time></trkpt><trkpt lat="37.743060" lon="-6.515760"><ele>369.386</ele><time>2010-01-01T02:18:21Z</time></trkpt><trkpt lat="37.743560" lon="-6.515320"><ele>373.828</ele><time>2010-01-01T02:17:56Z</time></trkpt><trkpt lat="37.743840" lon="-6.515270"><ele>377.381</ele><time>2010-01-01T02:17:45Z</time></trkpt><trkpt lat="37.744290" lon="-6.514670"><ele>383.197</ele><time>2010-01-01T02:17:18Z</time></trkpt><trkpt lat="37.744350" lon="-6.514670"><ele>383.478</ele><time>2010-01-01T02:17:15Z</time></trkpt><trkpt lat="37.744890" lon="-6.515050"><ele>388.192</ele><time>2010-01-01T02:16:50Z</time></trkpt><trkpt lat="37.745630" lon="-6.515280"><ele>396.673</ele><time>2010-01-01T02:16:19Z</time></trkpt><trkpt lat="37.746030" lon="-6.515660"><ele>401.020</ele><time>2010-01-01T02:15:59Z</time></trkpt><trkpt lat="37.746360" lon="-6.515850"><ele>401.309</ele><time>2010-01-01T02:15:45Z</time></trkpt><trkpt lat="37.746650" lon="-6.516280"><ele>407.420</ele><time>2010-01-01T02:15:27Z</time></trkpt><trkpt lat="37.746810" lon="-6.516270"><ele>407.880</ele><time>2010-01-01T02:15:20Z</time></trkpt><trkpt lat="37.747250" lon="-6.515810"><ele>406.247</ele><time>2010-01-01T02:14:57Z</time></trkpt><trkpt lat="37.747630" lon="-6.514900"><ele>412.166</ele><time>2010-01-01T02:14:24Z</time></trkpt><trkpt lat="37.748090" lon="-6.514650"><ele>417.241</ele><time>2010-01-01T02:14:04Z</time></trkpt><trkpt lat="37.748150" lon="-6.514590"><ele>417.763</ele><time>2010-01-01T02:14:01Z</time></trkpt><trkpt lat="37.748170" lon="-6.514470"><ele>417.876</ele><time>2010-01-01T02:13:57Z</time></trkpt><trkpt lat="37.747950" lon="-6.513660"><ele>419.172</ele><time>2010-01-01T02:13:30Z</time></trkpt><trkpt lat="37.748020" lon="-6.513330"><ele>419.773</ele><time>2010-01-01T02:13:19Z</time></trkpt><trkpt lat="37.748250" lon="-6.513180"><ele>419.337</ele><time>2010-01-01T02:13:08Z</time></trkpt><trkpt lat="37.749550" lon="-6.513360"><ele>415.349</ele><time>2010-01-01T02:12:15Z</time></trkpt><trkpt lat="37.750030" lon="-6.513600"><ele>415.213</ele><time>2010-01-01T02:11:55Z</time></trkpt><trkpt lat="37.750250" lon="-6.514000"><ele>416.509</ele><time>2010-01-01T02:11:39Z</time></trkpt><trkpt lat="37.751110" lon="-6.515000"><ele>418.034</ele><time>2010-01-01T02:10:52Z</time></trkpt><trkpt lat="37.751660" lon="-6.515400"><ele>425.174</ele><time>2010-01-01T02:10:26Z</time></trkpt><trkpt lat="37.752040" lon="-6.515380"><ele>424.181</ele><time>2010-01-01T02:10:11Z</time></trkpt><trkpt lat="37.752520" lon="-6.515620"><ele>430.130</ele><time>2010-01-01T02:09:50Z</time></trkpt><trkpt lat="37.753010" lon="-6.515300"><ele>431.915</ele><time>2010-01-01T02:09:28Z</time></trkpt><trkpt lat="37.753540" lon="-6.515290"><ele>431.647</ele><time>2010-01-01T02:09:07Z</time></trkpt><trkpt lat="37.753790" lon="-6.515160"><ele>429.330</ele><time>2010-01-01T02:08:56Z</time></trkpt><trkpt lat="37.755510" lon="-6.515320"><ele>444.476</ele><time>2010-01-01T02:07:46Z</time></trkpt><trkpt lat="37.755530" lon="-6.515320"><ele>444.737</ele><time>2010-01-01T02:07:45Z</time></trkpt><trkpt lat="37.755630" lon="-6.515330"><ele>446.314</ele><time>2010-01-01T02:07:41Z</time></trkpt><trkpt lat="37.756500" lon="-6.514820"><ele>441.154</ele><time>2010-01-01T02:07:03Z</time></trkpt><trkpt lat="37.756580" lon="-6.514810"><ele>441.509</ele><time>2010-01-01T02:06:59Z</time></trkpt><trkpt lat="37.757060" lon="-6.515210"><ele>452.209</ele><time>2010-01-01T02:06:35Z</time></trkpt><trkpt lat="37.757840" lon="-6.515000"><ele>459.362</ele><time>2010-01-01T02:06:03Z</time></trkpt><trkpt lat="37.758260" lon="-6.514450"><ele>459.212</ele><time>2010-01-01T02:05:38Z</time></trkpt><trkpt lat="37.758570" lon="-6.513800"><ele>459.659</ele><time>2010-01-01T02:05:13Z</time></trkpt><trkpt lat="37.759580" lon="-6.513390"><ele>456.618</ele><time>2010-01-01T02:04:30Z</time></trkpt><trkpt lat="37.760130" lon="-6.514160"><ele>456.063</ele><time>2010-01-01T02:03:57Z</time></trkpt><trkpt lat="37.760370" lon="-6.514270"><ele>454.075</ele><time>2010-01-01T02:03:47Z</time></trkpt><trkpt lat="37.762070" lon="-6.513380"><ele>447.248</ele><time>2010-01-01T02:02:32Z</time></trkpt><trkpt lat="37.762390" lon="-6.513410"><ele>446.154</ele><time>2010-01-01T02:02:19Z</time></trkpt><trkpt lat="37.763820" lon="-6.512580"><ele>432.765</ele><time>2010-01-01T02:01:16Z</time></trkpt><trkpt lat="37.764830" lon="-6.512620"><ele>427.135</ele><time>2010-01-01T02:00:35Z</time></trkpt><trkpt lat="37.765640" lon="-6.513200"><ele>419.886</ele><time>2010-01-01T01:59:57Z</time></trkpt><trkpt lat="37.766490" lon="-6.513000"><ele>414.114</ele><time>2010-01-01T01:59:23Z</time></trkpt><trkpt lat="37.767750" lon="-6.512300"><ele>412.209</ele><time>2010-01-01T01:58:27Z</time></trkpt><trkpt lat="37.768230" lon="-6.510440"><ele>425.454</ele><time>2010-01-01T01:57:25Z</time></trkpt><trkpt lat="37.769080" lon="-6.509080"><ele>435.064</ele><time>2010-01-01T01:56:30Z</time></trkpt><trkpt lat="37.768980" lon="-6.509010"><ele>434.931</ele><time>2010-01-01T01:56:26Z</time></trkpt><trkpt lat="37.768890" lon="-6.508860"><ele>435.210</ele><time>2010-01-01T01:56:20Z</time></trkpt><trkpt lat="37.768930" lon="-6.508610"><ele>437.135</ele><time>2010-01-01T01:56:10Z</time></trkpt><trkpt lat="37.768940" lon="-6.508630"><ele>437.037</ele><time>2010-01-01T01:56:09Z</time></trkpt><trkpt lat="37.768890" lon="-6.508880"><ele>435.110</ele><time>2010-01-01T01:55:56Z</time></trkpt><trkpt lat="37.769080" lon="-6.509080"><ele>435.016</ele><time>2010-01-01T01:55:46Z</time></trkpt><trkpt lat="37.769740" lon="-6.508210"><ele>437.657</ele><time>2010-01-01T01:55:08Z</time></trkpt><trkpt lat="37.770760" lon="-6.506000"><ele>448.141</ele><time>2010-01-01T01:53:47Z</time></trkpt><trkpt lat="37.771240" lon="-6.505670"><ele>448.381</ele><time>2010-01-01T01:53:25Z</time></trkpt><trkpt lat="37.771510" lon="-6.503130"><ele>454.909</ele><time>2010-01-01T01:52:04Z</time></trkpt><trkpt lat="37.771650" lon="-6.502640"><ele>457.909</ele><time>2010-01-01T01:51:47Z</time></trkpt><trkpt lat="37.773990" lon="-6.498050"><ele>482.425</ele><time>2010-01-01T01:48:54Z</time></trkpt><trkpt lat="37.774780" lon="-6.495630"><ele>493.825</ele><time>2010-01-01T01:47:31Z</time></trkpt><trkpt lat="37.775220" lon="-6.494760"><ele>498.112</ele><time>2010-01-01T01:46:58Z</time></trkpt><trkpt lat="37.775400" lon="-6.494520"><ele>499.711</ele><time>2010-01-01T01:46:48Z</time></trkpt><trkpt lat="37.776360" lon="-6.493790"><ele>512.596</ele><time>2010-01-01T01:46:03Z</time></trkpt><trkpt lat="37.780490" lon="-6.492220"><ele>521.878</ele><time>2010-01-01T01:43:10Z</time></trkpt><trkpt lat="37.783180" lon="-6.491880"><ele>535.491</ele><time>2010-01-01T01:41:22Z</time></trkpt><trkpt lat="37.783640" lon="-6.491750"><ele>533.647</ele><time>2010-01-01T01:41:03Z</time></trkpt><trkpt lat="37.784260" lon="-6.491250"><ele>522.528</ele><time>2010-01-01T01:40:33Z</time></trkpt><trkpt lat="37.784510" lon="-6.490840"><ele>520.099</ele><time>2010-01-01T01:40:17Z</time></trkpt><trkpt lat="37.785250" lon="-6.487960"><ele>510.107</ele><time>2010-01-01T01:38:40Z</time></trkpt><trkpt lat="37.785580" lon="-6.487500"><ele>508.927</ele><time>2010-01-01T01:38:21Z</time></trkpt><trkpt lat="37.786510" lon="-6.486980"><ele>511.109</ele><time>2010-01-01T01:37:39Z</time></trkpt><trkpt lat="37.788310" lon="-6.486910"><ele>513.340</ele><time>2010-01-01T01:36:27Z</time></trkpt><trkpt lat="37.788800" lon="-6.486700"><ele>515.420</ele><time>2010-01-01T01:36:07Z</time></trkpt><trkpt lat="37.789100" lon="-6.486450"><ele>518.967</ele><time>2010-01-01T01:35:52Z</time></trkpt><trkpt lat="37.789360" lon="-6.486120"><ele>521.556</ele><time>2010-01-01T01:35:37Z</time></trkpt><trkpt lat="37.789490" lon="-6.485870"><ele>521.041</ele><time>2010-01-01T01:35:28Z</time></trkpt><trkpt lat="37.789700" lon="-6.485020"><ele>519.353</ele><time>2010-01-01T01:35:00Z</time></trkpt><trkpt lat="37.789910" lon="-6.483380"><ele>524.516</ele><time>2010-01-01T01:34:07Z</time></trkpt><trkpt lat="37.790160" lon="-6.482640"><ele>529.212</ele><time>2010-01-01T01:33:41Z</time></trkpt><trkpt lat="37.790780" lon="-6.481810"><ele>537.053</ele><time>2010-01-01T01:33:05Z</time></trkpt><trkpt lat="37.792170" lon="-6.480750"><ele>548.572</ele><time>2010-01-01T01:32:00Z</time></trkpt><trkpt lat="37.794050" lon="-6.478440"><ele>561.513</ele><time>2010-01-01T01:30:15Z</time></trkpt><trkpt lat="37.795110" lon="-6.477620"><ele>559.814</ele><time>2010-01-01T01:29:25Z</time></trkpt><trkpt lat="37.796500" lon="-6.476820"><ele>560.009</ele><time>2010-01-01T01:28:24Z</time></trkpt><trkpt lat="37.796960" lon="-6.476460"><ele>558.398</ele><time>2010-01-01T01:28:02Z</time></trkpt><trkpt lat="37.798380" lon="-6.474630"><ele>556.298</ele><time>2010-01-01T01:26:41Z</time></trkpt><trkpt lat="37.798560" lon="-6.474490"><ele>555.275</ele><time>2010-01-01T01:26:33Z</time></trkpt><trkpt lat="37.801380" lon="-6.473370"><ele>559.374</ele><time>2010-01-01T01:24:34Z</time></trkpt><trkpt lat="37.801840" lon="-6.473030"><ele>561.859</ele><time>2010-01-01T01:24:13Z</time></trkpt><trkpt lat="37.802120" lon="-6.472670"><ele>564.171</ele><time>2010-01-01T01:23:57Z</time></trkpt><trkpt lat="37.802190" lon="-6.472530"><ele>564.554</ele><time>2010-01-01T01:23:52Z</time></trkpt><trkpt lat="37.802450" lon="-6.471490"><ele>553.310</ele><time>2010-01-01T01:23:17Z</time></trkpt><trkpt lat="37.802850" lon="-6.467930"><ele>544.191</ele><time>2010-01-01T01:21:23Z</time></trkpt><trkpt lat="37.803000" lon="-6.467500"><ele>536.067</ele><time>2010-01-01T01:21:08Z</time></trkpt><trkpt lat="37.803620" lon="-6.466700"><ele>532.581</ele><time>2010-01-01T01:20:32Z</time></trkpt><trkpt lat="37.804240" lon="-6.466440"><ele>535.819</ele><time>2010-01-01T01:20:06Z</time></trkpt><trkpt lat="37.804580" lon="-6.466400"><ele>534.309</ele><time>2010-01-01T01:19:52Z</time></trkpt><trkpt lat="37.805890" lon="-6.466350"><ele>526.317</ele><time>2010-01-01T01:19:00Z</time></trkpt><trkpt lat="37.806520" lon="-6.466000"><ele>522.577</ele><time>2010-01-01T01:18:32Z</time></trkpt><trkpt lat="37.806970" lon="-6.465390"><ele>514.994</ele><time>2010-01-01T01:18:05Z</time></trkpt><trkpt lat="37.807580" lon="-6.463020"><ele>516.353</ele><time>2010-01-01T01:16:46Z</time></trkpt><trkpt lat="37.808670" lon="-6.458390"><ele>488.398</ele><time>2010-01-01T01:14:14Z</time></trkpt><trkpt lat="37.808990" lon="-6.457460"><ele>493.020</ele><time>2010-01-01T01:13:41Z</time></trkpt><trkpt lat="37.809680" lon="-6.456490"><ele>498.163</ele><time>2010-01-01T01:13:00Z</time></trkpt><trkpt lat="37.811380" lon="-6.455030"><ele>502.159</ele><time>2010-01-01T01:11:38Z</time></trkpt><trkpt lat="37.812300" lon="-6.454030"><ele>489.250</ele><time>2010-01-01T01:10:49Z</time></trkpt><trkpt lat="37.812640" lon="-6.453460"><ele>483.548</ele><time>2010-01-01T01:10:26Z</time></trkpt><trkpt lat="37.814320" lon="-6.449530"><ele>469.461</ele><time>2010-01-01T01:08:05Z</time></trkpt><trkpt lat="37.814490" lon="-6.448810"><ele>464.517</ele><time>2010-01-01T01:07:41Z</time></trkpt><trkpt lat="37.814750" lon="-6.447670"><ele>465.109</ele><time>2010-01-01T01:07:04Z</time></trkpt><trkpt lat="37.814880" lon="-6.447600"><ele>466.885</ele><time>2010-01-01T01:06:58Z</time></trkpt><trkpt lat="37.815370" lon="-6.446780"><ele>468.875</ele><time>2010-01-01T01:06:25Z</time></trkpt><trkpt lat="37.816030" lon="-6.446410"><ele>473.532</ele><time>2010-01-01T01:05:56Z</time></trkpt><trkpt lat="37.816420" lon="-6.446080"><ele>472.371</ele><time>2010-01-01T01:05:37Z</time></trkpt><trkpt lat="37.817590" lon="-6.446600"><ele>467.126</ele><time>2010-01-01T01:04:47Z</time></trkpt><trkpt lat="37.818240" lon="-6.446700"><ele>470.018</ele><time>2010-01-01T01:04:20Z</time></trkpt><trkpt lat="37.820080" lon="-6.446170"><ele>480.461</ele><time>2010-01-01T01:03:04Z</time></trkpt><trkpt lat="37.822190" lon="-6.446170"><ele>479.997</ele><time>2010-01-01T01:01:40Z</time></trkpt><trkpt lat="37.823550" lon="-6.445470"><ele>491.838</ele><time>2010-01-01T01:00:40Z</time></trkpt><trkpt lat="37.825910" lon="-6.445250"><ele>513.412</ele><time>2010-01-01T00:59:05Z</time></trkpt><trkpt lat="37.827610" lon="-6.443050"><ele>529.232</ele><time>2010-01-01T00:57:27Z</time></trkpt><trkpt lat="37.828060" lon="-6.442820"><ele>532.005</ele><time>2010-01-01T00:57:07Z</time></trkpt><trkpt lat="37.828590" lon="-6.442890"><ele>536.009</ele><time>2010-01-01T00:56:46Z</time></trkpt><trkpt lat="37.828750" lon="-6.442770"><ele>535.512</ele><time>2010-01-01T00:56:38Z</time></trkpt><trkpt lat="37.828790" lon="-6.442690"><ele>535.522</ele><time>2010-01-01T00:56:35Z</time></trkpt><trkpt lat="37.828360" lon="-6.442360"><ele>533.279</ele><time>2010-01-01T00:56:15Z</time></trkpt><trkpt lat="37.828470" lon="-6.442280"><ele>534.658</ele><time>2010-01-01T00:56:10Z</time></trkpt><trkpt lat="37.829020" lon="-6.442290"><ele>541.263</ele><time>2010-01-01T00:55:48Z</time></trkpt><trkpt lat="37.830060" lon="-6.442870"><ele>546.545</ele><time>2010-01-01T00:55:02Z</time></trkpt><trkpt lat="37.830280" lon="-6.442870"><ele>548.418</ele><time>2010-01-01T00:54:53Z</time></trkpt><trkpt lat="37.830490" lon="-6.442780"><ele>551.394</ele><time>2010-01-01T00:54:44Z</time></trkpt><trkpt lat="37.830620" lon="-6.442640"><ele>553.085</ele><time>2010-01-01T00:54:37Z</time></trkpt><trkpt lat="37.831100" lon="-6.442220"><ele>553.928</ele><time>2010-01-01T00:54:13Z</time></trkpt><trkpt lat="37.831630" lon="-6.442470"><ele>558.789</ele><time>2010-01-01T00:53:50Z</time></trkpt><trkpt lat="37.832140" lon="-6.443240"><ele>565.017</ele><time>2010-01-01T00:53:18Z</time></trkpt><trkpt lat="37.832550" lon="-6.443710"><ele>575.309</ele><time>2010-01-01T00:52:56Z</time></trkpt><trkpt lat="37.832660" lon="-6.443760"><ele>576.863</ele><time>2010-01-01T00:52:51Z</time></trkpt><trkpt lat="37.832790" lon="-6.443770"><ele>578.263</ele><time>2010-01-01T00:52:46Z</time></trkpt><trkpt lat="37.834040" lon="-6.444560"><ele>586.870</ele><time>2010-01-01T00:51:49Z</time></trkpt><trkpt lat="37.834170" lon="-6.445090"><ele>585.779</ele><time>2010-01-01T00:51:32Z</time></trkpt><trkpt lat="37.834990" lon="-6.445750"><ele>589.354</ele><time>2010-01-01T00:50:52Z</time></trkpt><trkpt lat="37.835410" lon="-6.446910"><ele>599.216</ele><time>2010-01-01T00:50:12Z</time></trkpt><trkpt lat="37.836720" lon="-6.447490"><ele>612.059</ele><time>2010-01-01T00:49:15Z</time></trkpt><trkpt lat="37.836810" lon="-6.447830"><ele>614.085</ele><time>2010-01-01T00:49:04Z</time></trkpt><trkpt lat="37.837340" lon="-6.449440"><ele>607.356</ele><time>2010-01-01T00:48:08Z</time></trkpt><trkpt lat="37.837390" lon="-6.450200"><ele>601.353</ele><time>2010-01-01T00:47:44Z</time></trkpt><trkpt lat="37.837380" lon="-6.450320"><ele>600.504</ele><time>2010-01-01T00:47:40Z</time></trkpt><trkpt lat="37.837520" lon="-6.450880"><ele>600.014</ele><time>2010-01-01T00:47:21Z</time></trkpt><trkpt lat="37.837700" lon="-6.451240"><ele>600.709</ele><time>2010-01-01T00:47:08Z</time></trkpt><trkpt lat="37.837930" lon="-6.451330"><ele>603.366</ele><time>2010-01-01T00:46:58Z</time></trkpt><trkpt lat="37.837910" lon="-6.452140"><ele>604.126</ele><time>2010-01-01T00:46:31Z</time></trkpt><trkpt lat="37.837940" lon="-6.453080"><ele>604.063</ele><time>2010-01-01T00:46:02Z</time></trkpt><trkpt lat="37.837970" lon="-6.453510"><ele>601.492</ele><time>2010-01-01T00:45:48Z</time></trkpt><trkpt lat="37.838160" lon="-6.454530"><ele>597.857</ele><time>2010-01-01T00:45:14Z</time></trkpt><trkpt lat="37.840190" lon="-6.458850"><ele>614.149</ele><time>2010-01-01T00:42:35Z</time></trkpt><trkpt lat="37.841850" lon="-6.465400"><ele>610.712</ele><time>2010-01-01T00:38:57Z</time></trkpt><trkpt lat="37.842510" lon="-6.465810"><ele>613.318</ele><time>2010-01-01T00:38:27Z</time></trkpt><trkpt lat="37.842730" lon="-6.465990"><ele>608.839</ele><time>2010-01-01T00:38:17Z</time></trkpt><trkpt lat="37.843350" lon="-6.468140"><ele>595.264</ele><time>2010-01-01T00:37:04Z</time></trkpt><trkpt lat="37.846530" lon="-6.473680"><ele>592.006</ele><time>2010-01-01T00:33:28Z</time></trkpt><trkpt lat="37.846430" lon="-6.473780"><ele>591.716</ele><time>2010-01-01T00:33:23Z</time></trkpt><trkpt lat="37.847510" lon="-6.475650"><ele>603.309</ele><time>2010-01-01T00:32:09Z</time></trkpt><trkpt lat="37.848340" lon="-6.476590"><ele>607.567</ele><time>2010-01-01T00:31:25Z</time></trkpt><trkpt lat="37.853440" lon="-6.480620"><ele>593.817</ele><time>2010-01-01T00:27:24Z</time></trkpt><trkpt lat="37.855030" lon="-6.481430"><ele>594.894</ele><time>2010-01-01T00:26:15Z</time></trkpt><trkpt lat="37.858330" lon="-6.483050"><ele>606.033</ele><time>2010-01-01T00:23:54Z</time></trkpt><trkpt lat="37.859200" lon="-6.483340"><ele>607.248</ele><time>2010-01-01T00:23:18Z</time></trkpt><trkpt lat="37.860000" lon="-6.483600"><ele>612.050</ele><time>2010-01-01T00:22:45Z</time></trkpt><trkpt lat="37.860790" lon="-6.484090"><ele>613.193</ele><time>2010-01-01T00:22:09Z</time></trkpt><trkpt lat="37.861450" lon="-6.484950"><ele>608.819</ele><time>2010-01-01T00:21:31Z</time></trkpt><trkpt lat="37.862640" lon="-6.484060"><ele>611.080</ele><time>2010-01-01T00:20:35Z</time></trkpt><trkpt lat="37.863350" lon="-6.484180"><ele>609.175</ele><time>2010-01-01T00:20:06Z</time></trkpt><trkpt lat="37.864310" lon="-6.484030"><ele>607.028</ele><time>2010-01-01T00:19:27Z</time></trkpt><trkpt lat="37.865790" lon="-6.484700"><ele>602.320</ele><time>2010-01-01T00:18:24Z</time></trkpt><trkpt lat="37.866510" lon="-6.484770"><ele>600.409</ele><time>2010-01-01T00:17:55Z</time></trkpt><trkpt lat="37.868130" lon="-6.485620"><ele>616.848</ele><time>2010-01-01T00:16:45Z</time></trkpt><trkpt lat="37.868860" lon="-6.485190"><ele>618.388</ele><time>2010-01-01T00:16:12Z</time></trkpt><trkpt lat="37.870340" lon="-6.484760"><ele>628.195</ele><time>2010-01-01T00:15:11Z</time></trkpt><trkpt lat="37.870710" lon="-6.484580"><ele>630.184</ele><time>2010-01-01T00:14:55Z</time></trkpt><trkpt lat="37.873650" lon="-6.484810"><ele>637.729</ele><time>2010-01-01T00:12:57Z</time></trkpt><trkpt lat="37.874100" lon="-6.484750"><ele>637.321</ele><time>2010-01-01T00:12:39Z</time></trkpt><trkpt lat="37.874630" lon="-6.484370"><ele>634.384</ele><time>2010-01-01T00:12:15Z</time></trkpt><trkpt lat="37.874890" lon="-6.483970"><ele>635.140</ele><time>2010-01-01T00:11:58Z</time></trkpt><trkpt lat="37.874990" lon="-6.483870"><ele>635.151</ele><time>2010-01-01T00:11:53Z</time></trkpt><trkpt lat="37.875610" lon="-6.483830"><ele>624.964</ele><time>2010-01-01T00:11:28Z</time></trkpt><trkpt lat="37.876010" lon="-6.483130"><ele>617.406</ele><time>2010-01-01T00:11:00Z</time></trkpt><trkpt lat="37.876260" lon="-6.483020"><ele>618.216</ele><time>2010-01-01T00:10:50Z</time></trkpt><trkpt lat="37.876470" lon="-6.483020"><ele>619.809</ele><time>2010-01-01T00:10:41Z</time></trkpt><trkpt lat="37.876960" lon="-6.483120"><ele>615.517</ele><time>2010-01-01T00:10:21Z</time></trkpt><trkpt lat="37.877970" lon="-6.483070"><ele>604.837</ele><time>2010-01-01T00:09:41Z</time></trkpt><trkpt lat="37.879180" lon="-6.483460"><ele>595.314</ele><time>2010-01-01T00:08:51Z</time></trkpt><trkpt lat="37.879820" lon="-6.483890"><ele>593.033</ele><time>2010-01-01T00:08:22Z</time></trkpt><trkpt lat="37.880120" lon="-6.484040"><ele>590.638</ele><time>2010-01-01T00:08:09Z</time></trkpt><trkpt lat="37.880400" lon="-6.484110"><ele>587.510</ele><time>2010-01-01T00:07:57Z</time></trkpt><trkpt lat="37.883700" lon="-6.483580"><ele>575.663</ele><time>2010-01-01T00:05:44Z</time></trkpt><trkpt lat="37.884510" lon="-6.483190"><ele>571.279</ele><time>2010-01-01T00:05:09Z</time></trkpt><trkpt lat="37.886250" lon="-6.483500"><ele>576.160</ele><time>2010-01-01T00:03:58Z</time></trkpt><trkpt lat="37.886680" lon="-6.483410"><ele>575.081</ele><time>2010-01-01T00:03:41Z</time></trkpt><trkpt lat="37.887080" lon="-6.483200"><ele>566.561</ele><time>2010-01-01T00:03:23Z</time></trkpt><trkpt lat="37.887450" lon="-6.482560"><ele>561.317</ele><time>2010-01-01T00:02:58Z</time></trkpt><trkpt lat="37.887540" lon="-6.482450"><ele>559.209</ele><time>2010-01-01T00:02:53Z</time></trkpt><trkpt lat="37.888940" lon="-6.481370"><ele>546.439</ele><time>2010-01-01T00:01:48Z</time></trkpt><trkpt lat="37.889530" lon="-6.480700"><ele>535.979</ele><time>2010-01-01T00:01:16Z</time></trkpt><trkpt lat="37.890610" lon="-6.480060"><ele>525.216</ele><time>2010-01-01T00:00:28Z</time></trkpt><trkpt lat="37.891290" lon="-6.479880"><ele>521.315</ele><time>2010-01-01T00:00:00Z</time></trkpt><trkpt lat="37.891480" lon="-6.479820"><ele>521.980</ele><time>2022-08-26T07:46:53Z</time></trkpt><trkpt lat="37.891850" lon="-6.479540"><ele>523.022</ele><time>2022-08-26T07:47:33Z</time></trkpt><trkpt lat="37.892160" lon="-6.478650"><ele>521.345</ele><time>2022-08-26T07:48:13Z</time></trkpt><trkpt lat="37.892260" lon="-6.477460"><ele>522.891</ele><time>2022-08-26T07:48:53Z</time></trkpt><trkpt lat="37.891870" lon="-6.477350"><ele>515.532</ele><time>2022-08-26T07:49:33Z</time></trkpt><trkpt lat="37.891660" lon="-6.476840"><ele>517.653</ele><time>2022-08-26T07:50:13Z</time></trkpt><trkpt lat="37.891240" lon="-6.476330"><ele>512.804</ele><time>2022-08-26T07:50:53Z</time></trkpt><trkpt lat="37.891140" lon="-6.475190"><ele>513.114</ele><time>2022-08-26T07:51:33Z</time></trkpt><trkpt lat="37.890840" lon="-6.474050"><ele>501.809</ele><time>2022-08-26T07:52:13Z</time></trkpt><trkpt lat="37.890890" lon="-6.473460"><ele>499.546</ele><time>2022-08-26T07:52:53Z</time></trkpt><trkpt lat="37.890760" lon="-6.472320"><ele>486.346</ele><time>2022-08-26T07:53:33Z</time></trkpt><trkpt lat="37.890890" lon="-6.472050"><ele>482.633</ele><time>2022-08-26T07:54:13Z</time></trkpt><trkpt lat="37.891070" lon="-6.471980"><ele>483.472</ele><time>2022-08-26T07:54:53Z</time></trkpt><trkpt lat="37.891430" lon="-6.471900"><ele>481.787</ele><time>2022-08-26T07:55:33Z</time></trkpt><trkpt lat="37.891490" lon="-6.471900"><ele>481.119</ele><time>2022-08-26T07:56:13Z</time></trkpt><trkpt lat="37.892160" lon="-6.472550"><ele>489.852</ele><time>2022-08-26T07:56:53Z</time></trkpt><trkpt lat="37.892490" lon="-6.472070"><ele>477.158</ele><time>2022-08-26T07:57:33Z</time></trkpt><trkpt lat="37.892730" lon="-6.471860"><ele>475.589</ele><time>2022-08-26T07:58:13Z</time></trkpt><trkpt lat="37.892900" lon="-6.471560"><ele>471.725</ele><time>2022-08-26T07:58:53Z</time></trkpt><trkpt lat="37.893430" lon="-6.471390"><ele>472.426</ele><time>2022-08-26T07:59:33Z</time></trkpt><trkpt lat="37.893870" lon="-6.469990"><ele>456.208</ele><time>2022-08-26T08:00:13Z</time></trkpt><trkpt lat="37.894260" lon="-6.469950"><ele>456.409</ele><time>2022-08-26T08:00:53Z</time></trkpt><trkpt lat="37.894480" lon="-6.470190"><ele>457.413</ele><time>2022-08-26T08:01:33Z</time></trkpt><trkpt lat="37.894670" lon="-6.471080"><ele>455.063</ele><time>2022-08-26T08:02:13Z</time></trkpt><trkpt lat="37.895140" lon="-6.471070"><ele>447.260</ele><time>2022-08-26T08:02:53Z</time></trkpt><trkpt lat="37.895970" lon="-6.471620"><ele>444.639</ele><time>2022-08-26T08:03:33Z</time></trkpt><trkpt lat="37.896180" lon="-6.471530"><ele>443.344</ele><time>2022-08-26T08:04:13Z</time></trkpt><trkpt lat="37.896720" lon="-6.470820"><ele>433.256</ele><time>2022-08-26T08:04:53Z</time></trkpt><trkpt lat="37.896890" lon="-6.470530"><ele>431.829</ele><time>2022-08-26T08:05:33Z</time></trkpt><trkpt lat="37.897280" lon="-6.470280"><ele>429.155</ele><time>2022-08-26T08:06:13Z</time></trkpt><trkpt lat="37.898630" lon="-6.470410"><ele>417.066</ele><time>2022-08-26T08:06:53Z</time></trkpt><trkpt lat="37.898900" lon="-6.470720"><ele>419.416</ele><time>2022-08-26T08:07:33Z</time></trkpt><trkpt lat="37.898990" lon="-6.470800"><ele>419.876</ele><time>2022-08-26T08:08:13Z</time></trkpt><trkpt lat="37.899050" lon="-6.470840"><ele>419.813</ele><time>2022-08-26T08:08:53Z</time></trkpt><trkpt lat="37.899860" lon="-6.470660"><ele>406.809</ele><time>2022-08-26T08:09:33Z</time></trkpt><trkpt lat="37.900250" lon="-6.470280"><ele>407.212</ele><time>2022-08-26T08:10:13Z</time></trkpt><trkpt lat="37.900590" lon="-6.470170"><ele>404.812</ele><time>2022-08-26T08:10:53Z</time></trkpt><trkpt lat="37.900730" lon="-6.469960"><ele>403.459</ele><time>2022-08-26T08:11:33Z</time></trkpt><trkpt lat="37.900980" lon="-6.469520"><ele>398.258</ele><time>2022-08-26T08:12:13Z</time></trkpt><trkpt lat="37.901140" lon="-6.468930"><ele>396.823</ele><time>2022-08-26T08:12:53Z</time></trkpt><trkpt lat="37.901850" lon="-6.468480"><ele>395.865</ele><time>2022-08-26T08:13:33Z</time></trkpt><trkpt lat="37.902030" lon="-6.467210"><ele>389.138</ele><time>2022-08-26T08:14:13Z</time></trkpt><trkpt lat="37.902160" lon="-6.467090"><ele>387.994</ele><time>2022-08-26T08:14:53Z</time></trkpt><trkpt lat="37.902250" lon="-6.467050"><ele>387.155</ele><time>2022-08-26T08:15:33Z</time></trkpt><trkpt lat="37.902790" lon="-6.466900"><ele>378.636</ele><time>2022-08-26T08:16:13Z</time></trkpt><trkpt lat="37.903160" lon="-6.466520"><ele>380.717</ele><time>2022-08-26T08:16:53Z</time></trkpt><trkpt lat="37.903750" lon="-6.466500"><ele>372.818</ele><time>2022-08-26T08:17:33Z</time></trkpt><trkpt lat="37.903860" lon="-6.465790"><ele>370.209</ele><time>2022-08-26T08:18:13Z</time></trkpt><trkpt lat="37.904100" lon="-6.465110"><ele>364.534</ele><time>2022-08-26T08:18:53Z</time></trkpt><trkpt lat="37.904130" lon="-6.464470"><ele>359.694</ele><time>2022-08-26T08:19:33Z</time></trkpt><trkpt lat="37.904370" lon="-6.463840"><ele>355.591</ele><time>2022-08-26T08:20:13Z</time></trkpt><trkpt lat="37.904350" lon="-6.463120"><ele>356.280</ele><time>2022-08-26T08:20:53Z</time></trkpt><trkpt lat="37.904580" lon="-6.462970"><ele>353.025</ele><time>2022-08-26T08:21:33Z</time></trkpt><trkpt lat="37.905040" lon="-6.463290"><ele>345.617</ele><time>2022-08-26T08:22:13Z</time></trkpt><trkpt lat="37.905270" lon="-6.463190"><ele>344.610</ele><time>2022-08-26T08:22:53Z</time></trkpt><trkpt lat="37.905530" lon="-6.462210"><ele>339.146</ele><time>2022-08-26T08:23:33Z</time></trkpt><trkpt lat="37.905740" lon="-6.461840"><ele>332.227</ele><time>2022-08-26T08:24:13Z</time></trkpt><trkpt lat="37.905800" lon="-6.461630"><ele>330.368</ele><time>2022-08-26T08:24:53Z</time></trkpt><trkpt lat="37.905980" lon="-6.459880"><ele>327.342</ele><time>2022-08-26T08:25:33Z</time></trkpt><trkpt lat="37.906630" lon="-6.456990"><ele>314.926</ele><time>2022-08-26T08:26:13Z</time></trkpt><trkpt lat="37.906540" lon="-6.455400"><ele>319.309</ele><time>2022-08-26T08:26:53Z</time></trkpt><trkpt lat="37.905880" lon="-6.453800"><ele>322.877</ele><time>2022-08-26T08:27:33Z</time></trkpt><trkpt lat="37.905230" lon="-6.453070"><ele>314.777</ele><time>2022-08-26T08:28:13Z</time></trkpt><trkpt lat="37.904950" lon="-6.452930"><ele>315.494</ele><time>2022-08-26T08:28:53Z</time></trkpt><trkpt lat="37.904200" lon="-6.452980"><ele>311.033</ele><time>2022-08-26T08:29:33Z</time></trkpt><trkpt lat="37.903960" lon="-6.453020"><ele>309.928</ele><time>2022-08-26T08:30:13Z</time></trkpt><trkpt lat="37.903250" lon="-6.453310"><ele>307.430</ele><time>2022-08-26T08:30:53Z</time></trkpt><trkpt lat="37.903020" lon="-6.453180"><ele>304.213</ele><time>2022-08-26T08:31:33Z</time></trkpt><trkpt lat="37.902270" lon="-6.451550"><ele>306.599</ele><time>2022-08-26T08:32:13Z</time></trkpt><trkpt lat="37.902150" lon="-6.450860"><ele>307.860</ele><time>2022-08-26T08:32:53Z</time></trkpt><trkpt lat="37.902160" lon="-6.450250"><ele>306.419</ele><time>2022-08-26T08:33:33Z</time></trkpt><trkpt lat="37.902750" lon="-6.448500"><ele>306.209</ele><time>2022-08-26T08:34:13Z</time></trkpt><trkpt lat="37.903330" lon="-6.446380"><ele>301.019</ele><time>2022-08-26T08:34:53Z</time></trkpt><trkpt lat="37.904080" lon="-6.441940"><ele>318.709</ele><time>2022-08-26T08:35:33Z</time></trkpt><trkpt lat="37.904070" lon="-6.441270"><ele>320.652</ele><time>2022-08-26T08:36:13Z</time></trkpt><trkpt lat="37.903660" lon="-6.438650"><ele>315.892</ele><time>2022-08-26T08:36:53Z</time></trkpt><trkpt lat="37.903750" lon="-6.437660"><ele>313.659</ele><time>2022-08-26T08:37:33Z</time></trkpt><trkpt lat="37.906660" lon="-6.432280"><ele>336.768</ele><time>2022-08-26T08:38:13Z</time></trkpt><trkpt lat="37.907550" lon="-6.430250"><ele>341.053</ele><time>2022-08-26T08:38:53Z</time></trkpt><trkpt lat="37.907960" lon="-6.427090"><ele>350.255</ele><time>2022-08-26T08:39:33Z</time></trkpt><trkpt lat="37.906920" lon="-6.423650"><ele>372.378</ele><time>2022-08-26T08:40:13Z</time></trkpt><trkpt lat="37.906680" lon="-6.419730"><ele>364.174</ele><time>2022-08-26T08:40:53Z</time></trkpt><trkpt lat="37.906680" lon="-6.417160"><ele>357.425</ele><time>2022-08-26T08:41:33Z</time></trkpt><trkpt lat="37.906610" lon="-6.416630"><ele>362.493</ele><time>2022-08-26T08:42:13Z</time></trkpt><trkpt lat="37.906110" lon="-6.414350"><ele>364.365</ele><time>2022-08-26T08:42:53Z</time></trkpt><trkpt lat="37.905220" lon="-6.410650"><ele>352.921</ele><time>2022-08-26T08:43:33Z</time></trkpt><trkpt lat="37.904860" lon="-6.407820"><ele>354.509</ele><time>2022-08-26T08:44:13Z</time></trkpt><trkpt lat="37.904680" lon="-6.404080"><ele>346.380</ele><time>2022-08-26T08:44:53Z</time></trkpt><trkpt lat="37.904810" lon="-6.403860"><ele>346.260</ele><time>2022-08-26T08:45:33Z</time></trkpt><trkpt lat="37.904880" lon="-6.403760"><ele>345.387</ele><time>2022-08-26T08:46:13Z</time></trkpt><trkpt lat="37.905060" lon="-6.403590"><ele>344.226</ele><time>2022-08-26T08:46:53Z</time></trkpt><trkpt lat="37.905770" lon="-6.403080"><ele>343.291</ele><time>2022-08-26T08:47:33Z</time></trkpt><trkpt lat="37.906130" lon="-6.402930"><ele>341.493</ele><time>2022-08-26T08:48:13Z</time></trkpt><trkpt lat="37.909000" lon="-6.402230"><ele>342.776</ele><time>2022-08-26T08:48:53Z</time></trkpt><trkpt lat="37.910030" lon="-6.402110"><ele>339.822</ele><time>2022-08-26T08:49:33Z</time></trkpt><trkpt lat="37.912290" lon="-6.402020"><ele>335.043</ele><time>2022-08-26T08:50:13Z</time></trkpt><trkpt lat="37.912750" lon="-6.401880"><ele>341.487</ele><time>2022-08-26T08:50:53Z</time></trkpt><trkpt lat="37.914240" lon="-6.399330"><ele>347.242</ele><time>2022-08-26T08:51:33Z</time></trkpt><trkpt lat="37.914480" lon="-6.399020"><ele>343.126</ele><time>2022-08-26T08:52:13Z</time></trkpt><trkpt lat="37.918130" lon="-6.395490"><ele>355.309</ele><time>2022-08-26T08:52:53Z</time></trkpt><trkpt lat="37.919040" lon="-6.394420"><ele>361.189</ele><time>2022-08-26T08:53:33Z</time></trkpt><trkpt lat="37.920510" lon="-6.393780"><ele>351.969</ele><time>2022-08-26T08:54:13Z</time></trkpt><trkpt lat="37.922020" lon="-6.393800"><ele>357.766</ele><time>2022-08-26T08:54:53Z</time></trkpt><trkpt lat="37.922300" lon="-6.393590"><ele>360.765</ele><time>2022-08-26T08:55:33Z</time></trkpt><trkpt lat="37.922430" lon="-6.393370"><ele>363.070</ele><time>2022-08-26T08:56:13Z</time></trkpt><trkpt lat="37.922780" lon="-6.392120"><ele>360.922</ele><time>2022-08-26T08:56:53Z</time></trkpt><trkpt lat="37.922960" lon="-6.391760"><ele>358.565</ele><time>2022-08-26T08:57:33Z</time></trkpt><trkpt lat="37.923700" lon="-6.391060"><ele>357.651</ele><time>2022-08-26T08:58:13Z</time></trkpt><trkpt lat="37.924020" lon="-6.390880"><ele>355.782</ele><time>2022-08-26T08:58:53Z</time></trkpt><trkpt lat="37.924740" lon="-6.390580"><ele>358.311</ele><time>2022-08-26T08:59:33Z</time></trkpt><trkpt lat="37.924920" lon="-6.390580"><ele>359.021</ele><time>2022-08-26T09:00:13Z</time></trkpt><trkpt lat="37.925930" lon="-6.390880"><ele>364.403</ele><time>2022-08-26T09:00:53Z</time></trkpt><trkpt lat="37.927080" lon="-6.390610"><ele>368.009</ele><time>2022-08-26T09:01:33Z</time></trkpt><trkpt lat="37.928590" lon="-6.389510"><ele>373.292</ele><time>2022-08-26T09:02:13Z</time></trkpt><trkpt lat="37.929330" lon="-6.389600"><ele>371.352</ele><time>2022-08-26T09:02:53Z</time></trkpt><trkpt lat="37.929680" lon="-6.389590"><ele>367.459</ele><time>2022-08-26T09:03:33Z</time></trkpt><trkpt lat="37.934380" lon="-6.388050"><ele>383.588</ele><time>2022-08-26T09:04:13Z</time></trkpt><trkpt lat="37.934580" lon="-6.387530"><ele>387.143</ele><time>2022-08-26T09:04:53Z</time></trkpt><trkpt lat="37.934210" lon="-6.386320"><ele>393.155</ele><time>2022-08-26T09:05:33Z</time></trkpt><trkpt lat="37.934200" lon="-6.385650"><ele>394.358</ele><time>2022-08-26T09:06:13Z</time></trkpt><trkpt lat="37.934500" lon="-6.385100"><ele>393.464</ele><time>2022-08-26T09:06:53Z</time></trkpt><trkpt lat="37.935690" lon="-6.384630"><ele>399.565</ele><time>2022-08-26T09:07:33Z</time></trkpt><trkpt lat="37.936650" lon="-6.384530"><ele>399.246</ele><time>2022-08-26T09:08:13Z</time></trkpt><trkpt lat="37.936970" lon="-6.384210"><ele>399.388</ele><time>2022-08-26T09:08:53Z</time></trkpt><trkpt lat="37.937100" lon="-6.383750"><ele>406.016</ele><time>2022-08-26T09:09:33Z</time></trkpt><trkpt lat="37.936920" lon="-6.383050"><ele>402.009</ele><time>2022-08-26T09:10:13Z</time></trkpt><trkpt lat="37.936880" lon="-6.382030"><ele>405.055</ele><time>2022-08-26T09:10:53Z</time></trkpt><trkpt lat="37.937210" lon="-6.380740"><ele>410.255</ele><time>2022-08-26T09:11:33Z</time></trkpt><trkpt lat="37.937660" lon="-6.379960"><ele>409.962</ele><time>2022-08-26T09:12:13Z</time></trkpt><trkpt lat="37.937910" lon="-6.379680"><ele>405.461</ele><time>2022-08-26T09:12:53Z</time></trkpt><trkpt lat="37.938610" lon="-6.379730"><ele>412.326</ele><time>2022-08-26T09:13:33Z</time></trkpt><trkpt lat="37.939240" lon="-6.379590"><ele>400.868</ele><time>2022-08-26T09:14:13Z</time></trkpt><trkpt lat="37.939850" lon="-6.379770"><ele>405.821</ele><time>2022-08-26T09:14:53Z</time></trkpt><trkpt lat="37.939910" lon="-6.379760"><ele>406.087</ele><time>2022-08-26T09:15:33Z</time></trkpt><trkpt lat="37.940230" lon="-6.378840"><ele>397.188</ele><time>2022-08-26T09:16:13Z</time></trkpt><trkpt lat="37.940500" lon="-6.378670"><ele>397.636</ele><time>2022-08-26T09:16:53Z</time></trkpt><trkpt lat="37.940700" lon="-6.378630"><ele>396.317</ele><time>2022-08-26T09:17:33Z</time></trkpt><trkpt lat="37.940980" lon="-6.379020"><ele>400.218</ele><time>2022-08-26T09:18:13Z</time></trkpt><trkpt lat="37.941900" lon="-6.380970"><ele>404.309</ele><time>2022-08-26T09:18:53Z</time></trkpt><trkpt lat="37.942730" lon="-6.381470"><ele>398.844</ele><time>2022-08-26T09:19:33Z</time></trkpt><trkpt lat="37.943630" lon="-6.381580"><ele>397.174</ele><time>2022-08-26T09:20:13Z</time></trkpt><trkpt lat="37.945280" lon="-6.380440"><ele>395.271</ele><time>2022-08-26T09:20:53Z</time></trkpt><trkpt lat="37.945490" lon="-6.380330"><ele>395.370</ele><time>2022-08-26T09:21:33Z</time></trkpt><trkpt lat="37.946720" lon="-6.380310"><ele>395.485</ele><time>2022-08-26T09:22:13Z</time></trkpt><trkpt lat="37.946900" lon="-6.379550"><ele>393.827</ele><time>2022-08-26T09:22:53Z</time></trkpt><trkpt lat="37.947410" lon="-6.378120"><ele>388.330</ele><time>2022-08-26T09:23:33Z</time></trkpt><trkpt lat="37.949050" lon="-6.375670"><ele>398.026</ele><time>2022-08-26T09:24:13Z</time></trkpt><trkpt lat="37.949200" lon="-6.375550"><ele>398.217</ele><time>2022-08-26T09:24:53Z</time></trkpt><trkpt lat="37.950320" lon="-6.375350"><ele>401.642</ele><time>2022-08-26T09:25:33Z</time></trkpt><trkpt lat="37.951150" lon="-6.375760"><ele>411.722</ele><time>2022-08-26T09:26:13Z</time></trkpt><trkpt lat="37.951700" lon="-6.375620"><ele>405.314</ele><time>2022-08-26T09:26:53Z</time></trkpt><trkpt lat="37.952760" lon="-6.373100"><ele>401.009</ele><time>2022-08-26T09:27:33Z</time></trkpt><trkpt lat="37.953000" lon="-6.372860"><ele>399.945</ele><time>2022-08-26T09:28:13Z</time></trkpt><trkpt lat="37.955100" lon="-6.372440"><ele>401.025</ele><time>2022-08-26T09:28:53Z</time></trkpt><trkpt lat="37.956050" lon="-6.372030"><ele>409.042</ele><time>2022-08-26T09:29:33Z</time></trkpt><trkpt lat="37.955910" lon="-6.371340"><ele>405.241</ele><time>2022-08-26T09:30:13Z</time></trkpt><trkpt lat="37.955610" lon="-6.371280"><ele>407.756</ele><time>2022-08-26T09:30:53Z</time></trkpt><trkpt lat="37.955240" lon="-6.371300"><ele>410.778</ele><time>2022-08-26T09:31:33Z</time></trkpt><trkpt lat="37.955020" lon="-6.371220"><ele>411.621</ele><time>2022-08-26T09:32:13Z</time></trkpt><trkpt lat="37.954590" lon="-6.370670"><ele>419.157</ele><time>2022-08-26T09:32:53Z</time></trkpt><trkpt lat="37.954850" lon="-6.370420"><ele>426.198</ele><time>2022-08-26T09:33:33Z</time></trkpt><trkpt lat="37.955430" lon="-6.370690"><ele>425.266</ele><time>2022-08-26T09:34:13Z</time></trkpt><trkpt lat="37.955880" lon="-6.370650"><ele>425.629</ele><time>2022-08-26T09:34:53Z</time></trkpt><trkpt lat="37.957200" lon="-6.369990"><ele>424.921</ele><time>2022-08-26T09:35:33Z</time></trkpt><trkpt lat="37.957500" lon="-6.369640"><ele>429.109</ele><time>2022-08-26T09:36:13Z</time></trkpt><trkpt lat="37.957640" lon="-6.369090"><ele>430.757</ele><time>2022-08-26T09:36:53Z</time></trkpt><trkpt lat="37.957600" lon="-6.368540"><ele>430.447</ele><time>2022-08-26T09:37:33Z</time></trkpt><trkpt lat="37.957380" lon="-6.367340"><ele>433.224</ele><time>2022-08-26T09:38:13Z</time></trkpt><trkpt lat="37.956600" lon="-6.365110"><ele>440.323</ele><time>2022-08-26T09:38:53Z</time></trkpt><trkpt lat="37.955630" lon="-6.361750"><ele>443.498</ele><time>2022-08-26T09:39:33Z</time></trkpt><trkpt lat="37.955360" lon="-6.360140"><ele>451.470</ele><time>2022-08-26T09:40:13Z</time></trkpt><trkpt lat="37.955300" lon="-6.355550"><ele>454.943</ele><time>2022-08-26T09:40:53Z</time></trkpt><trkpt lat="37.955390" lon="-6.354040"><ele>455.989</ele><time>2022-08-26T09:41:33Z</time></trkpt><trkpt lat="37.955140" lon="-6.352460"><ele>455.510</ele><time>2022-08-26T09:42:13Z</time></trkpt><trkpt lat="37.955180" lon="-6.350420"><ele>458.967</ele><time>2022-08-26T09:42:53Z</time></trkpt><trkpt lat="37.955090" lon="-6.349400"><ele>461.081</ele><time>2022-08-26T09:43:33Z</time></trkpt><trkpt lat="37.954800" lon="-6.348200"><ele>465.119</ele><time>2022-08-26T09:44:13Z</time></trkpt><trkpt lat="37.955050" lon="-6.346510"><ele>471.209</ele><time>2022-08-26T09:44:53Z</time></trkpt><trkpt lat="37.954820" lon="-6.345020"><ele>475.367</ele><time>2022-08-26T09:45:33Z</time></trkpt><trkpt lat="37.955080" lon="-6.343740"><ele>487.747</ele><time>2022-08-26T09:46:13Z</time></trkpt><trkpt lat="37.955600" lon="-6.342540"><ele>500.054</ele><time>2022-08-26T09:46:53Z</time></trkpt><trkpt lat="37.956120" lon="-6.341020"><ele>513.853</ele><time>2022-08-26T09:47:33Z</time></trkpt><trkpt lat="37.956000" lon="-6.339770"><ele>518.948</ele><time>2022-08-26T09:48:13Z</time></trkpt><trkpt lat="37.955760" lon="-6.339140"><ele>522.260</ele><time>2022-08-26T09:48:53Z</time></trkpt><trkpt lat="37.955740" lon="-6.339060"><ele>522.153</ele><time>2022-08-26T09:49:33Z</time></trkpt><trkpt lat="37.955770" lon="-6.337930"><ele>524.619</ele><time>2022-08-26T09:50:13Z</time></trkpt><trkpt lat="37.956400" lon="-6.332690"><ele>557.660</ele><time>2022-08-26T09:50:53Z</time></trkpt><trkpt lat="37.956410" lon="-6.332180"><ele>561.119</ele><time>2022-08-26T09:51:33Z</time></trkpt><trkpt lat="37.956110" lon="-6.331590"><ele>563.809</ele><time>2022-08-26T09:52:13Z</time></trkpt><trkpt lat="37.955740" lon="-6.330130"><ele>574.019</ele><time>2022-08-26T09:52:53Z</time></trkpt><trkpt lat="37.955900" lon="-6.329660"><ele>578.609</ele><time>2022-08-26T09:53:33Z</time></trkpt><trkpt lat="37.956490" lon="-6.329170"><ele>585.732</ele><time>2022-08-26T09:54:13Z</time></trkpt><trkpt lat="37.956380" lon="-6.326900"><ele>596.412</ele><time>2022-08-26T09:54:53Z</time></trkpt><trkpt lat="37.956460" lon="-6.325690"><ele>611.499</ele><time>2022-08-26T09:55:33Z</time></trkpt><trkpt lat="37.956640" lon="-6.325110"><ele>610.238</ele><time>2022-08-26T09:56:13Z</time></trkpt><trkpt lat="37.957210" lon="-6.324670"><ele>615.573</ele><time>2022-08-26T09:56:53Z</time></trkpt><trkpt lat="37.958000" lon="-6.324390"><ele>616.855</ele><time>2022-08-26T09:57:33Z</time></trkpt><trkpt lat="37.959450" lon="-6.323510"><ele>622.858</ele><time>2022-08-26T09:58:13Z</time></trkpt><trkpt lat="37.959580" lon="-6.323470"><ele>625.014</ele><time>2022-08-26T09:58:53Z</time></trkpt><trkpt lat="37.960710" lon="-6.323430"><ele>630.345</ele><time>2022-08-26T09:59:33Z</time></trkpt><trkpt lat="37.961960" lon="-6.323640"><ele>628.987</ele><time>2022-08-26T10:00:13Z</time></trkpt><trkpt lat="37.963090" lon="-6.323410"><ele>625.642</ele><time>2022-08-26T10:00:53Z</time></trkpt><trkpt lat="37.963920" lon="-6.323340"><ele>625.226</ele><time>2022-08-26T10:01:33Z</time></trkpt><trkpt lat="37.964260" lon="-6.323190"><ele>626.309</ele><time>2022-08-26T10:02:13Z</time></trkpt><trkpt lat="37.964770" lon="-6.322930"><ele>628.879</ele><time>2022-08-26T10:02:53Z</time></trkpt><trkpt lat="37.964940" lon="-6.322880"><ele>628.099</ele><time>2022-08-26T10:03:33Z</time></trkpt><trkpt lat="37.967130" lon="-6.322920"><ele>631.036</ele><time>2022-08-26T10:04:13Z</time></trkpt><trkpt lat="37.967850" lon="-6.322750"><ele>624.535</ele><time>2022-08-26T10:04:53Z</time></trkpt><trkpt lat="37.970010" lon="-6.321860"><ele>610.190</ele><time>2022-08-26T10:05:33Z</time></trkpt><trkpt lat="37.970200" lon="-6.322030"><ele>611.732</ele><time>2022-08-26T10:06:13Z</time></trkpt><trkpt lat="37.970190" lon="-6.321620"><ele>610.635</ele><time>2022-08-26T10:06:53Z</time></trkpt><trkpt lat="37.970840" lon="-6.320580"><ele>611.071</ele><time>2022-08-26T10:07:33Z</time></trkpt><trkpt lat="37.970900" lon="-6.320170"><ele>609.712</ele><time>2022-08-26T10:08:13Z</time></trkpt><trkpt lat="37.971400" lon="-6.319290"><ele>602.935</ele><time>2022-08-26T10:08:53Z</time></trkpt><trkpt lat="37.971880" lon="-6.318730"><ele>600.486</ele><time>2022-08-26T10:09:33Z</time></trkpt><trkpt lat="37.971220" lon="-6.318080"><ele>598.114</ele><time>2022-08-26T10:10:13Z</time></trkpt><trkpt lat="37.971370" lon="-6.317720"><ele>595.909</ele><time>2022-08-26T10:10:53Z</time></trkpt><trkpt lat="37.970840" lon="-6.316590"><ele>594.714</ele><time>2022-08-26T10:11:33Z</time></trkpt><trkpt lat="37.970540" lon="-6.315770"><ele>590.814</ele><time>2022-08-26T10:12:13Z</time></trkpt><trkpt lat="37.970170" lon="-6.315780"><ele>592.081</ele><time>2022-08-26T10:12:53Z</time></trkpt><trkpt lat="37.970000" lon="-6.315530"><ele>590.850</ele><time>2022-08-26T10:13:33Z</time></trkpt><trkpt lat="37.968780" lon="-6.314700"><ele>589.035</ele><time>2022-08-26T10:14:13Z</time></trkpt><trkpt lat="37.968590" lon="-6.314610"><ele>589.057</ele><time>2022-08-26T10:14:53Z</time></trkpt><trkpt lat="37.967980" lon="-6.314190"><ele>589.950</ele><time>2022-08-26T10:15:33Z</time></trkpt><trkpt lat="37.966790" lon="-6.314150"><ele>594.136</ele><time>2022-08-26T10:16:13Z</time></trkpt><trkpt lat="37.966500" lon="-6.314080"><ele>596.637</ele><time>2022-08-26T10:16:53Z</time></trkpt><trkpt lat="37.965690" lon="-6.313340"><ele>596.136</ele><time>2022-08-26T10:17:33Z</time></trkpt><trkpt lat="37.965220" lon="-6.313680"><ele>601.117</ele><time>2022-08-26T10:18:13Z</time></trkpt><trkpt lat="37.964710" lon="-6.313670"><ele>605.518</ele><time>2022-08-26T10:18:53Z</time></trkpt><trkpt lat="37.964550" lon="-6.313670"><ele>606.009</ele><time>2022-08-26T10:19:33Z</time></trkpt><trkpt lat="37.963960" lon="-6.313580"><ele>609.374</ele><time>2022-08-26T10:20:13Z</time></trkpt><trkpt lat="37.962980" lon="-6.313870"><ele>612.414</ele><time>2022-08-26T10:20:53Z</time></trkpt><trkpt lat="37.961650" lon="-6.313500"><ele>617.231</ele><time>2022-08-26T10:21:33Z</time></trkpt><trkpt lat="37.960690" lon="-6.313480"><ele>608.970</ele><time>2022-08-26T10:22:13Z</time></trkpt><trkpt lat="37.960260" lon="-6.313660"><ele>603.645</ele><time>2022-08-26T10:22:53Z</time></trkpt><trkpt lat="37.959830" lon="-6.313930"><ele>598.117</ele><time>2022-08-26T10:23:33Z</time></trkpt><trkpt lat="37.959700" lon="-6.313850"><ele>596.510</ele><time>2022-08-26T10:24:13Z</time></trkpt><trkpt lat="37.958580" lon="-6.311670"><ele>586.996</ele><time>2022-08-26T10:24:53Z</time></trkpt><trkpt lat="37.958150" lon="-6.311450"><ele>584.737</ele><time>2022-08-26T10:25:33Z</time></trkpt><trkpt lat="37.957020" lon="-6.310730"><ele>577.761</ele><time>2022-08-26T10:26:13Z</time></trkpt><trkpt lat="37.956320" lon="-6.310490"><ele>581.821</ele><time>2022-08-26T10:26:53Z</time></trkpt><trkpt lat="37.955360" lon="-6.309560"><ele>589.013</ele><time>2022-08-26T10:27:33Z</time></trkpt><trkpt lat="37.956160" lon="-6.308040"><ele>588.209</ele><time>2022-08-26T10:28:13Z</time></trkpt><trkpt lat="37.956260" lon="-6.307740"><ele>586.687</ele><time>2022-08-26T10:28:53Z</time></trkpt><trkpt lat="37.956230" lon="-6.306540"><ele>578.157</ele><time>2022-08-26T10:29:33Z</time></trkpt><trkpt lat="37.955560" lon="-6.304330"><ele>575.114</ele><time>2022-08-26T10:30:13Z</time></trkpt><trkpt lat="37.955100" lon="-6.303580"><ele>576.163</ele><time>2022-08-26T10:30:53Z</time></trkpt><trkpt lat="37.954630" lon="-6.303250"><ele>577.348</ele><time>2022-08-26T10:31:33Z</time></trkpt><trkpt lat="37.953730" lon="-6.302760"><ele>572.490</ele><time>2022-08-26T10:32:13Z</time></trkpt><trkpt lat="37.952760" lon="-6.301130"><ele>567.143</ele><time>2022-08-26T10:32:53Z</time></trkpt><trkpt lat="37.951320" lon="-6.299590"><ele>572.079</ele><time>2022-08-26T10:33:33Z</time></trkpt><trkpt lat="37.950240" lon="-6.298890"><ele>572.330</ele><time>2022-08-26T10:34:13Z</time></trkpt><trkpt lat="37.949980" lon="-6.298670"><ele>573.275</ele><time>2022-08-26T10:34:53Z</time></trkpt><trkpt lat="37.949550" lon="-6.298410"><ele>573.228</ele><time>2022-08-26T10:35:33Z</time></trkpt><trkpt lat="37.947900" lon="-6.297840"><ele>576.220</ele><time>2022-08-26T10:36:13Z</time></trkpt><trkpt lat="37.947390" lon="-6.297710"><ele>577.409</ele><time>2022-08-26T10:36:53Z</time></trkpt><trkpt lat="37.946550" lon="-6.296770"><ele>581.838</ele><time>2022-08-26T10:37:33Z</time></trkpt><trkpt lat="37.945950" lon="-6.296450"><ele>588.228</ele><time>2022-08-26T10:38:13Z</time></trkpt><trkpt lat="37.945670" lon="-6.296280"><ele>591.695</ele><time>2022-08-26T10:38:53Z</time></trkpt><trkpt lat="37.944930" lon="-6.295350"><ele>596.314</ele><time>2022-08-26T10:39:33Z</time></trkpt><trkpt lat="37.944340" lon="-6.293830"><ele>608.419</ele><time>2022-08-26T10:40:13Z</time></trkpt><trkpt lat="37.943850" lon="-6.293360"><ele>613.781</ele><time>2022-08-26T10:40:53Z</time></trkpt><trkpt lat="37.943560" lon="-6.293140"><ele>614.154</ele><time>2022-08-26T10:41:33Z</time></trkpt><trkpt lat="37.943330" lon="-6.292730"><ele>613.510</ele><time>2022-08-26T10:42:13Z</time></trkpt><trkpt lat="37.943070" lon="-6.292330"><ele>615.931</ele><time>2022-08-26T10:42:53Z</time></trkpt><trkpt lat="37.942630" lon="-6.291840"><ele>616.421</ele><time>2022-08-26T10:43:33Z</time></trkpt><trkpt lat="37.940870" lon="-6.290370"><ele>626.741</ele><time>2022-08-26T10:44:13Z</time></trkpt><trkpt lat="37.940100" lon="-6.289900"><ele>637.205</ele><time>2022-08-26T10:44:53Z</time></trkpt><trkpt lat="37.939580" lon="-6.289220"><ele>640.109</ele><time>2022-08-26T10:45:33Z</time></trkpt><trkpt lat="37.939130" lon="-6.288910"><ele>646.873</ele><time>2022-08-26T10:46:13Z</time></trkpt><trkpt lat="37.938780" lon="-6.288600"><ele>652.063</ele><time>2022-08-26T10:46:53Z</time></trkpt><trkpt lat="37.937800" lon="-6.287980"><ele>666.710</ele><time>2022-08-26T10:47:33Z</time></trkpt><trkpt lat="37.937520" lon="-6.287890"><ele>669.889</ele><time>2022-08-26T10:48:13Z</time></trkpt><trkpt lat="37.937090" lon="-6.287570"><ele>675.784</ele><time>2022-08-26T10:48:53Z</time></trkpt><trkpt lat="37.936800" lon="-6.287350"><ele>678.036</ele><time>2022-08-26T10:49:33Z</time></trkpt><trkpt lat="37.934360" lon="-6.286160"><ele>669.699</ele><time>2022-08-26T10:50:13Z</time></trkpt><trkpt lat="37.933880" lon="-6.286140"><ele>670.965</ele><time>2022-08-26T10:50:53Z</time></trkpt><trkpt lat="37.933130" lon="-6.285970"><ele>665.736</ele><time>2022-08-26T10:51:33Z</time></trkpt><trkpt lat="37.932500" lon="-6.286450"><ele>655.898</ele><time>2022-08-26T10:52:13Z</time></trkpt><trkpt lat="37.931900" lon="-6.286910"><ele>664.615</ele><time>2022-08-26T10:52:53Z</time></trkpt><trkpt lat="37.931460" lon="-6.286800"><ele>666.226</ele><time>2022-08-26T10:53:33Z</time></trkpt><trkpt lat="37.931170" lon="-6.286390"><ele>658.809</ele><time>2022-08-26T10:54:13Z</time></trkpt><trkpt lat="37.930510" lon="-6.285840"><ele>656.610</ele><time>2022-08-26T10:54:53Z</time></trkpt><trkpt lat="37.930200" lon="-6.284650"><ele>651.570</ele><time>2022-08-26T10:55:33Z</time></trkpt><trkpt lat="37.929990" lon="-6.284360"><ele>653.577</ele><time>2022-08-26T10:56:13Z</time></trkpt><trkpt lat="37.928500" lon="-6.283260"><ele>647.046</ele><time>2022-08-26T10:56:53Z</time></trkpt><trkpt lat="37.928190" lon="-6.282860"><ele>644.971</ele><time>2022-08-26T10:57:33Z</time></trkpt><trkpt lat="37.927230" lon="-6.280720"><ele>641.033</ele><time>2022-08-26T10:58:13Z</time></trkpt><trkpt lat="37.926930" lon="-6.280420"><ele>641.526</ele><time>2022-08-26T10:58:53Z</time></trkpt><trkpt lat="37.927100" lon="-6.280030"><ele>639.732</ele><time>2022-08-26T10:59:33Z</time></trkpt><trkpt lat="37.927380" lon="-6.279780"><ele>640.573</ele><time>2022-08-26T11:00:13Z</time></trkpt><trkpt lat="37.928010" lon="-6.280590"><ele>635.374</ele><time>2022-08-26T11:00:53Z</time></trkpt><trkpt lat="37.928270" lon="-6.281130"><ele>635.456</ele><time>2022-08-26T11:01:33Z</time></trkpt><trkpt lat="37.928540" lon="-6.281240"><ele>635.621</ele><time>2022-08-26T11:02:13Z</time></trkpt><trkpt lat="37.928770" lon="-6.281200"><ele>633.409</ele><time>2022-08-26T11:02:53Z</time></trkpt><trkpt lat="37.929760" lon="-6.280550"><ele>623.528</ele><time>2022-08-26T11:03:33Z</time></trkpt><trkpt lat="37.930200" lon="-6.280420"><ele>617.588</ele><time>2022-08-26T11:04:13Z</time></trkpt><trkpt lat="37.930010" lon="-6.278020"><ele>613.525</ele><time>2022-08-26T11:04:53Z</time></trkpt><trkpt lat="37.929590" lon="-6.276660"><ele>606.364</ele><time>2022-08-26T11:05:33Z</time></trkpt><trkpt lat="37.929410" lon="-6.276060"><ele>609.879</ele><time>2022-08-26T11:06:13Z</time></trkpt><trkpt lat="37.929410" lon="-6.274620"><ele>607.781</ele><time>2022-08-26T11:06:53Z</time></trkpt><trkpt lat="37.929400" lon="-6.273680"><ele>605.444</ele><time>2022-08-26T11:07:33Z</time></trkpt><trkpt lat="37.929010" lon="-6.272440"><ele>616.830</ele><time>2022-08-26T11:08:13Z</time></trkpt><trkpt lat="37.928610" lon="-6.271270"><ele>617.781</ele><time>2022-08-26T11:08:53Z</time></trkpt><trkpt lat="37.928130" lon="-6.270790"><ele>610.329</ele><time>2022-08-26T11:09:33Z</time></trkpt><trkpt lat="37.927320" lon="-6.270200"><ele>608.700</ele><time>2022-08-26T11:10:13Z</time></trkpt><trkpt lat="37.927000" lon="-6.269110"><ele>603.920</ele><time>2022-08-26T11:10:53Z</time></trkpt><trkpt lat="37.926870" lon="-6.268610"><ele>602.909</ele><time>2022-08-26T11:11:33Z</time></trkpt><trkpt lat="37.926620" lon="-6.268250"><ele>600.423</ele><time>2022-08-26T11:12:13Z</time></trkpt><trkpt lat="37.926060" lon="-6.267790"><ele>596.883</ele><time>2022-08-26T11:12:53Z</time></trkpt><trkpt lat="37.925900" lon="-6.267480"><ele>600.920</ele><time>2022-08-26T11:13:33Z</time></trkpt><trkpt lat="37.925250" lon="-6.265800"><ele>590.569</ele><time>2022-08-26T11:14:13Z</time></trkpt><trkpt lat="37.925060" lon="-6.265570"><ele>593.244</ele><time>2022-08-26T11:14:53Z</time></trkpt><trkpt lat="37.924610" lon="-6.265370"><ele>590.466</ele><time>2022-08-26T11:15:33Z</time></trkpt><trkpt lat="37.923380" lon="-6.265670"><ele>593.479</ele><time>2022-08-26T11:16:13Z</time></trkpt><trkpt lat="37.922780" lon="-6.265490"><ele>587.365</ele><time>2022-08-26T11:16:53Z</time></trkpt><trkpt lat="37.922510" lon="-6.265150"><ele>588.086</ele><time>2022-08-26T11:17:33Z</time></trkpt><trkpt lat="37.922110" lon="-6.264210"><ele>582.688</ele><time>2022-08-26T11:18:13Z</time></trkpt><trkpt lat="37.921790" lon="-6.263890"><ele>582.724</ele><time>2022-08-26T11:18:53Z</time></trkpt><trkpt lat="37.921240" lon="-6.263800"><ele>587.126</ele><time>2022-08-26T11:19:33Z</time></trkpt><trkpt lat="37.920890" lon="-6.263960"><ele>588.609</ele><time>2022-08-26T11:20:13Z</time></trkpt><trkpt lat="37.920680" lon="-6.264080"><ele>588.229</ele><time>2022-08-26T11:20:53Z</time></trkpt><trkpt lat="37.919940" lon="-6.263950"><ele>577.629</ele><time>2022-08-26T11:21:33Z</time></trkpt><trkpt lat="37.919520" lon="-6.263260"><ele>585.516</ele><time>2022-08-26T11:22:13Z</time></trkpt><trkpt lat="37.919630" lon="-6.262410"><ele>584.055</ele><time>2022-08-26T11:22:53Z</time></trkpt><trkpt lat="37.920080" lon="-6.261920"><ele>588.450</ele><time>2022-08-26T11:23:33Z</time></trkpt><trkpt lat="37.921200" lon="-6.261980"><ele>583.262</ele><time>2022-08-26T11:24:13Z</time></trkpt><trkpt lat="37.922280" lon="-6.261640"><ele>589.335</ele><time>2022-08-26T11:24:53Z</time></trkpt><trkpt lat="37.923360" lon="-6.261760"><ele>584.721</ele><time>2022-08-26T11:25:33Z</time></trkpt><trkpt lat="37.923940" lon="-6.261250"><ele>587.292</ele><time>2022-08-26T11:26:13Z</time></trkpt><trkpt lat="37.924100" lon="-6.261110"><ele>588.085</ele><time>2022-08-26T11:26:53Z</time></trkpt><trkpt lat="37.926620" lon="-6.259520"><ele>584.489</ele><time>2022-08-26T11:27:33Z</time></trkpt><trkpt lat="37.926870" lon="-6.258960"><ele>584.317</ele><time>2022-08-26T11:28:13Z</time></trkpt><trkpt lat="37.927020" lon="-6.257540"><ele>583.809</ele><time>2022-08-26T11:28:53Z</time></trkpt><trkpt lat="37.927100" lon="-6.257340"><ele>584.849</ele><time>2022-08-26T11:29:33Z</time></trkpt><trkpt lat="37.927200" lon="-6.257130"><ele>585.529</ele><time>2022-08-26T11:30:13Z</time></trkpt><trkpt lat="37.927230" lon="-6.256250"><ele>585.986</ele><time>2022-08-26T11:30:53Z</time></trkpt><trkpt lat="37.926770" lon="-6.255660"><ele>583.525</ele><time>2022-08-26T11:31:33Z</time></trkpt><trkpt lat="37.924640" lon="-6.255090"><ele>584.360</ele><time>2022-08-26T11:32:13Z</time></trkpt><trkpt lat="37.923840" lon="-6.254300"><ele>584.642</ele><time>2022-08-26T11:32:53Z</time></trkpt><trkpt lat="37.923050" lon="-6.253480"><ele>584.235</ele><time>2022-08-26T11:33:33Z</time></trkpt><trkpt lat="37.922740" lon="-6.253280"><ele>585.151</ele><time>2022-08-26T11:34:13Z</time></trkpt><trkpt lat="37.922180" lon="-6.253010"><ele>584.072</ele><time>2022-08-26T11:34:53Z</time></trkpt><trkpt lat="37.921890" lon="-6.252630"><ele>583.383</ele><time>2022-08-26T11:35:33Z</time></trkpt><trkpt lat="37.921540" lon="-6.252070"><ele>582.625</ele><time>2022-08-26T11:36:13Z</time></trkpt><trkpt lat="37.920370" lon="-6.251850"><ele>587.517</ele><time>2022-08-26T11:36:53Z</time></trkpt><trkpt lat="37.919900" lon="-6.251510"><ele>584.409</ele><time>2022-08-26T11:37:33Z</time></trkpt><trkpt lat="37.918690" lon="-6.247740"><ele>586.999</ele><time>2022-08-26T11:38:13Z</time></trkpt><trkpt lat="37.918610" lon="-6.246570"><ele>583.319</ele><time>2022-08-26T11:38:53Z</time></trkpt><trkpt lat="37.918530" lon="-6.246240"><ele>582.026</ele><time>2022-08-26T11:39:33Z</time></trkpt><trkpt lat="37.918330" lon="-6.245920"><ele>583.055</ele><time>2022-08-26T11:40:13Z</time></trkpt><trkpt lat="37.917900" lon="-6.245630"><ele>581.940</ele><time>2022-08-26T11:40:53Z</time></trkpt><trkpt lat="37.917760" lon="-6.245610"><ele>580.132</ele><time>2022-08-26T11:41:33Z</time></trkpt><trkpt lat="37.917490" lon="-6.245630"><ele>576.515</ele><time>2022-08-26T11:42:13Z</time></trkpt><trkpt lat="37.915680" lon="-6.246730"><ele>570.621</ele><time>2022-08-26T11:42:53Z</time></trkpt><trkpt lat="37.915020" lon="-6.247060"><ele>567.592</ele><time>2022-08-26T11:43:33Z</time></trkpt><trkpt lat="37.913210" lon="-6.246520"><ele>562.149</ele><time>2022-08-26T11:44:13Z</time></trkpt><trkpt lat="37.912530" lon="-6.246860"><ele>560.602</ele><time>2022-08-26T11:44:53Z</time></trkpt><trkpt lat="37.910280" lon="-6.248240"><ele>555.722</ele><time>2022-08-26T11:45:33Z</time></trkpt><trkpt lat="37.909730" lon="-6.248360"><ele>556.209</ele><time>2022-08-26T11:46:13Z</time></trkpt><trkpt lat="37.909140" lon="-6.248180"><ele>553.445</ele><time>2022-08-26T11:46:53Z</time></trkpt><trkpt lat="37.908780" lon="-6.247830"><ele>551.565</ele><time>2022-08-26T11:47:33Z</time></trkpt><trkpt lat="37.906980" lon="-6.244900"><ele>547.272</ele><time>2022-08-26T11:48:13Z</time></trkpt><trkpt lat="37.906670" lon="-6.244350"><ele>546.321</ele><time>2022-08-26T11:48:53Z</time></trkpt><trkpt lat="37.906460" lon="-6.242740"><ele>540.326</ele><time>2022-08-26T11:49:33Z</time></trkpt><trkpt lat="37.906460" lon="-6.242450"><ele>539.218</ele><time>2022-08-26T11:50:13Z</time></trkpt><trkpt lat="37.906300" lon="-6.241470"><ele>534.671</ele><time>2022-08-26T11:50:53Z</time></trkpt><trkpt lat="37.905990" lon="-6.240890"><ele>536.597</ele><time>2022-08-26T11:51:33Z</time></trkpt><trkpt lat="37.905890" lon="-6.240750"><ele>536.848</ele><time>2022-08-26T11:52:13Z</time></trkpt><trkpt lat="37.905420" lon="-6.240350"><ele>534.146</ele><time>2022-08-26T11:52:53Z</time></trkpt><trkpt lat="37.902730" lon="-6.238840"><ele>530.888</ele><time>2022-08-26T11:53:33Z</time></trkpt><trkpt lat="37.901560" lon="-6.238310"><ele>529.316</ele><time>2022-08-26T11:54:13Z</time></trkpt><trkpt lat="37.900640" lon="-6.237640"><ele>530.609</ele><time>2022-08-26T11:54:53Z</time></trkpt><trkpt lat="37.902130" lon="-6.235920"><ele>515.315</ele><time>2022-08-26T11:55:33Z</time></trkpt><trkpt lat="37.902280" lon="-6.235660"><ele>513.535</ele><time>2022-08-26T11:56:13Z</time></trkpt><trkpt lat="37.902560" lon="-6.235110"><ele>509.242</ele><time>2022-08-26T11:56:53Z</time></trkpt><trkpt lat="37.903280" lon="-6.234740"><ele>508.791</ele><time>2022-08-26T11:57:33Z</time></trkpt><trkpt lat="37.903210" lon="-6.234040"><ele>513.426</ele><time>2022-08-26T11:58:13Z</time></trkpt><trkpt lat="37.903340" lon="-6.233740"><ele>516.118</ele><time>2022-08-26T11:58:53Z</time></trkpt><trkpt lat="37.903450" lon="-6.233610"><ele>518.351</ele><time>2022-08-26T11:59:33Z</time></trkpt><trkpt lat="37.903690" lon="-6.233510"><ele>522.037</ele><time>2022-08-26T12:00:13Z</time></trkpt><trkpt lat="37.904210" lon="-6.234030"><ele>524.438</ele><time>2022-08-26T12:00:53Z</time></trkpt><trkpt lat="37.904470" lon="-6.233740"><ele>528.536</ele><time>2022-08-26T12:01:33Z</time></trkpt><trkpt lat="37.904880" lon="-6.232820"><ele>527.917</ele><time>2022-08-26T12:02:13Z</time></trkpt><trkpt lat="37.905100" lon="-6.231910"><ele>520.618</ele><time>2022-08-26T12:02:53Z</time></trkpt><trkpt lat="37.905190" lon="-6.231430"><ele>520.309</ele><time>2022-08-26T12:03:33Z</time></trkpt><trkpt lat="37.905360" lon="-6.231370"><ele>520.594</ele><time>2022-08-26T12:04:13Z</time></trkpt><trkpt lat="37.905420" lon="-6.231110"><ele>520.034</ele><time>2022-08-26T12:04:53Z</time></trkpt><trkpt lat="37.905600" lon="-6.230500"><ele>516.241</ele><time>2022-08-26T12:05:33Z</time></trkpt><trkpt lat="37.905690" lon="-6.229830"><ele>516.070</ele><time>2022-08-26T12:06:13Z</time></trkpt><trkpt lat="37.906020" lon="-6.229630"><ele>517.665</ele><time>2022-08-26T12:06:53Z</time></trkpt><trkpt lat="37.906250" lon="-6.228890"><ele>517.067</ele><time>2022-08-26T12:07:33Z</time></trkpt><trkpt lat="37.906610" lon="-6.227260"><ele>512.160</ele><time>2022-08-26T12:08:13Z</time></trkpt><trkpt lat="37.907580" lon="-6.227800"><ele>511.866</ele><time>2022-08-26T12:08:53Z</time></trkpt><trkpt lat="37.907720" lon="-6.227610"><ele>510.667</ele><time>2022-08-26T12:09:33Z</time></trkpt><trkpt lat="37.908670" lon="-6.226450"><ele>506.075</ele><time>2022-08-26T12:10:13Z</time></trkpt><trkpt lat="37.908800" lon="-6.226300"><ele>504.528</ele><time>2022-08-26T12:10:53Z</time></trkpt><trkpt lat="37.909150" lon="-6.225590"><ele>505.820</ele><time>2022-08-26T12:11:33Z</time></trkpt><trkpt lat="37.908650" lon="-6.224650"><ele>504.809</ele><time>2022-08-26T12:12:13Z</time></trkpt><trkpt lat="37.907720" lon="-6.224040"><ele>503.098</ele><time>2022-08-26T12:12:53Z</time></trkpt><trkpt lat="37.908550" lon="-6.223070"><ele>503.068</ele><time>2022-08-26T12:13:33Z</time></trkpt><trkpt lat="37.909900" lon="-6.221180"><ele>504.535</ele><time>2022-08-26T12:14:13Z</time></trkpt><trkpt lat="37.912930" lon="-6.217950"><ele>497.214</ele><time>2022-08-26T12:14:53Z</time></trkpt><trkpt lat="37.913380" lon="-6.216780"><ele>497.369</ele><time>2022-08-26T12:15:33Z</time></trkpt><trkpt lat="37.913590" lon="-6.216690"><ele>498.851</ele><time>2022-08-26T12:16:13Z</time></trkpt><trkpt lat="37.913590" lon="-6.216210"><ele>499.724</ele><time>2022-08-26T12:16:53Z</time></trkpt><trkpt lat="37.913720" lon="-6.215860"><ele>501.870</ele><time>2022-08-26T12:17:33Z</time></trkpt><trkpt lat="37.914260" lon="-6.214780"><ele>503.331</ele><time>2022-08-26T12:18:13Z</time></trkpt><trkpt lat="37.915040" lon="-6.213380"><ele>499.239</ele><time>2022-08-26T12:18:53Z</time></trkpt><trkpt lat="37.915360" lon="-6.212780"><ele>498.301</ele><time>2022-08-26T12:19:33Z</time></trkpt><trkpt lat="37.916100" lon="-6.210690"><ele>501.021</ele><time>2022-08-26T12:20:13Z</time></trkpt><trkpt lat="37.916710" lon="-6.209530"><ele>494.409</ele><time>2022-08-26T12:20:53Z</time></trkpt><trkpt lat="37.917000" lon="-6.208910"><ele>491.214</ele><time>2022-08-26T12:21:33Z</time></trkpt><trkpt lat="37.918020" lon="-6.205700"><ele>475.154</ele><time>2022-08-26T12:22:13Z</time></trkpt><trkpt lat="37.918390" lon="-6.202880"><ele>468.251</ele><time>2022-08-26T12:22:53Z</time></trkpt><trkpt lat="37.919120" lon="-6.200810"><ele>468.650</ele><time>2022-08-26T12:23:33Z</time></trkpt><trkpt lat="37.919300" lon="-6.200430"><ele>468.895</ele><time>2022-08-26T12:24:13Z</time></trkpt><trkpt lat="37.921670" lon="-6.197560"><ele>461.047</ele><time>2022-08-26T12:24:53Z</time></trkpt><trkpt lat="37.923070" lon="-6.195360"><ele>457.340</ele><time>2022-08-26T12:25:33Z</time></trkpt><trkpt lat="37.923860" lon="-6.194430"><ele>456.976</ele><time>2022-08-26T12:26:13Z</time></trkpt><trkpt lat="37.925040" lon="-6.193310"><ele>455.987</ele><time>2022-08-26T12:26:53Z</time></trkpt><trkpt lat="37.926280" lon="-6.192620"><ele>454.867</ele><time>2022-08-26T12:27:33Z</time></trkpt><trkpt lat="37.926830" lon="-6.192190"><ele>454.381</ele><time>2022-08-26T12:28:13Z</time></trkpt><trkpt lat="37.927930" lon="-6.190860"><ele>447.119</ele><time>2022-08-26T12:28:53Z</time></trkpt><trkpt lat="37.928780" lon="-6.189760"><ele>435.009</ele><time>2022-08-26T12:29:33Z</time></trkpt><trkpt lat="37.929680" lon="-6.188170"><ele>427.227</ele><time>2022-08-26T12:30:13Z</time></trkpt><trkpt lat="37.929940" lon="-6.187560"><ele>422.697</ele><time>2022-08-26T12:30:53Z</time></trkpt><trkpt lat="37.930330" lon="-6.186010"><ele>423.174</ele><time>2022-08-26T12:31:33Z</time></trkpt><trkpt lat="37.930440" lon="-6.185590"><ele>422.173</ele><time>2022-08-26T12:32:13Z</time></trkpt><trkpt lat="37.930520" lon="-6.185350"><ele>420.638</ele><time>2022-08-26T12:32:53Z</time></trkpt><trkpt lat="37.931030" lon="-6.184480"><ele>416.820</ele><time>2022-08-26T12:33:33Z</time></trkpt><trkpt lat="37.931540" lon="-6.184070"><ele>417.333</ele><time>2022-08-26T12:34:13Z</time></trkpt><trkpt lat="37.931790" lon="-6.183900"><ele>419.439</ele><time>2022-08-26T12:34:53Z</time></trkpt><trkpt lat="37.932290" lon="-6.183580"><ele>419.630</ele><time>2022-08-26T12:35:33Z</time></trkpt><trkpt lat="37.932750" lon="-6.183380"><ele>417.535</ele><time>2022-08-26T12:36:13Z</time></trkpt><trkpt lat="37.934960" lon="-6.183180"><ele>422.486</ele><time>2022-08-26T12:36:53Z</time></trkpt><trkpt lat="37.935240" lon="-6.183000"><ele>421.114</ele><time>2022-08-26T12:37:33Z</time></trkpt><trkpt lat="37.935640" lon="-6.182610"><ele>420.009</ele><time>2022-08-26T12:38:13Z</time></trkpt><trkpt lat="37.936300" lon="-6.181320"><ele>420.274</ele><time>2022-08-26T12:38:53Z</time></trkpt><trkpt lat="37.936460" lon="-6.180860"><ele>425.514</ele><time>2022-08-26T12:39:33Z</time></trkpt><trkpt lat="37.936610" lon="-6.180270"><ele>426.291</ele><time>2022-08-26T12:40:13Z</time></trkpt><trkpt lat="37.937390" lon="-6.177960"><ele>432.050</ele><time>2022-08-26T12:40:53Z</time></trkpt><trkpt lat="37.937980" lon="-6.176780"><ele>435.685</ele><time>2022-08-26T12:41:33Z</time></trkpt><trkpt lat="37.938410" lon="-6.175120"><ele>440.427</ele><time>2022-08-26T12:42:13Z</time></trkpt><trkpt lat="37.939300" lon="-6.173390"><ele>447.180</ele><time>2022-08-26T12:42:53Z</time></trkpt><trkpt lat="37.941180" lon="-6.170370"><ele>450.656</ele><time>2022-08-26T12:43:33Z</time></trkpt><trkpt lat="37.941520" lon="-6.169780"><ele>448.497</ele><time>2022-08-26T12:44:13Z</time></trkpt><trkpt lat="37.942430" lon="-6.167840"><ele>451.494</ele><time>2022-08-26T12:44:53Z</time></trkpt><trkpt lat="37.943420" lon="-6.166820"><ele>452.357</ele><time>2022-08-26T12:45:33Z</time></trkpt><trkpt lat="37.944080" lon="-6.166130"><ele>449.722</ele><time>2022-08-26T12:46:13Z</time></trkpt><trkpt lat="37.944540" lon="-6.165380"><ele>453.309</ele><time>2022-08-26T12:46:53Z</time></trkpt><trkpt lat="37.944880" lon="-6.164930"><ele>453.010</ele><time>2022-08-26T12:47:33Z</time></trkpt><trkpt lat="37.947580" lon="-6.162280"><ele>455.290</ele><time>2022-08-26T12:48:13Z</time></trkpt><trkpt lat="37.948300" lon="-6.161370"><ele>458.117</ele><time>2022-08-26T12:48:53Z</time></trkpt><trkpt lat="37.949330" lon="-6.158940"><ele>458.636</ele><time>2022-08-26T12:49:33Z</time></trkpt><trkpt lat="37.949920" lon="-6.156930"><ele>461.391</ele><time>2022-08-26T12:50:13Z</time></trkpt><trkpt lat="37.950010" lon="-6.156330"><ele>462.913</ele><time>2022-08-26T12:50:53Z</time></trkpt><trkpt lat="37.956860" lon="-6.159723"><ele>444.526</ele><time>2010-01-01T06:27:43Z</time></trkpt><trkpt lat="37.958052" lon="-6.160574"><ele>450.352</ele><time>2010-01-01T06:26:48Z</time></trkpt><trkpt lat="37.958389" lon="-6.161014"><ele>453.583</ele><time>2010-01-01T06:26:28Z</time></trkpt><trkpt lat="37.958674" lon="-6.161435"><ele>454.295</ele><time>2010-01-01T06:26:11Z</time></trkpt><trkpt lat="37.959285" lon="-6.161956"><ele>457.449</ele><time>2010-01-01T06:25:41Z</time></trkpt><trkpt lat="37.959668" lon="-6.162200"><ele>458.023</ele><time>2010-01-01T06:25:24Z</time></trkpt><trkpt lat="37.961328" lon="-6.162372"><ele>463.809</ele><time>2010-01-01T06:24:17Z</time></trkpt><trkpt lat="37.961726" lon="-6.162235"><ele>464.140</ele><time>2010-01-01T06:24:01Z</time></trkpt><trkpt lat="37.961969" lon="-6.162232"><ele>464.080</ele><time>2010-01-01T06:23:51Z</time></trkpt><trkpt lat="37.963860" lon="-6.162774"><ele>466.767</ele><time>2010-01-01T06:22:33Z</time></trkpt><trkpt lat="37.965424" lon="-6.162892"><ele>472.946</ele><time>2010-01-01T06:21:30Z</time></trkpt><trkpt lat="37.967542" lon="-6.163246"><ele>478.611</ele><time>2010-01-01T06:20:05Z</time></trkpt><trkpt lat="37.967794" lon="-6.163340"><ele>480.143</ele><time>2010-01-01T06:19:54Z</time></trkpt><trkpt lat="37.969255" lon="-6.164724"><ele>488.016</ele><time>2010-01-01T06:18:41Z</time></trkpt><trkpt lat="37.969481" lon="-6.164829"><ele>487.972</ele><time>2010-01-01T06:18:31Z</time></trkpt><trkpt lat="37.969966" lon="-6.165057"><ele>488.093</ele><time>2010-01-01T06:18:10Z</time></trkpt><trkpt lat="37.971716" lon="-6.165202"><ele>496.126</ele><time>2010-01-01T06:17:00Z</time></trkpt><trkpt lat="37.972093" lon="-6.165420"><ele>499.147</ele><time>2010-01-01T06:16:43Z</time></trkpt><trkpt lat="37.972363" lon="-6.165535"><ele>500.611</ele><time>2010-01-01T06:16:32Z</time></trkpt><trkpt lat="37.973457" lon="-6.165712"><ele>498.109</ele><time>2010-01-01T06:15:48Z</time></trkpt><trkpt lat="37.974808" lon="-6.166533"><ele>495.523</ele><time>2010-01-01T06:14:47Z</time></trkpt><trkpt lat="37.976533" lon="-6.166905"><ele>496.633</ele><time>2010-01-01T06:13:37Z</time></trkpt><trkpt lat="37.977449" lon="-6.166911"><ele>500.110</ele><time>2010-01-01T06:13:00Z</time></trkpt><trkpt lat="37.978650" lon="-6.166694"><ele>503.769</ele><time>2010-01-01T06:12:11Z</time></trkpt><trkpt lat="37.980783" lon="-6.167235"><ele>508.734</ele><time>2010-01-01T06:10:44Z</time></trkpt><trkpt lat="37.981092" lon="-6.167343"><ele>510.416</ele><time>2010-01-01T06:10:31Z</time></trkpt><trkpt lat="37.981942" lon="-6.167622"><ele>510.029</ele><time>2010-01-01T06:09:56Z</time></trkpt><trkpt lat="37.984603" lon="-6.169598"><ele>518.265</ele><time>2010-01-01T06:07:52Z</time></trkpt><trkpt lat="37.986766" lon="-6.172420"><ele>529.676</ele><time>2010-01-01T06:05:48Z</time></trkpt><trkpt lat="37.988026" lon="-6.174389"><ele>523.327</ele><time>2010-01-01T06:04:28Z</time></trkpt><trkpt lat="37.988926" lon="-6.175502"><ele>517.968</ele><time>2010-01-01T06:03:37Z</time></trkpt><trkpt lat="37.990556" lon="-6.176789"><ele>520.014</ele><time>2010-01-01T06:02:20Z</time></trkpt><trkpt lat="37.991180" lon="-6.177793"><ele>522.009</ele><time>2010-01-01T06:01:40Z</time></trkpt><trkpt lat="37.991753" lon="-6.178560"><ele>520.813</ele><time>2010-01-01T06:01:07Z</time></trkpt><trkpt lat="37.992042" lon="-6.178924"><ele>521.843</ele><time>2010-01-01T06:00:50Z</time></trkpt><trkpt lat="37.992178" lon="-6.179169"><ele>520.820</ele><time>2010-01-01T06:00:41Z</time></trkpt><trkpt lat="37.992871" lon="-6.179520"><ele>518.149</ele><time>2010-01-01T06:00:10Z</time></trkpt><trkpt lat="37.993410" lon="-6.180534"><ele>521.314</ele><time>2010-01-01T05:59:31Z</time></trkpt><trkpt lat="37.993716" lon="-6.180923"><ele>521.566</ele><time>2010-01-01T05:59:14Z</time></trkpt><trkpt lat="37.994359" lon="-6.181451"><ele>523.729</ele><time>2010-01-01T05:58:43Z</time></trkpt><trkpt lat="37.994701" lon="-6.181521"><ele>525.845</ele><time>2010-01-01T05:58:29Z</time></trkpt><trkpt lat="37.994976" lon="-6.181642"><ele>527.126</ele><time>2010-01-01T05:58:18Z</time></trkpt><trkpt lat="37.995314" lon="-6.182293"><ele>524.828</ele><time>2010-01-01T05:57:53Z</time></trkpt><trkpt lat="37.995779" lon="-6.182808"><ele>524.789</ele><time>2010-01-01T05:57:28Z</time></trkpt><trkpt lat="37.996470" lon="-6.183455"><ele>521.617</ele><time>2010-01-01T05:56:54Z</time></trkpt><trkpt lat="37.997725" lon="-6.184029"><ele>522.209</ele><time>2010-01-01T05:56:00Z</time></trkpt><trkpt lat="37.998583" lon="-6.185201"><ele>524.513</ele><time>2010-01-01T05:55:10Z</time></trkpt><trkpt lat="37.999112" lon="-6.185523"><ele>525.433</ele><time>2010-01-01T05:54:46Z</time></trkpt><trkpt lat="37.999623" lon="-6.185780"><ele>524.950</ele><time>2010-01-01T05:54:24Z</time></trkpt><trkpt lat="37.999949" lon="-6.185753"><ele>524.559</ele><time>2010-01-01T05:54:11Z</time></trkpt><trkpt lat="38.000131" lon="-6.185732"><ele>523.664</ele><time>2010-01-01T05:54:03Z</time></trkpt><trkpt lat="38.000955" lon="-6.186188"><ele>519.476</ele><time>2010-01-01T05:53:27Z</time></trkpt><trkpt lat="38.001340" lon="-6.186719"><ele>517.439</ele><time>2010-01-01T05:53:05Z</time></trkpt><trkpt lat="38.002333" lon="-6.187341"><ele>518.955</ele><time>2010-01-01T05:52:19Z</time></trkpt><trkpt lat="38.002726" lon="-6.187813"><ele>523.426</ele><time>2010-01-01T05:51:58Z</time></trkpt><trkpt lat="38.003009" lon="-6.188065"><ele>524.721</ele><time>2010-01-01T05:51:44Z</time></trkpt><trkpt lat="38.003943" lon="-6.188167"><ele>520.441</ele><time>2010-01-01T05:51:06Z</time></trkpt><trkpt lat="38.004265" lon="-6.188774"><ele>517.805</ele><time>2010-01-01T05:50:43Z</time></trkpt><trkpt lat="38.004607" lon="-6.189101"><ele>519.109</ele><time>2010-01-01T05:50:25Z</time></trkpt><trkpt lat="38.004751" lon="-6.189358"><ele>520.233</ele><time>2010-01-01T05:50:15Z</time></trkpt><trkpt lat="38.004886" lon="-6.189943"><ele>518.993</ele><time>2010-01-01T05:49:56Z</time></trkpt><trkpt lat="38.005609" lon="-6.190656"><ele>516.350</ele><time>2010-01-01T05:49:19Z</time></trkpt><trkpt lat="38.005736" lon="-6.191032"><ele>517.859</ele><time>2010-01-01T05:49:06Z</time></trkpt><trkpt lat="38.006087" lon="-6.191853"><ele>514.494</ele><time>2010-01-01T05:48:36Z</time></trkpt><trkpt lat="38.006784" lon="-6.193076"><ele>508.586</ele><time>2010-01-01T05:47:49Z</time></trkpt><trkpt lat="38.007663" lon="-6.194057"><ele>505.059</ele><time>2010-01-01T05:47:02Z</time></trkpt><trkpt lat="38.007883" lon="-6.194535"><ele>503.425</ele><time>2010-01-01T05:46:44Z</time></trkpt><trkpt lat="38.008716" lon="-6.195309"><ele>508.386</ele><time>2010-01-01T05:46:03Z</time></trkpt><trkpt lat="38.008931" lon="-6.195457"><ele>507.013</ele><time>2010-01-01T05:45:53Z</time></trkpt><trkpt lat="38.009109" lon="-6.195610"><ele>507.743</ele><time>2010-01-01T05:45:44Z</time></trkpt><trkpt lat="38.009293" lon="-6.196342"><ele>508.207</ele><time>2010-01-01T05:45:20Z</time></trkpt><trkpt lat="38.010136" lon="-6.197734"><ele>512.809</ele><time>2010-01-01T05:44:24Z</time></trkpt><trkpt lat="38.010531" lon="-6.198158"><ele>508.342</ele><time>2010-01-01T05:44:03Z</time></trkpt><trkpt lat="38.011987" lon="-6.199397"><ele>510.472</ele><time>2010-01-01T05:42:53Z</time></trkpt><trkpt lat="38.012716" lon="-6.199663"><ele>515.559</ele><time>2010-01-01T05:42:23Z</time></trkpt><trkpt lat="38.012892" lon="-6.199751"><ele>515.388</ele><time>2010-01-01T05:42:15Z</time></trkpt><trkpt lat="38.015111" lon="-6.201232"><ele>506.763</ele><time>2010-01-01T05:40:34Z</time></trkpt><trkpt lat="38.015966" lon="-6.203737"><ele>505.325</ele><time>2010-01-01T05:39:08Z</time></trkpt><trkpt lat="38.016653" lon="-6.204890"><ele>508.488</ele><time>2010-01-01T05:38:22Z</time></trkpt><trkpt lat="38.018432" lon="-6.206602"><ele>513.374</ele><time>2010-01-01T05:36:53Z</time></trkpt><trkpt lat="38.019664" lon="-6.208061"><ele>509.025</ele><time>2010-01-01T05:35:45Z</time></trkpt><trkpt lat="38.020486" lon="-6.208546"><ele>508.426</ele><time>2010-01-01T05:35:09Z</time></trkpt><trkpt lat="38.022158" lon="-6.210252"><ele>512.047</ele><time>2010-01-01T05:33:43Z</time></trkpt><trkpt lat="38.023153" lon="-6.210990"><ele>510.911</ele><time>2010-01-01T05:32:56Z</time></trkpt><trkpt lat="38.023764" lon="-6.211215"><ele>512.309</ele><time>2010-01-01T05:32:31Z</time></trkpt><trkpt lat="38.024209" lon="-6.211207"><ele>510.763</ele><time>2010-01-01T05:32:13Z</time></trkpt><trkpt lat="38.024873" lon="-6.212344"><ele>506.753</ele><time>2010-01-01T05:31:28Z</time></trkpt><trkpt lat="38.024970" lon="-6.212661"><ele>509.130</ele><time>2010-01-01T05:31:18Z</time></trkpt><trkpt lat="38.025388" lon="-6.213602"><ele>510.649</ele><time>2010-01-01T05:30:44Z</time></trkpt><trkpt lat="38.025830" lon="-6.214471"><ele>510.164</ele><time>2010-01-01T05:30:11Z</time></trkpt><trkpt lat="38.026561" lon="-6.215276"><ele>513.656</ele><time>2010-01-01T05:29:32Z</time></trkpt><trkpt lat="38.026806" lon="-6.215957"><ele>513.389</ele><time>2010-01-01T05:29:08Z</time></trkpt><trkpt lat="38.027241" lon="-6.216582"><ele>518.065</ele><time>2010-01-01T05:28:42Z</time></trkpt><trkpt lat="38.027565" lon="-6.217046"><ele>518.876</ele><time>2010-01-01T05:28:23Z</time></trkpt><trkpt lat="38.027645" lon="-6.217477"><ele>519.977</ele><time>2010-01-01T05:28:08Z</time></trkpt><trkpt lat="38.027588" lon="-6.217730"><ele>522.261</ele><time>2010-01-01T05:28:00Z</time></trkpt><trkpt lat="38.027308" lon="-6.218220"><ele>523.327</ele><time>2010-01-01T05:27:41Z</time></trkpt><trkpt lat="38.027006" lon="-6.218958"><ele>520.809</ele><time>2010-01-01T05:27:15Z</time></trkpt><trkpt lat="38.026882" lon="-6.219882"><ele>521.228</ele><time>2010-01-01T05:26:45Z</time></trkpt><trkpt lat="38.026797" lon="-6.220023"><ele>520.468</ele><time>2010-01-01T05:26:39Z</time></trkpt><trkpt lat="38.026659" lon="-6.220346"><ele>519.025</ele><time>2010-01-01T05:26:27Z</time></trkpt><trkpt lat="38.026810" lon="-6.220570"><ele>519.534</ele><time>2010-01-01T05:26:18Z</time></trkpt><trkpt lat="38.028076" lon="-6.221196"><ele>528.049</ele><time>2010-01-01T05:25:23Z</time></trkpt><trkpt lat="38.028576" lon="-6.221309"><ele>529.831</ele><time>2010-01-01T05:25:03Z</time></trkpt><trkpt lat="38.028875" lon="-6.221725"><ele>529.654</ele><time>2010-01-01T05:24:45Z</time></trkpt><trkpt lat="38.029206" lon="-6.221692"><ele>529.630</ele><time>2010-01-01T05:24:31Z</time></trkpt><trkpt lat="38.029462" lon="-6.221813"><ele>533.721</ele><time>2010-01-01T05:24:20Z</time></trkpt><trkpt lat="38.030899" lon="-6.223564"><ele>536.832</ele><time>2010-01-01T05:22:59Z</time></trkpt><trkpt lat="38.031383" lon="-6.223841"><ele>542.092</ele><time>2010-01-01T05:22:38Z</time></trkpt><trkpt lat="38.032797" lon="-6.223964"><ele>546.711</ele><time>2010-01-01T05:21:41Z</time></trkpt><trkpt lat="38.033543" lon="-6.223918"><ele>548.309</ele><time>2010-01-01T05:21:11Z</time></trkpt><trkpt lat="38.034030" lon="-6.223917"><ele>548.884</ele><time>2010-01-01T05:20:52Z</time></trkpt><trkpt lat="38.034820" lon="-6.224158"><ele>550.564</ele><time>2010-01-01T05:20:19Z</time></trkpt><trkpt lat="38.035416" lon="-6.224651"><ele>554.991</ele><time>2010-01-01T05:19:50Z</time></trkpt><trkpt lat="38.036277" lon="-6.226011"><ele>560.190</ele><time>2010-01-01T05:18:55Z</time></trkpt><trkpt lat="38.036746" lon="-6.226796"><ele>561.815</ele><time>2010-01-01T05:18:24Z</time></trkpt><trkpt lat="38.036933" lon="-6.227093"><ele>559.867</ele><time>2010-01-01T05:18:12Z</time></trkpt><trkpt lat="38.037894" lon="-6.228152"><ele>565.880</ele><time>2010-01-01T05:17:21Z</time></trkpt><trkpt lat="38.044032" lon="-6.232747"><ele>566.126</ele><time>2010-01-01T05:12:36Z</time></trkpt><trkpt lat="38.045910" lon="-6.234310"><ele>569.467</ele><time>2010-01-01T05:11:06Z</time></trkpt><trkpt lat="38.047293" lon="-6.235075"><ele>569.188</ele><time>2010-01-01T05:10:06Z</time></trkpt><trkpt lat="38.050998" lon="-6.237599"><ele>589.024</ele><time>2010-01-01T05:07:17Z</time></trkpt><trkpt lat="38.052538" lon="-6.238350"><ele>592.126</ele><time>2010-01-01T05:06:11Z</time></trkpt><trkpt lat="38.053169" lon="-6.238543"><ele>593.809</ele><time>2010-01-01T05:05:45Z</time></trkpt><trkpt lat="38.055786" lon="-6.238108"><ele>612.099</ele><time>2010-01-01T05:03:59Z</time></trkpt><trkpt lat="38.057410" lon="-6.238057"><ele>617.319</ele><time>2010-01-01T05:02:54Z</time></trkpt><trkpt lat="38.058040" lon="-6.238240"><ele>616.846</ele><time>2010-01-01T05:02:28Z</time></trkpt><trkpt lat="38.062257" lon="-6.240825"><ele>638.175</ele><time>2010-01-01T04:59:20Z</time></trkpt><trkpt lat="38.062570" lon="-6.241032"><ele>636.990</ele><time>2010-01-01T04:59:06Z</time></trkpt><trkpt lat="38.064512" lon="-6.242682"><ele>646.122</ele><time>2010-01-01T04:57:33Z</time></trkpt><trkpt lat="38.066256" lon="-6.243615"><ele>655.075</ele><time>2010-01-01T04:56:17Z</time></trkpt><trkpt lat="38.068502" lon="-6.243593"><ele>662.451</ele><time>2010-01-01T04:54:47Z</time></trkpt><trkpt lat="38.069138" lon="-6.243868"><ele>670.342</ele><time>2010-01-01T04:54:20Z</time></trkpt><trkpt lat="38.069560" lon="-6.244316"><ele>674.645</ele><time>2010-01-01T04:53:57Z</time></trkpt><trkpt lat="38.069821" lon="-6.244842"><ele>682.647</ele><time>2010-01-01T04:53:38Z</time></trkpt><trkpt lat="38.069864" lon="-6.244979"><ele>683.211</ele><time>2010-01-01T04:53:33Z</time></trkpt><trkpt lat="38.070280" lon="-6.246798"><ele>694.609</ele><time>2010-01-01T04:52:33Z</time></trkpt><trkpt lat="38.070403" lon="-6.247030"><ele>694.915</ele><time>2010-01-01T04:52:24Z</time></trkpt><trkpt lat="38.070694" lon="-6.247430"><ele>698.075</ele><time>2010-01-01T04:52:07Z</time></trkpt><trkpt lat="38.071905" lon="-6.248600"><ele>705.522</ele><time>2010-01-01T04:51:06Z</time></trkpt><trkpt lat="38.072532" lon="-6.249449"><ele>714.691</ele><time>2010-01-01T04:50:30Z</time></trkpt><trkpt lat="38.072794" lon="-6.249941"><ele>717.766</ele><time>2010-01-01T04:50:11Z</time></trkpt><trkpt lat="38.073729" lon="-6.252016"><ele>726.628</ele><time>2010-01-01T04:48:55Z</time></trkpt><trkpt lat="38.074477" lon="-6.253194"><ele>733.111</ele><time>2010-01-01T04:48:08Z</time></trkpt><trkpt lat="38.075831" lon="-6.254918"><ele>734.897</ele><time>2010-01-01T04:46:51Z</time></trkpt><trkpt lat="38.076486" lon="-6.255535"><ele>737.088</ele><time>2010-01-01T04:46:18Z</time></trkpt><trkpt lat="38.077911" lon="-6.256463"><ele>757.015</ele><time>2010-01-01T04:45:14Z</time></trkpt><trkpt lat="38.078508" lon="-6.256791"><ele>758.365</ele><time>2010-01-01T04:44:48Z</time></trkpt><trkpt lat="38.078738" lon="-6.256944"><ele>758.111</ele><time>2010-01-01T04:44:38Z</time></trkpt><trkpt lat="38.078927" lon="-6.257080"><ele>755.509</ele><time>2010-01-01T04:44:29Z</time></trkpt><trkpt lat="38.079189" lon="-6.257330"><ele>751.552</ele><time>2010-01-01T04:44:16Z</time></trkpt><trkpt lat="38.079776" lon="-6.258315"><ele>749.832</ele><time>2010-01-01T04:43:37Z</time></trkpt><trkpt lat="38.080580" lon="-6.261764"><ele>743.119</ele><time>2010-01-01T04:41:43Z</time></trkpt><trkpt lat="38.080804" lon="-6.262185"><ele>743.058</ele><time>2010-01-01T04:41:27Z</time></trkpt><trkpt lat="38.080905" lon="-6.262354"><ele>742.853</ele><time>2010-01-01T04:41:20Z</time></trkpt><trkpt lat="38.081021" lon="-6.262566"><ele>742.965</ele><time>2010-01-01T04:41:12Z</time></trkpt><trkpt lat="38.081067" lon="-6.262772"><ele>743.388</ele><time>2010-01-01T04:41:05Z</time></trkpt><trkpt lat="38.081086" lon="-6.262925"><ele>742.234</ele><time>2010-01-01T04:41:00Z</time></trkpt><trkpt lat="38.081450" lon="-6.263236"><ele>737.965</ele><time>2010-01-01T04:40:42Z</time></trkpt><trkpt lat="38.081857" lon="-6.263907"><ele>735.684</ele><time>2010-01-01T04:40:16Z</time></trkpt><trkpt lat="38.083263" lon="-6.267512"><ele>734.307</ele><time>2010-01-01T04:38:09Z</time></trkpt><trkpt lat="38.083772" lon="-6.268172"><ele>734.317</ele><time>2010-01-01T04:37:39Z</time></trkpt><trkpt lat="38.084680" lon="-6.268899"><ele>736.009</ele><time>2010-01-01T04:36:56Z</time></trkpt><trkpt lat="38.085315" lon="-6.269188"><ele>742.199</ele><time>2010-01-01T04:36:29Z</time></trkpt><trkpt lat="38.086162" lon="-6.271101"><ele>754.329</ele><time>2010-01-01T04:35:20Z</time></trkpt><trkpt lat="38.086269" lon="-6.271331"><ele>755.136</ele><time>2010-01-01T04:35:12Z</time></trkpt><trkpt lat="38.086658" lon="-6.271707"><ele>757.035</ele><time>2010-01-01T04:34:52Z</time></trkpt><trkpt lat="38.087808" lon="-6.272487"><ele>753.080</ele><time>2010-01-01T04:34:00Z</time></trkpt><trkpt lat="38.088327" lon="-6.272638"><ele>753.022</ele><time>2010-01-01T04:33:38Z</time></trkpt><trkpt lat="38.088640" lon="-6.272710"><ele>752.115</ele><time>2010-01-01T04:33:26Z</time></trkpt><trkpt lat="38.090267" lon="-6.273346"><ele>743.131</ele><time>2010-01-01T04:32:17Z</time></trkpt><trkpt lat="38.090981" lon="-6.273448"><ele>739.362</ele><time>2010-01-01T04:31:48Z</time></trkpt><trkpt lat="38.094462" lon="-6.276661"><ele>730.126</ele><time>2010-01-01T04:28:56Z</time></trkpt><trkpt lat="38.095163" lon="-6.277187"><ele>726.147</ele><time>2010-01-01T04:28:23Z</time></trkpt><trkpt lat="38.096020" lon="-6.277602"><ele>725.311</ele><time>2010-01-01T04:27:47Z</time></trkpt><trkpt lat="38.098040" lon="-6.278989"><ele>728.209</ele><time>2010-01-01T04:26:14Z</time></trkpt><trkpt lat="38.101263" lon="-6.279379"><ele>737.373</ele><time>2010-01-01T04:24:04Z</time></trkpt><trkpt lat="38.102895" lon="-6.279798"><ele>746.533</ele><time>2010-01-01T04:22:57Z</time></trkpt><trkpt lat="38.103057" lon="-6.279776"><ele>745.650</ele><time>2010-01-01T04:22:51Z</time></trkpt><trkpt lat="38.104034" lon="-6.279326"><ele>741.259</ele><time>2010-01-01T04:22:09Z</time></trkpt><trkpt lat="38.105106" lon="-6.278042"><ele>740.214</ele><time>2010-01-01T04:21:10Z</time></trkpt><trkpt lat="38.106655" lon="-6.276707"><ele>736.016</ele><time>2010-01-01T04:19:55Z</time></trkpt><trkpt lat="38.107087" lon="-6.276446"><ele>734.089</ele><time>2010-01-01T04:19:36Z</time></trkpt><trkpt lat="38.108283" lon="-6.276353"><ele>738.975</ele><time>2010-01-01T04:18:47Z</time></trkpt><trkpt lat="38.109755" lon="-6.276829"><ele>738.016</ele><time>2010-01-01T04:17:46Z</time></trkpt><trkpt lat="38.110621" lon="-6.276697"><ele>743.249</ele><time>2010-01-01T04:17:11Z</time></trkpt><trkpt lat="38.110992" lon="-6.276495"><ele>741.202</ele><time>2010-01-01T04:16:55Z</time></trkpt><trkpt lat="38.115267" lon="-6.272034"><ele>741.122</ele><time>2010-01-01T04:13:14Z</time></trkpt><trkpt lat="38.115958" lon="-6.271424"><ele>742.109</ele><time>2010-01-01T04:12:40Z</time></trkpt><trkpt lat="38.116193" lon="-6.271303"><ele>742.165</ele><time>2010-01-01T04:12:30Z</time></trkpt><trkpt lat="38.116944" lon="-6.271133"><ele>736.295</ele><time>2010-01-01T04:11:59Z</time></trkpt><trkpt lat="38.117587" lon="-6.271246"><ele>737.352</ele><time>2010-01-01T04:11:33Z</time></trkpt><trkpt lat="38.123913" lon="-6.275426"><ele>714.351</ele><time>2010-01-01T04:06:47Z</time></trkpt><trkpt lat="38.125434" lon="-6.275959"><ele>716.536</ele><time>2010-01-01T04:05:44Z</time></trkpt><trkpt lat="38.126202" lon="-6.275986"><ele>717.458</ele><time>2010-01-01T04:05:13Z</time></trkpt><trkpt lat="38.127500" lon="-6.276236"><ele>709.551</ele><time>2010-01-01T04:04:20Z</time></trkpt><trkpt lat="38.128692" lon="-6.277349"><ele>710.767</ele><time>2010-01-01T04:03:20Z</time></trkpt><trkpt lat="38.129549" lon="-6.278167"><ele>707.238</ele><time>2010-01-01T04:02:37Z</time></trkpt><trkpt lat="38.130308" lon="-6.278561"><ele>704.439</ele><time>2010-01-01T04:02:04Z</time></trkpt><trkpt lat="38.132408" lon="-6.278862"><ele>692.101</ele><time>2010-01-01T04:00:40Z</time></trkpt><trkpt lat="38.132756" lon="-6.278800"><ele>690.121</ele><time>2010-01-01T04:00:26Z</time></trkpt><trkpt lat="38.133076" lon="-6.278695"><ele>686.909</ele><time>2010-01-01T04:00:12Z</time></trkpt><trkpt lat="38.134944" lon="-6.277909"><ele>677.734</ele><time>2010-01-01T03:58:53Z</time></trkpt><trkpt lat="38.136095" lon="-6.278154"><ele>667.824</ele><time>2010-01-01T03:58:06Z</time></trkpt><trkpt lat="38.136790" lon="-6.278771"><ele>661.851</ele><time>2010-01-01T03:57:32Z</time></trkpt><trkpt lat="38.137684" lon="-6.280319"><ele>651.750</ele><time>2010-01-01T03:56:31Z</time></trkpt><trkpt lat="38.138376" lon="-6.281247"><ele>649.515</ele><time>2010-01-01T03:55:51Z</time></trkpt><trkpt lat="38.138777" lon="-6.281601"><ele>646.947</ele><time>2010-01-01T03:55:32Z</time></trkpt><trkpt lat="38.139834" lon="-6.282142"><ele>641.410</ele><time>2010-01-01T03:54:46Z</time></trkpt><trkpt lat="38.141005" lon="-6.282236"><ele>627.246</ele><time>2010-01-01T03:53:59Z</time></trkpt><trkpt lat="38.141701" lon="-6.282073"><ele>626.187</ele><time>2010-01-01T03:53:30Z</time></trkpt><trkpt lat="38.142281" lon="-6.281788"><ele>627.465</ele><time>2010-01-01T03:53:05Z</time></trkpt><trkpt lat="38.142570" lon="-6.281583"><ele>623.768</ele><time>2010-01-01T03:52:52Z</time></trkpt><trkpt lat="38.143848" lon="-6.280231"><ele>612.314</ele><time>2010-01-01T03:51:45Z</time></trkpt><trkpt lat="38.144717" lon="-6.279534"><ele>610.009</ele><time>2010-01-01T03:51:04Z</time></trkpt><trkpt lat="38.146126" lon="-6.279129"><ele>605.827</ele><time>2010-01-01T03:50:06Z</time></trkpt><trkpt lat="38.146569" lon="-6.279142"><ele>603.337</ele><time>2010-01-01T03:49:48Z</time></trkpt><trkpt lat="38.147907" lon="-6.279730"><ele>606.484</ele><time>2010-01-01T03:48:51Z</time></trkpt><trkpt lat="38.153657" lon="-6.284503"><ele>615.183</ele><time>2010-01-01T03:44:16Z</time></trkpt><trkpt lat="38.154846" lon="-6.284964"><ele>614.938</ele><time>2010-01-01T03:43:26Z</time></trkpt><trkpt lat="38.155338" lon="-6.285158"><ele>611.930</ele><time>2010-01-01T03:43:06Z</time></trkpt><trkpt lat="38.156426" lon="-6.285506"><ele>608.573</ele><time>2010-01-01T03:42:21Z</time></trkpt><trkpt lat="38.157436" lon="-6.285697"><ele>616.239</ele><time>2010-01-01T03:41:40Z</time></trkpt><trkpt lat="38.158559" lon="-6.285882"><ele>620.360</ele><time>2010-01-01T03:40:55Z</time></trkpt><trkpt lat="38.160278" lon="-6.285695"><ele>627.065</ele><time>2010-01-01T03:39:45Z</time></trkpt><trkpt lat="38.160678" lon="-6.285542"><ele>623.268</ele><time>2010-01-01T03:39:29Z</time></trkpt><trkpt lat="38.169102" lon="-6.280464"><ele>602.314</ele><time>2010-01-01T03:33:15Z</time></trkpt><trkpt lat="38.169880" lon="-6.280134"><ele>606.009</ele><time>2010-01-01T03:32:42Z</time></trkpt><trkpt lat="38.170515" lon="-6.280115"><ele>608.337</ele><time>2010-01-01T03:32:17Z</time></trkpt><trkpt lat="38.177221" lon="-6.282033"><ele>617.377</ele><time>2010-01-01T03:27:42Z</time></trkpt><trkpt lat="38.180198" lon="-6.282852"><ele>615.074</ele><time>2010-01-01T03:25:40Z</time></trkpt><trkpt lat="38.180984" lon="-6.282967"><ele>615.883</ele><time>2010-01-01T03:25:08Z</time></trkpt><trkpt lat="38.182593" lon="-6.282696"><ele>614.618</ele><time>2010-01-01T03:24:03Z</time></trkpt><trkpt lat="38.183056" lon="-6.282490"><ele>616.060</ele><time>2010-01-01T03:23:43Z</time></trkpt><trkpt lat="38.183480" lon="-6.282240"><ele>614.913</ele><time>2010-01-01T03:23:24Z</time></trkpt><trkpt lat="38.185264" lon="-6.281044"><ele>614.069</ele><time>2010-01-01T03:22:04Z</time></trkpt><trkpt lat="38.186027" lon="-6.280918"><ele>619.670</ele><time>2010-01-01T03:21:33Z</time></trkpt><trkpt lat="38.186301" lon="-6.280964"><ele>619.363</ele><time>2010-01-01T03:21:22Z</time></trkpt><trkpt lat="38.190992" lon="-6.283177"><ele>631.244</ele><time>2010-01-01T03:18:01Z</time></trkpt><trkpt lat="38.200236" lon="-6.287649"><ele>618.318</ele><time>2010-01-01T03:11:25Z</time></trkpt><trkpt lat="38.204095" lon="-6.289529"><ele>604.309</ele><time>2010-01-01T03:08:40Z</time></trkpt><trkpt lat="38.204991" lon="-6.289896"><ele>604.077</ele><time>2010-01-01T03:08:02Z</time></trkpt><trkpt lat="38.205374" lon="-6.289950"><ele>605.037</ele><time>2010-01-01T03:07:47Z</time></trkpt><trkpt lat="38.207854" lon="-6.290068"><ele>597.034</ele><time>2010-01-01T03:06:08Z</time></trkpt><trkpt lat="38.216015" lon="-6.290475"><ele>589.353</ele><time>2010-01-01T03:00:41Z</time></trkpt><trkpt lat="38.216414" lon="-6.290619"><ele>587.378</ele><time>2010-01-01T03:00:24Z</time></trkpt><trkpt lat="38.217457" lon="-6.291263"><ele>588.280</ele><time>2010-01-01T02:59:37Z</time></trkpt><trkpt lat="38.218304" lon="-6.291800"><ele>583.193</ele><time>2010-01-01T02:59:00Z</time></trkpt><trkpt lat="38.219619" lon="-6.292631"><ele>580.439</ele><time>2010-01-01T02:58:01Z</time></trkpt><trkpt lat="38.221762" lon="-6.294053"><ele>568.750</ele><time>2010-01-01T02:56:24Z</time></trkpt><trkpt lat="38.225062" lon="-6.297751"><ele>566.266</ele><time>2010-01-01T02:53:28Z</time></trkpt><trkpt lat="38.225464" lon="-6.298103"><ele>565.829</ele><time>2010-01-01T02:53:08Z</time></trkpt><trkpt lat="38.228972" lon="-6.299980"><ele>571.021</ele><time>2010-01-01T02:50:36Z</time></trkpt><trkpt lat="38.230940" lon="-6.300450"><ele>580.309</ele><time>2010-01-01T02:49:16Z</time></trkpt><trkpt lat="38.232015" lon="-6.300616"><ele>578.847</ele><time>2010-01-01T02:48:32Z</time></trkpt><trkpt lat="38.233921" lon="-6.300587"><ele>579.917</ele><time>2010-01-01T02:47:16Z</time></trkpt><trkpt lat="38.236698" lon="-6.300725"><ele>574.594</ele><time>2010-01-01T02:45:25Z</time></trkpt><trkpt lat="38.239137" lon="-6.300895"><ele>575.043</ele><time>2010-01-01T02:43:46Z</time></trkpt><trkpt lat="38.239902" lon="-6.301271"><ele>582.318</ele><time>2010-01-01T02:43:13Z</time></trkpt><trkpt lat="38.240722" lon="-6.302001"><ele>586.540</ele><time>2010-01-01T02:42:33Z</time></trkpt><trkpt lat="38.240871" lon="-6.302033"><ele>587.153</ele><time>2010-01-01T02:42:26Z</time></trkpt><trkpt lat="38.242561" lon="-6.303275"><ele>591.049</ele><time>2010-01-01T02:41:08Z</time></trkpt><trkpt lat="38.242976" lon="-6.303556"><ele>590.330</ele><time>2010-01-01T02:40:49Z</time></trkpt><trkpt lat="38.244459" lon="-6.305101"><ele>591.382</ele><time>2010-01-01T02:39:32Z</time></trkpt><trkpt lat="38.245162" lon="-6.306362"><ele>593.043</ele><time>2010-01-01T02:38:44Z</time></trkpt><trkpt lat="38.246866" lon="-6.308640"><ele>586.017</ele><time>2010-01-01T02:37:04Z</time></trkpt><trkpt lat="38.247157" lon="-6.308857"><ele>585.209</ele><time>2010-01-01T02:36:51Z</time></trkpt><trkpt lat="38.247470" lon="-6.309174"><ele>583.169</ele><time>2010-01-01T02:36:34Z</time></trkpt><trkpt lat="38.248059" lon="-6.309455"><ele>579.979</ele><time>2010-01-01T02:36:09Z</time></trkpt><trkpt lat="38.248617" lon="-6.309380"><ele>578.096</ele><time>2010-01-01T02:35:47Z</time></trkpt><trkpt lat="38.248786" lon="-6.309596"><ele>578.685</ele><time>2010-01-01T02:35:36Z</time></trkpt><trkpt lat="38.248931" lon="-6.309303"><ele>578.680</ele><time>2010-01-01T02:35:24Z</time></trkpt><trkpt lat="38.250462" lon="-6.309962"><ele>584.852</ele><time>2010-01-01T02:34:19Z</time></trkpt><trkpt lat="38.250537" lon="-6.309991"><ele>585.065</ele><time>2010-01-01T02:34:16Z</time></trkpt><trkpt lat="38.250603" lon="-6.309818"><ele>585.611</ele><time>2010-01-01T02:34:10Z</time></trkpt><trkpt lat="38.250650" lon="-6.309889"><ele>585.262</ele><time>2010-01-01T02:34:07Z</time></trkpt><trkpt lat="38.250880" lon="-6.310170"><ele>582.546</ele><time>2010-01-01T02:33:54Z</time></trkpt><trkpt lat="38.253869" lon="-6.310652"><ele>587.688</ele><time>2010-01-01T02:31:53Z</time></trkpt><trkpt lat="38.256600" lon="-6.310760"><ele>595.916</ele><time>2010-01-01T02:30:03Z</time></trkpt><trkpt lat="38.257064" lon="-6.310803"><ele>596.409</ele><time>2010-01-01T02:29:45Z</time></trkpt><trkpt lat="38.259937" lon="-6.310989"><ele>594.465</ele><time>2010-01-01T02:27:49Z</time></trkpt><trkpt lat="38.261851" lon="-6.311288"><ele>592.065</ele><time>2010-01-01T02:26:32Z</time></trkpt><trkpt lat="38.262586" lon="-6.311333"><ele>590.932</ele><time>2010-01-01T02:26:03Z</time></trkpt><trkpt lat="38.265471" lon="-6.312143"><ele>590.091</ele><time>2010-01-01T02:24:04Z</time></trkpt><trkpt lat="38.267236" lon="-6.312545"><ele>584.766</ele><time>2010-01-01T02:22:52Z</time></trkpt><trkpt lat="38.269020" lon="-6.313149"><ele>579.898</ele><time>2010-01-01T02:21:39Z</time></trkpt><trkpt lat="38.269987" lon="-6.313315"><ele>580.061</ele><time>2010-01-01T02:20:59Z</time></trkpt><trkpt lat="38.271514" lon="-6.313358"><ele>575.557</ele><time>2010-01-01T02:19:58Z</time></trkpt><trkpt lat="38.274361" lon="-6.314833"><ele>569.198</ele><time>2010-01-01T02:17:55Z</time></trkpt><trkpt lat="38.275081" lon="-6.315131"><ele>567.817</ele><time>2010-01-01T02:17:24Z</time></trkpt><trkpt lat="38.276081" lon="-6.315826"><ele>570.187</ele><time>2010-01-01T02:16:39Z</time></trkpt><trkpt lat="38.277822" lon="-6.315753"><ele>573.815</ele><time>2010-01-01T02:15:29Z</time></trkpt><trkpt lat="38.278732" lon="-6.315965"><ele>576.009</ele><time>2010-01-01T02:14:52Z</time></trkpt><trkpt lat="38.279959" lon="-6.316483"><ele>580.122</ele><time>2010-01-01T02:14:00Z</time></trkpt><trkpt lat="38.281019" lon="-6.317344"><ele>584.092</ele><time>2010-01-01T02:13:09Z</time></trkpt><trkpt lat="38.281560" lon="-6.317808"><ele>584.019</ele><time>2010-01-01T02:12:43Z</time></trkpt><trkpt lat="38.283191" lon="-6.318218"><ele>586.968</ele><time>2010-01-01T02:11:36Z</time></trkpt><trkpt lat="38.283589" lon="-6.318266"><ele>586.333</ele><time>2010-01-01T02:11:20Z</time></trkpt><trkpt lat="38.284410" lon="-6.318435"><ele>586.595</ele><time>2010-01-01T02:10:47Z</time></trkpt><trkpt lat="38.285530" lon="-6.319307"><ele>590.448</ele><time>2010-01-01T02:09:54Z</time></trkpt><trkpt lat="38.286377" lon="-6.319760"><ele>590.024</ele><time>2010-01-01T02:09:17Z</time></trkpt><trkpt lat="38.287489" lon="-6.319795"><ele>593.015</ele><time>2010-01-01T02:08:33Z</time></trkpt><trkpt lat="38.288138" lon="-6.319744"><ele>592.017</ele><time>2010-01-01T02:08:07Z</time></trkpt><trkpt lat="38.291222" lon="-6.319085"><ele>582.387</ele><time>2010-01-01T02:06:02Z</time></trkpt><trkpt lat="38.298307" lon="-6.318339"><ele>568.915</ele><time>2010-01-01T02:01:17Z</time></trkpt><trkpt lat="38.298347" lon="-6.318186"><ele>569.009</ele><time>2010-01-01T02:01:12Z</time></trkpt><trkpt lat="38.297951" lon="-6.317307"><ele>566.652</ele><time>2010-01-01T02:00:40Z</time></trkpt><trkpt lat="38.297861" lon="-6.316713"><ele>566.762</ele><time>2010-01-01T02:00:21Z</time></trkpt><trkpt lat="38.297720" lon="-6.315770"><ele>564.269</ele><time>2010-01-01T01:59:51Z</time></trkpt><trkpt lat="38.297977" lon="-6.313978"><ele>564.318</ele><time>2010-01-01T01:58:53Z</time></trkpt><trkpt lat="38.298047" lon="-6.313583"><ele>562.843</ele><time>2010-01-01T01:58:40Z</time></trkpt><trkpt lat="38.298065" lon="-6.310960"><ele>556.065</ele><time>2010-01-01T01:57:17Z</time></trkpt><trkpt lat="38.298118" lon="-6.310898"><ele>556.138</ele><time>2010-01-01T01:57:15Z</time></trkpt><trkpt lat="38.301003" lon="-6.311139"><ele>549.254</ele><time>2010-01-01T01:55:19Z</time></trkpt><trkpt lat="38.302862" lon="-6.311614"><ele>558.045</ele><time>2010-01-01T01:54:03Z</time></trkpt><trkpt lat="38.303222" lon="-6.311762"><ele>558.098</ele><time>2010-01-01T01:53:48Z</time></trkpt><trkpt lat="38.304685" lon="-6.312424"><ele>549.215</ele><time>2010-01-01T01:52:45Z</time></trkpt><trkpt lat="38.306059" lon="-6.312673"><ele>549.426</ele><time>2010-01-01T01:51:50Z</time></trkpt><trkpt lat="38.310230" lon="-6.313243"><ele>530.309</ele><time>2010-01-01T01:49:02Z</time></trkpt><trkpt lat="38.316110" lon="-6.312712"><ele>530.510</ele><time>2010-01-01T01:45:05Z</time></trkpt><trkpt lat="38.316405" lon="-6.312781"><ele>528.940</ele><time>2010-01-01T01:44:53Z</time></trkpt><trkpt lat="38.319414" lon="-6.314750"><ele>526.397</ele><time>2010-01-01T01:42:38Z</time></trkpt><trkpt lat="38.320079" lon="-6.315340"><ele>520.946</ele><time>2010-01-01T01:42:05Z</time></trkpt><trkpt lat="38.320513" lon="-6.315780"><ele>521.181</ele><time>2010-01-01T01:41:43Z</time></trkpt><trkpt lat="38.321502" lon="-6.316853"><ele>517.233</ele><time>2010-01-01T01:40:51Z</time></trkpt><trkpt lat="38.323008" lon="-6.318500"><ele>511.256</ele><time>2010-01-01T01:39:32Z</time></trkpt><trkpt lat="38.324725" lon="-6.320383"><ele>506.832</ele><time>2010-01-01T01:38:01Z</time></trkpt><trkpt lat="38.325100" lon="-6.320731"><ele>506.693</ele><time>2010-01-01T01:37:42Z</time></trkpt><trkpt lat="38.326076" lon="-6.321161"><ele>500.348</ele><time>2010-01-01T01:37:01Z</time></trkpt><trkpt lat="38.331635" lon="-6.320383"><ele>522.461</ele><time>2010-01-01T01:33:17Z</time></trkpt><trkpt lat="38.334968" lon="-6.319970"><ele>529.017</ele><time>2010-01-01T01:31:03Z</time></trkpt><trkpt lat="38.336832" lon="-6.319465"><ele>524.109</ele><time>2010-01-01T01:29:46Z</time></trkpt><trkpt lat="38.340430" lon="-6.318135"><ele>524.655</ele><time>2010-01-01T01:27:16Z</time></trkpt><trkpt lat="38.341561" lon="-6.317786"><ele>522.455</ele><time>2010-01-01T01:26:30Z</time></trkpt><trkpt lat="38.342630" lon="-6.317760"><ele>521.552</ele><time>2010-01-01T01:25:47Z</time></trkpt><trkpt lat="38.343623" lon="-6.318033"><ele>516.031</ele><time>2010-01-01T01:25:06Z</time></trkpt><trkpt lat="38.345230" lon="-6.319144"><ele>511.136</ele><time>2010-01-01T01:23:53Z</time></trkpt><trkpt lat="38.346511" lon="-6.320246"><ele>520.898</ele><time>2010-01-01T01:22:51Z</time></trkpt><trkpt lat="38.347833" lon="-6.321347"><ele>521.071</ele><time>2010-01-01T01:21:48Z</time></trkpt><trkpt lat="38.349563" lon="-6.322798"><ele>525.997</ele><time>2010-01-01T01:20:25Z</time></trkpt><trkpt lat="38.351625" lon="-6.324521"><ele>529.158</ele><time>2010-01-01T01:18:46Z</time></trkpt><trkpt lat="38.352975" lon="-6.325572"><ele>532.011</ele><time>2010-01-01T01:17:43Z</time></trkpt><trkpt lat="38.353564" lon="-6.325905"><ele>529.421</ele><time>2010-01-01T01:17:17Z</time></trkpt><trkpt lat="38.354862" lon="-6.326605"><ele>533.103</ele><time>2010-01-01T01:16:21Z</time></trkpt><trkpt lat="38.357716" lon="-6.328063"><ele>530.009</ele><time>2010-01-01T01:14:17Z</time></trkpt><trkpt lat="38.363012" lon="-6.330363"><ele>529.812</ele><time>2010-01-01T01:10:33Z</time></trkpt><trkpt lat="38.368824" lon="-6.331906"><ele>529.112</ele><time>2010-01-01T01:06:36Z</time></trkpt><trkpt lat="38.369813" lon="-6.332494"><ele>529.769</ele><time>2010-01-01T01:05:52Z</time></trkpt><trkpt lat="38.370349" lon="-6.332891"><ele>523.978</ele><time>2010-01-01T01:05:27Z</time></trkpt><trkpt lat="38.371394" lon="-6.333473"><ele>522.033</ele><time>2010-01-01T01:04:41Z</time></trkpt><trkpt lat="38.373539" lon="-6.335777"><ele>528.165</ele><time>2010-01-01T01:02:49Z</time></trkpt><trkpt lat="38.374023" lon="-6.336236"><ele>528.768</ele><time>2010-01-01T01:02:25Z</time></trkpt><trkpt lat="38.374961" lon="-6.336880"><ele>535.494</ele><time>2010-01-01T01:01:42Z</time></trkpt><trkpt lat="38.378350" lon="-6.339047"><ele>539.675</ele><time>2010-01-01T00:59:10Z</time></trkpt><trkpt lat="38.380364" lon="-6.339862"><ele>541.249</ele><time>2010-01-01T00:57:46Z</time></trkpt><trkpt lat="38.383234" lon="-6.341640"><ele>547.102</ele><time>2010-01-01T00:55:38Z</time></trkpt><trkpt lat="38.386350" lon="-6.343529"><ele>546.122</ele><time>2010-01-01T00:53:20Z</time></trkpt><trkpt lat="38.386592" lon="-6.343719"><ele>545.609</ele><time>2010-01-01T00:53:08Z</time></trkpt><trkpt lat="38.386756" lon="-6.344199"><ele>547.025</ele><time>2010-01-01T00:52:52Z</time></trkpt><trkpt lat="38.387431" lon="-6.346200"><ele>547.015</ele><time>2010-01-01T00:51:43Z</time></trkpt><trkpt lat="38.387919" lon="-6.348359"><ele>540.912</ele><time>2010-01-01T00:50:33Z</time></trkpt><trkpt lat="38.387848" lon="-6.350907"><ele>533.571</ele><time>2010-01-01T00:49:13Z</time></trkpt><trkpt lat="38.387902" lon="-6.352079"><ele>533.746</ele><time>2010-01-01T00:48:35Z</time></trkpt><trkpt lat="38.388707" lon="-6.354474"><ele>533.618</ele><time>2010-01-01T00:47:14Z</time></trkpt><trkpt lat="38.389157" lon="-6.356580"><ele>542.091</ele><time>2010-01-01T00:46:05Z</time></trkpt><trkpt lat="38.389317" lon="-6.357478"><ele>541.017</ele><time>2010-01-01T00:45:36Z</time></trkpt><trkpt lat="38.389426" lon="-6.358042"><ele>541.028</ele><time>2010-01-01T00:45:18Z</time></trkpt><trkpt lat="38.390360" lon="-6.360051"><ele>536.886</ele><time>2010-01-01T00:44:05Z</time></trkpt><trkpt lat="38.390965" lon="-6.364281"><ele>541.260</ele><time>2010-01-01T00:41:49Z</time></trkpt><trkpt lat="38.391932" lon="-6.367314"><ele>541.026</ele><time>2010-01-01T00:40:06Z</time></trkpt><trkpt lat="38.392130" lon="-6.368205"><ele>543.709</ele><time>2010-01-01T00:39:37Z</time></trkpt><trkpt lat="38.393213" lon="-6.371785"><ele>542.069</ele><time>2010-01-01T00:37:37Z</time></trkpt><trkpt lat="38.393858" lon="-6.373322"><ele>542.929</ele><time>2010-01-01T00:36:42Z</time></trkpt><trkpt lat="38.394281" lon="-6.374304"><ele>540.366</ele><time>2010-01-01T00:36:07Z</time></trkpt><trkpt lat="38.394941" lon="-6.378223"><ele>535.345</ele><time>2010-01-01T00:34:01Z</time></trkpt><trkpt lat="38.395063" lon="-6.378998"><ele>532.570</ele><time>2010-01-01T00:33:36Z</time></trkpt><trkpt lat="38.395336" lon="-6.382450"><ele>529.992</ele><time>2010-01-01T00:31:48Z</time></trkpt><trkpt lat="38.395744" lon="-6.384319"><ele>529.795</ele><time>2010-01-01T00:30:47Z</time></trkpt><trkpt lat="38.396040" lon="-6.387527"><ele>530.041</ele><time>2010-01-01T00:29:05Z</time></trkpt><trkpt lat="38.395695" lon="-6.390228"><ele>534.492</ele><time>2010-01-01T00:27:39Z</time></trkpt><trkpt lat="38.395275" lon="-6.393071"><ele>531.099</ele><time>2010-01-01T00:26:08Z</time></trkpt><trkpt lat="38.394932" lon="-6.394069"><ele>530.407</ele><time>2010-01-01T00:25:34Z</time></trkpt><trkpt lat="38.394388" lon="-6.395593"><ele>525.927</ele><time>2010-01-01T00:24:41Z</time></trkpt><trkpt lat="38.394405" lon="-6.395882"><ele>527.009</ele><time>2010-01-01T00:24:32Z</time></trkpt><trkpt lat="38.396078" lon="-6.396864"><ele>527.070</ele><time>2010-01-01T00:23:18Z</time></trkpt><trkpt lat="38.396809" lon="-6.396944"><ele>525.560</ele><time>2010-01-01T00:22:49Z</time></trkpt><trkpt lat="38.398123" lon="-6.398076"><ele>525.087</ele><time>2010-01-01T00:21:45Z</time></trkpt><trkpt lat="38.398455" lon="-6.398996"><ele>522.666</ele><time>2010-01-01T00:21:13Z</time></trkpt><trkpt lat="38.398512" lon="-6.400550"><ele>519.651</ele><time>2010-01-01T00:20:24Z</time></trkpt><trkpt lat="38.398409" lon="-6.401027"><ele>516.933</ele><time>2010-01-01T00:20:08Z</time></trkpt><trkpt lat="38.398308" lon="-6.401577"><ele>513.326</ele><time>2010-01-01T00:19:51Z</time></trkpt><trkpt lat="38.398441" lon="-6.401880"><ele>512.162</ele><time>2010-01-01T00:19:39Z</time></trkpt><trkpt lat="38.399633" lon="-6.402430"><ele>514.053</ele><time>2010-01-01T00:18:49Z</time></trkpt><trkpt lat="38.400734" lon="-6.403184"><ele>518.614</ele><time>2010-01-01T00:17:59Z</time></trkpt><trkpt lat="38.403528" lon="-6.405227"><ele>514.154</ele><time>2010-01-01T00:15:50Z</time></trkpt><trkpt lat="38.404654" lon="-6.405949"><ele>510.509</ele><time>2010-01-01T00:14:59Z</time></trkpt><trkpt lat="38.407252" lon="-6.406756"><ele>513.109</ele><time>2010-01-01T00:13:12Z</time></trkpt><trkpt lat="38.409368" lon="-6.407672"><ele>508.942</ele><time>2010-01-01T00:11:42Z</time></trkpt><trkpt lat="38.411133" lon="-6.408418"><ele>509.982</ele><time>2010-01-01T00:10:28Z</time></trkpt><trkpt lat="38.411480" lon="-6.408512"><ele>512.149</ele><time>2010-01-01T00:10:14Z</time></trkpt><trkpt lat="38.412134" lon="-6.408515"><ele>513.078</ele><time>2010-01-01T00:09:48Z</time></trkpt><trkpt lat="38.413041" lon="-6.408156"><ele>518.063</ele><time>2010-01-01T00:09:09Z</time></trkpt><trkpt lat="38.413523" lon="-6.407772"><ele>517.435</ele><time>2010-01-01T00:08:47Z</time></trkpt><trkpt lat="38.413855" lon="-6.407394"><ele>522.298</ele><time>2010-01-01T00:08:29Z</time></trkpt><trkpt lat="38.414376" lon="-6.406699"><ele>522.974</ele><time>2010-01-01T00:07:59Z</time></trkpt><trkpt lat="38.421633" lon="-6.414898"><ele>518.245</ele><time>2010-01-01T00:01:30Z</time></trkpt><trkpt lat="38.421735" lon="-6.415068"><ele>516.868</ele><time>2010-01-01T00:01:24Z</time></trkpt><trkpt lat="38.421866" lon="-6.415349"><ele>513.942</ele><time>2010-01-01T00:01:13Z</time></trkpt><trkpt lat="38.421812" lon="-6.415956"><ele>513.526</ele><time>2010-01-01T00:00:51Z</time></trkpt><trkpt lat="38.423246" lon="-6.416661"><ele>512.709</ele><time>2010-01-01T06:18:07Z</time></trkpt><trkpt lat="38.423927" lon="-6.416170"><ele>515.087</ele><time>2010-01-01T06:17:35Z</time></trkpt><trkpt lat="38.424289" lon="-6.416164"><ele>515.047</ele><time>2010-01-01T06:17:20Z</time></trkpt><trkpt lat="38.426222" lon="-6.416877"><ele>519.194</ele><time>2010-01-01T06:16:00Z</time></trkpt><trkpt lat="38.427009" lon="-6.417352"><ele>518.093</ele><time>2010-01-01T06:15:25Z</time></trkpt><trkpt lat="38.430170" lon="-6.414761"><ele>527.958</ele><time>2010-01-01T06:12:54Z</time></trkpt><trkpt lat="38.430415" lon="-6.414775"><ele>526.890</ele><time>2010-01-01T06:12:44Z</time></trkpt><trkpt lat="38.430714" lon="-6.414310"><ele>525.743</ele><time>2010-01-01T06:12:25Z</time></trkpt><trkpt lat="38.432775" lon="-6.412882"><ele>535.469</ele><time>2010-01-01T06:10:51Z</time></trkpt><trkpt lat="38.434370" lon="-6.409347"><ele>545.410</ele><time>2010-01-01T06:08:43Z</time></trkpt><trkpt lat="38.436989" lon="-6.402917"><ele>560.693</ele><time>2010-01-01T06:04:56Z</time></trkpt><trkpt lat="38.438203" lon="-6.400203"><ele>569.565</ele><time>2010-01-01T06:03:17Z</time></trkpt><trkpt lat="38.438426" lon="-6.399868"><ele>572.621</ele><time>2010-01-01T06:03:04Z</time></trkpt><trkpt lat="38.439029" lon="-6.399202"><ele>573.209</ele><time>2010-01-01T06:02:32Z</time></trkpt><trkpt lat="38.439598" lon="-6.398717"><ele>579.490</ele><time>2010-01-01T06:02:04Z</time></trkpt><trkpt lat="38.439871" lon="-6.398293"><ele>583.860</ele><time>2010-01-01T06:01:47Z</time></trkpt><trkpt lat="38.440186" lon="-6.397282"><ele>588.747</ele><time>2010-01-01T06:01:13Z</time></trkpt><trkpt lat="38.440529" lon="-6.395230"><ele>601.286</ele><time>2010-01-01T06:00:07Z</time></trkpt><trkpt lat="38.440766" lon="-6.394570"><ele>604.871</ele><time>2010-01-01T05:59:44Z</time></trkpt><trkpt lat="38.440886" lon="-6.394227"><ele>605.283</ele><time>2010-01-01T05:59:32Z</time></trkpt><trkpt lat="38.441001" lon="-6.393519"><ele>608.216</ele><time>2010-01-01T05:59:09Z</time></trkpt><trkpt lat="38.441617" lon="-6.392003"><ele>612.842</ele><time>2010-01-01T05:58:15Z</time></trkpt><trkpt lat="38.441875" lon="-6.391684"><ele>614.083</ele><time>2010-01-01T05:58:01Z</time></trkpt><trkpt lat="38.442346" lon="-6.391279"><ele>608.284</ele><time>2010-01-01T05:57:38Z</time></trkpt><trkpt lat="38.442388" lon="-6.390128"><ele>594.307</ele><time>2010-01-01T05:57:01Z</time></trkpt><trkpt lat="38.442669" lon="-6.389782"><ele>589.417</ele><time>2010-01-01T05:56:46Z</time></trkpt><trkpt lat="38.444125" lon="-6.389125"><ele>564.009</ele><time>2010-01-01T05:55:43Z</time></trkpt><trkpt lat="38.444306" lon="-6.388846"><ele>561.689</ele><time>2010-01-01T05:55:32Z</time></trkpt><trkpt lat="38.444472" lon="-6.388731"><ele>557.999</ele><time>2010-01-01T05:55:24Z</time></trkpt><trkpt lat="38.444749" lon="-6.388280"><ele>552.476</ele><time>2010-01-01T05:55:06Z</time></trkpt><trkpt lat="38.446036" lon="-6.387125"><ele>544.635</ele><time>2010-01-01T05:54:03Z</time></trkpt><trkpt lat="38.447826" lon="-6.385867"><ele>542.040</ele><time>2010-01-01T05:52:41Z</time></trkpt><trkpt lat="38.447981" lon="-6.385725"><ele>541.752</ele><time>2010-01-01T05:52:33Z</time></trkpt><trkpt lat="38.448271" lon="-6.385041"><ele>539.165</ele><time>2010-01-01T05:52:08Z</time></trkpt><trkpt lat="38.448458" lon="-6.384285"><ele>537.071</ele><time>2010-01-01T05:51:43Z</time></trkpt><trkpt lat="38.448865" lon="-6.384507"><ele>535.412</ele><time>2010-01-01T05:51:24Z</time></trkpt><trkpt lat="38.449103" lon="-6.384076"><ele>534.759</ele><time>2010-01-01T05:51:07Z</time></trkpt><trkpt lat="38.449132" lon="-6.383705"><ele>534.003</ele><time>2010-01-01T05:50:53Z</time></trkpt><trkpt lat="38.448942" lon="-6.383623"><ele>534.023</ele><time>2010-01-01T05:50:45Z</time></trkpt><trkpt lat="38.448949" lon="-6.383123"><ele>531.909</ele><time>2010-01-01T05:50:29Z</time></trkpt><trkpt lat="38.449480" lon="-6.382568"><ele>533.926</ele><time>2010-01-01T05:50:02Z</time></trkpt><trkpt lat="38.449863" lon="-6.381645"><ele>533.536</ele><time>2010-01-01T05:49:29Z</time></trkpt><trkpt lat="38.451289" lon="-6.378319"><ele>513.933</ele><time>2010-01-01T05:47:30Z</time></trkpt><trkpt lat="38.451092" lon="-6.377850"><ele>510.342</ele><time>2010-01-01T05:47:12Z</time></trkpt><trkpt lat="38.451295" lon="-6.375653"><ele>517.477</ele><time>2010-01-01T05:46:03Z</time></trkpt><trkpt lat="38.451510" lon="-6.374022"><ele>519.579</ele><time>2010-01-01T05:45:11Z</time></trkpt><trkpt lat="38.451854" lon="-6.373303"><ele>515.972</ele><time>2010-01-01T05:44:44Z</time></trkpt><trkpt lat="38.452198" lon="-6.373083"><ele>516.858</ele><time>2010-01-01T05:44:29Z</time></trkpt><trkpt lat="38.453270" lon="-6.371581"><ele>532.579</ele><time>2010-01-01T05:43:25Z</time></trkpt><trkpt lat="38.453652" lon="-6.371061"><ele>534.262</ele><time>2010-01-01T05:43:03Z</time></trkpt><trkpt lat="38.454278" lon="-6.369872"><ele>540.783</ele><time>2010-01-01T05:42:18Z</time></trkpt><trkpt lat="38.455530" lon="-6.366583"><ele>546.111</ele><time>2010-01-01T05:40:23Z</time></trkpt><trkpt lat="38.455731" lon="-6.366245"><ele>544.409</ele><time>2010-01-01T05:40:10Z</time></trkpt><trkpt lat="38.456496" lon="-6.365591"><ele>546.067</ele><time>2010-01-01T05:39:33Z</time></trkpt><trkpt lat="38.456945" lon="-6.364695"><ele>547.217</ele><time>2010-01-01T05:38:59Z</time></trkpt><trkpt lat="38.457072" lon="-6.364497"><ele>547.854</ele><time>2010-01-01T05:38:51Z</time></trkpt><trkpt lat="38.464726" lon="-6.364732"><ele>553.083</ele><time>2010-01-01T05:33:45Z</time></trkpt><trkpt lat="38.465408" lon="-6.364705"><ele>549.988</ele><time>2010-01-01T05:33:18Z</time></trkpt><trkpt lat="38.466284" lon="-6.364633"><ele>549.530</ele><time>2010-01-01T05:32:42Z</time></trkpt><trkpt lat="38.467126" lon="-6.364491"><ele>546.423</ele><time>2010-01-01T05:32:08Z</time></trkpt><trkpt lat="38.473527" lon="-6.362739"><ele>538.629</ele><time>2010-01-01T05:27:46Z</time></trkpt><trkpt lat="38.479964" lon="-6.360618"><ele>524.280</ele><time>2010-01-01T05:23:20Z</time></trkpt><trkpt lat="38.480997" lon="-6.360254"><ele>519.479</ele><time>2010-01-01T05:22:37Z</time></trkpt><trkpt lat="38.491994" lon="-6.356644"><ele>502.805</ele><time>2010-01-01T05:15:03Z</time></trkpt><trkpt lat="38.493403" lon="-6.356612"><ele>502.125</ele><time>2010-01-01T05:14:06Z</time></trkpt><trkpt lat="38.495752" lon="-6.356748"><ele>493.509</ele><time>2010-01-01T05:12:32Z</time></trkpt><trkpt lat="38.497444" lon="-6.356850"><ele>492.198</ele><time>2010-01-01T05:11:24Z</time></trkpt><trkpt lat="38.501045" lon="-6.357090"><ele>495.438</ele><time>2010-01-01T05:09:00Z</time></trkpt><trkpt lat="38.502645" lon="-6.357160"><ele>493.615</ele><time>2010-01-01T05:07:56Z</time></trkpt><trkpt lat="38.504385" lon="-6.356799"><ele>493.014</ele><time>2010-01-01T05:06:45Z</time></trkpt><trkpt lat="38.530049" lon="-6.349278"><ele>438.319</ele><time>2010-01-01T04:49:11Z</time></trkpt><trkpt lat="38.531189" lon="-6.349367"><ele>436.071</ele><time>2010-01-01T04:48:25Z</time></trkpt><trkpt lat="38.536083" lon="-6.351110"><ele>433.094</ele><time>2010-01-01T04:45:02Z</time></trkpt><trkpt lat="38.537933" lon="-6.351432"><ele>428.210</ele><time>2010-01-01T04:43:47Z</time></trkpt><trkpt lat="38.539033" lon="-6.351453"><ele>423.591</ele><time>2010-01-01T04:43:03Z</time></trkpt><trkpt lat="38.540973" lon="-6.351073"><ele>423.064</ele><time>2010-01-01T04:41:44Z</time></trkpt><trkpt lat="38.546849" lon="-6.351016"><ele>417.306</ele><time>2010-01-01T04:37:49Z</time></trkpt><trkpt lat="38.548890" lon="-6.350421"><ele>416.016</ele><time>2010-01-01T04:36:25Z</time></trkpt><trkpt lat="38.550099" lon="-6.350147"><ele>419.009</ele><time>2010-01-01T04:35:36Z</time></trkpt><trkpt lat="38.551615" lon="-6.350260"><ele>419.967</ele><time>2010-01-01T04:34:35Z</time></trkpt><trkpt lat="38.554129" lon="-6.350429"><ele>414.457</ele><time>2010-01-01T04:32:54Z</time></trkpt><trkpt lat="38.556025" lon="-6.350220"><ele>412.064</ele><time>2010-01-01T04:31:38Z</time></trkpt><trkpt lat="38.557158" lon="-6.350118"><ele>414.943</ele><time>2010-01-01T04:30:53Z</time></trkpt><trkpt lat="38.559521" lon="-6.350198"><ele>412.258</ele><time>2010-01-01T04:29:18Z</time></trkpt><trkpt lat="38.560952" lon="-6.350185"><ele>408.940</ele><time>2010-01-01T04:28:21Z</time></trkpt><trkpt lat="38.564231" lon="-6.349946"><ele>408.173</ele><time>2010-01-01T04:26:09Z</time></trkpt><trkpt lat="38.564818" lon="-6.349924"><ele>407.659</ele><time>2010-01-01T04:25:46Z</time></trkpt><trkpt lat="38.567443" lon="-6.350469"><ele>398.440</ele><time>2010-01-01T04:23:59Z</time></trkpt><trkpt lat="38.570725" lon="-6.351507"><ele>396.437</ele><time>2010-01-01T04:21:44Z</time></trkpt><trkpt lat="38.570994" lon="-6.351678"><ele>394.049</ele><time>2010-01-01T04:21:32Z</time></trkpt><trkpt lat="38.571065" lon="-6.351810"><ele>393.913</ele><time>2010-01-01T04:21:27Z</time></trkpt><trkpt lat="38.571119" lon="-6.351893"><ele>394.009</ele><time>2010-01-01T04:21:23Z</time></trkpt><trkpt lat="38.571373" lon="-6.351944"><ele>394.914</ele><time>2010-01-01T04:21:12Z</time></trkpt><trkpt lat="38.571774" lon="-6.351858"><ele>395.354</ele><time>2010-01-01T04:20:56Z</time></trkpt><trkpt lat="38.574315" lon="-6.352660"><ele>395.471</ele><time>2010-01-01T04:19:11Z</time></trkpt><trkpt lat="38.580419" lon="-6.355573"><ele>398.110</ele><time>2010-01-01T04:14:50Z</time></trkpt><trkpt lat="38.584513" lon="-6.356488"><ele>400.685</ele><time>2010-01-01T04:12:04Z</time></trkpt><trkpt lat="38.585825" lon="-6.356820"><ele>398.177</ele><time>2010-01-01T04:11:10Z</time></trkpt><trkpt lat="38.600440" lon="-6.362638"><ele>392.010</ele><time>2010-01-01T04:00:57Z</time></trkpt><trkpt lat="38.602727" lon="-6.362885"><ele>388.346</ele><time>2010-01-01T03:59:25Z</time></trkpt><trkpt lat="38.614045" lon="-6.362410"><ele>381.577</ele><time>2010-01-01T03:51:52Z</time></trkpt><trkpt lat="38.615409" lon="-6.362429"><ele>376.888</ele><time>2010-01-01T03:50:57Z</time></trkpt><trkpt lat="38.617658" lon="-6.362836"><ele>377.224</ele><time>2010-01-01T03:49:26Z</time></trkpt><trkpt lat="38.654821" lon="-6.377975"><ele>378.026</ele><time>2010-01-01T03:23:25Z</time></trkpt><trkpt lat="38.655552" lon="-6.378425"><ele>376.009</ele><time>2010-01-01T03:22:52Z</time></trkpt><trkpt lat="38.658011" lon="-6.378964"><ele>373.079</ele><time>2010-01-01T03:21:12Z</time></trkpt><trkpt lat="38.658998" lon="-6.378766"><ele>377.399</ele><time>2010-01-01T03:20:32Z</time></trkpt><trkpt lat="38.660221" lon="-6.378407"><ele>376.526</ele><time>2010-01-01T03:19:42Z</time></trkpt><trkpt lat="38.661373" lon="-6.378500"><ele>376.385</ele><time>2010-01-01T03:18:56Z</time></trkpt><trkpt lat="38.662018" lon="-6.378919"><ele>376.710</ele><time>2010-01-01T03:18:26Z</time></trkpt><trkpt lat="38.663532" lon="-6.380539"><ele>375.242</ele><time>2010-01-01T03:17:07Z</time></trkpt><trkpt lat="38.663601" lon="-6.380928"><ele>376.015</ele><time>2010-01-01T03:16:55Z</time></trkpt><trkpt lat="38.663721" lon="-6.381207"><ele>375.911</ele><time>2010-01-01T03:16:44Z</time></trkpt><trkpt lat="38.664487" lon="-6.381446"><ele>373.262</ele><time>2010-01-01T03:16:12Z</time></trkpt><trkpt lat="38.665553" lon="-6.382524"><ele>377.153</ele><time>2010-01-01T03:15:18Z</time></trkpt><trkpt lat="38.670533" lon="-6.387466"><ele>369.204</ele><time>2010-01-01T03:11:05Z</time></trkpt><trkpt lat="38.670693" lon="-6.387887"><ele>366.314</ele><time>2010-01-01T03:10:50Z</time></trkpt><trkpt lat="38.670994" lon="-6.387949"><ele>366.209</ele><time>2010-01-01T03:10:38Z</time></trkpt><trkpt lat="38.674491" lon="-6.391270"><ele>366.636</ele><time>2010-01-01T03:07:44Z</time></trkpt><trkpt lat="38.675513" lon="-6.392235"><ele>362.966</ele><time>2010-01-01T03:06:53Z</time></trkpt><trkpt lat="38.675664" lon="-6.392554"><ele>362.143</ele><time>2010-01-01T03:06:41Z</time></trkpt><trkpt lat="38.675734" lon="-6.392683"><ele>361.362</ele><time>2010-01-01T03:06:36Z</time></trkpt><trkpt lat="38.675983" lon="-6.392705"><ele>360.177</ele><time>2010-01-01T03:06:25Z</time></trkpt><trkpt lat="38.683651" lon="-6.400042"><ele>350.969</ele><time>2010-01-01T02:59:59Z</time></trkpt><trkpt lat="38.683698" lon="-6.400164"><ele>350.992</ele><time>2010-01-01T02:59:55Z</time></trkpt><trkpt lat="38.684374" lon="-6.400630"><ele>350.078</ele><time>2010-01-01T02:59:23Z</time></trkpt><trkpt lat="38.688400" lon="-6.404455"><ele>342.099</ele><time>2010-01-01T02:56:02Z</time></trkpt><trkpt lat="38.689950" lon="-6.405901"><ele>335.455</ele><time>2010-01-01T02:54:45Z</time></trkpt><trkpt lat="38.690429" lon="-6.405990"><ele>333.707</ele><time>2010-01-01T02:54:25Z</time></trkpt><trkpt lat="38.691366" lon="-6.405731"><ele>332.117</ele><time>2010-01-01T02:53:47Z</time></trkpt><trkpt lat="38.691459" lon="-6.405724"><ele>331.609</ele><time>2010-01-01T02:53:43Z</time></trkpt><trkpt lat="38.691612" lon="-6.405819"><ele>331.226</ele><time>2010-01-01T02:53:36Z</time></trkpt><trkpt lat="38.691783" lon="-6.405800"><ele>330.946</ele><time>2010-01-01T02:53:29Z</time></trkpt><trkpt lat="38.692015" lon="-6.405495"><ele>330.093</ele><time>2010-01-01T02:53:16Z</time></trkpt><trkpt lat="38.696119" lon="-6.404155"><ele>338.922</ele><time>2010-01-01T02:50:26Z</time></trkpt><trkpt lat="38.698534" lon="-6.403362"><ele>338.857</ele><time>2010-01-01T02:48:46Z</time></trkpt><trkpt lat="38.699265" lon="-6.403157"><ele>334.919</ele><time>2010-01-01T02:48:16Z</time></trkpt><trkpt lat="38.699417" lon="-6.403254"><ele>334.252</ele><time>2010-01-01T02:48:09Z</time></trkpt><trkpt lat="38.699952" lon="-6.402910"><ele>333.078</ele><time>2010-01-01T02:47:44Z</time></trkpt><trkpt lat="38.702000" lon="-6.402263"><ele>338.349</ele><time>2010-01-01T02:46:19Z</time></trkpt><trkpt lat="38.704279" lon="-6.401596"><ele>330.454</ele><time>2010-01-01T02:44:45Z</time></trkpt><trkpt lat="38.704352" lon="-6.401657"><ele>330.356</ele><time>2010-01-01T02:44:41Z</time></trkpt><trkpt lat="38.704681" lon="-6.401521"><ele>329.111</ele><time>2010-01-01T02:44:26Z</time></trkpt><trkpt lat="38.704813" lon="-6.401346"><ele>329.309</ele><time>2010-01-01T02:44:18Z</time></trkpt><trkpt lat="38.706194" lon="-6.400896"><ele>332.266</ele><time>2010-01-01T02:43:21Z</time></trkpt><trkpt lat="38.709928" lon="-6.399664"><ele>335.386</ele><time>2010-01-01T02:40:47Z</time></trkpt><trkpt lat="38.710338" lon="-6.399812"><ele>334.733</ele><time>2010-01-01T02:40:29Z</time></trkpt><trkpt lat="38.710615" lon="-6.399707"><ele>333.632</ele><time>2010-01-01T02:40:18Z</time></trkpt><trkpt lat="38.710736" lon="-6.399427"><ele>333.447</ele><time>2010-01-01T02:40:08Z</time></trkpt><trkpt lat="38.710943" lon="-6.399314"><ele>332.859</ele><time>2010-01-01T02:39:59Z</time></trkpt><trkpt lat="38.716416" lon="-6.397549"><ele>333.142</ele><time>2010-01-01T02:36:13Z</time></trkpt><trkpt lat="38.721461" lon="-6.395896"><ele>332.758</ele><time>2010-01-01T02:32:44Z</time></trkpt><trkpt lat="38.766857" lon="-6.381105"><ele>321.769</ele><time>2010-01-01T02:01:29Z</time></trkpt><trkpt lat="38.768208" lon="-6.380877"><ele>319.598</ele><time>2010-01-01T02:00:35Z</time></trkpt><trkpt lat="38.769153" lon="-6.380941"><ele>318.615</ele><time>2010-01-01T01:59:57Z</time></trkpt><trkpt lat="38.772102" lon="-6.382036"><ele>320.026</ele><time>2010-01-01T01:57:53Z</time></trkpt><trkpt lat="38.773101" lon="-6.381891"><ele>320.809</ele><time>2010-01-01T01:57:13Z</time></trkpt><trkpt lat="38.773369" lon="-6.381754"><ele>319.130</ele><time>2010-01-01T01:57:01Z</time></trkpt><trkpt lat="38.773604" lon="-6.381666"><ele>317.120</ele><time>2010-01-01T01:56:51Z</time></trkpt><trkpt lat="38.773775" lon="-6.381704"><ele>316.597</ele><time>2010-01-01T01:56:44Z</time></trkpt><trkpt lat="38.773993" lon="-6.381497"><ele>315.226</ele><time>2010-01-01T01:56:33Z</time></trkpt><trkpt lat="38.773853" lon="-6.380921"><ele>314.481</ele><time>2010-01-01T01:56:13Z</time></trkpt><trkpt lat="38.773984" lon="-6.380151"><ele>316.143</ele><time>2010-01-01T01:55:49Z</time></trkpt><trkpt lat="38.774137" lon="-6.379808"><ele>316.096</ele><time>2010-01-01T01:55:36Z</time></trkpt><trkpt lat="38.774288" lon="-6.379682"><ele>315.662</ele><time>2010-01-01T01:55:28Z</time></trkpt><trkpt lat="38.774440" lon="-6.379175"><ele>316.093</ele><time>2010-01-01T01:55:10Z</time></trkpt><trkpt lat="38.775810" lon="-6.378662"><ele>311.797</ele><time>2010-01-01T01:54:13Z</time></trkpt><trkpt lat="38.790032" lon="-6.378294"><ele>303.023</ele><time>2010-01-01T01:44:43Z</time></trkpt><trkpt lat="38.797250" lon="-6.377229"><ele>310.025</ele><time>2010-01-01T01:39:53Z</time></trkpt><trkpt lat="38.797756" lon="-6.377125"><ele>309.409</ele><time>2010-01-01T01:39:32Z</time></trkpt><trkpt lat="38.801081" lon="-6.375971"><ele>309.510</ele><time>2010-01-01T01:37:14Z</time></trkpt><trkpt lat="38.810990" lon="-6.372397"><ele>295.170</ele><time>2010-01-01T01:30:22Z</time></trkpt><trkpt lat="38.812679" lon="-6.371804"><ele>290.167</ele><time>2010-01-01T01:29:12Z</time></trkpt><trkpt lat="38.813924" lon="-6.371434"><ele>296.766</ele><time>2010-01-01T01:28:21Z</time></trkpt><trkpt lat="38.817101" lon="-6.370281"><ele>301.521</ele><time>2010-01-01T01:26:08Z</time></trkpt><trkpt lat="38.822037" lon="-6.368844"><ele>309.563</ele><time>2010-01-01T01:22:46Z</time></trkpt><trkpt lat="38.825544" lon="-6.367833"><ele>302.266</ele><time>2010-01-01T01:20:22Z</time></trkpt><trkpt lat="38.831236" lon="-6.365857"><ele>283.522</ele><time>2010-01-01T01:16:26Z</time></trkpt><trkpt lat="38.843259" lon="-6.363011"><ele>283.133</ele><time>2010-01-01T01:08:16Z</time></trkpt><trkpt lat="38.843618" lon="-6.362863"><ele>282.618</ele><time>2010-01-01T01:08:01Z</time></trkpt><trkpt lat="38.845766" lon="-6.361388"><ele>286.898</ele><time>2010-01-01T01:06:24Z</time></trkpt><trkpt lat="38.846787" lon="-6.360994"><ele>291.517</ele><time>2010-01-01T01:05:41Z</time></trkpt><trkpt lat="38.849488" lon="-6.360673"><ele>298.509</ele><time>2010-01-01T01:03:52Z</time></trkpt><trkpt lat="38.851297" lon="-6.360353"><ele>290.842</ele><time>2010-01-01T01:02:39Z</time></trkpt><trkpt lat="38.851775" lon="-6.360324"><ele>291.372</ele><time>2010-01-01T01:02:20Z</time></trkpt><trkpt lat="38.852149" lon="-6.360348"><ele>291.179</ele><time>2010-01-01T01:02:05Z</time></trkpt><trkpt lat="38.856965" lon="-6.361866"><ele>277.228</ele><time>2010-01-01T00:58:46Z</time></trkpt><trkpt lat="38.858821" lon="-6.362483"><ele>268.373</ele><time>2010-01-01T00:57:30Z</time></trkpt><trkpt lat="38.859705" lon="-6.362617"><ele>267.455</ele><time>2010-01-01T00:56:54Z</time></trkpt><trkpt lat="38.860244" lon="-6.362547"><ele>269.018</ele><time>2010-01-01T00:56:32Z</time></trkpt><trkpt lat="38.861643" lon="-6.362185"><ele>263.214</ele><time>2010-01-01T00:55:35Z</time></trkpt><trkpt lat="38.862180" lon="-6.362159"><ele>264.445</ele><time>2010-01-01T00:55:14Z</time></trkpt><trkpt lat="38.863341" lon="-6.362555"><ele>263.621</ele><time>2010-01-01T00:54:25Z</time></trkpt><trkpt lat="38.863888" lon="-6.362855"><ele>259.741</ele><time>2010-01-01T00:54:02Z</time></trkpt><trkpt lat="38.864193" lon="-6.363016"><ele>260.905</ele><time>2010-01-01T00:53:48Z</time></trkpt><trkpt lat="38.864726" lon="-6.363231"><ele>257.009</ele><time>2010-01-01T00:53:26Z</time></trkpt><trkpt lat="38.865043" lon="-6.363319"><ele>256.113</ele><time>2010-01-01T00:53:13Z</time></trkpt><trkpt lat="38.876425" lon="-6.364313"><ele>256.013</ele><time>2010-01-01T00:45:36Z</time></trkpt><trkpt lat="38.878486" lon="-6.364659"><ele>260.060</ele><time>2010-01-01T00:44:13Z</time></trkpt><trkpt lat="38.880686" lon="-6.365019"><ele>259.589</ele><time>2010-01-01T00:42:44Z</time></trkpt><trkpt lat="38.887604" lon="-6.366157"><ele>267.054</ele><time>2010-01-01T00:38:05Z</time></trkpt><trkpt lat="38.889541" lon="-6.366388"><ele>267.046</ele><time>2010-01-01T00:36:47Z</time></trkpt><trkpt lat="38.889804" lon="-6.366396"><ele>266.749</ele><time>2010-01-01T00:36:37Z</time></trkpt><trkpt lat="38.890920" lon="-6.366417"><ele>261.715</ele><time>2010-01-01T00:35:52Z</time></trkpt><trkpt lat="38.892096" lon="-6.366008"><ele>261.336</ele><time>2010-01-01T00:35:03Z</time></trkpt><trkpt lat="38.892748" lon="-6.366091"><ele>260.187</ele><time>2010-01-01T00:34:36Z</time></trkpt><trkpt lat="38.892927" lon="-6.366311"><ele>261.142</ele><time>2010-01-01T00:34:26Z</time></trkpt><trkpt lat="38.893048" lon="-6.366711"><ele>262.226</ele><time>2010-01-01T00:34:12Z</time></trkpt><trkpt lat="38.893429" lon="-6.366558"><ele>261.309</ele><time>2010-01-01T00:33:54Z</time></trkpt><trkpt lat="38.897544" lon="-6.366556"><ele>257.179</ele><time>2010-01-01T00:31:09Z</time></trkpt><trkpt lat="38.898714" lon="-6.365014"><ele>254.669</ele><time>2010-01-01T00:30:02Z</time></trkpt><trkpt lat="38.899535" lon="-6.363675"><ele>256.876</ele><time>2010-01-01T00:29:09Z</time></trkpt><trkpt lat="38.900057" lon="-6.362554"><ele>253.625</ele><time>2010-01-01T00:28:28Z</time></trkpt><trkpt lat="38.900211" lon="-6.362066"><ele>249.360</ele><time>2010-01-01T00:28:11Z</time></trkpt><trkpt lat="38.900550" lon="-6.360317"><ele>239.262</ele><time>2010-01-01T00:27:15Z</time></trkpt><trkpt lat="38.900751" lon="-6.360052"><ele>237.425</ele><time>2010-01-01T00:27:03Z</time></trkpt><trkpt lat="38.901586" lon="-6.359502"><ele>234.131</ele><time>2010-01-01T00:26:26Z</time></trkpt><trkpt lat="38.902156" lon="-6.359008"><ele>229.072</ele><time>2010-01-01T00:25:58Z</time></trkpt><trkpt lat="38.903060" lon="-6.357793"><ele>226.016</ele><time>2010-01-01T00:25:06Z</time></trkpt><trkpt lat="38.903325" lon="-6.357297"><ele>224.876</ele><time>2010-01-01T00:24:47Z</time></trkpt><trkpt lat="38.904589" lon="-6.356522"><ele>223.513</ele><time>2010-01-01T00:23:50Z</time></trkpt><trkpt lat="38.904893" lon="-6.356365"><ele>224.109</ele><time>2010-01-01T00:23:37Z</time></trkpt><trkpt lat="38.904661" lon="-6.355204"><ele>217.582</ele><time>2010-01-01T00:22:59Z</time></trkpt><trkpt lat="38.905321" lon="-6.353086"><ele>210.012</ele><time>2010-01-01T00:21:48Z</time></trkpt><trkpt lat="38.905390" lon="-6.352953"><ele>209.689</ele><time>2010-01-01T00:21:43Z</time></trkpt><trkpt lat="38.906140" lon="-6.353513"><ele>212.528</ele><time>2010-01-01T00:21:08Z</time></trkpt><trkpt lat="38.906172" lon="-6.353674"><ele>212.863</ele><time>2010-01-01T00:21:02Z</time></trkpt><trkpt lat="38.906525" lon="-6.353752"><ele>212.055</ele><time>2010-01-01T00:20:46Z</time></trkpt><trkpt lat="38.906539" lon="-6.353300"><ele>210.558</ele><time>2010-01-01T00:20:30Z</time></trkpt><trkpt lat="38.907664" lon="-6.348704"><ele>209.134</ele><time>2010-01-01T00:17:59Z</time></trkpt><trkpt lat="38.908221" lon="-6.348834"><ele>207.615</ele><time>2010-01-01T00:17:36Z</time></trkpt><trkpt lat="38.909290" lon="-6.349876"><ele>210.284</ele><time>2010-01-01T00:16:42Z</time></trkpt><trkpt lat="38.910247" lon="-6.350867"><ele>210.807</ele><time>2010-01-01T00:15:53Z</time></trkpt><trkpt lat="38.911125" lon="-6.351784"><ele>208.617</ele><time>2010-01-01T00:15:07Z</time></trkpt><trkpt lat="38.911233" lon="-6.351591"><ele>209.409</ele><time>2010-01-01T00:15:00Z</time></trkpt><trkpt lat="38.911609" lon="-6.351925"><ele>209.069</ele><time>2010-01-01T00:14:42Z</time></trkpt><trkpt lat="38.912297" lon="-6.352502"><ele>201.249</ele><time>2010-01-01T00:14:09Z</time></trkpt><trkpt lat="38.914387" lon="-6.349145"><ele>201.446</ele><time>2010-01-01T00:11:55Z</time></trkpt><trkpt lat="38.913873" lon="-6.348678"><ele>204.565</ele><time>2010-01-01T00:11:30Z</time></trkpt><trkpt lat="38.913770" lon="-6.348565"><ele>204.090</ele><time>2010-01-01T00:11:24Z</time></trkpt><trkpt lat="38.913782" lon="-6.348415"><ele>202.592</ele><time>2010-01-01T00:11:19Z</time></trkpt><trkpt lat="38.914452" lon="-6.349147"><ele>201.165</ele><time>2010-01-01T00:10:44Z</time></trkpt><trkpt lat="38.914709" lon="-6.349343"><ele>203.581</ele><time>2010-01-01T00:10:32Z</time></trkpt><trkpt lat="38.915048" lon="-6.349619"><ele>202.292</ele><time>2010-01-01T00:10:16Z</time></trkpt><trkpt lat="38.916299" lon="-6.350698"><ele>202.125</ele><time>2010-01-01T00:09:16Z</time></trkpt><trkpt lat="38.917007" lon="-6.351358"><ele>202.226</ele><time>2010-01-01T00:08:41Z</time></trkpt><trkpt lat="38.917322" lon="-6.351576"><ele>202.908</ele><time>2010-01-01T00:08:26Z</time></trkpt><trkpt lat="38.918380" lon="-6.352179"><ele>204.509</ele><time>2010-01-01T00:07:40Z</time></trkpt><trkpt lat="38.918905" lon="-6.353164"><ele>205.853</ele><time>2010-01-01T00:07:03Z</time></trkpt><trkpt lat="38.919333" lon="-6.353789"><ele>202.593</ele><time>2010-01-01T00:06:37Z</time></trkpt><trkpt lat="38.919483" lon="-6.353934"><ele>200.770</ele><time>2010-01-01T00:06:29Z</time></trkpt><trkpt lat="38.920956" lon="-6.355363"><ele>203.829</ele><time>2010-01-01T00:05:15Z</time></trkpt><trkpt lat="38.922122" lon="-6.356267"><ele>197.244</ele><time>2010-01-01T00:04:20Z</time></trkpt><trkpt lat="38.922911" lon="-6.355996"><ele>201.246</ele><time>2010-01-01T00:03:46Z</time></trkpt><trkpt lat="38.923242" lon="-6.353748"><ele>206.369</ele><time>2010-01-01T00:02:34Z</time></trkpt><trkpt lat="38.923230" lon="-6.353051"><ele>204.485</ele><time>2010-01-01T00:02:12Z</time></trkpt><trkpt lat="38.923212" lon="-6.350765"><ele>205.736</ele><time>2010-01-01T00:01:00Z</time></trkpt><trkpt lat="38.923274" lon="-6.350419"><ele>207.134</ele><time>2010-01-01T00:00:49Z</time></trkpt><trkpt lat="38.922997" lon="-6.350004"><ele>213.655</ele><time>2010-01-01T00:00:32Z</time></trkpt><trkpt lat="38.922917" lon="-6.349886"><ele>213.910</ele><time>2010-01-01T00:00:27Z</time></trkpt><trkpt lat="38.923189" lon="-6.349634"><ele>210.909</ele><time>2010-01-01T00:00:13Z</time></trkpt><trkpt lat="38.923017" lon="-6.349414"><ele>210.954</ele><time>2010-01-01T00:00:02Z</time></trkpt><trkpt lat="38.925358" lon="-6.348691"><ele>213.024</ele><time>2010-01-01T06:59:57Z</time></trkpt><trkpt lat="38.926205" lon="-6.349040"><ele>212.821</ele><time>2010-01-01T06:59:21Z</time></trkpt><trkpt lat="38.926394" lon="-6.348433"><ele>218.630</ele><time>2010-01-01T06:58:58Z</time></trkpt><trkpt lat="38.926537" lon="-6.348374"><ele>219.675</ele><time>2010-01-01T06:58:52Z</time></trkpt><trkpt lat="38.929791" lon="-6.347468"><ele>230.397</ele><time>2010-01-01T06:56:38Z</time></trkpt><trkpt lat="38.929993" lon="-6.347535"><ele>231.050</ele><time>2010-01-01T06:56:29Z</time></trkpt><trkpt lat="38.930213" lon="-6.347240"><ele>231.096</ele><time>2010-01-01T06:56:16Z</time></trkpt><trkpt lat="38.931225" lon="-6.346920"><ele>236.897</ele><time>2010-01-01T06:55:34Z</time></trkpt><trkpt lat="38.932778" lon="-6.346472"><ele>236.748</ele><time>2010-01-01T06:54:31Z</time></trkpt><trkpt lat="38.932942" lon="-6.346564"><ele>237.361</ele><time>2010-01-01T06:54:23Z</time></trkpt><trkpt lat="38.933178" lon="-6.346319"><ele>239.017</ele><time>2010-01-01T06:54:10Z</time></trkpt><trkpt lat="38.934159" lon="-6.346008"><ele>245.209</ele><time>2010-01-01T06:53:30Z</time></trkpt><trkpt lat="38.935095" lon="-6.345804"><ele>249.725</ele><time>2010-01-01T06:52:52Z</time></trkpt><trkpt lat="38.935308" lon="-6.345615"><ele>251.035</ele><time>2010-01-01T06:52:41Z</time></trkpt><trkpt lat="38.935557" lon="-6.345210"><ele>251.042</ele><time>2010-01-01T06:52:25Z</time></trkpt><trkpt lat="38.935721" lon="-6.345199"><ele>250.041</ele><time>2010-01-01T06:52:18Z</time></trkpt><trkpt lat="38.935901" lon="-6.345369"><ele>249.026</ele><time>2010-01-01T06:52:09Z</time></trkpt><trkpt lat="38.935943" lon="-6.345709"><ele>249.098</ele><time>2010-01-01T06:51:58Z</time></trkpt><trkpt lat="38.936048" lon="-6.345709"><ele>249.011</ele><time>2010-01-01T06:51:54Z</time></trkpt><trkpt lat="38.936121" lon="-6.345818"><ele>249.077</ele><time>2010-01-01T06:51:50Z</time></trkpt><trkpt lat="38.936147" lon="-6.345967"><ele>248.788</ele><time>2010-01-01T06:51:45Z</time></trkpt><trkpt lat="38.936503" lon="-6.351229"><ele>240.384</ele><time>2010-01-01T06:48:56Z</time></trkpt><trkpt lat="38.936910" lon="-6.352203"><ele>246.707</ele><time>2010-01-01T06:48:21Z</time></trkpt><trkpt lat="38.940505" lon="-6.353287"><ele>259.017</ele><time>2010-01-01T06:45:53Z</time></trkpt><trkpt lat="38.941452" lon="-6.353638"><ele>257.209</ele><time>2010-01-01T06:45:13Z</time></trkpt><trkpt lat="38.943763" lon="-6.354177"><ele>261.439</ele><time>2010-01-01T06:43:39Z</time></trkpt><trkpt lat="38.945970" lon="-6.355039"><ele>262.369</ele><time>2010-01-01T06:42:07Z</time></trkpt><trkpt lat="38.947271" lon="-6.354795"><ele>265.956</ele><time>2010-01-01T06:41:14Z</time></trkpt><trkpt lat="38.948640" lon="-6.354827"><ele>269.715</ele><time>2010-01-01T06:40:19Z</time></trkpt><trkpt lat="38.949207" lon="-6.354849"><ele>270.110</ele><time>2010-01-01T06:39:56Z</time></trkpt><trkpt lat="38.953121" lon="-6.356634"><ele>289.612</ele><time>2010-01-01T06:37:09Z</time></trkpt><trkpt lat="38.953864" lon="-6.356859"><ele>294.455</ele><time>2010-01-01T06:36:39Z</time></trkpt><trkpt lat="38.954198" lon="-6.356656"><ele>297.271</ele><time>2010-01-01T06:36:24Z</time></trkpt><trkpt lat="38.954590" lon="-6.356784"><ele>298.192</ele><time>2010-01-01T06:36:07Z</time></trkpt><trkpt lat="38.954698" lon="-6.357042"><ele>298.222</ele><time>2010-01-01T06:35:58Z</time></trkpt><trkpt lat="38.954973" lon="-6.357165"><ele>299.062</ele><time>2010-01-01T06:35:46Z</time></trkpt><trkpt lat="38.956698" lon="-6.357589"><ele>285.308</ele><time>2010-01-01T06:34:36Z</time></trkpt><trkpt lat="38.957182" lon="-6.358040"><ele>283.409</ele><time>2010-01-01T06:34:12Z</time></trkpt><trkpt lat="38.957966" lon="-6.359316"><ele>275.523</ele><time>2010-01-01T06:33:21Z</time></trkpt><trkpt lat="38.959473" lon="-6.361866"><ele>262.943</ele><time>2010-01-01T06:31:42Z</time></trkpt><trkpt lat="38.960139" lon="-6.362794"><ele>255.520</ele><time>2010-01-01T06:31:02Z</time></trkpt><trkpt lat="38.962912" lon="-6.364103"><ele>243.329</ele><time>2010-01-01T06:29:04Z</time></trkpt><trkpt lat="38.963567" lon="-6.364403"><ele>239.544</ele><time>2010-01-01T06:28:36Z</time></trkpt><trkpt lat="38.964000" lon="-6.364426"><ele>239.526</ele><time>2010-01-01T06:28:16Z</time></trkpt><trkpt lat="38.963981" lon="-6.364462"><ele>239.329</ele><time>2010-01-01T06:28:15Z</time></trkpt><trkpt lat="38.963898" lon="-6.364498"><ele>238.825</ele><time>2010-01-01T06:28:11Z</time></trkpt><trkpt lat="38.963871" lon="-6.365424"><ele>238.176</ele><time>2010-01-01T06:27:41Z</time></trkpt><trkpt lat="38.963871" lon="-6.366674"><ele>234.169</ele><time>2010-01-01T06:27:02Z</time></trkpt><trkpt lat="38.964276" lon="-6.368058"><ele>234.604</ele><time>2010-01-01T06:26:16Z</time></trkpt><trkpt lat="38.966428" lon="-6.370901"><ele>229.824</ele><time>2010-01-01T06:24:12Z</time></trkpt><trkpt lat="38.967458" lon="-6.371953"><ele>228.309</ele><time>2010-01-01T06:23:19Z</time></trkpt><trkpt lat="38.968455" lon="-6.372194"><ele>226.117</ele><time>2010-01-01T06:22:38Z</time></trkpt><trkpt lat="38.968814" lon="-6.372103"><ele>225.337</ele><time>2010-01-01T06:22:23Z</time></trkpt><trkpt lat="38.969598" lon="-6.371405"><ele>223.474</ele><time>2010-01-01T06:21:45Z</time></trkpt><trkpt lat="38.970194" lon="-6.369726"><ele>232.753</ele><time>2010-01-01T06:20:47Z</time></trkpt><trkpt lat="38.970883" lon="-6.368873"><ele>238.568</ele><time>2010-01-01T06:20:08Z</time></trkpt><trkpt lat="38.971008" lon="-6.368766"><ele>240.180</ele><time>2010-01-01T06:20:01Z</time></trkpt><trkpt lat="38.970912" lon="-6.368439"><ele>241.013</ele><time>2010-01-01T06:19:50Z</time></trkpt><trkpt lat="38.971391" lon="-6.366996"><ele>242.629</ele><time>2010-01-01T06:19:01Z</time></trkpt><trkpt lat="38.972235" lon="-6.366751"><ele>248.710</ele><time>2010-01-01T06:18:26Z</time></trkpt><trkpt lat="38.972978" lon="-6.366260"><ele>253.816</ele><time>2010-01-01T06:17:52Z</time></trkpt><trkpt lat="38.973904" lon="-6.365549"><ele>250.776</ele><time>2010-01-01T06:17:09Z</time></trkpt><trkpt lat="38.974128" lon="-6.364997"><ele>245.313</ele><time>2010-01-01T06:16:50Z</time></trkpt><trkpt lat="38.974134" lon="-6.364586"><ele>246.109</ele><time>2010-01-01T06:16:37Z</time></trkpt><trkpt lat="38.975196" lon="-6.363374"><ele>246.092</ele><time>2010-01-01T06:15:39Z</time></trkpt><trkpt lat="38.979510" lon="-6.360815"><ele>249.232</ele><time>2010-01-01T06:12:29Z</time></trkpt><trkpt lat="38.980020" lon="-6.360673"><ele>252.129</ele><time>2010-01-01T06:12:08Z</time></trkpt><trkpt lat="38.980268" lon="-6.360442"><ele>253.588</ele><time>2010-01-01T06:11:56Z</time></trkpt><trkpt lat="38.980822" lon="-6.359967"><ele>253.383</ele><time>2010-01-01T06:11:29Z</time></trkpt><trkpt lat="38.982571" lon="-6.359981"><ele>254.485</ele><time>2010-01-01T06:10:19Z</time></trkpt><trkpt lat="38.983603" lon="-6.359908"><ele>252.468</ele><time>2010-01-01T06:09:37Z</time></trkpt><trkpt lat="38.985001" lon="-6.359695"><ele>255.024</ele><time>2010-01-01T06:08:40Z</time></trkpt><trkpt lat="38.987740" lon="-6.357316"><ele>248.835</ele><time>2010-01-01T06:06:28Z</time></trkpt><trkpt lat="38.987738" lon="-6.356385"><ele>249.767</ele><time>2010-01-01T06:05:58Z</time></trkpt><trkpt lat="38.987865" lon="-6.355824"><ele>250.681</ele><time>2010-01-01T06:05:39Z</time></trkpt><trkpt lat="38.990659" lon="-6.353011"><ele>253.519</ele><time>2010-01-01T06:03:17Z</time></trkpt><trkpt lat="38.993724" lon="-6.351652"><ele>256.709</ele><time>2010-01-01T06:01:07Z</time></trkpt><trkpt lat="38.994120" lon="-6.351381"><ele>255.967</ele><time>2010-01-01T06:00:49Z</time></trkpt><trkpt lat="38.995079" lon="-6.349050"><ele>256.387</ele><time>2010-01-01T05:59:27Z</time></trkpt><trkpt lat="38.994522" lon="-6.346161"><ele>257.484</ele><time>2010-01-01T05:57:54Z</time></trkpt><trkpt lat="38.994328" lon="-6.345292"><ele>256.643</ele><time>2010-01-01T05:57:26Z</time></trkpt><trkpt lat="38.994107" lon="-6.345088"><ele>256.178</ele><time>2010-01-01T05:57:15Z</time></trkpt><trkpt lat="38.993465" lon="-6.345118"><ele>260.070</ele><time>2010-01-01T05:56:49Z</time></trkpt><trkpt lat="38.993225" lon="-6.344721"><ele>261.453</ele><time>2010-01-01T05:56:33Z</time></trkpt><trkpt lat="38.993029" lon="-6.342106"><ele>266.239</ele><time>2010-01-01T05:55:11Z</time></trkpt><trkpt lat="38.992554" lon="-6.341197"><ele>267.760</ele><time>2010-01-01T05:54:37Z</time></trkpt><trkpt lat="38.991332" lon="-6.339510"><ele>274.296</ele><time>2010-01-01T05:53:25Z</time></trkpt><trkpt lat="38.989916" lon="-6.336598"><ele>282.531</ele><time>2010-01-01T05:51:38Z</time></trkpt><trkpt lat="38.989160" lon="-6.335208"><ele>284.024</ele><time>2010-01-01T05:50:45Z</time></trkpt><trkpt lat="38.989000" lon="-6.333672"><ele>285.409</ele><time>2010-01-01T05:49:57Z</time></trkpt><trkpt lat="38.989196" lon="-6.332351"><ele>282.570</ele><time>2010-01-01T05:49:15Z</time></trkpt><trkpt lat="38.989236" lon="-6.331471"><ele>275.890</ele><time>2010-01-01T05:48:47Z</time></trkpt><trkpt lat="38.989085" lon="-6.331118"><ele>278.017</ele><time>2010-01-01T05:48:34Z</time></trkpt><trkpt lat="38.989257" lon="-6.330593"><ele>281.466</ele><time>2010-01-01T05:48:16Z</time></trkpt><trkpt lat="38.989220" lon="-6.330258"><ele>282.941</ele><time>2010-01-01T05:48:06Z</time></trkpt><trkpt lat="38.989100" lon="-6.329705"><ele>279.293</ele><time>2010-01-01T05:47:48Z</time></trkpt><trkpt lat="38.989082" lon="-6.329438"><ele>278.976</ele><time>2010-01-01T05:47:40Z</time></trkpt><trkpt lat="38.989445" lon="-6.328657"><ele>275.882</ele><time>2010-01-01T05:47:11Z</time></trkpt><trkpt lat="38.989481" lon="-6.328060"><ele>278.093</ele><time>2010-01-01T05:46:52Z</time></trkpt><trkpt lat="38.996036" lon="-6.329036"><ele>278.421</ele><time>2010-01-01T05:42:28Z</time></trkpt><trkpt lat="38.997283" lon="-6.329165"><ele>274.241</ele><time>2010-01-01T05:41:38Z</time></trkpt><trkpt lat="38.999188" lon="-6.330029"><ele>280.905</ele><time>2010-01-01T05:40:17Z</time></trkpt><trkpt lat="38.999851" lon="-6.330340"><ele>280.809</ele><time>2010-01-01T05:39:48Z</time></trkpt><trkpt lat="39.001739" lon="-6.330463"><ele>277.623</ele><time>2010-01-01T05:38:33Z</time></trkpt><trkpt lat="39.002919" lon="-6.330190"><ele>280.753</ele><time>2010-01-01T05:37:44Z</time></trkpt><trkpt lat="39.003244" lon="-6.330007"><ele>280.370</ele><time>2010-01-01T05:37:30Z</time></trkpt><trkpt lat="39.006542" lon="-6.326097"><ele>285.469</ele><time>2010-01-01T05:34:30Z</time></trkpt><trkpt lat="39.007017" lon="-6.325533"><ele>285.274</ele><time>2010-01-01T05:34:05Z</time></trkpt><trkpt lat="39.008513" lon="-6.324359"><ele>291.486</ele><time>2010-01-01T05:32:54Z</time></trkpt><trkpt lat="39.009831" lon="-6.323758"><ele>296.749</ele><time>2010-01-01T05:31:58Z</time></trkpt><trkpt lat="39.013073" lon="-6.322626"><ele>306.195</ele><time>2010-01-01T05:29:44Z</time></trkpt><trkpt lat="39.014878" lon="-6.321977"><ele>310.716</ele><time>2010-01-01T05:28:29Z</time></trkpt><trkpt lat="39.016145" lon="-6.321462"><ele>311.641</ele><time>2010-01-01T05:27:35Z</time></trkpt><trkpt lat="39.017046" lon="-6.321516"><ele>306.681</ele><time>2010-01-01T05:26:59Z</time></trkpt><trkpt lat="39.018067" lon="-6.322096"><ele>306.009</ele><time>2010-01-01T05:26:14Z</time></trkpt><trkpt lat="39.018984" lon="-6.322295"><ele>308.909</ele><time>2010-01-01T05:25:37Z</time></trkpt><trkpt lat="39.020888" lon="-6.321549"><ele>320.095</ele><time>2010-01-01T05:24:17Z</time></trkpt><trkpt lat="39.021584" lon="-6.321216"><ele>320.265</ele><time>2010-01-01T05:23:47Z</time></trkpt><trkpt lat="39.021905" lon="-6.321136"><ele>319.192</ele><time>2010-01-01T05:23:34Z</time></trkpt><trkpt lat="39.022330" lon="-6.321098"><ele>316.241</ele><time>2010-01-01T05:23:17Z</time></trkpt><trkpt lat="39.023139" lon="-6.321361"><ele>310.716</ele><time>2010-01-01T05:22:44Z</time></trkpt><trkpt lat="39.023647" lon="-6.321812"><ele>308.378</ele><time>2010-01-01T05:22:19Z</time></trkpt><trkpt lat="39.026081" lon="-6.325261"><ele>299.021</ele><time>2010-01-01T05:19:54Z</time></trkpt><trkpt lat="39.026769" lon="-6.325883"><ele>300.597</ele><time>2010-01-01T05:19:20Z</time></trkpt><trkpt lat="39.028040" lon="-6.326152"><ele>307.958</ele><time>2010-01-01T05:18:28Z</time></trkpt><trkpt lat="39.030957" lon="-6.325873"><ele>318.814</ele><time>2010-01-01T05:16:31Z</time></trkpt><trkpt lat="39.031649" lon="-6.325827"><ele>317.154</ele><time>2010-01-01T05:16:03Z</time></trkpt><trkpt lat="39.033605" lon="-6.325721"><ele>313.609</ele><time>2010-01-01T05:14:45Z</time></trkpt><trkpt lat="39.033949" lon="-6.325726"><ele>310.909</ele><time>2010-01-01T05:14:31Z</time></trkpt><trkpt lat="39.034768" lon="-6.325887"><ele>307.182</ele><time>2010-01-01T05:13:58Z</time></trkpt><trkpt lat="39.036672" lon="-6.326762"><ele>302.072</ele><time>2010-01-01T05:12:37Z</time></trkpt><trkpt lat="39.037953" lon="-6.327352"><ele>294.299</ele><time>2010-01-01T05:11:42Z</time></trkpt><trkpt lat="39.041120" lon="-6.328835"><ele>285.068</ele><time>2010-01-01T05:09:27Z</time></trkpt><trkpt lat="39.041263" lon="-6.329165"><ele>283.023</ele><time>2010-01-01T05:09:14Z</time></trkpt><trkpt lat="39.041465" lon="-6.329495"><ele>281.845</ele><time>2010-01-01T05:09:01Z</time></trkpt><trkpt lat="39.041638" lon="-6.329468"><ele>281.928</ele><time>2010-01-01T05:08:54Z</time></trkpt><trkpt lat="39.041822" lon="-6.329068"><ele>281.864</ele><time>2010-01-01T05:08:38Z</time></trkpt><trkpt lat="39.042090" lon="-6.329012"><ele>281.315</ele><time>2010-01-01T05:08:27Z</time></trkpt><trkpt lat="39.042287" lon="-6.329021"><ele>280.564</ele><time>2010-01-01T05:08:19Z</time></trkpt><trkpt lat="39.043760" lon="-6.328680"><ele>267.406</ele><time>2010-01-01T05:07:19Z</time></trkpt><trkpt lat="39.047323" lon="-6.326411"><ele>263.116</ele><time>2010-01-01T05:04:40Z</time></trkpt><trkpt lat="39.048210" lon="-6.325488"><ele>260.009</ele><time>2010-01-01T05:03:54Z</time></trkpt><trkpt lat="39.048573" lon="-6.324957"><ele>259.747</ele><time>2010-01-01T05:03:32Z</time></trkpt><trkpt lat="39.050435" lon="-6.322162"><ele>252.997</ele><time>2010-01-01T05:01:38Z</time></trkpt><trkpt lat="39.051214" lon="-6.321191"><ele>256.114</ele><time>2010-01-01T05:00:54Z</time></trkpt><trkpt lat="39.051418" lon="-6.321046"><ele>255.463</ele><time>2010-01-01T05:00:45Z</time></trkpt><trkpt lat="39.052251" lon="-6.320826"><ele>254.928</ele><time>2010-01-01T05:00:11Z</time></trkpt><trkpt lat="39.054505" lon="-6.321674"><ele>252.030</ele><time>2010-01-01T04:58:37Z</time></trkpt><trkpt lat="39.055484" lon="-6.321599"><ele>252.793</ele><time>2010-01-01T04:57:57Z</time></trkpt><trkpt lat="39.056071" lon="-6.321100"><ele>256.729</ele><time>2010-01-01T04:57:29Z</time></trkpt><trkpt lat="39.056417" lon="-6.320499"><ele>257.120</ele><time>2010-01-01T04:57:06Z</time></trkpt><trkpt lat="39.057296" lon="-6.318938"><ele>255.755</ele><time>2010-01-01T04:56:06Z</time></trkpt><trkpt lat="39.057783" lon="-6.318445"><ele>257.007</ele><time>2010-01-01T04:55:41Z</time></trkpt><trkpt lat="39.060399" lon="-6.317576"><ele>271.017</ele><time>2010-01-01T04:53:52Z</time></trkpt><trkpt lat="39.061353" lon="-6.317200"><ele>275.109</ele><time>2010-01-01T04:53:12Z</time></trkpt><trkpt lat="39.062053" lon="-6.316841"><ele>276.096</ele><time>2010-01-01T04:52:42Z</time></trkpt><trkpt lat="39.065835" lon="-6.314158"><ele>290.036</ele><time>2010-01-01T04:49:49Z</time></trkpt><trkpt lat="39.067134" lon="-6.313456"><ele>299.443</ele><time>2010-01-01T04:48:53Z</time></trkpt><trkpt lat="39.069504" lon="-6.312474"><ele>313.242</ele><time>2010-01-01T04:47:13Z</time></trkpt><trkpt lat="39.070254" lon="-6.312549"><ele>318.257</ele><time>2010-01-01T04:46:43Z</time></trkpt><trkpt lat="39.071157" lon="-6.312903"><ele>323.989</ele><time>2010-01-01T04:46:05Z</time></trkpt><trkpt lat="39.071874" lon="-6.312909"><ele>326.862</ele><time>2010-01-01T04:45:36Z</time></trkpt><trkpt lat="39.072911" lon="-6.312517"><ele>335.158</ele><time>2010-01-01T04:44:53Z</time></trkpt><trkpt lat="39.073573" lon="-6.311562"><ele>340.769</ele><time>2010-01-01T04:44:13Z</time></trkpt><trkpt lat="39.073731" lon="-6.310398"><ele>339.612</ele><time>2010-01-01T04:43:36Z</time></trkpt><trkpt lat="39.073714" lon="-6.308928"><ele>343.932</ele><time>2010-01-01T04:42:50Z</time></trkpt><trkpt lat="39.073989" lon="-6.308091"><ele>346.505</ele><time>2010-01-01T04:42:21Z</time></trkpt><trkpt lat="39.084895" lon="-6.294385"><ele>356.009</ele><time>2010-01-01T04:32:12Z</time></trkpt><trkpt lat="39.087191" lon="-6.291486"><ele>354.162</ele><time>2010-01-01T04:30:03Z</time></trkpt><trkpt lat="39.087961" lon="-6.290740"><ele>357.372</ele><time>2010-01-01T04:29:24Z</time></trkpt><trkpt lat="39.089972" lon="-6.289415"><ele>361.669</ele><time>2010-01-01T04:27:54Z</time></trkpt><trkpt lat="39.094461" lon="-6.286422"><ele>363.098</ele><time>2010-01-01T04:24:32Z</time></trkpt><trkpt lat="39.095568" lon="-6.285998"><ele>362.743</ele><time>2010-01-01T04:23:45Z</time></trkpt><trkpt lat="39.097025" lon="-6.286035"><ele>367.555</ele><time>2010-01-01T04:22:47Z</time></trkpt><trkpt lat="39.098066" lon="-6.285864"><ele>368.168</ele><time>2010-01-01T04:22:05Z</time></trkpt><trkpt lat="39.099961" lon="-6.284830"><ele>372.824</ele><time>2010-01-01T04:20:42Z</time></trkpt><trkpt lat="39.105190" lon="-6.281574"><ele>376.375</ele><time>2010-01-01T04:16:50Z</time></trkpt><trkpt lat="39.106197" lon="-6.281199"><ele>379.657</ele><time>2010-01-01T04:16:08Z</time></trkpt><trkpt lat="39.139642" lon="-6.273092"><ele>428.200</ele><time>2010-01-01T03:53:25Z</time></trkpt><trkpt lat="39.146270" lon="-6.272057"><ele>443.020</ele><time>2010-01-01T03:48:58Z</time></trkpt><trkpt lat="39.150796" lon="-6.270120"><ele>460.409</ele><time>2010-01-01T03:45:47Z</time></trkpt><trkpt lat="39.151474" lon="-6.269895"><ele>464.746</ele><time>2010-01-01T03:45:19Z</time></trkpt><trkpt lat="39.152764" lon="-6.269901"><ele>475.256</ele><time>2010-01-01T03:44:27Z</time></trkpt><trkpt lat="39.153991" lon="-6.269831"><ele>480.333</ele><time>2010-01-01T03:43:38Z</time></trkpt><trkpt lat="39.157281" lon="-6.268125"><ele>470.962</ele><time>2010-01-01T03:41:16Z</time></trkpt><trkpt lat="39.162605" lon="-6.264788"><ele>466.437</ele><time>2010-01-01T03:37:19Z</time></trkpt><trkpt lat="39.162892" lon="-6.264815"><ele>467.419</ele><time>2010-01-01T03:37:07Z</time></trkpt><trkpt lat="39.163054" lon="-6.264933"><ele>468.072</ele><time>2010-01-01T03:36:59Z</time></trkpt><trkpt lat="39.163333" lon="-6.264922"><ele>469.738</ele><time>2010-01-01T03:36:48Z</time></trkpt><trkpt lat="39.163433" lon="-6.264579"><ele>469.519</ele><time>2010-01-01T03:36:36Z</time></trkpt><trkpt lat="39.164201" lon="-6.264365"><ele>472.086</ele><time>2010-01-01T03:36:04Z</time></trkpt><trkpt lat="39.166627" lon="-6.264015"><ele>474.560</ele><time>2010-01-01T03:34:26Z</time></trkpt><trkpt lat="39.168518" lon="-6.263861"><ele>472.726</ele><time>2010-01-01T03:33:10Z</time></trkpt><trkpt lat="39.175561" lon="-6.265137"><ele>445.009</ele><time>2010-01-01T03:28:26Z</time></trkpt><trkpt lat="39.184968" lon="-6.268356"><ele>431.239</ele><time>2010-01-01T03:21:56Z</time></trkpt><trkpt lat="39.196063" lon="-6.274435"><ele>418.279</ele><time>2010-01-01T03:13:54Z</time></trkpt><trkpt lat="39.199536" lon="-6.276355"><ele>412.196</ele><time>2010-01-01T03:11:22Z</time></trkpt><trkpt lat="39.199969" lon="-6.276583"><ele>411.355</ele><time>2010-01-01T03:11:04Z</time></trkpt><trkpt lat="39.201471" lon="-6.277382"><ele>409.130</ele><time>2010-01-01T03:09:59Z</time></trkpt><trkpt lat="39.208725" lon="-6.281266"><ele>403.722</ele><time>2010-01-01T03:04:44Z</time></trkpt><trkpt lat="39.209448" lon="-6.281625"><ele>401.045</ele><time>2010-01-01T03:04:13Z</time></trkpt><trkpt lat="39.210275" lon="-6.282173"><ele>399.031</ele><time>2010-01-01T03:03:36Z</time></trkpt><trkpt lat="39.214195" lon="-6.286164"><ele>398.182</ele><time>2010-01-01T03:00:16Z</time></trkpt><trkpt lat="39.215101" lon="-6.287017"><ele>394.961</ele><time>2010-01-01T02:59:31Z</time></trkpt><trkpt lat="39.234351" lon="-6.297487"><ele>387.021</ele><time>2010-01-01T02:45:35Z</time></trkpt><trkpt lat="39.237565" lon="-6.300224"><ele>386.613</ele><time>2010-01-01T02:43:00Z</time></trkpt><trkpt lat="39.238171" lon="-6.300659"><ele>385.809</ele><time>2010-01-01T02:42:33Z</time></trkpt><trkpt lat="39.238981" lon="-6.301108"><ele>388.347</ele><time>2010-01-01T02:41:57Z</time></trkpt><trkpt lat="39.249048" lon="-6.306204"><ele>388.047</ele><time>2010-01-01T02:34:45Z</time></trkpt><trkpt lat="39.256551" lon="-6.309967"><ele>380.454</ele><time>2010-01-01T02:29:22Z</time></trkpt><trkpt lat="39.267720" lon="-6.315583"><ele>382.043</ele><time>2010-01-01T02:21:23Z</time></trkpt><trkpt lat="39.268638" lon="-6.316007"><ele>384.138</ele><time>2010-01-01T02:20:44Z</time></trkpt><trkpt lat="39.284438" lon="-6.318432"><ele>384.040</ele><time>2010-01-01T02:10:07Z</time></trkpt><trkpt lat="39.285260" lon="-6.318850"><ele>387.013</ele><time>2010-01-01T02:09:31Z</time></trkpt><trkpt lat="39.285692" lon="-6.319269"><ele>388.489</ele><time>2010-01-01T02:09:09Z</time></trkpt><trkpt lat="39.286892" lon="-6.320492"><ele>394.060</ele><time>2010-01-01T02:08:08Z</time></trkpt><trkpt lat="39.288420" lon="-6.321753"><ele>395.395</ele><time>2010-01-01T02:06:56Z</time></trkpt><trkpt lat="39.289184" lon="-6.322192"><ele>396.249</ele><time>2010-01-01T02:06:22Z</time></trkpt><trkpt lat="39.300995" lon="-6.325001"><ele>410.023</ele><time>2010-01-01T01:58:21Z</time></trkpt><trkpt lat="39.302892" lon="-6.325446"><ele>416.409</ele><time>2010-01-01T01:57:04Z</time></trkpt><trkpt lat="39.305341" lon="-6.326809"><ele>407.970</ele><time>2010-01-01T01:55:17Z</time></trkpt><trkpt lat="39.306088" lon="-6.327061"><ele>403.850</ele><time>2010-01-01T01:54:46Z</time></trkpt><trkpt lat="39.307989" lon="-6.327120"><ele>405.327</ele><time>2010-01-01T01:53:30Z</time></trkpt><trkpt lat="39.312704" lon="-6.326540"><ele>408.066</ele><time>2010-01-01T01:50:20Z</time></trkpt><trkpt lat="39.316983" lon="-6.326122"><ele>420.051</ele><time>2010-01-01T01:47:28Z</time></trkpt><trkpt lat="39.340335" lon="-6.332285"><ele>420.843</ele><time>2010-01-01T01:31:34Z</time></trkpt><trkpt lat="39.343148" lon="-6.333068"><ele>413.386</ele><time>2010-01-01T01:29:39Z</time></trkpt><trkpt lat="39.345292" lon="-6.334130"><ele>407.392</ele><time>2010-01-01T01:28:07Z</time></trkpt><trkpt lat="39.348246" lon="-6.335734"><ele>395.233</ele><time>2010-01-01T01:25:59Z</time></trkpt><trkpt lat="39.353635" lon="-6.337653"><ele>391.346</ele><time>2010-01-01T01:22:15Z</time></trkpt><trkpt lat="39.354017" lon="-6.337787"><ele>388.088</ele><time>2010-01-01T01:21:59Z</time></trkpt><trkpt lat="39.355456" lon="-6.338214"><ele>386.416</ele><time>2010-01-01T01:21:00Z</time></trkpt><trkpt lat="39.356282" lon="-6.338152"><ele>384.109</ele><time>2010-01-01T01:20:27Z</time></trkpt><trkpt lat="39.357481" lon="-6.337685"><ele>388.325</ele><time>2010-01-01T01:19:37Z</time></trkpt><trkpt lat="39.358468" lon="-6.337637"><ele>392.055</ele><time>2010-01-01T01:18:57Z</time></trkpt><trkpt lat="39.359279" lon="-6.337978"><ele>390.442</ele><time>2010-01-01T01:18:23Z</time></trkpt><trkpt lat="39.360647" lon="-6.339332"><ele>389.151</ele><time>2010-01-01T01:17:13Z</time></trkpt><trkpt lat="39.361489" lon="-6.340190"><ele>385.676</ele><time>2010-01-01T01:16:31Z</time></trkpt><trkpt lat="39.362887" lon="-6.340850"><ele>382.718</ele><time>2010-01-01T01:15:31Z</time></trkpt><trkpt lat="39.384333" lon="-6.348296"><ele>396.011</ele><time>2010-01-01T01:00:42Z</time></trkpt><trkpt lat="39.385243" lon="-6.349087"><ele>395.097</ele><time>2010-01-01T00:59:57Z</time></trkpt><trkpt lat="39.385925" lon="-6.350216"><ele>397.068</ele><time>2010-01-01T00:59:13Z</time></trkpt><trkpt lat="39.386083" lon="-6.350410"><ele>397.016</ele><time>2010-01-01T00:59:04Z</time></trkpt><trkpt lat="39.386228" lon="-6.351085"><ele>395.676</ele><time>2010-01-01T00:58:41Z</time></trkpt><trkpt lat="39.386543" lon="-6.351448"><ele>394.313</ele><time>2010-01-01T00:58:24Z</time></trkpt><trkpt lat="39.386966" lon="-6.351198"><ele>395.109</ele><time>2010-01-01T00:58:04Z</time></trkpt><trkpt lat="39.386999" lon="-6.351128"><ele>395.222</ele><time>2010-01-01T00:58:01Z</time></trkpt><trkpt lat="39.388894" lon="-6.351005"><ele>398.482</ele><time>2010-01-01T00:56:45Z</time></trkpt><trkpt lat="39.390755" lon="-6.351032"><ele>396.099</ele><time>2010-01-01T00:55:30Z</time></trkpt><trkpt lat="39.391251" lon="-6.351469"><ele>398.538</ele><time>2010-01-01T00:55:05Z</time></trkpt><trkpt lat="39.391425" lon="-6.351515"><ele>399.043</ele><time>2010-01-01T00:54:58Z</time></trkpt><trkpt lat="39.391947" lon="-6.351077"><ele>400.055</ele><time>2010-01-01T00:54:32Z</time></trkpt><trkpt lat="39.392303" lon="-6.351091"><ele>401.198</ele><time>2010-01-01T00:54:18Z</time></trkpt><trkpt lat="39.394882" lon="-6.351965"><ele>408.564</ele><time>2010-01-01T00:52:31Z</time></trkpt><trkpt lat="39.396905" lon="-6.352711"><ele>409.145</ele><time>2010-01-01T00:51:07Z</time></trkpt><trkpt lat="39.397800" lon="-6.352802"><ele>412.043</ele><time>2010-01-01T00:50:31Z</time></trkpt><trkpt lat="39.400113" lon="-6.352571"><ele>419.264</ele><time>2010-01-01T00:48:58Z</time></trkpt><trkpt lat="39.401311" lon="-6.353102"><ele>425.210</ele><time>2010-01-01T00:48:07Z</time></trkpt><trkpt lat="39.402630" lon="-6.354561"><ele>429.209</ele><time>2010-01-01T00:46:57Z</time></trkpt><trkpt lat="39.403939" lon="-6.355109"><ele>431.415</ele><time>2010-01-01T00:46:02Z</time></trkpt><trkpt lat="39.404792" lon="-6.355039"><ele>436.845</ele><time>2010-01-01T00:45:28Z</time></trkpt><trkpt lat="39.409794" lon="-6.354105"><ele>450.462</ele><time>2010-01-01T00:42:05Z</time></trkpt><trkpt lat="39.410893" lon="-6.354014"><ele>449.711</ele><time>2010-01-01T00:41:21Z</time></trkpt><trkpt lat="39.411738" lon="-6.354180"><ele>452.276</ele><time>2010-01-01T00:40:47Z</time></trkpt><trkpt lat="39.413607" lon="-6.354931"><ele>461.538</ele><time>2010-01-01T00:39:29Z</time></trkpt><trkpt lat="39.415563" lon="-6.355634"><ele>466.471</ele><time>2010-01-01T00:38:07Z</time></trkpt><trkpt lat="39.417660" lon="-6.355516"><ele>476.327</ele><time>2010-01-01T00:36:43Z</time></trkpt><trkpt lat="39.419799" lon="-6.355527"><ele>476.238</ele><time>2010-01-01T00:35:17Z</time></trkpt><trkpt lat="39.421564" lon="-6.355897"><ele>474.914</ele><time>2010-01-01T00:34:06Z</time></trkpt><trkpt lat="39.422352" lon="-6.356423"><ele>472.554</ele><time>2010-01-01T00:33:30Z</time></trkpt><trkpt lat="39.422733" lon="-6.356863"><ele>471.509</ele><time>2010-01-01T00:33:10Z</time></trkpt><trkpt lat="39.422973" lon="-6.357244"><ele>468.209</ele><time>2010-01-01T00:32:54Z</time></trkpt><trkpt lat="39.424573" lon="-6.360194"><ele>465.562</ele><time>2010-01-01T00:31:03Z</time></trkpt><trkpt lat="39.425364" lon="-6.361642"><ele>462.282</ele><time>2010-01-01T00:30:08Z</time></trkpt><trkpt lat="39.425977" lon="-6.362447"><ele>458.349</ele><time>2010-01-01T00:29:33Z</time></trkpt><trkpt lat="39.428820" lon="-6.364502"><ele>455.278</ele><time>2010-01-01T00:27:23Z</time></trkpt><trkpt lat="39.429325" lon="-6.364657"><ele>454.213</ele><time>2010-01-01T00:27:02Z</time></trkpt><trkpt lat="39.430071" lon="-6.364818"><ele>456.025</ele><time>2010-01-01T00:26:31Z</time></trkpt><trkpt lat="39.430217" lon="-6.365145"><ele>456.068</ele><time>2010-01-01T00:26:19Z</time></trkpt><trkpt lat="39.430393" lon="-6.365210"><ele>456.364</ele><time>2010-01-01T00:26:11Z</time></trkpt><trkpt lat="39.430569" lon="-6.365124"><ele>456.465</ele><time>2010-01-01T00:26:03Z</time></trkpt><trkpt lat="39.430639" lon="-6.364920"><ele>456.222</ele><time>2010-01-01T00:25:56Z</time></trkpt><trkpt lat="39.430598" lon="-6.364469"><ele>457.162</ele><time>2010-01-01T00:25:41Z</time></trkpt><trkpt lat="39.430733" lon="-6.364443"><ele>457.608</ele><time>2010-01-01T00:25:35Z</time></trkpt><trkpt lat="39.430950" lon="-6.364636"><ele>458.309</ele><time>2010-01-01T00:25:24Z</time></trkpt><trkpt lat="39.431336" lon="-6.365644"><ele>453.793</ele><time>2010-01-01T00:24:49Z</time></trkpt><trkpt lat="39.431618" lon="-6.367007"><ele>455.723</ele><time>2010-01-01T00:24:05Z</time></trkpt><trkpt lat="39.432538" lon="-6.368745"><ele>460.880</ele><time>2010-01-01T00:23:00Z</time></trkpt><trkpt lat="39.433071" lon="-6.369812"><ele>462.659</ele><time>2010-01-01T00:22:21Z</time></trkpt><trkpt lat="39.433581" lon="-6.370740"><ele>465.924</ele><time>2010-01-01T00:21:46Z</time></trkpt><trkpt lat="39.433997" lon="-6.371518"><ele>467.546</ele><time>2010-01-01T00:21:16Z</time></trkpt><trkpt lat="39.434213" lon="-6.371760"><ele>469.139</ele><time>2010-01-01T00:21:05Z</time></trkpt><trkpt lat="39.434428" lon="-6.371738"><ele>469.765</ele><time>2010-01-01T00:20:56Z</time></trkpt><trkpt lat="39.435049" lon="-6.372478"><ele>464.016</ele><time>2010-01-01T00:20:22Z</time></trkpt><trkpt lat="39.435055" lon="-6.372741"><ele>464.082</ele><time>2010-01-01T00:20:13Z</time></trkpt><trkpt lat="39.434914" lon="-6.372865"><ele>463.743</ele><time>2010-01-01T00:20:07Z</time></trkpt><trkpt lat="39.434989" lon="-6.372984"><ele>463.317</ele><time>2010-01-01T00:20:02Z</time></trkpt><trkpt lat="39.435139" lon="-6.373113"><ele>462.809</ele><time>2010-01-01T00:19:55Z</time></trkpt><trkpt lat="39.444862" lon="-6.378612"><ele>456.029</ele><time>2010-01-01T00:12:50Z</time></trkpt><trkpt lat="39.445032" lon="-6.378886"><ele>456.029</ele><time>2010-01-01T00:12:38Z</time></trkpt><trkpt lat="39.445029" lon="-6.378961"><ele>455.766</ele><time>2010-01-01T00:12:36Z</time></trkpt><trkpt lat="39.444976" lon="-6.379125"><ele>455.125</ele><time>2010-01-01T00:12:30Z</time></trkpt><trkpt lat="39.444850" lon="-6.379768"><ele>453.520</ele><time>2010-01-01T00:12:09Z</time></trkpt><trkpt lat="39.445161" lon="-6.380246"><ele>454.132</ele><time>2010-01-01T00:11:49Z</time></trkpt><trkpt lat="39.445597" lon="-6.380273"><ele>455.175</ele><time>2010-01-01T00:11:32Z</time></trkpt><trkpt lat="39.445846" lon="-6.380058"><ele>455.211</ele><time>2010-01-01T00:11:20Z</time></trkpt><trkpt lat="39.446162" lon="-6.379669"><ele>457.022</ele><time>2010-01-01T00:11:02Z</time></trkpt><trkpt lat="39.446514" lon="-6.379709"><ele>456.611</ele><time>2010-01-01T00:10:47Z</time></trkpt><trkpt lat="39.451088" lon="-6.382222"><ele>459.021</ele><time>2010-01-01T00:07:28Z</time></trkpt><trkpt lat="39.453335" lon="-6.383592"><ele>451.103</ele><time>2010-01-01T00:05:48Z</time></trkpt><trkpt lat="39.455343" lon="-6.384010"><ele>451.209</ele><time>2010-01-01T00:04:26Z</time></trkpt><trkpt lat="39.456105" lon="-6.384213"><ele>446.992</ele><time>2010-01-01T00:03:53Z</time></trkpt><trkpt lat="39.456060" lon="-6.384469"><ele>446.782</ele><time>2010-01-01T00:03:43Z</time></trkpt><trkpt lat="39.457029" lon="-6.384285"><ele>449.099</ele><time>2010-01-01T00:03:03Z</time></trkpt><trkpt lat="39.457968" lon="-6.384399"><ele>451.468</ele><time>2010-01-01T00:02:26Z</time></trkpt><trkpt lat="39.460434" lon="-6.384769"><ele>453.393</ele><time>2010-01-01T00:00:46Z</time></trkpt><trkpt lat="39.460675" lon="-6.384713"><ele>454.015</ele><time>2010-01-01T00:00:36Z</time></trkpt><trkpt lat="39.460857" lon="-6.384877"><ele>454.648</ele><time>2010-01-01T00:00:27Z</time></trkpt><trkpt lat="39.460888" lon="-6.385008"><ele>455.324</ele><time>2010-01-01T00:00:22Z</time></trkpt><trkpt lat="39.461090" lon="-6.384975"><ele>455.835</ele><time>2010-01-01T00:00:14Z</time></trkpt><trkpt lat="39.461198" lon="-6.385212"><ele>457.299</ele><time>2010-01-01T00:00:05Z</time></trkpt><trkpt lat="39.461192" lon="-6.385379"><ele>457.707</ele><time>2010-01-01T00:00:00Z</time></trkpt><trkpt lat="39.461375" lon="-6.385120"><ele>455.927</ele><time>2010-01-01T07:40:20Z</time></trkpt><trkpt lat="39.461602" lon="-6.385120"><ele>456.709</ele><time>2010-01-01T07:40:11Z</time></trkpt><trkpt lat="39.461882" lon="-6.384678"><ele>457.440</ele><time>2010-01-01T07:39:53Z</time></trkpt><trkpt lat="39.462583" lon="-6.384810"><ele>458.960</ele><time>2010-01-01T07:39:25Z</time></trkpt><trkpt lat="39.463809" lon="-6.385568"><ele>455.787</ele><time>2010-01-01T07:38:31Z</time></trkpt><trkpt lat="39.465778" lon="-6.387510"><ele>451.036</ele><time>2010-01-01T07:36:51Z</time></trkpt><trkpt lat="39.465836" lon="-6.388113"><ele>454.281</ele><time>2010-01-01T07:36:33Z</time></trkpt><trkpt lat="39.466302" lon="-6.388537"><ele>456.383</ele><time>2010-01-01T07:36:10Z</time></trkpt><trkpt lat="39.467587" lon="-6.391035"><ele>454.076</ele><time>2010-01-01T07:34:37Z</time></trkpt><trkpt lat="39.468158" lon="-6.392762"><ele>447.112</ele><time>2010-01-01T07:33:39Z</time></trkpt><trkpt lat="39.468792" lon="-6.393849"><ele>448.123</ele><time>2010-01-01T07:32:57Z</time></trkpt><trkpt lat="39.469376" lon="-6.393426"><ele>452.725</ele><time>2010-01-01T07:32:30Z</time></trkpt><trkpt lat="39.469657" lon="-6.392600"><ele>454.226</ele><time>2010-01-01T07:32:02Z</time></trkpt><trkpt lat="39.470074" lon="-6.392936"><ele>461.508</ele><time>2010-01-01T07:31:42Z</time></trkpt><trkpt lat="39.469937" lon="-6.393504"><ele>457.009</ele><time>2010-01-01T07:31:24Z</time></trkpt><trkpt lat="39.470047" lon="-6.393724"><ele>458.093</ele><time>2010-01-01T07:31:16Z</time></trkpt><trkpt lat="39.469822" lon="-6.394255"><ele>452.973</ele><time>2010-01-01T07:30:57Z</time></trkpt><trkpt lat="39.469890" lon="-6.394448"><ele>452.450</ele><time>2010-01-01T07:30:51Z</time></trkpt><trkpt lat="39.470881" lon="-6.394920"><ele>455.319</ele><time>2010-01-01T07:30:08Z</time></trkpt><trkpt lat="39.473496" lon="-6.395340"><ele>464.454</ele><time>2010-01-01T07:28:23Z</time></trkpt><trkpt lat="39.474133" lon="-6.395694"><ele>466.816</ele><time>2010-01-01T07:27:55Z</time></trkpt><trkpt lat="39.474463" lon="-6.396210"><ele>468.149</ele><time>2010-01-01T07:27:35Z</time></trkpt><trkpt lat="39.474741" lon="-6.397165"><ele>467.235</ele><time>2010-01-01T07:27:03Z</time></trkpt><trkpt lat="39.474859" lon="-6.399362"><ele>458.736</ele><time>2010-01-01T07:25:55Z</time></trkpt><trkpt lat="39.475180" lon="-6.399842"><ele>455.718</ele><time>2010-01-01T07:25:35Z</time></trkpt><trkpt lat="39.475429" lon="-6.399909"><ele>455.398</ele><time>2010-01-01T07:25:25Z</time></trkpt><trkpt lat="39.475565" lon="-6.400118"><ele>455.117</ele><time>2010-01-01T07:25:17Z</time></trkpt><trkpt lat="39.475868" lon="-6.399691"><ele>457.309</ele><time>2010-01-01T07:24:59Z</time></trkpt><trkpt lat="39.475515" lon="-6.400343"><ele>455.122</ele><time>2010-01-01T07:24:34Z</time></trkpt><trkpt lat="39.475904" lon="-6.400777"><ele>460.652</ele><time>2010-01-01T07:24:14Z</time></trkpt><trkpt lat="39.476347" lon="-6.400091"><ele>462.079</ele><time>2010-01-01T07:23:46Z</time></trkpt><trkpt lat="39.476952" lon="-6.398487"><ele>461.078</ele><time>2010-01-01T07:22:51Z</time></trkpt><trkpt lat="39.477616" lon="-6.395437"><ele>453.963</ele><time>2010-01-01T07:21:13Z</time></trkpt><trkpt lat="39.477883" lon="-6.392860"><ele>442.895</ele><time>2010-01-01T07:19:53Z</time></trkpt><trkpt lat="39.477765" lon="-6.385535"><ele>434.768</ele><time>2010-01-01T07:16:06Z</time></trkpt><trkpt lat="39.478034" lon="-6.384291"><ele>438.164</ele><time>2010-01-01T07:15:26Z</time></trkpt><trkpt lat="39.478427" lon="-6.383266"><ele>438.015</ele><time>2010-01-01T07:14:51Z</time></trkpt><trkpt lat="39.478966" lon="-6.382402"><ele>440.153</ele><time>2010-01-01T07:14:17Z</time></trkpt><trkpt lat="39.479646" lon="-6.381881"><ele>431.104</ele><time>2010-01-01T07:13:45Z</time></trkpt><trkpt lat="39.480197" lon="-6.381742"><ele>427.614</ele><time>2010-01-01T07:13:22Z</time></trkpt><trkpt lat="39.480595" lon="-6.381758"><ele>425.709</ele><time>2010-01-01T07:13:07Z</time></trkpt><trkpt lat="39.482880" lon="-6.382820"><ele>409.696</ele><time>2010-01-01T07:11:29Z</time></trkpt><trkpt lat="39.484228" lon="-6.383190"><ele>394.526</ele><time>2010-01-01T07:10:34Z</time></trkpt><trkpt lat="39.484779" lon="-6.383201"><ele>392.993</ele><time>2010-01-01T07:10:12Z</time></trkpt><trkpt lat="39.486550" lon="-6.382720"><ele>406.842</ele><time>2010-01-01T07:08:59Z</time></trkpt><trkpt lat="39.494921" lon="-6.385812"><ele>381.297</ele><time>2010-01-01T07:03:11Z</time></trkpt><trkpt lat="39.507462" lon="-6.392125"><ele>356.339</ele><time>2010-01-01T06:54:12Z</time></trkpt><trkpt lat="39.507408" lon="-6.392650"><ele>357.982</ele><time>2010-01-01T06:53:56Z</time></trkpt><trkpt lat="39.507834" lon="-6.392944"><ele>356.688</ele><time>2010-01-01T06:53:37Z</time></trkpt><trkpt lat="39.511403" lon="-6.394402"><ele>365.859</ele><time>2010-01-01T06:51:07Z</time></trkpt><trkpt lat="39.513542" lon="-6.396698"><ele>369.197</ele><time>2010-01-01T06:49:16Z</time></trkpt><trkpt lat="39.516239" lon="-6.397336"><ele>357.523</ele><time>2010-01-01T06:47:26Z</time></trkpt><trkpt lat="39.518265" lon="-6.398158"><ele>355.425</ele><time>2010-01-01T06:46:01Z</time></trkpt><trkpt lat="39.519162" lon="-6.398890"><ele>358.009</ele><time>2010-01-01T06:45:18Z</time></trkpt><trkpt lat="39.520902" lon="-6.399956"><ele>351.780</ele><time>2010-01-01T06:44:01Z</time></trkpt><trkpt lat="39.521880" lon="-6.401045"><ele>355.550</ele><time>2010-01-01T06:43:10Z</time></trkpt><trkpt lat="39.522445" lon="-6.401106"><ele>357.827</ele><time>2010-01-01T06:42:47Z</time></trkpt><trkpt lat="39.523082" lon="-6.401436"><ele>359.066</ele><time>2010-01-01T06:42:19Z</time></trkpt><trkpt lat="39.523555" lon="-6.402139"><ele>364.121</ele><time>2010-01-01T06:41:51Z</time></trkpt><trkpt lat="39.524583" lon="-6.403213"><ele>365.943</ele><time>2010-01-01T06:40:58Z</time></trkpt><trkpt lat="39.526362" lon="-6.404546"><ele>362.826</ele><time>2010-01-01T06:39:36Z</time></trkpt><trkpt lat="39.527235" lon="-6.405543"><ele>359.092</ele><time>2010-01-01T06:38:49Z</time></trkpt><trkpt lat="39.528333" lon="-6.406183"><ele>358.383</ele><time>2010-01-01T06:38:01Z</time></trkpt><trkpt lat="39.528851" lon="-6.406875"><ele>357.125</ele><time>2010-01-01T06:37:31Z</time></trkpt><trkpt lat="39.530168" lon="-6.408055"><ele>365.626</ele><time>2010-01-01T06:36:27Z</time></trkpt><trkpt lat="39.531230" lon="-6.408351"><ele>363.708</ele><time>2010-01-01T06:35:43Z</time></trkpt><trkpt lat="39.532645" lon="-6.409376"><ele>365.809</ele><time>2010-01-01T06:34:39Z</time></trkpt><trkpt lat="39.533349" lon="-6.409328"><ele>370.433</ele><time>2010-01-01T06:34:10Z</time></trkpt><trkpt lat="39.533717" lon="-6.409054"><ele>369.973</ele><time>2010-01-01T06:33:53Z</time></trkpt><trkpt lat="39.534808" lon="-6.408762"><ele>365.640</ele><time>2010-01-01T06:33:09Z</time></trkpt><trkpt lat="39.535996" lon="-6.410033"><ele>368.259</ele><time>2010-01-01T06:32:07Z</time></trkpt><trkpt lat="39.537930" lon="-6.409342"><ele>372.834</ele><time>2010-01-01T06:30:47Z</time></trkpt><trkpt lat="39.539578" lon="-6.410154"><ele>379.426</ele><time>2010-01-01T06:29:36Z</time></trkpt><trkpt lat="39.540927" lon="-6.410476"><ele>378.619</ele><time>2010-01-01T06:28:41Z</time></trkpt><trkpt lat="39.546533" lon="-6.412638"><ele>381.045</ele><time>2010-01-01T06:24:47Z</time></trkpt><trkpt lat="39.551918" lon="-6.415262"><ele>374.166</ele><time>2010-01-01T06:20:57Z</time></trkpt><trkpt lat="39.552175" lon="-6.414371"><ele>376.234</ele><time>2010-01-01T06:20:28Z</time></trkpt><trkpt lat="39.560518" lon="-6.416823"><ele>369.055</ele><time>2010-01-01T06:14:44Z</time></trkpt><trkpt lat="39.560542" lon="-6.418840"><ele>368.010</ele><time>2010-01-01T06:13:42Z</time></trkpt><trkpt lat="39.560274" lon="-6.420401"><ele>364.509</ele><time>2010-01-01T06:12:53Z</time></trkpt><trkpt lat="39.560571" lon="-6.421088"><ele>363.234</ele><time>2010-01-01T06:12:28Z</time></trkpt><trkpt lat="39.560688" lon="-6.422028"><ele>359.754</ele><time>2010-01-01T06:11:59Z</time></trkpt><trkpt lat="39.561222" lon="-6.423752"><ele>361.121</ele><time>2010-01-01T06:11:02Z</time></trkpt><trkpt lat="39.562822" lon="-6.427196"><ele>377.970</ele><time>2010-01-01T06:08:58Z</time></trkpt><trkpt lat="39.562956" lon="-6.428866"><ele>384.775</ele><time>2010-01-01T06:08:06Z</time></trkpt><trkpt lat="39.563200" lon="-6.429891"><ele>388.727</ele><time>2010-01-01T06:07:33Z</time></trkpt><trkpt lat="39.564482" lon="-6.431961"><ele>396.750</ele><time>2010-01-01T06:06:11Z</time></trkpt><trkpt lat="39.565822" lon="-6.436704"><ele>389.236</ele><time>2010-01-01T06:03:35Z</time></trkpt><trkpt lat="39.567465" lon="-6.444130"><ele>376.077</ele><time>2010-01-01T05:59:36Z</time></trkpt><trkpt lat="39.567857" lon="-6.444999"><ele>379.632</ele><time>2010-01-01T05:59:05Z</time></trkpt><trkpt lat="39.572356" lon="-6.449364"><ele>375.492</ele><time>2010-01-01T05:55:20Z</time></trkpt><trkpt lat="39.572812" lon="-6.450266"><ele>373.011</ele><time>2010-01-01T05:54:47Z</time></trkpt><trkpt lat="39.573984" lon="-6.453625"><ele>375.009</ele><time>2010-01-01T05:52:53Z</time></trkpt><trkpt lat="39.574623" lon="-6.454237"><ele>376.384</ele><time>2010-01-01T05:52:22Z</time></trkpt><trkpt lat="39.574719" lon="-6.455040"><ele>377.914</ele><time>2010-01-01T05:51:57Z</time></trkpt><trkpt lat="39.583278" lon="-6.460247"><ele>401.191</ele><time>2010-01-01T05:45:38Z</time></trkpt><trkpt lat="39.588769" lon="-6.467521"><ele>392.080</ele><time>2010-01-01T05:40:24Z</time></trkpt><trkpt lat="39.592436" lon="-6.471163"><ele>377.425</ele><time>2010-01-01T05:37:19Z</time></trkpt><trkpt lat="39.595858" lon="-6.473647"><ele>373.277</ele><time>2010-01-01T05:34:42Z</time></trkpt><trkpt lat="39.599760" lon="-6.474974"><ele>382.140</ele><time>2010-01-01T05:32:01Z</time></trkpt><trkpt lat="39.605450" lon="-6.477816"><ele>361.316</ele><time>2010-01-01T05:27:57Z</time></trkpt><trkpt lat="39.611021" lon="-6.479659"><ele>352.087</ele><time>2010-01-01T05:24:07Z</time></trkpt><trkpt lat="39.615022" lon="-6.479437"><ele>346.045</ele><time>2010-01-01T05:21:26Z</time></trkpt><trkpt lat="39.625505" lon="-6.480707"><ele>344.547</ele><time>2010-01-01T05:14:25Z</time></trkpt><trkpt lat="39.633250" lon="-6.480732"><ele>346.911</ele><time>2010-01-01T05:09:15Z</time></trkpt><trkpt lat="39.636560" lon="-6.481160"><ele>342.709</ele><time>2010-01-01T05:07:02Z</time></trkpt><trkpt lat="39.643024" lon="-6.482771"><ele>357.735</ele><time>2010-01-01T05:02:38Z</time></trkpt><trkpt lat="39.644598" lon="-6.482658"><ele>355.175</ele><time>2010-01-01T05:01:35Z</time></trkpt><trkpt lat="39.647273" lon="-6.482039"><ele>345.642</ele><time>2010-01-01T04:59:46Z</time></trkpt><trkpt lat="39.648343" lon="-6.482009"><ele>341.031</ele><time>2010-01-01T04:59:03Z</time></trkpt><trkpt lat="39.654763" lon="-6.483340"><ele>330.046</ele><time>2010-01-01T04:54:43Z</time></trkpt><trkpt lat="39.663039" lon="-6.483578"><ele>340.938</ele><time>2010-01-01T04:49:12Z</time></trkpt><trkpt lat="39.663787" lon="-6.483321"><ele>338.671</ele><time>2010-01-01T04:48:41Z</time></trkpt><trkpt lat="39.664770" lon="-6.482376"><ele>335.347</ele><time>2010-01-01T04:47:52Z</time></trkpt><trkpt lat="39.667029" lon="-6.476913"><ele>323.878</ele><time>2010-01-01T04:44:41Z</time></trkpt><trkpt lat="39.670031" lon="-6.472959"><ele>309.059</ele><time>2010-01-01T04:41:50Z</time></trkpt><trkpt lat="39.670872" lon="-6.471106"><ele>306.003</ele><time>2010-01-01T04:40:43Z</time></trkpt><trkpt lat="39.671336" lon="-6.470683"><ele>311.423</ele><time>2010-01-01T04:40:21Z</time></trkpt><trkpt lat="39.671827" lon="-6.470604"><ele>313.209</ele><time>2010-01-01T04:40:01Z</time></trkpt><trkpt lat="39.672273" lon="-6.470790"><ele>311.896</ele><time>2010-01-01T04:39:42Z</time></trkpt><trkpt lat="39.674079" lon="-6.472061"><ele>307.026</ele><time>2010-01-01T04:38:20Z</time></trkpt><trkpt lat="39.674511" lon="-6.472603"><ele>303.043</ele><time>2010-01-01T04:37:56Z</time></trkpt><trkpt lat="39.675064" lon="-6.473751"><ele>300.662</ele><time>2010-01-01T04:37:14Z</time></trkpt><trkpt lat="39.675715" lon="-6.474230"><ele>296.997</ele><time>2010-01-01T04:36:44Z</time></trkpt><trkpt lat="39.677362" lon="-6.473915"><ele>292.579</ele><time>2010-01-01T04:35:37Z</time></trkpt><trkpt lat="39.678846" lon="-6.474835"><ele>283.042</ele><time>2010-01-01T04:34:32Z</time></trkpt><trkpt lat="39.679331" lon="-6.474978"><ele>280.998</ele><time>2010-01-01T04:34:12Z</time></trkpt><trkpt lat="39.680951" lon="-6.474738"><ele>269.549</ele><time>2010-01-01T04:33:06Z</time></trkpt><trkpt lat="39.682061" lon="-6.473981"><ele>266.437</ele><time>2010-01-01T04:32:16Z</time></trkpt><trkpt lat="39.683217" lon="-6.473825"><ele>263.949</ele><time>2010-01-01T04:31:30Z</time></trkpt><trkpt lat="39.683818" lon="-6.473321"><ele>263.713</ele><time>2010-01-01T04:31:01Z</time></trkpt><trkpt lat="39.684354" lon="-6.471747"><ele>268.509</ele><time>2010-01-01T04:30:08Z</time></trkpt><trkpt lat="39.684822" lon="-6.471250"><ele>259.744</ele><time>2010-01-01T04:29:44Z</time></trkpt><trkpt lat="39.685300" lon="-6.471152"><ele>255.564</ele><time>2010-01-01T04:29:24Z</time></trkpt><trkpt lat="39.686361" lon="-6.471674"><ele>254.761</ele><time>2010-01-01T04:28:39Z</time></trkpt><trkpt lat="39.686859" lon="-6.471674"><ele>251.950</ele><time>2010-01-01T04:28:19Z</time></trkpt><trkpt lat="39.687840" lon="-6.470877"><ele>242.925</ele><time>2010-01-01T04:27:33Z</time></trkpt><trkpt lat="39.688853" lon="-6.470579"><ele>238.077</ele><time>2010-01-01T04:26:51Z</time></trkpt><trkpt lat="39.689367" lon="-6.470236"><ele>239.040</ele><time>2010-01-01T04:26:28Z</time></trkpt><trkpt lat="39.691245" lon="-6.465290"><ele>202.596</ele><time>2010-01-01T04:23:38Z</time></trkpt><trkpt lat="39.691895" lon="-6.464054"><ele>223.377</ele><time>2010-01-01T04:22:52Z</time></trkpt><trkpt lat="39.692339" lon="-6.463863"><ele>228.374</ele><time>2010-01-01T04:22:33Z</time></trkpt><trkpt lat="39.692844" lon="-6.463941"><ele>232.956</ele><time>2010-01-01T04:22:13Z</time></trkpt><trkpt lat="39.694575" lon="-6.464813"><ele>231.621</ele><time>2010-01-01T04:20:59Z</time></trkpt><trkpt lat="39.695033" lon="-6.464888"><ele>233.409</ele><time>2010-01-01T04:20:40Z</time></trkpt><trkpt lat="39.695566" lon="-6.464644"><ele>231.058</ele><time>2010-01-01T04:20:18Z</time></trkpt><trkpt lat="39.696604" lon="-6.463552"><ele>238.428</ele><time>2010-01-01T04:19:24Z</time></trkpt><trkpt lat="39.698136" lon="-6.463193"><ele>244.985</ele><time>2010-01-01T04:18:22Z</time></trkpt><trkpt lat="39.698689" lon="-6.462844"><ele>242.324</ele><time>2010-01-01T04:17:57Z</time></trkpt><trkpt lat="39.700076" lon="-6.460344"><ele>249.939</ele><time>2010-01-01T04:16:22Z</time></trkpt><trkpt lat="39.700868" lon="-6.457730"><ele>253.511</ele><time>2010-01-01T04:14:56Z</time></trkpt><trkpt lat="39.701404" lon="-6.457145"><ele>257.454</ele><time>2010-01-01T04:14:28Z</time></trkpt><trkpt lat="39.705846" lon="-6.456614"><ele>255.920</ele><time>2010-01-01T04:11:29Z</time></trkpt><trkpt lat="39.707673" lon="-6.456829"><ele>260.131</ele><time>2010-01-01T04:10:16Z</time></trkpt><trkpt lat="39.708323" lon="-6.456738"><ele>259.679</ele><time>2010-01-01T04:09:50Z</time></trkpt><trkpt lat="39.711379" lon="-6.454523"><ele>249.705</ele><time>2010-01-01T04:07:30Z</time></trkpt><trkpt lat="39.712670" lon="-6.452916"><ele>236.125</ele><time>2010-01-01T04:06:18Z</time></trkpt><trkpt lat="39.714166" lon="-6.452335"><ele>238.609</ele><time>2010-01-01T04:05:15Z</time></trkpt><trkpt lat="39.715334" lon="-6.450532"><ele>228.088</ele><time>2010-01-01T04:04:03Z</time></trkpt><trkpt lat="39.719819" lon="-6.448541"><ele>224.078</ele><time>2010-01-01T04:00:53Z</time></trkpt><trkpt lat="39.721399" lon="-6.449155"><ele>235.225</ele><time>2010-01-01T03:59:47Z</time></trkpt><trkpt lat="39.724352" lon="-6.448030"><ele>257.964</ele><time>2010-01-01T03:57:44Z</time></trkpt><trkpt lat="39.727587" lon="-6.448952"><ele>261.279</ele><time>2010-01-01T03:55:31Z</time></trkpt><trkpt lat="39.729120" lon="-6.449084"><ele>255.071</ele><time>2010-01-01T03:54:30Z</time></trkpt><trkpt lat="39.729438" lon="-6.449305"><ele>253.964</ele><time>2010-01-01T03:54:15Z</time></trkpt><trkpt lat="39.730252" lon="-6.450379"><ele>245.410</ele><time>2010-01-01T03:53:29Z</time></trkpt><trkpt lat="39.730592" lon="-6.450559"><ele>240.421</ele><time>2010-01-01T03:53:14Z</time></trkpt><trkpt lat="39.731147" lon="-6.450524"><ele>233.947</ele><time>2010-01-01T03:52:52Z</time></trkpt><trkpt lat="39.733866" lon="-6.448347"><ele>225.129</ele><time>2010-01-01T03:50:44Z</time></trkpt><trkpt lat="39.737869" lon="-6.446703"><ele>227.521</ele><time>2010-01-01T03:47:56Z</time></trkpt><trkpt lat="39.740380" lon="-6.444070"><ele>227.609</ele><time>2010-01-01T03:45:47Z</time></trkpt><trkpt lat="39.748639" lon="-6.437927"><ele>223.245</ele><time>2010-01-01T03:39:26Z</time></trkpt><trkpt lat="39.750388" lon="-6.437304"><ele>220.955</ele><time>2010-01-01T03:38:14Z</time></trkpt><trkpt lat="39.752642" lon="-6.435480"><ele>224.812</ele><time>2010-01-01T03:36:27Z</time></trkpt><trkpt lat="39.755342" lon="-6.431995"><ele>226.341</ele><time>2010-01-01T03:33:55Z</time></trkpt><trkpt lat="39.755973" lon="-6.431506"><ele>226.526</ele><time>2010-01-01T03:33:25Z</time></trkpt><trkpt lat="39.756685" lon="-6.431281"><ele>224.748</ele><time>2010-01-01T03:32:56Z</time></trkpt><trkpt lat="39.757532" lon="-6.431340"><ele>222.481</ele><time>2010-01-01T03:32:22Z</time></trkpt><trkpt lat="39.761515" lon="-6.433244"><ele>224.387</ele><time>2010-01-01T03:29:32Z</time></trkpt><trkpt lat="39.762483" lon="-6.433399"><ele>225.238</ele><time>2010-01-01T03:28:53Z</time></trkpt><trkpt lat="39.763496" lon="-6.432929"><ele>228.751</ele><time>2010-01-01T03:28:10Z</time></trkpt><trkpt lat="39.765116" lon="-6.431287"><ele>234.401</ele><time>2010-01-01T03:26:48Z</time></trkpt><trkpt lat="39.767465" lon="-6.430564"><ele>239.111</ele><time>2010-01-01T03:25:11Z</time></trkpt><trkpt lat="39.769566" lon="-6.428673"><ele>243.009</ele><time>2010-01-01T03:23:29Z</time></trkpt><trkpt lat="39.769968" lon="-6.427262"><ele>241.876</ele><time>2010-01-01T03:22:43Z</time></trkpt><trkpt lat="39.770665" lon="-6.426133"><ele>244.926</ele><time>2010-01-01T03:21:58Z</time></trkpt><trkpt lat="39.771968" lon="-6.420826"><ele>248.233</ele><time>2010-01-01T03:19:07Z</time></trkpt><trkpt lat="39.773292" lon="-6.418695"><ele>250.632</ele><time>2010-01-01T03:17:42Z</time></trkpt><trkpt lat="39.774255" lon="-6.417574"><ele>256.117</ele><time>2010-01-01T03:16:51Z</time></trkpt><trkpt lat="39.775845" lon="-6.416458"><ele>258.239</ele><time>2010-01-01T03:15:38Z</time></trkpt><trkpt lat="39.776348" lon="-6.415600"><ele>259.032</ele><time>2010-01-01T03:15:05Z</time></trkpt><trkpt lat="39.777488" lon="-6.412301"><ele>262.568</ele><time>2010-01-01T03:13:14Z</time></trkpt><trkpt lat="39.777117" lon="-6.409801"><ele>265.819</ele><time>2010-01-01T03:11:56Z</time></trkpt><trkpt lat="39.777306" lon="-6.408959"><ele>270.775</ele><time>2010-01-01T03:11:29Z</time></trkpt><trkpt lat="39.778062" lon="-6.407252"><ele>273.328</ele><time>2010-01-01T03:10:28Z</time></trkpt><trkpt lat="39.780203" lon="-6.404719"><ele>277.920</ele><time>2010-01-01T03:08:32Z</time></trkpt><trkpt lat="39.780578" lon="-6.402275"><ele>284.409</ele><time>2010-01-01T03:07:15Z</time></trkpt><trkpt lat="39.780429" lon="-6.400374"><ele>292.028</ele><time>2010-01-01T03:06:17Z</time></trkpt><trkpt lat="39.781131" lon="-6.398360"><ele>294.228</ele><time>2010-01-01T03:05:09Z</time></trkpt><trkpt lat="39.782540" lon="-6.395892"><ele>310.015</ele><time>2010-01-01T03:03:34Z</time></trkpt><trkpt lat="39.783257" lon="-6.395002"><ele>314.954</ele><time>2010-01-01T03:02:54Z</time></trkpt><trkpt lat="39.785798" lon="-6.394628"><ele>328.939</ele><time>2010-01-01T03:01:12Z</time></trkpt><trkpt lat="39.788100" lon="-6.393572"><ele>344.261</ele><time>2010-01-01T02:59:34Z</time></trkpt><trkpt lat="39.789839" lon="-6.394143"><ele>361.914</ele><time>2010-01-01T02:58:22Z</time></trkpt><trkpt lat="39.790049" lon="-6.393955"><ele>364.280</ele><time>2010-01-01T02:58:12Z</time></trkpt><trkpt lat="39.790247" lon="-6.394059"><ele>365.761</ele><time>2010-01-01T02:58:03Z</time></trkpt><trkpt lat="39.792265" lon="-6.390947"><ele>366.031</ele><time>2010-01-01T02:55:58Z</time></trkpt><trkpt lat="39.792854" lon="-6.390598"><ele>367.461</ele><time>2010-01-01T02:55:32Z</time></trkpt><trkpt lat="39.792945" lon="-6.390203"><ele>367.407</ele><time>2010-01-01T02:55:20Z</time></trkpt><trkpt lat="39.792815" lon="-6.388945"><ele>364.709</ele><time>2010-01-01T02:54:41Z</time></trkpt><trkpt lat="39.793001" lon="-6.388044"><ele>366.074</ele><time>2010-01-01T02:54:12Z</time></trkpt><trkpt lat="39.795544" lon="-6.383231"><ele>370.764</ele><time>2010-01-01T02:51:12Z</time></trkpt><trkpt lat="39.795419" lon="-6.380785"><ele>379.391</ele><time>2010-01-01T02:49:57Z</time></trkpt><trkpt lat="39.796500" lon="-6.377653"><ele>385.780</ele><time>2010-01-01T02:48:11Z</time></trkpt><trkpt lat="39.797009" lon="-6.375223"><ele>390.755</ele><time>2010-01-01T02:46:54Z</time></trkpt><trkpt lat="39.797347" lon="-6.374614"><ele>397.687</ele><time>2010-01-01T02:46:31Z</time></trkpt><trkpt lat="39.797823" lon="-6.374139"><ele>399.210</ele><time>2010-01-01T02:46:07Z</time></trkpt><trkpt lat="39.800329" lon="-6.372605"><ele>396.146</ele><time>2010-01-01T02:44:16Z</time></trkpt><trkpt lat="39.801924" lon="-6.369392"><ele>397.127</ele><time>2010-01-01T02:42:18Z</time></trkpt><trkpt lat="39.802757" lon="-6.368674"><ele>403.225</ele><time>2010-01-01T02:41:38Z</time></trkpt><trkpt lat="39.807418" lon="-6.367607"><ele>416.026</ele><time>2010-01-01T02:38:28Z</time></trkpt><trkpt lat="39.808168" lon="-6.368448"><ele>421.208</ele><time>2010-01-01T02:37:49Z</time></trkpt><trkpt lat="39.809113" lon="-6.370677"><ele>434.009</ele><time>2010-01-01T02:36:30Z</time></trkpt><trkpt lat="39.809443" lon="-6.370811"><ele>436.873</ele><time>2010-01-01T02:36:17Z</time></trkpt><trkpt lat="39.810637" lon="-6.370530"><ele>444.263</ele><time>2010-01-01T02:35:28Z</time></trkpt><trkpt lat="39.811280" lon="-6.370147"><ele>446.270</ele><time>2010-01-01T02:35:00Z</time></trkpt><trkpt lat="39.811848" lon="-6.368659"><ele>451.339</ele><time>2010-01-01T02:34:09Z</time></trkpt><trkpt lat="39.812241" lon="-6.368233"><ele>455.754</ele><time>2010-01-01T02:33:48Z</time></trkpt><trkpt lat="39.814481" lon="-6.366789"><ele>467.056</ele><time>2010-01-01T02:32:08Z</time></trkpt><trkpt lat="39.816786" lon="-6.366111"><ele>480.159</ele><time>2010-01-01T02:30:33Z</time></trkpt><trkpt lat="39.818103" lon="-6.365236"><ele>485.585</ele><time>2010-01-01T02:29:34Z</time></trkpt><trkpt lat="39.819089" lon="-6.365083"><ele>494.156</ele><time>2010-01-01T02:28:55Z</time></trkpt><trkpt lat="39.820147" lon="-6.365384"><ele>492.661</ele><time>2010-01-01T02:28:11Z</time></trkpt><trkpt lat="39.820530" lon="-6.364826"><ele>491.221</ele><time>2010-01-01T02:27:48Z</time></trkpt><trkpt lat="39.821280" lon="-6.364813"><ele>487.313</ele><time>2010-01-01T02:27:18Z</time></trkpt><trkpt lat="39.833115" lon="-6.360861"><ele>484.609</ele><time>2010-01-01T02:19:09Z</time></trkpt><trkpt lat="39.834954" lon="-6.360105"><ele>464.197</ele><time>2010-01-01T02:17:52Z</time></trkpt><trkpt lat="39.835341" lon="-6.360220"><ele>461.667</ele><time>2010-01-01T02:17:36Z</time></trkpt><trkpt lat="39.835582" lon="-6.360129"><ele>460.934</ele><time>2010-01-01T02:17:26Z</time></trkpt><trkpt lat="39.835669" lon="-6.359654"><ele>459.343</ele><time>2010-01-01T02:17:11Z</time></trkpt><trkpt lat="39.835384" lon="-6.359330"><ele>460.678</ele><time>2010-01-01T02:16:56Z</time></trkpt><trkpt lat="39.835244" lon="-6.358480"><ele>464.130</ele><time>2010-01-01T02:16:29Z</time></trkpt><trkpt lat="39.835516" lon="-6.356728"><ele>470.363</ele><time>2010-01-01T02:15:34Z</time></trkpt><trkpt lat="39.837072" lon="-6.353722"><ele>468.429</ele><time>2010-01-01T02:13:43Z</time></trkpt><trkpt lat="39.837732" lon="-6.351278"><ele>455.760</ele><time>2010-01-01T02:12:23Z</time></trkpt><trkpt lat="39.839536" lon="-6.349248"><ele>472.123</ele><time>2010-01-01T02:10:48Z</time></trkpt><trkpt lat="39.841529" lon="-6.344117"><ele>475.683</ele><time>2010-01-01T02:07:51Z</time></trkpt><trkpt lat="39.844072" lon="-6.339230"><ele>468.411</ele><time>2010-01-01T02:04:49Z</time></trkpt><trkpt lat="39.847620" lon="-6.334040"><ele>451.609</ele><time>2010-01-01T02:01:16Z</time></trkpt><trkpt lat="39.848697" lon="-6.332977"><ele>448.283</ele><time>2010-01-01T02:00:22Z</time></trkpt><trkpt lat="39.854047" lon="-6.323187"><ele>410.653</ele><time>2010-01-01T01:54:12Z</time></trkpt><trkpt lat="39.855657" lon="-6.319004"><ele>403.280</ele><time>2010-01-01T01:51:49Z</time></trkpt><trkpt lat="39.856220" lon="-6.318382"><ele>403.179</ele><time>2010-01-01T01:51:19Z</time></trkpt><trkpt lat="39.858558" lon="-6.316512"><ele>403.084</ele><time>2010-01-01T01:49:29Z</time></trkpt><trkpt lat="39.858875" lon="-6.316105"><ele>403.596</ele><time>2010-01-01T01:49:11Z</time></trkpt><trkpt lat="39.860148" lon="-6.312731"><ele>383.579</ele><time>2010-01-01T01:47:16Z</time></trkpt><trkpt lat="39.863465" lon="-6.306739"><ele>373.425</ele><time>2010-01-01T01:43:29Z</time></trkpt><trkpt lat="39.866461" lon="-6.302521"><ele>374.126</ele><time>2010-01-01T01:40:32Z</time></trkpt><trkpt lat="39.868360" lon="-6.299134"><ele>366.727</ele><time>2010-01-01T01:38:23Z</time></trkpt><trkpt lat="39.869591" lon="-6.297246"><ele>363.168</ele><time>2010-01-01T01:37:07Z</time></trkpt><trkpt lat="39.877758" lon="-6.285994"><ele>355.414</ele><time>2010-01-01T01:29:12Z</time></trkpt><trkpt lat="39.881648" lon="-6.279579"><ele>341.609</ele><time>2010-01-01T01:25:00Z</time></trkpt><trkpt lat="39.893297" lon="-6.264985"><ele>324.623</ele><time>2010-01-01T01:14:14Z</time></trkpt><trkpt lat="39.895040" lon="-6.263480"><ele>321.093</ele><time>2010-01-01T01:12:50Z</time></trkpt><trkpt lat="39.897300" lon="-6.261967"><ele>321.370</ele><time>2010-01-01T01:11:08Z</time></trkpt><trkpt lat="39.900550" lon="-6.258996"><ele>318.489</ele><time>2010-01-01T01:08:29Z</time></trkpt><trkpt lat="39.904496" lon="-6.256362"><ele>321.114</ele><time>2010-01-01T01:05:32Z</time></trkpt><trkpt lat="39.911542" lon="-6.250985"><ele>327.676</ele><time>2010-01-01T01:00:05Z</time></trkpt><trkpt lat="39.916190" lon="-6.245997"><ele>336.719</ele><time>2010-01-01T00:56:04Z</time></trkpt><trkpt lat="39.917830" lon="-6.244061"><ele>343.485</ele><time>2010-01-01T00:54:35Z</time></trkpt><trkpt lat="39.919052" lon="-6.242359"><ele>345.156</ele><time>2010-01-01T00:53:24Z</time></trkpt><trkpt lat="39.919362" lon="-6.242448"><ele>346.674</ele><time>2010-01-01T00:53:11Z</time></trkpt><trkpt lat="39.920222" lon="-6.244210"><ele>351.556</ele><time>2010-01-01T00:52:07Z</time></trkpt><trkpt lat="39.920780" lon="-6.246387"><ele>359.421</ele><time>2010-01-01T00:50:57Z</time></trkpt><trkpt lat="39.920901" lon="-6.247763"><ele>364.909</ele><time>2010-01-01T00:50:14Z</time></trkpt><trkpt lat="39.920829" lon="-6.249449"><ele>373.048</ele><time>2010-01-01T00:49:22Z</time></trkpt><trkpt lat="39.919861" lon="-6.254165"><ele>376.548</ele><time>2010-01-01T00:46:52Z</time></trkpt><trkpt lat="39.919748" lon="-6.255686"><ele>374.495</ele><time>2010-01-01T00:46:05Z</time></trkpt><trkpt lat="39.920162" lon="-6.257297"><ele>374.394</ele><time>2010-01-01T00:45:13Z</time></trkpt><trkpt lat="39.920701" lon="-6.258148"><ele>366.729</ele><time>2010-01-01T00:44:39Z</time></trkpt><trkpt lat="39.922281" lon="-6.259780"><ele>347.611</ele><time>2010-01-01T00:43:19Z</time></trkpt><trkpt lat="39.922935" lon="-6.261422"><ele>338.754</ele><time>2010-01-01T00:42:22Z</time></trkpt><trkpt lat="39.923080" lon="-6.263025"><ele>328.580</ele><time>2010-01-01T00:41:32Z</time></trkpt><trkpt lat="39.922656" lon="-6.266908"><ele>302.461</ele><time>2010-01-01T00:39:32Z</time></trkpt><trkpt lat="39.923677" lon="-6.267147"><ele>307.546</ele><time>2010-01-01T00:38:50Z</time></trkpt><trkpt lat="39.925051" lon="-6.266421"><ele>318.288</ele><time>2010-01-01T00:37:51Z</time></trkpt><trkpt lat="39.926655" lon="-6.266380"><ele>332.116</ele><time>2010-01-01T00:36:47Z</time></trkpt><trkpt lat="39.927226" lon="-6.266596"><ele>337.509</ele><time>2010-01-01T00:36:23Z</time></trkpt><trkpt lat="39.927839" lon="-6.266501"><ele>337.425</ele><time>2010-01-01T00:35:58Z</time></trkpt><trkpt lat="39.928365" lon="-6.266316"><ele>337.075</ele><time>2010-01-01T00:35:37Z</time></trkpt><trkpt lat="39.929632" lon="-6.265096"><ele>327.342</ele><time>2010-01-01T00:34:33Z</time></trkpt><trkpt lat="39.930021" lon="-6.264925"><ele>325.291</ele><time>2010-01-01T00:34:17Z</time></trkpt><trkpt lat="39.931515" lon="-6.265653"><ele>318.316</ele><time>2010-01-01T00:33:13Z</time></trkpt><trkpt lat="39.933149" lon="-6.265688"><ele>311.638</ele><time>2010-01-01T00:32:08Z</time></trkpt><trkpt lat="39.933554" lon="-6.265398"><ele>308.281</ele><time>2010-01-01T00:31:49Z</time></trkpt><trkpt lat="39.934367" lon="-6.266047"><ele>307.267</ele><time>2010-01-01T00:31:11Z</time></trkpt><trkpt lat="39.935080" lon="-6.266318"><ele>306.728</ele><time>2010-01-01T00:30:41Z</time></trkpt><trkpt lat="39.935664" lon="-6.266739"><ele>308.846</ele><time>2010-01-01T00:30:15Z</time></trkpt><trkpt lat="39.937244" lon="-6.267135"><ele>310.888</ele><time>2010-01-01T00:29:10Z</time></trkpt><trkpt lat="39.938289" lon="-6.267087"><ele>310.716</ele><time>2010-01-01T00:28:28Z</time></trkpt><trkpt lat="39.939429" lon="-6.266732"><ele>305.309</ele><time>2010-01-01T00:27:42Z</time></trkpt><trkpt lat="39.940845" lon="-6.266900"><ele>298.835</ele><time>2010-01-01T00:26:45Z</time></trkpt><trkpt lat="39.941437" lon="-6.265433"><ele>297.575</ele><time>2010-01-01T00:25:54Z</time></trkpt><trkpt lat="39.942498" lon="-6.265598"><ele>298.832</ele><time>2010-01-01T00:25:11Z</time></trkpt><trkpt lat="39.943170" lon="-6.264354"><ele>297.541</ele><time>2010-01-01T00:24:24Z</time></trkpt><trkpt lat="39.944257" lon="-6.263754"><ele>297.026</ele><time>2010-01-01T00:23:37Z</time></trkpt><trkpt lat="39.944358" lon="-6.262643"><ele>299.088</ele><time>2010-01-01T00:23:03Z</time></trkpt><trkpt lat="39.945554" lon="-6.262348"><ele>299.511</ele><time>2010-01-01T00:22:14Z</time></trkpt><trkpt lat="39.945681" lon="-6.261922"><ele>297.527</ele><time>2010-01-01T00:22:00Z</time></trkpt><trkpt lat="39.945584" lon="-6.261562"><ele>296.748</ele><time>2010-01-01T00:21:48Z</time></trkpt><trkpt lat="39.946239" lon="-6.261107"><ele>297.539</ele><time>2010-01-01T00:21:18Z</time></trkpt><trkpt lat="39.946979" lon="-6.260922"><ele>295.401</ele><time>2010-01-01T00:20:48Z</time></trkpt><trkpt lat="39.948079" lon="-6.259394"><ele>292.721</ele><time>2010-01-01T00:19:44Z</time></trkpt><trkpt lat="39.950212" lon="-6.259883"><ele>287.209</ele><time>2010-01-01T00:18:17Z</time></trkpt><trkpt lat="39.950711" lon="-6.260408"><ele>283.034</ele><time>2010-01-01T00:17:52Z</time></trkpt><trkpt lat="39.956109" lon="-6.260509"><ele>257.284</ele><time>2010-01-01T00:14:16Z</time></trkpt><trkpt lat="39.958157" lon="-6.260178"><ele>257.511</ele><time>2010-01-01T00:12:53Z</time></trkpt><trkpt lat="39.961270" lon="-6.257903"><ele>270.020</ele><time>2010-01-01T00:10:30Z</time></trkpt><trkpt lat="39.961475" lon="-6.258337"><ele>269.775</ele><time>2010-01-01T00:10:14Z</time></trkpt><trkpt lat="39.961415" lon="-6.258745"><ele>269.487</ele><time>2010-01-01T00:10:02Z</time></trkpt><trkpt lat="39.962737" lon="-6.260167"><ele>264.770</ele><time>2010-01-01T00:08:53Z</time></trkpt><trkpt lat="39.963377" lon="-6.260586"><ele>260.066</ele><time>2010-01-01T00:08:24Z</time></trkpt><trkpt lat="39.964751" lon="-6.262184"><ele>276.037</ele><time>2010-01-01T00:07:11Z</time></trkpt><trkpt lat="39.965184" lon="-6.262253"><ele>281.472</ele><time>2010-01-01T00:06:53Z</time></trkpt><trkpt lat="39.965480" lon="-6.262551"><ele>288.313</ele><time>2010-01-01T00:06:38Z</time></trkpt><trkpt lat="39.967918" lon="-6.265563"><ele>294.514</ele><time>2010-01-01T00:04:24Z</time></trkpt><trkpt lat="39.972144" lon="-6.266226"><ele>276.609</ele><time>2010-01-01T00:01:34Z</time></trkpt><trkpt lat="39.973807" lon="-6.265764"><ele>282.958</ele><time>2010-01-01T00:00:25Z</time></trkpt><trkpt lat="39.973898" lon="-6.265206"><ele>285.378</ele><time>2010-01-01T00:00:08Z</time></trkpt><trkpt lat="39.974917" lon="-6.268164"><ele>297.235</ele><time>2010-01-01T07:54:24Z</time></trkpt><trkpt lat="39.974918" lon="-6.268979"><ele>292.654</ele><time>2010-01-01T07:53:59Z</time></trkpt><trkpt lat="39.975328" lon="-6.269714"><ele>286.459</ele><time>2010-01-01T07:53:32Z</time></trkpt><trkpt lat="39.977293" lon="-6.269629"><ele>276.891</ele><time>2010-01-01T07:52:13Z</time></trkpt><trkpt lat="39.978908" lon="-6.269754"><ele>259.794</ele><time>2010-01-01T07:51:08Z</time></trkpt><trkpt lat="39.980332" lon="-6.271077"><ele>250.530</ele><time>2010-01-01T07:49:58Z</time></trkpt><trkpt lat="39.980916" lon="-6.271339"><ele>247.741</ele><time>2010-01-01T07:49:33Z</time></trkpt><trkpt lat="39.982840" lon="-6.271646"><ele>259.318</ele><time>2010-01-01T07:48:16Z</time></trkpt><trkpt lat="39.983555" lon="-6.271081"><ele>263.198</ele><time>2010-01-01T07:47:42Z</time></trkpt><trkpt lat="39.983820" lon="-6.269952"><ele>259.417</ele><time>2010-01-01T07:47:06Z</time></trkpt><trkpt lat="39.984132" lon="-6.270033"><ele>261.009</ele><time>2010-01-01T07:46:53Z</time></trkpt><trkpt lat="39.984465" lon="-6.269689"><ele>259.942</ele><time>2010-01-01T07:46:36Z</time></trkpt><trkpt lat="39.985727" lon="-6.269453"><ele>259.922</ele><time>2010-01-01T07:45:45Z</time></trkpt><trkpt lat="39.986360" lon="-6.269657"><ele>264.849</ele><time>2010-01-01T07:45:19Z</time></trkpt><trkpt lat="39.986516" lon="-6.269255"><ele>264.898</ele><time>2010-01-01T07:45:05Z</time></trkpt><trkpt lat="39.986327" lon="-6.268823"><ele>261.433</ele><time>2010-01-01T07:44:50Z</time></trkpt><trkpt lat="39.986319" lon="-6.268276"><ele>260.755</ele><time>2010-01-01T07:44:33Z</time></trkpt><trkpt lat="39.986607" lon="-6.267337"><ele>260.218</ele><time>2010-01-01T07:44:02Z</time></trkpt><trkpt lat="39.989904" lon="-6.264753"><ele>259.724</ele><time>2010-01-01T07:41:28Z</time></trkpt><trkpt lat="39.990665" lon="-6.264716"><ele>257.735</ele><time>2010-01-01T07:40:58Z</time></trkpt><trkpt lat="39.993552" lon="-6.265728"><ele>253.733</ele><time>2010-01-01T07:38:58Z</time></trkpt><trkpt lat="39.996161" lon="-6.264713"><ele>252.023</ele><time>2010-01-01T07:37:09Z</time></trkpt><trkpt lat="39.997974" lon="-6.262593"><ele>253.015</ele><time>2010-01-01T07:35:32Z</time></trkpt><trkpt lat="39.999051" lon="-6.260142"><ele>251.709</ele><time>2010-01-01T07:34:05Z</time></trkpt><trkpt lat="40.000785" lon="-6.257476"><ele>249.224</ele><time>2010-01-01T07:32:18Z</time></trkpt><trkpt lat="40.002741" lon="-6.253258"><ele>251.854</ele><time>2010-01-01T07:29:47Z</time></trkpt><trkpt lat="40.003119" lon="-6.249868"><ele>252.771</ele><time>2010-01-01T07:28:02Z</time></trkpt><trkpt lat="40.003999" lon="-6.248322"><ele>254.840</ele><time>2010-01-01T07:27:03Z</time></trkpt><trkpt lat="40.005486" lon="-6.247067"><ele>264.035</ele><time>2010-01-01T07:25:52Z</time></trkpt><trkpt lat="40.008232" lon="-6.242092"><ele>263.637</ele><time>2010-01-01T07:22:44Z</time></trkpt><trkpt lat="40.010279" lon="-6.240193"><ele>257.340</ele><time>2010-01-01T07:21:03Z</time></trkpt><trkpt lat="40.011002" lon="-6.239099"><ele>268.186</ele><time>2010-01-01T07:20:19Z</time></trkpt><trkpt lat="40.012197" lon="-6.238284"><ele>267.087</ele><time>2010-01-01T07:19:25Z</time></trkpt><trkpt lat="40.013298" lon="-6.235844"><ele>265.839</ele><time>2010-01-01T07:17:58Z</time></trkpt><trkpt lat="40.014379" lon="-6.234128"><ele>262.901</ele><time>2010-01-01T07:16:50Z</time></trkpt><trkpt lat="40.017513" lon="-6.230710"><ele>258.621</ele><time>2010-01-01T07:14:07Z</time></trkpt><trkpt lat="40.032580" lon="-6.217825"><ele>263.009</ele><time>2010-01-01T07:02:06Z</time></trkpt><trkpt lat="40.043351" lon="-6.212974"><ele>262.394</ele><time>2010-01-01T06:54:30Z</time></trkpt><trkpt lat="40.045509" lon="-6.212728"><ele>263.844</ele><time>2010-01-01T06:53:03Z</time></trkpt><trkpt lat="40.046496" lon="-6.211942"><ele>265.191</ele><time>2010-01-01T06:52:17Z</time></trkpt><trkpt lat="40.047450" lon="-6.211462"><ele>262.080</ele><time>2010-01-01T06:51:36Z</time></trkpt><trkpt lat="40.049330" lon="-6.212082"><ele>271.275</ele><time>2010-01-01T06:50:18Z</time></trkpt><trkpt lat="40.049450" lon="-6.211164"><ele>267.467</ele><time>2010-01-01T06:49:49Z</time></trkpt><trkpt lat="40.050977" lon="-6.212166"><ele>270.390</ele><time>2010-01-01T06:48:41Z</time></trkpt><trkpt lat="40.051628" lon="-6.210972"><ele>263.656</ele><time>2010-01-01T06:47:56Z</time></trkpt><trkpt lat="40.051866" lon="-6.209623"><ele>257.947</ele><time>2010-01-01T06:47:14Z</time></trkpt><trkpt lat="40.051788" lon="-6.208939"><ele>260.844</ele><time>2010-01-01T06:46:53Z</time></trkpt><trkpt lat="40.050957" lon="-6.207796"><ele>261.505</ele><time>2010-01-01T06:46:04Z</time></trkpt><trkpt lat="40.051648" lon="-6.206822"><ele>262.415</ele><time>2010-01-01T06:45:24Z</time></trkpt><trkpt lat="40.056531" lon="-6.206910"><ele>281.309</ele><time>2010-01-01T06:42:08Z</time></trkpt><trkpt lat="40.056930" lon="-6.207216"><ele>280.065</ele><time>2010-01-01T06:41:50Z</time></trkpt><trkpt lat="40.057086" lon="-6.207162"><ele>279.835</ele><time>2010-01-01T06:41:43Z</time></trkpt><trkpt lat="40.057521" lon="-6.206020"><ele>280.792</ele><time>2010-01-01T06:41:04Z</time></trkpt><trkpt lat="40.058573" lon="-6.205254"><ele>289.841</ele><time>2010-01-01T06:40:15Z</time></trkpt><trkpt lat="40.059374" lon="-6.205818"><ele>287.256</ele><time>2010-01-01T06:39:39Z</time></trkpt><trkpt lat="40.059878" lon="-6.205793"><ele>290.448</ele><time>2010-01-01T06:39:19Z</time></trkpt><trkpt lat="40.060428" lon="-6.205546"><ele>291.091</ele><time>2010-01-01T06:38:55Z</time></trkpt><trkpt lat="40.061109" lon="-6.204688"><ele>290.117</ele><time>2010-01-01T06:38:18Z</time></trkpt><trkpt lat="40.061717" lon="-6.204430"><ele>289.588</ele><time>2010-01-01T06:37:52Z</time></trkpt><trkpt lat="40.061889" lon="-6.204055"><ele>287.984</ele><time>2010-01-01T06:37:39Z</time></trkpt><trkpt lat="40.061971" lon="-6.203078"><ele>289.807</ele><time>2010-01-01T06:37:09Z</time></trkpt><trkpt lat="40.066150" lon="-6.201151"><ele>294.017</ele><time>2010-01-01T06:34:11Z</time></trkpt><trkpt lat="40.066310" lon="-6.200941"><ele>294.709</ele><time>2010-01-01T06:34:02Z</time></trkpt><trkpt lat="40.068349" lon="-6.199752"><ele>294.369</ele><time>2010-01-01T06:32:33Z</time></trkpt><trkpt lat="40.069094" lon="-6.199748"><ele>293.969</ele><time>2010-01-01T06:32:03Z</time></trkpt><trkpt lat="40.070014" lon="-6.199440"><ele>296.916</ele><time>2010-01-01T06:31:25Z</time></trkpt><trkpt lat="40.070952" lon="-6.197898"><ele>295.245</ele><time>2010-01-01T06:30:24Z</time></trkpt><trkpt lat="40.072541" lon="-6.196803"><ele>299.620</ele><time>2010-01-01T06:29:13Z</time></trkpt><trkpt lat="40.072399" lon="-6.195304"><ele>295.432</ele><time>2010-01-01T06:28:26Z</time></trkpt><trkpt lat="40.072898" lon="-6.194511"><ele>301.045</ele><time>2010-01-01T06:27:55Z</time></trkpt><trkpt lat="40.073341" lon="-6.194570"><ele>297.061</ele><time>2010-01-01T06:27:37Z</time></trkpt><trkpt lat="40.073501" lon="-6.194428"><ele>296.962</ele><time>2010-01-01T06:27:29Z</time></trkpt><trkpt lat="40.073726" lon="-6.193979"><ele>298.284</ele><time>2010-01-01T06:27:13Z</time></trkpt><trkpt lat="40.073604" lon="-6.193504"><ele>299.607</ele><time>2010-01-01T06:26:57Z</time></trkpt><trkpt lat="40.073707" lon="-6.193295"><ele>298.117</ele><time>2010-01-01T06:26:50Z</time></trkpt><trkpt lat="40.075197" lon="-6.192275"><ele>302.509</ele><time>2010-01-01T06:25:43Z</time></trkpt><trkpt lat="40.074011" lon="-6.190385"><ele>303.759</ele><time>2010-01-01T06:24:28Z</time></trkpt><trkpt lat="40.073695" lon="-6.189451"><ele>300.199</ele><time>2010-01-01T06:23:56Z</time></trkpt><trkpt lat="40.073886" lon="-6.187855"><ele>301.296</ele><time>2010-01-01T06:23:07Z</time></trkpt><trkpt lat="40.074395" lon="-6.186713"><ele>303.635</ele><time>2010-01-01T06:22:26Z</time></trkpt><trkpt lat="40.074334" lon="-6.185001"><ele>301.810</ele><time>2010-01-01T06:21:34Z</time></trkpt><trkpt lat="40.072724" lon="-6.183124"><ele>300.362</ele><time>2010-01-01T06:20:08Z</time></trkpt><trkpt lat="40.071568" lon="-6.181129"><ele>299.765</ele><time>2010-01-01T06:18:51Z</time></trkpt><trkpt lat="40.071108" lon="-6.179798"><ele>296.781</ele><time>2010-01-01T06:18:06Z</time></trkpt><trkpt lat="40.071303" lon="-6.179302"><ele>300.692</ele><time>2010-01-01T06:17:49Z</time></trkpt><trkpt lat="40.071201" lon="-6.178712"><ele>296.352</ele><time>2010-01-01T06:17:31Z</time></trkpt><trkpt lat="40.071496" lon="-6.178217"><ele>299.653</ele><time>2010-01-01T06:17:11Z</time></trkpt><trkpt lat="40.071521" lon="-6.177254"><ele>296.408</ele><time>2010-01-01T06:16:42Z</time></trkpt><trkpt lat="40.072345" lon="-6.176133"><ele>299.309</ele><time>2010-01-01T06:15:54Z</time></trkpt><trkpt lat="40.072279" lon="-6.174693"><ele>297.726</ele><time>2010-01-01T06:15:10Z</time></trkpt><trkpt lat="40.071119" lon="-6.173229"><ele>299.476</ele><time>2010-01-01T06:14:05Z</time></trkpt><trkpt lat="40.069990" lon="-6.173485"><ele>296.653</ele><time>2010-01-01T06:13:18Z</time></trkpt><trkpt lat="40.069651" lon="-6.172836"><ele>299.672</ele><time>2010-01-01T06:12:54Z</time></trkpt><trkpt lat="40.069319" lon="-6.172774"><ele>293.357</ele><time>2010-01-01T06:12:41Z</time></trkpt><trkpt lat="40.069210" lon="-6.172557"><ele>292.619</ele><time>2010-01-01T06:12:33Z</time></trkpt><trkpt lat="40.069247" lon="-6.171951"><ele>298.742</ele><time>2010-01-01T06:12:14Z</time></trkpt><trkpt lat="40.068956" lon="-6.171398"><ele>296.418</ele><time>2010-01-01T06:11:54Z</time></trkpt><trkpt lat="40.068835" lon="-6.169927"><ele>299.019</ele><time>2010-01-01T06:11:08Z</time></trkpt><trkpt lat="40.069196" lon="-6.169193"><ele>300.538</ele><time>2010-01-01T06:10:42Z</time></trkpt><trkpt lat="40.068827" lon="-6.168710"><ele>299.770</ele><time>2010-01-01T06:10:21Z</time></trkpt><trkpt lat="40.068745" lon="-6.168029"><ele>298.817</ele><time>2010-01-01T06:10:00Z</time></trkpt><trkpt lat="40.069123" lon="-6.167412"><ele>296.209</ele><time>2010-01-01T06:09:35Z</time></trkpt><trkpt lat="40.069657" lon="-6.167181"><ele>298.074</ele><time>2010-01-01T06:09:13Z</time></trkpt><trkpt lat="40.069821" lon="-6.166738"><ele>298.724</ele><time>2010-01-01T06:08:58Z</time></trkpt><trkpt lat="40.069647" lon="-6.166427"><ele>299.341</ele><time>2010-01-01T06:08:46Z</time></trkpt><trkpt lat="40.069013" lon="-6.166309"><ele>296.750</ele><time>2010-01-01T06:08:20Z</time></trkpt><trkpt lat="40.068715" lon="-6.166004"><ele>296.025</ele><time>2010-01-01T06:08:05Z</time></trkpt><trkpt lat="40.068678" lon="-6.165462"><ele>294.457</ele><time>2010-01-01T06:07:49Z</time></trkpt><trkpt lat="40.068926" lon="-6.164625"><ele>300.540</ele><time>2010-01-01T06:07:21Z</time></trkpt><trkpt lat="40.068592" lon="-6.163297"><ele>301.186</ele><time>2010-01-01T06:06:38Z</time></trkpt><trkpt lat="40.068553" lon="-6.162575"><ele>300.177</ele><time>2010-01-01T06:06:16Z</time></trkpt><trkpt lat="40.067900" lon="-6.159952"><ele>300.454</ele><time>2010-01-01T06:04:52Z</time></trkpt><trkpt lat="40.067205" lon="-6.158230"><ele>299.456</ele><time>2010-01-01T06:03:52Z</time></trkpt><trkpt lat="40.067340" lon="-6.157323"><ele>299.511</ele><time>2010-01-01T06:03:24Z</time></trkpt><trkpt lat="40.066905" lon="-6.155668"><ele>297.909</ele><time>2010-01-01T06:02:30Z</time></trkpt><trkpt lat="40.067065" lon="-6.154793"><ele>297.766</ele><time>2010-01-01T06:02:03Z</time></trkpt><trkpt lat="40.066971" lon="-6.153074"><ele>294.316</ele><time>2010-01-01T06:01:10Z</time></trkpt><trkpt lat="40.067061" lon="-6.152473"><ele>298.343</ele><time>2010-01-01T06:00:51Z</time></trkpt><trkpt lat="40.066882" lon="-6.151808"><ele>297.312</ele><time>2010-01-01T06:00:29Z</time></trkpt><trkpt lat="40.067038" lon="-6.150953"><ele>297.147</ele><time>2010-01-01T06:00:02Z</time></trkpt><trkpt lat="40.066884" lon="-6.150435"><ele>292.239</ele><time>2010-01-01T05:59:45Z</time></trkpt><trkpt lat="40.067133" lon="-6.149523"><ele>296.422</ele><time>2010-01-01T05:59:16Z</time></trkpt><trkpt lat="40.066722" lon="-6.147709"><ele>293.958</ele><time>2010-01-01T05:58:18Z</time></trkpt><trkpt lat="40.066948" lon="-6.147119"><ele>299.459</ele><time>2010-01-01T05:57:58Z</time></trkpt><trkpt lat="40.066689" lon="-6.146891"><ele>294.959</ele><time>2010-01-01T05:57:45Z</time></trkpt><trkpt lat="40.066644" lon="-6.146277"><ele>294.203</ele><time>2010-01-01T05:57:26Z</time></trkpt><trkpt lat="40.067219" lon="-6.144836"><ele>300.823</ele><time>2010-01-01T05:56:36Z</time></trkpt><trkpt lat="40.067262" lon="-6.144190"><ele>298.509</ele><time>2010-01-01T05:56:17Z</time></trkpt><trkpt lat="40.066740" lon="-6.143706"><ele>292.616</ele><time>2010-01-01T05:55:51Z</time></trkpt><trkpt lat="40.066627" lon="-6.142545"><ele>291.096</ele><time>2010-01-01T05:55:15Z</time></trkpt><trkpt lat="40.066897" lon="-6.141818"><ele>294.123</ele><time>2010-01-01T05:54:50Z</time></trkpt><trkpt lat="40.067521" lon="-6.140919"><ele>298.622</ele><time>2010-01-01T05:54:13Z</time></trkpt><trkpt lat="40.067778" lon="-6.139232"><ele>300.577</ele><time>2010-01-01T05:53:20Z</time></trkpt><trkpt lat="40.068742" lon="-6.137253"><ele>295.299</ele><time>2010-01-01T05:52:09Z</time></trkpt><trkpt lat="40.069254" lon="-6.137256"><ele>296.262</ele><time>2010-01-01T05:51:48Z</time></trkpt><trkpt lat="40.069707" lon="-6.137586"><ele>297.378</ele><time>2010-01-01T05:51:27Z</time></trkpt><trkpt lat="40.070852" lon="-6.137709"><ele>302.819</ele><time>2010-01-01T05:50:41Z</time></trkpt><trkpt lat="40.071761" lon="-6.137081"><ele>299.885</ele><time>2010-01-01T05:50:00Z</time></trkpt><trkpt lat="40.073444" lon="-6.137780"><ele>297.489</ele><time>2010-01-01T05:48:49Z</time></trkpt><trkpt lat="40.074764" lon="-6.136637"><ele>299.217</ele><time>2010-01-01T05:47:46Z</time></trkpt><trkpt lat="40.074641" lon="-6.135999"><ele>295.609</ele><time>2010-01-01T05:47:26Z</time></trkpt><trkpt lat="40.074935" lon="-6.135392"><ele>297.879</ele><time>2010-01-01T05:47:04Z</time></trkpt><trkpt lat="40.076122" lon="-6.135436"><ele>299.719</ele><time>2010-01-01T05:46:16Z</time></trkpt><trkpt lat="40.076563" lon="-6.134628"><ele>297.796</ele><time>2010-01-01T05:45:46Z</time></trkpt><trkpt lat="40.077513" lon="-6.134301"><ele>296.065</ele><time>2010-01-01T05:45:06Z</time></trkpt><trkpt lat="40.077773" lon="-6.134398"><ele>296.890</ele><time>2010-01-01T05:44:55Z</time></trkpt><trkpt lat="40.078013" lon="-6.134811"><ele>295.742</ele><time>2010-01-01T05:44:39Z</time></trkpt><trkpt lat="40.078699" lon="-6.134607"><ele>295.485</ele><time>2010-01-01T05:44:11Z</time></trkpt><trkpt lat="40.079124" lon="-6.135052"><ele>296.691</ele><time>2010-01-01T05:43:49Z</time></trkpt><trkpt lat="40.080900" lon="-6.134825"><ele>293.522</ele><time>2010-01-01T05:42:38Z</time></trkpt><trkpt lat="40.081436" lon="-6.135447"><ele>298.382</ele><time>2010-01-01T05:42:09Z</time></trkpt><trkpt lat="40.081594" lon="-6.135415"><ele>298.443</ele><time>2010-01-01T05:42:03Z</time></trkpt><trkpt lat="40.081855" lon="-6.134997"><ele>295.717</ele><time>2010-01-01T05:41:46Z</time></trkpt><trkpt lat="40.082179" lon="-6.134983"><ele>295.809</ele><time>2010-01-01T05:41:33Z</time></trkpt><trkpt lat="40.082491" lon="-6.135230"><ele>296.799</ele><time>2010-01-01T05:41:19Z</time></trkpt><trkpt lat="40.082846" lon="-6.135976"><ele>298.389</ele><time>2010-01-01T05:40:52Z</time></trkpt><trkpt lat="40.083077" lon="-6.136104"><ele>297.056</ele><time>2010-01-01T05:40:42Z</time></trkpt><trkpt lat="40.083569" lon="-6.135377"><ele>296.825</ele><time>2010-01-01T05:40:12Z</time></trkpt><trkpt lat="40.084739" lon="-6.135614"><ele>297.140</ele><time>2010-01-01T05:39:25Z</time></trkpt><trkpt lat="40.085715" lon="-6.135324"><ele>293.222</ele><time>2010-01-01T05:38:45Z</time></trkpt><trkpt lat="40.087466" lon="-6.135626"><ele>295.655</ele><time>2010-01-01T05:37:34Z</time></trkpt><trkpt lat="40.088351" lon="-6.135452"><ele>298.541</ele><time>2010-01-01T05:36:58Z</time></trkpt><trkpt lat="40.088961" lon="-6.135747"><ele>297.192</ele><time>2010-01-01T05:36:32Z</time></trkpt><trkpt lat="40.089287" lon="-6.136136"><ele>297.767</ele><time>2010-01-01T05:36:14Z</time></trkpt><trkpt lat="40.089829" lon="-6.136335"><ele>295.381</ele><time>2010-01-01T05:35:52Z</time></trkpt><trkpt lat="40.090288" lon="-6.136756"><ele>292.319</ele><time>2010-01-01T05:35:29Z</time></trkpt><trkpt lat="40.090512" lon="-6.136772"><ele>293.409</ele><time>2010-01-01T05:35:21Z</time></trkpt><trkpt lat="40.091107" lon="-6.136343"><ele>293.527</ele><time>2010-01-01T05:34:53Z</time></trkpt><trkpt lat="40.092061" lon="-6.136665"><ele>295.457</ele><time>2010-01-01T05:34:14Z</time></trkpt><trkpt lat="40.092688" lon="-6.136183"><ele>297.134</ele><time>2010-01-01T05:33:45Z</time></trkpt><trkpt lat="40.092756" lon="-6.134954"><ele>297.613</ele><time>2010-01-01T05:33:07Z</time></trkpt><trkpt lat="40.092440" lon="-6.134612"><ele>298.938</ele><time>2010-01-01T05:32:51Z</time></trkpt><trkpt lat="40.091446" lon="-6.134206"><ele>294.020</ele><time>2010-01-01T05:32:09Z</time></trkpt><trkpt lat="40.091060" lon="-6.133372"><ele>292.153</ele><time>2010-01-01T05:31:39Z</time></trkpt><trkpt lat="40.091252" lon="-6.132687"><ele>296.049</ele><time>2010-01-01T05:31:17Z</time></trkpt><trkpt lat="40.090627" lon="-6.130639"><ele>294.570</ele><time>2010-01-01T05:30:09Z</time></trkpt><trkpt lat="40.090582" lon="-6.129896"><ele>293.981</ele><time>2010-01-01T05:29:46Z</time></trkpt><trkpt lat="40.090716" lon="-6.129236"><ele>296.561</ele><time>2010-01-01T05:29:25Z</time></trkpt><trkpt lat="40.090554" lon="-6.127132"><ele>294.017</ele><time>2010-01-01T05:28:21Z</time></trkpt><trkpt lat="40.090761" lon="-6.126228"><ele>296.009</ele><time>2010-01-01T05:27:52Z</time></trkpt><trkpt lat="40.090637" lon="-6.125331"><ele>293.989</ele><time>2010-01-01T05:27:24Z</time></trkpt><trkpt lat="40.090912" lon="-6.124024"><ele>293.289</ele><time>2010-01-01T05:26:42Z</time></trkpt><trkpt lat="40.090953" lon="-6.122820"><ele>292.176</ele><time>2010-01-01T05:26:05Z</time></trkpt><trkpt lat="40.091125" lon="-6.122420"><ele>294.135</ele><time>2010-01-01T05:25:51Z</time></trkpt><trkpt lat="40.091657" lon="-6.122142"><ele>296.920</ele><time>2010-01-01T05:25:28Z</time></trkpt><trkpt lat="40.091866" lon="-6.121410"><ele>294.932</ele><time>2010-01-01T05:25:05Z</time></trkpt><trkpt lat="40.092721" lon="-6.121112"><ele>295.845</ele><time>2010-01-01T05:24:29Z</time></trkpt><trkpt lat="40.093158" lon="-6.120680"><ele>292.931</ele><time>2010-01-01T05:24:07Z</time></trkpt><trkpt lat="40.093874" lon="-6.121048"><ele>295.912</ele><time>2010-01-01T05:23:36Z</time></trkpt><trkpt lat="40.094239" lon="-6.121002"><ele>296.274</ele><time>2010-01-01T05:23:22Z</time></trkpt><trkpt lat="40.094656" lon="-6.119192"><ele>292.356</ele><time>2010-01-01T05:22:24Z</time></trkpt><trkpt lat="40.096069" lon="-6.117636"><ele>297.421</ele><time>2010-01-01T05:21:10Z</time></trkpt><trkpt lat="40.096120" lon="-6.116952"><ele>297.109</ele><time>2010-01-01T05:20:49Z</time></trkpt><trkpt lat="40.095779" lon="-6.116134"><ele>293.618</ele><time>2010-01-01T05:20:20Z</time></trkpt><trkpt lat="40.096149" lon="-6.115338"><ele>298.568</ele><time>2010-01-01T05:19:52Z</time></trkpt><trkpt lat="40.095915" lon="-6.114737"><ele>299.145</ele><time>2010-01-01T05:19:31Z</time></trkpt><trkpt lat="40.095311" lon="-6.114187"><ele>295.234</ele><time>2010-01-01T05:19:02Z</time></trkpt><trkpt lat="40.095143" lon="-6.112232"><ele>297.049</ele><time>2010-01-01T05:18:01Z</time></trkpt><trkpt lat="40.094920" lon="-6.112087"><ele>296.541</ele><time>2010-01-01T05:17:51Z</time></trkpt><trkpt lat="40.094539" lon="-6.112290"><ele>294.554</ele><time>2010-01-01T05:17:35Z</time></trkpt><trkpt lat="40.094149" lon="-6.112156"><ele>291.720</ele><time>2010-01-01T05:17:19Z</time></trkpt><trkpt lat="40.093998" lon="-6.111913"><ele>293.051</ele><time>2010-01-01T05:17:09Z</time></trkpt><trkpt lat="40.093979" lon="-6.110923"><ele>296.543</ele><time>2010-01-01T05:16:39Z</time></trkpt><trkpt lat="40.093578" lon="-6.110818"><ele>297.264</ele><time>2010-01-01T05:16:21Z</time></trkpt><trkpt lat="40.093210" lon="-6.111714"><ele>295.610</ele><time>2010-01-01T05:15:50Z</time></trkpt><trkpt lat="40.092392" lon="-6.112233"><ele>293.009</ele><time>2010-01-01T05:15:14Z</time></trkpt><trkpt lat="40.092007" lon="-6.112973"><ele>293.695</ele><time>2010-01-01T05:14:46Z</time></trkpt><trkpt lat="40.092089" lon="-6.113679"><ele>291.065</ele><time>2010-01-01T05:14:24Z</time></trkpt><trkpt lat="40.091663" lon="-6.114858"><ele>292.052</ele><time>2010-01-01T05:13:44Z</time></trkpt><trkpt lat="40.090013" lon="-6.115215"><ele>295.741</ele><time>2010-01-01T05:12:36Z</time></trkpt><trkpt lat="40.089550" lon="-6.114885"><ele>296.646</ele><time>2010-01-01T05:12:15Z</time></trkpt><trkpt lat="40.089394" lon="-6.114923"><ele>296.518</ele><time>2010-01-01T05:12:09Z</time></trkpt><trkpt lat="40.089324" lon="-6.115226"><ele>295.581</ele><time>2010-01-01T05:11:59Z</time></trkpt><trkpt lat="40.089504" lon="-6.115948"><ele>292.627</ele><time>2010-01-01T05:11:36Z</time></trkpt><trkpt lat="40.089022" lon="-6.117316"><ele>292.238</ele><time>2010-01-01T05:10:50Z</time></trkpt><trkpt lat="40.088059" lon="-6.117978"><ele>294.597</ele><time>2010-01-01T05:10:06Z</time></trkpt><trkpt lat="40.087899" lon="-6.119391"><ele>291.423</ele><time>2010-01-01T05:09:23Z</time></trkpt><trkpt lat="40.087103" lon="-6.119718"><ele>292.525</ele><time>2010-01-01T05:08:49Z</time></trkpt><trkpt lat="40.086885" lon="-6.120400"><ele>293.109</ele><time>2010-01-01T05:08:27Z</time></trkpt><trkpt lat="40.086710" lon="-6.120513"><ele>293.170</ele><time>2010-01-01T05:08:19Z</time></trkpt><trkpt lat="40.085910" lon="-6.120234"><ele>295.030</ele><time>2010-01-01T05:07:46Z</time></trkpt><trkpt lat="40.084892" lon="-6.119180"><ele>295.837</ele><time>2010-01-01T05:06:54Z</time></trkpt><trkpt lat="40.083821" lon="-6.118918"><ele>293.256</ele><time>2010-01-01T05:06:10Z</time></trkpt><trkpt lat="40.083237" lon="-6.118346"><ele>295.291</ele><time>2010-01-01T05:05:41Z</time></trkpt><trkpt lat="40.083321" lon="-6.117493"><ele>295.033</ele><time>2010-01-01T05:05:15Z</time></trkpt><trkpt lat="40.083077" lon="-6.116433"><ele>294.486</ele><time>2010-01-01T05:04:41Z</time></trkpt><trkpt lat="40.083396" lon="-6.115463"><ele>293.912</ele><time>2010-01-01T05:04:08Z</time></trkpt><trkpt lat="40.085138" lon="-6.115037"><ele>296.523</ele><time>2010-01-01T05:02:55Z</time></trkpt><trkpt lat="40.085462" lon="-6.114686"><ele>297.325</ele><time>2010-01-01T05:02:38Z</time></trkpt><trkpt lat="40.085429" lon="-6.114536"><ele>296.826</ele><time>2010-01-01T05:02:33Z</time></trkpt><trkpt lat="40.084943" lon="-6.114353"><ele>292.008</ele><time>2010-01-01T05:02:13Z</time></trkpt><trkpt lat="40.084826" lon="-6.114155"><ele>292.109</ele><time>2010-01-01T05:02:05Z</time></trkpt><trkpt lat="40.084892" lon="-6.113595"><ele>291.153</ele><time>2010-01-01T05:01:48Z</time></trkpt><trkpt lat="40.086790" lon="-6.113085"><ele>296.143</ele><time>2010-01-01T05:00:30Z</time></trkpt><trkpt lat="40.086805" lon="-6.112809"><ele>295.650</ele><time>2010-01-01T05:00:22Z</time></trkpt><trkpt lat="40.085982" lon="-6.112050"><ele>292.419</ele><time>2010-01-01T04:59:41Z</time></trkpt><trkpt lat="40.085931" lon="-6.111760"><ele>292.644</ele><time>2010-01-01T04:59:32Z</time></trkpt><trkpt lat="40.086171" lon="-6.111280"><ele>295.166</ele><time>2010-01-01T04:59:15Z</time></trkpt><trkpt lat="40.086893" lon="-6.110462"><ele>293.949</ele><time>2010-01-01T04:58:37Z</time></trkpt><trkpt lat="40.087189" lon="-6.109607"><ele>293.445</ele><time>2010-01-01T04:58:08Z</time></trkpt><trkpt lat="40.087648" lon="-6.109213"><ele>294.046</ele><time>2010-01-01T04:57:46Z</time></trkpt><trkpt lat="40.088363" lon="-6.108961"><ele>295.713</ele><time>2010-01-01T04:57:16Z</time></trkpt><trkpt lat="40.088412" lon="-6.108564"><ele>295.143</ele><time>2010-01-01T04:57:04Z</time></trkpt><trkpt lat="40.087867" lon="-6.108276"><ele>292.907</ele><time>2010-01-01T04:56:40Z</time></trkpt><trkpt lat="40.087687" lon="-6.107806"><ele>292.009</ele><time>2010-01-01T04:56:24Z</time></trkpt><trkpt lat="40.088598" lon="-6.105386"><ele>294.532</ele><time>2010-01-01T04:55:02Z</time></trkpt><trkpt lat="40.089191" lon="-6.105146"><ele>295.892</ele><time>2010-01-01T04:54:37Z</time></trkpt><trkpt lat="40.090057" lon="-6.104129"><ele>294.039</ele><time>2010-01-01T04:53:50Z</time></trkpt><trkpt lat="40.090645" lon="-6.103812"><ele>293.558</ele><time>2010-01-01T04:53:25Z</time></trkpt><trkpt lat="40.091046" lon="-6.104048"><ele>290.663</ele><time>2010-01-01T04:53:07Z</time></trkpt><trkpt lat="40.091624" lon="-6.104869"><ele>293.015</ele><time>2010-01-01T04:52:33Z</time></trkpt><trkpt lat="40.092067" lon="-6.104675"><ele>293.168</ele><time>2010-01-01T04:52:14Z</time></trkpt><trkpt lat="40.093134" lon="-6.104844"><ele>293.074</ele><time>2010-01-01T04:51:31Z</time></trkpt><trkpt lat="40.093268" lon="-6.104134"><ele>293.695</ele><time>2010-01-01T04:51:09Z</time></trkpt><trkpt lat="40.093537" lon="-6.103640"><ele>294.359</ele><time>2010-01-01T04:50:50Z</time></trkpt><trkpt lat="40.093231" lon="-6.102718"><ele>294.303</ele><time>2010-01-01T04:50:19Z</time></trkpt><trkpt lat="40.092411" lon="-6.102412"><ele>293.023</ele><time>2010-01-01T04:49:45Z</time></trkpt><trkpt lat="40.091889" lon="-6.101428"><ele>292.409</ele><time>2010-01-01T04:49:08Z</time></trkpt><trkpt lat="40.092771" lon="-6.100216"><ele>296.716</ele><time>2010-01-01T04:48:17Z</time></trkpt><trkpt lat="40.093140" lon="-6.099319"><ele>298.146</ele><time>2010-01-01T04:47:46Z</time></trkpt><trkpt lat="40.092759" lon="-6.096659"><ele>296.793</ele><time>2010-01-01T04:46:23Z</time></trkpt><trkpt lat="40.092345" lon="-6.095726"><ele>296.072</ele><time>2010-01-01T04:45:50Z</time></trkpt><trkpt lat="40.092402" lon="-6.093094"><ele>299.627</ele><time>2010-01-01T04:44:29Z</time></trkpt><trkpt lat="40.092092" lon="-6.092609"><ele>293.699</ele><time>2010-01-01T04:44:10Z</time></trkpt><trkpt lat="40.091546" lon="-6.092153"><ele>291.732</ele><time>2010-01-01T04:43:44Z</time></trkpt><trkpt lat="40.090487" lon="-6.092303"><ele>294.218</ele><time>2010-01-01T04:43:01Z</time></trkpt><trkpt lat="40.090243" lon="-6.090165"><ele>299.589</ele><time>2010-01-01T04:41:55Z</time></trkpt><trkpt lat="40.089736" lon="-6.089046"><ele>311.845</ele><time>2010-01-01T04:41:15Z</time></trkpt><trkpt lat="40.089774" lon="-6.087767"><ele>311.047</ele><time>2010-01-01T04:40:36Z</time></trkpt><trkpt lat="40.090095" lon="-6.087589"><ele>312.511</ele><time>2010-01-01T04:40:22Z</time></trkpt><trkpt lat="40.090269" lon="-6.087101"><ele>317.809</ele><time>2010-01-01T04:40:06Z</time></trkpt><trkpt lat="40.091170" lon="-6.086264"><ele>313.635</ele><time>2010-01-01T04:39:21Z</time></trkpt><trkpt lat="40.092091" lon="-6.086036"><ele>308.035</ele><time>2010-01-01T04:38:44Z</time></trkpt><trkpt lat="40.092233" lon="-6.085693"><ele>309.042</ele><time>2010-01-01T04:38:32Z</time></trkpt><trkpt lat="40.093614" lon="-6.084413"><ele>306.841</ele><time>2010-01-01T04:37:24Z</time></trkpt><trkpt lat="40.095163" lon="-6.083553"><ele>318.896</ele><time>2010-01-01T04:36:17Z</time></trkpt><trkpt lat="40.096505" lon="-6.082072"><ele>333.268</ele><time>2010-01-01T04:35:06Z</time></trkpt><trkpt lat="40.097444" lon="-6.081788"><ele>338.381</ele><time>2010-01-01T04:34:28Z</time></trkpt><trkpt lat="40.099087" lon="-6.081793"><ele>336.777</ele><time>2010-01-01T04:33:22Z</time></trkpt><trkpt lat="40.100650" lon="-6.081209"><ele>344.748</ele><time>2010-01-01T04:32:17Z</time></trkpt><trkpt lat="40.101884" lon="-6.081259"><ele>351.837</ele><time>2010-01-01T04:31:28Z</time></trkpt><trkpt lat="40.104726" lon="-6.082957"><ele>366.049</ele><time>2010-01-01T04:29:22Z</time></trkpt><trkpt lat="40.105444" lon="-6.083080"><ele>367.513</ele><time>2010-01-01T04:28:54Z</time></trkpt><trkpt lat="40.106494" lon="-6.082952"><ele>370.209</ele><time>2010-01-01T04:28:11Z</time></trkpt><trkpt lat="40.107977" lon="-6.083479"><ele>381.444</ele><time>2010-01-01T04:27:10Z</time></trkpt><trkpt lat="40.110447" lon="-6.085625"><ele>393.034</ele><time>2010-01-01T04:25:11Z</time></trkpt><trkpt lat="40.111247" lon="-6.086081"><ele>401.571</ele><time>2010-01-01T04:24:36Z</time></trkpt><trkpt lat="40.112166" lon="-6.086290"><ele>408.070</ele><time>2010-01-01T04:23:59Z</time></trkpt><trkpt lat="40.112379" lon="-6.086682"><ele>409.645</ele><time>2010-01-01T04:23:44Z</time></trkpt><trkpt lat="40.112810" lon="-6.086881"><ele>411.267</ele><time>2010-01-01T04:23:26Z</time></trkpt><trkpt lat="40.113232" lon="-6.088624"><ele>417.360</ele><time>2010-01-01T04:22:30Z</time></trkpt><trkpt lat="40.113511" lon="-6.089247"><ele>421.396</ele><time>2010-01-01T04:22:08Z</time></trkpt><trkpt lat="40.114166" lon="-6.088348"><ele>424.037</ele><time>2010-01-01T04:21:30Z</time></trkpt><trkpt lat="40.114863" lon="-6.088614"><ele>427.546</ele><time>2010-01-01T04:21:01Z</time></trkpt><trkpt lat="40.118250" lon="-6.089159"><ele>429.388</ele><time>2010-01-01T04:18:44Z</time></trkpt><trkpt lat="40.118891" lon="-6.089501"><ele>428.016</ele><time>2010-01-01T04:18:16Z</time></trkpt><trkpt lat="40.119986" lon="-6.090505"><ele>429.409</ele><time>2010-01-01T04:17:23Z</time></trkpt><trkpt lat="40.122039" lon="-6.093284"><ele>426.535</ele><time>2010-01-01T04:15:24Z</time></trkpt><trkpt lat="40.124193" lon="-6.094805"><ele>430.995</ele><time>2010-01-01T04:13:46Z</time></trkpt><trkpt lat="40.125757" lon="-6.094709"><ele>432.092</ele><time>2010-01-01T04:12:44Z</time></trkpt><trkpt lat="40.127181" lon="-6.095410"><ele>429.821</ele><time>2010-01-01T04:11:43Z</time></trkpt><trkpt lat="40.127872" lon="-6.095502"><ele>426.546</ele><time>2010-01-01T04:11:15Z</time></trkpt><trkpt lat="40.128533" lon="-6.096021"><ele>426.038</ele><time>2010-01-01T04:10:44Z</time></trkpt><trkpt lat="40.129403" lon="-6.096372"><ele>424.031</ele><time>2010-01-01T04:10:08Z</time></trkpt><trkpt lat="40.132328" lon="-6.096721"><ele>420.237</ele><time>2010-01-01T04:08:10Z</time></trkpt><trkpt lat="40.133002" lon="-6.097106"><ele>420.328</ele><time>2010-01-01T04:07:40Z</time></trkpt><trkpt lat="40.135899" lon="-6.097443"><ele>415.443</ele><time>2010-01-01T04:05:44Z</time></trkpt><trkpt lat="40.137168" lon="-6.097718"><ele>411.264</ele><time>2010-01-01T04:04:52Z</time></trkpt><trkpt lat="40.137976" lon="-6.098222"><ele>406.410</ele><time>2010-01-01T04:04:16Z</time></trkpt><trkpt lat="40.138768" lon="-6.098485"><ele>408.509</ele><time>2010-01-01T04:03:44Z</time></trkpt><trkpt lat="40.140119" lon="-6.098579"><ele>408.915</ele><time>2010-01-01T04:02:49Z</time></trkpt><trkpt lat="40.142281" lon="-6.099504"><ele>407.035</ele><time>2010-01-01T04:01:18Z</time></trkpt><trkpt lat="40.142900" lon="-6.100030"><ele>406.222</ele><time>2010-01-01T04:00:49Z</time></trkpt><trkpt lat="40.143945" lon="-6.100266"><ele>406.091</ele><time>2010-01-01T04:00:06Z</time></trkpt><trkpt lat="40.146522" lon="-6.101390"><ele>405.546</ele><time>2010-01-01T03:58:18Z</time></trkpt><trkpt lat="40.149515" lon="-6.101366"><ele>409.418</ele><time>2010-01-01T03:56:18Z</time></trkpt><trkpt lat="40.150903" lon="-6.100676"><ele>411.091</ele><time>2010-01-01T03:55:18Z</time></trkpt><trkpt lat="40.151753" lon="-6.099855"><ele>409.097</ele><time>2010-01-01T03:54:36Z</time></trkpt><trkpt lat="40.152432" lon="-6.099667"><ele>406.428</ele><time>2010-01-01T03:54:08Z</time></trkpt><trkpt lat="40.154308" lon="-6.098638"><ele>400.547</ele><time>2010-01-01T03:52:47Z</time></trkpt><trkpt lat="40.155249" lon="-6.098356"><ele>396.229</ele><time>2010-01-01T03:52:08Z</time></trkpt><trkpt lat="40.156798" lon="-6.098592"><ele>398.921</ele><time>2010-01-01T03:51:06Z</time></trkpt><trkpt lat="40.159370" lon="-6.099874"><ele>403.309</ele><time>2010-01-01T03:49:16Z</time></trkpt><trkpt lat="40.161405" lon="-6.101271"><ele>404.655</ele><time>2010-01-01T03:47:44Z</time></trkpt><trkpt lat="40.162519" lon="-6.103079"><ele>405.055</ele><time>2010-01-01T03:46:33Z</time></trkpt><trkpt lat="40.163969" lon="-6.099599"><ele>404.392</ele><time>2010-01-01T03:44:31Z</time></trkpt><trkpt lat="40.164082" lon="-6.098751"><ele>405.431</ele><time>2010-01-01T03:44:05Z</time></trkpt><trkpt lat="40.162839" lon="-6.097848"><ele>400.566</ele><time>2010-01-01T03:43:08Z</time></trkpt><trkpt lat="40.159334" lon="-6.088788"><ele>391.828</ele><time>2010-01-01T03:37:57Z</time></trkpt><trkpt lat="40.159033" lon="-6.087394"><ele>390.091</ele><time>2010-01-01T03:37:13Z</time></trkpt><trkpt lat="40.162940" lon="-6.085193"><ele>390.997</ele><time>2010-01-01T03:34:23Z</time></trkpt><trkpt lat="40.163566" lon="-6.084627"><ele>391.178</ele><time>2010-01-01T03:33:52Z</time></trkpt><trkpt lat="40.164696" lon="-6.082390"><ele>388.073</ele><time>2010-01-01T03:32:30Z</time></trkpt><trkpt lat="40.165331" lon="-6.079440"><ele>387.085</ele><time>2010-01-01T03:30:56Z</time></trkpt><trkpt lat="40.165378" lon="-6.077974"><ele>383.013</ele><time>2010-01-01T03:30:12Z</time></trkpt><trkpt lat="40.165033" lon="-6.072266"><ele>380.109</ele><time>2010-01-01T03:27:16Z</time></trkpt><trkpt lat="40.163447" lon="-6.062711"><ele>387.298</ele><time>2010-01-01T03:22:17Z</time></trkpt><trkpt lat="40.163490" lon="-6.061394"><ele>386.028</ele><time>2010-01-01T03:21:37Z</time></trkpt><trkpt lat="40.166431" lon="-6.057987"><ele>394.055</ele><time>2010-01-01T03:19:00Z</time></trkpt><trkpt lat="40.177556" lon="-6.051617"><ele>370.154</ele><time>2010-01-01T03:10:54Z</time></trkpt><trkpt lat="40.180371" lon="-6.048499"><ele>380.719</ele><time>2010-01-01T03:08:26Z</time></trkpt><trkpt lat="40.187290" lon="-6.045901"><ele>386.061</ele><time>2010-01-01T03:03:38Z</time></trkpt><trkpt lat="40.187833" lon="-6.045506"><ele>385.224</ele><time>2010-01-01T03:03:13Z</time></trkpt><trkpt lat="40.192802" lon="-6.036296"><ele>385.070</ele><time>2010-01-01T02:57:28Z</time></trkpt><trkpt lat="40.196274" lon="-6.029529"><ele>392.791</ele><time>2010-01-01T02:53:19Z</time></trkpt><trkpt lat="40.200791" lon="-6.021770"><ele>388.296</ele><time>2010-01-01T02:48:21Z</time></trkpt><trkpt lat="40.205921" lon="-6.011026"><ele>386.331</ele><time>2010-01-01T02:41:53Z</time></trkpt><trkpt lat="40.208398" lon="-6.006383"><ele>387.824</ele><time>2010-01-01T02:39:00Z</time></trkpt><trkpt lat="40.208562" lon="-6.004630"><ele>393.609</ele><time>2010-01-01T02:38:06Z</time></trkpt><trkpt lat="40.208750" lon="-6.004106"><ele>391.040</ele><time>2010-01-01T02:37:48Z</time></trkpt><trkpt lat="40.209799" lon="-6.002359"><ele>388.980</ele><time>2010-01-01T02:36:41Z</time></trkpt><trkpt lat="40.210936" lon="-5.999882"><ele>390.887</ele><time>2010-01-01T02:35:12Z</time></trkpt><trkpt lat="40.211184" lon="-5.999638"><ele>390.886</ele><time>2010-01-01T02:35:00Z</time></trkpt><trkpt lat="40.213396" lon="-5.995259"><ele>396.181</ele><time>2010-01-01T02:32:19Z</time></trkpt><trkpt lat="40.218905" lon="-5.987062"><ele>401.583</ele><time>2010-01-01T02:26:45Z</time></trkpt><trkpt lat="40.220656" lon="-5.984790"><ele>399.636</ele><time>2010-01-01T02:25:07Z</time></trkpt><trkpt lat="40.221239" lon="-5.984441"><ele>399.072</ele><time>2010-01-01T02:24:41Z</time></trkpt><trkpt lat="40.222503" lon="-5.983161"><ele>400.633</ele><time>2010-01-01T02:23:37Z</time></trkpt><trkpt lat="40.222673" lon="-5.982507"><ele>401.444</ele><time>2010-01-01T02:23:16Z</time></trkpt><trkpt lat="40.222536" lon="-5.982072"><ele>401.905</ele><time>2010-01-01T02:23:02Z</time></trkpt><trkpt lat="40.222233" lon="-5.981787"><ele>402.615</ele><time>2010-01-01T02:22:47Z</time></trkpt><trkpt lat="40.220832" lon="-5.982208"><ele>404.109</ele><time>2010-01-01T02:21:49Z</time></trkpt><trkpt lat="40.220711" lon="-5.982055"><ele>405.295</ele><time>2010-01-01T02:21:42Z</time></trkpt><trkpt lat="40.222059" lon="-5.981457"><ele>403.025</ele><time>2010-01-01T02:20:46Z</time></trkpt><trkpt lat="40.225646" lon="-5.980394"><ele>407.922</ele><time>2010-01-01T02:18:18Z</time></trkpt><trkpt lat="40.232996" lon="-5.975710"><ele>424.461</ele><time>2010-01-01T02:12:51Z</time></trkpt><trkpt lat="40.234147" lon="-5.975632"><ele>424.786</ele><time>2010-01-01T02:12:05Z</time></trkpt><trkpt lat="40.234646" lon="-5.975822"><ele>423.328</ele><time>2010-01-01T02:11:44Z</time></trkpt><trkpt lat="40.234912" lon="-5.976182"><ele>422.231</ele><time>2010-01-01T02:11:28Z</time></trkpt><trkpt lat="40.235103" lon="-5.976157"><ele>422.347</ele><time>2010-01-01T02:11:21Z</time></trkpt><trkpt lat="40.235320" lon="-5.975833"><ele>423.068</ele><time>2010-01-01T02:11:08Z</time></trkpt><trkpt lat="40.236361" lon="-5.975094"><ele>424.137</ele><time>2010-01-01T02:10:20Z</time></trkpt><trkpt lat="40.237281" lon="-5.973965"><ele>425.749</ele><time>2010-01-01T02:09:30Z</time></trkpt><trkpt lat="40.237914" lon="-5.972715"><ele>429.613</ele><time>2010-01-01T02:08:44Z</time></trkpt><trkpt lat="40.242288" lon="-5.961980"><ele>447.409</ele><time>2010-01-01T02:02:32Z</time></trkpt><trkpt lat="40.244208" lon="-5.959930"><ele>455.484</ele><time>2010-01-01T02:00:53Z</time></trkpt><trkpt lat="40.246223" lon="-5.955113"><ele>476.644</ele><time>2010-01-01T01:58:05Z</time></trkpt><trkpt lat="40.249996" lon="-5.950642"><ele>490.711</ele><time>2010-01-01T01:54:41Z</time></trkpt><trkpt lat="40.252506" lon="-5.945729"><ele>503.460</ele><time>2010-01-01T01:51:41Z</time></trkpt><trkpt lat="40.253554" lon="-5.942467"><ele>515.155</ele><time>2010-01-01T01:49:53Z</time></trkpt><trkpt lat="40.257259" lon="-5.936362"><ele>529.797</ele><time>2010-01-01T01:45:54Z</time></trkpt><trkpt lat="40.256493" lon="-5.935590"><ele>534.510</ele><time>2010-01-01T01:45:16Z</time></trkpt><trkpt lat="40.259125" lon="-5.929152"><ele>522.546</ele><time>2010-01-01T01:41:33Z</time></trkpt><trkpt lat="40.260105" lon="-5.927340"><ele>524.077</ele><time>2010-01-01T01:40:25Z</time></trkpt><trkpt lat="40.260704" lon="-5.923878"><ele>525.573</ele><time>2010-01-01T01:38:36Z</time></trkpt><trkpt lat="40.261661" lon="-5.922936"><ele>522.585</ele><time>2010-01-01T01:37:48Z</time></trkpt><trkpt lat="40.264057" lon="-5.917098"><ele>539.013</ele><time>2010-01-01T01:34:26Z</time></trkpt><trkpt lat="40.264376" lon="-5.916862"><ele>538.009</ele><time>2010-01-01T01:34:11Z</time></trkpt><trkpt lat="40.264333" lon="-5.916562"><ele>539.498</ele><time>2010-01-01T01:34:02Z</time></trkpt><trkpt lat="40.264110" lon="-5.916382"><ele>540.868</ele><time>2010-01-01T01:33:51Z</time></trkpt><trkpt lat="40.263631" lon="-5.914335"><ele>546.435</ele><time>2010-01-01T01:32:46Z</time></trkpt><trkpt lat="40.263878" lon="-5.914149"><ele>546.114</ele><time>2010-01-01T01:32:35Z</time></trkpt><trkpt lat="40.264722" lon="-5.914126"><ele>543.179</ele><time>2010-01-01T01:32:01Z</time></trkpt><trkpt lat="40.265113" lon="-5.913848"><ele>542.741</ele><time>2010-01-01T01:31:43Z</time></trkpt><trkpt lat="40.265898" lon="-5.912579"><ele>541.234</ele><time>2010-01-01T01:30:53Z</time></trkpt><trkpt lat="40.266682" lon="-5.911624"><ele>542.280</ele><time>2010-01-01T01:30:10Z</time></trkpt><trkpt lat="40.267225" lon="-5.910530"><ele>545.061</ele><time>2010-01-01T01:29:30Z</time></trkpt><trkpt lat="40.267129" lon="-5.910267"><ele>545.466</ele><time>2010-01-01T01:29:22Z</time></trkpt><trkpt lat="40.267528" lon="-5.905063"><ele>553.629</ele><time>2010-01-01T01:26:42Z</time></trkpt><trkpt lat="40.268140" lon="-5.902194"><ele>564.121</ele><time>2010-01-01T01:25:11Z</time></trkpt><trkpt lat="40.269273" lon="-5.891817"><ele>587.009</ele><time>2010-01-01T01:19:51Z</time></trkpt><trkpt lat="40.269518" lon="-5.891082"><ele>582.377</ele><time>2010-01-01T01:19:26Z</time></trkpt><trkpt lat="40.270457" lon="-5.889818"><ele>586.067</ele><time>2010-01-01T01:18:32Z</time></trkpt><trkpt lat="40.270579" lon="-5.889085"><ele>590.474</ele><time>2010-01-01T01:18:09Z</time></trkpt><trkpt lat="40.269083" lon="-5.877642"><ele>617.893</ele><time>2010-01-01T01:12:15Z</time></trkpt><trkpt lat="40.269214" lon="-5.876993"><ele>619.738</ele><time>2010-01-01T01:11:54Z</time></trkpt><trkpt lat="40.270103" lon="-5.874825"><ele>621.360</ele><time>2010-01-01T01:10:39Z</time></trkpt><trkpt lat="40.270675" lon="-5.871384"><ele>645.023</ele><time>2010-01-01T01:08:51Z</time></trkpt><trkpt lat="40.271643" lon="-5.868173"><ele>651.739</ele><time>2010-01-01T01:07:06Z</time></trkpt><trkpt lat="40.272375" lon="-5.861932"><ele>664.570</ele><time>2010-01-01T01:03:53Z</time></trkpt><trkpt lat="40.272307" lon="-5.861779"><ele>664.743</ele><time>2010-01-01T01:03:48Z</time></trkpt><trkpt lat="40.270027" lon="-5.860918"><ele>679.064</ele><time>2010-01-01T01:02:12Z</time></trkpt><trkpt lat="40.269903" lon="-5.860647"><ele>679.310</ele><time>2010-01-01T01:02:02Z</time></trkpt><trkpt lat="40.270049" lon="-5.860210"><ele>680.009</ele><time>2010-01-01T01:01:48Z</time></trkpt><trkpt lat="40.269984" lon="-5.859762"><ele>683.975</ele><time>2010-01-01T01:01:34Z</time></trkpt><trkpt lat="40.271848" lon="-5.853934"><ele>689.335</ele><time>2010-01-01T00:58:21Z</time></trkpt><trkpt lat="40.272202" lon="-5.853108"><ele>689.162</ele><time>2010-01-01T00:57:52Z</time></trkpt><trkpt lat="40.272665" lon="-5.852488"><ele>687.971</ele><time>2010-01-01T00:57:25Z</time></trkpt><trkpt lat="40.273502" lon="-5.851863"><ele>676.876</ele><time>2010-01-01T00:56:47Z</time></trkpt><trkpt lat="40.274740" lon="-5.851646"><ele>698.518</ele><time>2010-01-01T00:55:56Z</time></trkpt><trkpt lat="40.276581" lon="-5.852284"><ele>704.711</ele><time>2010-01-01T00:54:40Z</time></trkpt><trkpt lat="40.277376" lon="-5.852319"><ele>700.847</ele><time>2010-01-01T00:54:08Z</time></trkpt><trkpt lat="40.277988" lon="-5.852124"><ele>699.778</ele><time>2010-01-01T00:53:43Z</time></trkpt><trkpt lat="40.278631" lon="-5.851674"><ele>699.844</ele><time>2010-01-01T00:53:14Z</time></trkpt><trkpt lat="40.281909" lon="-5.847753"><ele>720.005</ele><time>2010-01-01T00:50:16Z</time></trkpt><trkpt lat="40.282453" lon="-5.846943"><ele>718.515</ele><time>2010-01-01T00:49:43Z</time></trkpt><trkpt lat="40.283666" lon="-5.844295"><ele>725.609</ele><time>2010-01-01T00:48:09Z</time></trkpt><trkpt lat="40.284088" lon="-5.843683"><ele>727.225</ele><time>2010-01-01T00:47:44Z</time></trkpt><trkpt lat="40.284485" lon="-5.843377"><ele>725.965</ele><time>2010-01-01T00:47:25Z</time></trkpt><trkpt lat="40.285488" lon="-5.843002"><ele>722.312</ele><time>2010-01-01T00:46:44Z</time></trkpt><trkpt lat="40.286646" lon="-5.843141"><ele>717.441</ele><time>2010-01-01T00:45:57Z</time></trkpt><trkpt lat="40.287161" lon="-5.843407"><ele>717.966</ele><time>2010-01-01T00:45:35Z</time></trkpt><trkpt lat="40.287889" lon="-5.844212"><ele>717.128</ele><time>2010-01-01T00:44:57Z</time></trkpt><trkpt lat="40.288204" lon="-5.844856"><ele>720.631</ele><time>2010-01-01T00:44:34Z</time></trkpt><trkpt lat="40.289579" lon="-5.849507"><ele>728.767</ele><time>2010-01-01T00:42:01Z</time></trkpt><trkpt lat="40.289432" lon="-5.851272"><ele>737.268</ele><time>2010-01-01T00:41:07Z</time></trkpt><trkpt lat="40.288249" lon="-5.853648"><ele>747.058</ele><time>2010-01-01T00:39:40Z</time></trkpt><trkpt lat="40.287951" lon="-5.854479"><ele>742.552</ele><time>2010-01-01T00:39:12Z</time></trkpt><trkpt lat="40.287771" lon="-5.855644"><ele>741.717</ele><time>2010-01-01T00:38:36Z</time></trkpt><trkpt lat="40.287934" lon="-5.857167"><ele>747.709</ele><time>2010-01-01T00:37:49Z</time></trkpt><trkpt lat="40.288457" lon="-5.859447"><ele>749.896</ele><time>2010-01-01T00:36:36Z</time></trkpt><trkpt lat="40.288225" lon="-5.865259"><ele>758.436</ele><time>2010-01-01T00:33:39Z</time></trkpt><trkpt lat="40.288323" lon="-5.866444"><ele>759.383</ele><time>2010-01-01T00:33:02Z</time></trkpt><trkpt lat="40.288793" lon="-5.867625"><ele>767.162</ele><time>2010-01-01T00:32:22Z</time></trkpt><trkpt lat="40.289207" lon="-5.868193"><ele>771.317</ele><time>2010-01-01T00:31:58Z</time></trkpt><trkpt lat="40.290209" lon="-5.868858"><ele>775.579</ele><time>2010-01-01T00:31:13Z</time></trkpt><trkpt lat="40.292712" lon="-5.869046"><ele>774.352</ele><time>2010-01-01T00:29:32Z</time></trkpt><trkpt lat="40.294847" lon="-5.869624"><ele>779.468</ele><time>2010-01-01T00:28:05Z</time></trkpt><trkpt lat="40.295420" lon="-5.869560"><ele>781.839</ele><time>2010-01-01T00:27:42Z</time></trkpt><trkpt lat="40.296103" lon="-5.869206"><ele>783.641</ele><time>2010-01-01T00:27:13Z</time></trkpt><trkpt lat="40.296725" lon="-5.868556"><ele>779.081</ele><time>2010-01-01T00:26:41Z</time></trkpt><trkpt lat="40.298778" lon="-5.865057"><ele>784.209</ele><time>2010-01-01T00:24:26Z</time></trkpt><trkpt lat="40.299592" lon="-5.863989"><ele>788.709</ele><time>2010-01-01T00:23:40Z</time></trkpt><trkpt lat="40.302788" lon="-5.861695"><ele>802.565</ele><time>2010-01-01T00:21:14Z</time></trkpt><trkpt lat="40.306782" lon="-5.859688"><ele>809.625</ele><time>2010-01-01T00:18:23Z</time></trkpt><trkpt lat="40.308958" lon="-5.857746"><ele>807.712</ele><time>2010-01-01T00:16:37Z</time></trkpt><trkpt lat="40.311261" lon="-5.857113"><ele>813.131</ele><time>2010-01-01T00:15:03Z</time></trkpt><trkpt lat="40.312095" lon="-5.856631"><ele>818.516</ele><time>2010-01-01T00:14:27Z</time></trkpt><trkpt lat="40.312586" lon="-5.856116"><ele>816.868</ele><time>2010-01-01T00:14:02Z</time></trkpt><trkpt lat="40.313846" lon="-5.853563"><ele>822.341</ele><time>2010-01-01T00:12:29Z</time></trkpt><trkpt lat="40.317675" lon="-5.850290"><ele>829.747</ele><time>2010-01-01T00:09:26Z</time></trkpt><trkpt lat="40.318534" lon="-5.849872"><ele>830.628</ele><time>2010-01-01T00:08:49Z</time></trkpt><trkpt lat="40.319414" lon="-5.849761"><ele>834.319</ele><time>2010-01-01T00:08:14Z</time></trkpt><trkpt lat="40.320249" lon="-5.849890"><ele>838.209</ele><time>2010-01-01T00:07:40Z</time></trkpt><trkpt lat="40.321988" lon="-5.850608"><ele>853.319</ele><time>2010-01-01T00:06:27Z</time></trkpt><trkpt lat="40.325481" lon="-5.853382"><ele>846.509</ele><time>2010-01-01T00:03:43Z</time></trkpt><trkpt lat="40.326413" lon="-5.853774"><ele>847.072</ele><time>2010-01-01T00:03:04Z</time></trkpt><trkpt lat="40.327460" lon="-5.853866"><ele>853.422</ele><time>2010-01-01T00:02:22Z</time></trkpt><trkpt lat="40.328486" lon="-5.853688"><ele>853.179</ele><time>2010-01-01T00:01:41Z</time></trkpt><trkpt lat="40.330826" lon="-5.852419"><ele>859.858</ele><time>2010-01-01T00:00:00Z</time></trkpt><trkpt lat="40.332268" lon="-5.851664"><ele>862.633</ele><time>2010-01-01T03:07:59Z</time></trkpt><trkpt lat="40.334914" lon="-5.850274"><ele>876.035</ele><time>2010-01-01T03:06:05Z</time></trkpt><trkpt lat="40.335426" lon="-5.850005"><ele>875.868</ele><time>2010-01-01T03:05:43Z</time></trkpt><trkpt lat="40.338595" lon="-5.848406"><ele>889.024</ele><time>2010-01-01T03:03:27Z</time></trkpt><trkpt lat="40.339196" lon="-5.848043"><ele>888.935</ele><time>2010-01-01T03:03:01Z</time></trkpt><trkpt lat="40.339862" lon="-5.847486"><ele>885.593</ele><time>2010-01-01T03:02:29Z</time></trkpt><trkpt lat="40.341580" lon="-5.845417"><ele>884.365</ele><time>2010-01-01T03:00:56Z</time></trkpt><trkpt lat="40.341846" lon="-5.845674"><ele>881.121</ele><time>2010-01-01T03:00:42Z</time></trkpt><trkpt lat="40.342501" lon="-5.846896"><ele>880.009</ele><time>2010-01-01T02:59:56Z</time></trkpt><trkpt lat="40.343260" lon="-5.846803"><ele>881.330</ele><time>2010-01-01T02:59:26Z</time></trkpt><trkpt lat="40.343707" lon="-5.846638"><ele>880.930</ele><time>2010-01-01T02:59:06Z</time></trkpt><trkpt lat="40.344133" lon="-5.846866"><ele>883.277</ele><time>2010-01-01T02:58:47Z</time></trkpt><trkpt lat="40.345598" lon="-5.846593"><ele>881.166</ele><time>2010-01-01T02:57:47Z</time></trkpt><trkpt lat="40.347584" lon="-5.846826"><ele>877.371</ele><time>2010-01-01T02:56:27Z</time></trkpt><trkpt lat="40.348544" lon="-5.846700"><ele>875.633</ele><time>2010-01-01T02:55:48Z</time></trkpt><trkpt lat="40.349695" lon="-5.847122"><ele>876.236</ele><time>2010-01-01T02:55:00Z</time></trkpt><trkpt lat="40.350112" lon="-5.847374"><ele>876.952</ele><time>2010-01-01T02:54:41Z</time></trkpt><trkpt lat="40.350754" lon="-5.847647"><ele>872.773</ele><time>2010-01-01T02:54:14Z</time></trkpt><trkpt lat="40.350907" lon="-5.847903"><ele>872.331</ele><time>2010-01-01T02:54:05Z</time></trkpt><trkpt lat="40.351651" lon="-5.849098"><ele>859.861</ele><time>2010-01-01T02:53:17Z</time></trkpt><trkpt lat="40.352039" lon="-5.849412"><ele>858.207</ele><time>2010-01-01T02:52:59Z</time></trkpt><trkpt lat="40.352662" lon="-5.849632"><ele>854.809</ele><time>2010-01-01T02:52:33Z</time></trkpt><trkpt lat="40.352942" lon="-5.849726"><ele>852.234</ele><time>2010-01-01T02:52:22Z</time></trkpt><trkpt lat="40.353815" lon="-5.849910"><ele>846.924</ele><time>2010-01-01T02:51:46Z</time></trkpt><trkpt lat="40.354136" lon="-5.849713"><ele>844.381</ele><time>2010-01-01T02:51:32Z</time></trkpt><trkpt lat="40.355478" lon="-5.849520"><ele>840.530</ele><time>2010-01-01T02:50:37Z</time></trkpt><trkpt lat="40.355877" lon="-5.849309"><ele>838.715</ele><time>2010-01-01T02:50:20Z</time></trkpt><trkpt lat="40.356219" lon="-5.848860"><ele>831.937</ele><time>2010-01-01T02:50:01Z</time></trkpt><trkpt lat="40.357028" lon="-5.846615"><ele>823.840</ele><time>2010-01-01T02:48:45Z</time></trkpt><trkpt lat="40.357232" lon="-5.846099"><ele>820.366</ele><time>2010-01-01T02:48:27Z</time></trkpt><trkpt lat="40.357173" lon="-5.844940"><ele>805.177</ele><time>2010-01-01T02:47:49Z</time></trkpt><trkpt lat="40.357321" lon="-5.844703"><ele>805.926</ele><time>2010-01-01T02:47:40Z</time></trkpt><trkpt lat="40.357402" lon="-5.844370"><ele>803.247</ele><time>2010-01-01T02:47:29Z</time></trkpt><trkpt lat="40.357494" lon="-5.843926"><ele>797.511</ele><time>2010-01-01T02:47:15Z</time></trkpt><trkpt lat="40.357655" lon="-5.843522"><ele>793.509</ele><time>2010-01-01T02:47:01Z</time></trkpt><trkpt lat="40.358251" lon="-5.842830"><ele>783.133</ele><time>2010-01-01T02:46:30Z</time></trkpt><trkpt lat="40.358782" lon="-5.842458"><ele>777.363</ele><time>2010-01-01T02:46:05Z</time></trkpt><trkpt lat="40.359267" lon="-5.842126"><ele>771.590</ele><time>2010-01-01T02:45:43Z</time></trkpt><trkpt lat="40.360175" lon="-5.841892"><ele>766.659</ele><time>2010-01-01T02:45:06Z</time></trkpt><trkpt lat="40.360561" lon="-5.841816"><ele>761.764</ele><time>2010-01-01T02:44:51Z</time></trkpt><trkpt lat="40.362250" lon="-5.843234"><ele>754.576</ele><time>2010-01-01T02:43:29Z</time></trkpt><trkpt lat="40.363862" lon="-5.843558"><ele>744.579</ele><time>2010-01-01T02:42:24Z</time></trkpt><trkpt lat="40.364714" lon="-5.844222"><ele>742.985</ele><time>2010-01-01T02:41:44Z</time></trkpt><trkpt lat="40.365805" lon="-5.844640"><ele>735.776</ele><time>2010-01-01T02:40:59Z</time></trkpt><trkpt lat="40.366088" lon="-5.844815"><ele>730.783</ele><time>2010-01-01T02:40:46Z</time></trkpt><trkpt lat="40.366172" lon="-5.845098"><ele>729.425</ele><time>2010-01-01T02:40:37Z</time></trkpt><trkpt lat="40.366252" lon="-5.845268"><ele>728.917</ele><time>2010-01-01T02:40:31Z</time></trkpt><trkpt lat="40.366562" lon="-5.845394"><ele>722.909</ele><time>2010-01-01T02:40:17Z</time></trkpt><trkpt lat="40.366646" lon="-5.845780"><ele>720.739</ele><time>2010-01-01T02:40:05Z</time></trkpt><trkpt lat="40.366713" lon="-5.846040"><ele>720.699</ele><time>2010-01-01T02:39:56Z</time></trkpt><trkpt lat="40.366913" lon="-5.846355"><ele>718.446</ele><time>2010-01-01T02:39:44Z</time></trkpt><trkpt lat="40.367190" lon="-5.846512"><ele>710.935</ele><time>2010-01-01T02:39:32Z</time></trkpt><trkpt lat="40.367524" lon="-5.846157"><ele>699.340</ele><time>2010-01-01T02:39:14Z</time></trkpt><trkpt lat="40.368074" lon="-5.845973"><ele>688.742</ele><time>2010-01-01T02:38:50Z</time></trkpt><trkpt lat="40.368252" lon="-5.846507"><ele>681.115</ele><time>2010-01-01T02:38:32Z</time></trkpt><trkpt lat="40.368492" lon="-5.846727"><ele>678.241</ele><time>2010-01-01T02:38:20Z</time></trkpt><trkpt lat="40.368543" lon="-5.847257"><ele>675.482</ele><time>2010-01-01T02:38:04Z</time></trkpt><trkpt lat="40.368910" lon="-5.847666"><ele>671.313</ele><time>2010-01-01T02:37:44Z</time></trkpt><trkpt lat="40.369077" lon="-5.848177"><ele>668.343</ele><time>2010-01-01T02:37:27Z</time></trkpt><trkpt lat="40.370403" lon="-5.848352"><ele>656.507</ele><time>2010-01-01T02:36:34Z</time></trkpt><trkpt lat="40.370960" lon="-5.848622"><ele>663.009</ele><time>2010-01-01T02:36:10Z</time></trkpt><trkpt lat="40.371394" lon="-5.848469"><ele>665.612</ele><time>2010-01-01T02:35:52Z</time></trkpt><trkpt lat="40.373001" lon="-5.847221"><ele>672.642</ele><time>2010-01-01T02:34:37Z</time></trkpt><trkpt lat="40.374052" lon="-5.846000"><ele>676.829</ele><time>2010-01-01T02:33:41Z</time></trkpt><trkpt lat="40.375038" lon="-5.844860"><ele>681.548</ele><time>2010-01-01T02:32:48Z</time></trkpt><trkpt lat="40.375219" lon="-5.844770"><ele>683.513</ele><time>2010-01-01T02:32:40Z</time></trkpt><trkpt lat="40.375655" lon="-5.844492"><ele>683.935</ele><time>2010-01-01T02:32:21Z</time></trkpt><trkpt lat="40.376641" lon="-5.843805"><ele>679.968</ele><time>2010-01-01T02:31:36Z</time></trkpt><trkpt lat="40.377256" lon="-5.843302"><ele>679.144</ele><time>2010-01-01T02:31:07Z</time></trkpt><trkpt lat="40.377633" lon="-5.842826"><ele>677.625</ele><time>2010-01-01T02:30:46Z</time></trkpt><trkpt lat="40.377749" lon="-5.842691"><ele>676.554</ele><time>2010-01-01T02:30:40Z</time></trkpt><trkpt lat="40.378113" lon="-5.842408"><ele>676.156</ele><time>2010-01-01T02:30:23Z</time></trkpt><trkpt lat="40.380253" lon="-5.841452"><ele>676.911</ele><time>2010-01-01T02:28:52Z</time></trkpt><trkpt lat="40.380924" lon="-5.841196"><ele>676.109</ele><time>2010-01-01T02:28:24Z</time></trkpt><trkpt lat="40.382037" lon="-5.840752"><ele>679.246</ele><time>2010-01-01T02:27:37Z</time></trkpt><trkpt lat="40.383161" lon="-5.840020"><ele>681.196</ele><time>2010-01-01T02:26:46Z</time></trkpt><trkpt lat="40.383427" lon="-5.839773"><ele>680.843</ele><time>2010-01-01T02:26:33Z</time></trkpt><trkpt lat="40.384778" lon="-5.838682"><ele>679.732</ele><time>2010-01-01T02:25:29Z</time></trkpt><trkpt lat="40.385295" lon="-5.838368"><ele>681.037</ele><time>2010-01-01T02:25:06Z</time></trkpt><trkpt lat="40.388375" lon="-5.835827"><ele>688.629</ele><time>2010-01-01T02:22:40Z</time></trkpt><trkpt lat="40.388939" lon="-5.834772"><ele>686.382</ele><time>2010-01-01T02:22:00Z</time></trkpt><trkpt lat="40.389494" lon="-5.834153"><ele>687.018</ele><time>2010-01-01T02:21:31Z</time></trkpt><trkpt lat="40.390033" lon="-5.833789"><ele>684.599</ele><time>2010-01-01T02:21:07Z</time></trkpt><trkpt lat="40.390216" lon="-5.833668"><ele>685.038</ele><time>2010-01-01T02:20:58Z</time></trkpt><trkpt lat="40.390911" lon="-5.832626"><ele>688.470</ele><time>2010-01-01T02:20:16Z</time></trkpt><trkpt lat="40.391103" lon="-5.832411"><ele>688.917</ele><time>2010-01-01T02:20:06Z</time></trkpt><trkpt lat="40.392814" lon="-5.831100"><ele>694.509</ele><time>2010-01-01T02:18:46Z</time></trkpt><trkpt lat="40.393633" lon="-5.829906"><ele>696.024</ele><time>2010-01-01T02:17:56Z</time></trkpt><trkpt lat="40.394873" lon="-5.829012"><ele>701.534</ele><time>2010-01-01T02:16:59Z</time></trkpt><trkpt lat="40.395180" lon="-5.828572"><ele>702.311</ele><time>2010-01-01T02:16:41Z</time></trkpt><trkpt lat="40.396258" lon="-5.826400"><ele>697.690</ele><time>2010-01-01T02:15:22Z</time></trkpt><trkpt lat="40.396431" lon="-5.823705"><ele>698.935</ele><time>2010-01-01T02:13:59Z</time></trkpt><trkpt lat="40.396904" lon="-5.822744"><ele>702.557</ele><time>2010-01-01T02:13:24Z</time></trkpt><trkpt lat="40.396943" lon="-5.822535"><ele>705.560</ele><time>2010-01-01T02:13:17Z</time></trkpt><trkpt lat="40.396605" lon="-5.822358"><ele>706.316</ele><time>2010-01-01T02:13:02Z</time></trkpt><trkpt lat="40.396557" lon="-5.822289"><ele>706.937</ele><time>2010-01-01T02:12:59Z</time></trkpt><trkpt lat="40.397176" lon="-5.822430"><ele>707.265</ele><time>2010-01-01T02:12:34Z</time></trkpt><trkpt lat="40.397779" lon="-5.822187"><ele>711.968</ele><time>2010-01-01T02:12:08Z</time></trkpt><trkpt lat="40.398221" lon="-5.821869"><ele>715.214</ele><time>2010-01-01T02:11:48Z</time></trkpt><trkpt lat="40.398607" lon="-5.821568"><ele>717.809</ele><time>2010-01-01T02:11:30Z</time></trkpt><trkpt lat="40.399054" lon="-5.820683"><ele>725.387</ele><time>2010-01-01T02:10:57Z</time></trkpt><trkpt lat="40.399267" lon="-5.820472"><ele>728.037</ele><time>2010-01-01T02:10:46Z</time></trkpt><trkpt lat="40.399887" lon="-5.820652"><ele>734.034</ele><time>2010-01-01T02:10:21Z</time></trkpt><trkpt lat="40.400698" lon="-5.820374"><ele>737.223</ele><time>2010-01-01T02:09:46Z</time></trkpt><trkpt lat="40.403331" lon="-5.818533"><ele>752.758</ele><time>2010-01-01T02:07:47Z</time></trkpt><trkpt lat="40.405867" lon="-5.816746"><ele>769.030</ele><time>2010-01-01T02:05:52Z</time></trkpt><trkpt lat="40.407700" lon="-5.816203"><ele>778.293</ele><time>2010-01-01T02:04:36Z</time></trkpt><trkpt lat="40.408753" lon="-5.816091"><ele>783.259</ele><time>2010-01-01T02:03:54Z</time></trkpt><trkpt lat="40.409807" lon="-5.815902"><ele>789.650</ele><time>2010-01-01T02:03:11Z</time></trkpt><trkpt lat="40.410330" lon="-5.815844"><ele>794.634</ele><time>2010-01-01T02:02:50Z</time></trkpt><trkpt lat="40.410456" lon="-5.815817"><ele>796.055</ele><time>2010-01-01T02:02:45Z</time></trkpt><trkpt lat="40.411702" lon="-5.815485"><ele>792.710</ele><time>2010-01-01T02:01:54Z</time></trkpt><trkpt lat="40.413531" lon="-5.814259"><ele>790.009</ele><time>2010-01-01T02:00:32Z</time></trkpt><trkpt lat="40.439957" lon="-5.804050"><ele>781.074</ele><time>2010-01-01T01:42:09Z</time></trkpt><trkpt lat="40.442735" lon="-5.801971"><ele>779.274</ele><time>2010-01-01T01:40:00Z</time></trkpt><trkpt lat="40.443700" lon="-5.802088"><ele>780.081</ele><time>2010-01-01T01:39:21Z</time></trkpt><trkpt lat="40.444557" lon="-5.802155"><ele>780.190</ele><time>2010-01-01T01:38:46Z</time></trkpt><trkpt lat="40.445104" lon="-5.801931"><ele>780.015</ele><time>2010-01-01T01:38:23Z</time></trkpt><trkpt lat="40.447495" lon="-5.800463"><ele>780.017</ele><time>2010-01-01T01:36:38Z</time></trkpt><trkpt lat="40.450090" lon="-5.799273"><ele>779.090</ele><time>2010-01-01T01:34:47Z</time></trkpt><trkpt lat="40.451559" lon="-5.798779"><ele>777.626</ele><time>2010-01-01T01:33:47Z</time></trkpt><trkpt lat="40.461845" lon="-5.795349"><ele>772.097</ele><time>2010-01-01T01:26:42Z</time></trkpt><trkpt lat="40.463185" lon="-5.794676"><ele>772.871</ele><time>2010-01-01T01:25:44Z</time></trkpt><trkpt lat="40.463592" lon="-5.794743"><ele>773.041</ele><time>2010-01-01T01:25:28Z</time></trkpt><trkpt lat="40.464114" lon="-5.794667"><ele>773.015</ele><time>2010-01-01T01:25:06Z</time></trkpt><trkpt lat="40.464462" lon="-5.794797"><ele>773.309</ele><time>2010-01-01T01:24:52Z</time></trkpt><trkpt lat="40.465012" lon="-5.794721"><ele>774.018</ele><time>2010-01-01T01:24:30Z</time></trkpt><trkpt lat="40.465931" lon="-5.794653"><ele>776.918</ele><time>2010-01-01T01:23:53Z</time></trkpt><trkpt lat="40.467324" lon="-5.793473"><ele>777.925</ele><time>2010-01-01T01:22:46Z</time></trkpt><trkpt lat="40.468919" lon="-5.792912"><ele>789.754</ele><time>2010-01-01T01:21:39Z</time></trkpt><trkpt lat="40.469636" lon="-5.792615"><ele>790.479</ele><time>2010-01-01T01:21:09Z</time></trkpt><trkpt lat="40.474188" lon="-5.790398"><ele>780.021</ele><time>2010-01-01T01:17:54Z</time></trkpt><trkpt lat="40.477514" lon="-5.787690"><ele>795.024</ele><time>2010-01-01T01:15:17Z</time></trkpt><trkpt lat="40.478557" lon="-5.786936"><ele>797.850</ele><time>2010-01-01T01:14:30Z</time></trkpt><trkpt lat="40.479306" lon="-5.786173"><ele>797.661</ele><time>2010-01-01T01:13:52Z</time></trkpt><trkpt lat="40.479718" lon="-5.785688"><ele>797.571</ele><time>2010-01-01T01:13:30Z</time></trkpt><trkpt lat="40.479869" lon="-5.785473"><ele>798.141</ele><time>2010-01-01T01:13:21Z</time></trkpt><trkpt lat="40.480346" lon="-5.782784"><ele>800.015</ele><time>2010-01-01T01:11:56Z</time></trkpt><trkpt lat="40.480510" lon="-5.782092"><ele>799.809</ele><time>2010-01-01T01:11:34Z</time></trkpt><trkpt lat="40.480602" lon="-5.781697"><ele>800.088</ele><time>2010-01-01T01:11:22Z</time></trkpt><trkpt lat="40.480847" lon="-5.781010"><ele>800.028</ele><time>2010-01-01T01:10:58Z</time></trkpt><trkpt lat="40.481160" lon="-5.780615"><ele>801.245</ele><time>2010-01-01T01:10:41Z</time></trkpt><trkpt lat="40.481044" lon="-5.780535"><ele>800.894</ele><time>2010-01-01T01:10:35Z</time></trkpt><trkpt lat="40.481106" lon="-5.780310"><ele>801.099</ele><time>2010-01-01T01:10:28Z</time></trkpt><trkpt lat="40.481365" lon="-5.780144"><ele>801.921</ele><time>2010-01-01T01:10:15Z</time></trkpt><trkpt lat="40.481729" lon="-5.780440"><ele>803.264</ele><time>2010-01-01T01:09:58Z</time></trkpt><trkpt lat="40.481834" lon="-5.780943"><ele>803.210</ele><time>2010-01-01T01:09:42Z</time></trkpt><trkpt lat="40.482577" lon="-5.781401"><ele>804.351</ele><time>2010-01-01T01:09:09Z</time></trkpt><trkpt lat="40.484892" lon="-5.781334"><ele>810.762</ele><time>2010-01-01T01:07:36Z</time></trkpt><trkpt lat="40.486022" lon="-5.781149"><ele>812.983</ele><time>2010-01-01T01:06:50Z</time></trkpt><trkpt lat="40.487571" lon="-5.781616"><ele>816.411</ele><time>2010-01-01T01:05:47Z</time></trkpt><trkpt lat="40.488048" lon="-5.781571"><ele>818.309</ele><time>2010-01-01T01:05:28Z</time></trkpt><trkpt lat="40.488315" lon="-5.781500"><ele>817.747</ele><time>2010-01-01T01:05:17Z</time></trkpt><trkpt lat="40.489447" lon="-5.780669"><ele>819.067</ele><time>2010-01-01T01:04:25Z</time></trkpt><trkpt lat="40.490431" lon="-5.780368"><ele>820.424</ele><time>2010-01-01T01:03:44Z</time></trkpt><trkpt lat="40.490571" lon="-5.780306"><ele>821.043</ele><time>2010-01-01T01:03:38Z</time></trkpt><trkpt lat="40.491412" lon="-5.779538"><ele>829.178</ele><time>2010-01-01T01:02:57Z</time></trkpt><trkpt lat="40.491730" lon="-5.779372"><ele>830.010</ele><time>2010-01-01T01:02:43Z</time></trkpt><trkpt lat="40.492498" lon="-5.779340"><ele>834.113</ele><time>2010-01-01T01:02:12Z</time></trkpt><trkpt lat="40.493384" lon="-5.778855"><ele>839.899</ele><time>2010-01-01T01:01:34Z</time></trkpt><trkpt lat="40.494252" lon="-5.777562"><ele>852.120</ele><time>2010-01-01T01:00:41Z</time></trkpt><trkpt lat="40.494856" lon="-5.777172"><ele>853.925</ele><time>2010-01-01T01:00:14Z</time></trkpt><trkpt lat="40.495961" lon="-5.775026"><ele>865.426</ele><time>2010-01-01T00:58:55Z</time></trkpt><trkpt lat="40.496403" lon="-5.774752"><ele>865.908</ele><time>2010-01-01T00:58:35Z</time></trkpt><trkpt lat="40.497634" lon="-5.774442"><ele>873.009</ele><time>2010-01-01T00:57:45Z</time></trkpt><trkpt lat="40.498464" lon="-5.773360"><ele>882.353</ele><time>2010-01-01T00:56:58Z</time></trkpt><trkpt lat="40.499011" lon="-5.771834"><ele>892.173</ele><time>2010-01-01T00:56:06Z</time></trkpt><trkpt lat="40.499459" lon="-5.770627"><ele>896.460</ele><time>2010-01-01T00:55:25Z</time></trkpt><trkpt lat="40.499629" lon="-5.769257"><ele>906.489</ele><time>2010-01-01T00:54:43Z</time></trkpt><trkpt lat="40.499855" lon="-5.768633"><ele>910.844</ele><time>2010-01-01T00:54:22Z</time></trkpt><trkpt lat="40.500035" lon="-5.768261"><ele>913.546</ele><time>2010-01-01T00:54:09Z</time></trkpt><trkpt lat="40.501334" lon="-5.766649"><ele>918.929</ele><time>2010-01-01T00:52:57Z</time></trkpt><trkpt lat="40.502650" lon="-5.765621"><ele>929.335</ele><time>2010-01-01T00:51:55Z</time></trkpt><trkpt lat="40.503075" lon="-5.765486"><ele>936.366</ele><time>2010-01-01T00:51:38Z</time></trkpt><trkpt lat="40.503310" lon="-5.765823"><ele>935.978</ele><time>2010-01-01T00:51:23Z</time></trkpt><trkpt lat="40.504213" lon="-5.765931"><ele>942.433</ele><time>2010-01-01T00:50:47Z</time></trkpt><trkpt lat="40.504423" lon="-5.765863"><ele>943.926</ele><time>2010-01-01T00:50:38Z</time></trkpt><trkpt lat="40.505024" lon="-5.765823"><ele>949.309</ele><time>2010-01-01T00:50:14Z</time></trkpt><trkpt lat="40.505800" lon="-5.764925"><ele>954.978</ele><time>2010-01-01T00:49:32Z</time></trkpt><trkpt lat="40.505956" lon="-5.764835"><ele>954.878</ele><time>2010-01-01T00:49:25Z</time></trkpt><trkpt lat="40.506056" lon="-5.765046"><ele>954.225</ele><time>2010-01-01T00:49:18Z</time></trkpt><trkpt lat="40.506237" lon="-5.765046"><ele>951.794</ele><time>2010-01-01T00:49:10Z</time></trkpt><trkpt lat="40.507999" lon="-5.764925"><ele>949.099</ele><time>2010-01-01T00:47:59Z</time></trkpt><trkpt lat="40.510050" lon="-5.765823"><ele>948.261</ele><time>2010-01-01T00:46:33Z</time></trkpt><trkpt lat="40.512198" lon="-5.766492"><ele>950.074</ele><time>2010-01-01T00:45:04Z</time></trkpt><trkpt lat="40.512634" lon="-5.766465"><ele>950.090</ele><time>2010-01-01T00:44:46Z</time></trkpt><trkpt lat="40.513745" lon="-5.766321"><ele>954.911</ele><time>2010-01-01T00:44:01Z</time></trkpt><trkpt lat="40.515189" lon="-5.767206"><ele>959.332</ele><time>2010-01-01T00:42:57Z</time></trkpt><trkpt lat="40.517062" lon="-5.766815"><ele>967.092</ele><time>2010-01-01T00:41:41Z</time></trkpt><trkpt lat="40.518558" lon="-5.765648"><ele>958.011</ele><time>2010-01-01T00:40:31Z</time></trkpt><trkpt lat="40.518933" lon="-5.765455"><ele>956.209</ele><time>2010-01-01T00:40:15Z</time></trkpt><trkpt lat="40.520275" lon="-5.765486"><ele>948.044</ele><time>2010-01-01T00:39:21Z</time></trkpt><trkpt lat="40.521293" lon="-5.765199"><ele>944.584</ele><time>2010-01-01T00:38:39Z</time></trkpt><trkpt lat="40.522584" lon="-5.764337"><ele>942.021</ele><time>2010-01-01T00:37:41Z</time></trkpt><trkpt lat="40.522972" lon="-5.766056"><ele>939.290</ele><time>2010-01-01T00:36:47Z</time></trkpt><trkpt lat="40.523323" lon="-5.766878"><ele>939.015</ele><time>2010-01-01T00:36:18Z</time></trkpt><trkpt lat="40.523293" lon="-5.767704"><ele>939.077</ele><time>2010-01-01T00:35:52Z</time></trkpt><trkpt lat="40.523368" lon="-5.768754"><ele>938.410</ele><time>2010-01-01T00:35:20Z</time></trkpt><trkpt lat="40.523891" lon="-5.769594"><ele>939.066</ele><time>2010-01-01T00:34:47Z</time></trkpt><trkpt lat="40.524056" lon="-5.769670"><ele>939.067</ele><time>2010-01-01T00:34:40Z</time></trkpt><trkpt lat="40.525209" lon="-5.767794"><ele>945.988</ele><time>2010-01-01T00:33:26Z</time></trkpt><trkpt lat="40.525853" lon="-5.767057"><ele>948.624</ele><time>2010-01-01T00:32:52Z</time></trkpt><trkpt lat="40.527680" lon="-5.765742"><ele>951.626</ele><time>2010-01-01T00:31:28Z</time></trkpt><trkpt lat="40.528672" lon="-5.764445"><ele>953.209</ele><time>2010-01-01T00:30:32Z</time></trkpt><trkpt lat="40.528815" lon="-5.764364"><ele>953.719</ele><time>2010-01-01T00:30:26Z</time></trkpt><trkpt lat="40.530675" lon="-5.764068"><ele>960.769</ele><time>2010-01-01T00:29:11Z</time></trkpt><trkpt lat="40.532167" lon="-5.763246"><ele>971.066</ele><time>2010-01-01T00:28:06Z</time></trkpt><trkpt lat="40.533057" lon="-5.762465"><ele>976.915</ele><time>2010-01-01T00:27:23Z</time></trkpt><trkpt lat="40.533553" lon="-5.761854"><ele>982.440</ele><time>2010-01-01T00:26:55Z</time></trkpt><trkpt lat="40.534032" lon="-5.761257"><ele>985.632</ele><time>2010-01-01T00:26:29Z</time></trkpt><trkpt lat="40.534879" lon="-5.760665"><ele>988.925</ele><time>2010-01-01T00:25:51Z</time></trkpt><trkpt lat="40.535873" lon="-5.759901"><ele>993.241</ele><time>2010-01-01T00:25:04Z</time></trkpt><trkpt lat="40.536081" lon="-5.759713"><ele>992.832</ele><time>2010-01-01T00:24:54Z</time></trkpt><trkpt lat="40.537288" lon="-5.758231"><ele>1000.059</ele><time>2010-01-01T00:23:48Z</time></trkpt><trkpt lat="40.538765" lon="-5.756763"><ele>993.203</ele><time>2010-01-01T00:22:34Z</time></trkpt><trkpt lat="40.539374" lon="-5.756279"><ele>990.123</ele><time>2010-01-01T00:22:06Z</time></trkpt><trkpt lat="40.539991" lon="-5.755821"><ele>988.009</ele><time>2010-01-01T00:21:37Z</time></trkpt><trkpt lat="40.541659" lon="-5.754784"><ele>980.816</ele><time>2010-01-01T00:20:23Z</time></trkpt><trkpt lat="40.543500" lon="-5.753616"><ele>982.296</ele><time>2010-01-01T00:19:01Z</time></trkpt><trkpt lat="40.543977" lon="-5.752723"><ele>984.883</ele><time>2010-01-01T00:18:28Z</time></trkpt><trkpt lat="40.544152" lon="-5.752112"><ele>986.052</ele><time>2010-01-01T00:18:08Z</time></trkpt><trkpt lat="40.544621" lon="-5.751583"><ele>987.627</ele><time>2010-01-01T00:17:43Z</time></trkpt><trkpt lat="40.544707" lon="-5.751435"><ele>987.949</ele><time>2010-01-01T00:17:37Z</time></trkpt><trkpt lat="40.545049" lon="-5.750465"><ele>990.272</ele><time>2010-01-01T00:17:05Z</time></trkpt><trkpt lat="40.545192" lon="-5.750240"><ele>990.678</ele><time>2010-01-01T00:16:56Z</time></trkpt><trkpt lat="40.546418" lon="-5.749666"><ele>994.439</ele><time>2010-01-01T00:16:03Z</time></trkpt><trkpt lat="40.547707" lon="-5.749342"><ele>999.043</ele><time>2010-01-01T00:15:11Z</time></trkpt><trkpt lat="40.549051" lon="-5.748548"><ele>1000.064</ele><time>2010-01-01T00:14:11Z</time></trkpt><trkpt lat="40.550272" lon="-5.748000"><ele>997.810</ele><time>2010-01-01T00:13:20Z</time></trkpt><trkpt lat="40.551396" lon="-5.747892"><ele>992.409</ele><time>2010-01-01T00:12:34Z</time></trkpt><trkpt lat="40.552439" lon="-5.747448"><ele>986.355</ele><time>2010-01-01T00:11:50Z</time></trkpt><trkpt lat="40.553078" lon="-5.747197"><ele>980.865</ele><time>2010-01-01T00:11:23Z</time></trkpt><trkpt lat="40.553703" lon="-5.746721"><ele>980.092</ele><time>2010-01-01T00:10:54Z</time></trkpt><trkpt lat="40.557260" lon="-5.743385"><ele>972.261</ele><time>2010-01-01T00:07:59Z</time></trkpt><trkpt lat="40.557263" lon="-5.743039"><ele>972.016</ele><time>2010-01-01T00:07:47Z</time></trkpt><trkpt lat="40.558107" lon="-5.741518"><ele>970.418</ele><time>2010-01-01T00:06:50Z</time></trkpt><trkpt lat="40.559756" lon="-5.738258"><ele>966.971</ele><time>2010-01-01T00:04:50Z</time></trkpt><trkpt lat="40.560540" lon="-5.737280"><ele>962.377</ele><time>2010-01-01T00:04:07Z</time></trkpt><trkpt lat="40.561084" lon="-5.736777"><ele>960.028</ele><time>2010-01-01T00:03:41Z</time></trkpt><trkpt lat="40.562249" lon="-5.735987"><ele>960.027</ele><time>2010-01-01T00:02:48Z</time></trkpt><trkpt lat="40.562750" lon="-5.735372"><ele>960.068</ele><time>2010-01-01T00:02:20Z</time></trkpt><trkpt lat="40.563960" lon="-5.733675"><ele>957.214</ele><time>2010-01-01T00:01:09Z</time></trkpt><trkpt lat="40.564785" lon="-5.732225"><ele>954.009</ele><time>2010-01-01T00:00:14Z</time></trkpt><trkpt lat="40.564938" lon="-5.731789"><ele>953.013</ele><time>2010-01-01T00:00:00Z</time></trkpt><trkpt lat="40.565953" lon="-5.733973"><ele>954.023</ele><time>2010-01-01T05:28:23Z</time></trkpt><trkpt lat="40.566951" lon="-5.734507"><ele>953.080</ele><time>2010-01-01T05:27:37Z</time></trkpt><trkpt lat="40.568959" lon="-5.734898"><ele>950.949</ele><time>2010-01-01T05:26:16Z</time></trkpt><trkpt lat="40.569568" lon="-5.735149"><ele>950.354</ele><time>2010-01-01T05:25:50Z</time></trkpt><trkpt lat="40.572513" lon="-5.736774"><ele>952.476</ele><time>2010-01-01T05:23:42Z</time></trkpt><trkpt lat="40.574644" lon="-5.737703"><ele>957.539</ele><time>2010-01-01T05:22:12Z</time></trkpt><trkpt lat="40.575194" lon="-5.738202"><ele>957.755</ele><time>2010-01-01T05:21:45Z</time></trkpt><trkpt lat="40.575717" lon="-5.738054"><ele>956.426</ele><time>2010-01-01T05:21:24Z</time></trkpt><trkpt lat="40.576119" lon="-5.738211"><ele>955.647</ele><time>2010-01-01T05:21:07Z</time></trkpt><trkpt lat="40.576868" lon="-5.738758"><ele>956.529</ele><time>2010-01-01T05:20:32Z</time></trkpt><trkpt lat="40.577178" lon="-5.738880"><ele>957.021</ele><time>2010-01-01T05:20:19Z</time></trkpt><trkpt lat="40.577957" lon="-5.738727"><ele>954.409</ele><time>2010-01-01T05:19:48Z</time></trkpt><trkpt lat="40.580255" lon="-5.738853"><ele>952.075</ele><time>2010-01-01T05:18:16Z</time></trkpt><trkpt lat="40.581317" lon="-5.738785"><ele>950.065</ele><time>2010-01-01T05:17:33Z</time></trkpt><trkpt lat="40.584069" lon="-5.738534"><ele>945.812</ele><time>2010-01-01T05:15:43Z</time></trkpt><trkpt lat="40.585392" lon="-5.738592"><ele>939.691</ele><time>2010-01-01T05:14:50Z</time></trkpt><trkpt lat="40.587534" lon="-5.738278"><ele>931.766</ele><time>2010-01-01T05:13:23Z</time></trkpt><trkpt lat="40.587758" lon="-5.738350"><ele>931.138</ele><time>2010-01-01T05:13:14Z</time></trkpt><trkpt lat="40.587979" lon="-5.738386"><ele>930.591</ele><time>2010-01-01T05:13:05Z</time></trkpt><trkpt lat="40.588723" lon="-5.738372"><ele>928.797</ele><time>2010-01-01T05:12:35Z</time></trkpt><trkpt lat="40.594113" lon="-5.738157"><ele>919.088</ele><time>2010-01-01T05:08:59Z</time></trkpt><trkpt lat="40.603295" lon="-5.737766"><ele>909.025</ele><time>2010-01-01T05:02:51Z</time></trkpt><trkpt lat="40.607884" lon="-5.737587"><ele>903.626</ele><time>2010-01-01T04:59:48Z</time></trkpt><trkpt lat="40.609089" lon="-5.737528"><ele>901.308</ele><time>2010-01-01T04:58:59Z</time></trkpt><trkpt lat="40.610299" lon="-5.737376"><ele>900.009</ele><time>2010-01-01T04:58:11Z</time></trkpt><trkpt lat="40.611299" lon="-5.737192"><ele>900.083</ele><time>2010-01-01T04:57:30Z</time></trkpt><trkpt lat="40.613266" lon="-5.737079"><ele>900.043</ele><time>2010-01-01T04:56:11Z</time></trkpt><trkpt lat="40.613741" lon="-5.737035"><ele>900.080</ele><time>2010-01-01T04:55:52Z</time></trkpt><trkpt lat="40.614550" lon="-5.736950"><ele>900.029</ele><time>2010-01-01T04:55:20Z</time></trkpt><trkpt lat="40.616188" lon="-5.737179"><ele>900.014</ele><time>2010-01-01T04:54:14Z</time></trkpt><trkpt lat="40.616729" lon="-5.736999"><ele>900.026</ele><time>2010-01-01T04:53:51Z</time></trkpt><trkpt lat="40.617656" lon="-5.737147"><ele>900.089</ele><time>2010-01-01T04:53:13Z</time></trkpt><trkpt lat="40.619901" lon="-5.737169"><ele>902.535</ele><time>2010-01-01T04:51:43Z</time></trkpt><trkpt lat="40.620494" lon="-5.737236"><ele>903.056</ele><time>2010-01-01T04:51:19Z</time></trkpt><trkpt lat="40.622060" lon="-5.737448"><ele>905.081</ele><time>2010-01-01T04:50:16Z</time></trkpt><trkpt lat="40.622841" lon="-5.737470"><ele>905.961</ele><time>2010-01-01T04:49:44Z</time></trkpt><trkpt lat="40.623410" lon="-5.737901"><ele>907.417</ele><time>2010-01-01T04:49:17Z</time></trkpt><trkpt lat="40.624014" lon="-5.738004"><ele>908.409</ele><time>2010-01-01T04:48:52Z</time></trkpt><trkpt lat="40.625913" lon="-5.738646"><ele>912.049</ele><time>2010-01-01T04:47:33Z</time></trkpt><trkpt lat="40.626967" lon="-5.738830"><ele>915.139</ele><time>2010-01-01T04:46:51Z</time></trkpt><trkpt lat="40.631185" lon="-5.739495"><ele>927.036</ele><time>2010-01-01T04:44:00Z</time></trkpt><trkpt lat="40.633389" lon="-5.740033"><ele>931.215</ele><time>2010-01-01T04:42:31Z</time></trkpt><trkpt lat="40.634510" lon="-5.740235"><ele>933.240</ele><time>2010-01-01T04:41:45Z</time></trkpt><trkpt lat="40.636696" lon="-5.739795"><ele>936.362</ele><time>2010-01-01T04:40:16Z</time></trkpt><trkpt lat="40.638033" lon="-5.739710"><ele>938.925</ele><time>2010-01-01T04:39:23Z</time></trkpt><trkpt lat="40.638235" lon="-5.739733"><ele>939.071</ele><time>2010-01-01T04:39:14Z</time></trkpt><trkpt lat="40.638629" lon="-5.739540"><ele>939.452</ele><time>2010-01-01T04:38:57Z</time></trkpt><trkpt lat="40.640369" lon="-5.739652"><ele>943.423</ele><time>2010-01-01T04:37:47Z</time></trkpt><trkpt lat="40.643266" lon="-5.740119"><ele>937.283</ele><time>2010-01-01T04:35:49Z</time></trkpt><trkpt lat="40.645126" lon="-5.740002"><ele>948.911</ele><time>2010-01-01T04:34:35Z</time></trkpt><trkpt lat="40.646732" lon="-5.739710"><ele>958.009</ele><time>2010-01-01T04:33:30Z</time></trkpt><trkpt lat="40.647169" lon="-5.739629"><ele>958.573</ele><time>2010-01-01T04:33:12Z</time></trkpt><trkpt lat="40.648042" lon="-5.739777"><ele>959.223</ele><time>2010-01-01T04:32:37Z</time></trkpt><trkpt lat="40.652912" lon="-5.738911"><ele>965.650</ele><time>2010-01-01T04:29:20Z</time></trkpt><trkpt lat="40.653447" lon="-5.740973"><ele>971.979</ele><time>2010-01-01T04:28:14Z</time></trkpt><trkpt lat="40.653851" lon="-5.743756"><ele>978.564</ele><time>2010-01-01T04:26:48Z</time></trkpt><trkpt lat="40.654224" lon="-5.745687"><ele>978.156</ele><time>2010-01-01T04:25:47Z</time></trkpt><trkpt lat="40.654170" lon="-5.746315"><ele>979.959</ele><time>2010-01-01T04:25:28Z</time></trkpt><trkpt lat="40.653613" lon="-5.746263"><ele>980.095</ele><time>2010-01-01T04:25:05Z</time></trkpt><trkpt lat="40.653254" lon="-5.746697"><ele>978.446</ele><time>2010-01-01T04:24:45Z</time></trkpt><trkpt lat="40.652728" lon="-5.748276"><ele>972.077</ele><time>2010-01-01T04:23:52Z</time></trkpt><trkpt lat="40.653425" lon="-5.748582"><ele>972.161</ele><time>2010-01-01T04:23:22Z</time></trkpt><trkpt lat="40.653941" lon="-5.749031"><ele>969.327</ele><time>2010-01-01T04:22:57Z</time></trkpt><trkpt lat="40.655410" lon="-5.749443"><ele>970.009</ele><time>2010-01-01T04:21:56Z</time></trkpt><trkpt lat="40.656910" lon="-5.752069"><ele>967.068</ele><time>2010-01-01T04:20:16Z</time></trkpt><trkpt lat="40.656892" lon="-5.752780"><ele>966.888</ele><time>2010-01-01T04:19:55Z</time></trkpt><trkpt lat="40.656506" lon="-5.755818"><ele>962.475</ele><time>2010-01-01T04:18:21Z</time></trkpt><trkpt lat="40.656807" lon="-5.760397"><ele>971.714</ele><time>2010-01-01T04:16:02Z</time></trkpt><trkpt lat="40.656506" lon="-5.762290"><ele>974.069</ele><time>2010-01-01T04:15:03Z</time></trkpt><trkpt lat="40.656165" lon="-5.764003"><ele>977.641</ele><time>2010-01-01T04:14:09Z</time></trkpt><trkpt lat="40.655576" lon="-5.765814"><ele>987.814</ele><time>2010-01-01T04:13:09Z</time></trkpt><trkpt lat="40.655401" lon="-5.767827"><ele>996.230</ele><time>2010-01-01T04:12:07Z</time></trkpt><trkpt lat="40.655289" lon="-5.768396"><ele>998.391</ele><time>2010-01-01T04:11:50Z</time></trkpt><trkpt lat="40.655212" lon="-5.768800"><ele>999.022</ele><time>2010-01-01T04:11:37Z</time></trkpt><trkpt lat="40.655307" lon="-5.769338"><ele>1000.162</ele><time>2010-01-01T04:11:20Z</time></trkpt><trkpt lat="40.655783" lon="-5.771299"><ele>1000.008</ele><time>2010-01-01T04:10:18Z</time></trkpt><trkpt lat="40.656160" lon="-5.772249"><ele>1000.909</ele><time>2010-01-01T04:09:45Z</time></trkpt><trkpt lat="40.656605" lon="-5.773798"><ele>999.653</ele><time>2010-01-01T04:08:55Z</time></trkpt><trkpt lat="40.656802" lon="-5.774426"><ele>997.123</ele><time>2010-01-01T04:08:34Z</time></trkpt><trkpt lat="40.658168" lon="-5.777741"><ele>977.770</ele><time>2010-01-01T04:06:39Z</time></trkpt><trkpt lat="40.658312" lon="-5.778467"><ele>974.779</ele><time>2010-01-01T04:06:16Z</time></trkpt><trkpt lat="40.659118" lon="-5.777659"><ele>977.324</ele><time>2010-01-01T04:05:35Z</time></trkpt><trkpt lat="40.661890" lon="-5.775091"><ele>997.046</ele><time>2010-01-01T04:03:20Z</time></trkpt><trkpt lat="40.662400" lon="-5.774352"><ele>998.719</ele><time>2010-01-01T04:02:49Z</time></trkpt><trkpt lat="40.663216" lon="-5.772862"><ele>1001.155</ele><time>2010-01-01T04:01:53Z</time></trkpt><trkpt lat="40.663322" lon="-5.772539"><ele>1001.136</ele><time>2010-01-01T04:01:43Z</time></trkpt><trkpt lat="40.663753" lon="-5.771458"><ele>1000.953</ele><time>2010-01-01T04:01:06Z</time></trkpt><trkpt lat="40.663911" lon="-5.771147"><ele>1000.004</ele><time>2010-01-01T04:00:54Z</time></trkpt><trkpt lat="40.664102" lon="-5.770922"><ele>1000.014</ele><time>2010-01-01T04:00:44Z</time></trkpt><trkpt lat="40.666901" lon="-5.770865"><ele>1014.809</ele><time>2010-01-01T03:58:51Z</time></trkpt><trkpt lat="40.667729" lon="-5.770542"><ele>1020.236</ele><time>2010-01-01T03:58:16Z</time></trkpt><trkpt lat="40.668205" lon="-5.770315"><ele>1022.716</ele><time>2010-01-01T03:57:56Z</time></trkpt><trkpt lat="40.668739" lon="-5.770114"><ele>1025.153</ele><time>2010-01-01T03:57:34Z</time></trkpt><trkpt lat="40.670144" lon="-5.770117"><ele>1036.742</ele><time>2010-01-01T03:56:38Z</time></trkpt><trkpt lat="40.670376" lon="-5.770117"><ele>1037.717</ele><time>2010-01-01T03:56:28Z</time></trkpt><trkpt lat="40.671802" lon="-5.771120"><ele>1045.789</ele><time>2010-01-01T03:55:23Z</time></trkpt><trkpt lat="40.672197" lon="-5.771413"><ele>1050.292</ele><time>2010-01-01T03:55:05Z</time></trkpt><trkpt lat="40.672470" lon="-5.771503"><ele>1050.868</ele><time>2010-01-01T03:54:54Z</time></trkpt><trkpt lat="40.673020" lon="-5.771578"><ele>1051.459</ele><time>2010-01-01T03:54:32Z</time></trkpt><trkpt lat="40.674740" lon="-5.771344"><ele>1060.133</ele><time>2010-01-01T03:53:23Z</time></trkpt><trkpt lat="40.675338" lon="-5.771497"><ele>1061.423</ele><time>2010-01-01T03:52:58Z</time></trkpt><trkpt lat="40.675767" lon="-5.771599"><ele>1063.315</ele><time>2010-01-01T03:52:41Z</time></trkpt><trkpt lat="40.676454" lon="-5.771766"><ele>1068.609</ele><time>2010-01-01T03:52:13Z</time></trkpt><trkpt lat="40.678534" lon="-5.772302"><ele>1078.844</ele><time>2010-01-01T03:50:48Z</time></trkpt><trkpt lat="40.682503" lon="-5.771584"><ele>1097.054</ele><time>2010-01-01T03:48:07Z</time></trkpt><trkpt lat="40.682981" lon="-5.771503"><ele>1098.721</ele><time>2010-01-01T03:47:48Z</time></trkpt><trkpt lat="40.684668" lon="-5.771506"><ele>1093.860</ele><time>2010-01-01T03:46:41Z</time></trkpt><trkpt lat="40.686980" lon="-5.771275"><ele>1073.665</ele><time>2010-01-01T03:45:08Z</time></trkpt><trkpt lat="40.689515" lon="-5.771620"><ele>1058.277</ele><time>2010-01-01T03:43:26Z</time></trkpt><trkpt lat="40.689774" lon="-5.771515"><ele>1055.570</ele><time>2010-01-01T03:43:15Z</time></trkpt><trkpt lat="40.689903" lon="-5.771015"><ele>1051.286</ele><time>2010-01-01T03:42:58Z</time></trkpt><trkpt lat="40.689693" lon="-5.769725"><ele>1044.257</ele><time>2010-01-01T03:42:18Z</time></trkpt><trkpt lat="40.689667" lon="-5.769328"><ele>1041.655</ele><time>2010-01-01T03:42:06Z</time></trkpt><trkpt lat="40.689859" lon="-5.768834"><ele>1039.307</ele><time>2010-01-01T03:41:49Z</time></trkpt><trkpt lat="40.690481" lon="-5.768062"><ele>1034.017</ele><time>2010-01-01T03:41:15Z</time></trkpt><trkpt lat="40.690796" lon="-5.767707"><ele>1031.809</ele><time>2010-01-01T03:40:58Z</time></trkpt><trkpt lat="40.694383" lon="-5.766989"><ele>1008.476</ele><time>2010-01-01T03:38:32Z</time></trkpt><trkpt lat="40.695413" lon="-5.766661"><ele>1002.036</ele><time>2010-01-01T03:37:50Z</time></trkpt><trkpt lat="40.702221" lon="-5.764389"><ele>983.813</ele><time>2010-01-01T03:33:08Z</time></trkpt><trkpt lat="40.713268" lon="-5.765966"><ele>990.552</ele><time>2010-01-01T03:25:43Z</time></trkpt><trkpt lat="40.714129" lon="-5.766089"><ele>998.947</ele><time>2010-01-01T03:25:09Z</time></trkpt><trkpt lat="40.721646" lon="-5.766188"><ele>976.999</ele><time>2010-01-01T03:20:08Z</time></trkpt><trkpt lat="40.722262" lon="-5.765311"><ele>972.752</ele><time>2010-01-01T03:19:31Z</time></trkpt><trkpt lat="40.722568" lon="-5.765062"><ele>970.398</ele><time>2010-01-01T03:19:17Z</time></trkpt><trkpt lat="40.728065" lon="-5.761815"><ele>954.079</ele><time>2010-01-01T03:15:16Z</time></trkpt><trkpt lat="40.730332" lon="-5.760470"><ele>946.598</ele><time>2010-01-01T03:13:36Z</time></trkpt><trkpt lat="40.734352" lon="-5.758958"><ele>939.615</ele><time>2010-01-01T03:10:49Z</time></trkpt><trkpt lat="40.735056" lon="-5.759434"><ele>940.226</ele><time>2010-01-01T03:10:17Z</time></trkpt><trkpt lat="40.735832" lon="-5.759452"><ele>943.009</ele><time>2010-01-01T03:09:45Z</time></trkpt><trkpt lat="40.737072" lon="-5.759824"><ele>947.590</ele><time>2010-01-01T03:08:54Z</time></trkpt><trkpt lat="40.737438" lon="-5.759739"><ele>948.880</ele><time>2010-01-01T03:08:39Z</time></trkpt><trkpt lat="40.738702" lon="-5.758967"><ele>950.047</ele><time>2010-01-01T03:07:43Z</time></trkpt><trkpt lat="40.740025" lon="-5.758181"><ele>954.696</ele><time>2010-01-01T03:06:45Z</time></trkpt><trkpt lat="40.740284" lon="-5.758015"><ele>955.281</ele><time>2010-01-01T03:06:34Z</time></trkpt><trkpt lat="40.745785" lon="-5.753152"><ele>986.773</ele><time>2010-01-01T03:01:59Z</time></trkpt><trkpt lat="40.744680" lon="-5.754130"><ele>977.636</ele><time>2010-01-01T03:01:05Z</time></trkpt><trkpt lat="40.744202" lon="-5.754552"><ele>973.212</ele><time>2010-01-01T03:00:42Z</time></trkpt><trkpt lat="40.746323" lon="-5.752664"><ele>989.563</ele><time>2010-01-01T02:53:38Z</time></trkpt><trkpt lat="40.746730" lon="-5.752332"><ele>989.448</ele><time>2010-01-01T02:53:19Z</time></trkpt><trkpt lat="40.748194" lon="-5.752143"><ele>987.761</ele><time>2010-01-01T02:52:19Z</time></trkpt><trkpt lat="40.750242" lon="-5.752053"><ele>983.317</ele><time>2010-01-01T02:50:57Z</time></trkpt><trkpt lat="40.755462" lon="-5.750289"><ele>1000.009</ele><time>2010-01-01T02:47:22Z</time></trkpt><trkpt lat="40.757079" lon="-5.749710"><ele>996.665</ele><time>2010-01-01T02:46:15Z</time></trkpt><trkpt lat="40.758551" lon="-5.746967"><ele>987.215</ele><time>2010-01-01T02:44:32Z</time></trkpt><trkpt lat="40.762749" lon="-5.743227"><ele>980.042</ele><time>2010-01-01T02:41:10Z</time></trkpt><trkpt lat="40.765753" lon="-5.740582"><ele>985.761</ele><time>2010-01-01T02:38:45Z</time></trkpt><trkpt lat="40.767045" lon="-5.739435"><ele>985.036</ele><time>2010-01-01T02:37:43Z</time></trkpt><trkpt lat="40.767672" lon="-5.738876"><ele>984.658</ele><time>2010-01-01T02:37:12Z</time></trkpt><trkpt lat="40.775606" lon="-5.731869"><ele>1004.171</ele><time>2010-01-01T02:30:50Z</time></trkpt><trkpt lat="40.779282" lon="-5.728634"><ele>1009.087</ele><time>2010-01-01T02:27:53Z</time></trkpt><trkpt lat="40.779508" lon="-5.728716"><ele>1009.058</ele><time>2010-01-01T02:27:43Z</time></trkpt><trkpt lat="40.779973" lon="-5.729183"><ele>1009.011</ele><time>2010-01-01T02:27:20Z</time></trkpt><trkpt lat="40.780455" lon="-5.729728"><ele>1008.421</ele><time>2010-01-01T02:26:54Z</time></trkpt><trkpt lat="40.781360" lon="-5.732343"><ele>998.703</ele><time>2010-01-01T02:25:27Z</time></trkpt><trkpt lat="40.781484" lon="-5.732711"><ele>997.309</ele><time>2010-01-01T02:25:15Z</time></trkpt><trkpt lat="40.781732" lon="-5.733256"><ele>995.532</ele><time>2010-01-01T02:24:55Z</time></trkpt><trkpt lat="40.782106" lon="-5.733810"><ele>993.612</ele><time>2010-01-01T02:24:33Z</time></trkpt><trkpt lat="40.783804" lon="-5.734974"><ele>986.669</ele><time>2010-01-01T02:23:16Z</time></trkpt><trkpt lat="40.784732" lon="-5.735605"><ele>983.058</ele><time>2010-01-01T02:22:34Z</time></trkpt><trkpt lat="40.785746" lon="-5.736252"><ele>979.833</ele><time>2010-01-01T02:21:49Z</time></trkpt><trkpt lat="40.786116" lon="-5.736491"><ele>979.055</ele><time>2010-01-01T02:21:33Z</time></trkpt><trkpt lat="40.786252" lon="-5.736560"><ele>979.078</ele><time>2010-01-01T02:21:27Z</time></trkpt><trkpt lat="40.787675" lon="-5.736718"><ele>977.394</ele><time>2010-01-01T02:20:30Z</time></trkpt><trkpt lat="40.787944" lon="-5.736749"><ele>976.815</ele><time>2010-01-01T02:20:19Z</time></trkpt><trkpt lat="40.788300" lon="-5.736870"><ele>976.049</ele><time>2010-01-01T02:20:04Z</time></trkpt><trkpt lat="40.788726" lon="-5.737279"><ele>974.402</ele><time>2010-01-01T02:19:43Z</time></trkpt><trkpt lat="40.789138" lon="-5.737916"><ele>971.622</ele><time>2010-01-01T02:19:18Z</time></trkpt><trkpt lat="40.789400" lon="-5.738365"><ele>971.009</ele><time>2010-01-01T02:19:01Z</time></trkpt><trkpt lat="40.789640" lon="-5.738899"><ele>970.735</ele><time>2010-01-01T02:18:40Z</time></trkpt><trkpt lat="40.790311" lon="-5.738635"><ele>972.065</ele><time>2010-01-01T02:18:12Z</time></trkpt><trkpt lat="40.790572" lon="-5.738100"><ele>973.082</ele><time>2010-01-01T02:17:52Z</time></trkpt><trkpt lat="40.790445" lon="-5.737988"><ele>973.061</ele><time>2010-01-01T02:17:46Z</time></trkpt><trkpt lat="40.789990" lon="-5.736511"><ele>976.646</ele><time>2010-01-01T02:16:57Z</time></trkpt><trkpt lat="40.789874" lon="-5.735133"><ele>979.248</ele><time>2010-01-01T02:16:15Z</time></trkpt><trkpt lat="40.789936" lon="-5.729880"><ele>981.581</ele><time>2010-01-01T02:13:36Z</time></trkpt><trkpt lat="40.789772" lon="-5.727703"><ele>980.597</ele><time>2010-01-01T02:12:30Z</time></trkpt><trkpt lat="40.789648" lon="-5.726563"><ele>980.018</ele><time>2010-01-01T02:11:55Z</time></trkpt><trkpt lat="40.789419" lon="-5.725535"><ele>980.081</ele><time>2010-01-01T02:11:22Z</time></trkpt><trkpt lat="40.789408" lon="-5.724929"><ele>980.061</ele><time>2010-01-01T02:11:04Z</time></trkpt><trkpt lat="40.789456" lon="-5.724542"><ele>980.017</ele><time>2010-01-01T02:10:52Z</time></trkpt><trkpt lat="40.792911" lon="-5.720870"><ele>970.309</ele><time>2010-01-01T02:07:54Z</time></trkpt><trkpt lat="40.793507" lon="-5.720224"><ele>970.049</ele><time>2010-01-01T02:07:23Z</time></trkpt><trkpt lat="40.795342" lon="-5.717400"><ele>966.219</ele><time>2010-01-01T02:05:30Z</time></trkpt><trkpt lat="40.796062" lon="-5.716426"><ele>960.366</ele><time>2010-01-01T02:04:49Z</time></trkpt><trkpt lat="40.796700" lon="-5.715811"><ele>960.115</ele><time>2010-01-01T02:04:17Z</time></trkpt><trkpt lat="40.797250" lon="-5.715267"><ele>960.090</ele><time>2010-01-01T02:03:50Z</time></trkpt><trkpt lat="40.798908" lon="-5.712870"><ele>959.042</ele><time>2010-01-01T02:02:11Z</time></trkpt><trkpt lat="40.799455" lon="-5.710585"><ele>955.095</ele><time>2010-01-01T02:00:59Z</time></trkpt><trkpt lat="40.800891" lon="-5.706406"><ele>950.091</ele><time>2010-01-01T01:58:39Z</time></trkpt><trkpt lat="40.801681" lon="-5.704843"><ele>949.512</ele><time>2010-01-01T01:57:42Z</time></trkpt><trkpt lat="40.802767" lon="-5.702846"><ele>942.532</ele><time>2010-01-01T01:56:28Z</time></trkpt><trkpt lat="40.803131" lon="-5.701952"><ele>940.092</ele><time>2010-01-01T01:55:57Z</time></trkpt><trkpt lat="40.803635" lon="-5.701337"><ele>940.211</ele><time>2010-01-01T01:55:30Z</time></trkpt><trkpt lat="40.804117" lon="-5.700664"><ele>940.109</ele><time>2010-01-01T01:55:01Z</time></trkpt><trkpt lat="40.804516" lon="-5.700147"><ele>940.454</ele><time>2010-01-01T01:54:39Z</time></trkpt><trkpt lat="40.804707" lon="-5.699914"><ele>940.134</ele><time>2010-01-01T01:54:29Z</time></trkpt><trkpt lat="40.805481" lon="-5.699274"><ele>937.651</ele><time>2010-01-01T01:53:52Z</time></trkpt><trkpt lat="40.805605" lon="-5.699112"><ele>936.880</ele><time>2010-01-01T01:53:45Z</time></trkpt><trkpt lat="40.806437" lon="-5.698636"><ele>933.815</ele><time>2010-01-01T01:53:08Z</time></trkpt><trkpt lat="40.808162" lon="-5.698226"><ele>931.937</ele><time>2010-01-01T01:51:57Z</time></trkpt><trkpt lat="40.808569" lon="-5.698046"><ele>935.810</ele><time>2010-01-01T01:51:40Z</time></trkpt><trkpt lat="40.811601" lon="-5.695541"><ele>931.556</ele><time>2010-01-01T01:49:17Z</time></trkpt><trkpt lat="40.812663" lon="-5.694778"><ele>931.597</ele><time>2010-01-01T01:48:28Z</time></trkpt><trkpt lat="40.813234" lon="-5.694181"><ele>934.685</ele><time>2010-01-01T01:47:59Z</time></trkpt><trkpt lat="40.816201" lon="-5.692421"><ele>946.089</ele><time>2010-01-01T01:45:49Z</time></trkpt><trkpt lat="40.817371" lon="-5.691173"><ele>950.717</ele><time>2010-01-01T01:44:49Z</time></trkpt><trkpt lat="40.818389" lon="-5.689867"><ele>948.909</ele><time>2010-01-01T01:43:52Z</time></trkpt><trkpt lat="40.819198" lon="-5.688632"><ele>947.369</ele><time>2010-01-01T01:43:02Z</time></trkpt><trkpt lat="40.819597" lon="-5.688219"><ele>945.729</ele><time>2010-01-01T01:42:42Z</time></trkpt><trkpt lat="40.819869" lon="-5.688013"><ele>944.696</ele><time>2010-01-01T01:42:29Z</time></trkpt><trkpt lat="40.821699" lon="-5.687276"><ele>940.265</ele><time>2010-01-01T01:41:13Z</time></trkpt><trkpt lat="40.822214" lon="-5.687070"><ele>938.540</ele><time>2010-01-01T01:40:51Z</time></trkpt><trkpt lat="40.823192" lon="-5.686329"><ele>930.482</ele><time>2010-01-01T01:40:06Z</time></trkpt><trkpt lat="40.824289" lon="-5.686333"><ele>924.885</ele><time>2010-01-01T01:39:22Z</time></trkpt><trkpt lat="40.824731" lon="-5.686082"><ele>924.241</ele><time>2010-01-01T01:39:02Z</time></trkpt><trkpt lat="40.824995" lon="-5.685876"><ele>924.922</ele><time>2010-01-01T01:38:50Z</time></trkpt><trkpt lat="40.825817" lon="-5.684681"><ele>930.088</ele><time>2010-01-01T01:38:01Z</time></trkpt><trkpt lat="40.826113" lon="-5.684228"><ele>931.624</ele><time>2010-01-01T01:37:43Z</time></trkpt><trkpt lat="40.826509" lon="-5.683653"><ele>936.726</ele><time>2010-01-01T01:37:19Z</time></trkpt><trkpt lat="40.827860" lon="-5.682545"><ele>948.209</ele><time>2010-01-01T01:36:16Z</time></trkpt><trkpt lat="40.828916" lon="-5.681876"><ele>958.079</ele><time>2010-01-01T01:35:29Z</time></trkpt><trkpt lat="40.829304" lon="-5.681570"><ele>957.729</ele><time>2010-01-01T01:35:10Z</time></trkpt><trkpt lat="40.829905" lon="-5.680888"><ele>954.066</ele><time>2010-01-01T01:34:39Z</time></trkpt><trkpt lat="40.830695" lon="-5.679878"><ele>949.375</ele><time>2010-01-01T01:33:54Z</time></trkpt><trkpt lat="40.831492" lon="-5.679402"><ele>943.010</ele><time>2010-01-01T01:33:19Z</time></trkpt><trkpt lat="40.833974" lon="-5.678702"><ele>925.432</ele><time>2010-01-01T01:31:38Z</time></trkpt><trkpt lat="40.836702" lon="-5.678298"><ele>914.645</ele><time>2010-01-01T01:29:48Z</time></trkpt><trkpt lat="40.837413" lon="-5.678221"><ele>911.891</ele><time>2010-01-01T01:29:19Z</time></trkpt><trkpt lat="40.839345" lon="-5.678069"><ele>900.492</ele><time>2010-01-01T01:28:01Z</time></trkpt><trkpt lat="40.840523" lon="-5.678307"><ele>892.249</ele><time>2010-01-01T01:27:14Z</time></trkpt><trkpt lat="40.840898" lon="-5.678338"><ele>890.802</ele><time>2010-01-01T01:26:58Z</time></trkpt><trkpt lat="40.842173" lon="-5.677458"><ele>882.422</ele><time>2010-01-01T01:26:01Z</time></trkpt><trkpt lat="40.842933" lon="-5.676569"><ele>880.009</ele><time>2010-01-01T01:25:20Z</time></trkpt><trkpt lat="40.843229" lon="-5.676452"><ele>880.555</ele><time>2010-01-01T01:25:08Z</time></trkpt><trkpt lat="40.843560" lon="-5.676255"><ele>881.965</ele><time>2010-01-01T01:24:53Z</time></trkpt><trkpt lat="40.844161" lon="-5.675550"><ele>880.182</ele><time>2010-01-01T01:24:20Z</time></trkpt><trkpt lat="40.844347" lon="-5.675523"><ele>879.471</ele><time>2010-01-01T01:24:12Z</time></trkpt><trkpt lat="40.845024" lon="-5.676569"><ele>881.216</ele><time>2010-01-01T01:23:31Z</time></trkpt><trkpt lat="40.845455" lon="-5.676969"><ele>884.258</ele><time>2010-01-01T01:23:09Z</time></trkpt><trkpt lat="40.845681" lon="-5.677099"><ele>885.381</ele><time>2010-01-01T01:23:00Z</time></trkpt><trkpt lat="40.849565" lon="-5.678396"><ele>900.047</ele><time>2010-01-01T01:20:19Z</time></trkpt><trkpt lat="40.851635" lon="-5.679523"><ele>901.538</ele><time>2010-01-01T01:18:49Z</time></trkpt><trkpt lat="40.853152" lon="-5.680246"><ele>915.074</ele><time>2010-01-01T01:17:44Z</time></trkpt><trkpt lat="40.854634" lon="-5.681166"><ele>908.156</ele><time>2010-01-01T01:16:39Z</time></trkpt><trkpt lat="40.855580" lon="-5.681647"><ele>899.821</ele><time>2010-01-01T01:15:58Z</time></trkpt><trkpt lat="40.857693" lon="-5.682015"><ele>883.709</ele><time>2010-01-01T01:14:33Z</time></trkpt><trkpt lat="40.858404" lon="-5.682329"><ele>887.438</ele><time>2010-01-01T01:14:02Z</time></trkpt><trkpt lat="40.858798" lon="-5.682805"><ele>888.368</ele><time>2010-01-01T01:13:41Z</time></trkpt><trkpt lat="40.858857" lon="-5.683137"><ele>888.185</ele><time>2010-01-01T01:13:31Z</time></trkpt><trkpt lat="40.859113" lon="-5.684111"><ele>890.684</ele><time>2010-01-01T01:12:59Z</time></trkpt><trkpt lat="40.859288" lon="-5.684264"><ele>890.649</ele><time>2010-01-01T01:12:51Z</time></trkpt><trkpt lat="40.859445" lon="-5.684452"><ele>890.031</ele><time>2010-01-01T01:12:42Z</time></trkpt><trkpt lat="40.859854" lon="-5.684973"><ele>890.084</ele><time>2010-01-01T01:12:20Z</time></trkpt><trkpt lat="40.864648" lon="-5.688681"><ele>879.090</ele><time>2010-01-01T01:08:37Z</time></trkpt><trkpt lat="40.865416" lon="-5.689090"><ele>880.081</ele><time>2010-01-01T01:08:04Z</time></trkpt><trkpt lat="40.868044" lon="-5.689597"><ele>870.061</ele><time>2010-01-01T01:06:18Z</time></trkpt><trkpt lat="40.875401" lon="-5.688372"><ele>857.121</ele><time>2010-01-01T01:01:21Z</time></trkpt><trkpt lat="40.886370" lon="-5.686567"><ele>830.013</ele><time>2010-01-01T00:53:58Z</time></trkpt><trkpt lat="40.888480" lon="-5.686019"><ele>828.709</ele><time>2010-01-01T00:52:32Z</time></trkpt><trkpt lat="40.889833" lon="-5.685687"><ele>819.047</ele><time>2010-01-01T00:51:37Z</time></trkpt><trkpt lat="40.890876" lon="-5.685858"><ele>819.087</ele><time>2010-01-01T00:50:55Z</time></trkpt><trkpt lat="40.894457" lon="-5.684331"><ele>818.294</ele><time>2010-01-01T00:48:24Z</time></trkpt><trkpt lat="40.895172" lon="-5.683761"><ele>824.563</ele><time>2010-01-01T00:47:50Z</time></trkpt><trkpt lat="40.896179" lon="-5.682908"><ele>820.388</ele><time>2010-01-01T00:47:02Z</time></trkpt><trkpt lat="40.896363" lon="-5.682931"><ele>819.550</ele><time>2010-01-01T00:46:55Z</time></trkpt><trkpt lat="40.896595" lon="-5.683415"><ele>822.923</ele><time>2010-01-01T00:46:37Z</time></trkpt><trkpt lat="40.896845" lon="-5.683460"><ele>823.789</ele><time>2010-01-01T00:46:27Z</time></trkpt><trkpt lat="40.899489" lon="-5.683088"><ele>820.010</ele><time>2010-01-01T00:44:40Z</time></trkpt><trkpt lat="40.901362" lon="-5.682832"><ele>820.048</ele><time>2010-01-01T00:43:25Z</time></trkpt><trkpt lat="40.904343" lon="-5.681624"><ele>813.061</ele><time>2010-01-01T00:41:20Z</time></trkpt><trkpt lat="40.906620" lon="-5.681103"><ele>810.217</ele><time>2010-01-01T00:39:47Z</time></trkpt><trkpt lat="40.907315" lon="-5.681117"><ele>810.009</ele><time>2010-01-01T00:39:19Z</time></trkpt><trkpt lat="40.908272" lon="-5.681166"><ele>810.035</ele><time>2010-01-01T00:38:41Z</time></trkpt><trkpt lat="40.909735" lon="-5.680726"><ele>809.085</ele><time>2010-01-01T00:37:41Z</time></trkpt><trkpt lat="40.911240" lon="-5.680567"><ele>809.092</ele><time>2010-01-01T00:36:40Z</time></trkpt><trkpt lat="40.912281" lon="-5.680361"><ele>810.471</ele><time>2010-01-01T00:35:58Z</time></trkpt><trkpt lat="40.913574" lon="-5.680563"><ele>816.986</ele><time>2010-01-01T00:35:06Z</time></trkpt><trkpt lat="40.914084" lon="-5.680356"><ele>818.748</ele><time>2010-01-01T00:34:44Z</time></trkpt><trkpt lat="40.915312" lon="-5.680285"><ele>824.241</ele><time>2010-01-01T00:33:54Z</time></trkpt><trkpt lat="40.915533" lon="-5.680289"><ele>825.027</ele><time>2010-01-01T00:33:46Z</time></trkpt><trkpt lat="40.916973" lon="-5.680487"><ele>836.478</ele><time>2010-01-01T00:32:47Z</time></trkpt><trkpt lat="40.917175" lon="-5.680549"><ele>838.527</ele><time>2010-01-01T00:32:39Z</time></trkpt><trkpt lat="40.917307" lon="-5.680796"><ele>839.868</ele><time>2010-01-01T00:32:29Z</time></trkpt><trkpt lat="40.917388" lon="-5.680868"><ele>840.014</ele><time>2010-01-01T00:32:25Z</time></trkpt><trkpt lat="40.917733" lon="-5.680846"><ele>840.009</ele><time>2010-01-01T00:32:12Z</time></trkpt><trkpt lat="40.918107" lon="-5.680451"><ele>834.233</ele><time>2010-01-01T00:31:52Z</time></trkpt><trkpt lat="40.919083" lon="-5.679764"><ele>833.623</ele><time>2010-01-01T00:31:08Z</time></trkpt><trkpt lat="40.921597" lon="-5.678709"><ele>829.390</ele><time>2010-01-01T00:29:22Z</time></trkpt><trkpt lat="40.922036" lon="-5.678462"><ele>827.749</ele><time>2010-01-01T00:29:03Z</time></trkpt><trkpt lat="40.924971" lon="-5.677461"><ele>820.034</ele><time>2010-01-01T00:27:02Z</time></trkpt><trkpt lat="40.929000" lon="-5.676424"><ele>811.746</ele><time>2010-01-01T00:24:17Z</time></trkpt><trkpt lat="40.929294" lon="-5.676392"><ele>811.069</ele><time>2010-01-01T00:24:05Z</time></trkpt><trkpt lat="40.930146" lon="-5.676159"><ele>810.055</ele><time>2010-01-01T00:23:30Z</time></trkpt><trkpt lat="40.931814" lon="-5.675301"><ele>809.016</ele><time>2010-01-01T00:22:19Z</time></trkpt><trkpt lat="40.932172" lon="-5.675086"><ele>808.273</ele><time>2010-01-01T00:22:03Z</time></trkpt><trkpt lat="40.933126" lon="-5.674924"><ele>805.785</ele><time>2010-01-01T00:21:24Z</time></trkpt><trkpt lat="40.933258" lon="-5.674902"><ele>805.613</ele><time>2010-01-01T00:21:19Z</time></trkpt><trkpt lat="40.933234" lon="-5.674498"><ele>804.509</ele><time>2010-01-01T00:21:07Z</time></trkpt><trkpt lat="40.933509" lon="-5.673986"><ele>801.728</ele><time>2010-01-01T00:20:47Z</time></trkpt><trkpt lat="40.935560" lon="-5.673869"><ele>800.078</ele><time>2010-01-01T00:19:24Z</time></trkpt><trkpt lat="40.936810" lon="-5.673340"><ele>800.095</ele><time>2010-01-01T00:18:31Z</time></trkpt><trkpt lat="40.937584" lon="-5.673106"><ele>795.694</ele><time>2010-01-01T00:18:00Z</time></trkpt><trkpt lat="40.939936" lon="-5.672644"><ele>794.319</ele><time>2010-01-01T00:16:23Z</time></trkpt><trkpt lat="40.940238" lon="-5.673223"><ele>790.491</ele><time>2010-01-01T00:16:02Z</time></trkpt><trkpt lat="40.941101" lon="-5.673903"><ele>790.024</ele><time>2010-01-01T00:15:21Z</time></trkpt><trkpt lat="40.941313" lon="-5.674113"><ele>789.130</ele><time>2010-01-01T00:15:11Z</time></trkpt><trkpt lat="40.941965" lon="-5.674762"><ele>786.871</ele><time>2010-01-01T00:14:38Z</time></trkpt><trkpt lat="40.941970" lon="-5.674984"><ele>786.044</ele><time>2010-01-01T00:14:31Z</time></trkpt><trkpt lat="40.942125" lon="-5.675082"><ele>784.905</ele><time>2010-01-01T00:14:24Z</time></trkpt><trkpt lat="40.942242" lon="-5.675043"><ele>784.515</ele><time>2010-01-01T00:14:19Z</time></trkpt><trkpt lat="40.942418" lon="-5.674609"><ele>785.309</ele><time>2010-01-01T00:14:03Z</time></trkpt><trkpt lat="40.944195" lon="-5.672769"><ele>789.185</ele><time>2010-01-01T00:12:33Z</time></trkpt><trkpt lat="40.944565" lon="-5.671856"><ele>800.015</ele><time>2010-01-01T00:12:01Z</time></trkpt><trkpt lat="40.944588" lon="-5.671581"><ele>803.642</ele><time>2010-01-01T00:11:53Z</time></trkpt><trkpt lat="40.944611" lon="-5.671227"><ele>807.771</ele><time>2010-01-01T00:11:42Z</time></trkpt><trkpt lat="40.944746" lon="-5.669836"><ele>807.976</ele><time>2010-01-01T00:11:00Z</time></trkpt><trkpt lat="40.944733" lon="-5.669503"><ele>807.288</ele><time>2010-01-01T00:10:47Z</time></trkpt><trkpt lat="40.949871" lon="-5.670315"><ele>800.011</ele><time>2010-01-01T00:07:20Z</time></trkpt><trkpt lat="40.953038" lon="-5.669923"><ele>790.047</ele><time>2010-01-01T00:05:12Z</time></trkpt><trkpt lat="40.953719" lon="-5.669806"><ele>787.448</ele><time>2010-01-01T00:04:45Z</time></trkpt><trkpt lat="40.953968" lon="-5.669890"><ele>784.091</ele><time>2010-01-01T00:04:34Z</time></trkpt><trkpt lat="40.954638" lon="-5.669782"><ele>779.281</ele><time>2010-01-01T00:04:06Z</time></trkpt><trkpt lat="40.955292" lon="-5.670225"><ele>776.919</ele><time>2010-01-01T00:03:37Z</time></trkpt><trkpt lat="40.955810" lon="-5.670838"><ele>775.109</ele><time>2010-01-01T00:03:09Z</time></trkpt><trkpt lat="40.955979" lon="-5.671228"><ele>775.720</ele><time>2010-01-01T00:02:55Z</time></trkpt><trkpt lat="40.955997" lon="-5.671715"><ele>776.180</ele><time>2010-01-01T00:02:40Z</time></trkpt><trkpt lat="40.956236" lon="-5.671623"><ele>775.597</ele><time>2010-01-01T00:02:29Z</time></trkpt><trkpt lat="40.956156" lon="-5.671344"><ele>775.726</ele><time>2010-01-01T00:02:20Z</time></trkpt><trkpt lat="40.959348" lon="-5.669058"><ele>783.061</ele><time>2010-01-01T06:48:44Z</time></trkpt><trkpt lat="40.959412" lon="-5.668652"><ele>784.633</ele><time>2010-01-01T06:48:31Z</time></trkpt><trkpt lat="40.959414" lon="-5.667955"><ele>786.686</ele><time>2010-01-01T06:48:10Z</time></trkpt><trkpt lat="40.959504" lon="-5.667680"><ele>789.312</ele><time>2010-01-01T06:48:01Z</time></trkpt><trkpt lat="40.959874" lon="-5.667129"><ele>798.843</ele><time>2010-01-01T06:47:38Z</time></trkpt><trkpt lat="40.960341" lon="-5.666907"><ele>800.056</ele><time>2010-01-01T06:47:17Z</time></trkpt><trkpt lat="40.960632" lon="-5.667063"><ele>800.059</ele><time>2010-01-01T06:47:02Z</time></trkpt><trkpt lat="40.963282" lon="-5.665136"><ele>800.014</ele><time>2010-01-01T06:45:01Z</time></trkpt><trkpt lat="40.964004" lon="-5.664633"><ele>801.009</ele><time>2010-01-01T06:44:29Z</time></trkpt><trkpt lat="40.964087" lon="-5.664744"><ele>800.996</ele><time>2010-01-01T06:44:24Z</time></trkpt><trkpt lat="40.964448" lon="-5.664791"><ele>800.866</ele><time>2010-01-01T06:44:08Z</time></trkpt><trkpt lat="40.964745" lon="-5.664558"><ele>801.093</ele><time>2010-01-01T06:43:54Z</time></trkpt><trkpt lat="40.964991" lon="-5.664079"><ele>801.052</ele><time>2010-01-01T06:43:37Z</time></trkpt><trkpt lat="40.965357" lon="-5.663947"><ele>801.047</ele><time>2010-01-01T06:43:22Z</time></trkpt><trkpt lat="40.966642" lon="-5.664082"><ele>801.019</ele><time>2010-01-01T06:42:30Z</time></trkpt><trkpt lat="40.966854" lon="-5.664145"><ele>801.052</ele><time>2010-01-01T06:42:21Z</time></trkpt><trkpt lat="40.968390" lon="-5.663798"><ele>804.948</ele><time>2010-01-01T06:41:19Z</time></trkpt><trkpt lat="40.969109" lon="-5.663663"><ele>808.889</ele><time>2010-01-01T06:40:50Z</time></trkpt><trkpt lat="40.969901" lon="-5.663591"><ele>810.035</ele><time>2010-01-01T06:40:18Z</time></trkpt><trkpt lat="40.969797" lon="-5.664573"><ele>809.086</ele><time>2010-01-01T06:39:48Z</time></trkpt><trkpt lat="40.969965" lon="-5.664611"><ele>809.014</ele><time>2010-01-01T06:39:41Z</time></trkpt><trkpt lat="40.970601" lon="-5.664156"><ele>810.209</ele><time>2010-01-01T06:39:12Z</time></trkpt><trkpt lat="40.971240" lon="-5.663815"><ele>812.524</ele><time>2010-01-01T06:38:44Z</time></trkpt><trkpt lat="40.972216" lon="-5.663321"><ele>817.084</ele><time>2010-01-01T06:38:02Z</time></trkpt><trkpt lat="40.972503" lon="-5.663390"><ele>817.071</ele><time>2010-01-01T06:37:50Z</time></trkpt><trkpt lat="40.972785" lon="-5.663109"><ele>818.020</ele><time>2010-01-01T06:37:35Z</time></trkpt><trkpt lat="40.974433" lon="-5.662851"><ele>820.075</ele><time>2010-01-01T06:36:28Z</time></trkpt><trkpt lat="40.975811" lon="-5.662749"><ele>820.097</ele><time>2010-01-01T06:35:33Z</time></trkpt><trkpt lat="40.980410" lon="-5.663581"><ele>830.460</ele><time>2010-01-01T06:32:27Z</time></trkpt><trkpt lat="40.985392" lon="-5.664440"><ele>840.026</ele><time>2010-01-01T06:29:06Z</time></trkpt><trkpt lat="40.990391" lon="-5.665314"><ele>827.767</ele><time>2010-01-01T06:25:44Z</time></trkpt><trkpt lat="40.992105" lon="-5.665587"><ele>822.419</ele><time>2010-01-01T06:24:35Z</time></trkpt><trkpt lat="40.992471" lon="-5.665829"><ele>821.109</ele><time>2010-01-01T06:24:18Z</time></trkpt><trkpt lat="40.993077" lon="-5.665835"><ele>819.919</ele><time>2010-01-01T06:23:52Z</time></trkpt><trkpt lat="40.993102" lon="-5.665638"><ele>819.809</ele><time>2010-01-01T06:23:46Z</time></trkpt><trkpt lat="40.996023" lon="-5.666161"><ele>810.352</ele><time>2010-01-01T06:21:48Z</time></trkpt><trkpt lat="40.996005" lon="-5.666350"><ele>810.452</ele><time>2010-01-01T06:21:42Z</time></trkpt><trkpt lat="40.996528" lon="-5.666365"><ele>810.049</ele><time>2010-01-01T06:21:21Z</time></trkpt><trkpt lat="40.997889" lon="-5.666633"><ele>810.068</ele><time>2010-01-01T06:20:25Z</time></trkpt><trkpt lat="40.998121" lon="-5.666840"><ele>810.043</ele><time>2010-01-01T06:20:13Z</time></trkpt><trkpt lat="40.998119" lon="-5.666939"><ele>810.085</ele><time>2010-01-01T06:20:10Z</time></trkpt><trkpt lat="40.998397" lon="-5.667408"><ele>810.038</ele><time>2010-01-01T06:19:52Z</time></trkpt><trkpt lat="40.998548" lon="-5.667466"><ele>810.024</ele><time>2010-01-01T06:19:45Z</time></trkpt><trkpt lat="40.999723" lon="-5.666860"><ele>810.055</ele><time>2010-01-01T06:18:54Z</time></trkpt><trkpt lat="41.000181" lon="-5.666945"><ele>812.449</ele><time>2010-01-01T06:18:35Z</time></trkpt><trkpt lat="41.001879" lon="-5.667363"><ele>808.202</ele><time>2010-01-01T06:17:26Z</time></trkpt><trkpt lat="41.002051" lon="-5.667587"><ele>806.222</ele><time>2010-01-01T06:17:16Z</time></trkpt><trkpt lat="41.002353" lon="-5.667592"><ele>805.309</ele><time>2010-01-01T06:17:03Z</time></trkpt><trkpt lat="41.002728" lon="-5.667444"><ele>805.225</ele><time>2010-01-01T06:16:46Z</time></trkpt><trkpt lat="41.004121" lon="-5.667695"><ele>807.655</ele><time>2010-01-01T06:15:50Z</time></trkpt><trkpt lat="41.004555" lon="-5.667767"><ele>807.622</ele><time>2010-01-01T06:15:32Z</time></trkpt><trkpt lat="41.006334" lon="-5.668072"><ele>802.151</ele><time>2010-01-01T06:14:20Z</time></trkpt><trkpt lat="41.007762" lon="-5.668337"><ele>804.076</ele><time>2010-01-01T06:13:23Z</time></trkpt><trkpt lat="41.009066" lon="-5.668925"><ele>807.188</ele><time>2010-01-01T06:12:27Z</time></trkpt><trkpt lat="41.011144" lon="-5.669684"><ele>806.641</ele><time>2010-01-01T06:11:01Z</time></trkpt><trkpt lat="41.013254" lon="-5.670110"><ele>799.647</ele><time>2010-01-01T06:09:35Z</time></trkpt><trkpt lat="41.015497" lon="-5.670537"><ele>813.198</ele><time>2010-01-01T06:08:05Z</time></trkpt><trkpt lat="41.019070" lon="-5.671251"><ele>813.738</ele><time>2010-01-01T06:05:39Z</time></trkpt><trkpt lat="41.020207" lon="-5.670981"><ele>816.570</ele><time>2010-01-01T06:04:52Z</time></trkpt><trkpt lat="41.021169" lon="-5.670995"><ele>815.117</ele><time>2010-01-01T06:04:13Z</time></trkpt><trkpt lat="41.022927" lon="-5.671543"><ele>815.109</ele><time>2010-01-01T06:03:00Z</time></trkpt><trkpt lat="41.023234" lon="-5.671085"><ele>814.074</ele><time>2010-01-01T06:02:41Z</time></trkpt><trkpt lat="41.023921" lon="-5.671336"><ele>814.114</ele><time>2010-01-01T06:02:12Z</time></trkpt><trkpt lat="41.025778" lon="-5.671399"><ele>821.071</ele><time>2010-01-01T06:00:58Z</time></trkpt><trkpt lat="41.026826" lon="-5.671385"><ele>821.050</ele><time>2010-01-01T06:00:16Z</time></trkpt><trkpt lat="41.030117" lon="-5.671264"><ele>819.525</ele><time>2010-01-01T05:58:04Z</time></trkpt><trkpt lat="41.031011" lon="-5.671493"><ele>816.267</ele><time>2010-01-01T05:57:27Z</time></trkpt><trkpt lat="41.031685" lon="-5.671592"><ele>809.120</ele><time>2010-01-01T05:57:00Z</time></trkpt><trkpt lat="41.031963" lon="-5.671511"><ele>806.566</ele><time>2010-01-01T05:56:48Z</time></trkpt><trkpt lat="41.032332" lon="-5.671336"><ele>804.887</ele><time>2010-01-01T05:56:33Z</time></trkpt><trkpt lat="41.032507" lon="-5.671358"><ele>804.174</ele><time>2010-01-01T05:56:26Z</time></trkpt><trkpt lat="41.034598" lon="-5.672382"><ele>797.756</ele><time>2010-01-01T05:54:56Z</time></trkpt><trkpt lat="41.034965" lon="-5.672804"><ele>796.121</ele><time>2010-01-01T05:54:37Z</time></trkpt><trkpt lat="41.035383" lon="-5.673365"><ele>789.509</ele><time>2010-01-01T05:54:13Z</time></trkpt><trkpt lat="41.035822" lon="-5.673482"><ele>788.098</ele><time>2010-01-01T05:53:55Z</time></trkpt><trkpt lat="41.036118" lon="-5.673320"><ele>788.168</ele><time>2010-01-01T05:53:41Z</time></trkpt><trkpt lat="41.036878" lon="-5.673397"><ele>783.565</ele><time>2010-01-01T05:53:10Z</time></trkpt><trkpt lat="41.037471" lon="-5.674075"><ele>787.534</ele><time>2010-01-01T05:52:39Z</time></trkpt><trkpt lat="41.037781" lon="-5.674200"><ele>791.099</ele><time>2010-01-01T05:52:26Z</time></trkpt><trkpt lat="41.038156" lon="-5.674559"><ele>792.391</ele><time>2010-01-01T05:52:06Z</time></trkpt><trkpt lat="41.039344" lon="-5.674954"><ele>800.474</ele><time>2010-01-01T05:51:16Z</time></trkpt><trkpt lat="41.039999" lon="-5.675417"><ele>804.560</ele><time>2010-01-01T05:50:46Z</time></trkpt><trkpt lat="41.042085" lon="-5.676651"><ele>815.071</ele><time>2010-01-01T05:49:15Z</time></trkpt><trkpt lat="41.043152" lon="-5.677136"><ele>816.169</ele><time>2010-01-01T05:48:29Z</time></trkpt><trkpt lat="41.044427" lon="-5.677850"><ele>817.004</ele><time>2010-01-01T05:47:33Z</time></trkpt><trkpt lat="41.044408" lon="-5.677949"><ele>817.024</ele><time>2010-01-01T05:47:30Z</time></trkpt><trkpt lat="41.044343" lon="-5.678689"><ele>818.909</ele><time>2010-01-01T05:47:07Z</time></trkpt><trkpt lat="41.045597" lon="-5.682092"><ele>817.217</ele><time>2010-01-01T05:45:12Z</time></trkpt><trkpt lat="41.045731" lon="-5.682447"><ele>814.167</ele><time>2010-01-01T05:45:00Z</time></trkpt><trkpt lat="41.045985" lon="-5.682986"><ele>811.644</ele><time>2010-01-01T05:44:41Z</time></trkpt><trkpt lat="41.047925" lon="-5.685917"><ele>815.653</ele><time>2010-01-01T05:42:43Z</time></trkpt><trkpt lat="41.048291" lon="-5.687960"><ele>820.028</ele><time>2010-01-01T05:41:40Z</time></trkpt><trkpt lat="41.048531" lon="-5.688575"><ele>819.010</ele><time>2010-01-01T05:41:19Z</time></trkpt><trkpt lat="41.049286" lon="-5.690546"><ele>823.923</ele><time>2010-01-01T05:40:11Z</time></trkpt><trkpt lat="41.049499" lon="-5.691358"><ele>826.029</ele><time>2010-01-01T05:39:46Z</time></trkpt><trkpt lat="41.049992" lon="-5.692171"><ele>828.010</ele><time>2010-01-01T05:39:14Z</time></trkpt><trkpt lat="41.051286" lon="-5.693850"><ele>829.975</ele><time>2010-01-01T05:38:01Z</time></trkpt><trkpt lat="41.051156" lon="-5.693940"><ele>830.028</ele><time>2010-01-01T05:37:56Z</time></trkpt><trkpt lat="41.050997" lon="-5.693998"><ele>829.820</ele><time>2010-01-01T05:37:49Z</time></trkpt><trkpt lat="41.051337" lon="-5.694353"><ele>830.809</ele><time>2010-01-01T05:37:32Z</time></trkpt><trkpt lat="41.051237" lon="-5.694703"><ele>829.918</ele><time>2010-01-01T05:37:20Z</time></trkpt><trkpt lat="41.051916" lon="-5.695076"><ele>828.868</ele><time>2010-01-01T05:36:51Z</time></trkpt><trkpt lat="41.052962" lon="-5.696009"><ele>825.125</ele><time>2010-01-01T05:35:58Z</time></trkpt><trkpt lat="41.053099" lon="-5.695982"><ele>824.964</ele><time>2010-01-01T05:35:49Z</time></trkpt><trkpt lat="41.054018" lon="-5.697334"><ele>827.789</ele><time>2010-01-01T05:34:53Z</time></trkpt><trkpt lat="41.054724" lon="-5.697819"><ele>831.111</ele><time>2010-01-01T05:34:22Z</time></trkpt><trkpt lat="41.055077" lon="-5.698043"><ele>831.464</ele><time>2010-01-01T05:34:06Z</time></trkpt><trkpt lat="41.057975" lon="-5.699996"><ele>830.090</ele><time>2010-01-01T05:31:56Z</time></trkpt><trkpt lat="41.060284" lon="-5.701518"><ele>825.021</ele><time>2010-01-01T05:30:13Z</time></trkpt><trkpt lat="41.061114" lon="-5.702065"><ele>820.031</ele><time>2010-01-01T05:29:36Z</time></trkpt><trkpt lat="41.061357" lon="-5.702218"><ele>820.961</ele><time>2010-01-01T05:29:25Z</time></trkpt><trkpt lat="41.062510" lon="-5.701913"><ele>824.007</ele><time>2010-01-01T05:28:38Z</time></trkpt><trkpt lat="41.064688" lon="-5.701289"><ele>822.609</ele><time>2010-01-01T05:27:08Z</time></trkpt><trkpt lat="41.066111" lon="-5.701262"><ele>816.584</ele><time>2010-01-01T05:26:11Z</time></trkpt><trkpt lat="41.067563" lon="-5.701271"><ele>817.864</ele><time>2010-01-01T05:25:13Z</time></trkpt><trkpt lat="41.068509" lon="-5.701271"><ele>816.061</ele><time>2010-01-01T05:24:36Z</time></trkpt><trkpt lat="41.070131" lon="-5.701262"><ele>812.190</ele><time>2010-01-01T05:23:31Z</time></trkpt><trkpt lat="41.073304" lon="-5.701248"><ele>812.985</ele><time>2010-01-01T05:21:24Z</time></trkpt><trkpt lat="41.074848" lon="-5.701257"><ele>807.897</ele><time>2010-01-01T05:20:22Z</time></trkpt><trkpt lat="41.075910" lon="-5.701244"><ele>808.530</ele><time>2010-01-01T05:19:39Z</time></trkpt><trkpt lat="41.076430" lon="-5.701248"><ele>806.976</ele><time>2010-01-01T05:19:18Z</time></trkpt><trkpt lat="41.078408" lon="-5.701222"><ele>805.137</ele><time>2010-01-01T05:17:59Z</time></trkpt><trkpt lat="41.078575" lon="-5.701253"><ele>805.412</ele><time>2010-01-01T05:17:52Z</time></trkpt><trkpt lat="41.081631" lon="-5.702133"><ele>810.132</ele><time>2010-01-01T05:15:47Z</time></trkpt><trkpt lat="41.085552" lon="-5.703112"><ele>802.205</ele><time>2010-01-01T05:13:07Z</time></trkpt><trkpt lat="41.086460" lon="-5.703219"><ele>800.709</ele><time>2010-01-01T05:12:30Z</time></trkpt><trkpt lat="41.086509" lon="-5.702923"><ele>800.642</ele><time>2010-01-01T05:12:21Z</time></trkpt><trkpt lat="41.086786" lon="-5.703071"><ele>800.052</ele><time>2010-01-01T05:12:09Z</time></trkpt><trkpt lat="41.086859" lon="-5.703340"><ele>800.059</ele><time>2010-01-01T05:12:01Z</time></trkpt><trkpt lat="41.087134" lon="-5.703390"><ele>800.068</ele><time>2010-01-01T05:11:49Z</time></trkpt><trkpt lat="41.088002" lon="-5.703578"><ele>798.263</ele><time>2010-01-01T05:11:14Z</time></trkpt><trkpt lat="41.088053" lon="-5.703448"><ele>798.085</ele><time>2010-01-01T05:11:10Z</time></trkpt><trkpt lat="41.088498" lon="-5.703520"><ele>798.428</ele><time>2010-01-01T05:10:52Z</time></trkpt><trkpt lat="41.088853" lon="-5.703637"><ele>799.074</ele><time>2010-01-01T05:10:37Z</time></trkpt><trkpt lat="41.090605" lon="-5.704548"><ele>808.165</ele><time>2010-01-01T05:09:22Z</time></trkpt><trkpt lat="41.090767" lon="-5.704611"><ele>808.311</ele><time>2010-01-01T05:09:15Z</time></trkpt><trkpt lat="41.097380" lon="-5.706456"><ele>816.821</ele><time>2010-01-01T05:04:45Z</time></trkpt><trkpt lat="41.104899" lon="-5.703269"><ele>826.003</ele><time>2010-01-01T04:59:29Z</time></trkpt><trkpt lat="41.107688" lon="-5.702106"><ele>826.409</ele><time>2010-01-01T04:57:31Z</time></trkpt><trkpt lat="41.109190" lon="-5.701477"><ele>823.972</ele><time>2010-01-01T04:56:28Z</time></trkpt><trkpt lat="41.110025" lon="-5.701064"><ele>822.912</ele><time>2010-01-01T04:55:53Z</time></trkpt><trkpt lat="41.111265" lon="-5.700427"><ele>822.969</ele><time>2010-01-01T04:54:59Z</time></trkpt><trkpt lat="41.111362" lon="-5.699345"><ele>825.028</ele><time>2010-01-01T04:54:26Z</time></trkpt><trkpt lat="41.113946" lon="-5.699246"><ele>817.243</ele><time>2010-01-01T04:52:43Z</time></trkpt><trkpt lat="41.115693" lon="-5.699439"><ele>823.555</ele><time>2010-01-01T04:51:33Z</time></trkpt><trkpt lat="41.117450" lon="-5.699489"><ele>821.848</ele><time>2010-01-01T04:50:22Z</time></trkpt><trkpt lat="41.118754" lon="-5.699677"><ele>824.134</ele><time>2010-01-01T04:49:30Z</time></trkpt><trkpt lat="41.119471" lon="-5.700041"><ele>821.065</ele><time>2010-01-01T04:48:59Z</time></trkpt><trkpt lat="41.120271" lon="-5.701441"><ele>819.048</ele><time>2010-01-01T04:48:05Z</time></trkpt><trkpt lat="41.120845" lon="-5.701819"><ele>820.061</ele><time>2010-01-01T04:47:40Z</time></trkpt><trkpt lat="41.121336" lon="-5.701823"><ele>820.817</ele><time>2010-01-01T04:47:20Z</time></trkpt><trkpt lat="41.121724" lon="-5.701621"><ele>824.009</ele><time>2010-01-01T04:47:03Z</time></trkpt><trkpt lat="41.121856" lon="-5.701522"><ele>824.065</ele><time>2010-01-01T04:46:57Z</time></trkpt><trkpt lat="41.122708" lon="-5.700351"><ele>820.945</ele><time>2010-01-01T04:46:08Z</time></trkpt><trkpt lat="41.123837" lon="-5.699911"><ele>817.012</ele><time>2010-01-01T04:45:20Z</time></trkpt><trkpt lat="41.125095" lon="-5.699551"><ele>810.141</ele><time>2010-01-01T04:44:29Z</time></trkpt><trkpt lat="41.126074" lon="-5.699493"><ele>808.276</ele><time>2010-01-01T04:43:50Z</time></trkpt><trkpt lat="41.127780" lon="-5.699269"><ele>799.668</ele><time>2010-01-01T04:42:41Z</time></trkpt><trkpt lat="41.130396" lon="-5.698654"><ele>799.631</ele><time>2010-01-01T04:40:55Z</time></trkpt><trkpt lat="41.130819" lon="-5.698461"><ele>798.517</ele><time>2010-01-01T04:40:36Z</time></trkpt><trkpt lat="41.130933" lon="-5.698191"><ele>797.188</ele><time>2010-01-01T04:40:27Z</time></trkpt><trkpt lat="41.131051" lon="-5.698173"><ele>796.632</ele><time>2010-01-01T04:40:22Z</time></trkpt><trkpt lat="41.131498" lon="-5.698106"><ele>796.292</ele><time>2010-01-01T04:40:04Z</time></trkpt><trkpt lat="41.131698" lon="-5.697944"><ele>796.211</ele><time>2010-01-01T04:39:55Z</time></trkpt><trkpt lat="41.132892" lon="-5.697832"><ele>795.709</ele><time>2010-01-01T04:39:05Z</time></trkpt><trkpt lat="41.133466" lon="-5.698128"><ele>796.584</ele><time>2010-01-01T04:38:39Z</time></trkpt><trkpt lat="41.136492" lon="-5.697450"><ele>814.144</ele><time>2010-01-01T04:36:36Z</time></trkpt><trkpt lat="41.138012" lon="-5.697419"><ele>810.981</ele><time>2010-01-01T04:35:35Z</time></trkpt><trkpt lat="41.141782" lon="-5.696898"><ele>827.570</ele><time>2010-01-01T04:33:03Z</time></trkpt><trkpt lat="41.143189" lon="-5.696817"><ele>830.095</ele><time>2010-01-01T04:32:07Z</time></trkpt><trkpt lat="41.144310" lon="-5.696728"><ele>829.417</ele><time>2010-01-01T04:31:22Z</time></trkpt><trkpt lat="41.159709" lon="-5.696256"><ele>841.470</ele><time>2010-01-01T04:21:04Z</time></trkpt><trkpt lat="41.159887" lon="-5.696764"><ele>841.076</ele><time>2010-01-01T04:20:47Z</time></trkpt><trkpt lat="41.160181" lon="-5.696867"><ele>841.177</ele><time>2010-01-01T04:20:35Z</time></trkpt><trkpt lat="41.160534" lon="-5.696615"><ele>840.137</ele><time>2010-01-01T04:20:18Z</time></trkpt><trkpt lat="41.161154" lon="-5.696701"><ele>840.449</ele><time>2010-01-01T04:19:53Z</time></trkpt><trkpt lat="41.161811" lon="-5.696193"><ele>843.913</ele><time>2010-01-01T04:19:22Z</time></trkpt><trkpt lat="41.163003" lon="-5.696059"><ele>843.509</ele><time>2010-01-01T04:18:34Z</time></trkpt><trkpt lat="41.176208" lon="-5.695556"><ele>842.324</ele><time>2010-01-01T04:09:45Z</time></trkpt><trkpt lat="41.178132" lon="-5.695745"><ele>853.074</ele><time>2010-01-01T04:08:28Z</time></trkpt><trkpt lat="41.179210" lon="-5.695902"><ele>855.691</ele><time>2010-01-01T04:07:44Z</time></trkpt><trkpt lat="41.180329" lon="-5.696225"><ele>862.930</ele><time>2010-01-01T04:06:58Z</time></trkpt><trkpt lat="41.180498" lon="-5.696795"><ele>868.625</ele><time>2010-01-01T04:06:39Z</time></trkpt><trkpt lat="41.180622" lon="-5.696853"><ele>869.237</ele><time>2010-01-01T04:06:34Z</time></trkpt><trkpt lat="41.180849" lon="-5.696764"><ele>868.280</ele><time>2010-01-01T04:06:24Z</time></trkpt><trkpt lat="41.181072" lon="-5.696279"><ele>864.246</ele><time>2010-01-01T04:06:06Z</time></trkpt><trkpt lat="41.181221" lon="-5.696252"><ele>863.887</ele><time>2010-01-01T04:06:00Z</time></trkpt><trkpt lat="41.184287" lon="-5.696405"><ele>853.525</ele><time>2010-01-01T04:03:57Z</time></trkpt><trkpt lat="41.186972" lon="-5.697100"><ele>858.126</ele><time>2010-01-01T04:02:08Z</time></trkpt><trkpt lat="41.187659" lon="-5.697302"><ele>855.708</ele><time>2010-01-01T04:01:40Z</time></trkpt><trkpt lat="41.188362" lon="-5.697374"><ele>853.809</ele><time>2010-01-01T04:01:11Z</time></trkpt><trkpt lat="41.190173" lon="-5.697998"><ele>846.823</ele><time>2010-01-01T03:59:56Z</time></trkpt><trkpt lat="41.192610" lon="-5.698470"><ele>852.663</ele><time>2010-01-01T03:58:18Z</time></trkpt><trkpt lat="41.193402" lon="-5.698811"><ele>855.840</ele><time>2010-01-01T03:57:44Z</time></trkpt><trkpt lat="41.194359" lon="-5.699049"><ele>857.189</ele><time>2010-01-01T03:57:05Z</time></trkpt><trkpt lat="41.194943" lon="-5.699183"><ele>857.014</ele><time>2010-01-01T03:56:42Z</time></trkpt><trkpt lat="41.200198" lon="-5.700485"><ele>847.376</ele><time>2010-01-01T03:53:07Z</time></trkpt><trkpt lat="41.200287" lon="-5.700791"><ele>847.099</ele><time>2010-01-01T03:52:57Z</time></trkpt><trkpt lat="41.200131" lon="-5.701495"><ele>851.265</ele><time>2010-01-01T03:52:35Z</time></trkpt><trkpt lat="41.200212" lon="-5.701886"><ele>851.056</ele><time>2010-01-01T03:52:23Z</time></trkpt><trkpt lat="41.200406" lon="-5.701958"><ele>850.594</ele><time>2010-01-01T03:52:14Z</time></trkpt><trkpt lat="41.200608" lon="-5.701841"><ele>849.857</ele><time>2010-01-01T03:52:05Z</time></trkpt><trkpt lat="41.200775" lon="-5.700764"><ele>846.822</ele><time>2010-01-01T03:51:32Z</time></trkpt><trkpt lat="41.200964" lon="-5.700620"><ele>846.209</ele><time>2010-01-01T03:51:23Z</time></trkpt><trkpt lat="41.209547" lon="-5.702752"><ele>838.790</ele><time>2010-01-01T03:45:33Z</time></trkpt><trkpt lat="41.209550" lon="-5.703996"><ele>841.290</ele><time>2010-01-01T03:44:55Z</time></trkpt><trkpt lat="41.209836" lon="-5.704185"><ele>840.177</ele><time>2010-01-01T03:44:41Z</time></trkpt><trkpt lat="41.209992" lon="-5.704041"><ele>839.566</ele><time>2010-01-01T03:44:33Z</time></trkpt><trkpt lat="41.210216" lon="-5.702999"><ele>839.461</ele><time>2010-01-01T03:44:00Z</time></trkpt><trkpt lat="41.210482" lon="-5.702914"><ele>839.563</ele><time>2010-01-01T03:43:49Z</time></trkpt><trkpt lat="41.213730" lon="-5.703848"><ele>838.646</ele><time>2010-01-01T03:41:36Z</time></trkpt><trkpt lat="41.216843" lon="-5.704571"><ele>830.432</ele><time>2010-01-01T03:39:29Z</time></trkpt><trkpt lat="41.218214" lon="-5.705150"><ele>833.813</ele><time>2010-01-01T03:38:32Z</time></trkpt><trkpt lat="41.220637" lon="-5.705433"><ele>839.342</ele><time>2010-01-01T03:36:54Z</time></trkpt><trkpt lat="41.221863" lon="-5.705832"><ele>850.422</ele><time>2010-01-01T03:36:03Z</time></trkpt><trkpt lat="41.223408" lon="-5.705976"><ele>854.014</ele><time>2010-01-01T03:35:01Z</time></trkpt><trkpt lat="41.225429" lon="-5.706151"><ele>856.009</ele><time>2010-01-01T03:33:40Z</time></trkpt><trkpt lat="41.226766" lon="-5.706173"><ele>851.885</ele><time>2010-01-01T03:32:46Z</time></trkpt><trkpt lat="41.227628" lon="-5.706546"><ele>860.085</ele><time>2010-01-01T03:32:09Z</time></trkpt><trkpt lat="41.227806" lon="-5.706914"><ele>860.982</ele><time>2010-01-01T03:31:56Z</time></trkpt><trkpt lat="41.228013" lon="-5.706999"><ele>860.121</ele><time>2010-01-01T03:31:47Z</time></trkpt><trkpt lat="41.228426" lon="-5.706434"><ele>859.516</ele><time>2010-01-01T03:31:23Z</time></trkpt><trkpt lat="41.228924" lon="-5.706330"><ele>859.168</ele><time>2010-01-01T03:31:02Z</time></trkpt><trkpt lat="41.230754" lon="-5.706142"><ele>850.351</ele><time>2010-01-01T03:29:49Z</time></trkpt><trkpt lat="41.231697" lon="-5.706241"><ele>847.097</ele><time>2010-01-01T03:29:11Z</time></trkpt><trkpt lat="41.232859" lon="-5.705994"><ele>850.018</ele><time>2010-01-01T03:28:24Z</time></trkpt><trkpt lat="41.233559" lon="-5.705944"><ele>849.361</ele><time>2010-01-01T03:27:56Z</time></trkpt><trkpt lat="41.234864" lon="-5.705859"><ele>852.521</ele><time>2010-01-01T03:27:03Z</time></trkpt><trkpt lat="41.235912" lon="-5.705648"><ele>852.013</ele><time>2010-01-01T03:26:21Z</time></trkpt><trkpt lat="41.236713" lon="-5.705675"><ele>852.609</ele><time>2010-01-01T03:25:48Z</time></trkpt><trkpt lat="41.237513" lon="-5.705859"><ele>853.937</ele><time>2010-01-01T03:25:16Z</time></trkpt><trkpt lat="41.239154" lon="-5.706236"><ele>847.587</ele><time>2010-01-01T03:24:09Z</time></trkpt><trkpt lat="41.240035" lon="-5.706416"><ele>840.894</ele><time>2010-01-01T03:23:34Z</time></trkpt><trkpt lat="41.240553" lon="-5.706600"><ele>838.343</ele><time>2010-01-01T03:23:12Z</time></trkpt><trkpt lat="41.241364" lon="-5.707026"><ele>840.888</ele><time>2010-01-01T03:22:37Z</time></trkpt><trkpt lat="41.241475" lon="-5.707053"><ele>841.450</ele><time>2010-01-01T03:22:33Z</time></trkpt><trkpt lat="41.241631" lon="-5.706788"><ele>840.823</ele><time>2010-01-01T03:22:22Z</time></trkpt><trkpt lat="41.242024" lon="-5.706865"><ele>843.479</ele><time>2010-01-01T03:22:06Z</time></trkpt><trkpt lat="41.243671" lon="-5.707224"><ele>847.830</ele><time>2010-01-01T03:21:00Z</time></trkpt><trkpt lat="41.245272" lon="-5.707336"><ele>847.499</ele><time>2010-01-01T03:19:55Z</time></trkpt><trkpt lat="41.246334" lon="-5.707323"><ele>843.407</ele><time>2010-01-01T03:19:12Z</time></trkpt><trkpt lat="41.246490" lon="-5.707516"><ele>843.627</ele><time>2010-01-01T03:19:04Z</time></trkpt><trkpt lat="41.246692" lon="-5.707781"><ele>842.009</ele><time>2010-01-01T03:18:52Z</time></trkpt><trkpt lat="41.250276" lon="-5.708683"><ele>843.540</ele><time>2010-01-01T03:16:26Z</time></trkpt><trkpt lat="41.253376" lon="-5.709370"><ele>840.740</ele><time>2010-01-01T03:14:20Z</time></trkpt><trkpt lat="41.255496" lon="-5.710736"><ele>840.017</ele><time>2010-01-01T03:12:45Z</time></trkpt><trkpt lat="41.256067" lon="-5.711280"><ele>840.136</ele><time>2010-01-01T03:12:17Z</time></trkpt><trkpt lat="41.256196" lon="-5.711383"><ele>839.481</ele><time>2010-01-01T03:12:11Z</time></trkpt><trkpt lat="41.257557" lon="-5.711890"><ele>838.093</ele><time>2010-01-01T03:11:11Z</time></trkpt><trkpt lat="41.257671" lon="-5.712487"><ele>837.636</ele><time>2010-01-01T03:10:53Z</time></trkpt><trkpt lat="41.258013" lon="-5.712932"><ele>837.442</ele><time>2010-01-01T03:10:34Z</time></trkpt><trkpt lat="41.258185" lon="-5.713066"><ele>836.073</ele><time>2010-01-01T03:10:26Z</time></trkpt><trkpt lat="41.259562" lon="-5.713924"><ele>835.414</ele><time>2010-01-01T03:09:25Z</time></trkpt><trkpt lat="41.261163" lon="-5.715199"><ele>837.054</ele><time>2010-01-01T03:08:10Z</time></trkpt><trkpt lat="41.261894" lon="-5.715697"><ele>836.509</ele><time>2010-01-01T03:07:37Z</time></trkpt><trkpt lat="41.263481" lon="-5.716590"><ele>843.209</ele><time>2010-01-01T03:06:28Z</time></trkpt><trkpt lat="41.264085" lon="-5.716936"><ele>843.092</ele><time>2010-01-01T03:06:02Z</time></trkpt><trkpt lat="41.264847" lon="-5.717156"><ele>840.612</ele><time>2010-01-01T03:05:30Z</time></trkpt><trkpt lat="41.267106" lon="-5.717969"><ele>842.079</ele><time>2010-01-01T03:03:57Z</time></trkpt><trkpt lat="41.268221" lon="-5.718620"><ele>845.058</ele><time>2010-01-01T03:03:08Z</time></trkpt><trkpt lat="41.269361" lon="-5.719316"><ele>844.313</ele><time>2010-01-01T03:02:17Z</time></trkpt><trkpt lat="41.271280" lon="-5.721143"><ele>847.175</ele><time>2010-01-01T03:00:41Z</time></trkpt><trkpt lat="41.273096" lon="-5.722911"><ele>846.188</ele><time>2010-01-01T02:59:11Z</time></trkpt><trkpt lat="41.274649" lon="-5.724528"><ele>845.374</ele><time>2010-01-01T02:57:52Z</time></trkpt><trkpt lat="41.275085" lon="-5.725035"><ele>843.715</ele><time>2010-01-01T02:57:29Z</time></trkpt><trkpt lat="41.275676" lon="-5.725713"><ele>844.288</ele><time>2010-01-01T02:56:58Z</time></trkpt><trkpt lat="41.276290" lon="-5.726202"><ele>846.424</ele><time>2010-01-01T02:56:29Z</time></trkpt><trkpt lat="41.276546" lon="-5.726386"><ele>845.426</ele><time>2010-01-01T02:56:17Z</time></trkpt><trkpt lat="41.276886" lon="-5.726696"><ele>845.809</ele><time>2010-01-01T02:56:01Z</time></trkpt><trkpt lat="41.277551" lon="-5.727554"><ele>847.439</ele><time>2010-01-01T02:55:23Z</time></trkpt><trkpt lat="41.278470" lon="-5.728375"><ele>849.139</ele><time>2010-01-01T02:54:39Z</time></trkpt><trkpt lat="41.279653" lon="-5.729497"><ele>848.996</ele><time>2010-01-01T02:53:41Z</time></trkpt><trkpt lat="41.280163" lon="-5.730085"><ele>849.375</ele><time>2010-01-01T02:53:14Z</time></trkpt><trkpt lat="41.280489" lon="-5.730283"><ele>849.060</ele><time>2010-01-01T02:52:59Z</time></trkpt><trkpt lat="41.281529" lon="-5.731518"><ele>848.572</ele><time>2010-01-01T02:52:03Z</time></trkpt><trkpt lat="41.286733" lon="-5.736541"><ele>854.065</ele><time>2010-01-01T02:47:45Z</time></trkpt><trkpt lat="41.286862" lon="-5.736694"><ele>853.971</ele><time>2010-01-01T02:47:38Z</time></trkpt><trkpt lat="41.288517" lon="-5.738494"><ele>855.682</ele><time>2010-01-01T02:46:13Z</time></trkpt><trkpt lat="41.290051" lon="-5.739895"><ele>860.126</ele><time>2010-01-01T02:44:58Z</time></trkpt><trkpt lat="41.291118" lon="-5.741057"><ele>860.047</ele><time>2010-01-01T02:44:03Z</time></trkpt><trkpt lat="41.291988" lon="-5.741924"><ele>860.811</ele><time>2010-01-01T02:43:19Z</time></trkpt><trkpt lat="41.292764" lon="-5.742638"><ele>859.509</ele><time>2010-01-01T02:42:41Z</time></trkpt><trkpt lat="41.294120" lon="-5.743993"><ele>860.193</ele><time>2010-01-01T02:41:33Z</time></trkpt><trkpt lat="41.295435" lon="-5.744837"><ele>858.323</ele><time>2010-01-01T02:40:35Z</time></trkpt><trkpt lat="41.296529" lon="-5.745120"><ele>858.360</ele><time>2010-01-01T02:39:50Z</time></trkpt><trkpt lat="41.296532" lon="-5.745282"><ele>858.089</ele><time>2010-01-01T02:39:45Z</time></trkpt><trkpt lat="41.296187" lon="-5.745592"><ele>859.114</ele><time>2010-01-01T02:39:28Z</time></trkpt><trkpt lat="41.296076" lon="-5.745785"><ele>860.026</ele><time>2010-01-01T02:39:21Z</time></trkpt><trkpt lat="41.296400" lon="-5.746346"><ele>862.619</ele><time>2010-01-01T02:38:59Z</time></trkpt><trkpt lat="41.296642" lon="-5.746741"><ele>863.735</ele><time>2010-01-01T02:38:44Z</time></trkpt><trkpt lat="41.302992" lon="-5.757336"><ele>871.876</ele><time>2010-01-01T02:31:56Z</time></trkpt><trkpt lat="41.304380" lon="-5.759253"><ele>876.369</ele><time>2010-01-01T02:30:36Z</time></trkpt><trkpt lat="41.305997" lon="-5.761394"><ele>873.604</ele><time>2010-01-01T02:29:05Z</time></trkpt><trkpt lat="41.308174" lon="-5.764402"><ele>884.624</ele><time>2010-01-01T02:26:59Z</time></trkpt><trkpt lat="41.308791" lon="-5.765237"><ele>885.109</ele><time>2010-01-01T02:26:24Z</time></trkpt><trkpt lat="41.310018" lon="-5.766786"><ele>878.427</ele><time>2010-01-01T02:25:16Z</time></trkpt><trkpt lat="41.310330" lon="-5.766894"><ele>878.457</ele><time>2010-01-01T02:25:03Z</time></trkpt><trkpt lat="41.311872" lon="-5.766153"><ele>873.034</ele><time>2010-01-01T02:23:57Z</time></trkpt><trkpt lat="41.312273" lon="-5.765740"><ele>872.413</ele><time>2010-01-01T02:23:37Z</time></trkpt><trkpt lat="41.312392" lon="-5.765592"><ele>869.668</ele><time>2010-01-01T02:23:31Z</time></trkpt><trkpt lat="41.312958" lon="-5.764559"><ele>869.290</ele><time>2010-01-01T02:22:52Z</time></trkpt><trkpt lat="41.313343" lon="-5.764065"><ele>866.583</ele><time>2010-01-01T02:22:31Z</time></trkpt><trkpt lat="41.314445" lon="-5.763441"><ele>864.899</ele><time>2010-01-01T02:21:43Z</time></trkpt><trkpt lat="41.315725" lon="-5.762727"><ele>855.910</ele><time>2010-01-01T02:20:47Z</time></trkpt><trkpt lat="41.316281" lon="-5.762499"><ele>849.568</ele><time>2010-01-01T02:20:24Z</time></trkpt><trkpt lat="41.318420" lon="-5.762885"><ele>834.342</ele><time>2010-01-01T02:18:57Z</time></trkpt><trkpt lat="41.319361" lon="-5.763239"><ele>832.126</ele><time>2010-01-01T02:18:18Z</time></trkpt><trkpt lat="41.320302" lon="-5.763217"><ele>830.109</ele><time>2010-01-01T02:17:40Z</time></trkpt><trkpt lat="41.320725" lon="-5.763226"><ele>828.037</ele><time>2010-01-01T02:17:23Z</time></trkpt><trkpt lat="41.321051" lon="-5.763217"><ele>827.027</ele><time>2010-01-01T02:17:10Z</time></trkpt><trkpt lat="41.323746" lon="-5.764357"><ele>812.264</ele><time>2010-01-01T02:15:17Z</time></trkpt><trkpt lat="41.328044" lon="-5.764721"><ele>800.033</ele><time>2010-01-01T02:12:23Z</time></trkpt><trkpt lat="41.329362" lon="-5.765821"><ele>800.148</ele><time>2010-01-01T02:11:20Z</time></trkpt><trkpt lat="41.330157" lon="-5.766611"><ele>796.730</ele><time>2010-01-01T02:10:41Z</time></trkpt><trkpt lat="41.331707" lon="-5.767729"><ele>793.563</ele><time>2010-01-01T02:09:30Z</time></trkpt><trkpt lat="41.332510" lon="-5.768191"><ele>794.599</ele><time>2010-01-01T02:08:55Z</time></trkpt><trkpt lat="41.333625" lon="-5.768631"><ele>791.880</ele><time>2010-01-01T02:08:08Z</time></trkpt><trkpt lat="41.335552" lon="-5.769170"><ele>787.077</ele><time>2010-01-01T02:06:49Z</time></trkpt><trkpt lat="41.337159" lon="-5.770193"><ele>790.161</ele><time>2010-01-01T02:05:38Z</time></trkpt><trkpt lat="41.338315" lon="-5.771096"><ele>783.027</ele><time>2010-01-01T02:04:44Z</time></trkpt><trkpt lat="41.339204" lon="-5.771513"><ele>787.509</ele><time>2010-01-01T02:04:07Z</time></trkpt><trkpt lat="41.339430" lon="-5.771594"><ele>787.018</ele><time>2010-01-01T02:03:57Z</time></trkpt><trkpt lat="41.340339" lon="-5.771589"><ele>788.828</ele><time>2010-01-01T02:03:21Z</time></trkpt><trkpt lat="41.341063" lon="-5.771392"><ele>788.875</ele><time>2010-01-01T02:02:51Z</time></trkpt><trkpt lat="41.341578" lon="-5.771405"><ele>792.294</ele><time>2010-01-01T02:02:31Z</time></trkpt><trkpt lat="41.342740" lon="-5.771558"><ele>794.759</ele><time>2010-01-01T02:01:44Z</time></trkpt><trkpt lat="41.342996" lon="-5.771504"><ele>797.061</ele><time>2010-01-01T02:01:33Z</time></trkpt><trkpt lat="41.344818" lon="-5.770727"><ele>797.054</ele><time>2010-01-01T02:00:17Z</time></trkpt><trkpt lat="41.345626" lon="-5.770252"><ele>788.040</ele><time>2010-01-01T01:59:41Z</time></trkpt><trkpt lat="41.347734" lon="-5.769628"><ele>780.131</ele><time>2010-01-01T01:58:15Z</time></trkpt><trkpt lat="41.347909" lon="-5.769578"><ele>778.884</ele><time>2010-01-01T01:58:08Z</time></trkpt><trkpt lat="41.350278" lon="-5.769309"><ele>770.007</ele><time>2010-01-01T01:56:32Z</time></trkpt><trkpt lat="41.350552" lon="-5.769282"><ele>767.817</ele><time>2010-01-01T01:56:21Z</time></trkpt><trkpt lat="41.351191" lon="-5.769210"><ele>760.409</ele><time>2010-01-01T01:55:56Z</time></trkpt><trkpt lat="41.352062" lon="-5.769327"><ele>764.339</ele><time>2010-01-01T01:55:21Z</time></trkpt><trkpt lat="41.353730" lon="-5.769942"><ele>761.149</ele><time>2010-01-01T01:54:11Z</time></trkpt><trkpt lat="41.354336" lon="-5.770678"><ele>759.416</ele><time>2010-01-01T01:53:38Z</time></trkpt><trkpt lat="41.355085" lon="-5.770750"><ele>759.015</ele><time>2010-01-01T01:53:08Z</time></trkpt><trkpt lat="41.355827" lon="-5.770817"><ele>757.950</ele><time>2010-01-01T01:52:38Z</time></trkpt><trkpt lat="41.357826" lon="-5.771836"><ele>749.322</ele><time>2010-01-01T01:51:12Z</time></trkpt><trkpt lat="41.358850" lon="-5.771809"><ele>751.645</ele><time>2010-01-01T01:50:31Z</time></trkpt><trkpt lat="41.359820" lon="-5.771773"><ele>747.911</ele><time>2010-01-01T01:49:52Z</time></trkpt><trkpt lat="41.365100" lon="-5.771302"><ele>730.372</ele><time>2010-01-01T01:46:20Z</time></trkpt><trkpt lat="41.372236" lon="-5.770014"><ele>730.072</ele><time>2010-01-01T01:41:32Z</time></trkpt><trkpt lat="41.372929" lon="-5.769910"><ele>727.513</ele><time>2010-01-01T01:41:04Z</time></trkpt><trkpt lat="41.377208" lon="-5.769937"><ele>725.914</ele><time>2010-01-01T01:38:13Z</time></trkpt><trkpt lat="41.377543" lon="-5.769960"><ele>724.809</ele><time>2010-01-01T01:38:00Z</time></trkpt><trkpt lat="41.379046" lon="-5.770701"><ele>725.078</ele><time>2010-01-01T01:36:55Z</time></trkpt><trkpt lat="41.379504" lon="-5.770925"><ele>723.958</ele><time>2010-01-01T01:36:36Z</time></trkpt><trkpt lat="41.382504" lon="-5.772137"><ele>721.765</ele><time>2010-01-01T01:34:30Z</time></trkpt><trkpt lat="41.383504" lon="-5.772716"><ele>723.434</ele><time>2010-01-01T01:33:47Z</time></trkpt><trkpt lat="41.383938" lon="-5.772950"><ele>721.559</ele><time>2010-01-01T01:33:28Z</time></trkpt><trkpt lat="41.384353" lon="-5.773233"><ele>722.541</ele><time>2010-01-01T01:33:09Z</time></trkpt><trkpt lat="41.385431" lon="-5.773834"><ele>721.154</ele><time>2010-01-01T01:32:23Z</time></trkpt><trkpt lat="41.388741" lon="-5.775829"><ele>721.050</ele><time>2010-01-01T01:29:57Z</time></trkpt><trkpt lat="41.390102" lon="-5.774092"><ele>718.761</ele><time>2010-01-01T01:28:42Z</time></trkpt><trkpt lat="41.390367" lon="-5.773728"><ele>717.436</ele><time>2010-01-01T01:28:26Z</time></trkpt><trkpt lat="41.391447" lon="-5.768426"><ele>720.117</ele><time>2010-01-01T01:25:41Z</time></trkpt><trkpt lat="41.391533" lon="-5.768143"><ele>721.918</ele><time>2010-01-01T01:25:32Z</time></trkpt><trkpt lat="41.391741" lon="-5.768179"><ele>722.109</ele><time>2010-01-01T01:25:24Z</time></trkpt><trkpt lat="41.393967" lon="-5.768646"><ele>720.194</ele><time>2010-01-01T01:23:54Z</time></trkpt><trkpt lat="41.398085" lon="-5.770541"><ele>725.144</ele><time>2010-01-01T01:20:59Z</time></trkpt><trkpt lat="41.400729" lon="-5.771825"><ele>718.241</ele><time>2010-01-01T01:19:06Z</time></trkpt><trkpt lat="41.401052" lon="-5.771852"><ele>718.940</ele><time>2010-01-01T01:18:52Z</time></trkpt><trkpt lat="41.403911" lon="-5.770536"><ele>734.165</ele><time>2010-01-01T01:16:51Z</time></trkpt><trkpt lat="41.404065" lon="-5.770464"><ele>735.067</ele><time>2010-01-01T01:16:45Z</time></trkpt><trkpt lat="41.404949" lon="-5.770662"><ele>741.640</ele><time>2010-01-01T01:16:08Z</time></trkpt><trkpt lat="41.405507" lon="-5.771169"><ele>742.856</ele><time>2010-01-01T01:15:41Z</time></trkpt><trkpt lat="41.406305" lon="-5.771569"><ele>743.977</ele><time>2010-01-01T01:15:07Z</time></trkpt><trkpt lat="41.408396" lon="-5.771717"><ele>748.041</ele><time>2010-01-01T01:13:43Z</time></trkpt><trkpt lat="41.411314" lon="-5.771704"><ele>748.681</ele><time>2010-01-01T01:11:46Z</time></trkpt><trkpt lat="41.411602" lon="-5.772688"><ele>747.009</ele><time>2010-01-01T01:11:14Z</time></trkpt><trkpt lat="41.412432" lon="-5.772145"><ele>750.009</ele><time>2010-01-01T01:10:37Z</time></trkpt><trkpt lat="41.412725" lon="-5.771974"><ele>750.165</ele><time>2010-01-01T01:10:24Z</time></trkpt><trkpt lat="41.415466" lon="-5.770659"><ele>746.095</ele><time>2010-01-01T01:08:27Z</time></trkpt><trkpt lat="41.415892" lon="-5.770511"><ele>745.192</ele><time>2010-01-01T01:08:10Z</time></trkpt><trkpt lat="41.416315" lon="-5.770371"><ele>741.391</ele><time>2010-01-01T01:07:52Z</time></trkpt><trkpt lat="41.417393" lon="-5.770084"><ele>741.676</ele><time>2010-01-01T01:07:08Z</time></trkpt><trkpt lat="41.417716" lon="-5.769994"><ele>738.798</ele><time>2010-01-01T01:06:55Z</time></trkpt><trkpt lat="41.418420" lon="-5.769815"><ele>736.791</ele><time>2010-01-01T01:06:26Z</time></trkpt><trkpt lat="41.419447" lon="-5.769581"><ele>734.057</ele><time>2010-01-01T01:05:44Z</time></trkpt><trkpt lat="41.420883" lon="-5.769325"><ele>731.728</ele><time>2010-01-01T01:04:46Z</time></trkpt><trkpt lat="41.424450" lon="-5.769059"><ele>718.381</ele><time>2010-01-01T01:02:23Z</time></trkpt><trkpt lat="41.425008" lon="-5.769010"><ele>714.661</ele><time>2010-01-01T01:02:01Z</time></trkpt><trkpt lat="41.426980" lon="-5.769293"><ele>708.717</ele><time>2010-01-01T01:00:41Z</time></trkpt><trkpt lat="41.427905" lon="-5.769437"><ele>703.009</ele><time>2010-01-01T01:00:04Z</time></trkpt><trkpt lat="41.429231" lon="-5.768983"><ele>703.159</ele><time>2010-01-01T00:59:09Z</time></trkpt><trkpt lat="41.430514" lon="-5.768629"><ele>698.189</ele><time>2010-01-01T00:58:17Z</time></trkpt><trkpt lat="41.433467" lon="-5.767820"><ele>692.946</ele><time>2010-01-01T00:56:16Z</time></trkpt><trkpt lat="41.433998" lon="-5.767695"><ele>689.695</ele><time>2010-01-01T00:55:54Z</time></trkpt><trkpt lat="41.435782" lon="-5.767488"><ele>686.060</ele><time>2010-01-01T00:54:42Z</time></trkpt><trkpt lat="41.436739" lon="-5.767636"><ele>685.142</ele><time>2010-01-01T00:54:04Z</time></trkpt><trkpt lat="41.437561" lon="-5.767659"><ele>685.035</ele><time>2010-01-01T00:53:31Z</time></trkpt><trkpt lat="41.439935" lon="-5.767354"><ele>680.141</ele><time>2010-01-01T00:51:55Z</time></trkpt><trkpt lat="41.440250" lon="-5.767300"><ele>678.872</ele><time>2010-01-01T00:51:42Z</time></trkpt><trkpt lat="41.440738" lon="-5.767156"><ele>679.052</ele><time>2010-01-01T00:51:22Z</time></trkpt><trkpt lat="41.442347" lon="-5.767147"><ele>675.353</ele><time>2010-01-01T00:50:18Z</time></trkpt><trkpt lat="41.442924" lon="-5.768296"><ele>678.108</ele><time>2010-01-01T00:49:36Z</time></trkpt><trkpt lat="41.443872" lon="-5.770613"><ele>678.809</ele><time>2010-01-01T00:48:17Z</time></trkpt><trkpt lat="41.443999" lon="-5.770860"><ele>677.986</ele><time>2010-01-01T00:48:08Z</time></trkpt><trkpt lat="41.444595" lon="-5.770833"><ele>678.066</ele><time>2010-01-01T00:47:44Z</time></trkpt><trkpt lat="41.449025" lon="-5.770568"><ele>673.083</ele><time>2010-01-01T00:44:47Z</time></trkpt><trkpt lat="41.451863" lon="-5.770438"><ele>666.542</ele><time>2010-01-01T00:42:53Z</time></trkpt><trkpt lat="41.452135" lon="-5.770402"><ele>665.997</ele><time>2010-01-01T00:42:42Z</time></trkpt><trkpt lat="41.452281" lon="-5.769899"><ele>665.659</ele><time>2010-01-01T00:42:26Z</time></trkpt><trkpt lat="41.452774" lon="-5.769464"><ele>667.192</ele><time>2010-01-01T00:42:02Z</time></trkpt><trkpt lat="41.452976" lon="-5.769311"><ele>667.088</ele><time>2010-01-01T00:41:53Z</time></trkpt><trkpt lat="41.454103" lon="-5.767892"><ele>672.129</ele><time>2010-01-01T00:40:51Z</time></trkpt><trkpt lat="41.454364" lon="-5.767596"><ele>671.464</ele><time>2010-01-01T00:40:37Z</time></trkpt><trkpt lat="41.456859" lon="-5.765733"><ele>670.206</ele><time>2010-01-01T00:38:42Z</time></trkpt><trkpt lat="41.457248" lon="-5.765163"><ele>670.216</ele><time>2010-01-01T00:38:19Z</time></trkpt><trkpt lat="41.457490" lon="-5.764822"><ele>669.309</ele><time>2010-01-01T00:38:05Z</time></trkpt><trkpt lat="41.458617" lon="-5.764067"><ele>670.647</ele><time>2010-01-01T00:37:15Z</time></trkpt><trkpt lat="41.461991" lon="-5.762195"><ele>665.837</ele><time>2010-01-01T00:34:48Z</time></trkpt><trkpt lat="41.462705" lon="-5.762141"><ele>665.164</ele><time>2010-01-01T00:34:19Z</time></trkpt><trkpt lat="41.463096" lon="-5.762105"><ele>662.763</ele><time>2010-01-01T00:34:04Z</time></trkpt><trkpt lat="41.463422" lon="-5.762083"><ele>661.038</ele><time>2010-01-01T00:33:51Z</time></trkpt><trkpt lat="41.463829" lon="-5.762132"><ele>661.950</ele><time>2010-01-01T00:33:34Z</time></trkpt><trkpt lat="41.465252" lon="-5.761953"><ele>663.163</ele><time>2010-01-01T00:32:37Z</time></trkpt><trkpt lat="41.466640" lon="-5.762025"><ele>662.089</ele><time>2010-01-01T00:31:42Z</time></trkpt><trkpt lat="41.468744" lon="-5.761688"><ele>661.140</ele><time>2010-01-01T00:30:17Z</time></trkpt><trkpt lat="41.471914" lon="-5.759964"><ele>662.038</ele><time>2010-01-01T00:27:59Z</time></trkpt><trkpt lat="41.473299" lon="-5.758536"><ele>656.470</ele><time>2010-01-01T00:26:49Z</time></trkpt><trkpt lat="41.473533" lon="-5.758496"><ele>657.217</ele><time>2010-01-01T00:26:39Z</time></trkpt><trkpt lat="41.473946" lon="-5.758474"><ele>655.709</ele><time>2010-01-01T00:26:23Z</time></trkpt><trkpt lat="41.474590" lon="-5.757428"><ele>656.554</ele><time>2010-01-01T00:25:41Z</time></trkpt><trkpt lat="41.475226" lon="-5.756804"><ele>654.134</ele><time>2010-01-01T00:25:10Z</time></trkpt><trkpt lat="41.476261" lon="-5.756839"><ele>654.961</ele><time>2010-01-01T00:24:28Z</time></trkpt><trkpt lat="41.476689" lon="-5.757046"><ele>659.350</ele><time>2010-01-01T00:24:09Z</time></trkpt><trkpt lat="41.476816" lon="-5.757145"><ele>659.335</ele><time>2010-01-01T00:24:03Z</time></trkpt><trkpt lat="41.478845" lon="-5.756521"><ele>663.447</ele><time>2010-01-01T00:22:40Z</time></trkpt><trkpt lat="41.479767" lon="-5.756584"><ele>664.620</ele><time>2010-01-01T00:22:03Z</time></trkpt><trkpt lat="41.482292" lon="-5.756570"><ele>660.316</ele><time>2010-01-01T00:20:22Z</time></trkpt><trkpt lat="41.483259" lon="-5.756480"><ele>656.497</ele><time>2010-01-01T00:19:43Z</time></trkpt><trkpt lat="41.484664" lon="-5.756313"><ele>658.557</ele><time>2010-01-01T00:18:47Z</time></trkpt><trkpt lat="41.485546" lon="-5.756239"><ele>656.100</ele><time>2010-01-01T00:18:11Z</time></trkpt><trkpt lat="41.486340" lon="-5.755640"><ele>653.020</ele><time>2010-01-01T00:17:35Z</time></trkpt><trkpt lat="41.486820" lon="-5.755158"><ele>653.909</ele><time>2010-01-01T00:17:10Z</time></trkpt><trkpt lat="41.487212" lon="-5.754745"><ele>651.166</ele><time>2010-01-01T00:16:50Z</time></trkpt><trkpt lat="41.487512" lon="-5.754554"><ele>648.656</ele><time>2010-01-01T00:16:37Z</time></trkpt><trkpt lat="41.488507" lon="-5.754374"><ele>648.113</ele><time>2010-01-01T00:15:57Z</time></trkpt><trkpt lat="41.490945" lon="-5.754204"><ele>641.372</ele><time>2010-01-01T00:14:19Z</time></trkpt><trkpt lat="41.491031" lon="-5.754419"><ele>641.177</ele><time>2010-01-01T00:14:11Z</time></trkpt><trkpt lat="41.491117" lon="-5.754479"><ele>641.019</ele><time>2010-01-01T00:14:07Z</time></trkpt><trkpt lat="41.491161" lon="-5.754326"><ele>641.172</ele><time>2010-01-01T00:14:02Z</time></trkpt><trkpt lat="41.491794" lon="-5.754105"><ele>633.568</ele><time>2010-01-01T00:13:35Z</time></trkpt><trkpt lat="41.493136" lon="-5.754025"><ele>627.159</ele><time>2010-01-01T00:12:41Z</time></trkpt><trkpt lat="41.493309" lon="-5.753980"><ele>624.969</ele><time>2010-01-01T00:12:34Z</time></trkpt><trkpt lat="41.495039" lon="-5.753230"><ele>625.904</ele><time>2010-01-01T00:11:21Z</time></trkpt><trkpt lat="41.495133" lon="-5.753333"><ele>625.524</ele><time>2010-01-01T00:11:16Z</time></trkpt><trkpt lat="41.495387" lon="-5.753109"><ele>625.009</ele><time>2010-01-01T00:11:03Z</time></trkpt><trkpt lat="41.495346" lon="-5.752970"><ele>624.997</ele><time>2010-01-01T00:10:58Z</time></trkpt><trkpt lat="41.496281" lon="-5.751829"><ele>627.857</ele><time>2010-01-01T00:10:07Z</time></trkpt><trkpt lat="41.497246" lon="-5.750671"><ele>625.314</ele><time>2010-01-01T00:09:15Z</time></trkpt><trkpt lat="41.497621" lon="-5.749836"><ele>622.273</ele><time>2010-01-01T00:08:46Z</time></trkpt><trkpt lat="41.497699" lon="-5.749050"><ele>626.128</ele><time>2010-01-01T00:08:22Z</time></trkpt><trkpt lat="41.497773" lon="-5.747996"><ele>626.180</ele><time>2010-01-01T00:07:50Z</time></trkpt><trkpt lat="41.500404" lon="-5.748139"><ele>633.323</ele><time>2010-01-01T00:06:04Z</time></trkpt><trkpt lat="41.500549" lon="-5.748108"><ele>635.179</ele><time>2010-01-01T00:05:58Z</time></trkpt><trkpt lat="41.500746" lon="-5.747565"><ele>636.340</ele><time>2010-01-01T00:05:40Z</time></trkpt><trkpt lat="41.501025" lon="-5.747110"><ele>635.354</ele><time>2010-01-01T00:05:22Z</time></trkpt><trkpt lat="41.501521" lon="-5.747523"><ele>641.656</ele><time>2010-01-01T00:04:59Z</time></trkpt><trkpt lat="41.501390" lon="-5.747628"><ele>639.011</ele><time>2010-01-01T00:04:53Z</time></trkpt><trkpt lat="41.501052" lon="-5.748146"><ele>640.409</ele><time>2010-01-01T00:04:32Z</time></trkpt><trkpt lat="41.501464" lon="-5.748367"><ele>649.546</ele><time>2010-01-01T00:04:11Z</time></trkpt><trkpt lat="41.501735" lon="-5.747945"><ele>650.656</ele><time>2010-01-01T00:03:54Z</time></trkpt><trkpt lat="41.502213" lon="-5.748364"><ele>654.183</ele><time>2010-01-01T00:03:31Z</time></trkpt><trkpt lat="41.502001" lon="-5.748741"><ele>655.022</ele><time>2010-01-01T00:03:17Z</time></trkpt><trkpt lat="41.500747" lon="-5.751091"><ele>653.387</ele><time>2010-01-01T00:01:50Z</time></trkpt><trkpt lat="41.500490" lon="-5.752066"><ele>653.269</ele><time>2010-01-01T00:01:19Z</time></trkpt><trkpt lat="41.500256" lon="-5.752922"><ele>647.872</ele><time>2010-01-01T00:00:52Z</time></trkpt><trkpt lat="41.500258" lon="-5.753210"><ele>647.818</ele><time>2010-01-01T00:00:42Z</time></trkpt><trkpt lat="41.499920" lon="-5.753539"><ele>651.869</ele><time>2010-01-01T00:00:26Z</time></trkpt><trkpt lat="41.499550" lon="-5.753925"><ele>651.284</ele><time>2010-01-01T00:00:07Z</time></trkpt><trkpt lat="41.499739" lon="-5.753745"><ele>652.007</ele><time>2010-01-01T04:03:34Z</time></trkpt><trkpt lat="41.499920" lon="-5.753539"><ele>651.817</ele><time>2010-01-01T04:03:24Z</time></trkpt><trkpt lat="41.500258" lon="-5.753210"><ele>647.809</ele><time>2010-01-01T04:03:07Z</time></trkpt><trkpt lat="41.500296" lon="-5.753021"><ele>647.149</ele><time>2010-01-01T04:03:01Z</time></trkpt><trkpt lat="41.500490" lon="-5.752066"><ele>653.269</ele><time>2010-01-01T04:02:31Z</time></trkpt><trkpt lat="41.500747" lon="-5.751091"><ele>653.326</ele><time>2010-01-01T04:01:59Z</time></trkpt><trkpt lat="41.501293" lon="-5.750103"><ele>654.135</ele><time>2010-01-01T04:01:22Z</time></trkpt><trkpt lat="41.501374" lon="-5.749918"><ele>655.030</ele><time>2010-01-01T04:01:16Z</time></trkpt><trkpt lat="41.502213" lon="-5.748364"><ele>654.122</ele><time>2010-01-01T04:00:19Z</time></trkpt><trkpt lat="41.501735" lon="-5.747945"><ele>650.655</ele><time>2010-01-01T03:59:56Z</time></trkpt><trkpt lat="41.501548" lon="-5.748316"><ele>650.131</ele><time>2010-01-01T03:59:42Z</time></trkpt><trkpt lat="41.501309" lon="-5.748239"><ele>645.352</ele><time>2010-01-01T03:59:31Z</time></trkpt><trkpt lat="41.501070" lon="-5.748227"><ele>641.466</ele><time>2010-01-01T03:59:20Z</time></trkpt><trkpt lat="41.501521" lon="-5.747523"><ele>641.629</ele><time>2010-01-01T03:58:51Z</time></trkpt><trkpt lat="41.501246" lon="-5.747296"><ele>636.821</ele><time>2010-01-01T03:58:38Z</time></trkpt><trkpt lat="41.501025" lon="-5.747110"><ele>635.309</ele><time>2010-01-01T03:58:27Z</time></trkpt><trkpt lat="41.500811" lon="-5.747493"><ele>636.777</ele><time>2010-01-01T03:58:13Z</time></trkpt><trkpt lat="41.500549" lon="-5.748108"><ele>635.127</ele><time>2010-01-01T03:57:52Z</time></trkpt><trkpt lat="41.500404" lon="-5.748139"><ele>633.384</ele><time>2010-01-01T03:57:46Z</time></trkpt><trkpt lat="41.497773" lon="-5.747996"><ele>626.123</ele><time>2010-01-01T03:55:59Z</time></trkpt><trkpt lat="41.497420" lon="-5.747506"><ele>630.428</ele><time>2010-01-01T03:55:39Z</time></trkpt><trkpt lat="41.497348" lon="-5.747035"><ele>629.340</ele><time>2010-01-01T03:55:24Z</time></trkpt><trkpt lat="41.497248" lon="-5.746267"><ele>626.533</ele><time>2010-01-01T03:55:01Z</time></trkpt><trkpt lat="41.497852" lon="-5.743160"><ele>625.039</ele><time>2010-01-01T03:53:25Z</time></trkpt><trkpt lat="41.497750" lon="-5.742080"><ele>627.540</ele><time>2010-01-01T03:52:52Z</time></trkpt><trkpt lat="41.498327" lon="-5.739983"><ele>633.084</ele><time>2010-01-01T03:51:44Z</time></trkpt><trkpt lat="41.498451" lon="-5.733640"><ele>632.507</ele><time>2010-01-01T03:48:33Z</time></trkpt><trkpt lat="41.498559" lon="-5.733222"><ele>633.517</ele><time>2010-01-01T03:48:20Z</time></trkpt><trkpt lat="41.498588" lon="-5.729455"><ele>626.109</ele><time>2010-01-01T03:46:26Z</time></trkpt><trkpt lat="41.498337" lon="-5.727116"><ele>630.119</ele><time>2010-01-01T03:45:15Z</time></trkpt><trkpt lat="41.497548" lon="-5.727058"><ele>624.669</ele><time>2010-01-01T03:44:44Z</time></trkpt><trkpt lat="41.497467" lon="-5.726492"><ele>627.536</ele><time>2010-01-01T03:44:26Z</time></trkpt><trkpt lat="41.496936" lon="-5.725644"><ele>622.745</ele><time>2010-01-01T03:43:53Z</time></trkpt><trkpt lat="41.495947" lon="-5.725495"><ele>625.040</ele><time>2010-01-01T03:43:13Z</time></trkpt><trkpt lat="41.494864" lon="-5.725352"><ele>625.662</ele><time>2010-01-01T03:42:29Z</time></trkpt><trkpt lat="41.494656" lon="-5.724925"><ele>626.075</ele><time>2010-01-01T03:42:14Z</time></trkpt><trkpt lat="41.494408" lon="-5.724984"><ele>624.741</ele><time>2010-01-01T03:42:04Z</time></trkpt><trkpt lat="41.492689" lon="-5.725361"><ele>628.732</ele><time>2010-01-01T03:40:54Z</time></trkpt><trkpt lat="41.492255" lon="-5.725464"><ele>629.379</ele><time>2010-01-01T03:40:37Z</time></trkpt><trkpt lat="41.492139" lon="-5.725114"><ele>629.705</ele><time>2010-01-01T03:40:25Z</time></trkpt><trkpt lat="41.491592" lon="-5.723363"><ele>625.625</ele><time>2010-01-01T03:39:28Z</time></trkpt><trkpt lat="41.490778" lon="-5.718725"><ele>626.209</ele><time>2010-01-01T03:37:06Z</time></trkpt><trkpt lat="41.490560" lon="-5.717419"><ele>629.038</ele><time>2010-01-01T03:36:25Z</time></trkpt><trkpt lat="41.490298" lon="-5.715874"><ele>628.198</ele><time>2010-01-01T03:35:38Z</time></trkpt><trkpt lat="41.490029" lon="-5.714366"><ele>628.265</ele><time>2010-01-01T03:34:51Z</time></trkpt><trkpt lat="41.489921" lon="-5.713670"><ele>630.464</ele><time>2010-01-01T03:34:30Z</time></trkpt><trkpt lat="41.489749" lon="-5.712660"><ele>629.819</ele><time>2010-01-01T03:33:59Z</time></trkpt><trkpt lat="41.489695" lon="-5.712471"><ele>630.531</ele><time>2010-01-01T03:33:53Z</time></trkpt><trkpt lat="41.490368" lon="-5.710339"><ele>632.674</ele><time>2010-01-01T03:32:43Z</time></trkpt><trkpt lat="41.491570" lon="-5.706123"><ele>632.260</ele><time>2010-01-01T03:30:28Z</time></trkpt><trkpt lat="41.491808" lon="-5.705068"><ele>629.681</ele><time>2010-01-01T03:29:54Z</time></trkpt><trkpt lat="41.492171" lon="-5.703856"><ele>630.741</ele><time>2010-01-01T03:29:15Z</time></trkpt><trkpt lat="41.492966" lon="-5.702181"><ele>632.681</ele><time>2010-01-01T03:28:16Z</time></trkpt><trkpt lat="41.493276" lon="-5.701494"><ele>629.909</ele><time>2010-01-01T03:27:52Z</time></trkpt><trkpt lat="41.493514" lon="-5.700668"><ele>631.309</ele><time>2010-01-01T03:27:25Z</time></trkpt><trkpt lat="41.493411" lon="-5.700287"><ele>632.235</ele><time>2010-01-01T03:27:12Z</time></trkpt><trkpt lat="41.492608" lon="-5.700385"><ele>632.645</ele><time>2010-01-01T03:26:38Z</time></trkpt><trkpt lat="41.492533" lon="-5.699941"><ele>632.852</ele><time>2010-01-01T03:26:24Z</time></trkpt><trkpt lat="41.492896" lon="-5.699213"><ele>630.641</ele><time>2010-01-01T03:25:58Z</time></trkpt><trkpt lat="41.492746" lon="-5.698109"><ele>632.176</ele><time>2010-01-01T03:25:24Z</time></trkpt><trkpt lat="41.492918" lon="-5.696430"><ele>635.028</ele><time>2010-01-01T03:24:33Z</time></trkpt><trkpt lat="41.493047" lon="-5.696129"><ele>634.171</ele><time>2010-01-01T03:24:22Z</time></trkpt><trkpt lat="41.493942" lon="-5.695846"><ele>630.837</ele><time>2010-01-01T03:23:44Z</time></trkpt><trkpt lat="41.494303" lon="-5.694553"><ele>630.058</ele><time>2010-01-01T03:23:03Z</time></trkpt><trkpt lat="41.494713" lon="-5.691218"><ele>636.149</ele><time>2010-01-01T03:21:21Z</time></trkpt><trkpt lat="41.494802" lon="-5.690159"><ele>635.902</ele><time>2010-01-01T03:20:48Z</time></trkpt><trkpt lat="41.494915" lon="-5.689912"><ele>631.522</ele><time>2010-01-01T03:20:40Z</time></trkpt><trkpt lat="41.494659" lon="-5.689243"><ele>636.109</ele><time>2010-01-01T03:20:17Z</time></trkpt><trkpt lat="41.494479" lon="-5.688754"><ele>636.445</ele><time>2010-01-01T03:20:01Z</time></trkpt><trkpt lat="41.493945" lon="-5.688175"><ele>639.065</ele><time>2010-01-01T03:19:33Z</time></trkpt><trkpt lat="41.492899" lon="-5.686958"><ele>639.672</ele><time>2010-01-01T03:18:37Z</time></trkpt><trkpt lat="41.492387" lon="-5.685243"><ele>641.931</ele><time>2010-01-01T03:17:42Z</time></trkpt><trkpt lat="41.492274" lon="-5.685028"><ele>641.176</ele><time>2010-01-01T03:17:34Z</time></trkpt><trkpt lat="41.492067" lon="-5.683438"><ele>642.188</ele><time>2010-01-01T03:16:45Z</time></trkpt><trkpt lat="41.491778" lon="-5.682271"><ele>642.571</ele><time>2010-01-01T03:16:08Z</time></trkpt><trkpt lat="41.491816" lon="-5.681768"><ele>640.977</ele><time>2010-01-01T03:15:52Z</time></trkpt><trkpt lat="41.491344" lon="-5.681741"><ele>640.318</ele><time>2010-01-01T03:15:33Z</time></trkpt><trkpt lat="41.490916" lon="-5.681463"><ele>639.976</ele><time>2010-01-01T03:15:14Z</time></trkpt><trkpt lat="41.490070" lon="-5.680103"><ele>643.090</ele><time>2010-01-01T03:14:21Z</time></trkpt><trkpt lat="41.487900" lon="-5.676866"><ele>642.019</ele><time>2010-01-01T03:12:11Z</time></trkpt><trkpt lat="41.488070" lon="-5.676695"><ele>643.109</ele><time>2010-01-01T03:12:02Z</time></trkpt><trkpt lat="41.487709" lon="-5.675707"><ele>642.138</ele><time>2010-01-01T03:11:29Z</time></trkpt><trkpt lat="41.487307" lon="-5.674607"><ele>642.798</ele><time>2010-01-01T03:10:52Z</time></trkpt><trkpt lat="41.486431" lon="-5.672866"><ele>644.355</ele><time>2010-01-01T03:09:49Z</time></trkpt><trkpt lat="41.481457" lon="-5.662822"><ele>651.224</ele><time>2010-01-01T03:03:48Z</time></trkpt><trkpt lat="41.479826" lon="-5.659747"><ele>650.069</ele><time>2010-01-01T03:01:55Z</time></trkpt><trkpt lat="41.480292" lon="-5.658019"><ele>652.191</ele><time>2010-01-01T03:01:00Z</time></trkpt><trkpt lat="41.480513" lon="-5.657323"><ele>652.554</ele><time>2010-01-01T03:00:37Z</time></trkpt><trkpt lat="41.480939" lon="-5.656914"><ele>651.780</ele><time>2010-01-01T03:00:16Z</time></trkpt><trkpt lat="41.481996" lon="-5.655904"><ele>650.081</ele><time>2010-01-01T02:59:24Z</time></trkpt><trkpt lat="41.482219" lon="-5.655338"><ele>652.843</ele><time>2010-01-01T02:59:05Z</time></trkpt><trkpt lat="41.482955" lon="-5.653515"><ele>652.464</ele><time>2010-01-01T02:58:03Z</time></trkpt><trkpt lat="41.483063" lon="-5.651401"><ele>654.010</ele><time>2010-01-01T02:56:59Z</time></trkpt><trkpt lat="41.482448" lon="-5.648281"><ele>652.209</ele><time>2010-01-01T02:55:22Z</time></trkpt><trkpt lat="41.482478" lon="-5.647706"><ele>653.795</ele><time>2010-01-01T02:55:05Z</time></trkpt><trkpt lat="41.482650" lon="-5.645529"><ele>652.445</ele><time>2010-01-01T02:54:00Z</time></trkpt><trkpt lat="41.483392" lon="-5.643365"><ele>650.842</ele><time>2010-01-01T02:52:48Z</time></trkpt><trkpt lat="41.483639" lon="-5.641124"><ele>651.051</ele><time>2010-01-01T02:51:40Z</time></trkpt><trkpt lat="41.484232" lon="-5.638570"><ele>652.956</ele><time>2010-01-01T02:50:20Z</time></trkpt><trkpt lat="41.484413" lon="-5.637757"><ele>650.988</ele><time>2010-01-01T02:49:55Z</time></trkpt><trkpt lat="41.485092" lon="-5.634893"><ele>653.111</ele><time>2010-01-01T02:48:25Z</time></trkpt><trkpt lat="41.484305" lon="-5.634906"><ele>652.517</ele><time>2010-01-01T02:47:51Z</time></trkpt><trkpt lat="41.484203" lon="-5.633434"><ele>654.348</ele><time>2010-01-01T02:47:07Z</time></trkpt><trkpt lat="41.483610" lon="-5.614991"><ele>661.069</ele><time>2010-01-01T02:37:53Z</time></trkpt><trkpt lat="41.483516" lon="-5.613747"><ele>658.704</ele><time>2010-01-01T02:37:16Z</time></trkpt><trkpt lat="41.482979" lon="-5.611323"><ele>659.024</ele><time>2010-01-01T02:36:00Z</time></trkpt><trkpt lat="41.482465" lon="-5.607318"><ele>658.709</ele><time>2010-01-01T02:33:58Z</time></trkpt><trkpt lat="41.482192" lon="-5.606231"><ele>656.687</ele><time>2010-01-01T02:33:23Z</time></trkpt><trkpt lat="41.482376" lon="-5.605917"><ele>657.947</ele><time>2010-01-01T02:33:11Z</time></trkpt><trkpt lat="41.482470" lon="-5.605127"><ele>656.274</ele><time>2010-01-01T02:32:47Z</time></trkpt><trkpt lat="41.482381" lon="-5.604781"><ele>654.713</ele><time>2010-01-01T02:32:36Z</time></trkpt><trkpt lat="41.482095" lon="-5.604512"><ele>653.258</ele><time>2010-01-01T02:32:22Z</time></trkpt><trkpt lat="41.481454" lon="-5.603839"><ele>644.860</ele><time>2010-01-01T02:31:49Z</time></trkpt><trkpt lat="41.480645" lon="-5.602258"><ele>646.513</ele><time>2010-01-01T02:30:52Z</time></trkpt><trkpt lat="41.481298" lon="-5.599219"><ele>645.569</ele><time>2010-01-01T02:29:17Z</time></trkpt><trkpt lat="41.481546" lon="-5.598128"><ele>642.770</ele><time>2010-01-01T02:28:42Z</time></trkpt><trkpt lat="41.481645" lon="-5.597603"><ele>642.684</ele><time>2010-01-01T02:28:26Z</time></trkpt><trkpt lat="41.482120" lon="-5.596920"><ele>646.407</ele><time>2010-01-01T02:27:58Z</time></trkpt><trkpt lat="41.482332" lon="-5.596651"><ele>645.617</ele><time>2010-01-01T02:27:47Z</time></trkpt><trkpt lat="41.483362" lon="-5.595403"><ele>646.709</ele><time>2010-01-01T02:26:51Z</time></trkpt><trkpt lat="41.483386" lon="-5.595237"><ele>647.299</ele><time>2010-01-01T02:26:46Z</time></trkpt><trkpt lat="41.482812" lon="-5.593890"><ele>652.829</ele><time>2010-01-01T02:25:59Z</time></trkpt><trkpt lat="41.482004" lon="-5.592049"><ele>652.216</ele><time>2010-01-01T02:24:55Z</time></trkpt><trkpt lat="41.481882" lon="-5.591937"><ele>653.575</ele><time>2010-01-01T02:24:49Z</time></trkpt><trkpt lat="41.481656" lon="-5.591748"><ele>655.130</ele><time>2010-01-01T02:24:39Z</time></trkpt><trkpt lat="41.481559" lon="-5.591290"><ele>654.782</ele><time>2010-01-01T02:24:24Z</time></trkpt><trkpt lat="41.481513" lon="-5.590280"><ele>655.585</ele><time>2010-01-01T02:23:54Z</time></trkpt><trkpt lat="41.481672" lon="-5.588857"><ele>660.291</ele><time>2010-01-01T02:23:11Z</time></trkpt><trkpt lat="41.481812" lon="-5.587919"><ele>665.762</ele><time>2010-01-01T02:22:42Z</time></trkpt><trkpt lat="41.481974" lon="-5.587084"><ele>667.174</ele><time>2010-01-01T02:22:16Z</time></trkpt><trkpt lat="41.481996" lon="-5.585252"><ele>665.856</ele><time>2010-01-01T02:21:20Z</time></trkpt><trkpt lat="41.481826" lon="-5.584457"><ele>666.621</ele><time>2010-01-01T02:20:56Z</time></trkpt><trkpt lat="41.479910" lon="-5.578666"><ele>648.309</ele><time>2010-01-01T02:17:45Z</time></trkpt><trkpt lat="41.477576" lon="-5.574787"><ele>649.098</ele><time>2010-01-01T02:15:16Z</time></trkpt><trkpt lat="41.476978" lon="-5.573907"><ele>648.128</ele><time>2010-01-01T02:14:41Z</time></trkpt><trkpt lat="41.476705" lon="-5.573435"><ele>648.065</ele><time>2010-01-01T02:14:23Z</time></trkpt><trkpt lat="41.476439" lon="-5.572026"><ele>648.194</ele><time>2010-01-01T02:13:39Z</time></trkpt><trkpt lat="41.476713" lon="-5.569386"><ele>654.219</ele><time>2010-01-01T02:12:19Z</time></trkpt><trkpt lat="41.476972" lon="-5.568209"><ele>656.671</ele><time>2010-01-01T02:11:42Z</time></trkpt><trkpt lat="41.476067" lon="-5.567316"><ele>660.384</ele><time>2010-01-01T02:10:57Z</time></trkpt><trkpt lat="41.475722" lon="-5.566975"><ele>659.690</ele><time>2010-01-01T02:10:40Z</time></trkpt><trkpt lat="41.474970" lon="-5.566230"><ele>662.421</ele><time>2010-01-01T02:10:02Z</time></trkpt><trkpt lat="41.474646" lon="-5.565911"><ele>662.064</ele><time>2010-01-01T02:09:46Z</time></trkpt><trkpt lat="41.473005" lon="-5.564743"><ele>663.006</ele><time>2010-01-01T02:08:32Z</time></trkpt><trkpt lat="41.464958" lon="-5.562620"><ele>659.616</ele><time>2010-01-01T02:03:03Z</time></trkpt><trkpt lat="41.463452" lon="-5.561749"><ele>664.709</ele><time>2010-01-01T02:01:58Z</time></trkpt><trkpt lat="41.461169" lon="-5.560429"><ele>661.987</ele><time>2010-01-01T02:00:18Z</time></trkpt><trkpt lat="41.458083" lon="-5.558620"><ele>664.917</ele><time>2010-01-01T01:58:03Z</time></trkpt><trkpt lat="41.457498" lon="-5.558301"><ele>666.054</ele><time>2010-01-01T01:57:38Z</time></trkpt><trkpt lat="41.457143" lon="-5.558099"><ele>664.753</ele><time>2010-01-01T01:57:22Z</time></trkpt><trkpt lat="41.456741" lon="-5.558301"><ele>664.018</ele><time>2010-01-01T01:57:05Z</time></trkpt><trkpt lat="41.455658" lon="-5.558871"><ele>660.570</ele><time>2010-01-01T01:56:19Z</time></trkpt><trkpt lat="41.454973" lon="-5.558983"><ele>660.313</ele><time>2010-01-01T01:55:51Z</time></trkpt><trkpt lat="41.454421" lon="-5.558786"><ele>658.499</ele><time>2010-01-01T01:55:28Z</time></trkpt><trkpt lat="41.453903" lon="-5.558485"><ele>660.840</ele><time>2010-01-01T01:55:05Z</time></trkpt><trkpt lat="41.456361" lon="-5.555549"><ele>672.024</ele><time>2010-01-01T01:52:53Z</time></trkpt><trkpt lat="41.456717" lon="-5.554853"><ele>673.104</ele><time>2010-01-01T01:52:27Z</time></trkpt><trkpt lat="41.457361" lon="-5.550660"><ele>692.214</ele><time>2010-01-01T01:50:19Z</time></trkpt><trkpt lat="41.457038" lon="-5.549142"><ele>714.609</ele><time>2010-01-01T01:49:31Z</time></trkpt><trkpt lat="41.456455" lon="-5.548231"><ele>726.523</ele><time>2010-01-01T01:48:55Z</time></trkpt><trkpt lat="41.456997" lon="-5.547962"><ele>729.273</ele><time>2010-01-01T01:48:31Z</time></trkpt><trkpt lat="41.457215" lon="-5.547625"><ele>733.160</ele><time>2010-01-01T01:48:18Z</time></trkpt><trkpt lat="41.457310" lon="-5.547315"><ele>735.119</ele><time>2010-01-01T01:48:08Z</time></trkpt><trkpt lat="41.458175" lon="-5.543804"><ele>730.334</ele><time>2010-01-01T01:46:16Z</time></trkpt><trkpt lat="41.457983" lon="-5.542929"><ele>734.176</ele><time>2010-01-01T01:45:49Z</time></trkpt><trkpt lat="41.458145" lon="-5.542013"><ele>739.289</ele><time>2010-01-01T01:45:21Z</time></trkpt><trkpt lat="41.459008" lon="-5.540316"><ele>743.895</ele><time>2010-01-01T01:44:19Z</time></trkpt><trkpt lat="41.459369" lon="-5.539862"><ele>747.046</ele><time>2010-01-01T01:43:59Z</time></trkpt><trkpt lat="41.460333" lon="-5.539149"><ele>752.442</ele><time>2010-01-01T01:43:15Z</time></trkpt><trkpt lat="41.462551" lon="-5.535786"><ele>778.322</ele><time>2010-01-01T01:41:01Z</time></trkpt><trkpt lat="41.463001" lon="-5.535449"><ele>780.214</ele><time>2010-01-01T01:40:40Z</time></trkpt><trkpt lat="41.468367" lon="-5.531727"><ele>778.109</ele><time>2010-01-01T01:36:38Z</time></trkpt><trkpt lat="41.470426" lon="-5.529060"><ele>773.755</ele><time>2010-01-01T01:34:43Z</time></trkpt><trkpt lat="41.471477" lon="-5.526937"><ele>775.035</ele><time>2010-01-01T01:33:26Z</time></trkpt><trkpt lat="41.472075" lon="-5.525720"><ele>776.272</ele><time>2010-01-01T01:32:43Z</time></trkpt><trkpt lat="41.474382" lon="-5.520872"><ele>766.251</ele><time>2010-01-01T01:29:50Z</time></trkpt><trkpt lat="41.474851" lon="-5.519879"><ele>771.946</ele><time>2010-01-01T01:29:15Z</time></trkpt><trkpt lat="41.475320" lon="-5.518887"><ele>771.858</ele><time>2010-01-01T01:28:40Z</time></trkpt><trkpt lat="41.475910" lon="-5.517518"><ele>774.171</ele><time>2010-01-01T01:27:53Z</time></trkpt><trkpt lat="41.476625" lon="-5.515367"><ele>780.387</ele><time>2010-01-01T01:26:42Z</time></trkpt><trkpt lat="41.476627" lon="-5.512009"><ele>767.578</ele><time>2010-01-01T01:25:01Z</time></trkpt><trkpt lat="41.476501" lon="-5.511282"><ele>769.324</ele><time>2010-01-01T01:24:39Z</time></trkpt><trkpt lat="41.476261" lon="-5.510505"><ele>774.604</ele><time>2010-01-01T01:24:13Z</time></trkpt><trkpt lat="41.476096" lon="-5.509998"><ele>774.014</ele><time>2010-01-01T01:23:57Z</time></trkpt><trkpt lat="41.475805" lon="-5.508925"><ele>769.609</ele><time>2010-01-01T01:23:23Z</time></trkpt><trkpt lat="41.475679" lon="-5.508458"><ele>764.213</ele><time>2010-01-01T01:23:08Z</time></trkpt><trkpt lat="41.475565" lon="-5.508148"><ele>761.753</ele><time>2010-01-01T01:22:57Z</time></trkpt><trkpt lat="41.474552" lon="-5.506752"><ele>756.430</ele><time>2010-01-01T01:21:59Z</time></trkpt><trkpt lat="41.474374" lon="-5.506303"><ele>757.389</ele><time>2010-01-01T01:21:44Z</time></trkpt><trkpt lat="41.474008" lon="-5.505163"><ele>758.574</ele><time>2010-01-01T01:21:06Z</time></trkpt><trkpt lat="41.473547" lon="-5.504597"><ele>760.366</ele><time>2010-01-01T01:20:41Z</time></trkpt><trkpt lat="41.472957" lon="-5.504166"><ele>758.679</ele><time>2010-01-01T01:20:14Z</time></trkpt><trkpt lat="41.472682" lon="-5.503766"><ele>754.765</ele><time>2010-01-01T01:19:57Z</time></trkpt><trkpt lat="41.472776" lon="-5.498823"><ele>759.796</ele><time>2010-01-01T01:17:28Z</time></trkpt><trkpt lat="41.473027" lon="-5.497319"><ele>756.079</ele><time>2010-01-01T01:16:42Z</time></trkpt><trkpt lat="41.472846" lon="-5.496893"><ele>757.005</ele><time>2010-01-01T01:16:26Z</time></trkpt><trkpt lat="41.472641" lon="-5.496655"><ele>754.925</ele><time>2010-01-01T01:16:16Z</time></trkpt><trkpt lat="41.472183" lon="-5.495375"><ele>744.409</ele><time>2010-01-01T01:15:33Z</time></trkpt><trkpt lat="41.472307" lon="-5.495340"><ele>744.848</ele><time>2010-01-01T01:15:28Z</time></trkpt><trkpt lat="41.472393" lon="-5.495155"><ele>744.168</ele><time>2010-01-01T01:15:21Z</time></trkpt><trkpt lat="41.472466" lon="-5.494971"><ele>743.095</ele><time>2010-01-01T01:15:15Z</time></trkpt><trkpt lat="41.472620" lon="-5.494424"><ele>738.784</ele><time>2010-01-01T01:14:58Z</time></trkpt><trkpt lat="41.473423" lon="-5.493687"><ele>733.599</ele><time>2010-01-01T01:14:19Z</time></trkpt><trkpt lat="41.475749" lon="-5.492071"><ele>717.821</ele><time>2010-01-01T01:12:34Z</time></trkpt><trkpt lat="41.476587" lon="-5.490181"><ele>713.544</ele><time>2010-01-01T01:11:28Z</time></trkpt><trkpt lat="41.476948" lon="-5.489723"><ele>708.050</ele><time>2010-01-01T01:11:07Z</time></trkpt><trkpt lat="41.477538" lon="-5.489278"><ele>704.191</ele><time>2010-01-01T01:10:40Z</time></trkpt><trkpt lat="41.477867" lon="-5.489050"><ele>699.451</ele><time>2010-01-01T01:10:25Z</time></trkpt><trkpt lat="41.478384" lon="-5.488439"><ele>697.501</ele><time>2010-01-01T01:09:57Z</time></trkpt><trkpt lat="41.478524" lon="-5.488129"><ele>695.811</ele><time>2010-01-01T01:09:46Z</time></trkpt><trkpt lat="41.478694" lon="-5.487694"><ele>690.709</ele><time>2010-01-01T01:09:31Z</time></trkpt><trkpt lat="41.479155" lon="-5.487375"><ele>688.236</ele><time>2010-01-01T01:09:10Z</time></trkpt><trkpt lat="41.479567" lon="-5.486971"><ele>683.556</ele><time>2010-01-01T01:08:50Z</time></trkpt><trkpt lat="41.480354" lon="-5.486522"><ele>677.933</ele><time>2010-01-01T01:08:16Z</time></trkpt><trkpt lat="41.480662" lon="-5.486347"><ele>671.392</ele><time>2010-01-01T01:08:02Z</time></trkpt><trkpt lat="41.480845" lon="-5.486131"><ele>665.977</ele><time>2010-01-01T01:07:53Z</time></trkpt><trkpt lat="41.482424" lon="-5.485615"><ele>649.369</ele><time>2010-01-01T01:06:46Z</time></trkpt><trkpt lat="41.483195" lon="-5.485054"><ele>645.812</ele><time>2010-01-01T01:06:11Z</time></trkpt><trkpt lat="41.483203" lon="-5.484924"><ele>645.818</ele><time>2010-01-01T01:06:07Z</time></trkpt><trkpt lat="41.485976" lon="-5.483482"><ele>638.019</ele><time>2010-01-01T01:04:08Z</time></trkpt><trkpt lat="41.486696" lon="-5.483276"><ele>639.077</ele><time>2010-01-01T01:03:38Z</time></trkpt><trkpt lat="41.487124" lon="-5.482926"><ele>639.061</ele><time>2010-01-01T01:03:18Z</time></trkpt><trkpt lat="41.488307" lon="-5.482630"><ele>639.027</ele><time>2010-01-01T01:02:30Z</time></trkpt><trkpt lat="41.489916" lon="-5.482454"><ele>639.009</ele><time>2010-01-01T01:01:25Z</time></trkpt><trkpt lat="41.490884" lon="-5.482356"><ele>635.738</ele><time>2010-01-01T01:00:46Z</time></trkpt><trkpt lat="41.491746" lon="-5.482576"><ele>639.738</ele><time>2010-01-01T01:00:11Z</time></trkpt><trkpt lat="41.494303" lon="-5.483191"><ele>639.355</ele><time>2010-01-01T00:58:27Z</time></trkpt><trkpt lat="41.494681" lon="-5.481615"><ele>643.434</ele><time>2010-01-01T00:57:38Z</time></trkpt><trkpt lat="41.494918" lon="-5.480573"><ele>639.949</ele><time>2010-01-01T00:57:05Z</time></trkpt><trkpt lat="41.495077" lon="-5.479734"><ele>642.081</ele><time>2010-01-01T00:56:39Z</time></trkpt><trkpt lat="41.495293" lon="-5.478589"><ele>637.944</ele><time>2010-01-01T00:56:04Z</time></trkpt><trkpt lat="41.495519" lon="-5.477637"><ele>639.090</ele><time>2010-01-01T00:55:34Z</time></trkpt><trkpt lat="41.495619" lon="-5.477220"><ele>636.541</ele><time>2010-01-01T00:55:20Z</time></trkpt><trkpt lat="41.495888" lon="-5.475657"><ele>640.552</ele><time>2010-01-01T00:54:32Z</time></trkpt><trkpt lat="41.496368" lon="-5.472883"><ele>638.053</ele><time>2010-01-01T00:53:07Z</time></trkpt><trkpt lat="41.496839" lon="-5.470018"><ele>639.008</ele><time>2010-01-01T00:51:39Z</time></trkpt><trkpt lat="41.497761" lon="-5.466817"><ele>639.609</ele><time>2010-01-01T00:49:56Z</time></trkpt><trkpt lat="41.498171" lon="-5.465524"><ele>637.066</ele><time>2010-01-01T00:49:14Z</time></trkpt><trkpt lat="41.498473" lon="-5.465170"><ele>637.566</ele><time>2010-01-01T00:48:58Z</time></trkpt><trkpt lat="41.498572" lon="-5.464231"><ele>639.833</ele><time>2010-01-01T00:48:28Z</time></trkpt><trkpt lat="41.499626" lon="-5.460244"><ele>641.652</ele><time>2010-01-01T00:46:21Z</time></trkpt><trkpt lat="41.500098" lon="-5.458036"><ele>641.047</ele><time>2010-01-01T00:45:13Z</time></trkpt><trkpt lat="41.500483" lon="-5.456415"><ele>643.849</ele><time>2010-01-01T00:44:22Z</time></trkpt><trkpt lat="41.500771" lon="-5.453726"><ele>641.492</ele><time>2010-01-01T00:43:00Z</time></trkpt><trkpt lat="41.500591" lon="-5.453519"><ele>640.028</ele><time>2010-01-01T00:42:50Z</time></trkpt><trkpt lat="41.500596" lon="-5.453128"><ele>641.849</ele><time>2010-01-01T00:42:38Z</time></trkpt><trkpt lat="41.500680" lon="-5.452603"><ele>640.563</ele><time>2010-01-01T00:42:22Z</time></trkpt><trkpt lat="41.501173" lon="-5.450049"><ele>642.344</ele><time>2010-01-01T00:41:03Z</time></trkpt><trkpt lat="41.502070" lon="-5.445901"><ele>642.618</ele><time>2010-01-01T00:38:53Z</time></trkpt><trkpt lat="41.502359" lon="-5.444598"><ele>639.009</ele><time>2010-01-01T00:38:13Z</time></trkpt><trkpt lat="41.502550" lon="-5.443714"><ele>640.277</ele><time>2010-01-01T00:37:45Z</time></trkpt><trkpt lat="41.502803" lon="-5.443081"><ele>641.057</ele><time>2010-01-01T00:37:23Z</time></trkpt><trkpt lat="41.503324" lon="-5.441985"><ele>638.984</ele><time>2010-01-01T00:36:45Z</time></trkpt><trkpt lat="41.504283" lon="-5.439310"><ele>642.513</ele><time>2010-01-01T00:35:16Z</time></trkpt><trkpt lat="41.505444" lon="-5.435561"><ele>640.838</ele><time>2010-01-01T00:33:14Z</time></trkpt><trkpt lat="41.506210" lon="-5.432777"><ele>643.360</ele><time>2010-01-01T00:31:45Z</time></trkpt><trkpt lat="41.506447" lon="-5.431848"><ele>640.833</ele><time>2010-01-01T00:31:16Z</time></trkpt><trkpt lat="41.507088" lon="-5.428863"><ele>641.139</ele><time>2010-01-01T00:29:42Z</time></trkpt><trkpt lat="41.507719" lon="-5.426559"><ele>644.280</ele><time>2010-01-01T00:28:29Z</time></trkpt><trkpt lat="41.508042" lon="-5.425572"><ele>643.094</ele><time>2010-01-01T00:27:57Z</time></trkpt><trkpt lat="41.508339" lon="-5.424579"><ele>642.557</ele><time>2010-01-01T00:27:24Z</time></trkpt><trkpt lat="41.509169" lon="-5.420916"><ele>649.022</ele><time>2010-01-01T00:25:30Z</time></trkpt><trkpt lat="41.509923" lon="-5.417634"><ele>648.109</ele><time>2010-01-01T00:23:47Z</time></trkpt><trkpt lat="41.509975" lon="-5.417360"><ele>646.840</ele><time>2010-01-01T00:23:38Z</time></trkpt><trkpt lat="41.508123" lon="-5.415461"><ele>639.050</ele><time>2010-01-01T00:22:04Z</time></trkpt><trkpt lat="41.509694" lon="-5.410083"><ele>643.717</ele><time>2010-01-01T00:19:11Z</time></trkpt><trkpt lat="41.510056" lon="-5.410325"><ele>642.086</ele><time>2010-01-01T00:18:55Z</time></trkpt><trkpt lat="41.512664" lon="-5.410922"><ele>644.261</ele><time>2010-01-01T00:17:09Z</time></trkpt><trkpt lat="41.513484" lon="-5.411735"><ele>647.353</ele><time>2010-01-01T00:16:28Z</time></trkpt><trkpt lat="41.515233" lon="-5.413733"><ele>646.486</ele><time>2010-01-01T00:14:56Z</time></trkpt><trkpt lat="41.516071" lon="-5.413751"><ele>654.762</ele><time>2010-01-01T00:14:22Z</time></trkpt><trkpt lat="41.516804" lon="-5.413172"><ele>664.313</ele><time>2010-01-01T00:13:48Z</time></trkpt><trkpt lat="41.518631" lon="-5.411219"><ele>684.069</ele><time>2010-01-01T00:12:14Z</time></trkpt><trkpt lat="41.519113" lon="-5.409993"><ele>694.804</ele><time>2010-01-01T00:11:32Z</time></trkpt><trkpt lat="41.519202" lon="-5.408664"><ele>706.224</ele><time>2010-01-01T00:10:52Z</time></trkpt><trkpt lat="41.519243" lon="-5.408040"><ele>705.709</ele><time>2010-01-01T00:10:33Z</time></trkpt><trkpt lat="41.519477" lon="-5.406563"><ele>711.137</ele><time>2010-01-01T00:09:48Z</time></trkpt><trkpt lat="41.519707" lon="-5.405799"><ele>716.197</ele><time>2010-01-01T00:09:23Z</time></trkpt><trkpt lat="41.520171" lon="-5.405300"><ele>719.464</ele><time>2010-01-01T00:08:59Z</time></trkpt><trkpt lat="41.520686" lon="-5.405408"><ele>723.273</ele><time>2010-01-01T00:08:38Z</time></trkpt><trkpt lat="41.521567" lon="-5.405296"><ele>723.338</ele><time>2010-01-01T00:08:02Z</time></trkpt><trkpt lat="41.522224" lon="-5.404811"><ele>722.460</ele><time>2010-01-01T00:07:32Z</time></trkpt><trkpt lat="41.523300" lon="-5.403082"><ele>721.973</ele><time>2010-01-01T00:06:24Z</time></trkpt><trkpt lat="41.523647" lon="-5.402800"><ele>722.999</ele><time>2010-01-01T00:06:08Z</time></trkpt><trkpt lat="41.525060" lon="-5.401646"><ele>720.010</ele><time>2010-01-01T00:05:02Z</time></trkpt><trkpt lat="41.522793" lon="-5.398737"><ele>727.519</ele><time>2010-01-01T00:02:55Z</time></trkpt><trkpt lat="41.522507" lon="-5.398333"><ele>728.009</ele><time>2010-01-01T00:02:38Z</time></trkpt><trkpt lat="41.521968" lon="-5.397673"><ele>728.419</ele><time>2010-01-01T00:02:09Z</time></trkpt><trkpt lat="41.521777" lon="-5.397687"><ele>727.909</ele><time>2010-01-01T00:01:59Z</time></trkpt><trkpt lat="41.521305" lon="-5.396847"><ele>730.422</ele><time>2010-01-01T00:01:27Z</time></trkpt><trkpt lat="41.521173" lon="-5.396820"><ele>730.482</ele><time>2010-01-01T00:01:22Z</time></trkpt><trkpt lat="41.520296" lon="-5.394349"><ele>741.049</ele><time>2010-01-01T00:00:00Z</time></trkpt><trkpt lat="41.520400" lon="-5.394266"><ele>741.088</ele><time>2010-01-01T05:00:49Z</time></trkpt><trkpt lat="41.520242" lon="-5.393523"><ele>742.163</ele><time>2010-01-01T05:00:26Z</time></trkpt><trkpt lat="41.519865" lon="-5.391748"><ele>740.025</ele><time>2010-01-01T04:59:30Z</time></trkpt><trkpt lat="41.519679" lon="-5.391517"><ele>740.878</ele><time>2010-01-01T04:59:20Z</time></trkpt><trkpt lat="41.519346" lon="-5.391129"><ele>736.034</ele><time>2010-01-01T04:59:02Z</time></trkpt><trkpt lat="41.519273" lon="-5.390314"><ele>738.525</ele><time>2010-01-01T04:58:38Z</time></trkpt><trkpt lat="41.519133" lon="-5.390916"><ele>731.987</ele><time>2010-01-01T04:58:16Z</time></trkpt><trkpt lat="41.519058" lon="-5.391051"><ele>728.342</ele><time>2010-01-01T04:58:11Z</time></trkpt><trkpt lat="41.518524" lon="-5.390238"><ele>710.826</ele><time>2010-01-01T04:57:37Z</time></trkpt><trkpt lat="41.516535" lon="-5.389443"><ele>678.109</ele><time>2010-01-01T04:56:14Z</time></trkpt><trkpt lat="41.516393" lon="-5.388707"><ele>682.489</ele><time>2010-01-01T04:55:51Z</time></trkpt><trkpt lat="41.516258" lon="-5.389205"><ele>677.249</ele><time>2010-01-01T04:55:34Z</time></trkpt><trkpt lat="41.516166" lon="-5.389255"><ele>675.976</ele><time>2010-01-01T04:55:30Z</time></trkpt><trkpt lat="41.515387" lon="-5.389044"><ele>672.075</ele><time>2010-01-01T04:54:57Z</time></trkpt><trkpt lat="41.513762" lon="-5.389075"><ele>661.450</ele><time>2010-01-01T04:53:52Z</time></trkpt><trkpt lat="41.513318" lon="-5.389246"><ele>654.372</ele><time>2010-01-01T04:53:33Z</time></trkpt><trkpt lat="41.510216" lon="-5.391369"><ele>645.025</ele><time>2010-01-01T04:51:13Z</time></trkpt><trkpt lat="41.509000" lon="-5.392689"><ele>641.761</ele><time>2010-01-01T04:50:11Z</time></trkpt><trkpt lat="41.508564" lon="-5.393834"><ele>643.042</ele><time>2010-01-01T04:49:32Z</time></trkpt><trkpt lat="41.508092" lon="-5.397632"><ele>645.154</ele><time>2010-01-01T04:47:36Z</time></trkpt><trkpt lat="41.507674" lon="-5.400914"><ele>641.756</ele><time>2010-01-01T04:45:56Z</time></trkpt><trkpt lat="41.507542" lon="-5.400829"><ele>641.111</ele><time>2010-01-01T04:45:51Z</time></trkpt><trkpt lat="41.507569" lon="-5.399635"><ele>641.509</ele><time>2010-01-01T04:45:13Z</time></trkpt><trkpt lat="41.505958" lon="-5.400245"><ele>640.576</ele><time>2010-01-01T04:44:06Z</time></trkpt><trkpt lat="41.504322" lon="-5.400492"><ele>643.756</ele><time>2010-01-01T04:43:00Z</time></trkpt><trkpt lat="41.502546" lon="-5.400465"><ele>641.253</ele><time>2010-01-01T04:41:49Z</time></trkpt><trkpt lat="41.500756" lon="-5.399873"><ele>644.322</ele><time>2010-01-01T04:40:35Z</time></trkpt><trkpt lat="41.499646" lon="-5.399545"><ele>642.677</ele><time>2010-01-01T04:39:50Z</time></trkpt><trkpt lat="41.498862" lon="-5.399123"><ele>646.039</ele><time>2010-01-01T04:39:16Z</time></trkpt><trkpt lat="41.498452" lon="-5.398898"><ele>645.092</ele><time>2010-01-01T04:38:58Z</time></trkpt><trkpt lat="41.497102" lon="-5.397861"><ele>646.338</ele><time>2010-01-01T04:37:56Z</time></trkpt><trkpt lat="41.494741" lon="-5.396097"><ele>642.849</ele><time>2010-01-01T04:36:07Z</time></trkpt><trkpt lat="41.493461" lon="-5.395392"><ele>645.482</ele><time>2010-01-01T04:35:12Z</time></trkpt><trkpt lat="41.492825" lon="-5.394916"><ele>645.443</ele><time>2010-01-01T04:34:43Z</time></trkpt><trkpt lat="41.491682" lon="-5.393318"><ele>648.917</ele><time>2010-01-01T04:33:36Z</time></trkpt><trkpt lat="41.489526" lon="-5.389520"><ele>646.009</ele><time>2010-01-01T04:31:13Z</time></trkpt><trkpt lat="41.487551" lon="-5.384891"><ele>648.069</ele><time>2010-01-01T04:28:34Z</time></trkpt><trkpt lat="41.486772" lon="-5.382745"><ele>654.849</ele><time>2010-01-01T04:27:22Z</time></trkpt><trkpt lat="41.485368" lon="-5.378273"><ele>651.756</ele><time>2010-01-01T04:24:57Z</time></trkpt><trkpt lat="41.485303" lon="-5.376662"><ele>652.885</ele><time>2010-01-01T04:24:08Z</time></trkpt><trkpt lat="41.486125" lon="-5.373990"><ele>652.080</ele><time>2010-01-01T04:22:41Z</time></trkpt><trkpt lat="41.486457" lon="-5.372540"><ele>648.282</ele><time>2010-01-01T04:21:56Z</time></trkpt><trkpt lat="41.486756" lon="-5.371458"><ele>651.395</ele><time>2010-01-01T04:21:21Z</time></trkpt><trkpt lat="41.486920" lon="-5.370901"><ele>650.221</ele><time>2010-01-01T04:21:03Z</time></trkpt><trkpt lat="41.487228" lon="-5.369689"><ele>651.832</ele><time>2010-01-01T04:20:25Z</time></trkpt><trkpt lat="41.487317" lon="-5.369478"><ele>650.675</ele><time>2010-01-01T04:20:18Z</time></trkpt><trkpt lat="41.488729" lon="-5.366645"><ele>648.228</ele><time>2010-01-01T04:18:36Z</time></trkpt><trkpt lat="41.489155" lon="-5.364845"><ele>650.520</ele><time>2010-01-01T04:17:39Z</time></trkpt><trkpt lat="41.489235" lon="-5.364405"><ele>647.509</ele><time>2010-01-01T04:17:25Z</time></trkpt><trkpt lat="41.489195" lon="-5.363525"><ele>648.198</ele><time>2010-01-01T04:16:58Z</time></trkpt><trkpt lat="41.488882" lon="-5.362627"><ele>647.558</ele><time>2010-01-01T04:16:29Z</time></trkpt><trkpt lat="41.488370" lon="-5.360876"><ele>646.625</ele><time>2010-01-01T04:15:32Z</time></trkpt><trkpt lat="41.488007" lon="-5.358771"><ele>649.794</ele><time>2010-01-01T04:14:27Z</time></trkpt><trkpt lat="41.487098" lon="-5.355808"><ele>646.299</ele><time>2010-01-01T04:12:51Z</time></trkpt><trkpt lat="41.486036" lon="-5.353841"><ele>646.321</ele><time>2010-01-01T04:11:38Z</time></trkpt><trkpt lat="41.484692" lon="-5.352216"><ele>649.134</ele><time>2010-01-01T04:10:25Z</time></trkpt><trkpt lat="41.483730" lon="-5.351287"><ele>648.470</ele><time>2010-01-01T04:09:38Z</time></trkpt><trkpt lat="41.482711" lon="-5.350968"><ele>653.211</ele><time>2010-01-01T04:08:56Z</time></trkpt><trkpt lat="41.479463" lon="-5.350645"><ele>652.336</ele><time>2010-01-01T04:06:45Z</time></trkpt><trkpt lat="41.478407" lon="-5.350968"><ele>653.017</ele><time>2010-01-01T04:06:01Z</time></trkpt><trkpt lat="41.477747" lon="-5.350766"><ele>650.818</ele><time>2010-01-01T04:05:34Z</time></trkpt><trkpt lat="41.477135" lon="-5.348750"><ele>645.809</ele><time>2010-01-01T04:04:28Z</time></trkpt><trkpt lat="41.476534" lon="-5.347659"><ele>645.454</ele><time>2010-01-01T04:03:48Z</time></trkpt><trkpt lat="41.475917" lon="-5.346860"><ele>645.774</ele><time>2010-01-01T04:03:13Z</time></trkpt><trkpt lat="41.475483" lon="-5.345872"><ele>647.071</ele><time>2010-01-01T04:02:39Z</time></trkpt><trkpt lat="41.475362" lon="-5.345652"><ele>646.350</ele><time>2010-01-01T04:02:31Z</time></trkpt><trkpt lat="41.474984" lon="-5.345212"><ele>647.155</ele><time>2010-01-01T04:02:11Z</time></trkpt><trkpt lat="41.474295" lon="-5.344947"><ele>647.267</ele><time>2010-01-01T04:01:42Z</time></trkpt><trkpt lat="41.470573" lon="-5.344853"><ele>647.040</ele><time>2010-01-01T03:59:13Z</time></trkpt><trkpt lat="41.468762" lon="-5.344435"><ele>648.566</ele><time>2010-01-01T03:57:59Z</time></trkpt><trkpt lat="41.466622" lon="-5.343843"><ele>647.747</ele><time>2010-01-01T03:56:32Z</time></trkpt><trkpt lat="41.465628" lon="-5.344063"><ele>649.182</ele><time>2010-01-01T03:55:51Z</time></trkpt><trkpt lat="41.464593" lon="-5.344570"><ele>646.043</ele><time>2010-01-01T03:55:07Z</time></trkpt><trkpt lat="41.463887" lon="-5.343829"><ele>650.017</ele><time>2010-01-01T03:54:31Z</time></trkpt><trkpt lat="41.463566" lon="-5.343502"><ele>649.809</ele><time>2010-01-01T03:54:14Z</time></trkpt><trkpt lat="41.457335" lon="-5.335479"><ele>648.749</ele><time>2010-01-01T03:48:28Z</time></trkpt><trkpt lat="41.456470" lon="-5.334716"><ele>650.089</ele><time>2010-01-01T03:47:46Z</time></trkpt><trkpt lat="41.456174" lon="-5.334374"><ele>649.456</ele><time>2010-01-01T03:47:31Z</time></trkpt><trkpt lat="41.455653" lon="-5.333418"><ele>651.695</ele><time>2010-01-01T03:46:55Z</time></trkpt><trkpt lat="41.452665" lon="-5.328794"><ele>650.730</ele><time>2010-01-01T03:43:52Z</time></trkpt><trkpt lat="41.451336" lon="-5.326064"><ele>650.062</ele><time>2010-01-01T03:42:14Z</time></trkpt><trkpt lat="41.450282" lon="-5.323106"><ele>652.055</ele><time>2010-01-01T03:40:36Z</time></trkpt><trkpt lat="41.449269" lon="-5.320785"><ele>650.621</ele><time>2010-01-01T03:39:15Z</time></trkpt><trkpt lat="41.448520" lon="-5.318553"><ele>653.882</ele><time>2010-01-01T03:38:02Z</time></trkpt><trkpt lat="41.447426" lon="-5.316039"><ele>652.021</ele><time>2010-01-01T03:36:34Z</time></trkpt><trkpt lat="41.447008" lon="-5.315428"><ele>650.041</ele><time>2010-01-01T03:36:09Z</time></trkpt><trkpt lat="41.443952" lon="-5.310575"><ele>653.205</ele><time>2010-01-01T03:32:59Z</time></trkpt><trkpt lat="41.443060" lon="-5.309026"><ele>651.609</ele><time>2010-01-01T03:32:01Z</time></trkpt><trkpt lat="41.441483" lon="-5.307028"><ele>650.973</ele><time>2010-01-01T03:30:33Z</time></trkpt><trkpt lat="41.440419" lon="-5.305457"><ele>651.583</ele><time>2010-01-01T03:29:30Z</time></trkpt><trkpt lat="41.439311" lon="-5.304550"><ele>653.320</ele><time>2010-01-01T03:28:38Z</time></trkpt><trkpt lat="41.437678" lon="-5.302772"><ele>652.479</ele><time>2010-01-01T03:27:13Z</time></trkpt><trkpt lat="41.437004" lon="-5.302288"><ele>651.194</ele><time>2010-01-01T03:26:43Z</time></trkpt><trkpt lat="41.433948" lon="-5.301062"><ele>656.826</ele><time>2010-01-01T03:24:34Z</time></trkpt><trkpt lat="41.433148" lon="-5.300793"><ele>657.029</ele><time>2010-01-01T03:24:01Z</time></trkpt><trkpt lat="41.433075" lon="-5.300914"><ele>657.065</ele><time>2010-01-01T03:23:56Z</time></trkpt><trkpt lat="41.432167" lon="-5.300308"><ele>657.096</ele><time>2010-01-01T03:23:15Z</time></trkpt><trkpt lat="41.430924" lon="-5.298741"><ele>658.732</ele><time>2010-01-01T03:22:06Z</time></trkpt><trkpt lat="41.430730" lon="-5.298485"><ele>658.592</ele><time>2010-01-01T03:21:55Z</time></trkpt><trkpt lat="41.429116" lon="-5.296622"><ele>656.311</ele><time>2010-01-01T03:20:30Z</time></trkpt><trkpt lat="41.429976" lon="-5.295001"><ele>653.109</ele><time>2010-01-01T03:19:30Z</time></trkpt><trkpt lat="41.429599" lon="-5.292572"><ele>656.734</ele><time>2010-01-01T03:18:16Z</time></trkpt><trkpt lat="41.429466" lon="-5.291885"><ele>653.344</ele><time>2010-01-01T03:17:54Z</time></trkpt><trkpt lat="41.429003" lon="-5.291306"><ele>655.341</ele><time>2010-01-01T03:17:29Z</time></trkpt><trkpt lat="41.427569" lon="-5.290435"><ele>659.740</ele><time>2010-01-01T03:16:25Z</time></trkpt><trkpt lat="41.425125" lon="-5.289546"><ele>653.435</ele><time>2010-01-01T03:14:44Z</time></trkpt><trkpt lat="41.423974" lon="-5.288621"><ele>655.027</ele><time>2010-01-01T03:13:50Z</time></trkpt><trkpt lat="41.423187" lon="-5.287890"><ele>653.780</ele><time>2010-01-01T03:13:12Z</time></trkpt><trkpt lat="41.422452" lon="-5.286149"><ele>654.086</ele><time>2010-01-01T03:12:12Z</time></trkpt><trkpt lat="41.422187" lon="-5.285625"><ele>650.797</ele><time>2010-01-01T03:11:53Z</time></trkpt><trkpt lat="41.421961" lon="-5.285269"><ele>651.984</ele><time>2010-01-01T03:11:39Z</time></trkpt><trkpt lat="41.421709" lon="-5.285091"><ele>653.707</ele><time>2010-01-01T03:11:27Z</time></trkpt><trkpt lat="41.417821" lon="-5.283334"><ele>657.017</ele><time>2010-01-01T03:08:43Z</time></trkpt><trkpt lat="41.416678" lon="-5.282761"><ele>653.009</ele><time>2010-01-01T03:07:54Z</time></trkpt><trkpt lat="41.415335" lon="-5.282514"><ele>656.859</ele><time>2010-01-01T03:07:00Z</time></trkpt><trkpt lat="41.414890" lon="-5.282380"><ele>655.969</ele><time>2010-01-01T03:06:41Z</time></trkpt><trkpt lat="41.413462" lon="-5.281310"><ele>655.186</ele><time>2010-01-01T03:05:36Z</time></trkpt><trkpt lat="41.411427" lon="-5.279297"><ele>656.365</ele><time>2010-01-01T03:03:54Z</time></trkpt><trkpt lat="41.410677" lon="-5.278130"><ele>653.230</ele><time>2010-01-01T03:03:08Z</time></trkpt><trkpt lat="41.410466" lon="-5.278107"><ele>654.442</ele><time>2010-01-01T03:02:59Z</time></trkpt><trkpt lat="41.409806" lon="-5.278886"><ele>657.775</ele><time>2010-01-01T03:02:23Z</time></trkpt><trkpt lat="41.409033" lon="-5.278265"><ele>660.791</ele><time>2010-01-01T03:01:47Z</time></trkpt><trkpt lat="41.406410" lon="-5.276132"><ele>663.152</ele><time>2010-01-01T02:59:44Z</time></trkpt><trkpt lat="41.404528" lon="-5.274935"><ele>657.271</ele><time>2010-01-01T02:58:21Z</time></trkpt><trkpt lat="41.403638" lon="-5.274597"><ele>661.541</ele><time>2010-01-01T02:57:44Z</time></trkpt><trkpt lat="41.404624" lon="-5.268805"><ele>660.215</ele><time>2010-01-01T02:54:45Z</time></trkpt><trkpt lat="41.404759" lon="-5.268415"><ele>658.109</ele><time>2010-01-01T02:54:32Z</time></trkpt><trkpt lat="41.404614" lon="-5.268285"><ele>659.028</ele><time>2010-01-01T02:54:25Z</time></trkpt><trkpt lat="41.404738" lon="-5.266615"><ele>658.928</ele><time>2010-01-01T02:53:34Z</time></trkpt><trkpt lat="41.404422" lon="-5.264769"><ele>658.925</ele><time>2010-01-01T02:52:37Z</time></trkpt><trkpt lat="41.404546" lon="-5.261205"><ele>661.794</ele><time>2010-01-01T02:50:50Z</time></trkpt><trkpt lat="41.404662" lon="-5.259701"><ele>660.029</ele><time>2010-01-01T02:50:04Z</time></trkpt><trkpt lat="41.404393" lon="-5.258897"><ele>662.441</ele><time>2010-01-01T02:49:38Z</time></trkpt><trkpt lat="41.403700" lon="-5.256993"><ele>659.724</ele><time>2010-01-01T02:48:34Z</time></trkpt><trkpt lat="41.403212" lon="-5.255166"><ele>660.050</ele><time>2010-01-01T02:47:36Z</time></trkpt><trkpt lat="41.402962" lon="-5.254165"><ele>659.031</ele><time>2010-01-01T02:47:04Z</time></trkpt><trkpt lat="41.402768" lon="-5.252800"><ele>658.965</ele><time>2010-01-01T02:46:22Z</time></trkpt><trkpt lat="41.403277" lon="-5.252333"><ele>658.468</ele><time>2010-01-01T02:45:57Z</time></trkpt><trkpt lat="41.403886" lon="-5.251943"><ele>659.014</ele><time>2010-01-01T02:45:30Z</time></trkpt><trkpt lat="41.404511" lon="-5.251229"><ele>658.609</ele><time>2010-01-01T02:44:57Z</time></trkpt><trkpt lat="41.406187" lon="-5.249797"><ele>660.017</ele><time>2010-01-01T02:43:37Z</time></trkpt><trkpt lat="41.408023" lon="-5.248459"><ele>659.977</ele><time>2010-01-01T02:42:13Z</time></trkpt><trkpt lat="41.408201" lon="-5.248293"><ele>658.944</ele><time>2010-01-01T02:42:04Z</time></trkpt><trkpt lat="41.409642" lon="-5.247004"><ele>660.963</ele><time>2010-01-01T02:40:55Z</time></trkpt><trkpt lat="41.410483" lon="-5.246605"><ele>660.548</ele><time>2010-01-01T02:40:19Z</time></trkpt><trkpt lat="41.411246" lon="-5.246012"><ele>659.940</ele><time>2010-01-01T02:39:43Z</time></trkpt><trkpt lat="41.412122" lon="-5.245496"><ele>662.113</ele><time>2010-01-01T02:39:05Z</time></trkpt><trkpt lat="41.412836" lon="-5.244746"><ele>662.849</ele><time>2010-01-01T02:38:28Z</time></trkpt><trkpt lat="41.413305" lon="-5.244477"><ele>664.860</ele><time>2010-01-01T02:38:08Z</time></trkpt><trkpt lat="41.413682" lon="-5.244230"><ele>664.742</ele><time>2010-01-01T02:37:51Z</time></trkpt><trkpt lat="41.414388" lon="-5.243642"><ele>665.922</ele><time>2010-01-01T02:37:18Z</time></trkpt><trkpt lat="41.414679" lon="-5.243390"><ele>664.314</ele><time>2010-01-01T02:37:04Z</time></trkpt><trkpt lat="41.415245" lon="-5.242726"><ele>668.009</ele><time>2010-01-01T02:36:33Z</time></trkpt><trkpt lat="41.415817" lon="-5.242281"><ele>664.525</ele><time>2010-01-01T02:36:07Z</time></trkpt><trkpt lat="41.417487" lon="-5.239637"><ele>670.945</ele><time>2010-01-01T02:34:23Z</time></trkpt><trkpt lat="41.417878" lon="-5.239430"><ele>674.312</ele><time>2010-01-01T02:34:06Z</time></trkpt><trkpt lat="41.418247" lon="-5.239569"><ele>674.691</ele><time>2010-01-01T02:33:51Z</time></trkpt><trkpt lat="41.418698" lon="-5.239471"><ele>676.046</ele><time>2010-01-01T02:33:32Z</time></trkpt><trkpt lat="41.419404" lon="-5.239592"><ele>675.118</ele><time>2010-01-01T02:33:03Z</time></trkpt><trkpt lat="41.420271" lon="-5.238824"><ele>678.021</ele><time>2010-01-01T02:32:22Z</time></trkpt><trkpt lat="41.421533" lon="-5.237823"><ele>675.237</ele><time>2010-01-01T02:31:22Z</time></trkpt><trkpt lat="41.422279" lon="-5.237114"><ele>675.538</ele><time>2010-01-01T02:30:45Z</time></trkpt><trkpt lat="41.424723" lon="-5.234896"><ele>678.027</ele><time>2010-01-01T02:28:47Z</time></trkpt><trkpt lat="41.426141" lon="-5.233971"><ele>677.068</ele><time>2010-01-01T02:27:43Z</time></trkpt><trkpt lat="41.427063" lon="-5.233441"><ele>682.614</ele><time>2010-01-01T02:27:03Z</time></trkpt><trkpt lat="41.427394" lon="-5.232956"><ele>684.609</ele><time>2010-01-01T02:26:43Z</time></trkpt><trkpt lat="41.427887" lon="-5.232602"><ele>688.433</ele><time>2010-01-01T02:26:21Z</time></trkpt><trkpt lat="41.428995" lon="-5.231744"><ele>686.553</ele><time>2010-01-01T02:25:29Z</time></trkpt><trkpt lat="41.431666" lon="-5.230402"><ele>701.030</ele><time>2010-01-01T02:23:35Z</time></trkpt><trkpt lat="41.431854" lon="-5.230258"><ele>701.749</ele><time>2010-01-01T02:23:26Z</time></trkpt><trkpt lat="41.432533" lon="-5.230182"><ele>706.334</ele><time>2010-01-01T02:22:59Z</time></trkpt><trkpt lat="41.432830" lon="-5.229589"><ele>710.456</ele><time>2010-01-01T02:22:37Z</time></trkpt><trkpt lat="41.433347" lon="-5.228799"><ele>714.099</ele><time>2010-01-01T02:22:05Z</time></trkpt><trkpt lat="41.434439" lon="-5.228211"><ele>718.035</ele><time>2010-01-01T02:21:18Z</time></trkpt><trkpt lat="41.436252" lon="-5.227493"><ele>717.096</ele><time>2010-01-01T02:20:02Z</time></trkpt><trkpt lat="41.437158" lon="-5.226815"><ele>714.148</ele><time>2010-01-01T02:19:20Z</time></trkpt><trkpt lat="41.439373" lon="-5.226011"><ele>712.361</ele><time>2010-01-01T02:17:48Z</time></trkpt><trkpt lat="41.445529" lon="-5.222033"><ele>710.017</ele><time>2010-01-01T02:13:14Z</time></trkpt><trkpt lat="41.447461" lon="-5.220808"><ele>706.109</ele><time>2010-01-01T02:11:49Z</time></trkpt><trkpt lat="41.452306" lon="-5.213746"><ele>704.245</ele><time>2010-01-01T02:07:01Z</time></trkpt><trkpt lat="41.453023" lon="-5.212879"><ele>704.055</ele><time>2010-01-01T02:06:23Z</time></trkpt><trkpt lat="41.457866" lon="-5.207765"><ele>700.072</ele><time>2010-01-01T02:02:15Z</time></trkpt><trkpt lat="41.461011" lon="-5.204533"><ele>691.731</ele><time>2010-01-01T01:59:37Z</time></trkpt><trkpt lat="41.461596" lon="-5.203666"><ele>692.796</ele><time>2010-01-01T01:59:01Z</time></trkpt><trkpt lat="41.461803" lon="-5.203020"><ele>695.038</ele><time>2010-01-01T01:58:40Z</time></trkpt><trkpt lat="41.462496" lon="-5.200380"><ele>693.441</ele><time>2010-01-01T01:57:16Z</time></trkpt><trkpt lat="41.462730" lon="-5.199909"><ele>693.247</ele><time>2010-01-01T01:56:59Z</time></trkpt><trkpt lat="41.463111" lon="-5.199415"><ele>688.578</ele><time>2010-01-01T01:56:38Z</time></trkpt><trkpt lat="41.463469" lon="-5.198118"><ele>690.443</ele><time>2010-01-01T01:55:56Z</time></trkpt><trkpt lat="41.463811" lon="-5.197031"><ele>692.564</ele><time>2010-01-01T01:55:21Z</time></trkpt><trkpt lat="41.464105" lon="-5.195850"><ele>691.010</ele><time>2010-01-01T01:54:44Z</time></trkpt><trkpt lat="41.464757" lon="-5.191576"><ele>686.309</ele><time>2010-01-01T01:52:33Z</time></trkpt><trkpt lat="41.465059" lon="-5.189165"><ele>680.055</ele><time>2010-01-01T01:51:19Z</time></trkpt><trkpt lat="41.465169" lon="-5.187926"><ele>676.595</ele><time>2010-01-01T01:50:42Z</time></trkpt><trkpt lat="41.464830" lon="-5.186287"><ele>682.842</ele><time>2010-01-01T01:49:51Z</time></trkpt><trkpt lat="41.464806" lon="-5.185434"><ele>686.011</ele><time>2010-01-01T01:49:25Z</time></trkpt><trkpt lat="41.464698" lon="-5.183607"><ele>689.046</ele><time>2010-01-01T01:48:30Z</time></trkpt><trkpt lat="41.464326" lon="-5.182081"><ele>689.328</ele><time>2010-01-01T01:47:42Z</time></trkpt><trkpt lat="41.464140" lon="-5.180927"><ele>685.471</ele><time>2010-01-01T01:47:07Z</time></trkpt><trkpt lat="41.464180" lon="-5.180078"><ele>686.057</ele><time>2010-01-01T01:46:41Z</time></trkpt><trkpt lat="41.465304" lon="-5.176621"><ele>688.748</ele><time>2010-01-01T01:44:48Z</time></trkpt><trkpt lat="41.468584" lon="-5.168262"><ele>687.266</ele><time>2010-01-01T01:40:05Z</time></trkpt><trkpt lat="41.465005" lon="-5.165909"><ele>679.029</ele><time>2010-01-01T01:37:25Z</time></trkpt><trkpt lat="41.463555" lon="-5.165559"><ele>683.021</ele><time>2010-01-01T01:36:26Z</time></trkpt><trkpt lat="41.462577" lon="-5.165191"><ele>681.209</ele><time>2010-01-01T01:35:45Z</time></trkpt><trkpt lat="41.459149" lon="-5.163597"><ele>685.957</ele><time>2010-01-01T01:33:20Z</time></trkpt><trkpt lat="41.457699" lon="-5.163063"><ele>684.017</ele><time>2010-01-01T01:32:20Z</time></trkpt><trkpt lat="41.457427" lon="-5.162987"><ele>684.114</ele><time>2010-01-01T01:32:08Z</time></trkpt><trkpt lat="41.457421" lon="-5.162578"><ele>684.373</ele><time>2010-01-01T01:31:56Z</time></trkpt><trkpt lat="41.457893" lon="-5.160895"><ele>683.818</ele><time>2010-01-01T01:31:02Z</time></trkpt><trkpt lat="41.458572" lon="-5.159889"><ele>686.170</ele><time>2010-01-01T01:30:21Z</time></trkpt><trkpt lat="41.461968" lon="-5.155754"><ele>687.023</ele><time>2010-01-01T01:27:17Z</time></trkpt><trkpt lat="41.466498" lon="-5.146842"><ele>686.279</ele><time>2010-01-01T01:21:54Z</time></trkpt><trkpt lat="41.466415" lon="-5.143628"><ele>670.460</ele><time>2010-01-01T01:20:17Z</time></trkpt><trkpt lat="41.466827" lon="-5.143197"><ele>669.745</ele><time>2010-01-01T01:19:56Z</time></trkpt><trkpt lat="41.467913" lon="-5.141603"><ele>669.347</ele><time>2010-01-01T01:18:52Z</time></trkpt><trkpt lat="41.468395" lon="-5.140597"><ele>669.711</ele><time>2010-01-01T01:18:16Z</time></trkpt><trkpt lat="41.468872" lon="-5.139780"><ele>669.209</ele><time>2010-01-01T01:17:45Z</time></trkpt><trkpt lat="41.470282" lon="-5.136525"><ele>669.045</ele><time>2010-01-01T01:15:52Z</time></trkpt><trkpt lat="41.470441" lon="-5.136081"><ele>669.075</ele><time>2010-01-01T01:15:37Z</time></trkpt><trkpt lat="41.470955" lon="-5.134002"><ele>667.632</ele><time>2010-01-01T01:14:32Z</time></trkpt><trkpt lat="41.470842" lon="-5.132179"><ele>669.061</ele><time>2010-01-01T01:13:37Z</time></trkpt><trkpt lat="41.470834" lon="-5.131124"><ele>672.056</ele><time>2010-01-01T01:13:05Z</time></trkpt><trkpt lat="41.470886" lon="-5.130532"><ele>670.228</ele><time>2010-01-01T01:12:47Z</time></trkpt><trkpt lat="41.471513" lon="-5.130285"><ele>670.031</ele><time>2010-01-01T01:12:20Z</time></trkpt><trkpt lat="41.471848" lon="-5.129979"><ele>668.647</ele><time>2010-01-01T01:12:04Z</time></trkpt><trkpt lat="41.471853" lon="-5.129742"><ele>668.488</ele><time>2010-01-01T01:11:57Z</time></trkpt><trkpt lat="41.471699" lon="-5.129140"><ele>670.052</ele><time>2010-01-01T01:11:37Z</time></trkpt><trkpt lat="41.471230" lon="-5.128314"><ele>668.053</ele><time>2010-01-01T01:11:05Z</time></trkpt><trkpt lat="41.471225" lon="-5.127784"><ele>668.408</ele><time>2010-01-01T01:10:50Z</time></trkpt><trkpt lat="41.471732" lon="-5.124803"><ele>667.209</ele><time>2010-01-01T01:09:18Z</time></trkpt><trkpt lat="41.472554" lon="-5.122397"><ele>669.896</ele><time>2010-01-01T01:07:59Z</time></trkpt><trkpt lat="41.473877" lon="-5.118782"><ele>667.546</ele><time>2010-01-01T01:05:58Z</time></trkpt><trkpt lat="41.474858" lon="-5.117314"><ele>665.693</ele><time>2010-01-01T01:04:59Z</time></trkpt><trkpt lat="41.476343" lon="-5.114814"><ele>670.432</ele><time>2010-01-01T01:03:22Z</time></trkpt><trkpt lat="41.477669" lon="-5.112268"><ele>671.037</ele><time>2010-01-01T01:01:48Z</time></trkpt><trkpt lat="41.479501" lon="-5.106090"><ele>671.929</ele><time>2010-01-01T00:58:28Z</time></trkpt><trkpt lat="41.479437" lon="-5.105633"><ele>669.332</ele><time>2010-01-01T00:58:14Z</time></trkpt><trkpt lat="41.478943" lon="-5.104726"><ele>672.438</ele><time>2010-01-01T00:57:40Z</time></trkpt><trkpt lat="41.478855" lon="-5.104452"><ele>672.359</ele><time>2010-01-01T00:57:32Z</time></trkpt><trkpt lat="41.478652" lon="-5.102140"><ele>669.389</ele><time>2010-01-01T00:56:21Z</time></trkpt><trkpt lat="41.478644" lon="-5.101798"><ele>669.906</ele><time>2010-01-01T00:56:10Z</time></trkpt><trkpt lat="41.478466" lon="-5.101713"><ele>669.926</ele><time>2010-01-01T00:56:02Z</time></trkpt><trkpt lat="41.478531" lon="-5.101300"><ele>670.809</ele><time>2010-01-01T00:55:49Z</time></trkpt><trkpt lat="41.478596" lon="-5.100847"><ele>670.199</ele><time>2010-01-01T00:55:35Z</time></trkpt><trkpt lat="41.480232" lon="-5.097120"><ele>666.899</ele><time>2010-01-01T00:53:26Z</time></trkpt><trkpt lat="41.480789" lon="-5.092339"><ele>667.376</ele><time>2010-01-01T00:51:00Z</time></trkpt><trkpt lat="41.482552" lon="-5.088640"><ele>671.235</ele><time>2010-01-01T00:48:49Z</time></trkpt><trkpt lat="41.483800" lon="-5.085968"><ele>669.040</ele><time>2010-01-01T00:47:14Z</time></trkpt><trkpt lat="41.485298" lon="-5.079373"><ele>666.182</ele><time>2010-01-01T00:43:45Z</time></trkpt><trkpt lat="41.485746" lon="-5.079476"><ele>667.845</ele><time>2010-01-01T00:43:27Z</time></trkpt><trkpt lat="41.485824" lon="-5.079081"><ele>667.931</ele><time>2010-01-01T00:43:15Z</time></trkpt><trkpt lat="41.486497" lon="-5.075319"><ele>671.042</ele><time>2010-01-01T00:41:19Z</time></trkpt><trkpt lat="41.487001" lon="-5.073900"><ele>673.016</ele><time>2010-01-01T00:40:32Z</time></trkpt><trkpt lat="41.487252" lon="-5.073348"><ele>672.676</ele><time>2010-01-01T00:40:12Z</time></trkpt><trkpt lat="41.489354" lon="-5.068522"><ele>667.013</ele><time>2010-01-01T00:37:25Z</time></trkpt><trkpt lat="41.489467" lon="-5.068504"><ele>667.809</ele><time>2010-01-01T00:37:20Z</time></trkpt><trkpt lat="41.489718" lon="-5.068499"><ele>669.682</ele><time>2010-01-01T00:37:10Z</time></trkpt><trkpt lat="41.489939" lon="-5.067489"><ele>669.382</ele><time>2010-01-01T00:36:38Z</time></trkpt><trkpt lat="41.490551" lon="-5.065797"><ele>671.199</ele><time>2010-01-01T00:35:42Z</time></trkpt><trkpt lat="41.490788" lon="-5.065051"><ele>670.938</ele><time>2010-01-01T00:35:18Z</time></trkpt><trkpt lat="41.490834" lon="-5.064189"><ele>669.193</ele><time>2010-01-01T00:34:52Z</time></trkpt><trkpt lat="41.491302" lon="-5.063296"><ele>671.915</ele><time>2010-01-01T00:34:19Z</time></trkpt><trkpt lat="41.491362" lon="-5.062883"><ele>673.748</ele><time>2010-01-01T00:34:07Z</time></trkpt><trkpt lat="41.491302" lon="-5.060809"><ele>671.674</ele><time>2010-01-01T00:33:04Z</time></trkpt><trkpt lat="41.491683" lon="-5.059421"><ele>670.125</ele><time>2010-01-01T00:32:19Z</time></trkpt><trkpt lat="41.491804" lon="-5.058227"><ele>673.586</ele><time>2010-01-01T00:31:43Z</time></trkpt><trkpt lat="41.491782" lon="-5.058048"><ele>673.260</ele><time>2010-01-01T00:31:38Z</time></trkpt><trkpt lat="41.491542" lon="-5.057311"><ele>671.926</ele><time>2010-01-01T00:31:14Z</time></trkpt><trkpt lat="41.491569" lon="-5.056476"><ele>673.409</ele><time>2010-01-01T00:30:48Z</time></trkpt><trkpt lat="41.491610" lon="-5.056113"><ele>672.629</ele><time>2010-01-01T00:30:37Z</time></trkpt><trkpt lat="41.491502" lon="-5.054653"><ele>675.679</ele><time>2010-01-01T00:29:52Z</time></trkpt><trkpt lat="41.492036" lon="-5.052660"><ele>671.316</ele><time>2010-01-01T00:28:49Z</time></trkpt><trkpt lat="41.492701" lon="-5.051439"><ele>673.835</ele><time>2010-01-01T00:28:04Z</time></trkpt><trkpt lat="41.492507" lon="-5.051008"><ele>671.070</ele><time>2010-01-01T00:27:48Z</time></trkpt><trkpt lat="41.492445" lon="-5.051120"><ele>670.632</ele><time>2010-01-01T00:27:44Z</time></trkpt><trkpt lat="41.492232" lon="-5.050846"><ele>669.135</ele><time>2010-01-01T00:27:32Z</time></trkpt><trkpt lat="41.492661" lon="-5.049702"><ele>671.031</ele><time>2010-01-01T00:26:52Z</time></trkpt><trkpt lat="41.492666" lon="-5.046119"><ele>670.262</ele><time>2010-01-01T00:25:05Z</time></trkpt><trkpt lat="41.492822" lon="-5.045198"><ele>676.466</ele><time>2010-01-01T00:24:36Z</time></trkpt><trkpt lat="41.493246" lon="-5.039385"><ele>671.529</ele><time>2010-01-01T00:21:40Z</time></trkpt><trkpt lat="41.493348" lon="-5.038931"><ele>670.221</ele><time>2010-01-01T00:21:26Z</time></trkpt><trkpt lat="41.493491" lon="-5.038949"><ele>670.809</ele><time>2010-01-01T00:21:20Z</time></trkpt><trkpt lat="41.493329" lon="-5.038312"><ele>671.067</ele><time>2010-01-01T00:21:00Z</time></trkpt><trkpt lat="41.493380" lon="-5.037566"><ele>671.037</ele><time>2010-01-01T00:20:37Z</time></trkpt><trkpt lat="41.493429" lon="-5.037153"><ele>670.734</ele><time>2010-01-01T00:20:25Z</time></trkpt><trkpt lat="41.493887" lon="-5.035124"><ele>674.573</ele><time>2010-01-01T00:19:21Z</time></trkpt><trkpt lat="41.494111" lon="-5.034639"><ele>678.518</ele><time>2010-01-01T00:19:04Z</time></trkpt><trkpt lat="41.495140" lon="-5.032363"><ele>676.580</ele><time>2010-01-01T00:17:44Z</time></trkpt><trkpt lat="41.496585" lon="-5.027146"><ele>676.053</ele><time>2010-01-01T00:14:58Z</time></trkpt><trkpt lat="41.497312" lon="-5.024807"><ele>674.859</ele><time>2010-01-01T00:13:41Z</time></trkpt><trkpt lat="41.497504" lon="-5.024708"><ele>674.860</ele><time>2010-01-01T00:13:33Z</time></trkpt><trkpt lat="41.497622" lon="-5.024452"><ele>672.176</ele><time>2010-01-01T00:13:23Z</time></trkpt><trkpt lat="41.497547" lon="-5.024201"><ele>670.290</ele><time>2010-01-01T00:13:15Z</time></trkpt><trkpt lat="41.497385" lon="-5.024232"><ele>670.119</ele><time>2010-01-01T00:13:08Z</time></trkpt><trkpt lat="41.497275" lon="-5.023375"><ele>670.109</ele><time>2010-01-01T00:12:42Z</time></trkpt><trkpt lat="41.497533" lon="-5.022203"><ele>675.058</ele><time>2010-01-01T00:12:05Z</time></trkpt><trkpt lat="41.497703" lon="-5.021566"><ele>673.898</ele><time>2010-01-01T00:11:43Z</time></trkpt><trkpt lat="41.497924" lon="-5.017781"><ele>671.575</ele><time>2010-01-01T00:09:48Z</time></trkpt><trkpt lat="41.497795" lon="-5.016510"><ele>675.614</ele><time>2010-01-01T00:09:10Z</time></trkpt><trkpt lat="41.497714" lon="-5.015819"><ele>670.759</ele><time>2010-01-01T00:08:48Z</time></trkpt><trkpt lat="41.498183" lon="-5.013422"><ele>675.271</ele><time>2010-01-01T00:07:33Z</time></trkpt><trkpt lat="41.498301" lon="-5.012667"><ele>672.474</ele><time>2010-01-01T00:07:10Z</time></trkpt><trkpt lat="41.498945" lon="-5.011567"><ele>684.730</ele><time>2010-01-01T00:06:28Z</time></trkpt><trkpt lat="41.499460" lon="-5.010458"><ele>690.091</ele><time>2010-01-01T00:05:49Z</time></trkpt><trkpt lat="41.499571" lon="-5.010158"><ele>692.029</ele><time>2010-01-01T00:05:39Z</time></trkpt><trkpt lat="41.500005" lon="-5.008618"><ele>692.000</ele><time>2010-01-01T00:04:50Z</time></trkpt><trkpt lat="41.500120" lon="-5.008236"><ele>690.020</ele><time>2010-01-01T00:04:38Z</time></trkpt><trkpt lat="41.500341" lon="-5.007486"><ele>686.409</ele><time>2010-01-01T00:04:13Z</time></trkpt><trkpt lat="41.500554" lon="-5.006894"><ele>686.023</ele><time>2010-01-01T00:03:53Z</time></trkpt><trkpt lat="41.500853" lon="-5.005313"><ele>688.093</ele><time>2010-01-01T00:03:04Z</time></trkpt><trkpt lat="41.500562" lon="-5.003590"><ele>696.360</ele><time>2010-01-01T00:02:09Z</time></trkpt><trkpt lat="41.499770" lon="-5.003010"><ele>692.579</ele><time>2010-01-01T00:01:33Z</time></trkpt><trkpt lat="41.499457" lon="-5.002597"><ele>688.414</ele><time>2010-01-01T00:01:15Z</time></trkpt><trkpt lat="41.499377" lon="-5.002220"><ele>689.366</ele><time>2010-01-01T00:01:03Z</time></trkpt><trkpt lat="41.499293" lon="-5.001780"><ele>684.439</ele><time>2010-01-01T00:00:50Z</time></trkpt><trkpt lat="41.499457" lon="-5.000344"><ele>684.735</ele><time>2010-01-01T00:00:06Z</time></trkpt><trkpt lat="41.499627" lon="-5.000348"><ele>690.756</ele><time>2010-01-01T04:07:06Z</time></trkpt><trkpt lat="41.499654" lon="-4.999459"><ele>686.983</ele><time>2010-01-01T04:06:40Z</time></trkpt><trkpt lat="41.499498" lon="-4.999432"><ele>681.725</ele><time>2010-01-01T04:06:33Z</time></trkpt><trkpt lat="41.499503" lon="-4.998893"><ele>680.917</ele><time>2010-01-01T04:06:17Z</time></trkpt><trkpt lat="41.499544" lon="-4.998620"><ele>684.409</ele><time>2010-01-01T04:06:09Z</time></trkpt><trkpt lat="41.499487" lon="-4.998171"><ele>684.249</ele><time>2010-01-01T04:05:55Z</time></trkpt><trkpt lat="41.499436" lon="-4.997345"><ele>681.379</ele><time>2010-01-01T04:05:30Z</time></trkpt><trkpt lat="41.499393" lon="-4.996819"><ele>683.426</ele><time>2010-01-01T04:05:15Z</time></trkpt><trkpt lat="41.499463" lon="-4.995670"><ele>679.275</ele><time>2010-01-01T04:04:40Z</time></trkpt><trkpt lat="41.498867" lon="-4.991935"><ele>675.920</ele><time>2010-01-01T04:02:45Z</time></trkpt><trkpt lat="41.499056" lon="-4.991944"><ele>677.872</ele><time>2010-01-01T04:02:38Z</time></trkpt><trkpt lat="41.499175" lon="-4.990700"><ele>678.245</ele><time>2010-01-01T04:02:00Z</time></trkpt><trkpt lat="41.499379" lon="-4.989676"><ele>678.821</ele><time>2010-01-01T04:01:28Z</time></trkpt><trkpt lat="41.499228" lon="-4.989560"><ele>676.612</ele><time>2010-01-01T04:01:21Z</time></trkpt><trkpt lat="41.499498" lon="-4.988172"><ele>682.525</ele><time>2010-01-01T04:00:38Z</time></trkpt><trkpt lat="41.499627" lon="-4.986246"><ele>678.826</ele><time>2010-01-01T03:59:40Z</time></trkpt><trkpt lat="41.499463" lon="-4.985555"><ele>677.108</ele><time>2010-01-01T03:59:18Z</time></trkpt><trkpt lat="41.499616" lon="-4.985021"><ele>677.609</ele><time>2010-01-01T03:59:01Z</time></trkpt><trkpt lat="41.500040" lon="-4.984464"><ele>678.143</ele><time>2010-01-01T03:58:37Z</time></trkpt><trkpt lat="41.499800" lon="-4.983625"><ele>678.253</ele><time>2010-01-01T03:58:10Z</time></trkpt><trkpt lat="41.499778" lon="-4.982641"><ele>675.510</ele><time>2010-01-01T03:57:40Z</time></trkpt><trkpt lat="41.498991" lon="-4.981649"><ele>670.679</ele><time>2010-01-01T03:56:57Z</time></trkpt><trkpt lat="41.498819" lon="-4.980868"><ele>668.664</ele><time>2010-01-01T03:56:32Z</time></trkpt><trkpt lat="41.499029" lon="-4.978884"><ele>672.586</ele><time>2010-01-01T03:55:32Z</time></trkpt><trkpt lat="41.499460" lon="-4.977209"><ele>674.179</ele><time>2010-01-01T03:54:39Z</time></trkpt><trkpt lat="41.499773" lon="-4.974457"><ele>673.865</ele><time>2010-01-01T03:53:16Z</time></trkpt><trkpt lat="41.500385" lon="-4.972378"><ele>675.716</ele><time>2010-01-01T03:52:08Z</time></trkpt><trkpt lat="41.500740" lon="-4.971512"><ele>674.763</ele><time>2010-01-01T03:51:39Z</time></trkpt><trkpt lat="41.500843" lon="-4.970829"><ele>674.044</ele><time>2010-01-01T03:51:18Z</time></trkpt><trkpt lat="41.500498" lon="-4.967758"><ele>675.518</ele><time>2010-01-01T03:49:44Z</time></trkpt><trkpt lat="41.500743" lon="-4.965473"><ele>674.409</ele><time>2010-01-01T03:48:35Z</time></trkpt><trkpt lat="41.500924" lon="-4.965469"><ele>675.737</ele><time>2010-01-01T03:48:28Z</time></trkpt><trkpt lat="41.501145" lon="-4.964261"><ele>676.097</ele><time>2010-01-01T03:47:50Z</time></trkpt><trkpt lat="41.501845" lon="-4.962690"><ele>674.244</ele><time>2010-01-01T03:46:55Z</time></trkpt><trkpt lat="41.502037" lon="-4.961621"><ele>674.553</ele><time>2010-01-01T03:46:22Z</time></trkpt><trkpt lat="41.502147" lon="-4.960957"><ele>677.478</ele><time>2010-01-01T03:46:02Z</time></trkpt><trkpt lat="41.502260" lon="-4.960211"><ele>677.820</ele><time>2010-01-01T03:45:39Z</time></trkpt><trkpt lat="41.502403" lon="-4.959399"><ele>679.863</ele><time>2010-01-01T03:45:14Z</time></trkpt><trkpt lat="41.502489" lon="-4.958878"><ele>677.029</ele><time>2010-01-01T03:44:58Z</time></trkpt><trkpt lat="41.502425" lon="-4.958532"><ele>677.390</ele><time>2010-01-01T03:44:47Z</time></trkpt><trkpt lat="41.502419" lon="-4.956449"><ele>682.074</ele><time>2010-01-01T03:43:45Z</time></trkpt><trkpt lat="41.502568" lon="-4.955601"><ele>684.156</ele><time>2010-01-01T03:43:18Z</time></trkpt><trkpt lat="41.503066" lon="-4.952112"><ele>680.521</ele><time>2010-01-01T03:41:32Z</time></trkpt><trkpt lat="41.502993" lon="-4.950909"><ele>681.709</ele><time>2010-01-01T03:40:56Z</time></trkpt><trkpt lat="41.503007" lon="-4.947555"><ele>678.488</ele><time>2010-01-01T03:39:15Z</time></trkpt><trkpt lat="41.502767" lon="-4.945948"><ele>678.688</ele><time>2010-01-01T03:38:26Z</time></trkpt><trkpt lat="41.502274" lon="-4.944062"><ele>679.415</ele><time>2010-01-01T03:37:25Z</time></trkpt><trkpt lat="41.502190" lon="-4.943358"><ele>676.054</ele><time>2010-01-01T03:37:04Z</time></trkpt><trkpt lat="41.503036" lon="-4.939878"><ele>677.669</ele><time>2010-01-01T03:35:13Z</time></trkpt><trkpt lat="41.503174" lon="-4.939730"><ele>678.311</ele><time>2010-01-01T03:35:06Z</time></trkpt><trkpt lat="41.503023" lon="-4.938612"><ele>676.044</ele><time>2010-01-01T03:34:31Z</time></trkpt><trkpt lat="41.503403" lon="-4.936053"><ele>679.240</ele><time>2010-01-01T03:33:13Z</time></trkpt><trkpt lat="41.503705" lon="-4.933808"><ele>676.721</ele><time>2010-01-01T03:32:04Z</time></trkpt><trkpt lat="41.503670" lon="-4.932848"><ele>674.279</ele><time>2010-01-01T03:31:35Z</time></trkpt><trkpt lat="41.503667" lon="-4.932273"><ele>671.405</ele><time>2010-01-01T03:31:18Z</time></trkpt><trkpt lat="41.504106" lon="-4.930895"><ele>675.125</ele><time>2010-01-01T03:30:33Z</time></trkpt><trkpt lat="41.504260" lon="-4.930589"><ele>675.609</ele><time>2010-01-01T03:30:22Z</time></trkpt><trkpt lat="41.504670" lon="-4.929884"><ele>671.668</ele><time>2010-01-01T03:29:55Z</time></trkpt><trkpt lat="41.505456" lon="-4.927307"><ele>672.418</ele><time>2010-01-01T03:28:32Z</time></trkpt><trkpt lat="41.505791" lon="-4.924847"><ele>674.825</ele><time>2010-01-01T03:27:17Z</time></trkpt><trkpt lat="41.505944" lon="-4.923743"><ele>670.184</ele><time>2010-01-01T03:26:43Z</time></trkpt><trkpt lat="41.506093" lon="-4.922625"><ele>672.159</ele><time>2010-01-01T03:26:09Z</time></trkpt><trkpt lat="41.506437" lon="-4.919963"><ele>670.471</ele><time>2010-01-01T03:24:48Z</time></trkpt><trkpt lat="41.506623" lon="-4.918894"><ele>667.844</ele><time>2010-01-01T03:24:15Z</time></trkpt><trkpt lat="41.506820" lon="-4.917884"><ele>670.070</ele><time>2010-01-01T03:23:44Z</time></trkpt><trkpt lat="41.506680" lon="-4.917731"><ele>670.411</ele><time>2010-01-01T03:23:37Z</time></trkpt><trkpt lat="41.506551" lon="-4.917350"><ele>672.014</ele><time>2010-01-01T03:23:24Z</time></trkpt><trkpt lat="41.506629" lon="-4.916299"><ele>669.954</ele><time>2010-01-01T03:22:52Z</time></trkpt><trkpt lat="41.506623" lon="-4.915046"><ele>670.209</ele><time>2010-01-01T03:22:14Z</time></trkpt><trkpt lat="41.506691" lon="-4.914404"><ele>674.009</ele><time>2010-01-01T03:21:55Z</time></trkpt><trkpt lat="41.507354" lon="-4.911805"><ele>675.472</ele><time>2010-01-01T03:20:32Z</time></trkpt><trkpt lat="41.507424" lon="-4.911576"><ele>675.412</ele><time>2010-01-01T03:20:25Z</time></trkpt><trkpt lat="41.507364" lon="-4.911024"><ele>674.749</ele><time>2010-01-01T03:20:08Z</time></trkpt><trkpt lat="41.507960" lon="-4.910722"><ele>677.028</ele><time>2010-01-01T03:19:42Z</time></trkpt><trkpt lat="41.507696" lon="-4.910065"><ele>677.743</ele><time>2010-01-01T03:19:20Z</time></trkpt><trkpt lat="41.507731" lon="-4.909677"><ele>675.795</ele><time>2010-01-01T03:19:08Z</time></trkpt><trkpt lat="41.507779" lon="-4.908718"><ele>675.658</ele><time>2010-01-01T03:18:39Z</time></trkpt><trkpt lat="41.508542" lon="-4.906822"><ele>677.654</ele><time>2010-01-01T03:17:35Z</time></trkpt><trkpt lat="41.508758" lon="-4.906291"><ele>675.475</ele><time>2010-01-01T03:17:17Z</time></trkpt><trkpt lat="41.508731" lon="-4.905033"><ele>677.428</ele><time>2010-01-01T03:16:39Z</time></trkpt><trkpt lat="41.508725" lon="-4.904360"><ele>675.989</ele><time>2010-01-01T03:16:19Z</time></trkpt><trkpt lat="41.509022" lon="-4.900543"><ele>678.417</ele><time>2010-01-01T03:14:24Z</time></trkpt><trkpt lat="41.509116" lon="-4.899385"><ele>676.309</ele><time>2010-01-01T03:13:49Z</time></trkpt><trkpt lat="41.509135" lon="-4.897993"><ele>678.053</ele><time>2010-01-01T03:13:07Z</time></trkpt><trkpt lat="41.509227" lon="-4.897419"><ele>679.153</ele><time>2010-01-01T03:12:49Z</time></trkpt><trkpt lat="41.509348" lon="-4.896673"><ele>677.330</ele><time>2010-01-01T03:12:27Z</time></trkpt><trkpt lat="41.509442" lon="-4.896107"><ele>678.019</ele><time>2010-01-01T03:12:09Z</time></trkpt><trkpt lat="41.509941" lon="-4.894316"><ele>681.414</ele><time>2010-01-01T03:11:12Z</time></trkpt><trkpt lat="41.510873" lon="-4.890958"><ele>681.496</ele><time>2010-01-01T03:09:24Z</time></trkpt><trkpt lat="41.511604" lon="-4.889966"><ele>680.149</ele><time>2010-01-01T03:08:42Z</time></trkpt><trkpt lat="41.512574" lon="-4.889032"><ele>680.885</ele><time>2010-01-01T03:07:54Z</time></trkpt><trkpt lat="41.513706" lon="-4.888058"><ele>678.746</ele><time>2010-01-01T03:07:00Z</time></trkpt><trkpt lat="41.514156" lon="-4.887824"><ele>679.178</ele><time>2010-01-01T03:06:41Z</time></trkpt><trkpt lat="41.514452" lon="-4.887690"><ele>677.433</ele><time>2010-01-01T03:06:29Z</time></trkpt><trkpt lat="41.514975" lon="-4.887604"><ele>680.126</ele><time>2010-01-01T03:06:06Z</time></trkpt><trkpt lat="41.516228" lon="-4.886356"><ele>675.709</ele><time>2010-01-01T03:05:03Z</time></trkpt><trkpt lat="41.516853" lon="-4.885939"><ele>675.238</ele><time>2010-01-01T03:04:35Z</time></trkpt><trkpt lat="41.517190" lon="-4.885714"><ele>674.258</ele><time>2010-01-01T03:04:20Z</time></trkpt><trkpt lat="41.519883" lon="-4.882598"><ele>675.445</ele><time>2010-01-01T03:01:57Z</time></trkpt><trkpt lat="41.520144" lon="-4.882437"><ele>674.924</ele><time>2010-01-01T03:01:46Z</time></trkpt><trkpt lat="41.521049" lon="-4.881162"><ele>676.519</ele><time>2010-01-01T03:00:53Z</time></trkpt><trkpt lat="41.521556" lon="-4.880538"><ele>675.751</ele><time>2010-01-01T03:00:25Z</time></trkpt><trkpt lat="41.523647" lon="-4.878271"><ele>675.024</ele><time>2010-01-01T02:58:38Z</time></trkpt><trkpt lat="41.524073" lon="-4.877718"><ele>675.430</ele><time>2010-01-01T02:58:14Z</time></trkpt><trkpt lat="41.524418" lon="-4.877476"><ele>675.861</ele><time>2010-01-01T02:57:58Z</time></trkpt><trkpt lat="41.525124" lon="-4.876587"><ele>680.363</ele><time>2010-01-01T02:57:19Z</time></trkpt><trkpt lat="41.525445" lon="-4.876327"><ele>680.344</ele><time>2010-01-01T02:57:04Z</time></trkpt><trkpt lat="41.525590" lon="-4.876331"><ele>679.918</ele><time>2010-01-01T02:56:58Z</time></trkpt><trkpt lat="41.527172" lon="-4.881005"><ele>676.809</ele><time>2010-01-01T02:54:24Z</time></trkpt><trkpt lat="41.527803" lon="-4.881660"><ele>677.147</ele><time>2010-01-01T02:53:52Z</time></trkpt><trkpt lat="41.528097" lon="-4.882168"><ele>678.157</ele><time>2010-01-01T02:53:33Z</time></trkpt><trkpt lat="41.528463" lon="-4.882778"><ele>679.524</ele><time>2010-01-01T02:53:09Z</time></trkpt><trkpt lat="41.529245" lon="-4.882540"><ele>678.443</ele><time>2010-01-01T02:52:37Z</time></trkpt><trkpt lat="41.529638" lon="-4.882859"><ele>679.228</ele><time>2010-01-01T02:52:18Z</time></trkpt><trkpt lat="41.530118" lon="-4.882823"><ele>679.650</ele><time>2010-01-01T02:51:59Z</time></trkpt><trkpt lat="41.530875" lon="-4.882662"><ele>680.133</ele><time>2010-01-01T02:51:28Z</time></trkpt><trkpt lat="41.531503" lon="-4.882451"><ele>680.649</ele><time>2010-01-01T02:51:02Z</time></trkpt><trkpt lat="41.531875" lon="-4.882338"><ele>679.290</ele><time>2010-01-01T02:50:47Z</time></trkpt><trkpt lat="41.532096" lon="-4.881009"><ele>674.983</ele><time>2010-01-01T02:50:06Z</time></trkpt><trkpt lat="41.532050" lon="-4.880515"><ele>678.125</ele><time>2010-01-01T02:49:51Z</time></trkpt><trkpt lat="41.531994" lon="-4.879950"><ele>679.017</ele><time>2010-01-01T02:49:34Z</time></trkpt><trkpt lat="41.531862" lon="-4.879537"><ele>677.609</ele><time>2010-01-01T02:49:20Z</time></trkpt><trkpt lat="41.531536" lon="-4.878576"><ele>675.599</ele><time>2010-01-01T02:48:49Z</time></trkpt><trkpt lat="41.531646" lon="-4.876358"><ele>675.919</ele><time>2010-01-01T02:47:42Z</time></trkpt><trkpt lat="41.531563" lon="-4.874984"><ele>676.036</ele><time>2010-01-01T02:47:01Z</time></trkpt><trkpt lat="41.531050" lon="-4.872443"><ele>678.415</ele><time>2010-01-01T02:45:42Z</time></trkpt><trkpt lat="41.531139" lon="-4.871438"><ele>676.150</ele><time>2010-01-01T02:45:11Z</time></trkpt><trkpt lat="41.531657" lon="-4.869727"><ele>677.952</ele><time>2010-01-01T02:44:16Z</time></trkpt><trkpt lat="41.531996" lon="-4.868367"><ele>673.565</ele><time>2010-01-01T02:43:33Z</time></trkpt><trkpt lat="41.532266" lon="-4.867743"><ele>676.261</ele><time>2010-01-01T02:43:12Z</time></trkpt><trkpt lat="41.532554" lon="-4.867087"><ele>674.152</ele><time>2010-01-01T02:42:49Z</time></trkpt><trkpt lat="41.532746" lon="-4.866620"><ele>673.329</ele><time>2010-01-01T02:42:33Z</time></trkpt><trkpt lat="41.533452" lon="-4.865372"><ele>676.600</ele><time>2010-01-01T02:41:46Z</time></trkpt><trkpt lat="41.534171" lon="-4.863994"><ele>675.020</ele><time>2010-01-01T02:40:56Z</time></trkpt><trkpt lat="41.534675" lon="-4.863284"><ele>679.409</ele><time>2010-01-01T02:40:26Z</time></trkpt><trkpt lat="41.535904" lon="-4.861879"><ele>675.473</ele><time>2010-01-01T02:39:21Z</time></trkpt><trkpt lat="41.537494" lon="-4.862530"><ele>678.053</ele><time>2010-01-01T02:38:15Z</time></trkpt><trkpt lat="41.539841" lon="-4.863478"><ele>678.380</ele><time>2010-01-01T02:36:37Z</time></trkpt><trkpt lat="41.541968" lon="-4.864326"><ele>676.089</ele><time>2010-01-01T02:35:08Z</time></trkpt><trkpt lat="41.542593" lon="-4.864591"><ele>677.324</ele><time>2010-01-01T02:34:41Z</time></trkpt><trkpt lat="41.544229" lon="-4.865242"><ele>677.266</ele><time>2010-01-01T02:33:33Z</time></trkpt><trkpt lat="41.544700" lon="-4.865444"><ele>677.179</ele><time>2010-01-01T02:33:13Z</time></trkpt><trkpt lat="41.545167" lon="-4.865579"><ele>677.295</ele><time>2010-01-01T02:32:54Z</time></trkpt><trkpt lat="41.546964" lon="-4.865592"><ele>678.876</ele><time>2010-01-01T02:31:42Z</time></trkpt><trkpt lat="41.547447" lon="-4.865691"><ele>678.122</ele><time>2010-01-01T02:31:22Z</time></trkpt><trkpt lat="41.548657" lon="-4.866239"><ele>679.162</ele><time>2010-01-01T02:30:31Z</time></trkpt><trkpt lat="41.549867" lon="-4.866508"><ele>676.008</ele><time>2010-01-01T02:29:42Z</time></trkpt><trkpt lat="41.552179" lon="-4.866611"><ele>678.509</ele><time>2010-01-01T02:28:09Z</time></trkpt><trkpt lat="41.552831" lon="-4.866782"><ele>676.863</ele><time>2010-01-01T02:27:43Z</time></trkpt><trkpt lat="41.554117" lon="-4.867496"><ele>681.073</ele><time>2010-01-01T02:26:46Z</time></trkpt><trkpt lat="41.555009" lon="-4.868461"><ele>682.030</ele><time>2010-01-01T02:26:00Z</time></trkpt><trkpt lat="41.556022" lon="-4.867482"><ele>685.239</ele><time>2010-01-01T02:25:10Z</time></trkpt><trkpt lat="41.556529" lon="-4.867123"><ele>683.134</ele><time>2010-01-01T02:24:47Z</time></trkpt><trkpt lat="41.557205" lon="-4.866786"><ele>687.696</ele><time>2010-01-01T02:24:18Z</time></trkpt><trkpt lat="41.561458" lon="-4.863742"><ele>682.029</ele><time>2010-01-01T02:21:05Z</time></trkpt><trkpt lat="41.561954" lon="-4.863154"><ele>682.895</ele><time>2010-01-01T02:20:38Z</time></trkpt><trkpt lat="41.563490" lon="-4.860339"><ele>682.616</ele><time>2010-01-01T02:18:54Z</time></trkpt><trkpt lat="41.563942" lon="-4.859370"><ele>679.868</ele><time>2010-01-01T02:18:20Z</time></trkpt><trkpt lat="41.565118" lon="-4.857681"><ele>682.042</ele><time>2010-01-01T02:17:11Z</time></trkpt><trkpt lat="41.564479" lon="-4.856855"><ele>680.926</ele><time>2010-01-01T02:16:35Z</time></trkpt><trkpt lat="41.565271" lon="-4.854983"><ele>679.109</ele><time>2010-01-01T02:15:31Z</time></trkpt><trkpt lat="41.565926" lon="-4.853915"><ele>677.347</ele><time>2010-01-01T02:14:49Z</time></trkpt><trkpt lat="41.567007" lon="-4.852671"><ele>679.947</ele><time>2010-01-01T02:13:52Z</time></trkpt><trkpt lat="41.567530" lon="-4.851576"><ele>680.524</ele><time>2010-01-01T02:13:13Z</time></trkpt><trkpt lat="41.567705" lon="-4.851136"><ele>680.363</ele><time>2010-01-01T02:12:58Z</time></trkpt><trkpt lat="41.567955" lon="-4.850822"><ele>679.478</ele><time>2010-01-01T02:12:44Z</time></trkpt><trkpt lat="41.569058" lon="-4.849546"><ele>679.140</ele><time>2010-01-01T02:11:46Z</time></trkpt><trkpt lat="41.569500" lon="-4.849246"><ele>679.183</ele><time>2010-01-01T02:11:26Z</time></trkpt><trkpt lat="41.570666" lon="-4.848514"><ele>679.649</ele><time>2010-01-01T02:10:35Z</time></trkpt><trkpt lat="41.571448" lon="-4.847670"><ele>681.040</ele><time>2010-01-01T02:09:54Z</time></trkpt><trkpt lat="41.571707" lon="-4.847355"><ele>681.044</ele><time>2010-01-01T02:09:40Z</time></trkpt><trkpt lat="41.573307" lon="-4.846282"><ele>674.005</ele><time>2010-01-01T02:08:29Z</time></trkpt><trkpt lat="41.573941" lon="-4.845645"><ele>678.115</ele><time>2010-01-01T02:07:57Z</time></trkpt><trkpt lat="41.574367" lon="-4.845214"><ele>676.709</ele><time>2010-01-01T02:07:36Z</time></trkpt><trkpt lat="41.574763" lon="-4.844779"><ele>679.185</ele><time>2010-01-01T02:07:15Z</time></trkpt><trkpt lat="41.576377" lon="-4.841838"><ele>679.955</ele><time>2010-01-01T02:05:26Z</time></trkpt><trkpt lat="41.576981" lon="-4.839948"><ele>681.112</ele><time>2010-01-01T02:04:24Z</time></trkpt><trkpt lat="41.577655" lon="-4.838798"><ele>684.081</ele><time>2010-01-01T02:03:40Z</time></trkpt><trkpt lat="41.578390" lon="-4.837927"><ele>680.826</ele><time>2010-01-01T02:03:01Z</time></trkpt><trkpt lat="41.579072" lon="-4.837380"><ele>680.878</ele><time>2010-01-01T02:02:29Z</time></trkpt><trkpt lat="41.580099" lon="-4.836208"><ele>681.081</ele><time>2010-01-01T02:01:35Z</time></trkpt><trkpt lat="41.581088" lon="-4.834650"><ele>681.917</ele><time>2010-01-01T02:00:33Z</time></trkpt><trkpt lat="41.583392" lon="-4.832217"><ele>681.238</ele><time>2010-01-01T01:58:36Z</time></trkpt><trkpt lat="41.583645" lon="-4.831804"><ele>682.184</ele><time>2010-01-01T01:58:20Z</time></trkpt><trkpt lat="41.584130" lon="-4.830955"><ele>679.307</ele><time>2010-01-01T01:57:48Z</time></trkpt><trkpt lat="41.584766" lon="-4.830241"><ele>682.017</ele><time>2010-01-01T01:57:15Z</time></trkpt><trkpt lat="41.585082" lon="-4.829869"><ele>681.209</ele><time>2010-01-01T01:56:58Z</time></trkpt><trkpt lat="41.587672" lon="-4.828356"><ele>683.319</ele><time>2010-01-01T01:55:03Z</time></trkpt><trkpt lat="41.587715" lon="-4.827557"><ele>679.459</ele><time>2010-01-01T01:54:39Z</time></trkpt><trkpt lat="41.587930" lon="-4.827139"><ele>680.866</ele><time>2010-01-01T01:54:23Z</time></trkpt><trkpt lat="41.588963" lon="-4.825743"><ele>689.575</ele><time>2010-01-01T01:53:25Z</time></trkpt><trkpt lat="41.590590" lon="-4.823512"><ele>684.360</ele><time>2010-01-01T01:51:51Z</time></trkpt><trkpt lat="41.587742" lon="-4.822816"><ele>679.832</ele><time>2010-01-01T01:49:54Z</time></trkpt><trkpt lat="41.587507" lon="-4.822614"><ele>681.065</ele><time>2010-01-01T01:49:43Z</time></trkpt><trkpt lat="41.586249" lon="-4.821725"><ele>683.121</ele><time>2010-01-01T01:48:46Z</time></trkpt><trkpt lat="41.584917" lon="-4.819727"><ele>682.482</ele><time>2010-01-01T01:47:26Z</time></trkpt><trkpt lat="41.583751" lon="-4.818425"><ele>683.548</ele><time>2010-01-01T01:46:25Z</time></trkpt><trkpt lat="41.583344" lon="-4.817962"><ele>681.061</ele><time>2010-01-01T01:46:03Z</time></trkpt><trkpt lat="41.583017" lon="-4.817549"><ele>681.017</ele><time>2010-01-01T01:45:45Z</time></trkpt><trkpt lat="41.582551" lon="-4.816737"><ele>684.209</ele><time>2010-01-01T01:45:15Z</time></trkpt><trkpt lat="41.581861" lon="-4.815646"><ele>685.935</ele><time>2010-01-01T01:44:32Z</time></trkpt><trkpt lat="41.581691" lon="-4.815529"><ele>686.175</ele><time>2010-01-01T01:44:24Z</time></trkpt><trkpt lat="41.581217" lon="-4.815830"><ele>686.282</ele><time>2010-01-01T01:44:03Z</time></trkpt><trkpt lat="41.581085" lon="-4.815565"><ele>687.071</ele><time>2010-01-01T01:43:53Z</time></trkpt><trkpt lat="41.581231" lon="-4.815300"><ele>686.636</ele><time>2010-01-01T01:43:42Z</time></trkpt><trkpt lat="41.581392" lon="-4.815278"><ele>686.058</ele><time>2010-01-01T01:43:36Z</time></trkpt><trkpt lat="41.581557" lon="-4.814788"><ele>686.311</ele><time>2010-01-01T01:43:18Z</time></trkpt><trkpt lat="41.581487" lon="-4.814703"><ele>685.757</ele><time>2010-01-01T01:43:14Z</time></trkpt><trkpt lat="41.581026" lon="-4.814739"><ele>684.048</ele><time>2010-01-01T01:42:56Z</time></trkpt><trkpt lat="41.579819" lon="-4.813751"><ele>689.092</ele><time>2010-01-01T01:41:59Z</time></trkpt><trkpt lat="41.567244" lon="-4.801764"><ele>692.273</ele><time>2010-01-01T01:31:41Z</time></trkpt><trkpt lat="41.566508" lon="-4.800682"><ele>684.920</ele><time>2010-01-01T01:30:57Z</time></trkpt><trkpt lat="41.565783" lon="-4.799192"><ele>686.909</ele><time>2010-01-01T01:30:03Z</time></trkpt><trkpt lat="41.564950" lon="-4.796202"><ele>694.570</ele><time>2010-01-01T01:28:28Z</time></trkpt><trkpt lat="41.563926" lon="-4.792394"><ele>691.250</ele><time>2010-01-01T01:26:26Z</time></trkpt><trkpt lat="41.563236" lon="-4.790935"><ele>692.197</ele><time>2010-01-01T01:25:35Z</time></trkpt><trkpt lat="41.562418" lon="-4.788985"><ele>688.426</ele><time>2010-01-01T01:24:27Z</time></trkpt><trkpt lat="41.562330" lon="-4.788055"><ele>689.021</ele><time>2010-01-01T01:23:59Z</time></trkpt><trkpt lat="41.562460" lon="-4.787355"><ele>689.743</ele><time>2010-01-01T01:23:38Z</time></trkpt><trkpt lat="41.562832" lon="-4.786537"><ele>691.326</ele><time>2010-01-01T01:23:09Z</time></trkpt><trkpt lat="41.565082" lon="-4.784674"><ele>694.572</ele><time>2010-01-01T01:21:23Z</time></trkpt><trkpt lat="41.567529" lon="-4.782358"><ele>692.853</ele><time>2010-01-01T01:19:22Z</time></trkpt><trkpt lat="41.568879" lon="-4.780387"><ele>697.488</ele><time>2010-01-01T01:18:02Z</time></trkpt><trkpt lat="41.570057" lon="-4.778667"><ele>696.224</ele><time>2010-01-01T01:16:52Z</time></trkpt><trkpt lat="41.570995" lon="-4.777239"><ele>698.026</ele><time>2010-01-01T01:15:55Z</time></trkpt><trkpt lat="41.571531" lon="-4.776440"><ele>696.709</ele><time>2010-01-01T01:15:23Z</time></trkpt><trkpt lat="41.572353" lon="-4.775246"><ele>699.529</ele><time>2010-01-01T01:14:35Z</time></trkpt><trkpt lat="41.572916" lon="-4.774442"><ele>699.019</ele><time>2010-01-01T01:14:02Z</time></trkpt><trkpt lat="41.575805" lon="-4.770173"><ele>702.786</ele><time>2010-01-01T01:11:09Z</time></trkpt><trkpt lat="41.577400" lon="-4.767874"><ele>703.275</ele><time>2010-01-01T01:09:35Z</time></trkpt><trkpt lat="41.579190" lon="-4.765275"><ele>701.950</ele><time>2010-01-01T01:07:50Z</time></trkpt><trkpt lat="41.579635" lon="-4.764960"><ele>700.042</ele><time>2010-01-01T01:07:29Z</time></trkpt><trkpt lat="41.580106" lon="-4.764148"><ele>698.485</ele><time>2010-01-01T01:06:58Z</time></trkpt><trkpt lat="41.581284" lon="-4.763174"><ele>702.841</ele><time>2010-01-01T01:06:03Z</time></trkpt><trkpt lat="41.581672" lon="-4.763093"><ele>704.012</ele><time>2010-01-01T01:05:47Z</time></trkpt><trkpt lat="41.582087" lon="-4.762814"><ele>705.013</ele><time>2010-01-01T01:05:28Z</time></trkpt><trkpt lat="41.582931" lon="-4.762060"><ele>702.543</ele><time>2010-01-01T01:04:47Z</time></trkpt><trkpt lat="41.583941" lon="-4.761351"><ele>702.307</ele><time>2010-01-01T01:04:01Z</time></trkpt><trkpt lat="41.584751" lon="-4.760548"><ele>705.109</ele><time>2010-01-01T01:03:21Z</time></trkpt><trkpt lat="41.585820" lon="-4.759479"><ele>700.992</ele><time>2010-01-01T01:02:27Z</time></trkpt><trkpt lat="41.586341" lon="-4.759156"><ele>701.212</ele><time>2010-01-01T01:02:04Z</time></trkpt><trkpt lat="41.587550" lon="-4.758689"><ele>699.249</ele><time>2010-01-01T01:01:14Z</time></trkpt><trkpt lat="41.588132" lon="-4.758671"><ele>701.248</ele><time>2010-01-01T01:00:50Z</time></trkpt><trkpt lat="41.588360" lon="-4.758749"><ele>701.623</ele><time>2010-01-01T01:00:41Z</time></trkpt><trkpt lat="41.588682" lon="-4.758573"><ele>703.475</ele><time>2010-01-01T01:00:26Z</time></trkpt><trkpt lat="41.589607" lon="-4.758537"><ele>704.628</ele><time>2010-01-01T00:59:49Z</time></trkpt><trkpt lat="41.590531" lon="-4.758564"><ele>697.684</ele><time>2010-01-01T00:59:12Z</time></trkpt><trkpt lat="41.591914" lon="-4.758800"><ele>699.155</ele><time>2010-01-01T00:58:17Z</time></trkpt><trkpt lat="41.594972" lon="-4.758303"><ele>699.133</ele><time>2010-01-01T00:56:12Z</time></trkpt><trkpt lat="41.595450" lon="-4.757866"><ele>697.423</ele><time>2010-01-01T00:55:48Z</time></trkpt><trkpt lat="41.596657" lon="-4.757271"><ele>699.815</ele><time>2010-01-01T00:54:57Z</time></trkpt><trkpt lat="41.596920" lon="-4.757124"><ele>699.109</ele><time>2010-01-01T00:54:45Z</time></trkpt><trkpt lat="41.599171" lon="-4.756053"><ele>693.474</ele><time>2010-01-01T00:53:09Z</time></trkpt><trkpt lat="41.600763" lon="-4.755751"><ele>696.574</ele><time>2010-01-01T00:52:05Z</time></trkpt><trkpt lat="41.602222" lon="-4.755508"><ele>691.561</ele><time>2010-01-01T00:51:06Z</time></trkpt><trkpt lat="41.602637" lon="-4.755362"><ele>690.070</ele><time>2010-01-01T00:50:48Z</time></trkpt><trkpt lat="41.602734" lon="-4.755431"><ele>689.575</ele><time>2010-01-01T00:50:44Z</time></trkpt><trkpt lat="41.606348" lon="-4.753725"><ele>691.497</ele><time>2010-01-01T00:48:10Z</time></trkpt><trkpt lat="41.607078" lon="-4.753444"><ele>688.250</ele><time>2010-01-01T00:47:39Z</time></trkpt><trkpt lat="41.607640" lon="-4.753629"><ele>685.546</ele><time>2010-01-01T00:47:15Z</time></trkpt><trkpt lat="41.607865" lon="-4.753599"><ele>686.957</ele><time>2010-01-01T00:47:06Z</time></trkpt><trkpt lat="41.608093" lon="-4.753435"><ele>688.853</ele><time>2010-01-01T00:46:55Z</time></trkpt><trkpt lat="41.608228" lon="-4.753022"><ele>689.204</ele><time>2010-01-01T00:46:41Z</time></trkpt><trkpt lat="41.608447" lon="-4.752848"><ele>690.114</ele><time>2010-01-01T00:46:31Z</time></trkpt><trkpt lat="41.609749" lon="-4.752193"><ele>691.009</ele><time>2010-01-01T00:45:35Z</time></trkpt><trkpt lat="41.610251" lon="-4.752274"><ele>690.096</ele><time>2010-01-01T00:45:15Z</time></trkpt><trkpt lat="41.610493" lon="-4.751998"><ele>692.566</ele><time>2010-01-01T00:45:02Z</time></trkpt><trkpt lat="41.611029" lon="-4.751463"><ele>691.373</ele><time>2010-01-01T00:44:35Z</time></trkpt><trkpt lat="41.611954" lon="-4.750972"><ele>691.072</ele><time>2010-01-01T00:43:55Z</time></trkpt><trkpt lat="41.612674" lon="-4.750463"><ele>692.287</ele><time>2010-01-01T00:43:22Z</time></trkpt><trkpt lat="41.612868" lon="-4.750275"><ele>691.729</ele><time>2010-01-01T00:43:13Z</time></trkpt><trkpt lat="41.612955" lon="-4.750329"><ele>691.572</ele><time>2010-01-01T00:43:08Z</time></trkpt><trkpt lat="41.613036" lon="-4.750053"><ele>689.548</ele><time>2010-01-01T00:42:58Z</time></trkpt><trkpt lat="41.613871" lon="-4.749120"><ele>689.349</ele><time>2010-01-01T00:42:15Z</time></trkpt><trkpt lat="41.614024" lon="-4.749000"><ele>690.917</ele><time>2010-01-01T00:42:08Z</time></trkpt><trkpt lat="41.614182" lon="-4.749162"><ele>691.187</ele><time>2010-01-01T00:42:00Z</time></trkpt><trkpt lat="41.614354" lon="-4.749018"><ele>692.215</ele><time>2010-01-01T00:41:51Z</time></trkpt><trkpt lat="41.614697" lon="-4.748668"><ele>692.209</ele><time>2010-01-01T00:41:33Z</time></trkpt><trkpt lat="41.616061" lon="-4.748626"><ele>695.932</ele><time>2010-01-01T00:40:38Z</time></trkpt><trkpt lat="41.617500" lon="-4.748506"><ele>693.422</ele><time>2010-01-01T00:39:39Z</time></trkpt><trkpt lat="41.617833" lon="-4.748458"><ele>694.779</ele><time>2010-01-01T00:39:24Z</time></trkpt><trkpt lat="41.618849" lon="-4.748371"><ele>690.988</ele><time>2010-01-01T00:38:43Z</time></trkpt><trkpt lat="41.619026" lon="-4.748530"><ele>690.313</ele><time>2010-01-01T00:38:33Z</time></trkpt><trkpt lat="41.619160" lon="-4.748347"><ele>691.085</ele><time>2010-01-01T00:38:25Z</time></trkpt><trkpt lat="41.620299" lon="-4.748243"><ele>692.418</ele><time>2010-01-01T00:37:39Z</time></trkpt><trkpt lat="41.620842" lon="-4.748198"><ele>691.974</ele><time>2010-01-01T00:37:18Z</time></trkpt><trkpt lat="41.620953" lon="-4.748255"><ele>691.165</ele><time>2010-01-01T00:37:12Z</time></trkpt><trkpt lat="41.621800" lon="-4.748174"><ele>690.169</ele><time>2010-01-01T00:36:37Z</time></trkpt><trkpt lat="41.621925" lon="-4.748231"><ele>689.804</ele><time>2010-01-01T00:36:32Z</time></trkpt><trkpt lat="41.622310" lon="-4.748662"><ele>690.124</ele><time>2010-01-01T00:36:11Z</time></trkpt><trkpt lat="41.622462" lon="-4.749413"><ele>693.309</ele><time>2010-01-01T00:35:47Z</time></trkpt><trkpt lat="41.622540" lon="-4.749900"><ele>693.237</ele><time>2010-01-01T00:35:32Z</time></trkpt><trkpt lat="41.622692" lon="-4.751561"><ele>687.127</ele><time>2010-01-01T00:34:42Z</time></trkpt><trkpt lat="41.623034" lon="-4.752659"><ele>683.294</ele><time>2010-01-01T00:34:06Z</time></trkpt><trkpt lat="41.622993" lon="-4.753405"><ele>686.743</ele><time>2010-01-01T00:33:44Z</time></trkpt><trkpt lat="41.623151" lon="-4.753390"><ele>687.248</ele><time>2010-01-01T00:33:36Z</time></trkpt><trkpt lat="41.623273" lon="-4.753411"><ele>687.350</ele><time>2010-01-01T00:33:31Z</time></trkpt><trkpt lat="41.624234" lon="-4.755080"><ele>690.133</ele><time>2010-01-01T00:32:28Z</time></trkpt><trkpt lat="41.624969" lon="-4.756002"><ele>689.379</ele><time>2010-01-01T00:31:47Z</time></trkpt><trkpt lat="41.625025" lon="-4.756277"><ele>688.990</ele><time>2010-01-01T00:31:39Z</time></trkpt><trkpt lat="41.625159" lon="-4.756316"><ele>688.786</ele><time>2010-01-01T00:31:33Z</time></trkpt><trkpt lat="41.625456" lon="-4.756540"><ele>688.760</ele><time>2010-01-01T00:31:19Z</time></trkpt><trkpt lat="41.626830" lon="-4.758231"><ele>685.226</ele><time>2010-01-01T00:30:04Z</time></trkpt><trkpt lat="41.627112" lon="-4.758743"><ele>688.809</ele><time>2010-01-01T00:29:45Z</time></trkpt><trkpt lat="41.627182" lon="-4.759470"><ele>689.899</ele><time>2010-01-01T00:29:22Z</time></trkpt><trkpt lat="41.627387" lon="-4.759608"><ele>693.819</ele><time>2010-01-01T00:29:13Z</time></trkpt><trkpt lat="41.627522" lon="-4.759716"><ele>696.026</ele><time>2010-01-01T00:29:07Z</time></trkpt><trkpt lat="41.627872" lon="-4.759438"><ele>694.385</ele><time>2010-01-01T00:28:51Z</time></trkpt><trkpt lat="41.628077" lon="-4.758836"><ele>693.150</ele><time>2010-01-01T00:28:31Z</time></trkpt><trkpt lat="41.628037" lon="-4.758776"><ele>693.052</ele><time>2010-01-01T00:28:28Z</time></trkpt><trkpt lat="41.628111" lon="-4.757678"><ele>692.065</ele><time>2010-01-01T00:27:54Z</time></trkpt><trkpt lat="41.628778" lon="-4.755969"><ele>694.371</ele><time>2010-01-01T00:26:57Z</time></trkpt><trkpt lat="41.629006" lon="-4.755401"><ele>692.612</ele><time>2010-01-01T00:26:37Z</time></trkpt><trkpt lat="41.629407" lon="-4.754760"><ele>697.384</ele><time>2010-01-01T00:26:12Z</time></trkpt><trkpt lat="41.630522" lon="-4.753507"><ele>698.207</ele><time>2010-01-01T00:25:14Z</time></trkpt><trkpt lat="41.632588" lon="-4.751457"><ele>695.017</ele><time>2010-01-01T00:23:31Z</time></trkpt><trkpt lat="41.633679" lon="-4.750104"><ele>689.309</ele><time>2010-01-01T00:22:31Z</time></trkpt><trkpt lat="41.633803" lon="-4.750104"><ele>690.949</ele><time>2010-01-01T00:22:26Z</time></trkpt><trkpt lat="41.634107" lon="-4.750012"><ele>693.629</ele><time>2010-01-01T00:22:13Z</time></trkpt><trkpt lat="41.634313" lon="-4.749578"><ele>693.566</ele><time>2010-01-01T00:21:58Z</time></trkpt><trkpt lat="41.634770" lon="-4.749248"><ele>695.975</ele><time>2010-01-01T00:21:37Z</time></trkpt><trkpt lat="41.636961" lon="-4.747142"><ele>694.510</ele><time>2010-01-01T00:19:49Z</time></trkpt><trkpt lat="41.638298" lon="-4.746304"><ele>694.242</ele><time>2010-01-01T00:18:50Z</time></trkpt><trkpt lat="41.638742" lon="-4.746098"><ele>692.645</ele><time>2010-01-01T00:18:30Z</time></trkpt><trkpt lat="41.639083" lon="-4.745939"><ele>689.931</ele><time>2010-01-01T00:18:16Z</time></trkpt><trkpt lat="41.639283" lon="-4.746071"><ele>691.282</ele><time>2010-01-01T00:18:06Z</time></trkpt><trkpt lat="41.639401" lon="-4.746089"><ele>691.811</ele><time>2010-01-01T00:18:01Z</time></trkpt><trkpt lat="41.639734" lon="-4.745448"><ele>690.721</ele><time>2010-01-01T00:17:38Z</time></trkpt><trkpt lat="41.640557" lon="-4.744940"><ele>693.603</ele><time>2010-01-01T00:17:02Z</time></trkpt><trkpt lat="41.641167" lon="-4.744718"><ele>690.009</ele><time>2010-01-01T00:16:36Z</time></trkpt><trkpt lat="41.641502" lon="-4.744880"><ele>690.732</ele><time>2010-01-01T00:16:20Z</time></trkpt><trkpt lat="41.641597" lon="-4.744808"><ele>690.872</ele><time>2010-01-01T00:16:16Z</time></trkpt><trkpt lat="41.641728" lon="-4.744497"><ele>690.149</ele><time>2010-01-01T00:16:04Z</time></trkpt><trkpt lat="41.643844" lon="-4.743491"><ele>696.048</ele><time>2010-01-01T00:14:34Z</time></trkpt><trkpt lat="41.644234" lon="-4.743303"><ele>693.273</ele><time>2010-01-01T00:14:17Z</time></trkpt><trkpt lat="41.644565" lon="-4.743452"><ele>690.195</ele><time>2010-01-01T00:14:03Z</time></trkpt><trkpt lat="41.644759" lon="-4.743327"><ele>688.058</ele><time>2010-01-01T00:13:55Z</time></trkpt><trkpt lat="41.644848" lon="-4.742664"><ele>689.814</ele><time>2010-01-01T00:13:32Z</time></trkpt><trkpt lat="41.647650" lon="-4.740868"><ele>691.995</ele><time>2010-01-01T00:11:27Z</time></trkpt><trkpt lat="41.647839" lon="-4.740320"><ele>694.794</ele><time>2010-01-01T00:11:07Z</time></trkpt><trkpt lat="41.648464" lon="-4.740455"><ele>694.257</ele><time>2010-01-01T00:10:42Z</time></trkpt><trkpt lat="41.649200" lon="-4.740010"><ele>699.122</ele><time>2010-01-01T00:10:10Z</time></trkpt><trkpt lat="41.650531" lon="-4.739211"><ele>694.109</ele><time>2010-01-01T00:09:11Z</time></trkpt><trkpt lat="41.650647" lon="-4.738703"><ele>695.140</ele><time>2010-01-01T00:08:55Z</time></trkpt><trkpt lat="41.650520" lon="-4.738330"><ele>696.830</ele><time>2010-01-01T00:08:42Z</time></trkpt><trkpt lat="41.650321" lon="-4.737751"><ele>697.747</ele><time>2010-01-01T00:08:23Z</time></trkpt><trkpt lat="41.649641" lon="-4.735354"><ele>701.186</ele><time>2010-01-01T00:07:05Z</time></trkpt><trkpt lat="41.649598" lon="-4.734716"><ele>700.121</ele><time>2010-01-01T00:06:46Z</time></trkpt><trkpt lat="41.649596" lon="-4.734573"><ele>696.373</ele><time>2010-01-01T00:06:42Z</time></trkpt><trkpt lat="41.649757" lon="-4.734573"><ele>699.186</ele><time>2010-01-01T00:06:35Z</time></trkpt><trkpt lat="41.649714" lon="-4.733131"><ele>687.652</ele><time>2010-01-01T00:05:52Z</time></trkpt><trkpt lat="41.649598" lon="-4.732813"><ele>693.843</ele><time>2010-01-01T00:05:39Z</time></trkpt><trkpt lat="41.649216" lon="-4.730303"><ele>707.954</ele><time>2010-01-01T00:04:22Z</time></trkpt><trkpt lat="41.650162" lon="-4.730653"><ele>706.256</ele><time>2010-01-01T00:03:43Z</time></trkpt><trkpt lat="41.650517" lon="-4.729827"><ele>703.111</ele><time>2010-01-01T00:03:15Z</time></trkpt><trkpt lat="41.650814" lon="-4.729257"><ele>705.709</ele><time>2010-01-01T00:02:54Z</time></trkpt><trkpt lat="41.650900" lon="-4.728758"><ele>706.276</ele><time>2010-01-01T00:02:39Z</time></trkpt><trkpt lat="41.651080" lon="-4.727744"><ele>707.036</ele><time>2010-01-01T00:02:07Z</time></trkpt><trkpt lat="41.651231" lon="-4.726882"><ele>703.723</ele><time>2010-01-01T00:01:41Z</time></trkpt><trkpt lat="41.651959" lon="-4.724664"><ele>702.872</ele><time>2010-01-01T00:00:28Z</time></trkpt><trkpt lat="41.652067" lon="-4.724355"><ele>701.867</ele><time>2010-01-01T00:00:18Z</time></trkpt><trkpt lat="41.652526" lon="-4.724276"><ele>701.229</ele><time>2010-01-01T00:00:00Z</time></trkpt><trkpt lat="41.653197" lon="-4.724743"><ele>700.582</ele><time>2010-01-01T05:04:55Z</time></trkpt><trkpt lat="41.652531" lon="-4.725251"><ele>703.768</ele><time>2010-01-01T05:04:24Z</time></trkpt><trkpt lat="41.652151" lon="-4.725843"><ele>705.969</ele><time>2010-01-01T05:04:01Z</time></trkpt><trkpt lat="41.652968" lon="-4.728497"><ele>702.113</ele><time>2010-01-01T05:02:35Z</time></trkpt><trkpt lat="41.653458" lon="-4.729952"><ele>694.843</ele><time>2010-01-01T05:01:47Z</time></trkpt><trkpt lat="41.653566" lon="-4.731011"><ele>691.507</ele><time>2010-01-01T05:01:15Z</time></trkpt><trkpt lat="41.653507" lon="-4.735869"><ele>697.109</ele><time>2010-01-01T04:58:50Z</time></trkpt><trkpt lat="41.653459" lon="-4.737130"><ele>691.162</ele><time>2010-01-01T04:58:12Z</time></trkpt><trkpt lat="41.653698" lon="-4.737097"><ele>690.562</ele><time>2010-01-01T04:58:02Z</time></trkpt><trkpt lat="41.653977" lon="-4.737193"><ele>690.859</ele><time>2010-01-01T04:57:50Z</time></trkpt><trkpt lat="41.655646" lon="-4.736196"><ele>693.888</ele><time>2010-01-01T04:56:37Z</time></trkpt><trkpt lat="41.657069" lon="-4.735544"><ele>688.713</ele><time>2010-01-01T04:55:37Z</time></trkpt><trkpt lat="41.658968" lon="-4.734700"><ele>706.435</ele><time>2010-01-01T04:54:17Z</time></trkpt><trkpt lat="41.660008" lon="-4.734101"><ele>686.888</ele><time>2010-01-01T04:53:31Z</time></trkpt><trkpt lat="41.660217" lon="-4.734245"><ele>688.314</ele><time>2010-01-01T04:53:19Z</time></trkpt><trkpt lat="41.660394" lon="-4.734430"><ele>688.185</ele><time>2010-01-01T04:53:09Z</time></trkpt><trkpt lat="41.660583" lon="-4.735780"><ele>696.937</ele><time>2010-01-01T04:52:28Z</time></trkpt><trkpt lat="41.660668" lon="-4.736385"><ele>698.249</ele><time>2010-01-01T04:52:10Z</time></trkpt><trkpt lat="41.661126" lon="-4.739676"><ele>697.713</ele><time>2010-01-01T04:50:30Z</time></trkpt><trkpt lat="41.661118" lon="-4.740030"><ele>699.909</ele><time>2010-01-01T04:50:19Z</time></trkpt><trkpt lat="41.661079" lon="-4.741147"><ele>698.174</ele><time>2010-01-01T04:49:46Z</time></trkpt><trkpt lat="41.661048" lon="-4.741862"><ele>701.384</ele><time>2010-01-01T04:49:24Z</time></trkpt><trkpt lat="41.661030" lon="-4.742245"><ele>700.921</ele><time>2010-01-01T04:49:13Z</time></trkpt><trkpt lat="41.660919" lon="-4.742326"><ele>700.460</ele><time>2010-01-01T04:49:08Z</time></trkpt><trkpt lat="41.660822" lon="-4.742706"><ele>697.655</ele><time>2010-01-01T04:48:54Z</time></trkpt><trkpt lat="41.661141" lon="-4.742769"><ele>698.517</ele><time>2010-01-01T04:48:40Z</time></trkpt><trkpt lat="41.661314" lon="-4.742482"><ele>702.270</ele><time>2010-01-01T04:48:29Z</time></trkpt><trkpt lat="41.662172" lon="-4.741220"><ele>711.846</ele><time>2010-01-01T04:47:38Z</time></trkpt><trkpt lat="41.662865" lon="-4.740614"><ele>710.877</ele><time>2010-01-01T04:47:04Z</time></trkpt><trkpt lat="41.664665" lon="-4.739725"><ele>710.351</ele><time>2010-01-01T04:45:47Z</time></trkpt><trkpt lat="41.666239" lon="-4.738558"><ele>709.801</ele><time>2010-01-01T04:44:35Z</time></trkpt><trkpt lat="41.667675" lon="-4.737512"><ele>701.011</ele><time>2010-01-01T04:43:30Z</time></trkpt><trkpt lat="41.667579" lon="-4.736936"><ele>696.409</ele><time>2010-01-01T04:43:10Z</time></trkpt><trkpt lat="41.667733" lon="-4.736878"><ele>698.676</ele><time>2010-01-01T04:43:04Z</time></trkpt><trkpt lat="41.668075" lon="-4.736617"><ele>702.936</ele><time>2010-01-01T04:42:47Z</time></trkpt><trkpt lat="41.669595" lon="-4.734211"><ele>700.573</ele><time>2010-01-01T04:41:13Z</time></trkpt><trkpt lat="41.669964" lon="-4.733861"><ele>701.722</ele><time>2010-01-01T04:40:55Z</time></trkpt><trkpt lat="41.671956" lon="-4.732186"><ele>697.717</ele><time>2010-01-01T04:39:20Z</time></trkpt><trkpt lat="41.672511" lon="-4.731553"><ele>698.739</ele><time>2010-01-01T04:38:51Z</time></trkpt><trkpt lat="41.672923" lon="-4.731001"><ele>696.852</ele><time>2010-01-01T04:38:27Z</time></trkpt><trkpt lat="41.673541" lon="-4.730363"><ele>700.138</ele><time>2010-01-01T04:37:56Z</time></trkpt><trkpt lat="41.674290" lon="-4.729524"><ele>698.939</ele><time>2010-01-01T04:37:17Z</time></trkpt><trkpt lat="41.675799" lon="-4.727818"><ele>701.715</ele><time>2010-01-01T04:35:58Z</time></trkpt><trkpt lat="41.676246" lon="-4.727302"><ele>698.865</ele><time>2010-01-01T04:35:34Z</time></trkpt><trkpt lat="41.677268" lon="-4.726139"><ele>697.311</ele><time>2010-01-01T04:34:41Z</time></trkpt><trkpt lat="41.677583" lon="-4.725798"><ele>698.309</ele><time>2010-01-01T04:34:24Z</time></trkpt><trkpt lat="41.678208" lon="-4.725070"><ele>696.282</ele><time>2010-01-01T04:33:51Z</time></trkpt><trkpt lat="41.678513" lon="-4.724743"><ele>699.262</ele><time>2010-01-01T04:33:36Z</time></trkpt><trkpt lat="41.678995" lon="-4.724168"><ele>701.179</ele><time>2010-01-01T04:33:10Z</time></trkpt><trkpt lat="41.680259" lon="-4.721232"><ele>697.098</ele><time>2010-01-01T04:31:28Z</time></trkpt><trkpt lat="41.680478" lon="-4.720648"><ele>698.023</ele><time>2010-01-01T04:31:07Z</time></trkpt><trkpt lat="41.681852" lon="-4.719894"><ele>701.025</ele><time>2010-01-01T04:30:08Z</time></trkpt><trkpt lat="41.683994" lon="-4.718879"><ele>698.738</ele><time>2010-01-01T04:28:37Z</time></trkpt><trkpt lat="41.684741" lon="-4.718583"><ele>699.224</ele><time>2010-01-01T04:28:04Z</time></trkpt><trkpt lat="41.685291" lon="-4.718664"><ele>701.035</ele><time>2010-01-01T04:27:42Z</time></trkpt><trkpt lat="41.687117" lon="-4.719004"><ele>697.695</ele><time>2010-01-01T04:26:28Z</time></trkpt><trkpt lat="41.688099" lon="-4.718716"><ele>696.249</ele><time>2010-01-01T04:25:48Z</time></trkpt><trkpt lat="41.688883" lon="-4.718730"><ele>701.623</ele><time>2010-01-01T04:25:16Z</time></trkpt><trkpt lat="41.689010" lon="-4.718698"><ele>701.109</ele><time>2010-01-01T04:25:11Z</time></trkpt><trkpt lat="41.689190" lon="-4.718537"><ele>700.580</ele><time>2010-01-01T04:25:03Z</time></trkpt><trkpt lat="41.689522" lon="-4.717756"><ele>698.370</ele><time>2010-01-01T04:24:36Z</time></trkpt><trkpt lat="41.690181" lon="-4.716970"><ele>702.437</ele><time>2010-01-01T04:24:00Z</time></trkpt><trkpt lat="41.690690" lon="-4.716404"><ele>701.656</ele><time>2010-01-01T04:23:34Z</time></trkpt><trkpt lat="41.691275" lon="-4.715887"><ele>701.471</ele><time>2010-01-01T04:23:05Z</time></trkpt><trkpt lat="41.693154" lon="-4.715528"><ele>701.823</ele><time>2010-01-01T04:21:50Z</time></trkpt><trkpt lat="41.694458" lon="-4.714747"><ele>705.286</ele><time>2010-01-01T04:20:52Z</time></trkpt><trkpt lat="41.695360" lon="-4.714190"><ele>698.472</ele><time>2010-01-01T04:20:13Z</time></trkpt><trkpt lat="41.695565" lon="-4.713858"><ele>698.143</ele><time>2010-01-01T04:20:00Z</time></trkpt><trkpt lat="41.695826" lon="-4.713584"><ele>700.079</ele><time>2010-01-01T04:19:46Z</time></trkpt><trkpt lat="41.696980" lon="-4.713122"><ele>703.005</ele><time>2010-01-01T04:18:58Z</time></trkpt><trkpt lat="41.697707" lon="-4.712817"><ele>703.525</ele><time>2010-01-01T04:18:27Z</time></trkpt><trkpt lat="41.701348" lon="-4.710626"><ele>705.809</ele><time>2010-01-01T04:15:48Z</time></trkpt><trkpt lat="41.702580" lon="-4.709867"><ele>701.488</ele><time>2010-01-01T04:14:53Z</time></trkpt><trkpt lat="41.706140" lon="-4.706379"><ele>708.238</ele><time>2010-01-01T04:11:56Z</time></trkpt><trkpt lat="41.709880" lon="-4.702652"><ele>708.575</ele><time>2010-01-01T04:08:50Z</time></trkpt><trkpt lat="41.712228" lon="-4.700313"><ele>705.034</ele><time>2010-01-01T04:06:53Z</time></trkpt><trkpt lat="41.716224" lon="-4.696151"><ele>706.569</ele><time>2010-01-01T04:03:30Z</time></trkpt><trkpt lat="41.717712" lon="-4.694634"><ele>704.671</ele><time>2010-01-01T04:02:15Z</time></trkpt><trkpt lat="41.718480" lon="-4.693794"><ele>703.424</ele><time>2010-01-01T04:01:36Z</time></trkpt><trkpt lat="41.720024" lon="-4.692084"><ele>706.470</ele><time>2010-01-01T04:00:15Z</time></trkpt><trkpt lat="41.721347" lon="-4.690486"><ele>699.141</ele><time>2010-01-01T03:59:04Z</time></trkpt><trkpt lat="41.722555" lon="-4.689911"><ele>697.035</ele><time>2010-01-01T03:58:12Z</time></trkpt><trkpt lat="41.722884" lon="-4.689579"><ele>700.486</ele><time>2010-01-01T03:57:56Z</time></trkpt><trkpt lat="41.723215" lon="-4.689242"><ele>700.914</ele><time>2010-01-01T03:57:39Z</time></trkpt><trkpt lat="41.723584" lon="-4.688878"><ele>703.309</ele><time>2010-01-01T03:57:21Z</time></trkpt><trkpt lat="41.723792" lon="-4.688645"><ele>705.884</ele><time>2010-01-01T03:57:10Z</time></trkpt><trkpt lat="41.724948" lon="-4.686122"><ele>700.194</ele><time>2010-01-01T03:55:41Z</time></trkpt><trkpt lat="41.725290" lon="-4.685646"><ele>701.211</ele><time>2010-01-01T03:55:22Z</time></trkpt><trkpt lat="41.726339" lon="-4.684164"><ele>706.980</ele><time>2010-01-01T03:54:21Z</time></trkpt><trkpt lat="41.726498" lon="-4.683819"><ele>706.485</ele><time>2010-01-01T03:54:08Z</time></trkpt><trkpt lat="41.726673" lon="-4.683455"><ele>704.727</ele><time>2010-01-01T03:53:56Z</time></trkpt><trkpt lat="41.727125" lon="-4.682467"><ele>703.840</ele><time>2010-01-01T03:53:21Z</time></trkpt><trkpt lat="41.727169" lon="-4.682094"><ele>704.426</ele><time>2010-01-01T03:53:10Z</time></trkpt><trkpt lat="41.727090" lon="-4.681637"><ele>702.937</ele><time>2010-01-01T03:52:56Z</time></trkpt><trkpt lat="41.727077" lon="-4.681215"><ele>700.511</ele><time>2010-01-01T03:52:43Z</time></trkpt><trkpt lat="41.727579" lon="-4.679769"><ele>703.421</ele><time>2010-01-01T03:51:55Z</time></trkpt><trkpt lat="41.727808" lon="-4.679159"><ele>706.003</ele><time>2010-01-01T03:51:35Z</time></trkpt><trkpt lat="41.727905" lon="-4.679006"><ele>705.709</ele><time>2010-01-01T03:51:29Z</time></trkpt><trkpt lat="41.734499" lon="-4.672802"><ele>704.432</ele><time>2010-01-01T03:46:06Z</time></trkpt><trkpt lat="41.736251" lon="-4.670045"><ele>707.672</ele><time>2010-01-01T03:44:18Z</time></trkpt><trkpt lat="41.742125" lon="-4.660660"><ele>707.649</ele><time>2010-01-01T03:38:12Z</time></trkpt><trkpt lat="41.745146" lon="-4.655784"><ele>704.098</ele><time>2010-01-01T03:35:03Z</time></trkpt><trkpt lat="41.750891" lon="-4.644493"><ele>707.663</ele><time>2010-01-01T03:28:14Z</time></trkpt><trkpt lat="41.754125" lon="-4.638140"><ele>703.055</ele><time>2010-01-01T03:24:25Z</time></trkpt><trkpt lat="41.754271" lon="-4.637435"><ele>701.938</ele><time>2010-01-01T03:24:03Z</time></trkpt><trkpt lat="41.754125" lon="-4.636888"><ele>705.254</ele><time>2010-01-01T03:23:45Z</time></trkpt><trkpt lat="41.754017" lon="-4.636789"><ele>705.355</ele><time>2010-01-01T03:23:40Z</time></trkpt><trkpt lat="41.753783" lon="-4.635639"><ele>700.687</ele><time>2010-01-01T03:23:04Z</time></trkpt><trkpt lat="41.753907" lon="-4.635163"><ele>700.442</ele><time>2010-01-01T03:22:49Z</time></trkpt><trkpt lat="41.755815" lon="-4.633377"><ele>705.126</ele><time>2010-01-01T03:21:16Z</time></trkpt><trkpt lat="41.757014" lon="-4.632268"><ele>700.409</ele><time>2010-01-01T03:20:17Z</time></trkpt><trkpt lat="41.758335" lon="-4.631065"><ele>704.079</ele><time>2010-01-01T03:19:13Z</time></trkpt><trkpt lat="41.758922" lon="-4.630530"><ele>704.079</ele><time>2010-01-01T03:18:45Z</time></trkpt><trkpt lat="41.759674" lon="-4.629834"><ele>703.146</ele><time>2010-01-01T03:18:08Z</time></trkpt><trkpt lat="41.760954" lon="-4.628672"><ele>704.095</ele><time>2010-01-01T03:17:06Z</time></trkpt><trkpt lat="41.763992" lon="-4.625888"><ele>705.570</ele><time>2010-01-01T03:14:39Z</time></trkpt><trkpt lat="41.766094" lon="-4.623980"><ele>706.042</ele><time>2010-01-01T03:12:57Z</time></trkpt><trkpt lat="41.767902" lon="-4.622057"><ele>708.045</ele><time>2010-01-01T03:11:23Z</time></trkpt><trkpt lat="41.768110" lon="-4.622093"><ele>709.291</ele><time>2010-01-01T03:11:15Z</time></trkpt><trkpt lat="41.785576" lon="-4.606043"><ele>711.032</ele><time>2010-01-01T02:57:07Z</time></trkpt><trkpt lat="41.788842" lon="-4.603048"><ele>708.258</ele><time>2010-01-01T02:54:29Z</time></trkpt><trkpt lat="41.790583" lon="-4.602105"><ele>712.152</ele><time>2010-01-01T02:53:13Z</time></trkpt><trkpt lat="41.792815" lon="-4.600996"><ele>708.117</ele><time>2010-01-01T02:51:38Z</time></trkpt><trkpt lat="41.795345" lon="-4.597746"><ele>707.709</ele><time>2010-01-01T02:49:18Z</time></trkpt><trkpt lat="41.795596" lon="-4.597382"><ele>709.166</ele><time>2010-01-01T02:49:03Z</time></trkpt><trkpt lat="41.796827" lon="-4.595187"><ele>710.286</ele><time>2010-01-01T02:47:41Z</time></trkpt><trkpt lat="41.799595" lon="-4.589552"><ele>710.243</ele><time>2010-01-01T02:44:19Z</time></trkpt><trkpt lat="41.801999" lon="-4.585781"><ele>708.882</ele><time>2010-01-01T02:41:51Z</time></trkpt><trkpt lat="41.802314" lon="-4.584982"><ele>707.267</ele><time>2010-01-01T02:41:24Z</time></trkpt><trkpt lat="41.803417" lon="-4.583204"><ele>708.269</ele><time>2010-01-01T02:40:15Z</time></trkpt><trkpt lat="41.803931" lon="-4.582737"><ele>707.752</ele><time>2010-01-01T02:39:50Z</time></trkpt><trkpt lat="41.804832" lon="-4.582297"><ele>709.158</ele><time>2010-01-01T02:39:12Z</time></trkpt><trkpt lat="41.806295" lon="-4.581682"><ele>708.489</ele><time>2010-01-01T02:38:10Z</time></trkpt><trkpt lat="41.806492" lon="-4.581660"><ele>708.046</ele><time>2010-01-01T02:38:03Z</time></trkpt><trkpt lat="41.806618" lon="-4.582140"><ele>712.188</ele><time>2010-01-01T02:37:47Z</time></trkpt><trkpt lat="41.807136" lon="-4.581727"><ele>711.616</ele><time>2010-01-01T02:37:21Z</time></trkpt><trkpt lat="41.817471" lon="-4.577826"><ele>714.009</ele><time>2010-01-01T02:30:11Z</time></trkpt><trkpt lat="41.818813" lon="-4.577278"><ele>709.925</ele><time>2010-01-01T02:29:15Z</time></trkpt><trkpt lat="41.819665" lon="-4.576703"><ele>714.655</ele><time>2010-01-01T02:28:37Z</time></trkpt><trkpt lat="41.821459" lon="-4.575464"><ele>709.482</ele><time>2010-01-01T02:27:16Z</time></trkpt><trkpt lat="41.827846" lon="-4.571150"><ele>710.251</ele><time>2010-01-01T02:22:30Z</time></trkpt><trkpt lat="41.836694" lon="-4.565219"><ele>711.186</ele><time>2010-01-01T02:15:54Z</time></trkpt><trkpt lat="41.855060" lon="-4.552891"><ele>716.548</ele><time>2010-01-01T02:02:11Z</time></trkpt><trkpt lat="41.871985" lon="-4.541676"><ele>714.031</ele><time>2010-01-01T01:49:35Z</time></trkpt><trkpt lat="41.872392" lon="-4.541550"><ele>714.467</ele><time>2010-01-01T01:49:18Z</time></trkpt><trkpt lat="41.872278" lon="-4.541299"><ele>714.088</ele><time>2010-01-01T01:49:09Z</time></trkpt><trkpt lat="41.872219" lon="-4.541155"><ele>714.019</ele><time>2010-01-01T01:49:05Z</time></trkpt><trkpt lat="41.872397" lon="-4.541020"><ele>714.509</ele><time>2010-01-01T01:48:56Z</time></trkpt><trkpt lat="41.874009" lon="-4.540895"><ele>714.219</ele><time>2010-01-01T01:47:51Z</time></trkpt><trkpt lat="41.875586" lon="-4.541203"><ele>709.809</ele><time>2010-01-01T01:46:47Z</time></trkpt><trkpt lat="41.877465" lon="-4.541455"><ele>710.322</ele><time>2010-01-01T01:45:32Z</time></trkpt><trkpt lat="41.878320" lon="-4.541284"><ele>708.522</ele><time>2010-01-01T01:44:57Z</time></trkpt><trkpt lat="41.878734" lon="-4.541194"><ele>709.099</ele><time>2010-01-01T01:44:40Z</time></trkpt><trkpt lat="41.879017" lon="-4.540844"><ele>713.468</ele><time>2010-01-01T01:44:25Z</time></trkpt><trkpt lat="41.879257" lon="-4.540552"><ele>714.783</ele><time>2010-01-01T01:44:12Z</time></trkpt><trkpt lat="41.885841" lon="-4.535842"><ele>710.115</ele><time>2010-01-01T01:39:13Z</time></trkpt><trkpt lat="41.886005" lon="-4.535551"><ele>709.628</ele><time>2010-01-01T01:39:02Z</time></trkpt><trkpt lat="41.886725" lon="-4.535281"><ele>710.094</ele><time>2010-01-01T01:38:31Z</time></trkpt><trkpt lat="41.889862" lon="-4.533367"><ele>712.975</ele><time>2010-01-01T01:36:13Z</time></trkpt><trkpt lat="41.890207" lon="-4.533062"><ele>715.231</ele><time>2010-01-01T01:35:57Z</time></trkpt><trkpt lat="41.890347" lon="-4.532725"><ele>715.761</ele><time>2010-01-01T01:35:45Z</time></trkpt><trkpt lat="41.890584" lon="-4.532573"><ele>718.107</ele><time>2010-01-01T01:35:34Z</time></trkpt><trkpt lat="41.890891" lon="-4.532393"><ele>718.309</ele><time>2010-01-01T01:35:21Z</time></trkpt><trkpt lat="41.891945" lon="-4.532101"><ele>719.654</ele><time>2010-01-01T01:34:37Z</time></trkpt><trkpt lat="41.893295" lon="-4.531549"><ele>716.694</ele><time>2010-01-01T01:33:41Z</time></trkpt><trkpt lat="41.894462" lon="-4.531329"><ele>717.631</ele><time>2010-01-01T01:32:53Z</time></trkpt><trkpt lat="41.895931" lon="-4.531347"><ele>718.040</ele><time>2010-01-01T01:31:55Z</time></trkpt><trkpt lat="41.898957" lon="-4.531446"><ele>716.435</ele><time>2010-01-01T01:29:53Z</time></trkpt><trkpt lat="41.899574" lon="-4.531594"><ele>716.157</ele><time>2010-01-01T01:29:28Z</time></trkpt><trkpt lat="41.900636" lon="-4.532330"><ele>716.250</ele><time>2010-01-01T01:28:40Z</time></trkpt><trkpt lat="41.900949" lon="-4.532438"><ele>716.176</ele><time>2010-01-01T01:28:27Z</time></trkpt><trkpt lat="41.909742" lon="-4.528725"><ele>716.917</ele><time>2010-01-01T01:22:18Z</time></trkpt><trkpt lat="41.910300" lon="-4.528496"><ele>713.647</ele><time>2010-01-01T01:21:55Z</time></trkpt><trkpt lat="41.911101" lon="-4.528357"><ele>717.029</ele><time>2010-01-01T01:21:23Z</time></trkpt><trkpt lat="41.911704" lon="-4.528326"><ele>717.021</ele><time>2010-01-01T01:20:58Z</time></trkpt><trkpt lat="41.912944" lon="-4.528649"><ele>716.709</ele><time>2010-01-01T01:20:08Z</time></trkpt><trkpt lat="41.913699" lon="-4.528402"><ele>718.185</ele><time>2010-01-01T01:19:36Z</time></trkpt><trkpt lat="41.917709" lon="-4.527495"><ele>717.065</ele><time>2010-01-01T01:16:53Z</time></trkpt><trkpt lat="41.918110" lon="-4.527315"><ele>718.622</ele><time>2010-01-01T01:16:36Z</time></trkpt><trkpt lat="41.920617" lon="-4.524770"><ele>719.431</ele><time>2010-01-01T01:14:31Z</time></trkpt><trkpt lat="41.921247" lon="-4.524563"><ele>719.026</ele><time>2010-01-01T01:14:04Z</time></trkpt><trkpt lat="41.921897" lon="-4.524375"><ele>727.258</ele><time>2010-01-01T01:13:38Z</time></trkpt><trkpt lat="41.924134" lon="-4.523773"><ele>730.081</ele><time>2010-01-01T01:12:05Z</time></trkpt><trkpt lat="41.925915" lon="-4.523257"><ele>729.587</ele><time>2010-01-01T01:10:52Z</time></trkpt><trkpt lat="41.926944" lon="-4.522691"><ele>730.348</ele><time>2010-01-01T01:10:07Z</time></trkpt><trkpt lat="41.936536" lon="-4.517685"><ele>730.562</ele><time>2010-01-01T01:03:15Z</time></trkpt><trkpt lat="41.939428" lon="-4.516155"><ele>728.283</ele><time>2010-01-01T01:01:11Z</time></trkpt><trkpt lat="41.943405" lon="-4.516159"><ele>730.311</ele><time>2010-01-01T00:58:32Z</time></trkpt><trkpt lat="41.945963" lon="-4.516235"><ele>727.409</ele><time>2010-01-01T00:56:49Z</time></trkpt><trkpt lat="41.947758" lon="-4.516815"><ele>731.017</ele><time>2010-01-01T00:55:35Z</time></trkpt><trkpt lat="41.949760" lon="-4.517447"><ele>731.277</ele><time>2010-01-01T00:54:13Z</time></trkpt><trkpt lat="41.950567" lon="-4.517698"><ele>733.184</ele><time>2010-01-01T00:53:40Z</time></trkpt><trkpt lat="41.950521" lon="-4.517967"><ele>732.843</ele><time>2010-01-01T00:53:32Z</time></trkpt><trkpt lat="41.950807" lon="-4.518142"><ele>734.988</ele><time>2010-01-01T00:53:18Z</time></trkpt><trkpt lat="41.953582" lon="-4.519054"><ele>736.710</ele><time>2010-01-01T00:51:23Z</time></trkpt><trkpt lat="41.954881" lon="-4.519525"><ele>732.013</ele><time>2010-01-01T00:50:29Z</time></trkpt><trkpt lat="41.956501" lon="-4.521213"><ele>735.769</ele><time>2010-01-01T00:49:07Z</time></trkpt><trkpt lat="41.958654" lon="-4.523444"><ele>729.590</ele><time>2010-01-01T00:47:18Z</time></trkpt><trkpt lat="41.959244" lon="-4.523669"><ele>733.186</ele><time>2010-01-01T00:46:54Z</time></trkpt><trkpt lat="41.960042" lon="-4.524046"><ele>731.560</ele><time>2010-01-01T00:46:20Z</time></trkpt><trkpt lat="41.962910" lon="-4.524104"><ele>731.626</ele><time>2010-01-01T00:44:25Z</time></trkpt><trkpt lat="41.964306" lon="-4.526030"><ele>735.109</ele><time>2010-01-01T00:43:04Z</time></trkpt><trkpt lat="41.966351" lon="-4.527229"><ele>736.039</ele><time>2010-01-01T00:41:35Z</time></trkpt><trkpt lat="41.971512" lon="-4.529424"><ele>733.569</ele><time>2010-01-01T00:37:58Z</time></trkpt><trkpt lat="41.971819" lon="-4.529761"><ele>732.616</ele><time>2010-01-01T00:37:42Z</time></trkpt><trkpt lat="41.972132" lon="-4.530426"><ele>734.475</ele><time>2010-01-01T00:37:19Z</time></trkpt><trkpt lat="41.972345" lon="-4.530839"><ele>734.180</ele><time>2010-01-01T00:37:04Z</time></trkpt><trkpt lat="41.973247" lon="-4.532459"><ele>733.062</ele><time>2010-01-01T00:36:04Z</time></trkpt><trkpt lat="41.973824" lon="-4.532747"><ele>734.935</ele><time>2010-01-01T00:35:39Z</time></trkpt><trkpt lat="41.975775" lon="-4.533375"><ele>733.141</ele><time>2010-01-01T00:34:18Z</time></trkpt><trkpt lat="41.976091" lon="-4.533515"><ele>731.812</ele><time>2010-01-01T00:34:05Z</time></trkpt><trkpt lat="41.977516" lon="-4.535019"><ele>736.192</ele><time>2010-01-01T00:32:52Z</time></trkpt><trkpt lat="41.979710" lon="-4.536002"><ele>733.073</ele><time>2010-01-01T00:31:20Z</time></trkpt><trkpt lat="41.981863" lon="-4.537465"><ele>737.020</ele><time>2010-01-01T00:29:43Z</time></trkpt><trkpt lat="41.982179" lon="-4.537690"><ele>735.309</ele><time>2010-01-01T00:29:29Z</time></trkpt><trkpt lat="41.985539" lon="-4.536886"><ele>737.310</ele><time>2010-01-01T00:27:12Z</time></trkpt><trkpt lat="41.987975" lon="-4.537187"><ele>730.550</ele><time>2010-01-01T00:25:33Z</time></trkpt><trkpt lat="41.988261" lon="-4.537308"><ele>730.737</ele><time>2010-01-01T00:25:21Z</time></trkpt><trkpt lat="41.989455" lon="-4.538646"><ele>733.966</ele><time>2010-01-01T00:24:19Z</time></trkpt><trkpt lat="41.991398" lon="-4.540680"><ele>731.021</ele><time>2010-01-01T00:22:40Z</time></trkpt><trkpt lat="41.992134" lon="-4.541466"><ele>728.763</ele><time>2010-01-01T00:22:03Z</time></trkpt><trkpt lat="41.995133" lon="-4.544526"><ele>733.976</ele><time>2010-01-01T00:19:32Z</time></trkpt><trkpt lat="41.995947" lon="-4.545348"><ele>731.922</ele><time>2010-01-01T00:18:51Z</time></trkpt><trkpt lat="41.996386" lon="-4.545783"><ele>731.713</ele><time>2010-01-01T00:18:29Z</time></trkpt><trkpt lat="42.000501" lon="-4.550183"><ele>732.546</ele><time>2010-01-01T00:14:59Z</time></trkpt><trkpt lat="42.000760" lon="-4.550564"><ele>734.588</ele><time>2010-01-01T00:14:43Z</time></trkpt><trkpt lat="42.000841" lon="-4.550618"><ele>735.016</ele><time>2010-01-01T00:14:39Z</time></trkpt><trkpt lat="42.000930" lon="-4.550409"><ele>734.009</ele><time>2010-01-01T00:14:32Z</time></trkpt><trkpt lat="42.001054" lon="-4.550252"><ele>734.525</ele><time>2010-01-01T00:14:25Z</time></trkpt><trkpt lat="42.001329" lon="-4.550504"><ele>732.945</ele><time>2010-01-01T00:14:12Z</time></trkpt><trkpt lat="42.001539" lon="-4.550715"><ele>732.292</ele><time>2010-01-01T00:14:02Z</time></trkpt><trkpt lat="42.001725" lon="-4.550643"><ele>732.031</ele><time>2010-01-01T00:13:53Z</time></trkpt><trkpt lat="42.002043" lon="-4.550059"><ele>732.016</ele><time>2010-01-01T00:13:31Z</time></trkpt><trkpt lat="42.004158" lon="-4.546225"><ele>731.448</ele><time>2010-01-01T00:11:09Z</time></trkpt><trkpt lat="42.007204" lon="-4.540658"><ele>731.361</ele><time>2010-01-01T00:07:44Z</time></trkpt><trkpt lat="42.008133" lon="-4.538880"><ele>732.087</ele><time>2010-01-01T00:06:38Z</time></trkpt><trkpt lat="42.008423" lon="-4.539141"><ele>732.038</ele><time>2010-01-01T00:06:24Z</time></trkpt><trkpt lat="42.008078" lon="-4.539797"><ele>732.017</ele><time>2010-01-01T00:06:00Z</time></trkpt><trkpt lat="42.007711" lon="-4.540475"><ele>732.087</ele><time>2010-01-01T00:05:35Z</time></trkpt><trkpt lat="42.007593" lon="-4.540466"><ele>732.015</ele><time>2010-01-01T00:05:30Z</time></trkpt><trkpt lat="42.007398" lon="-4.540793"><ele>731.909</ele><time>2010-01-01T00:05:17Z</time></trkpt><trkpt lat="42.008127" lon="-4.541247"><ele>731.042</ele><time>2010-01-01T00:04:45Z</time></trkpt><trkpt lat="42.008178" lon="-4.541137"><ele>731.062</ele><time>2010-01-01T00:04:41Z</time></trkpt><trkpt lat="42.008499" lon="-4.539931"><ele>732.099</ele><time>2010-01-01T00:04:02Z</time></trkpt><trkpt lat="42.008544" lon="-4.539581"><ele>732.018</ele><time>2010-01-01T00:03:51Z</time></trkpt><trkpt lat="42.008221" lon="-4.538057"><ele>731.463</ele><time>2010-01-01T00:03:03Z</time></trkpt><trkpt lat="42.008737" lon="-4.536770"><ele>731.985</ele><time>2010-01-01T00:02:20Z</time></trkpt><trkpt lat="42.009782" lon="-4.538674"><ele>730.668</ele><time>2010-01-01T00:01:09Z</time></trkpt><trkpt lat="42.010150" lon="-4.539129"><ele>731.144</ele><time>2010-01-01T00:00:49Z</time></trkpt><trkpt lat="42.010413" lon="-4.539275"><ele>731.775</ele><time>2010-01-01T00:00:38Z</time></trkpt><trkpt lat="42.010871" lon="-4.538545"><ele>735.437</ele><time>2010-01-01T00:00:09Z</time></trkpt><trkpt lat="42.011031" lon="-4.538297"><ele>736.849</ele><time>2010-01-01T00:00:00Z</time></trkpt><trkpt lat="42.010871" lon="-4.538545"><ele>735.413</ele><time>2010-01-01T04:15:06Z</time></trkpt><trkpt lat="42.010625" lon="-4.538922"><ele>733.909</ele><time>2010-01-01T04:14:51Z</time></trkpt><trkpt lat="42.010413" lon="-4.539278"><ele>731.714</ele><time>2010-01-01T04:14:38Z</time></trkpt><trkpt lat="42.010149" lon="-4.539129"><ele>731.164</ele><time>2010-01-01T04:14:26Z</time></trkpt><trkpt lat="42.009297" lon="-4.537779"><ele>730.551</ele><time>2010-01-01T04:13:33Z</time></trkpt><trkpt lat="42.008737" lon="-4.536770"><ele>731.970</ele><time>2010-01-01T04:12:56Z</time></trkpt><trkpt lat="42.008221" lon="-4.538057"><ele>731.475</ele><time>2010-01-01T04:12:12Z</time></trkpt><trkpt lat="42.008257" lon="-4.538237"><ele>732.287</ele><time>2010-01-01T04:12:06Z</time></trkpt><trkpt lat="42.008546" lon="-4.539359"><ele>732.050</ele><time>2010-01-01T04:11:31Z</time></trkpt><trkpt lat="42.008499" lon="-4.539931"><ele>732.046</ele><time>2010-01-01T04:11:14Z</time></trkpt><trkpt lat="42.008366" lon="-4.540299"><ele>731.867</ele><time>2010-01-01T04:11:02Z</time></trkpt><trkpt lat="42.008300" lon="-4.540724"><ele>731.168</ele><time>2010-01-01T04:10:49Z</time></trkpt><trkpt lat="42.008223" lon="-4.540945"><ele>731.242</ele><time>2010-01-01T04:10:40Z</time></trkpt><trkpt lat="42.008127" lon="-4.541247"><ele>731.026</ele><time>2010-01-01T04:10:30Z</time></trkpt><trkpt lat="42.007747" lon="-4.541009"><ele>731.409</ele><time>2010-01-01T04:10:13Z</time></trkpt><trkpt lat="42.007398" lon="-4.540793"><ele>731.947</ele><time>2010-01-01T04:09:58Z</time></trkpt><trkpt lat="42.001782" lon="-4.550998"><ele>732.057</ele><time>2010-01-01T04:03:40Z</time></trkpt><trkpt lat="42.002898" lon="-4.553957"><ele>735.464</ele><time>2010-01-01T04:02:01Z</time></trkpt><trkpt lat="42.003302" lon="-4.555164"><ele>734.893</ele><time>2010-01-01T04:01:22Z</time></trkpt><trkpt lat="42.003276" lon="-4.555498"><ele>735.548</ele><time>2010-01-01T04:01:12Z</time></trkpt><trkpt lat="42.003839" lon="-4.556347"><ele>738.520</ele><time>2010-01-01T04:00:38Z</time></trkpt><trkpt lat="42.004109" lon="-4.556688"><ele>739.323</ele><time>2010-01-01T04:00:23Z</time></trkpt><trkpt lat="42.004362" lon="-4.557133"><ele>739.189</ele><time>2010-01-01T04:00:07Z</time></trkpt><trkpt lat="42.005349" lon="-4.557770"><ele>739.760</ele><time>2010-01-01T03:59:23Z</time></trkpt><trkpt lat="42.009057" lon="-4.560837"><ele>740.093</ele><time>2010-01-01T03:56:28Z</time></trkpt><trkpt lat="42.009566" lon="-4.561434"><ele>740.165</ele><time>2010-01-01T03:56:01Z</time></trkpt><trkpt lat="42.010364" lon="-4.562412"><ele>739.321</ele><time>2010-01-01T03:55:18Z</time></trkpt><trkpt lat="42.011574" lon="-4.563611"><ele>738.709</ele><time>2010-01-01T03:54:18Z</time></trkpt><trkpt lat="42.012390" lon="-4.564410"><ele>739.220</ele><time>2010-01-01T03:53:38Z</time></trkpt><trkpt lat="42.014455" lon="-4.566431"><ele>740.840</ele><time>2010-01-01T03:51:55Z</time></trkpt><trkpt lat="42.017735" lon="-4.569560"><ele>739.017</ele><time>2010-01-01T03:49:14Z</time></trkpt><trkpt lat="42.018085" lon="-4.569883"><ele>738.926</ele><time>2010-01-01T03:48:57Z</time></trkpt><trkpt lat="42.020106" lon="-4.572191"><ele>739.521</ele><time>2010-01-01T03:47:11Z</time></trkpt><trkpt lat="42.021203" lon="-4.573443"><ele>738.843</ele><time>2010-01-01T03:46:14Z</time></trkpt><trkpt lat="42.022478" lon="-4.574777"><ele>740.766</ele><time>2010-01-01T03:45:09Z</time></trkpt><trkpt lat="42.023343" lon="-4.575850"><ele>739.962</ele><time>2010-01-01T03:44:22Z</time></trkpt><trkpt lat="42.028770" lon="-4.580105"><ele>740.953</ele><time>2010-01-01T03:40:11Z</time></trkpt><trkpt lat="42.029134" lon="-4.580568"><ele>741.066</ele><time>2010-01-01T03:39:50Z</time></trkpt><trkpt lat="42.029477" lon="-4.580806"><ele>740.129</ele><time>2010-01-01T03:39:34Z</time></trkpt><trkpt lat="42.029786" lon="-4.581241"><ele>741.421</ele><time>2010-01-01T03:39:16Z</time></trkpt><trkpt lat="42.030600" lon="-4.582974"><ele>743.109</ele><time>2010-01-01T03:38:14Z</time></trkpt><trkpt lat="42.030840" lon="-4.583226"><ele>743.267</ele><time>2010-01-01T03:38:02Z</time></trkpt><trkpt lat="42.034292" lon="-4.584487"><ele>744.987</ele><time>2010-01-01T03:35:39Z</time></trkpt><trkpt lat="42.040348" lon="-4.586342"><ele>743.894</ele><time>2010-01-01T03:31:30Z</time></trkpt><trkpt lat="42.042517" lon="-4.585309"><ele>740.963</ele><time>2010-01-01T03:29:58Z</time></trkpt><trkpt lat="42.046328" lon="-4.582049"><ele>743.978</ele><time>2010-01-01T03:26:57Z</time></trkpt><trkpt lat="42.046983" lon="-4.581569"><ele>743.390</ele><time>2010-01-01T03:26:27Z</time></trkpt><trkpt lat="42.047231" lon="-4.581062"><ele>745.673</ele><time>2010-01-01T03:26:08Z</time></trkpt><trkpt lat="42.047428" lon="-4.580963"><ele>743.549</ele><time>2010-01-01T03:26:00Z</time></trkpt><trkpt lat="42.047557" lon="-4.581120"><ele>744.190</ele><time>2010-01-01T03:25:53Z</time></trkpt><trkpt lat="42.047945" lon="-4.580896"><ele>744.131</ele><time>2010-01-01T03:25:36Z</time></trkpt><trkpt lat="42.048252" lon="-4.580667"><ele>743.861</ele><time>2010-01-01T03:25:22Z</time></trkpt><trkpt lat="42.048950" lon="-4.580164"><ele>744.407</ele><time>2010-01-01T03:24:50Z</time></trkpt><trkpt lat="42.049713" lon="-4.579576"><ele>744.509</ele><time>2010-01-01T03:24:15Z</time></trkpt><trkpt lat="42.052014" lon="-4.577832"><ele>751.064</ele><time>2010-01-01T03:22:29Z</time></trkpt><trkpt lat="42.053206" lon="-4.578214"><ele>750.364</ele><time>2010-01-01T03:21:39Z</time></trkpt><trkpt lat="42.068865" lon="-4.586833"><ele>751.971</ele><time>2010-01-01T03:10:22Z</time></trkpt><trkpt lat="42.069879" lon="-4.587381"><ele>752.720</ele><time>2010-01-01T03:09:38Z</time></trkpt><trkpt lat="42.070512" lon="-4.587561"><ele>754.835</ele><time>2010-01-01T03:09:12Z</time></trkpt><trkpt lat="42.071369" lon="-4.588202"><ele>762.067</ele><time>2010-01-01T03:08:31Z</time></trkpt><trkpt lat="42.071657" lon="-4.588252"><ele>762.720</ele><time>2010-01-01T03:08:19Z</time></trkpt><trkpt lat="42.073587" lon="-4.586191"><ele>762.996</ele><time>2010-01-01T03:06:41Z</time></trkpt><trkpt lat="42.077044" lon="-4.582294"><ele>762.367</ele><time>2010-01-01T03:03:40Z</time></trkpt><trkpt lat="42.081750" lon="-4.577028"><ele>761.576</ele><time>2010-01-01T02:59:36Z</time></trkpt><trkpt lat="42.082362" lon="-4.575986"><ele>762.590</ele><time>2010-01-01T02:58:56Z</time></trkpt><trkpt lat="42.082558" lon="-4.575358"><ele>762.219</ele><time>2010-01-01T02:58:36Z</time></trkpt><trkpt lat="42.082720" lon="-4.574833"><ele>761.609</ele><time>2010-01-01T02:58:19Z</time></trkpt><trkpt lat="42.083332" lon="-4.572956"><ele>762.028</ele><time>2010-01-01T02:57:18Z</time></trkpt><trkpt lat="42.083846" lon="-4.572134"><ele>762.068</ele><time>2010-01-01T02:56:46Z</time></trkpt><trkpt lat="42.084243" lon="-4.571753"><ele>762.315</ele><time>2010-01-01T02:56:26Z</time></trkpt><trkpt lat="42.087760" lon="-4.569728"><ele>762.924</ele><time>2010-01-01T02:53:53Z</time></trkpt><trkpt lat="42.088398" lon="-4.569216"><ele>763.039</ele><time>2010-01-01T02:53:23Z</time></trkpt><trkpt lat="42.089463" lon="-4.567030"><ele>762.381</ele><time>2010-01-01T02:52:05Z</time></trkpt><trkpt lat="42.089366" lon="-4.565490"><ele>760.994</ele><time>2010-01-01T02:51:19Z</time></trkpt><trkpt lat="42.088856" lon="-4.563429"><ele>762.830</ele><time>2010-01-01T02:50:14Z</time></trkpt><trkpt lat="42.088522" lon="-4.562132"><ele>763.081</ele><time>2010-01-01T02:49:33Z</time></trkpt><trkpt lat="42.088525" lon="-4.561202"><ele>762.757</ele><time>2010-01-01T02:49:05Z</time></trkpt><trkpt lat="42.089099" lon="-4.559200"><ele>761.600</ele><time>2010-01-01T02:48:02Z</time></trkpt><trkpt lat="42.089261" lon="-4.558796"><ele>761.320</ele><time>2010-01-01T02:47:48Z</time></trkpt><trkpt lat="42.090042" lon="-4.558289"><ele>761.609</ele><time>2010-01-01T02:47:13Z</time></trkpt><trkpt lat="42.090471" lon="-4.558280"><ele>762.436</ele><time>2010-01-01T02:46:55Z</time></trkpt><trkpt lat="42.091012" lon="-4.558181"><ele>762.146</ele><time>2010-01-01T02:46:33Z</time></trkpt><trkpt lat="42.093063" lon="-4.556973"><ele>762.123</ele><time>2010-01-01T02:45:04Z</time></trkpt><trkpt lat="42.095049" lon="-4.556309"><ele>762.512</ele><time>2010-01-01T02:43:42Z</time></trkpt><trkpt lat="42.096869" lon="-4.554495"><ele>761.787</ele><time>2010-01-01T02:42:11Z</time></trkpt><trkpt lat="42.097098" lon="-4.554441"><ele>762.529</ele><time>2010-01-01T02:42:02Z</time></trkpt><trkpt lat="42.098162" lon="-4.554773"><ele>762.732</ele><time>2010-01-01T02:41:18Z</time></trkpt><trkpt lat="42.099124" lon="-4.554270"><ele>762.898</ele><time>2010-01-01T02:40:36Z</time></trkpt><trkpt lat="42.102692" lon="-4.552228"><ele>762.399</ele><time>2010-01-01T02:38:00Z</time></trkpt><trkpt lat="42.103358" lon="-4.552591"><ele>761.753</ele><time>2010-01-01T02:37:31Z</time></trkpt><trkpt lat="42.104137" lon="-4.552434"><ele>762.504</ele><time>2010-01-01T02:36:59Z</time></trkpt><trkpt lat="42.105002" lon="-4.551743"><ele>762.314</ele><time>2010-01-01T02:36:19Z</time></trkpt><trkpt lat="42.105409" lon="-4.551316"><ele>761.709</ele><time>2010-01-01T02:35:58Z</time></trkpt><trkpt lat="42.105641" lon="-4.551290"><ele>761.986</ele><time>2010-01-01T02:35:48Z</time></trkpt><trkpt lat="42.105959" lon="-4.551424"><ele>762.276</ele><time>2010-01-01T02:35:35Z</time></trkpt><trkpt lat="42.106188" lon="-4.551837"><ele>762.153</ele><time>2010-01-01T02:35:19Z</time></trkpt><trkpt lat="42.106630" lon="-4.553229"><ele>762.362</ele><time>2010-01-01T02:34:34Z</time></trkpt><trkpt lat="42.108465" lon="-4.554728"><ele>762.557</ele><time>2010-01-01T02:33:08Z</time></trkpt><trkpt lat="42.109085" lon="-4.555061"><ele>763.099</ele><time>2010-01-01T02:32:41Z</time></trkpt><trkpt lat="42.110470" lon="-4.555281"><ele>763.312</ele><time>2010-01-01T02:31:45Z</time></trkpt><trkpt lat="42.112025" lon="-4.555577"><ele>763.768</ele><time>2010-01-01T02:30:42Z</time></trkpt><trkpt lat="42.112346" lon="-4.555563"><ele>763.089</ele><time>2010-01-01T02:30:29Z</time></trkpt><trkpt lat="42.113065" lon="-4.555254"><ele>762.891</ele><time>2010-01-01T02:29:59Z</time></trkpt><trkpt lat="42.114812" lon="-4.554378"><ele>766.181</ele><time>2010-01-01T02:28:45Z</time></trkpt><trkpt lat="42.114884" lon="-4.554185"><ele>768.319</ele><time>2010-01-01T02:28:36Z</time></trkpt><trkpt lat="42.114750" lon="-4.554100"><ele>768.309</ele><time>2010-01-01T02:28:30Z</time></trkpt><trkpt lat="42.114580" lon="-4.554041"><ele>768.220</ele><time>2010-01-01T02:28:23Z</time></trkpt><trkpt lat="42.113777" lon="-4.553889"><ele>767.260</ele><time>2010-01-01T02:27:51Z</time></trkpt><trkpt lat="42.113728" lon="-4.553790"><ele>767.377</ele><time>2010-01-01T02:27:47Z</time></trkpt><trkpt lat="42.113947" lon="-4.553624"><ele>768.296</ele><time>2010-01-01T02:27:36Z</time></trkpt><trkpt lat="42.113893" lon="-4.553373"><ele>768.061</ele><time>2010-01-01T02:27:28Z</time></trkpt><trkpt lat="42.114238" lon="-4.553058"><ele>768.013</ele><time>2010-01-01T02:27:11Z</time></trkpt><trkpt lat="42.114639" lon="-4.553085"><ele>768.136</ele><time>2010-01-01T02:26:55Z</time></trkpt><trkpt lat="42.115019" lon="-4.553377"><ele>769.032</ele><time>2010-01-01T02:26:37Z</time></trkpt><trkpt lat="42.115375" lon="-4.553754"><ele>770.093</ele><time>2010-01-01T02:26:19Z</time></trkpt><trkpt lat="42.115952" lon="-4.553525"><ele>769.054</ele><time>2010-01-01T02:25:53Z</time></trkpt><trkpt lat="42.116119" lon="-4.552951"><ele>768.056</ele><time>2010-01-01T02:25:32Z</time></trkpt><trkpt lat="42.116218" lon="-4.553754"><ele>767.211</ele><time>2010-01-01T02:25:08Z</time></trkpt><trkpt lat="42.116542" lon="-4.553642"><ele>766.609</ele><time>2010-01-01T02:24:55Z</time></trkpt><trkpt lat="42.117628" lon="-4.553188"><ele>763.316</ele><time>2010-01-01T02:24:09Z</time></trkpt><trkpt lat="42.117986" lon="-4.552775"><ele>762.746</ele><time>2010-01-01T02:23:50Z</time></trkpt><trkpt lat="42.118250" lon="-4.552766"><ele>762.243</ele><time>2010-01-01T02:23:39Z</time></trkpt><trkpt lat="42.120520" lon="-4.553179"><ele>761.922</ele><time>2010-01-01T02:22:07Z</time></trkpt><trkpt lat="42.126354" lon="-4.553669"><ele>762.237</ele><time>2010-01-01T02:18:13Z</time></trkpt><trkpt lat="42.127155" lon="-4.553628"><ele>763.089</ele><time>2010-01-01T02:17:41Z</time></trkpt><trkpt lat="42.144162" lon="-4.544115"><ele>763.082</ele><time>2010-01-01T02:05:24Z</time></trkpt><trkpt lat="42.150711" lon="-4.540514"><ele>762.938</ele><time>2010-01-01T02:00:40Z</time></trkpt><trkpt lat="42.153040" lon="-4.539185"><ele>763.979</ele><time>2010-01-01T01:58:59Z</time></trkpt><trkpt lat="42.154471" lon="-4.538341"><ele>764.096</ele><time>2010-01-01T01:57:56Z</time></trkpt><trkpt lat="42.155708" lon="-4.537681"><ele>763.831</ele><time>2010-01-01T01:57:03Z</time></trkpt><trkpt lat="42.155977" lon="-4.537466"><ele>763.524</ele><time>2010-01-01T01:56:51Z</time></trkpt><trkpt lat="42.156128" lon="-4.537183"><ele>763.909</ele><time>2010-01-01T01:56:40Z</time></trkpt><trkpt lat="42.156344" lon="-4.536366"><ele>764.150</ele><time>2010-01-01T01:56:14Z</time></trkpt><trkpt lat="42.156877" lon="-4.535962"><ele>762.710</ele><time>2010-01-01T01:55:49Z</time></trkpt><trkpt lat="42.157958" lon="-4.536433"><ele>764.037</ele><time>2010-01-01T01:55:03Z</time></trkpt><trkpt lat="42.163900" lon="-4.533062"><ele>764.976</ele><time>2010-01-01T01:50:45Z</time></trkpt><trkpt lat="42.163682" lon="-4.532766"><ele>764.241</ele><time>2010-01-01T01:50:32Z</time></trkpt><trkpt lat="42.163410" lon="-4.532424"><ele>763.553</ele><time>2010-01-01T01:50:17Z</time></trkpt><trkpt lat="42.163259" lon="-4.532191"><ele>763.186</ele><time>2010-01-01T01:50:08Z</time></trkpt><trkpt lat="42.163122" lon="-4.531459"><ele>762.632</ele><time>2010-01-01T01:49:46Z</time></trkpt><trkpt lat="42.163208" lon="-4.531226"><ele>763.013</ele><time>2010-01-01T01:49:37Z</time></trkpt><trkpt lat="42.163766" lon="-4.531140"><ele>767.894</ele><time>2010-01-01T01:49:15Z</time></trkpt><trkpt lat="42.164582" lon="-4.531320"><ele>774.257</ele><time>2010-01-01T01:48:42Z</time></trkpt><trkpt lat="42.165065" lon="-4.531589"><ele>774.722</ele><time>2010-01-01T01:48:21Z</time></trkpt><trkpt lat="42.165154" lon="-4.531585"><ele>774.309</ele><time>2010-01-01T01:48:17Z</time></trkpt><trkpt lat="42.165256" lon="-4.530723"><ele>781.080</ele><time>2010-01-01T01:47:50Z</time></trkpt><trkpt lat="42.165237" lon="-4.530269"><ele>780.010</ele><time>2010-01-01T01:47:37Z</time></trkpt><trkpt lat="42.165159" lon="-4.529915"><ele>780.667</ele><time>2010-01-01T01:47:26Z</time></trkpt><trkpt lat="42.165280" lon="-4.529497"><ele>780.216</ele><time>2010-01-01T01:47:12Z</time></trkpt><trkpt lat="42.165628" lon="-4.529214"><ele>781.061</ele><time>2010-01-01T01:46:56Z</time></trkpt><trkpt lat="42.166889" lon="-4.524141"><ele>781.153</ele><time>2010-01-01T01:44:17Z</time></trkpt><trkpt lat="42.167145" lon="-4.520976"><ele>776.656</ele><time>2010-01-01T01:42:42Z</time></trkpt><trkpt lat="42.167180" lon="-4.519790"><ele>777.882</ele><time>2010-01-01T01:42:07Z</time></trkpt><trkpt lat="42.167221" lon="-4.516486"><ele>785.083</ele><time>2010-01-01T01:40:29Z</time></trkpt><trkpt lat="42.167390" lon="-4.512055"><ele>783.544</ele><time>2010-01-01T01:38:17Z</time></trkpt><trkpt lat="42.167854" lon="-4.510583"><ele>783.605</ele><time>2010-01-01T01:37:29Z</time></trkpt><trkpt lat="42.168460" lon="-4.509263"><ele>782.215</ele><time>2010-01-01T01:36:43Z</time></trkpt><trkpt lat="42.168854" lon="-4.508657"><ele>782.409</ele><time>2010-01-01T01:36:19Z</time></trkpt><trkpt lat="42.169278" lon="-4.508129"><ele>780.015</ele><time>2010-01-01T01:35:56Z</time></trkpt><trkpt lat="42.169976" lon="-4.507712"><ele>776.665</ele><time>2010-01-01T01:35:25Z</time></trkpt><trkpt lat="42.170195" lon="-4.507721"><ele>776.082</ele><time>2010-01-01T01:35:16Z</time></trkpt><trkpt lat="42.170747" lon="-4.507855"><ele>774.591</ele><time>2010-01-01T01:34:54Z</time></trkpt><trkpt lat="42.172359" lon="-4.508183"><ele>775.526</ele><time>2010-01-01T01:33:48Z</time></trkpt><trkpt lat="42.174703" lon="-4.508762"><ele>776.088</ele><time>2010-01-01T01:32:13Z</time></trkpt><trkpt lat="42.176894" lon="-4.509278"><ele>773.311</ele><time>2010-01-01T01:30:44Z</time></trkpt><trkpt lat="42.178029" lon="-4.509247"><ele>772.997</ele><time>2010-01-01T01:29:58Z</time></trkpt><trkpt lat="42.180756" lon="-4.508816"><ele>774.288</ele><time>2010-01-01T01:28:08Z</time></trkpt><trkpt lat="42.186469" lon="-4.504133"><ele>774.193</ele><time>2010-01-01T01:23:41Z</time></trkpt><trkpt lat="42.188458" lon="-4.502490"><ele>775.065</ele><time>2010-01-01T01:22:07Z</time></trkpt><trkpt lat="42.190924" lon="-4.498045"><ele>773.621</ele><time>2010-01-01T01:19:22Z</time></trkpt><trkpt lat="42.191595" lon="-4.496470"><ele>777.609</ele><time>2010-01-01T01:18:29Z</time></trkpt><trkpt lat="42.191943" lon="-4.495576"><ele>776.040</ele><time>2010-01-01T01:17:59Z</time></trkpt><trkpt lat="42.193862" lon="-4.489951"><ele>774.590</ele><time>2010-01-01T01:14:55Z</time></trkpt><trkpt lat="42.193932" lon="-4.488694"><ele>774.257</ele><time>2010-01-01T01:14:17Z</time></trkpt><trkpt lat="42.193891" lon="-4.484671"><ele>776.096</ele><time>2010-01-01T01:12:18Z</time></trkpt><trkpt lat="42.195163" lon="-4.482472"><ele>774.931</ele><time>2010-01-01T01:10:55Z</time></trkpt><trkpt lat="42.195595" lon="-4.481798"><ele>775.163</ele><time>2010-01-01T01:10:28Z</time></trkpt><trkpt lat="42.196341" lon="-4.480873"><ele>776.736</ele><time>2010-01-01T01:09:48Z</time></trkpt><trkpt lat="42.197287" lon="-4.480110"><ele>775.182</ele><time>2010-01-01T01:09:03Z</time></trkpt><trkpt lat="42.198602" lon="-4.479064"><ele>775.293</ele><time>2010-01-01T01:08:02Z</time></trkpt><trkpt lat="42.200451" lon="-4.477264"><ele>773.378</ele><time>2010-01-01T01:06:31Z</time></trkpt><trkpt lat="42.201119" lon="-4.476465"><ele>774.333</ele><time>2010-01-01T01:05:55Z</time></trkpt><trkpt lat="42.201952" lon="-4.474767"><ele>774.226</ele><time>2010-01-01T01:04:55Z</time></trkpt><trkpt lat="42.202103" lon="-4.474022"><ele>774.109</ele><time>2010-01-01T01:04:32Z</time></trkpt><trkpt lat="42.205431" lon="-4.469129"><ele>775.038</ele><time>2010-01-01T01:01:15Z</time></trkpt><trkpt lat="42.206151" lon="-4.467786"><ele>775.088</ele><time>2010-01-01T01:00:25Z</time></trkpt><trkpt lat="42.216198" lon="-4.448759"><ele>775.035</ele><time>2010-01-01T00:48:53Z</time></trkpt><trkpt lat="42.216958" lon="-4.447206"><ele>775.014</ele><time>2010-01-01T00:47:57Z</time></trkpt><trkpt lat="42.217564" lon="-4.446133"><ele>775.079</ele><time>2010-01-01T00:47:17Z</time></trkpt><trkpt lat="42.217868" lon="-4.445689"><ele>774.621</ele><time>2010-01-01T00:46:59Z</time></trkpt><trkpt lat="42.219302" lon="-4.443601"><ele>774.584</ele><time>2010-01-01T00:45:35Z</time></trkpt><trkpt lat="42.219345" lon="-4.443035"><ele>774.930</ele><time>2010-01-01T00:45:18Z</time></trkpt><trkpt lat="42.219566" lon="-4.442730"><ele>775.251</ele><time>2010-01-01T00:45:05Z</time></trkpt><trkpt lat="42.219965" lon="-4.442591"><ele>775.041</ele><time>2010-01-01T00:44:49Z</time></trkpt><trkpt lat="42.223248" lon="-4.437944"><ele>774.381</ele><time>2010-01-01T00:41:38Z</time></trkpt><trkpt lat="42.223512" lon="-4.437580"><ele>774.409</ele><time>2010-01-01T00:41:23Z</time></trkpt><trkpt lat="42.224280" lon="-4.436682"><ele>774.409</ele><time>2010-01-01T00:40:42Z</time></trkpt><trkpt lat="42.224902" lon="-4.436157"><ele>774.765</ele><time>2010-01-01T00:40:13Z</time></trkpt><trkpt lat="42.225242" lon="-4.436000"><ele>774.575</ele><time>2010-01-01T00:39:58Z</time></trkpt><trkpt lat="42.227371" lon="-4.435304"><ele>774.622</ele><time>2010-01-01T00:38:30Z</time></trkpt><trkpt lat="42.230112" lon="-4.433015"><ele>774.681</ele><time>2010-01-01T00:36:21Z</time></trkpt><trkpt lat="42.231179" lon="-4.432108"><ele>774.446</ele><time>2010-01-01T00:35:31Z</time></trkpt><trkpt lat="42.231729" lon="-4.431789"><ele>774.028</ele><time>2010-01-01T00:35:07Z</time></trkpt><trkpt lat="42.232602" lon="-4.431928"><ele>774.571</ele><time>2010-01-01T00:34:31Z</time></trkpt><trkpt lat="42.233443" lon="-4.432350"><ele>774.257</ele><time>2010-01-01T00:33:55Z</time></trkpt><trkpt lat="42.236240" lon="-4.433742"><ele>774.518</ele><time>2010-01-01T00:31:56Z</time></trkpt><trkpt lat="42.237356" lon="-4.434303"><ele>774.595</ele><time>2010-01-01T00:31:08Z</time></trkpt><trkpt lat="42.239997" lon="-4.435493"><ele>774.849</ele><time>2010-01-01T00:29:16Z</time></trkpt><trkpt lat="42.240253" lon="-4.435143"><ele>774.923</ele><time>2010-01-01T00:29:02Z</time></trkpt><trkpt lat="42.240544" lon="-4.434626"><ele>774.609</ele><time>2010-01-01T00:28:42Z</time></trkpt><trkpt lat="42.250445" lon="-4.416866"><ele>776.160</ele><time>2010-01-01T00:17:43Z</time></trkpt><trkpt lat="42.250490" lon="-4.416512"><ele>777.320</ele><time>2010-01-01T00:17:33Z</time></trkpt><trkpt lat="42.250866" lon="-4.416138"><ele>779.067</ele><time>2010-01-01T00:17:13Z</time></trkpt><trkpt lat="42.251456" lon="-4.415043"><ele>777.646</ele><time>2010-01-01T00:16:33Z</time></trkpt><trkpt lat="42.251922" lon="-4.414360"><ele>778.291</ele><time>2010-01-01T00:16:05Z</time></trkpt><trkpt lat="42.254046" lon="-4.411667"><ele>778.053</ele><time>2010-01-01T00:14:09Z</time></trkpt><trkpt lat="42.261476" lon="-4.401992"><ele>781.666</ele><time>2010-01-01T00:07:15Z</time></trkpt><trkpt lat="42.262923" lon="-4.399819"><ele>783.872</ele><time>2010-01-01T00:05:47Z</time></trkpt><trkpt lat="42.263766" lon="-4.399011"><ele>792.633</ele><time>2010-01-01T00:05:05Z</time></trkpt><trkpt lat="42.263964" lon="-4.399211"><ele>790.963</ele><time>2010-01-01T00:04:55Z</time></trkpt><trkpt lat="42.264253" lon="-4.399077"><ele>790.544</ele><time>2010-01-01T00:04:42Z</time></trkpt><trkpt lat="42.264794" lon="-4.399801"><ele>789.118</ele><time>2010-01-01T00:04:11Z</time></trkpt><trkpt lat="42.264818" lon="-4.400003"><ele>788.009</ele><time>2010-01-01T00:04:05Z</time></trkpt><trkpt lat="42.265373" lon="-4.400676"><ele>788.097</ele><time>2010-01-01T00:03:35Z</time></trkpt><trkpt lat="42.266120" lon="-4.401318"><ele>783.647</ele><time>2010-01-01T00:02:59Z</time></trkpt><trkpt lat="42.266231" lon="-4.401561"><ele>784.954</ele><time>2010-01-01T00:02:51Z</time></trkpt><trkpt lat="42.266336" lon="-4.402082"><ele>783.823</ele><time>2010-01-01T00:02:35Z</time></trkpt><trkpt lat="42.266255" lon="-4.403227"><ele>781.538</ele><time>2010-01-01T00:02:01Z</time></trkpt><trkpt lat="42.266028" lon="-4.406311"><ele>780.020</ele><time>2010-01-01T00:00:29Z</time></trkpt><trkpt lat="42.266761" lon="-4.406377"><ele>781.023</ele><time>2010-01-01T00:00:00Z</time></trkpt><trkpt lat="42.266028" lon="-4.406311"><ele>780.049</ele><time>2010-01-01T02:39:09Z</time></trkpt><trkpt lat="42.266034" lon="-4.406068"><ele>780.090</ele><time>2010-01-01T02:39:02Z</time></trkpt><trkpt lat="42.266228" lon="-4.403339"><ele>781.479</ele><time>2010-01-01T02:37:41Z</time></trkpt><trkpt lat="42.266271" lon="-4.401727"><ele>785.505</ele><time>2010-01-01T02:36:53Z</time></trkpt><trkpt lat="42.266231" lon="-4.401561"><ele>784.925</ele><time>2010-01-01T02:36:47Z</time></trkpt><trkpt lat="42.265878" lon="-4.401049"><ele>785.009</ele><time>2010-01-01T02:36:26Z</time></trkpt><trkpt lat="42.265373" lon="-4.400676"><ele>788.028</ele><time>2010-01-01T02:36:03Z</time></trkpt><trkpt lat="42.264818" lon="-4.400003"><ele>788.038</ele><time>2010-01-01T02:35:33Z</time></trkpt><trkpt lat="42.264794" lon="-4.399801"><ele>789.115</ele><time>2010-01-01T02:35:27Z</time></trkpt><trkpt lat="42.264253" lon="-4.399077"><ele>790.534</ele><time>2010-01-01T02:34:56Z</time></trkpt><trkpt lat="42.263915" lon="-4.399208"><ele>791.259</ele><time>2010-01-01T02:34:42Z</time></trkpt><trkpt lat="42.263766" lon="-4.399011"><ele>792.651</ele><time>2010-01-01T02:34:33Z</time></trkpt><trkpt lat="42.264208" lon="-4.398396"><ele>792.374</ele><time>2010-01-01T02:34:07Z</time></trkpt><trkpt lat="42.264534" lon="-4.397893"><ele>793.050</ele><time>2010-01-01T02:33:47Z</time></trkpt><trkpt lat="42.264561" lon="-4.397022"><ele>792.741</ele><time>2010-01-01T02:33:21Z</time></trkpt><trkpt lat="42.263063" lon="-4.388927"><ele>791.999</ele><time>2010-01-01T02:29:14Z</time></trkpt><trkpt lat="42.262850" lon="-4.388532"><ele>791.907</ele><time>2010-01-01T02:28:59Z</time></trkpt><trkpt lat="42.261492" lon="-4.387360"><ele>792.727</ele><time>2010-01-01T02:27:55Z</time></trkpt><trkpt lat="42.260080" lon="-4.386135"><ele>793.609</ele><time>2010-01-01T02:26:48Z</time></trkpt><trkpt lat="42.259657" lon="-4.385623"><ele>792.820</ele><time>2010-01-01T02:26:25Z</time></trkpt><trkpt lat="42.258336" lon="-4.380523"><ele>794.010</ele><time>2010-01-01T02:23:45Z</time></trkpt><trkpt lat="42.258263" lon="-4.375795"><ele>793.737</ele><time>2010-01-01T02:21:24Z</time></trkpt><trkpt lat="42.258309" lon="-4.364558"><ele>792.876</ele><time>2010-01-01T02:15:51Z</time></trkpt><trkpt lat="42.258684" lon="-4.363216"><ele>791.141</ele><time>2010-01-01T02:15:08Z</time></trkpt><trkpt lat="42.258940" lon="-4.360989"><ele>793.223</ele><time>2010-01-01T02:14:02Z</time></trkpt><trkpt lat="42.259473" lon="-4.357994"><ele>789.926</ele><time>2010-01-01T02:12:30Z</time></trkpt><trkpt lat="42.259835" lon="-4.357352"><ele>789.062</ele><time>2010-01-01T02:12:06Z</time></trkpt><trkpt lat="42.260667" lon="-4.355902"><ele>788.013</ele><time>2010-01-01T02:11:12Z</time></trkpt><trkpt lat="42.261872" lon="-4.353828"><ele>787.963</ele><time>2010-01-01T02:09:53Z</time></trkpt><trkpt lat="42.263034" lon="-4.351193"><ele>787.944</ele><time>2010-01-01T02:08:23Z</time></trkpt><trkpt lat="42.262392" lon="-4.350685"><ele>787.718</ele><time>2010-01-01T02:07:52Z</time></trkpt><trkpt lat="42.261508" lon="-4.349581"><ele>787.709</ele><time>2010-01-01T02:07:04Z</time></trkpt><trkpt lat="42.261222" lon="-4.348961"><ele>786.447</ele><time>2010-01-01T02:06:42Z</time></trkpt><trkpt lat="42.259576" lon="-4.347626"><ele>784.717</ele><time>2010-01-01T02:05:25Z</time></trkpt><trkpt lat="42.259094" lon="-4.347020"><ele>782.124</ele><time>2010-01-01T02:04:59Z</time></trkpt><trkpt lat="42.258587" lon="-4.346908"><ele>782.013</ele><time>2010-01-01T02:04:37Z</time></trkpt><trkpt lat="42.259094" lon="-4.347020"><ele>782.138</ele><time>2010-01-01T02:04:16Z</time></trkpt><trkpt lat="42.259549" lon="-4.346809"><ele>782.560</ele><time>2010-01-01T02:03:57Z</time></trkpt><trkpt lat="42.259469" lon="-4.346509"><ele>781.573</ele><time>2010-01-01T02:03:48Z</time></trkpt><trkpt lat="42.259948" lon="-4.346033"><ele>781.939</ele><time>2010-01-01T02:03:24Z</time></trkpt><trkpt lat="42.260706" lon="-4.345683"><ele>782.060</ele><time>2010-01-01T02:02:52Z</time></trkpt><trkpt lat="42.260972" lon="-4.345343"><ele>782.042</ele><time>2010-01-01T02:02:37Z</time></trkpt><trkpt lat="42.261204" lon="-4.344983"><ele>782.022</ele><time>2010-01-01T02:02:23Z</time></trkpt><trkpt lat="42.261387" lon="-4.344831"><ele>782.614</ele><time>2010-01-01T02:02:14Z</time></trkpt><trkpt lat="42.262187" lon="-4.343331"><ele>785.309</ele><time>2010-01-01T02:01:19Z</time></trkpt><trkpt lat="42.262866" lon="-4.341316"><ele>789.595</ele><time>2010-01-01T02:00:13Z</time></trkpt><trkpt lat="42.263734" lon="-4.339547"><ele>790.065</ele><time>2010-01-01T01:59:10Z</time></trkpt><trkpt lat="42.264580" lon="-4.337895"><ele>787.772</ele><time>2010-01-01T01:58:11Z</time></trkpt><trkpt lat="42.264812" lon="-4.337437"><ele>787.281</ele><time>2010-01-01T01:57:54Z</time></trkpt><trkpt lat="42.265362" lon="-4.336301"><ele>786.566</ele><time>2010-01-01T01:57:14Z</time></trkpt><trkpt lat="42.265583" lon="-4.335816"><ele>786.148</ele><time>2010-01-01T01:56:57Z</time></trkpt><trkpt lat="42.265842" lon="-4.335228"><ele>787.261</ele><time>2010-01-01T01:56:37Z</time></trkpt><trkpt lat="42.266087" lon="-4.334653"><ele>787.447</ele><time>2010-01-01T01:56:17Z</time></trkpt><trkpt lat="42.268065" lon="-4.330289"><ele>794.018</ele><time>2010-01-01T01:53:46Z</time></trkpt><trkpt lat="42.269887" lon="-4.325342"><ele>801.231</ele><time>2010-01-01T01:51:02Z</time></trkpt><trkpt lat="42.270609" lon="-4.322316"><ele>801.061</ele><time>2010-01-01T01:49:28Z</time></trkpt><trkpt lat="42.271814" lon="-4.316448"><ele>804.807</ele><time>2010-01-01T01:46:27Z</time></trkpt><trkpt lat="42.272005" lon="-4.315757"><ele>806.409</ele><time>2010-01-01T01:46:06Z</time></trkpt><trkpt lat="42.272358" lon="-4.314764"><ele>808.524</ele><time>2010-01-01T01:45:33Z</time></trkpt><trkpt lat="42.272555" lon="-4.314226"><ele>808.464</ele><time>2010-01-01T01:45:15Z</time></trkpt><trkpt lat="42.274393" lon="-4.310001"><ele>811.271</ele><time>2010-01-01T01:42:50Z</time></trkpt><trkpt lat="42.274689" lon="-4.308950"><ele>814.810</ele><time>2010-01-01T01:42:17Z</time></trkpt><trkpt lat="42.276120" lon="-4.303666"><ele>831.085</ele><time>2010-01-01T01:39:30Z</time></trkpt><trkpt lat="42.276853" lon="-4.301772"><ele>819.237</ele><time>2010-01-01T01:38:26Z</time></trkpt><trkpt lat="42.277864" lon="-4.298499"><ele>809.760</ele><time>2010-01-01T01:36:41Z</time></trkpt><trkpt lat="42.278066" lon="-4.297758"><ele>809.126</ele><time>2010-01-01T01:36:18Z</time></trkpt><trkpt lat="42.278737" lon="-4.296667"><ele>808.557</ele><time>2010-01-01T01:35:35Z</time></trkpt><trkpt lat="42.279033" lon="-4.293443"><ele>803.216</ele><time>2010-01-01T01:33:59Z</time></trkpt><trkpt lat="42.279131" lon="-4.291656"><ele>800.176</ele><time>2010-01-01T01:33:06Z</time></trkpt><trkpt lat="42.280106" lon="-4.288756"><ele>796.613</ele><time>2010-01-01T01:31:31Z</time></trkpt><trkpt lat="42.280896" lon="-4.286696"><ele>794.109</ele><time>2010-01-01T01:30:23Z</time></trkpt><trkpt lat="42.280882" lon="-4.286143"><ele>793.372</ele><time>2010-01-01T01:30:05Z</time></trkpt><trkpt lat="42.280777" lon="-4.285070"><ele>789.372</ele><time>2010-01-01T01:29:33Z</time></trkpt><trkpt lat="42.280858" lon="-4.283647"><ele>786.279</ele><time>2010-01-01T01:28:51Z</time></trkpt><trkpt lat="42.282103" lon="-4.276855"><ele>780.938</ele><time>2010-01-01T01:25:23Z</time></trkpt><trkpt lat="42.282540" lon="-4.274340"><ele>779.143</ele><time>2010-01-01T01:24:07Z</time></trkpt><trkpt lat="42.284243" lon="-4.268706"><ele>776.295</ele><time>2010-01-01T01:21:06Z</time></trkpt><trkpt lat="42.285590" lon="-4.264122"><ele>771.728</ele><time>2010-01-01T01:18:40Z</time></trkpt><trkpt lat="42.287040" lon="-4.261567"><ele>771.154</ele><time>2010-01-01T01:17:05Z</time></trkpt><trkpt lat="42.287282" lon="-4.259262"><ele>772.035</ele><time>2010-01-01T01:15:56Z</time></trkpt><trkpt lat="42.287280" lon="-4.257960"><ele>771.742</ele><time>2010-01-01T01:15:17Z</time></trkpt><trkpt lat="42.287145" lon="-4.257691"><ele>771.022</ele><time>2010-01-01T01:15:07Z</time></trkpt><trkpt lat="42.286999" lon="-4.257134"><ele>771.014</ele><time>2010-01-01T01:14:49Z</time></trkpt><trkpt lat="42.287131" lon="-4.256501"><ele>771.009</ele><time>2010-01-01T01:14:30Z</time></trkpt><trkpt lat="42.286684" lon="-4.256066"><ele>770.295</ele><time>2010-01-01T01:14:08Z</time></trkpt><trkpt lat="42.285091" lon="-4.253821"><ele>770.075</ele><time>2010-01-01T01:12:34Z</time></trkpt><trkpt lat="42.284981" lon="-4.253615"><ele>770.042</ele><time>2010-01-01T01:12:27Z</time></trkpt><trkpt lat="42.284116" lon="-4.252883"><ele>769.371</ele><time>2010-01-01T01:11:46Z</time></trkpt><trkpt lat="42.283625" lon="-4.252501"><ele>769.056</ele><time>2010-01-01T01:11:23Z</time></trkpt><trkpt lat="42.282070" lon="-4.250633"><ele>769.018</ele><time>2010-01-01T01:09:59Z</time></trkpt><trkpt lat="42.281984" lon="-4.250553"><ele>769.091</ele><time>2010-01-01T01:09:55Z</time></trkpt><trkpt lat="42.280518" lon="-4.250077"><ele>769.097</ele><time>2010-01-01T01:08:55Z</time></trkpt><trkpt lat="42.279292" lon="-4.249987"><ele>768.578</ele><time>2010-01-01T01:08:05Z</time></trkpt><trkpt lat="42.278578" lon="-4.249520"><ele>768.028</ele><time>2010-01-01T01:07:33Z</time></trkpt><trkpt lat="42.277702" lon="-4.248550"><ele>768.889</ele><time>2010-01-01T01:06:47Z</time></trkpt><trkpt lat="42.277521" lon="-4.248043"><ele>768.817</ele><time>2010-01-01T01:06:31Z</time></trkpt><trkpt lat="42.277508" lon="-4.247814"><ele>768.909</ele><time>2010-01-01T01:06:24Z</time></trkpt><trkpt lat="42.277535" lon="-4.247257"><ele>769.113</ele><time>2010-01-01T01:06:07Z</time></trkpt><trkpt lat="42.278799" lon="-4.244532"><ele>769.623</ele><time>2010-01-01T01:04:32Z</time></trkpt><trkpt lat="42.281076" lon="-4.242440"><ele>775.380</ele><time>2010-01-01T01:02:41Z</time></trkpt><trkpt lat="42.283350" lon="-4.237838"><ele>788.479</ele><time>2010-01-01T00:59:58Z</time></trkpt><trkpt lat="42.285404" lon="-4.235710"><ele>796.794</ele><time>2010-01-01T00:58:14Z</time></trkpt><trkpt lat="42.290708" lon="-4.226924"><ele>817.546</ele><time>2010-01-01T00:52:38Z</time></trkpt><trkpt lat="42.291972" lon="-4.224935"><ele>819.079</ele><time>2010-01-01T00:51:20Z</time></trkpt><trkpt lat="42.296114" lon="-4.219099"><ele>820.255</ele><time>2010-01-01T00:47:21Z</time></trkpt><trkpt lat="42.297291" lon="-4.215516"><ele>826.016</ele><time>2010-01-01T00:45:25Z</time></trkpt><trkpt lat="42.304719" lon="-4.185243"><ele>817.132</ele><time>2010-01-01T00:29:40Z</time></trkpt><trkpt lat="42.304854" lon="-4.184525"><ele>816.892</ele><time>2010-01-01T00:29:18Z</time></trkpt><trkpt lat="42.309392" lon="-4.174374"><ele>789.911</ele><time>2010-01-01T00:23:27Z</time></trkpt><trkpt lat="42.309535" lon="-4.174073"><ele>788.909</ele><time>2010-01-01T00:23:17Z</time></trkpt><trkpt lat="42.309734" lon="-4.173974"><ele>788.354</ele><time>2010-01-01T00:23:08Z</time></trkpt><trkpt lat="42.309923" lon="-4.173858"><ele>787.914</ele><time>2010-01-01T00:22:59Z</time></trkpt><trkpt lat="42.308555" lon="-4.171196"><ele>785.411</ele><time>2010-01-01T00:21:22Z</time></trkpt><trkpt lat="42.303816" lon="-4.161186"><ele>776.710</ele><time>2010-01-01T00:15:30Z</time></trkpt><trkpt lat="42.302886" lon="-4.159353"><ele>776.915</ele><time>2010-01-01T00:14:24Z</time></trkpt><trkpt lat="42.301974" lon="-4.158290"><ele>777.777</ele><time>2010-01-01T00:13:36Z</time></trkpt><trkpt lat="42.300043" lon="-4.156420"><ele>777.630</ele><time>2010-01-01T00:12:01Z</time></trkpt><trkpt lat="42.298109" lon="-4.154584"><ele>776.556</ele><time>2010-01-01T00:10:26Z</time></trkpt><trkpt lat="42.296335" lon="-4.153008"><ele>781.157</ele><time>2010-01-01T00:09:01Z</time></trkpt><trkpt lat="42.295923" lon="-4.152644"><ele>780.588</ele><time>2010-01-01T00:08:42Z</time></trkpt><trkpt lat="42.295379" lon="-4.152155"><ele>781.024</ele><time>2010-01-01T00:08:15Z</time></trkpt><trkpt lat="42.295109" lon="-4.151926"><ele>781.626</ele><time>2010-01-01T00:08:03Z</time></trkpt><trkpt lat="42.291412" lon="-4.148936"><ele>788.809</ele><time>2010-01-01T00:05:10Z</time></trkpt><trkpt lat="42.289916" lon="-4.147733"><ele>792.299</ele><time>2010-01-01T00:04:01Z</time></trkpt><trkpt lat="42.289957" lon="-4.145762"><ele>800.429</ele><time>2010-01-01T00:03:02Z</time></trkpt><trkpt lat="42.290046" lon="-4.145304"><ele>803.766</ele><time>2010-01-01T00:02:48Z</time></trkpt><trkpt lat="42.290366" lon="-4.144882"><ele>806.985</ele><time>2010-01-01T00:02:30Z</time></trkpt><trkpt lat="42.290245" lon="-4.144334"><ele>809.840</ele><time>2010-01-01T00:02:13Z</time></trkpt><trkpt lat="42.290065" lon="-4.143768"><ele>809.852</ele><time>2010-01-01T00:01:55Z</time></trkpt><trkpt lat="42.289135" lon="-4.141559"><ele>813.275</ele><time>2010-01-01T00:00:39Z</time></trkpt><trkpt lat="42.288744" lon="-4.140805"><ele>813.751</ele><time>2010-01-01T00:00:12Z</time></trkpt><trkpt lat="42.288599" lon="-4.140428"><ele>815.242</ele><time>2010-01-01T00:00:00Z</time></trkpt><trkpt lat="42.288184" lon="-4.139512"><ele>812.035</ele><time>2010-01-01T04:03:10Z</time></trkpt><trkpt lat="42.288122" lon="-4.138965"><ele>811.286</ele><time>2010-01-01T04:02:54Z</time></trkpt><trkpt lat="42.287968" lon="-4.138507"><ele>808.314</ele><time>2010-01-01T04:02:39Z</time></trkpt><trkpt lat="42.288529" lon="-4.136073"><ele>807.409</ele><time>2010-01-01T04:01:23Z</time></trkpt><trkpt lat="42.288644" lon="-4.135355"><ele>806.134</ele><time>2010-01-01T04:01:01Z</time></trkpt><trkpt lat="42.289313" lon="-4.133959"><ele>801.354</ele><time>2010-01-01T04:00:12Z</time></trkpt><trkpt lat="42.289809" lon="-4.133388"><ele>797.861</ele><time>2010-01-01T03:59:46Z</time></trkpt><trkpt lat="42.290456" lon="-4.132827"><ele>798.570</ele><time>2010-01-01T03:59:15Z</time></trkpt><trkpt lat="42.291485" lon="-4.132360"><ele>803.095</ele><time>2010-01-01T03:58:32Z</time></trkpt><trkpt lat="42.291620" lon="-4.132275"><ele>804.117</ele><time>2010-01-01T03:58:26Z</time></trkpt><trkpt lat="42.292318" lon="-4.131826"><ele>802.630</ele><time>2010-01-01T03:57:54Z</time></trkpt><trkpt lat="42.292471" lon="-4.131395"><ele>801.056</ele><time>2010-01-01T03:57:39Z</time></trkpt><trkpt lat="42.292415" lon="-4.130416"><ele>800.177</ele><time>2010-01-01T03:57:10Z</time></trkpt><trkpt lat="42.292218" lon="-4.128993"><ele>791.482</ele><time>2010-01-01T03:56:27Z</time></trkpt><trkpt lat="42.292601" lon="-4.128464"><ele>792.443</ele><time>2010-01-01T03:56:04Z</time></trkpt><trkpt lat="42.292539" lon="-4.128100"><ele>793.017</ele><time>2010-01-01T03:55:53Z</time></trkpt><trkpt lat="42.292460" lon="-4.127736"><ele>791.609</ele><time>2010-01-01T03:55:42Z</time></trkpt><trkpt lat="42.292385" lon="-4.127319"><ele>789.979</ele><time>2010-01-01T03:55:29Z</time></trkpt><trkpt lat="42.292177" lon="-4.127153"><ele>788.829</ele><time>2010-01-01T03:55:19Z</time></trkpt><trkpt lat="42.292043" lon="-4.126246"><ele>788.416</ele><time>2010-01-01T03:54:52Z</time></trkpt><trkpt lat="42.292258" lon="-4.123929"><ele>788.025</ele><time>2010-01-01T03:53:42Z</time></trkpt><trkpt lat="42.292218" lon="-4.122825"><ele>789.040</ele><time>2010-01-01T03:53:10Z</time></trkpt><trkpt lat="42.292124" lon="-4.120145"><ele>795.592</ele><time>2010-01-01T03:51:50Z</time></trkpt><trkpt lat="42.291752" lon="-4.109679"><ele>796.655</ele><time>2010-01-01T03:46:40Z</time></trkpt><trkpt lat="42.291633" lon="-4.106492"><ele>800.811</ele><time>2010-01-01T03:45:05Z</time></trkpt><trkpt lat="42.291555" lon="-4.104454"><ele>803.252</ele><time>2010-01-01T03:44:05Z</time></trkpt><trkpt lat="42.291566" lon="-4.102281"><ele>803.124</ele><time>2010-01-01T03:43:00Z</time></trkpt><trkpt lat="42.292913" lon="-4.098770"><ele>805.804</ele><time>2010-01-01T03:41:03Z</time></trkpt><trkpt lat="42.294129" lon="-4.097351"><ele>809.014</ele><time>2010-01-01T03:39:58Z</time></trkpt><trkpt lat="42.295104" lon="-4.096089"><ele>811.609</ele><time>2010-01-01T03:39:04Z</time></trkpt><trkpt lat="42.298691" lon="-4.093099"><ele>812.093</ele><time>2010-01-01T03:36:15Z</time></trkpt><trkpt lat="42.299810" lon="-4.092372"><ele>811.213</ele><time>2010-01-01T03:35:26Z</time></trkpt><trkpt lat="42.301497" lon="-4.091285"><ele>813.640</ele><time>2010-01-01T03:34:11Z</time></trkpt><trkpt lat="42.303054" lon="-4.087384"><ele>815.089</ele><time>2010-01-01T03:31:59Z</time></trkpt><trkpt lat="42.303378" lon="-4.087523"><ele>817.364</ele><time>2010-01-01T03:31:45Z</time></trkpt><trkpt lat="42.303944" lon="-4.087689"><ele>820.756</ele><time>2010-01-01T03:31:22Z</time></trkpt><trkpt lat="42.304216" lon="-4.087366"><ele>822.649</ele><time>2010-01-01T03:31:07Z</time></trkpt><trkpt lat="42.306466" lon="-4.084385"><ele>821.365</ele><time>2010-01-01T03:29:01Z</time></trkpt><trkpt lat="42.307073" lon="-4.083236"><ele>822.066</ele><time>2010-01-01T03:28:19Z</time></trkpt><trkpt lat="42.307700" lon="-4.081759"><ele>822.497</ele><time>2010-01-01T03:27:28Z</time></trkpt><trkpt lat="42.308048" lon="-4.080919"><ele>822.323</ele><time>2010-01-01T03:27:00Z</time></trkpt><trkpt lat="42.308544" lon="-4.079222"><ele>825.425</ele><time>2010-01-01T03:26:06Z</time></trkpt><trkpt lat="42.308676" lon="-4.078585"><ele>825.609</ele><time>2010-01-01T03:25:46Z</time></trkpt><trkpt lat="42.308843" lon="-4.078077"><ele>825.610</ele><time>2010-01-01T03:25:29Z</time></trkpt><trkpt lat="42.309075" lon="-4.077431"><ele>827.250</ele><time>2010-01-01T03:25:08Z</time></trkpt><trkpt lat="42.309679" lon="-4.074580"><ele>828.987</ele><time>2010-01-01T03:23:40Z</time></trkpt><trkpt lat="42.309695" lon="-4.073758"><ele>828.836</ele><time>2010-01-01T03:23:16Z</time></trkpt><trkpt lat="42.310261" lon="-4.071446"><ele>830.191</ele><time>2010-01-01T03:22:03Z</time></trkpt><trkpt lat="42.310783" lon="-4.070436"><ele>833.173</ele><time>2010-01-01T03:21:26Z</time></trkpt><trkpt lat="42.310727" lon="-4.068932"><ele>844.766</ele><time>2010-01-01T03:20:40Z</time></trkpt><trkpt lat="42.310627" lon="-4.068326"><ele>845.122</ele><time>2010-01-01T03:20:22Z</time></trkpt><trkpt lat="42.310713" lon="-4.067765"><ele>847.163</ele><time>2010-01-01T03:20:05Z</time></trkpt><trkpt lat="42.310624" lon="-4.064250"><ele>848.316</ele><time>2010-01-01T03:18:19Z</time></trkpt><trkpt lat="42.310899" lon="-4.063437"><ele>852.376</ele><time>2010-01-01T03:17:53Z</time></trkpt><trkpt lat="42.311083" lon="-4.062597"><ele>853.413</ele><time>2010-01-01T03:17:27Z</time></trkpt><trkpt lat="42.311492" lon="-4.061695"><ele>854.509</ele><time>2010-01-01T03:16:55Z</time></trkpt><trkpt lat="42.312085" lon="-4.060595"><ele>854.472</ele><time>2010-01-01T03:16:15Z</time></trkpt><trkpt lat="42.312805" lon="-4.058274"><ele>852.662</ele><time>2010-01-01T03:15:00Z</time></trkpt><trkpt lat="42.313408" lon="-4.056496"><ele>849.989</ele><time>2010-01-01T03:14:02Z</time></trkpt><trkpt lat="42.314015" lon="-4.053475"><ele>849.668</ele><time>2010-01-01T03:12:29Z</time></trkpt><trkpt lat="42.313737" lon="-4.051023"><ele>848.093</ele><time>2010-01-01T03:11:16Z</time></trkpt><trkpt lat="42.314061" lon="-4.049371"><ele>855.095</ele><time>2010-01-01T03:10:25Z</time></trkpt><trkpt lat="42.313716" lon="-4.048159"><ele>861.538</ele><time>2010-01-01T03:09:46Z</time></trkpt><trkpt lat="42.313611" lon="-4.047261"><ele>861.114</ele><time>2010-01-01T03:09:19Z</time></trkpt><trkpt lat="42.312910" lon="-4.046067"><ele>863.675</ele><time>2010-01-01T03:08:34Z</time></trkpt><trkpt lat="42.312643" lon="-4.044989"><ele>865.156</ele><time>2010-01-01T03:08:00Z</time></trkpt><trkpt lat="42.312708" lon="-4.042408"><ele>888.159</ele><time>2010-01-01T03:06:43Z</time></trkpt><trkpt lat="42.312519" lon="-4.042408"><ele>888.314</ele><time>2010-01-01T03:06:35Z</time></trkpt><trkpt lat="42.312600" lon="-4.041582"><ele>898.009</ele><time>2010-01-01T03:06:09Z</time></trkpt><trkpt lat="42.312619" lon="-4.041223"><ele>902.176</ele><time>2010-01-01T03:05:59Z</time></trkpt><trkpt lat="42.312427" lon="-4.040069"><ele>912.446</ele><time>2010-01-01T03:05:23Z</time></trkpt><trkpt lat="42.312635" lon="-4.038533"><ele>920.793</ele><time>2010-01-01T03:04:37Z</time></trkpt><trkpt lat="42.312867" lon="-4.037882"><ele>921.052</ele><time>2010-01-01T03:04:15Z</time></trkpt><trkpt lat="42.313115" lon="-4.036293"><ele>921.177</ele><time>2010-01-01T03:03:27Z</time></trkpt><trkpt lat="42.313328" lon="-4.035094"><ele>922.799</ele><time>2010-01-01T03:02:50Z</time></trkpt><trkpt lat="42.313602" lon="-4.033887"><ele>922.022</ele><time>2010-01-01T03:02:13Z</time></trkpt><trkpt lat="42.313772" lon="-4.032338"><ele>922.288</ele><time>2010-01-01T03:01:26Z</time></trkpt><trkpt lat="42.314149" lon="-4.030461"><ele>921.719</ele><time>2010-01-01T03:00:28Z</time></trkpt><trkpt lat="42.314203" lon="-4.029891"><ele>920.667</ele><time>2010-01-01T03:00:11Z</time></trkpt><trkpt lat="42.314678" lon="-4.029424"><ele>922.281</ele><time>2010-01-01T02:59:47Z</time></trkpt><trkpt lat="42.314971" lon="-4.028575"><ele>922.219</ele><time>2010-01-01T02:59:19Z</time></trkpt><trkpt lat="42.315866" lon="-4.026353"><ele>925.109</ele><time>2010-01-01T02:58:04Z</time></trkpt><trkpt lat="42.316629" lon="-4.024674"><ele>928.197</ele><time>2010-01-01T02:57:06Z</time></trkpt><trkpt lat="42.318634" lon="-4.019664"><ele>929.977</ele><time>2010-01-01T02:54:17Z</time></trkpt><trkpt lat="42.319782" lon="-4.016561"><ele>928.054</ele><time>2010-01-01T02:52:34Z</time></trkpt><trkpt lat="42.320068" lon="-4.015556"><ele>928.043</ele><time>2010-01-01T02:52:02Z</time></trkpt><trkpt lat="42.320917" lon="-4.011425"><ele>927.078</ele><time>2010-01-01T02:49:56Z</time></trkpt><trkpt lat="42.320989" lon="-4.011214"><ele>927.040</ele><time>2010-01-01T02:49:49Z</time></trkpt><trkpt lat="42.322307" lon="-4.005858"><ele>928.683</ele><time>2010-01-01T02:47:01Z</time></trkpt><trkpt lat="42.322819" lon="-4.003232"><ele>930.069</ele><time>2010-01-01T02:45:41Z</time></trkpt><trkpt lat="42.323479" lon="-4.000134"><ele>931.330</ele><time>2010-01-01T02:44:05Z</time></trkpt><trkpt lat="42.323841" lon="-3.998760"><ele>930.096</ele><time>2010-01-01T02:43:22Z</time></trkpt><trkpt lat="42.324892" lon="-3.996143"><ele>926.531</ele><time>2010-01-01T02:41:53Z</time></trkpt><trkpt lat="42.325131" lon="-3.995815"><ele>924.524</ele><time>2010-01-01T02:41:39Z</time></trkpt><trkpt lat="42.325377" lon="-3.994275"><ele>916.309</ele><time>2010-01-01T02:40:52Z</time></trkpt><trkpt lat="42.326005" lon="-3.993090"><ele>906.660</ele><time>2010-01-01T02:40:09Z</time></trkpt><trkpt lat="42.326112" lon="-3.991676"><ele>900.030</ele><time>2010-01-01T02:39:26Z</time></trkpt><trkpt lat="42.326096" lon="-3.991272"><ele>899.037</ele><time>2010-01-01T02:39:15Z</time></trkpt><trkpt lat="42.326085" lon="-3.990603"><ele>897.876</ele><time>2010-01-01T02:38:55Z</time></trkpt><trkpt lat="42.326024" lon="-3.989956"><ele>897.041</ele><time>2010-01-01T02:38:35Z</time></trkpt><trkpt lat="42.325905" lon="-3.987649"><ele>891.383</ele><time>2010-01-01T02:37:26Z</time></trkpt><trkpt lat="42.326754" lon="-3.983877"><ele>906.766</ele><time>2010-01-01T02:35:29Z</time></trkpt><trkpt lat="42.326916" lon="-3.983604"><ele>909.172</ele><time>2010-01-01T02:35:19Z</time></trkpt><trkpt lat="42.327274" lon="-3.983173"><ele>914.353</ele><time>2010-01-01T02:35:00Z</time></trkpt><trkpt lat="42.327708" lon="-3.982320"><ele>925.141</ele><time>2010-01-01T02:34:29Z</time></trkpt><trkpt lat="42.327859" lon="-3.982010"><ele>927.981</ele><time>2010-01-01T02:34:18Z</time></trkpt><trkpt lat="42.327808" lon="-3.981489"><ele>931.509</ele><time>2010-01-01T02:34:02Z</time></trkpt><trkpt lat="42.327773" lon="-3.978764"><ele>933.509</ele><time>2010-01-01T02:32:42Z</time></trkpt><trkpt lat="42.327794" lon="-3.977179"><ele>935.065</ele><time>2010-01-01T02:31:55Z</time></trkpt><trkpt lat="42.327694" lon="-3.975841"><ele>935.015</ele><time>2010-01-01T02:31:15Z</time></trkpt><trkpt lat="42.327460" lon="-3.974090"><ele>935.032</ele><time>2010-01-01T02:30:22Z</time></trkpt><trkpt lat="42.327422" lon="-3.973502"><ele>935.351</ele><time>2010-01-01T02:30:05Z</time></trkpt><trkpt lat="42.327487" lon="-3.971491"><ele>936.066</ele><time>2010-01-01T02:29:05Z</time></trkpt><trkpt lat="42.327651" lon="-3.970494"><ele>936.028</ele><time>2010-01-01T02:28:35Z</time></trkpt><trkpt lat="42.328465" lon="-3.965960"><ele>937.081</ele><time>2010-01-01T02:26:16Z</time></trkpt><trkpt lat="42.328651" lon="-3.963908"><ele>935.097</ele><time>2010-01-01T02:25:15Z</time></trkpt><trkpt lat="42.328546" lon="-3.962965"><ele>929.788</ele><time>2010-01-01T02:24:46Z</time></trkpt><trkpt lat="42.328562" lon="-3.962054"><ele>921.171</ele><time>2010-01-01T02:24:19Z</time></trkpt><trkpt lat="42.328225" lon="-3.959589"><ele>908.141</ele><time>2010-01-01T02:23:04Z</time></trkpt><trkpt lat="42.328223" lon="-3.959221"><ele>905.715</ele><time>2010-01-01T02:22:53Z</time></trkpt><trkpt lat="42.328255" lon="-3.958547"><ele>901.209</ele><time>2010-01-01T02:22:33Z</time></trkpt><trkpt lat="42.328379" lon="-3.957955"><ele>897.998</ele><time>2010-01-01T02:22:15Z</time></trkpt><trkpt lat="42.328608" lon="-3.957061"><ele>893.828</ele><time>2010-01-01T02:21:47Z</time></trkpt><trkpt lat="42.328864" lon="-3.956397"><ele>891.065</ele><time>2010-01-01T02:21:25Z</time></trkpt><trkpt lat="42.329177" lon="-3.955683"><ele>888.014</ele><time>2010-01-01T02:21:00Z</time></trkpt><trkpt lat="42.331758" lon="-3.951396"><ele>874.489</ele><time>2010-01-01T02:18:16Z</time></trkpt><trkpt lat="42.332311" lon="-3.950668"><ele>871.581</ele><time>2010-01-01T02:17:45Z</time></trkpt><trkpt lat="42.332230" lon="-3.950251"><ele>871.124</ele><time>2010-01-01T02:17:32Z</time></trkpt><trkpt lat="42.332392" lon="-3.949761"><ele>871.740</ele><time>2010-01-01T02:17:16Z</time></trkpt><trkpt lat="42.332658" lon="-3.949285"><ele>870.291</ele><time>2010-01-01T02:16:59Z</time></trkpt><trkpt lat="42.333308" lon="-3.947925"><ele>867.458</ele><time>2010-01-01T02:16:11Z</time></trkpt><trkpt lat="42.333731" lon="-3.946592"><ele>862.152</ele><time>2010-01-01T02:15:28Z</time></trkpt><trkpt lat="42.334273" lon="-3.944859"><ele>858.417</ele><time>2010-01-01T02:14:32Z</time></trkpt><trkpt lat="42.335283" lon="-3.943198"><ele>855.409</ele><time>2010-01-01T02:13:28Z</time></trkpt><trkpt lat="42.335356" lon="-3.943018"><ele>854.726</ele><time>2010-01-01T02:13:22Z</time></trkpt><trkpt lat="42.336418" lon="-3.938506"><ele>845.926</ele><time>2010-01-01T02:11:01Z</time></trkpt><trkpt lat="42.336790" lon="-3.937518"><ele>843.793</ele><time>2010-01-01T02:10:28Z</time></trkpt><trkpt lat="42.337005" lon="-3.936759"><ele>840.422</ele><time>2010-01-01T02:10:03Z</time></trkpt><trkpt lat="42.337313" lon="-3.935067"><ele>837.337</ele><time>2010-01-01T02:09:12Z</time></trkpt><trkpt lat="42.337949" lon="-3.933150"><ele>836.569</ele><time>2010-01-01T02:08:09Z</time></trkpt><trkpt lat="42.337919" lon="-3.932279"><ele>835.742</ele><time>2010-01-01T02:07:43Z</time></trkpt><trkpt lat="42.337825" lon="-3.931534"><ele>833.918</ele><time>2010-01-01T02:07:21Z</time></trkpt><trkpt lat="42.337528" lon="-3.930115"><ele>830.679</ele><time>2010-01-01T02:06:37Z</time></trkpt><trkpt lat="42.338329" lon="-3.928018"><ele>827.086</ele><time>2010-01-01T02:05:27Z</time></trkpt><trkpt lat="42.338606" lon="-3.927071"><ele>825.060</ele><time>2010-01-01T02:04:57Z</time></trkpt><trkpt lat="42.338344" lon="-3.925367"><ele>821.326</ele><time>2010-01-01T02:04:05Z</time></trkpt><trkpt lat="42.338263" lon="-3.924689"><ele>820.009</ele><time>2010-01-01T02:03:45Z</time></trkpt><trkpt lat="42.338501" lon="-3.924164"><ele>820.089</ele><time>2010-01-01T02:03:27Z</time></trkpt><trkpt lat="42.338872" lon="-3.921883"><ele>820.089</ele><time>2010-01-01T02:02:17Z</time></trkpt><trkpt lat="42.339668" lon="-3.920200"><ele>820.876</ele><time>2010-01-01T02:01:18Z</time></trkpt><trkpt lat="42.339821" lon="-3.919675"><ele>821.035</ele><time>2010-01-01T02:01:01Z</time></trkpt><trkpt lat="42.339967" lon="-3.919136"><ele>822.060</ele><time>2010-01-01T02:00:44Z</time></trkpt><trkpt lat="42.340080" lon="-3.918373"><ele>822.922</ele><time>2010-01-01T02:00:21Z</time></trkpt><trkpt lat="42.340139" lon="-3.917758"><ele>824.555</ele><time>2010-01-01T02:00:03Z</time></trkpt><trkpt lat="42.340541" lon="-3.914184"><ele>829.911</ele><time>2010-01-01T01:58:16Z</time></trkpt><trkpt lat="42.340735" lon="-3.907244"><ele>836.642</ele><time>2010-01-01T01:54:50Z</time></trkpt><trkpt lat="42.340716" lon="-3.906934"><ele>837.099</ele><time>2010-01-01T01:54:40Z</time></trkpt><trkpt lat="42.340551" lon="-3.905866"><ele>839.907</ele><time>2010-01-01T01:54:08Z</time></trkpt><trkpt lat="42.340554" lon="-3.905138"><ele>842.527</ele><time>2010-01-01T01:53:47Z</time></trkpt><trkpt lat="42.340716" lon="-3.903854"><ele>847.409</ele><time>2010-01-01T01:53:08Z</time></trkpt><trkpt lat="42.340702" lon="-3.902790"><ele>852.090</ele><time>2010-01-01T01:52:37Z</time></trkpt><trkpt lat="42.340665" lon="-3.901529"><ele>858.360</ele><time>2010-01-01T01:51:59Z</time></trkpt><trkpt lat="42.340689" lon="-3.900092"><ele>867.187</ele><time>2010-01-01T01:51:17Z</time></trkpt><trkpt lat="42.340662" lon="-3.899010"><ele>877.686</ele><time>2010-01-01T01:50:45Z</time></trkpt><trkpt lat="42.340972" lon="-3.897744"><ele>892.981</ele><time>2010-01-01T01:50:05Z</time></trkpt><trkpt lat="42.340902" lon="-3.896573"><ele>906.133</ele><time>2010-01-01T01:49:30Z</time></trkpt><trkpt lat="42.340899" lon="-3.895926"><ele>916.346</ele><time>2010-01-01T01:49:11Z</time></trkpt><trkpt lat="42.340972" lon="-3.895513"><ele>921.712</ele><time>2010-01-01T01:48:58Z</time></trkpt><trkpt lat="42.341694" lon="-3.892644"><ele>921.683</ele><time>2010-01-01T01:47:28Z</time></trkpt><trkpt lat="42.342093" lon="-3.891096"><ele>919.594</ele><time>2010-01-01T01:46:40Z</time></trkpt><trkpt lat="42.342424" lon="-3.888725"><ele>918.357</ele><time>2010-01-01T01:45:28Z</time></trkpt><trkpt lat="42.342384" lon="-3.887163"><ele>920.722</ele><time>2010-01-01T01:44:42Z</time></trkpt><trkpt lat="42.342387" lon="-3.886633"><ele>921.609</ele><time>2010-01-01T01:44:26Z</time></trkpt><trkpt lat="42.342174" lon="-3.884748"><ele>922.850</ele><time>2010-01-01T01:43:30Z</time></trkpt><trkpt lat="42.341902" lon="-3.881767"><ele>916.950</ele><time>2010-01-01T01:42:00Z</time></trkpt><trkpt lat="42.341629" lon="-3.879006"><ele>907.937</ele><time>2010-01-01T01:40:38Z</time></trkpt><trkpt lat="42.341894" lon="-3.877313"><ele>902.146</ele><time>2010-01-01T01:39:47Z</time></trkpt><trkpt lat="42.341818" lon="-3.875167"><ele>894.911</ele><time>2010-01-01T01:38:43Z</time></trkpt><trkpt lat="42.341977" lon="-3.874736"><ele>893.363</ele><time>2010-01-01T01:38:28Z</time></trkpt><trkpt lat="42.341939" lon="-3.873062"><ele>886.166</ele><time>2010-01-01T01:37:38Z</time></trkpt><trkpt lat="42.341894" lon="-3.871293"><ele>883.442</ele><time>2010-01-01T01:36:45Z</time></trkpt><trkpt lat="42.341155" lon="-3.865592"><ele>870.773</ele><time>2010-01-01T01:33:54Z</time></trkpt><trkpt lat="42.340727" lon="-3.863998"><ele>868.951</ele><time>2010-01-01T01:33:03Z</time></trkpt><trkpt lat="42.340985" lon="-3.857488"><ele>860.901</ele><time>2010-01-01T01:29:50Z</time></trkpt><trkpt lat="42.341209" lon="-3.855755"><ele>859.911</ele><time>2010-01-01T01:28:58Z</time></trkpt><trkpt lat="42.341441" lon="-3.853610"><ele>856.609</ele><time>2010-01-01T01:27:53Z</time></trkpt><trkpt lat="42.341349" lon="-3.852842"><ele>854.676</ele><time>2010-01-01T01:27:30Z</time></trkpt><trkpt lat="42.341171" lon="-3.850611"><ele>847.286</ele><time>2010-01-01T01:26:24Z</time></trkpt><trkpt lat="42.341096" lon="-3.850027"><ele>845.223</ele><time>2010-01-01T01:26:06Z</time></trkpt><trkpt lat="42.340716" lon="-3.849372"><ele>845.222</ele><time>2010-01-01T01:25:41Z</time></trkpt><trkpt lat="42.340538" lon="-3.848370"><ele>844.437</ele><time>2010-01-01T01:25:11Z</time></trkpt><trkpt lat="42.340487" lon="-3.847805"><ele>843.929</ele><time>2010-01-01T01:24:54Z</time></trkpt><trkpt lat="42.340433" lon="-3.847199"><ele>843.872</ele><time>2010-01-01T01:24:36Z</time></trkpt><trkpt lat="42.340363" lon="-3.846489"><ele>842.468</ele><time>2010-01-01T01:24:15Z</time></trkpt><trkpt lat="42.340384" lon="-3.845412"><ele>842.629</ele><time>2010-01-01T01:23:43Z</time></trkpt><trkpt lat="42.340225" lon="-3.844186"><ele>842.411</ele><time>2010-01-01T01:23:06Z</time></trkpt><trkpt lat="42.340196" lon="-3.843351"><ele>840.521</ele><time>2010-01-01T01:22:41Z</time></trkpt><trkpt lat="42.340492" lon="-3.840254"><ele>830.003</ele><time>2010-01-01T01:21:08Z</time></trkpt><trkpt lat="42.340295" lon="-3.838889"><ele>831.209</ele><time>2010-01-01T01:20:27Z</time></trkpt><trkpt lat="42.340258" lon="-3.837672"><ele>829.962</ele><time>2010-01-01T01:19:51Z</time></trkpt><trkpt lat="42.339921" lon="-3.835369"><ele>832.212</ele><time>2010-01-01T01:18:40Z</time></trkpt><trkpt lat="42.340220" lon="-3.835122"><ele>831.839</ele><time>2010-01-01T01:18:24Z</time></trkpt><trkpt lat="42.340419" lon="-3.834754"><ele>830.148</ele><time>2010-01-01T01:18:11Z</time></trkpt><trkpt lat="42.340683" lon="-3.833461"><ele>825.743</ele><time>2010-01-01T01:17:31Z</time></trkpt><trkpt lat="42.340799" lon="-3.833529"><ele>826.095</ele><time>2010-01-01T01:17:26Z</time></trkpt><trkpt lat="42.341284" lon="-3.833416"><ele>827.228</ele><time>2010-01-01T01:17:06Z</time></trkpt><trkpt lat="42.341961" lon="-3.832388"><ele>826.764</ele><time>2010-01-01T01:16:26Z</time></trkpt><trkpt lat="42.343238" lon="-3.830557"><ele>826.065</ele><time>2010-01-01T01:15:11Z</time></trkpt><trkpt lat="42.344235" lon="-3.829874"><ele>828.041</ele><time>2010-01-01T01:14:26Z</time></trkpt><trkpt lat="42.344952" lon="-3.829533"><ele>828.081</ele><time>2010-01-01T01:13:55Z</time></trkpt><trkpt lat="42.346011" lon="-3.828792"><ele>826.009</ele><time>2010-01-01T01:13:07Z</time></trkpt><trkpt lat="42.347057" lon="-3.828622"><ele>823.109</ele><time>2010-01-01T01:12:25Z</time></trkpt><trkpt lat="42.347677" lon="-3.828402"><ele>822.145</ele><time>2010-01-01T01:11:59Z</time></trkpt><trkpt lat="42.348410" lon="-3.825906"><ele>821.785</ele><time>2010-01-01T01:10:39Z</time></trkpt><trkpt lat="42.349033" lon="-3.823966"><ele>821.072</ele><time>2010-01-01T01:09:36Z</time></trkpt><trkpt lat="42.349143" lon="-3.822525"><ele>822.061</ele><time>2010-01-01T01:08:54Z</time></trkpt><trkpt lat="42.349318" lon="-3.821524"><ele>822.266</ele><time>2010-01-01T01:08:23Z</time></trkpt><trkpt lat="42.349310" lon="-3.820860"><ele>823.078</ele><time>2010-01-01T01:08:03Z</time></trkpt><trkpt lat="42.349103" lon="-3.820276"><ele>824.031</ele><time>2010-01-01T01:07:44Z</time></trkpt><trkpt lat="42.348997" lon="-3.819948"><ele>825.997</ele><time>2010-01-01T01:07:34Z</time></trkpt><trkpt lat="42.348941" lon="-3.819365"><ele>824.568</ele><time>2010-01-01T01:07:15Z</time></trkpt><trkpt lat="42.349183" lon="-3.818884"><ele>824.086</ele><time>2010-01-01T01:06:57Z</time></trkpt><trkpt lat="42.349167" lon="-3.818045"><ele>823.060</ele><time>2010-01-01T01:06:32Z</time></trkpt><trkpt lat="42.348884" lon="-3.817120"><ele>823.026</ele><time>2010-01-01T01:06:03Z</time></trkpt><trkpt lat="42.348801" lon="-3.816635"><ele>823.109</ele><time>2010-01-01T01:05:48Z</time></trkpt><trkpt lat="42.348647" lon="-3.816519"><ele>823.569</ele><time>2010-01-01T01:05:41Z</time></trkpt><trkpt lat="42.349095" lon="-3.815450"><ele>826.189</ele><time>2010-01-01T01:05:04Z</time></trkpt><trkpt lat="42.348924" lon="-3.814670"><ele>827.176</ele><time>2010-01-01T01:04:39Z</time></trkpt><trkpt lat="42.348340" lon="-3.813093"><ele>828.015</ele><time>2010-01-01T01:03:47Z</time></trkpt><trkpt lat="42.347914" lon="-3.810826"><ele>828.010</ele><time>2010-01-01T01:02:38Z</time></trkpt><trkpt lat="42.347583" lon="-3.807814"><ele>827.252</ele><time>2010-01-01T01:01:08Z</time></trkpt><trkpt lat="42.347523" lon="-3.804362"><ele>825.185</ele><time>2010-01-01T00:59:25Z</time></trkpt><trkpt lat="42.347631" lon="-3.803976"><ele>825.521</ele><time>2010-01-01T00:59:12Z</time></trkpt><trkpt lat="42.348205" lon="-3.802894"><ele>826.012</ele><time>2010-01-01T00:58:33Z</time></trkpt><trkpt lat="42.348841" lon="-3.802126"><ele>826.994</ele><time>2010-01-01T00:57:59Z</time></trkpt><trkpt lat="42.349264" lon="-3.801367"><ele>826.357</ele><time>2010-01-01T00:57:31Z</time></trkpt><trkpt lat="42.349820" lon="-3.799836"><ele>826.422</ele><time>2010-01-01T00:56:40Z</time></trkpt><trkpt lat="42.349954" lon="-3.799194"><ele>825.909</ele><time>2010-01-01T00:56:20Z</time></trkpt><trkpt lat="42.349930" lon="-3.797327"><ele>826.570</ele><time>2010-01-01T00:55:24Z</time></trkpt><trkpt lat="42.349801" lon="-3.796748"><ele>826.530</ele><time>2010-01-01T00:55:07Z</time></trkpt><trkpt lat="42.349914" lon="-3.796541"><ele>827.567</ele><time>2010-01-01T00:54:59Z</time></trkpt><trkpt lat="42.349771" lon="-3.795895"><ele>826.266</ele><time>2010-01-01T00:54:38Z</time></trkpt><trkpt lat="42.350062" lon="-3.795823"><ele>826.691</ele><time>2010-01-01T00:54:26Z</time></trkpt><trkpt lat="42.350509" lon="-3.796029"><ele>828.863</ele><time>2010-01-01T00:54:07Z</time></trkpt><trkpt lat="42.351121" lon="-3.796393"><ele>825.916</ele><time>2010-01-01T00:53:40Z</time></trkpt><trkpt lat="42.351353" lon="-3.796330"><ele>827.162</ele><time>2010-01-01T00:53:31Z</time></trkpt><trkpt lat="42.351676" lon="-3.795455"><ele>827.013</ele><time>2010-01-01T00:53:02Z</time></trkpt><trkpt lat="42.351612" lon="-3.795154"><ele>827.998</ele><time>2010-01-01T00:52:52Z</time></trkpt><trkpt lat="42.351428" lon="-3.794979"><ele>826.915</ele><time>2010-01-01T00:52:43Z</time></trkpt><trkpt lat="42.350709" lon="-3.794512"><ele>827.526</ele><time>2010-01-01T00:52:11Z</time></trkpt><trkpt lat="42.350782" lon="-3.791549"><ele>826.009</ele><time>2010-01-01T00:50:43Z</time></trkpt><trkpt lat="42.351013" lon="-3.788640"><ele>827.340</ele><time>2010-01-01T00:49:16Z</time></trkpt><trkpt lat="42.351787" lon="-3.786965"><ele>828.520</ele><time>2010-01-01T00:48:18Z</time></trkpt><trkpt lat="42.352140" lon="-3.786736"><ele>828.097</ele><time>2010-01-01T00:48:01Z</time></trkpt><trkpt lat="42.353089" lon="-3.786911"><ele>828.026</ele><time>2010-01-01T00:47:23Z</time></trkpt><trkpt lat="42.353347" lon="-3.786768"><ele>828.031</ele><time>2010-01-01T00:47:12Z</time></trkpt><trkpt lat="42.353186" lon="-3.786189"><ele>828.793</ele><time>2010-01-01T00:46:53Z</time></trkpt><trkpt lat="42.353107" lon="-3.785614"><ele>831.056</ele><time>2010-01-01T00:46:36Z</time></trkpt><trkpt lat="42.352261" lon="-3.784833"><ele>831.472</ele><time>2010-01-01T00:45:54Z</time></trkpt><trkpt lat="42.351442" lon="-3.784371"><ele>829.313</ele><time>2010-01-01T00:45:19Z</time></trkpt><trkpt lat="42.352248" lon="-3.781874"><ele>829.097</ele><time>2010-01-01T00:43:58Z</time></trkpt><trkpt lat="42.352399" lon="-3.779293"><ele>830.623</ele><time>2010-01-01T00:42:41Z</time></trkpt><trkpt lat="42.353097" lon="-3.777457"><ele>831.225</ele><time>2010-01-01T00:41:39Z</time></trkpt><trkpt lat="42.352555" lon="-3.777188"><ele>831.909</ele><time>2010-01-01T00:41:16Z</time></trkpt><trkpt lat="42.351838" lon="-3.771603"><ele>832.080</ele><time>2010-01-01T00:38:27Z</time></trkpt><trkpt lat="42.351534" lon="-3.770620"><ele>832.080</ele><time>2010-01-01T00:37:56Z</time></trkpt><trkpt lat="42.351207" lon="-3.769811"><ele>832.057</ele><time>2010-01-01T00:37:28Z</time></trkpt><trkpt lat="42.350647" lon="-3.767872"><ele>834.186</ele><time>2010-01-01T00:36:27Z</time></trkpt><trkpt lat="42.350364" lon="-3.767818"><ele>834.461</ele><time>2010-01-01T00:36:12Z</time></trkpt><trkpt lat="42.350283" lon="-3.767998"><ele>834.853</ele><time>2010-01-01T00:36:06Z</time></trkpt><trkpt lat="42.350127" lon="-3.768043"><ele>834.446</ele><time>2010-01-01T00:35:59Z</time></trkpt><trkpt lat="42.349375" lon="-3.766831"><ele>834.042</ele><time>2010-01-01T00:35:12Z</time></trkpt><trkpt lat="42.349043" lon="-3.765318"><ele>834.073</ele><time>2010-01-01T00:34:25Z</time></trkpt><trkpt lat="42.348413" lon="-3.763971"><ele>834.571</ele><time>2010-01-01T00:33:38Z</time></trkpt><trkpt lat="42.348248" lon="-3.758956"><ele>836.041</ele><time>2010-01-01T00:31:09Z</time></trkpt><trkpt lat="42.347634" lon="-3.756541"><ele>837.215</ele><time>2010-01-01T00:29:53Z</time></trkpt><trkpt lat="42.347488" lon="-3.755585"><ele>837.009</ele><time>2010-01-01T00:29:24Z</time></trkpt><trkpt lat="42.347313" lon="-3.754903"><ele>837.888</ele><time>2010-01-01T00:29:03Z</time></trkpt><trkpt lat="42.346658" lon="-3.753165"><ele>838.098</ele><time>2010-01-01T00:28:05Z</time></trkpt><trkpt lat="42.346462" lon="-3.751863"><ele>837.915</ele><time>2010-01-01T00:27:25Z</time></trkpt><trkpt lat="42.346173" lon="-3.751378"><ele>838.244</ele><time>2010-01-01T00:27:06Z</time></trkpt><trkpt lat="42.345553" lon="-3.750229"><ele>839.049</ele><time>2010-01-01T00:26:24Z</time></trkpt><trkpt lat="42.345416" lon="-3.749901"><ele>839.011</ele><time>2010-01-01T00:26:13Z</time></trkpt><trkpt lat="42.345281" lon="-3.749358"><ele>839.054</ele><time>2010-01-01T00:25:56Z</time></trkpt><trkpt lat="42.344990" lon="-3.748128"><ele>839.040</ele><time>2010-01-01T00:25:18Z</time></trkpt><trkpt lat="42.344446" lon="-3.746781"><ele>840.051</ele><time>2010-01-01T00:24:33Z</time></trkpt><trkpt lat="42.343823" lon="-3.745605"><ele>840.322</ele><time>2010-01-01T00:23:50Z</time></trkpt><trkpt lat="42.343697" lon="-3.745147"><ele>841.162</ele><time>2010-01-01T00:23:35Z</time></trkpt><trkpt lat="42.343664" lon="-3.742198"><ele>841.808</ele><time>2010-01-01T00:22:08Z</time></trkpt><trkpt lat="42.343759" lon="-3.740276"><ele>842.509</ele><time>2010-01-01T00:21:10Z</time></trkpt><trkpt lat="42.343476" lon="-3.738076"><ele>843.033</ele><time>2010-01-01T00:20:04Z</time></trkpt><trkpt lat="42.343098" lon="-3.736635"><ele>843.233</ele><time>2010-01-01T00:19:18Z</time></trkpt><trkpt lat="42.342724" lon="-3.736097"><ele>844.090</ele><time>2010-01-01T00:18:55Z</time></trkpt><trkpt lat="42.342637" lon="-3.735185"><ele>844.049</ele><time>2010-01-01T00:18:28Z</time></trkpt><trkpt lat="42.342449" lon="-3.733946"><ele>844.444</ele><time>2010-01-01T00:17:50Z</time></trkpt><trkpt lat="42.342276" lon="-3.733668"><ele>845.136</ele><time>2010-01-01T00:17:39Z</time></trkpt><trkpt lat="42.342403" lon="-3.732815"><ele>844.939</ele><time>2010-01-01T00:17:12Z</time></trkpt><trkpt lat="42.342144" lon="-3.730211"><ele>845.085</ele><time>2010-01-01T00:15:54Z</time></trkpt><trkpt lat="42.342077" lon="-3.729529"><ele>845.786</ele><time>2010-01-01T00:15:33Z</time></trkpt><trkpt lat="42.341783" lon="-3.729152"><ele>848.353</ele><time>2010-01-01T00:15:14Z</time></trkpt><trkpt lat="42.341958" lon="-3.728810"><ele>846.004</ele><time>2010-01-01T00:15:01Z</time></trkpt><trkpt lat="42.341886" lon="-3.727782"><ele>846.014</ele><time>2010-01-01T00:14:30Z</time></trkpt><trkpt lat="42.341457" lon="-3.723387"><ele>847.009</ele><time>2010-01-01T00:12:19Z</time></trkpt><trkpt lat="42.341379" lon="-3.722467"><ele>847.016</ele><time>2010-01-01T00:11:52Z</time></trkpt><trkpt lat="42.341220" lon="-3.721318"><ele>848.076</ele><time>2010-01-01T00:11:17Z</time></trkpt><trkpt lat="42.340948" lon="-3.719481"><ele>848.053</ele><time>2010-01-01T00:10:21Z</time></trkpt><trkpt lat="42.340708" lon="-3.718857"><ele>848.122</ele><time>2010-01-01T00:10:00Z</time></trkpt><trkpt lat="42.340479" lon="-3.718476"><ele>849.097</ele><time>2010-01-01T00:09:46Z</time></trkpt><trkpt lat="42.340261" lon="-3.718130"><ele>849.069</ele><time>2010-01-01T00:09:32Z</time></trkpt><trkpt lat="42.340352" lon="-3.718018"><ele>848.732</ele><time>2010-01-01T00:09:27Z</time></trkpt><trkpt lat="42.340406" lon="-3.717681"><ele>847.988</ele><time>2010-01-01T00:09:17Z</time></trkpt><trkpt lat="42.340781" lon="-3.717062"><ele>850.639</ele><time>2010-01-01T00:08:53Z</time></trkpt><trkpt lat="42.340749" lon="-3.716759"><ele>851.079</ele><time>2010-01-01T00:08:44Z</time></trkpt><trkpt lat="42.340837" lon="-3.716367"><ele>851.005</ele><time>2010-01-01T00:08:31Z</time></trkpt><trkpt lat="42.340896" lon="-3.716118"><ele>850.825</ele><time>2010-01-01T00:08:24Z</time></trkpt><trkpt lat="42.340584" lon="-3.715325"><ele>850.209</ele><time>2010-01-01T00:07:57Z</time></trkpt><trkpt lat="42.339444" lon="-3.712431"><ele>851.098</ele><time>2010-01-01T00:06:20Z</time></trkpt><trkpt lat="42.339509" lon="-3.712192"><ele>851.028</ele><time>2010-01-01T00:06:10Z</time></trkpt><trkpt lat="42.340407" lon="-3.711725"><ele>854.265</ele><time>2010-01-01T00:05:31Z</time></trkpt><trkpt lat="42.340649" lon="-3.711946"><ele>855.734</ele><time>2010-01-01T00:05:18Z</time></trkpt><trkpt lat="42.341018" lon="-3.711776"><ele>859.579</ele><time>2010-01-01T00:05:03Z</time></trkpt><trkpt lat="42.342043" lon="-3.711562"><ele>871.221</ele><time>2010-01-01T00:04:21Z</time></trkpt><trkpt lat="42.341313" lon="-3.710980"><ele>872.894</ele><time>2010-01-01T00:03:45Z</time></trkpt><trkpt lat="42.340820" lon="-3.710841"><ele>869.660</ele><time>2010-01-01T00:03:25Z</time></trkpt><trkpt lat="42.340542" lon="-3.710347"><ele>865.581</ele><time>2010-01-01T00:03:07Z</time></trkpt><trkpt lat="42.339674" lon="-3.706881"><ele>859.616</ele><time>2010-01-01T00:01:18Z</time></trkpt><trkpt lat="42.339715" lon="-3.706334"><ele>860.376</ele><time>2010-01-01T00:01:02Z</time></trkpt><trkpt lat="42.339831" lon="-3.705966"><ele>859.713</ele><time>2010-01-01T00:00:50Z</time></trkpt><trkpt lat="42.339720" lon="-3.705871"><ele>856.309</ele><time>2010-01-01T00:00:44Z</time></trkpt><trkpt lat="42.339890" lon="-3.704879"><ele>855.662</ele><time>2010-01-01T00:00:14Z</time></trkpt><trkpt lat="42.340114" lon="-3.704489"><ele>856.542</ele><time>2010-01-01T00:00:00Z</time></trkpt><trkpt lat="42.339726" lon="-3.703766"><ele>856.059</ele><time>2010-01-01T05:17:38Z</time></trkpt><trkpt lat="42.340837" lon="-3.700015"><ele>856.098</ele><time>2010-01-01T05:15:38Z</time></trkpt><trkpt lat="42.341177" lon="-3.698732"><ele>855.923</ele><time>2010-01-01T05:14:58Z</time></trkpt><trkpt lat="42.341393" lon="-3.697785"><ele>856.055</ele><time>2010-01-01T05:14:28Z</time></trkpt><trkpt lat="42.341630" lon="-3.696882"><ele>857.078</ele><time>2010-01-01T05:14:00Z</time></trkpt><trkpt lat="42.343669" lon="-3.687533"><ele>860.024</ele><time>2010-01-01T05:09:11Z</time></trkpt><trkpt lat="42.344094" lon="-3.685854"><ele>860.985</ele><time>2010-01-01T05:08:19Z</time></trkpt><trkpt lat="42.344771" lon="-3.684602"><ele>861.089</ele><time>2010-01-01T05:07:33Z</time></trkpt><trkpt lat="42.345536" lon="-3.683197"><ele>862.006</ele><time>2010-01-01T05:06:41Z</time></trkpt><trkpt lat="42.346983" lon="-3.680624"><ele>863.026</ele><time>2010-01-01T05:05:06Z</time></trkpt><trkpt lat="42.351255" lon="-3.672876"><ele>865.009</ele><time>2010-01-01T05:00:19Z</time></trkpt><trkpt lat="42.352252" lon="-3.671067"><ele>866.039</ele><time>2010-01-01T04:59:13Z</time></trkpt><trkpt lat="42.353031" lon="-3.669639"><ele>867.339</ele><time>2010-01-01T04:58:20Z</time></trkpt><trkpt lat="42.353330" lon="-3.669037"><ele>868.036</ele><time>2010-01-01T04:57:59Z</time></trkpt><trkpt lat="42.353519" lon="-3.668633"><ele>869.035</ele><time>2010-01-01T04:57:45Z</time></trkpt><trkpt lat="42.353702" lon="-3.668171"><ele>870.360</ele><time>2010-01-01T04:57:29Z</time></trkpt><trkpt lat="42.354087" lon="-3.666932"><ele>872.022</ele><time>2010-01-01T04:56:49Z</time></trkpt><trkpt lat="42.354580" lon="-3.665203"><ele>873.065</ele><time>2010-01-01T04:55:54Z</time></trkpt><trkpt lat="42.354788" lon="-3.664476"><ele>873.521</ele><time>2010-01-01T04:55:31Z</time></trkpt><trkpt lat="42.355071" lon="-3.663412"><ele>874.022</ele><time>2010-01-01T04:54:58Z</time></trkpt><trkpt lat="42.355324" lon="-3.663192"><ele>874.041</ele><time>2010-01-01T04:54:45Z</time></trkpt><trkpt lat="42.355483" lon="-3.663304"><ele>874.081</ele><time>2010-01-01T04:54:38Z</time></trkpt><trkpt lat="42.355532" lon="-3.663129"><ele>874.009</ele><time>2010-01-01T04:54:32Z</time></trkpt><trkpt lat="42.355443" lon="-3.663089"><ele>874.009</ele><time>2010-01-01T04:54:28Z</time></trkpt><trkpt lat="42.355448" lon="-3.662411"><ele>874.055</ele><time>2010-01-01T04:54:06Z</time></trkpt><trkpt lat="42.358030" lon="-3.653105"><ele>878.055</ele><time>2010-01-01T04:49:12Z</time></trkpt><trkpt lat="42.358434" lon="-3.651641"><ele>879.032</ele><time>2010-01-01T04:48:26Z</time></trkpt><trkpt lat="42.358626" lon="-3.651610"><ele>879.061</ele><time>2010-01-01T04:48:18Z</time></trkpt><trkpt lat="42.358679" lon="-3.651322"><ele>879.036</ele><time>2010-01-01T04:48:09Z</time></trkpt><trkpt lat="42.358517" lon="-3.651060"><ele>879.288</ele><time>2010-01-01T04:47:58Z</time></trkpt><trkpt lat="42.359409" lon="-3.647864"><ele>881.011</ele><time>2010-01-01T04:46:17Z</time></trkpt><trkpt lat="42.360582" lon="-3.642189"><ele>881.847</ele><time>2010-01-01T04:43:23Z</time></trkpt><trkpt lat="42.360660" lon="-3.641749"><ele>881.088</ele><time>2010-01-01T04:43:10Z</time></trkpt><trkpt lat="42.360733" lon="-3.641350"><ele>881.081</ele><time>2010-01-01T04:42:57Z</time></trkpt><trkpt lat="42.360787" lon="-3.641000"><ele>881.061</ele><time>2010-01-01T04:42:47Z</time></trkpt><trkpt lat="42.361134" lon="-3.640367"><ele>882.017</ele><time>2010-01-01T04:42:23Z</time></trkpt><trkpt lat="42.361342" lon="-3.640228"><ele>881.109</ele><time>2010-01-01T04:42:14Z</time></trkpt><trkpt lat="42.361471" lon="-3.639936"><ele>877.159</ele><time>2010-01-01T04:42:04Z</time></trkpt><trkpt lat="42.361460" lon="-3.639500"><ele>881.139</ele><time>2010-01-01T04:41:51Z</time></trkpt><trkpt lat="42.361253" lon="-3.639132"><ele>881.976</ele><time>2010-01-01T04:41:37Z</time></trkpt><trkpt lat="42.361226" lon="-3.638768"><ele>881.315</ele><time>2010-01-01T04:41:26Z</time></trkpt><trkpt lat="42.361630" lon="-3.636865"><ele>882.340</ele><time>2010-01-01T04:40:27Z</time></trkpt><trkpt lat="42.362444" lon="-3.632515"><ele>887.072</ele><time>2010-01-01T04:38:14Z</time></trkpt><trkpt lat="42.362770" lon="-3.630791"><ele>887.135</ele><time>2010-01-01T04:37:22Z</time></trkpt><trkpt lat="42.363719" lon="-3.626185"><ele>890.051</ele><time>2010-01-01T04:34:59Z</time></trkpt><trkpt lat="42.364632" lon="-3.621471"><ele>891.522</ele><time>2010-01-01T04:32:33Z</time></trkpt><trkpt lat="42.364686" lon="-3.621381"><ele>891.137</ele><time>2010-01-01T04:32:30Z</time></trkpt><trkpt lat="42.364565" lon="-3.621094"><ele>891.549</ele><time>2010-01-01T04:32:19Z</time></trkpt><trkpt lat="42.364422" lon="-3.621157"><ele>892.113</ele><time>2010-01-01T04:32:13Z</time></trkpt><trkpt lat="42.364317" lon="-3.620991"><ele>892.309</ele><time>2010-01-01T04:32:06Z</time></trkpt><trkpt lat="42.364333" lon="-3.620735"><ele>892.114</ele><time>2010-01-01T04:31:58Z</time></trkpt><trkpt lat="42.364508" lon="-3.620555"><ele>891.544</ele><time>2010-01-01T04:31:49Z</time></trkpt><trkpt lat="42.364231" lon="-3.617161"><ele>893.891</ele><time>2010-01-01T04:30:08Z</time></trkpt><trkpt lat="42.363956" lon="-3.616528"><ele>895.920</ele><time>2010-01-01T04:29:46Z</time></trkpt><trkpt lat="42.363592" lon="-3.616250"><ele>894.665</ele><time>2010-01-01T04:29:29Z</time></trkpt><trkpt lat="42.362905" lon="-3.615729"><ele>896.837</ele><time>2010-01-01T04:28:57Z</time></trkpt><trkpt lat="42.362872" lon="-3.615478"><ele>896.780</ele><time>2010-01-01T04:28:50Z</time></trkpt><trkpt lat="42.363155" lon="-3.615074"><ele>896.586</ele><time>2010-01-01T04:28:33Z</time></trkpt><trkpt lat="42.363635" lon="-3.614620"><ele>894.927</ele><time>2010-01-01T04:28:09Z</time></trkpt><trkpt lat="42.363789" lon="-3.614450"><ele>893.752</ele><time>2010-01-01T04:28:01Z</time></trkpt><trkpt lat="42.363937" lon="-3.614189"><ele>893.653</ele><time>2010-01-01T04:27:51Z</time></trkpt><trkpt lat="42.364333" lon="-3.612438"><ele>893.408</ele><time>2010-01-01T04:26:57Z</time></trkpt><trkpt lat="42.364285" lon="-3.611765"><ele>893.609</ele><time>2010-01-01T04:26:37Z</time></trkpt><trkpt lat="42.364155" lon="-3.611096"><ele>894.066</ele><time>2010-01-01T04:26:16Z</time></trkpt><trkpt lat="42.363856" lon="-3.609862"><ele>896.086</ele><time>2010-01-01T04:25:38Z</time></trkpt><trkpt lat="42.363897" lon="-3.609188"><ele>896.043</ele><time>2010-01-01T04:25:18Z</time></trkpt><trkpt lat="42.364180" lon="-3.608501"><ele>896.012</ele><time>2010-01-01T04:24:54Z</time></trkpt><trkpt lat="42.367346" lon="-3.604456"><ele>894.067</ele><time>2010-01-01T04:22:00Z</time></trkpt><trkpt lat="42.367516" lon="-3.603689"><ele>894.269</ele><time>2010-01-01T04:21:36Z</time></trkpt><trkpt lat="42.367298" lon="-3.602688"><ele>894.412</ele><time>2010-01-01T04:21:05Z</time></trkpt><trkpt lat="42.366718" lon="-3.601866"><ele>895.848</ele><time>2010-01-01T04:20:31Z</time></trkpt><trkpt lat="42.366384" lon="-3.601543"><ele>897.089</ele><time>2010-01-01T04:20:15Z</time></trkpt><trkpt lat="42.365823" lon="-3.601390"><ele>897.024</ele><time>2010-01-01T04:19:52Z</time></trkpt><trkpt lat="42.364613" lon="-3.601745"><ele>898.304</ele><time>2010-01-01T04:19:02Z</time></trkpt><trkpt lat="42.364266" lon="-3.601547"><ele>898.814</ele><time>2010-01-01T04:18:47Z</time></trkpt><trkpt lat="42.363813" lon="-3.601058"><ele>900.109</ele><time>2010-01-01T04:18:23Z</time></trkpt><trkpt lat="42.363454" lon="-3.600254"><ele>902.153</ele><time>2010-01-01T04:17:55Z</time></trkpt><trkpt lat="42.363158" lon="-3.598490"><ele>900.273</ele><time>2010-01-01T04:17:02Z</time></trkpt><trkpt lat="42.362886" lon="-3.597664"><ele>898.650</ele><time>2010-01-01T04:16:35Z</time></trkpt><trkpt lat="42.362242" lon="-3.596155"><ele>907.139</ele><time>2010-01-01T04:15:43Z</time></trkpt><trkpt lat="42.362096" lon="-3.595464"><ele>907.174</ele><time>2010-01-01T04:15:22Z</time></trkpt><trkpt lat="42.362139" lon="-3.594692"><ele>907.156</ele><time>2010-01-01T04:14:59Z</time></trkpt><trkpt lat="42.362013" lon="-3.593821"><ele>907.359</ele><time>2010-01-01T04:14:32Z</time></trkpt><trkpt lat="42.361465" lon="-3.592806"><ele>907.225</ele><time>2010-01-01T04:13:55Z</time></trkpt><trkpt lat="42.361158" lon="-3.591998"><ele>903.966</ele><time>2010-01-01T04:13:28Z</time></trkpt><trkpt lat="42.361080" lon="-3.591213"><ele>902.059</ele><time>2010-01-01T04:13:05Z</time></trkpt><trkpt lat="42.361010" lon="-3.590571"><ele>902.003</ele><time>2010-01-01T04:12:45Z</time></trkpt><trkpt lat="42.360231" lon="-3.587491"><ele>904.023</ele><time>2010-01-01T04:11:09Z</time></trkpt><trkpt lat="42.360107" lon="-3.585799"><ele>906.609</ele><time>2010-01-01T04:10:19Z</time></trkpt><trkpt lat="42.359972" lon="-3.585026"><ele>905.956</ele><time>2010-01-01T04:09:55Z</time></trkpt><trkpt lat="42.360255" lon="-3.584196"><ele>907.956</ele><time>2010-01-01T04:09:28Z</time></trkpt><trkpt lat="42.360404" lon="-3.583509"><ele>909.613</ele><time>2010-01-01T04:09:07Z</time></trkpt><trkpt lat="42.360282" lon="-3.582737"><ele>910.012</ele><time>2010-01-01T04:08:43Z</time></trkpt><trkpt lat="42.359789" lon="-3.581565"><ele>908.417</ele><time>2010-01-01T04:08:02Z</time></trkpt><trkpt lat="42.359611" lon="-3.579051"><ele>909.079</ele><time>2010-01-01T04:06:47Z</time></trkpt><trkpt lat="42.359584" lon="-3.578198"><ele>909.542</ele><time>2010-01-01T04:06:22Z</time></trkpt><trkpt lat="42.359485" lon="-3.576959"><ele>910.198</ele><time>2010-01-01T04:05:45Z</time></trkpt><trkpt lat="42.359673" lon="-3.575787"><ele>911.899</ele><time>2010-01-01T04:05:10Z</time></trkpt><trkpt lat="42.359574" lon="-3.573637"><ele>912.442</ele><time>2010-01-01T04:04:06Z</time></trkpt><trkpt lat="42.359188" lon="-3.571464"><ele>913.022</ele><time>2010-01-01T04:03:00Z</time></trkpt><trkpt lat="42.359099" lon="-3.570548"><ele>913.814</ele><time>2010-01-01T04:02:32Z</time></trkpt><trkpt lat="42.358935" lon="-3.569489"><ele>914.909</ele><time>2010-01-01T04:02:00Z</time></trkpt><trkpt lat="42.358474" lon="-3.567675"><ele>915.555</ele><time>2010-01-01T04:01:03Z</time></trkpt><trkpt lat="42.358490" lon="-3.566705"><ele>915.965</ele><time>2010-01-01T04:00:34Z</time></trkpt><trkpt lat="42.358754" lon="-3.564986"><ele>918.182</ele><time>2010-01-01T03:59:42Z</time></trkpt><trkpt lat="42.358682" lon="-3.563769"><ele>919.661</ele><time>2010-01-01T03:59:05Z</time></trkpt><trkpt lat="42.358474" lon="-3.562202"><ele>920.056</ele><time>2010-01-01T03:58:18Z</time></trkpt><trkpt lat="42.359013" lon="-3.560470"><ele>922.658</ele><time>2010-01-01T03:57:22Z</time></trkpt><trkpt lat="42.359269" lon="-3.559886"><ele>922.521</ele><time>2010-01-01T03:57:02Z</time></trkpt><trkpt lat="42.359972" lon="-3.558149"><ele>924.227</ele><time>2010-01-01T03:56:02Z</time></trkpt><trkpt lat="42.360282" lon="-3.557161"><ele>924.058</ele><time>2010-01-01T03:55:30Z</time></trkpt><trkpt lat="42.361684" lon="-3.555715"><ele>926.073</ele><time>2010-01-01T03:54:19Z</time></trkpt><trkpt lat="42.362878" lon="-3.555424"><ele>927.285</ele><time>2010-01-01T03:53:31Z</time></trkpt><trkpt lat="42.363438" lon="-3.555787"><ele>928.913</ele><time>2010-01-01T03:53:05Z</time></trkpt><trkpt lat="42.364427" lon="-3.556802"><ele>931.009</ele><time>2010-01-01T03:52:16Z</time></trkpt><trkpt lat="42.365368" lon="-3.557363"><ele>933.218</ele><time>2010-01-01T03:51:34Z</time></trkpt><trkpt lat="42.366745" lon="-3.557489"><ele>936.088</ele><time>2010-01-01T03:50:39Z</time></trkpt><trkpt lat="42.366920" lon="-3.557484"><ele>935.965</ele><time>2010-01-01T03:50:32Z</time></trkpt><trkpt lat="42.367645" lon="-3.557224"><ele>938.044</ele><time>2010-01-01T03:50:02Z</time></trkpt><trkpt lat="42.368507" lon="-3.556030"><ele>940.259</ele><time>2010-01-01T03:49:12Z</time></trkpt><trkpt lat="42.368842" lon="-3.555397"><ele>942.151</ele><time>2010-01-01T03:48:49Z</time></trkpt><trkpt lat="42.368885" lon="-3.555177"><ele>942.044</ele><time>2010-01-01T03:48:43Z</time></trkpt><trkpt lat="42.369386" lon="-3.554234"><ele>949.570</ele><time>2010-01-01T03:48:08Z</time></trkpt><trkpt lat="42.369726" lon="-3.554306"><ele>955.161</ele><time>2010-01-01T03:47:54Z</time></trkpt><trkpt lat="42.370410" lon="-3.554620"><ele>959.624</ele><time>2010-01-01T03:47:24Z</time></trkpt><trkpt lat="42.371159" lon="-3.554243"><ele>964.804</ele><time>2010-01-01T03:46:52Z</time></trkpt><trkpt lat="42.371968" lon="-3.553830"><ele>971.814</ele><time>2010-01-01T03:46:17Z</time></trkpt><trkpt lat="42.373868" lon="-3.554166"><ele>983.809</ele><time>2010-01-01T03:45:00Z</time></trkpt><trkpt lat="42.373876" lon="-3.555932"><ele>985.683</ele><time>2010-01-01T03:44:07Z</time></trkpt><trkpt lat="42.374113" lon="-3.556574"><ele>985.093</ele><time>2010-01-01T03:43:46Z</time></trkpt><trkpt lat="42.374518" lon="-3.557077"><ele>985.160</ele><time>2010-01-01T03:43:24Z</time></trkpt><trkpt lat="42.375423" lon="-3.557751"><ele>987.569</ele><time>2010-01-01T03:42:42Z</time></trkpt><trkpt lat="42.375666" lon="-3.557822"><ele>987.884</ele><time>2010-01-01T03:42:32Z</time></trkpt><trkpt lat="42.378372" lon="-3.558523"><ele>982.296</ele><time>2010-01-01T03:40:42Z</time></trkpt><trkpt lat="42.378671" lon="-3.558922"><ele>982.139</ele><time>2010-01-01T03:40:25Z</time></trkpt><trkpt lat="42.379037" lon="-3.559596"><ele>981.045</ele><time>2010-01-01T03:40:00Z</time></trkpt><trkpt lat="42.380449" lon="-3.561140"><ele>982.526</ele><time>2010-01-01T03:38:47Z</time></trkpt><trkpt lat="42.382033" lon="-3.558883"><ele>1003.018</ele><time>2010-01-01T03:37:14Z</time></trkpt><trkpt lat="42.382162" lon="-3.558353"><ele>1008.898</ele><time>2010-01-01T03:36:57Z</time></trkpt><trkpt lat="42.382464" lon="-3.559038"><ele>1008.717</ele><time>2010-01-01T03:36:34Z</time></trkpt><trkpt lat="42.382882" lon="-3.559879"><ele>1005.709</ele><time>2010-01-01T03:36:04Z</time></trkpt><trkpt lat="42.383375" lon="-3.560259"><ele>1008.772</ele><time>2010-01-01T03:35:41Z</time></trkpt><trkpt lat="42.383608" lon="-3.560496"><ele>1008.622</ele><time>2010-01-01T03:35:29Z</time></trkpt><trkpt lat="42.383863" lon="-3.560660"><ele>1009.669</ele><time>2010-01-01T03:35:18Z</time></trkpt><trkpt lat="42.384009" lon="-3.560753"><ele>1009.788</ele><time>2010-01-01T03:35:11Z</time></trkpt><trkpt lat="42.384702" lon="-3.561268"><ele>1005.993</ele><time>2010-01-01T03:34:39Z</time></trkpt><trkpt lat="42.385044" lon="-3.561445"><ele>1002.065</ele><time>2010-01-01T03:34:24Z</time></trkpt><trkpt lat="42.385042" lon="-3.560876"><ele>1008.468</ele><time>2010-01-01T03:34:07Z</time></trkpt><trkpt lat="42.385277" lon="-3.560394"><ele>1012.234</ele><time>2010-01-01T03:33:50Z</time></trkpt><trkpt lat="42.385443" lon="-3.559431"><ele>1013.725</ele><time>2010-01-01T03:33:20Z</time></trkpt><trkpt lat="42.385558" lon="-3.559221"><ele>1014.884</ele><time>2010-01-01T03:33:12Z</time></trkpt><trkpt lat="42.385850" lon="-3.558817"><ele>1014.307</ele><time>2010-01-01T03:32:55Z</time></trkpt><trkpt lat="42.386174" lon="-3.558410"><ele>1008.517</ele><time>2010-01-01T03:32:37Z</time></trkpt><trkpt lat="42.386262" lon="-3.558221"><ele>1005.709</ele><time>2010-01-01T03:32:31Z</time></trkpt><trkpt lat="42.386289" lon="-3.557410"><ele>997.989</ele><time>2010-01-01T03:32:07Z</time></trkpt><trkpt lat="42.385962" lon="-3.556668"><ele>993.559</ele><time>2010-01-01T03:31:41Z</time></trkpt><trkpt lat="42.385980" lon="-3.556423"><ele>991.796</ele><time>2010-01-01T03:31:34Z</time></trkpt><trkpt lat="42.386323" lon="-3.555312"><ele>986.465</ele><time>2010-01-01T03:30:58Z</time></trkpt><trkpt lat="42.386246" lon="-3.555151"><ele>986.160</ele><time>2010-01-01T03:30:52Z</time></trkpt><trkpt lat="42.386500" lon="-3.553755"><ele>984.222</ele><time>2010-01-01T03:30:10Z</time></trkpt><trkpt lat="42.386045" lon="-3.551218"><ele>991.995</ele><time>2010-01-01T03:28:52Z</time></trkpt><trkpt lat="42.385902" lon="-3.550518"><ele>994.451</ele><time>2010-01-01T03:28:30Z</time></trkpt><trkpt lat="42.385859" lon="-3.549243"><ele>1002.692</ele><time>2010-01-01T03:27:52Z</time></trkpt><trkpt lat="42.385786" lon="-3.548542"><ele>1006.616</ele><time>2010-01-01T03:27:31Z</time></trkpt><trkpt lat="42.385999" lon="-3.547811"><ele>1014.676</ele><time>2010-01-01T03:27:08Z</time></trkpt><trkpt lat="42.386258" lon="-3.546715"><ele>1007.313</ele><time>2010-01-01T03:26:34Z</time></trkpt><trkpt lat="42.386460" lon="-3.545054"><ele>995.609</ele><time>2010-01-01T03:25:44Z</time></trkpt><trkpt lat="42.386791" lon="-3.544681"><ele>994.022</ele><time>2010-01-01T03:25:26Z</time></trkpt><trkpt lat="42.387045" lon="-3.544426"><ele>989.762</ele><time>2010-01-01T03:25:14Z</time></trkpt><trkpt lat="42.387533" lon="-3.544322"><ele>985.559</ele><time>2010-01-01T03:24:53Z</time></trkpt><trkpt lat="42.388274" lon="-3.544098"><ele>975.858</ele><time>2010-01-01T03:24:22Z</time></trkpt><trkpt lat="42.388495" lon="-3.543635"><ele>974.043</ele><time>2010-01-01T03:24:06Z</time></trkpt><trkpt lat="42.389982" lon="-3.542657"><ele>965.545</ele><time>2010-01-01T03:22:58Z</time></trkpt><trkpt lat="42.390535" lon="-3.542100"><ele>962.978</ele><time>2010-01-01T03:22:31Z</time></trkpt><trkpt lat="42.390729" lon="-3.541718"><ele>961.564</ele><time>2010-01-01T03:22:17Z</time></trkpt><trkpt lat="42.391214" lon="-3.541130"><ele>956.185</ele><time>2010-01-01T03:21:51Z</time></trkpt><trkpt lat="42.391677" lon="-3.540924"><ele>952.046</ele><time>2010-01-01T03:21:31Z</time></trkpt><trkpt lat="42.392055" lon="-3.540448"><ele>951.188</ele><time>2010-01-01T03:21:10Z</time></trkpt><trkpt lat="42.392437" lon="-3.540304"><ele>948.016</ele><time>2010-01-01T03:20:54Z</time></trkpt><trkpt lat="42.392890" lon="-3.540474"><ele>943.709</ele><time>2010-01-01T03:20:35Z</time></trkpt><trkpt lat="42.393082" lon="-3.540439"><ele>941.375</ele><time>2010-01-01T03:20:27Z</time></trkpt><trkpt lat="42.393893" lon="-3.539478"><ele>934.115</ele><time>2010-01-01T03:19:44Z</time></trkpt><trkpt lat="42.394006" lon="-3.539164"><ele>933.662</ele><time>2010-01-01T03:19:33Z</time></trkpt><trkpt lat="42.393734" lon="-3.538158"><ele>932.951</ele><time>2010-01-01T03:19:02Z</time></trkpt><trkpt lat="42.393588" lon="-3.536461"><ele>932.396</ele><time>2010-01-01T03:18:11Z</time></trkpt><trkpt lat="42.393343" lon="-3.534405"><ele>934.988</ele><time>2010-01-01T03:17:09Z</time></trkpt><trkpt lat="42.392518" lon="-3.532766"><ele>941.811</ele><time>2010-01-01T03:16:10Z</time></trkpt><trkpt lat="42.391947" lon="-3.532119"><ele>941.077</ele><time>2010-01-01T03:15:40Z</time></trkpt><trkpt lat="42.390681" lon="-3.531133"><ele>942.618</ele><time>2010-01-01T03:14:41Z</time></trkpt><trkpt lat="42.389010" lon="-3.526320"><ele>949.186</ele><time>2010-01-01T03:12:04Z</time></trkpt><trkpt lat="42.387355" lon="-3.523087"><ele>952.260</ele><time>2010-01-01T03:10:07Z</time></trkpt><trkpt lat="42.386356" lon="-3.522099"><ele>950.326</ele><time>2010-01-01T03:09:18Z</time></trkpt><trkpt lat="42.384782" lon="-3.519792"><ele>954.009</ele><time>2010-01-01T03:07:45Z</time></trkpt><trkpt lat="42.383989" lon="-3.518678"><ele>955.829</ele><time>2010-01-01T03:06:59Z</time></trkpt><trkpt lat="42.383475" lon="-3.518140"><ele>954.779</ele><time>2010-01-01T03:06:33Z</time></trkpt><trkpt lat="42.382831" lon="-3.517462"><ele>954.276</ele><time>2010-01-01T03:06:00Z</time></trkpt><trkpt lat="42.380273" lon="-3.514709"><ele>955.085</ele><time>2010-01-01T03:03:50Z</time></trkpt><trkpt lat="42.379742" lon="-3.514135"><ele>957.440</ele><time>2010-01-01T03:03:22Z</time></trkpt><trkpt lat="42.379295" lon="-3.512833"><ele>953.742</ele><time>2010-01-01T03:02:40Z</time></trkpt><trkpt lat="42.377845" lon="-3.509995"><ele>952.035</ele><time>2010-01-01T03:00:57Z</time></trkpt><trkpt lat="42.377684" lon="-3.509699"><ele>952.151</ele><time>2010-01-01T03:00:46Z</time></trkpt><trkpt lat="42.376671" lon="-3.508065"><ele>953.022</ele><time>2010-01-01T02:59:43Z</time></trkpt><trkpt lat="42.375382" lon="-3.505735"><ele>954.068</ele><time>2010-01-01T02:58:17Z</time></trkpt><trkpt lat="42.375291" lon="-3.505551"><ele>953.942</ele><time>2010-01-01T02:58:11Z</time></trkpt><trkpt lat="42.375226" lon="-3.505363"><ele>953.626</ele><time>2010-01-01T02:58:04Z</time></trkpt><trkpt lat="42.375099" lon="-3.505049"><ele>953.809</ele><time>2010-01-01T02:57:54Z</time></trkpt><trkpt lat="42.374170" lon="-3.502045"><ele>954.017</ele><time>2010-01-01T02:56:17Z</time></trkpt><trkpt lat="42.373994" lon="-3.501358"><ele>954.297</ele><time>2010-01-01T02:55:56Z</time></trkpt><trkpt lat="42.371715" lon="-3.489170"><ele>948.814</ele><time>2010-01-01T02:49:44Z</time></trkpt><trkpt lat="42.371620" lon="-3.484240"><ele>949.453</ele><time>2010-01-01T02:47:18Z</time></trkpt><trkpt lat="42.371413" lon="-3.483500"><ele>950.428</ele><time>2010-01-01T02:46:54Z</time></trkpt><trkpt lat="42.370289" lon="-3.480573"><ele>964.090</ele><time>2010-01-01T02:45:17Z</time></trkpt><trkpt lat="42.370216" lon="-3.480151"><ele>965.753</ele><time>2010-01-01T02:45:04Z</time></trkpt><trkpt lat="42.370278" lon="-3.479612"><ele>967.069</ele><time>2010-01-01T02:44:47Z</time></trkpt><trkpt lat="42.369979" lon="-3.479163"><ele>967.170</ele><time>2010-01-01T02:44:29Z</time></trkpt><trkpt lat="42.369745" lon="-3.478377"><ele>965.239</ele><time>2010-01-01T02:44:04Z</time></trkpt><trkpt lat="42.369842" lon="-3.477587"><ele>963.701</ele><time>2010-01-01T02:43:40Z</time></trkpt><trkpt lat="42.370208" lon="-3.476487"><ele>964.621</ele><time>2010-01-01T02:43:04Z</time></trkpt><trkpt lat="42.372022" lon="-3.473309"><ele>986.609</ele><time>2010-01-01T02:41:05Z</time></trkpt><trkpt lat="42.372359" lon="-3.471405"><ele>996.584</ele><time>2010-01-01T02:40:07Z</time></trkpt><trkpt lat="42.372337" lon="-3.470849"><ele>997.414</ele><time>2010-01-01T02:39:51Z</time></trkpt><trkpt lat="42.372124" lon="-3.469551"><ele>996.871</ele><time>2010-01-01T02:39:11Z</time></trkpt><trkpt lat="42.372197" lon="-3.468900"><ele>998.090</ele><time>2010-01-01T02:38:51Z</time></trkpt><trkpt lat="42.372272" lon="-3.468326"><ele>1000.325</ele><time>2010-01-01T02:38:34Z</time></trkpt><trkpt lat="42.372146" lon="-3.467562"><ele>1000.447</ele><time>2010-01-01T02:38:11Z</time></trkpt><trkpt lat="42.371828" lon="-3.465044"><ele>998.840</ele><time>2010-01-01T02:36:55Z</time></trkpt><trkpt lat="42.371898" lon="-3.463778"><ele>1000.286</ele><time>2010-01-01T02:36:18Z</time></trkpt><trkpt lat="42.371933" lon="-3.463163"><ele>1000.747</ele><time>2010-01-01T02:35:59Z</time></trkpt><trkpt lat="42.372213" lon="-3.461574"><ele>1001.265</ele><time>2010-01-01T02:35:11Z</time></trkpt><trkpt lat="42.372609" lon="-3.460555"><ele>1003.068</ele><time>2010-01-01T02:34:37Z</time></trkpt><trkpt lat="42.372693" lon="-3.460317"><ele>1003.314</ele><time>2010-01-01T02:34:29Z</time></trkpt><trkpt lat="42.372949" lon="-3.459571"><ele>1004.009</ele><time>2010-01-01T02:34:05Z</time></trkpt><trkpt lat="42.373297" lon="-3.458463"><ele>1005.187</ele><time>2010-01-01T02:33:29Z</time></trkpt><trkpt lat="42.373714" lon="-3.456469"><ele>1007.327</ele><time>2010-01-01T02:32:28Z</time></trkpt><trkpt lat="42.373903" lon="-3.455396"><ele>1008.944</ele><time>2010-01-01T02:31:55Z</time></trkpt><trkpt lat="42.374207" lon="-3.454498"><ele>1009.743</ele><time>2010-01-01T02:31:26Z</time></trkpt><trkpt lat="42.374207" lon="-3.453295"><ele>1011.758</ele><time>2010-01-01T02:30:50Z</time></trkpt><trkpt lat="42.374288" lon="-3.452685"><ele>1011.870</ele><time>2010-01-01T02:30:32Z</time></trkpt><trkpt lat="42.374385" lon="-3.452559"><ele>1011.443</ele><time>2010-01-01T02:30:26Z</time></trkpt><trkpt lat="42.374523" lon="-3.452101"><ele>1011.749</ele><time>2010-01-01T02:30:11Z</time></trkpt><trkpt lat="42.374550" lon="-3.450831"><ele>1013.240</ele><time>2010-01-01T02:29:33Z</time></trkpt><trkpt lat="42.374601" lon="-3.450498"><ele>1013.075</ele><time>2010-01-01T02:29:23Z</time></trkpt><trkpt lat="42.374671" lon="-3.448483"><ele>1013.228</ele><time>2010-01-01T02:28:24Z</time></trkpt><trkpt lat="42.375054" lon="-3.446332"><ele>1013.820</ele><time>2010-01-01T02:27:18Z</time></trkpt><trkpt lat="42.375374" lon="-3.444568"><ele>1010.909</ele><time>2010-01-01T02:26:24Z</time></trkpt><trkpt lat="42.375568" lon="-3.444110"><ele>1010.048</ele><time>2010-01-01T02:26:09Z</time></trkpt><trkpt lat="42.375803" lon="-3.443046"><ele>1008.238</ele><time>2010-01-01T02:25:36Z</time></trkpt><trkpt lat="42.375849" lon="-3.442422"><ele>1006.685</ele><time>2010-01-01T02:25:17Z</time></trkpt><trkpt lat="42.375983" lon="-3.441313"><ele>1004.894</ele><time>2010-01-01T02:24:44Z</time></trkpt><trkpt lat="42.376045" lon="-3.441322"><ele>1004.459</ele><time>2010-01-01T02:24:41Z</time></trkpt><trkpt lat="42.376285" lon="-3.441116"><ele>1002.791</ele><time>2010-01-01T02:24:29Z</time></trkpt><trkpt lat="42.376328" lon="-3.440667"><ele>1000.474</ele><time>2010-01-01T02:24:16Z</time></trkpt><trkpt lat="42.375684" lon="-3.436649"><ele>1004.570</ele><time>2010-01-01T02:22:14Z</time></trkpt><trkpt lat="42.375738" lon="-3.436308"><ele>1004.571</ele><time>2010-01-01T02:22:04Z</time></trkpt><trkpt lat="42.376091" lon="-3.433843"><ele>1006.262</ele><time>2010-01-01T02:20:49Z</time></trkpt><trkpt lat="42.376285" lon="-3.433645"><ele>1006.383</ele><time>2010-01-01T02:20:39Z</time></trkpt><trkpt lat="42.376606" lon="-3.433255"><ele>1003.611</ele><time>2010-01-01T02:20:21Z</time></trkpt><trkpt lat="42.376986" lon="-3.432056"><ele>1004.209</ele><time>2010-01-01T02:19:42Z</time></trkpt><trkpt lat="42.377441" lon="-3.429322"><ele>1011.037</ele><time>2010-01-01T02:18:19Z</time></trkpt><trkpt lat="42.377398" lon="-3.426103"><ele>1016.697</ele><time>2010-01-01T02:16:44Z</time></trkpt><trkpt lat="42.377563" lon="-3.424981"><ele>1019.534</ele><time>2010-01-01T02:16:10Z</time></trkpt><trkpt lat="42.377665" lon="-3.424222"><ele>1023.533</ele><time>2010-01-01T02:15:47Z</time></trkpt><trkpt lat="42.377657" lon="-3.423491"><ele>1028.338</ele><time>2010-01-01T02:15:25Z</time></trkpt><trkpt lat="42.377767" lon="-3.422763"><ele>1033.080</ele><time>2010-01-01T02:15:03Z</time></trkpt><trkpt lat="42.377724" lon="-3.422413"><ele>1035.183</ele><time>2010-01-01T02:14:53Z</time></trkpt><trkpt lat="42.377622" lon="-3.421636"><ele>1037.789</ele><time>2010-01-01T02:14:29Z</time></trkpt><trkpt lat="42.377835" lon="-3.419208"><ele>1049.210</ele><time>2010-01-01T02:13:16Z</time></trkpt><trkpt lat="42.377980" lon="-3.418606"><ele>1048.649</ele><time>2010-01-01T02:12:58Z</time></trkpt><trkpt lat="42.377873" lon="-3.416739"><ele>1053.002</ele><time>2010-01-01T02:12:02Z</time></trkpt><trkpt lat="42.377414" lon="-3.413906"><ele>1056.022</ele><time>2010-01-01T02:10:36Z</time></trkpt><trkpt lat="42.377277" lon="-3.412748"><ele>1057.609</ele><time>2010-01-01T02:10:02Z</time></trkpt><trkpt lat="42.377290" lon="-3.410148"><ele>1068.965</ele><time>2010-01-01T02:08:45Z</time></trkpt><trkpt lat="42.376883" lon="-3.407939"><ele>1077.375</ele><time>2010-01-01T02:07:37Z</time></trkpt><trkpt lat="42.376754" lon="-3.407069"><ele>1078.672</ele><time>2010-01-01T02:07:11Z</time></trkpt><trkpt lat="42.374913" lon="-3.396626"><ele>1092.021</ele><time>2010-01-01T02:01:54Z</time></trkpt><trkpt lat="42.374334" lon="-3.394382"><ele>1094.196</ele><time>2010-01-01T02:00:43Z</time></trkpt><trkpt lat="42.374094" lon="-3.391612"><ele>1096.728</ele><time>2010-01-01T01:59:21Z</time></trkpt><trkpt lat="42.372256" lon="-3.386144"><ele>1112.971</ele><time>2010-01-01T01:56:23Z</time></trkpt><trkpt lat="42.371879" lon="-3.384990"><ele>1114.017</ele><time>2010-01-01T01:55:46Z</time></trkpt><trkpt lat="42.371504" lon="-3.383823"><ele>1114.648</ele><time>2010-01-01T01:55:08Z</time></trkpt><trkpt lat="42.370798" lon="-3.381942"><ele>1117.156</ele><time>2010-01-01T01:54:05Z</time></trkpt><trkpt lat="42.370534" lon="-3.381116"><ele>1120.059</ele><time>2010-01-01T01:53:39Z</time></trkpt><trkpt lat="42.370259" lon="-3.380029"><ele>1122.914</ele><time>2010-01-01T01:53:05Z</time></trkpt><trkpt lat="42.370019" lon="-3.379257"><ele>1125.009</ele><time>2010-01-01T01:52:40Z</time></trkpt><trkpt lat="42.369513" lon="-3.374611"><ele>1130.186</ele><time>2010-01-01T01:50:21Z</time></trkpt><trkpt lat="42.369025" lon="-3.373039"><ele>1132.526</ele><time>2010-01-01T01:49:30Z</time></trkpt><trkpt lat="42.368753" lon="-3.371145"><ele>1134.583</ele><time>2010-01-01T01:48:33Z</time></trkpt><trkpt lat="42.367764" lon="-3.369012"><ele>1139.622</ele><time>2010-01-01T01:47:19Z</time></trkpt><trkpt lat="42.366909" lon="-3.367634"><ele>1141.237</ele><time>2010-01-01T01:46:25Z</time></trkpt><trkpt lat="42.366206" lon="-3.364523"><ele>1146.249</ele><time>2010-01-01T01:44:49Z</time></trkpt><trkpt lat="42.365988" lon="-3.357529"><ele>1156.022</ele><time>2010-01-01T01:41:21Z</time></trkpt><trkpt lat="42.366265" lon="-3.355899"><ele>1155.178</ele><time>2010-01-01T01:40:31Z</time></trkpt><trkpt lat="42.366419" lon="-3.354772"><ele>1149.659</ele><time>2010-01-01T01:39:57Z</time></trkpt><trkpt lat="42.366389" lon="-3.354117"><ele>1147.056</ele><time>2010-01-01T01:39:38Z</time></trkpt><trkpt lat="42.366556" lon="-3.353407"><ele>1148.059</ele><time>2010-01-01T01:39:16Z</time></trkpt><trkpt lat="42.367634" lon="-3.351082"><ele>1150.814</ele><time>2010-01-01T01:37:55Z</time></trkpt><trkpt lat="42.368157" lon="-3.349825"><ele>1139.509</ele><time>2010-01-01T01:37:12Z</time></trkpt><trkpt lat="42.369136" lon="-3.348676"><ele>1126.696</ele><time>2010-01-01T01:36:20Z</time></trkpt><trkpt lat="42.369925" lon="-3.348249"><ele>1122.396</ele><time>2010-01-01T01:35:46Z</time></trkpt><trkpt lat="42.370337" lon="-3.347589"><ele>1122.233</ele><time>2010-01-01T01:35:20Z</time></trkpt><trkpt lat="42.370642" lon="-3.346947"><ele>1121.132</ele><time>2010-01-01T01:34:57Z</time></trkpt><trkpt lat="42.371273" lon="-3.345443"><ele>1111.087</ele><time>2010-01-01T01:34:06Z</time></trkpt><trkpt lat="42.371601" lon="-3.344702"><ele>1121.599</ele><time>2010-01-01T01:33:41Z</time></trkpt><trkpt lat="42.371795" lon="-3.344236"><ele>1128.322</ele><time>2010-01-01T01:33:25Z</time></trkpt><trkpt lat="42.371989" lon="-3.343814"><ele>1131.438</ele><time>2010-01-01T01:33:10Z</time></trkpt><trkpt lat="42.372243" lon="-3.343221"><ele>1137.449</ele><time>2010-01-01T01:32:50Z</time></trkpt><trkpt lat="42.372607" lon="-3.342426"><ele>1145.671</ele><time>2010-01-01T01:32:22Z</time></trkpt><trkpt lat="42.372828" lon="-3.342009"><ele>1148.941</ele><time>2010-01-01T01:32:07Z</time></trkpt><trkpt lat="42.373615" lon="-3.339845"><ele>1150.515</ele><time>2010-01-01T01:30:56Z</time></trkpt><trkpt lat="42.374156" lon="-3.338539"><ele>1154.609</ele><time>2010-01-01T01:30:11Z</time></trkpt><trkpt lat="42.375008" lon="-3.336752"><ele>1157.348</ele><time>2010-01-01T01:29:08Z</time></trkpt><trkpt lat="42.375585" lon="-3.336096"><ele>1156.158</ele><time>2010-01-01T01:28:38Z</time></trkpt><trkpt lat="42.376258" lon="-3.335432"><ele>1152.375</ele><time>2010-01-01T01:28:04Z</time></trkpt><trkpt lat="42.376482" lon="-3.335050"><ele>1150.594</ele><time>2010-01-01T01:27:49Z</time></trkpt><trkpt lat="42.378094" lon="-3.332447"><ele>1145.979</ele><time>2010-01-01T01:26:09Z</time></trkpt><trkpt lat="42.378770" lon="-3.331832"><ele>1143.661</ele><time>2010-01-01T01:25:36Z</time></trkpt><trkpt lat="42.379762" lon="-3.330480"><ele>1136.364</ele><time>2010-01-01T01:24:40Z</time></trkpt><trkpt lat="42.380088" lon="-3.330126"><ele>1132.870</ele><time>2010-01-01T01:24:23Z</time></trkpt><trkpt lat="42.380937" lon="-3.329362"><ele>1128.611</ele><time>2010-01-01T01:23:42Z</time></trkpt><trkpt lat="42.381430" lon="-3.329017"><ele>1129.419</ele><time>2010-01-01T01:23:20Z</time></trkpt><trkpt lat="42.382168" lon="-3.328101"><ele>1125.009</ele><time>2010-01-01T01:22:40Z</time></trkpt><trkpt lat="42.383155" lon="-3.326557"><ele>1113.619</ele><time>2010-01-01T01:21:39Z</time></trkpt><trkpt lat="42.383602" lon="-3.326211"><ele>1110.009</ele><time>2010-01-01T01:21:19Z</time></trkpt><trkpt lat="42.383936" lon="-3.325618"><ele>1105.392</ele><time>2010-01-01T01:20:57Z</time></trkpt><trkpt lat="42.384378" lon="-3.325196"><ele>1102.012</ele><time>2010-01-01T01:20:35Z</time></trkpt><trkpt lat="42.384979" lon="-3.325071"><ele>1095.169</ele><time>2010-01-01T01:20:09Z</time></trkpt><trkpt lat="42.385718" lon="-3.325246"><ele>1087.168</ele><time>2010-01-01T01:19:39Z</time></trkpt><trkpt lat="42.385793" lon="-3.325107"><ele>1085.753</ele><time>2010-01-01T01:19:33Z</time></trkpt><trkpt lat="42.386397" lon="-3.322395"><ele>1077.395</ele><time>2010-01-01T01:18:09Z</time></trkpt><trkpt lat="42.386645" lon="-3.322139"><ele>1076.988</ele><time>2010-01-01T01:17:57Z</time></trkpt><trkpt lat="42.386699" lon="-3.321959"><ele>1075.664</ele><time>2010-01-01T01:17:51Z</time></trkpt><trkpt lat="42.387467" lon="-3.319849"><ele>1059.055</ele><time>2010-01-01T01:16:41Z</time></trkpt><trkpt lat="42.387882" lon="-3.318835"><ele>1050.267</ele><time>2010-01-01T01:16:07Z</time></trkpt><trkpt lat="42.388100" lon="-3.317910"><ele>1043.381</ele><time>2010-01-01T01:15:38Z</time></trkpt><trkpt lat="42.388227" lon="-3.317295"><ele>1036.719</ele><time>2010-01-01T01:15:19Z</time></trkpt><trkpt lat="42.388351" lon="-3.316869"><ele>1030.709</ele><time>2010-01-01T01:15:06Z</time></trkpt><trkpt lat="42.388588" lon="-3.315814"><ele>1017.787</ele><time>2010-01-01T01:14:33Z</time></trkpt><trkpt lat="42.388542" lon="-3.315459"><ele>1013.597</ele><time>2010-01-01T01:14:22Z</time></trkpt><trkpt lat="42.388014" lon="-3.313394"><ele>994.624</ele><time>2010-01-01T01:13:17Z</time></trkpt><trkpt lat="42.388073" lon="-3.312514"><ele>990.673</ele><time>2010-01-01T01:12:50Z</time></trkpt><trkpt lat="42.387655" lon="-3.311275"><ele>986.428</ele><time>2010-01-01T01:12:10Z</time></trkpt><trkpt lat="42.387658" lon="-3.311154"><ele>984.850</ele><time>2010-01-01T01:12:06Z</time></trkpt><trkpt lat="42.388348" lon="-3.310498"><ele>969.923</ele><time>2010-01-01T01:11:32Z</time></trkpt><trkpt lat="42.388065" lon="-3.309861"><ele>962.449</ele><time>2010-01-01T01:11:09Z</time></trkpt><trkpt lat="42.388795" lon="-3.309223"><ele>949.360</ele><time>2010-01-01T01:10:34Z</time></trkpt><trkpt lat="42.389127" lon="-3.308613"><ele>943.023</ele><time>2010-01-01T01:10:12Z</time></trkpt><trkpt lat="42.390272" lon="-3.307845"><ele>937.283</ele><time>2010-01-01T01:09:20Z</time></trkpt><trkpt lat="42.392093" lon="-3.305314"><ele>937.611</ele><time>2010-01-01T01:07:33Z</time></trkpt><trkpt lat="42.392624" lon="-3.305026"><ele>937.409</ele><time>2010-01-01T01:07:10Z</time></trkpt><trkpt lat="42.393341" lon="-3.304331"><ele>937.043</ele><time>2010-01-01T01:06:34Z</time></trkpt><trkpt lat="42.394670" lon="-3.303325"><ele>934.463</ele><time>2010-01-01T01:05:32Z</time></trkpt><trkpt lat="42.395715" lon="-3.302275"><ele>934.780</ele><time>2010-01-01T01:04:40Z</time></trkpt><trkpt lat="42.396295" lon="-3.302812"><ele>930.189</ele><time>2010-01-01T01:04:11Z</time></trkpt><trkpt lat="42.396716" lon="-3.302893"><ele>929.264</ele><time>2010-01-01T01:03:54Z</time></trkpt><trkpt lat="42.400314" lon="-3.301412"><ele>924.096</ele><time>2010-01-01T01:01:23Z</time></trkpt><trkpt lat="42.401488" lon="-3.300918"><ele>923.159</ele><time>2010-01-01T01:00:34Z</time></trkpt><trkpt lat="42.402022" lon="-3.298669"><ele>941.095</ele><time>2010-01-01T00:59:24Z</time></trkpt><trkpt lat="42.402151" lon="-3.298148"><ele>944.746</ele><time>2010-01-01T00:59:08Z</time></trkpt><trkpt lat="42.402319" lon="-3.297483"><ele>946.063</ele><time>2010-01-01T00:58:47Z</time></trkpt><trkpt lat="42.402825" lon="-3.295284"><ele>940.744</ele><time>2010-01-01T00:57:39Z</time></trkpt><trkpt lat="42.403248" lon="-3.293457"><ele>936.618</ele><time>2010-01-01T00:56:42Z</time></trkpt><trkpt lat="42.403828" lon="-3.291957"><ele>933.709</ele><time>2010-01-01T00:55:52Z</time></trkpt><trkpt lat="42.404046" lon="-3.291257"><ele>929.697</ele><time>2010-01-01T00:55:30Z</time></trkpt><trkpt lat="42.404305" lon="-3.289214"><ele>920.397</ele><time>2010-01-01T00:54:29Z</time></trkpt><trkpt lat="42.404205" lon="-3.288568"><ele>915.864</ele><time>2010-01-01T00:54:09Z</time></trkpt><trkpt lat="42.404135" lon="-3.287966"><ele>912.173</ele><time>2010-01-01T00:53:51Z</time></trkpt><trkpt lat="42.404259" lon="-3.287580"><ele>909.568</ele><time>2010-01-01T00:53:38Z</time></trkpt><trkpt lat="42.404477" lon="-3.286758"><ele>903.020</ele><time>2010-01-01T00:53:12Z</time></trkpt><trkpt lat="42.405124" lon="-3.283724"><ele>892.613</ele><time>2010-01-01T00:51:39Z</time></trkpt><trkpt lat="42.406124" lon="-3.282404"><ele>894.939</ele><time>2010-01-01T00:50:43Z</time></trkpt><trkpt lat="42.406310" lon="-3.282135"><ele>895.860</ele><time>2010-01-01T00:50:32Z</time></trkpt><trkpt lat="42.406388" lon="-3.281897"><ele>896.286</ele><time>2010-01-01T00:50:25Z</time></trkpt><trkpt lat="42.406030" lon="-3.281820"><ele>897.660</ele><time>2010-01-01T00:50:09Z</time></trkpt><trkpt lat="42.405676" lon="-3.281470"><ele>898.726</ele><time>2010-01-01T00:49:52Z</time></trkpt><trkpt lat="42.405706" lon="-3.281367"><ele>898.409</ele><time>2010-01-01T00:49:49Z</time></trkpt><trkpt lat="42.405491" lon="-3.279571"><ele>897.369</ele><time>2010-01-01T00:48:53Z</time></trkpt><trkpt lat="42.405337" lon="-3.278700"><ele>894.269</ele><time>2010-01-01T00:48:26Z</time></trkpt><trkpt lat="42.405102" lon="-3.278211"><ele>890.776</ele><time>2010-01-01T00:48:08Z</time></trkpt><trkpt lat="42.405245" lon="-3.276725"><ele>888.435</ele><time>2010-01-01T00:47:23Z</time></trkpt><trkpt lat="42.405013" lon="-3.275782"><ele>882.770</ele><time>2010-01-01T00:46:54Z</time></trkpt><trkpt lat="42.404965" lon="-3.274543"><ele>880.072</ele><time>2010-01-01T00:46:17Z</time></trkpt><trkpt lat="42.405013" lon="-3.273910"><ele>879.945</ele><time>2010-01-01T00:45:57Z</time></trkpt><trkpt lat="42.404677" lon="-3.272716"><ele>881.421</ele><time>2010-01-01T00:45:20Z</time></trkpt><trkpt lat="42.404663" lon="-3.271796"><ele>883.262</ele><time>2010-01-01T00:44:52Z</time></trkpt><trkpt lat="42.404601" lon="-3.270700"><ele>879.927</ele><time>2010-01-01T00:44:20Z</time></trkpt><trkpt lat="42.404585" lon="-3.266022"><ele>865.268</ele><time>2010-01-01T00:42:02Z</time></trkpt><trkpt lat="42.404477" lon="-3.264707"><ele>862.714</ele><time>2010-01-01T00:41:22Z</time></trkpt><trkpt lat="42.404386" lon="-3.264370"><ele>862.809</ele><time>2010-01-01T00:41:12Z</time></trkpt><trkpt lat="42.404496" lon="-3.264056"><ele>861.613</ele><time>2010-01-01T00:41:01Z</time></trkpt><trkpt lat="42.404617" lon="-3.263818"><ele>860.133</ele><time>2010-01-01T00:40:53Z</time></trkpt><trkpt lat="42.404714" lon="-3.263365"><ele>859.160</ele><time>2010-01-01T00:40:39Z</time></trkpt><trkpt lat="42.404407" lon="-3.261928"><ele>859.369</ele><time>2010-01-01T00:39:54Z</time></trkpt><trkpt lat="42.404488" lon="-3.261614"><ele>859.794</ele><time>2010-01-01T00:39:44Z</time></trkpt><trkpt lat="42.404671" lon="-3.261116"><ele>865.116</ele><time>2010-01-01T00:39:27Z</time></trkpt><trkpt lat="42.404628" lon="-3.260833"><ele>866.039</ele><time>2010-01-01T00:39:19Z</time></trkpt><trkpt lat="42.404795" lon="-3.259571"><ele>862.925</ele><time>2010-01-01T00:38:41Z</time></trkpt><trkpt lat="42.404779" lon="-3.259329"><ele>862.486</ele><time>2010-01-01T00:38:33Z</time></trkpt><trkpt lat="42.404677" lon="-3.259086"><ele>862.386</ele><time>2010-01-01T00:38:25Z</time></trkpt><trkpt lat="42.406579" lon="-3.254004"><ele>847.060</ele><time>2010-01-01T00:35:36Z</time></trkpt><trkpt lat="42.408514" lon="-3.251805"><ele>847.426</ele><time>2010-01-01T00:33:55Z</time></trkpt><trkpt lat="42.408865" lon="-3.251261"><ele>847.609</ele><time>2010-01-01T00:33:34Z</time></trkpt><trkpt lat="42.410355" lon="-3.248729"><ele>844.749</ele><time>2010-01-01T00:31:58Z</time></trkpt><trkpt lat="42.410810" lon="-3.247953"><ele>843.119</ele><time>2010-01-01T00:31:29Z</time></trkpt><trkpt lat="42.411454" lon="-3.246866"><ele>840.586</ele><time>2010-01-01T00:30:48Z</time></trkpt><trkpt lat="42.412613" lon="-3.244491"><ele>825.035</ele><time>2010-01-01T00:29:23Z</time></trkpt><trkpt lat="42.413147" lon="-3.243926"><ele>822.110</ele><time>2010-01-01T00:28:56Z</time></trkpt><trkpt lat="42.412942" lon="-3.241892"><ele>821.162</ele><time>2010-01-01T00:27:54Z</time></trkpt><trkpt lat="42.412204" lon="-3.236101"><ele>810.275</ele><time>2010-01-01T00:25:00Z</time></trkpt><trkpt lat="42.411740" lon="-3.234251"><ele>807.291</ele><time>2010-01-01T00:24:02Z</time></trkpt><trkpt lat="42.411479" lon="-3.233439"><ele>807.472</ele><time>2010-01-01T00:23:36Z</time></trkpt><trkpt lat="42.411436" lon="-3.232307"><ele>806.591</ele><time>2010-01-01T00:23:03Z</time></trkpt><trkpt lat="42.411344" lon="-3.228882"><ele>802.181</ele><time>2010-01-01T00:21:21Z</time></trkpt><trkpt lat="42.412373" lon="-3.223445"><ele>795.319</ele><time>2010-01-01T00:18:34Z</time></trkpt><trkpt lat="42.412505" lon="-3.221901"><ele>793.009</ele><time>2010-01-01T00:17:48Z</time></trkpt><trkpt lat="42.412888" lon="-3.218503"><ele>790.420</ele><time>2010-01-01T00:16:06Z</time></trkpt><trkpt lat="42.414524" lon="-3.213986"><ele>788.020</ele><time>2010-01-01T00:13:37Z</time></trkpt><trkpt lat="42.414616" lon="-3.213717"><ele>787.317</ele><time>2010-01-01T00:13:28Z</time></trkpt><trkpt lat="42.414920" lon="-3.212213"><ele>785.936</ele><time>2010-01-01T00:12:42Z</time></trkpt><trkpt lat="42.415190" lon="-3.211459"><ele>783.961</ele><time>2010-01-01T00:12:17Z</time></trkpt><trkpt lat="42.415858" lon="-3.210354"><ele>780.583</ele><time>2010-01-01T00:11:35Z</time></trkpt><trkpt lat="42.416119" lon="-3.209497"><ele>777.436</ele><time>2010-01-01T00:11:07Z</time></trkpt><trkpt lat="42.416346" lon="-3.208639"><ele>775.932</ele><time>2010-01-01T00:10:39Z</time></trkpt><trkpt lat="42.417114" lon="-3.206633"><ele>773.553</ele><time>2010-01-01T00:09:32Z</time></trkpt><trkpt lat="42.417688" lon="-3.205780"><ele>771.422</ele><time>2010-01-01T00:08:58Z</time></trkpt><trkpt lat="42.417947" lon="-3.205537"><ele>770.162</ele><time>2010-01-01T00:08:45Z</time></trkpt><trkpt lat="42.418135" lon="-3.205115"><ele>768.608</ele><time>2010-01-01T00:08:30Z</time></trkpt><trkpt lat="42.418556" lon="-3.204123"><ele>766.809</ele><time>2010-01-01T00:07:56Z</time></trkpt><trkpt lat="42.418513" lon="-3.203320"><ele>764.933</ele><time>2010-01-01T00:07:32Z</time></trkpt><trkpt lat="42.417798" lon="-3.201712"><ele>765.323</ele><time>2010-01-01T00:06:36Z</time></trkpt><trkpt lat="42.417658" lon="-3.201484"><ele>766.510</ele><time>2010-01-01T00:06:28Z</time></trkpt><trkpt lat="42.417674" lon="-3.201102"><ele>767.049</ele><time>2010-01-01T00:06:14Z</time></trkpt><trkpt lat="42.417979" lon="-3.200361"><ele>765.374</ele><time>2010-01-01T00:05:49Z</time></trkpt><trkpt lat="42.418351" lon="-3.198022"><ele>764.926</ele><time>2010-01-01T00:04:38Z</time></trkpt><trkpt lat="42.418833" lon="-3.196312"><ele>766.439</ele><time>2010-01-01T00:03:44Z</time></trkpt><trkpt lat="42.418817" lon="-3.195813"><ele>767.625</ele><time>2010-01-01T00:03:29Z</time></trkpt><trkpt lat="42.419456" lon="-3.194812"><ele>767.066</ele><time>2010-01-01T00:02:50Z</time></trkpt><trkpt lat="42.420550" lon="-3.192415"><ele>766.032</ele><time>2010-01-01T00:01:26Z</time></trkpt><trkpt lat="42.420962" lon="-3.191266"><ele>765.492</ele><time>2010-01-01T00:00:48Z</time></trkpt><trkpt lat="42.420661" lon="-3.190837"><ele>767.011</ele><time>2010-01-01T00:00:30Z</time></trkpt><trkpt lat="42.420704" lon="-3.190042"><ele>768.809</ele><time>2010-01-01T00:00:07Z</time></trkpt><trkpt lat="42.420532" lon="-3.189952"><ele>769.254</ele><time>2010-01-01T00:00:00Z</time></trkpt><trkpt lat="42.420575" lon="-3.189746"><ele>769.924</ele><time>2010-01-01T02:33:02Z</time></trkpt><trkpt lat="42.420553" lon="-3.189247"><ele>770.741</ele><time>2010-01-01T02:32:47Z</time></trkpt><trkpt lat="42.420553" lon="-3.189113"><ele>770.830</ele><time>2010-01-01T02:32:43Z</time></trkpt><trkpt lat="42.420677" lon="-3.189126"><ele>770.545</ele><time>2010-01-01T02:32:38Z</time></trkpt><trkpt lat="42.420787" lon="-3.189124"><ele>770.157</ele><time>2010-01-01T02:32:34Z</time></trkpt><trkpt lat="42.420741" lon="-3.188590"><ele>769.440</ele><time>2010-01-01T02:32:18Z</time></trkpt><trkpt lat="42.420291" lon="-3.188442"><ele>770.696</ele><time>2010-01-01T02:32:00Z</time></trkpt><trkpt lat="42.419844" lon="-3.188033"><ele>772.257</ele><time>2010-01-01T02:31:38Z</time></trkpt><trkpt lat="42.419588" lon="-3.187845"><ele>773.319</ele><time>2010-01-01T02:31:26Z</time></trkpt><trkpt lat="42.419216" lon="-3.187037"><ele>776.609</ele><time>2010-01-01T02:30:57Z</time></trkpt><trkpt lat="42.418488" lon="-3.185959"><ele>779.719</ele><time>2010-01-01T02:30:14Z</time></trkpt><trkpt lat="42.418324" lon="-3.184469"><ele>784.809</ele><time>2010-01-01T02:29:30Z</time></trkpt><trkpt lat="42.417984" lon="-3.183270"><ele>789.752</ele><time>2010-01-01T02:28:51Z</time></trkpt><trkpt lat="42.417831" lon="-3.182440"><ele>792.162</ele><time>2010-01-01T02:28:26Z</time></trkpt><trkpt lat="42.417537" lon="-3.181560"><ele>795.059</ele><time>2010-01-01T02:27:57Z</time></trkpt><trkpt lat="42.417211" lon="-3.181043"><ele>797.888</ele><time>2010-01-01T02:27:37Z</time></trkpt><trkpt lat="42.416869" lon="-3.180626"><ele>797.033</ele><time>2010-01-01T02:27:19Z</time></trkpt><trkpt lat="42.416206" lon="-3.179822"><ele>797.265</ele><time>2010-01-01T02:26:43Z</time></trkpt><trkpt lat="42.416036" lon="-3.179881"><ele>796.748</ele><time>2010-01-01T02:26:36Z</time></trkpt><trkpt lat="42.415939" lon="-3.179697"><ele>797.744</ele><time>2010-01-01T02:26:29Z</time></trkpt><trkpt lat="42.415788" lon="-3.178556"><ele>799.275</ele><time>2010-01-01T02:25:55Z</time></trkpt><trkpt lat="42.415847" lon="-3.177430"><ele>801.277</ele><time>2010-01-01T02:25:21Z</time></trkpt><trkpt lat="42.415993" lon="-3.176702"><ele>803.661</ele><time>2010-01-01T02:24:59Z</time></trkpt><trkpt lat="42.416446" lon="-3.174884"><ele>807.327</ele><time>2010-01-01T02:24:02Z</time></trkpt><trkpt lat="42.416491" lon="-3.174565"><ele>807.909</ele><time>2010-01-01T02:23:53Z</time></trkpt><trkpt lat="42.417028" lon="-3.172585"><ele>814.938</ele><time>2010-01-01T02:22:50Z</time></trkpt><trkpt lat="42.417575" lon="-3.170494"><ele>816.268</ele><time>2010-01-01T02:21:45Z</time></trkpt><trkpt lat="42.418478" lon="-3.166889"><ele>820.615</ele><time>2010-01-01T02:19:52Z</time></trkpt><trkpt lat="42.418723" lon="-3.165923"><ele>822.444</ele><time>2010-01-01T02:19:22Z</time></trkpt><trkpt lat="42.419208" lon="-3.164087"><ele>824.219</ele><time>2010-01-01T02:18:24Z</time></trkpt><trkpt lat="42.419922" lon="-3.161245"><ele>823.631</ele><time>2010-01-01T02:16:56Z</time></trkpt><trkpt lat="42.420329" lon="-3.159643"><ele>822.214</ele><time>2010-01-01T02:16:06Z</time></trkpt><trkpt lat="42.420515" lon="-3.158992"><ele>821.920</ele><time>2010-01-01T02:15:45Z</time></trkpt><trkpt lat="42.420650" lon="-3.158534"><ele>821.341</ele><time>2010-01-01T02:15:30Z</time></trkpt><trkpt lat="42.421000" lon="-3.157385"><ele>821.032</ele><time>2010-01-01T02:14:54Z</time></trkpt><trkpt lat="42.422423" lon="-3.153084"><ele>814.592</ele><time>2010-01-01T02:12:34Z</time></trkpt><trkpt lat="42.422587" lon="-3.152451"><ele>813.111</ele><time>2010-01-01T02:12:15Z</time></trkpt><trkpt lat="42.422649" lon="-3.152190"><ele>812.509</ele><time>2010-01-01T02:12:06Z</time></trkpt><trkpt lat="42.423603" lon="-3.149398"><ele>806.874</ele><time>2010-01-01T02:10:35Z</time></trkpt><trkpt lat="42.427180" lon="-3.138538"><ele>789.334</ele><time>2010-01-01T02:04:44Z</time></trkpt><trkpt lat="42.427274" lon="-3.136469"><ele>789.551</ele><time>2010-01-01T02:03:41Z</time></trkpt><trkpt lat="42.427392" lon="-3.136024"><ele>787.140</ele><time>2010-01-01T02:03:27Z</time></trkpt><trkpt lat="42.427754" lon="-3.135800"><ele>785.915</ele><time>2010-01-01T02:03:11Z</time></trkpt><trkpt lat="42.428150" lon="-3.135764"><ele>783.567</ele><time>2010-01-01T02:02:56Z</time></trkpt><trkpt lat="42.428848" lon="-3.133497"><ele>780.740</ele><time>2010-01-01T02:01:43Z</time></trkpt><trkpt lat="42.428875" lon="-3.133093"><ele>781.076</ele><time>2010-01-01T02:01:31Z</time></trkpt><trkpt lat="42.429244" lon="-3.132680"><ele>783.867</ele><time>2010-01-01T02:01:11Z</time></trkpt><trkpt lat="42.429775" lon="-3.131926"><ele>789.822</ele><time>2010-01-01T02:00:41Z</time></trkpt><trkpt lat="42.430344" lon="-3.131149"><ele>791.762</ele><time>2010-01-01T02:00:08Z</time></trkpt><trkpt lat="42.430794" lon="-3.130220"><ele>791.408</ele><time>2010-01-01T01:59:35Z</time></trkpt><trkpt lat="42.431036" lon="-3.129102"><ele>791.009</ele><time>2010-01-01T01:59:01Z</time></trkpt><trkpt lat="42.431041" lon="-3.127679"><ele>782.133</ele><time>2010-01-01T01:58:18Z</time></trkpt><trkpt lat="42.430430" lon="-3.123014"><ele>785.563</ele><time>2010-01-01T01:55:58Z</time></trkpt><trkpt lat="42.430422" lon="-3.122309"><ele>785.580</ele><time>2010-01-01T01:55:37Z</time></trkpt><trkpt lat="42.430562" lon="-3.120707"><ele>784.569</ele><time>2010-01-01T01:54:50Z</time></trkpt><trkpt lat="42.431198" lon="-3.113533"><ele>761.724</ele><time>2010-01-01T01:51:16Z</time></trkpt><trkpt lat="42.429942" lon="-3.111925"><ele>755.036</ele><time>2010-01-01T01:50:07Z</time></trkpt><trkpt lat="42.427948" lon="-3.110538"><ele>763.799</ele><time>2010-01-01T01:48:37Z</time></trkpt><trkpt lat="42.427012" lon="-3.108980"><ele>774.075</ele><time>2010-01-01T01:47:37Z</time></trkpt><trkpt lat="42.427285" lon="-3.106184"><ele>791.896</ele><time>2010-01-01T01:46:13Z</time></trkpt><trkpt lat="42.427104" lon="-3.105250"><ele>794.963</ele><time>2010-01-01T01:45:44Z</time></trkpt><trkpt lat="42.426783" lon="-3.104320"><ele>799.344</ele><time>2010-01-01T01:45:14Z</time></trkpt><trkpt lat="42.426484" lon="-3.103943"><ele>802.218</ele><time>2010-01-01T01:44:57Z</time></trkpt><trkpt lat="42.426048" lon="-3.102951"><ele>804.909</ele><time>2010-01-01T01:44:23Z</time></trkpt><trkpt lat="42.425870" lon="-3.101955"><ele>802.247</ele><time>2010-01-01T01:43:52Z</time></trkpt><trkpt lat="42.426042" lon="-3.101510"><ele>801.387</ele><time>2010-01-01T01:43:38Z</time></trkpt><trkpt lat="42.426209" lon="-3.101138"><ele>799.524</ele><time>2010-01-01T01:43:25Z</time></trkpt><trkpt lat="42.426891" lon="-3.100159"><ele>796.283</ele><time>2010-01-01T01:42:45Z</time></trkpt><trkpt lat="42.427056" lon="-3.099683"><ele>794.678</ele><time>2010-01-01T01:42:29Z</time></trkpt><trkpt lat="42.427212" lon="-3.099400"><ele>793.840</ele><time>2010-01-01T01:42:19Z</time></trkpt><trkpt lat="42.427818" lon="-3.098852"><ele>791.723</ele><time>2010-01-01T01:41:50Z</time></trkpt><trkpt lat="42.428255" lon="-3.098628"><ele>790.989</ele><time>2010-01-01T01:41:31Z</time></trkpt><trkpt lat="42.429430" lon="-3.098318"><ele>789.970</ele><time>2010-01-01T01:40:43Z</time></trkpt><trkpt lat="42.429813" lon="-3.098210"><ele>788.788</ele><time>2010-01-01T01:40:27Z</time></trkpt><trkpt lat="42.430101" lon="-3.098017"><ele>787.624</ele><time>2010-01-01T01:40:14Z</time></trkpt><trkpt lat="42.431672" lon="-3.095809"><ele>780.826</ele><time>2010-01-01T01:38:43Z</time></trkpt><trkpt lat="42.433437" lon="-3.094197"><ele>770.609</ele><time>2010-01-01T01:37:18Z</time></trkpt><trkpt lat="42.434068" lon="-3.093061"><ele>764.039</ele><time>2010-01-01T01:36:36Z</time></trkpt><trkpt lat="42.435213" lon="-3.088814"><ele>753.299</ele><time>2010-01-01T01:34:22Z</time></trkpt><trkpt lat="42.435278" lon="-3.088509"><ele>754.436</ele><time>2010-01-01T01:34:13Z</time></trkpt><trkpt lat="42.435410" lon="-3.088253"><ele>754.625</ele><time>2010-01-01T01:34:03Z</time></trkpt><trkpt lat="42.436008" lon="-3.087360"><ele>756.170</ele><time>2010-01-01T01:33:28Z</time></trkpt><trkpt lat="42.436617" lon="-3.086673"><ele>759.362</ele><time>2010-01-01T01:32:56Z</time></trkpt><trkpt lat="42.436607" lon="-3.086498"><ele>762.595</ele><time>2010-01-01T01:32:50Z</time></trkpt><trkpt lat="42.436369" lon="-3.086359"><ele>766.261</ele><time>2010-01-01T01:32:39Z</time></trkpt><trkpt lat="42.436388" lon="-3.086184"><ele>767.572</ele><time>2010-01-01T01:32:34Z</time></trkpt><trkpt lat="42.436407" lon="-3.085762"><ele>768.952</ele><time>2010-01-01T01:32:21Z</time></trkpt><trkpt lat="42.436518" lon="-3.084913"><ele>768.553</ele><time>2010-01-01T01:31:55Z</time></trkpt><trkpt lat="42.436954" lon="-3.082579"><ele>769.008</ele><time>2010-01-01T01:30:44Z</time></trkpt><trkpt lat="42.437113" lon="-3.081667"><ele>768.009</ele><time>2010-01-01T01:30:16Z</time></trkpt><trkpt lat="42.437067" lon="-3.081021"><ele>765.426</ele><time>2010-01-01T01:29:57Z</time></trkpt><trkpt lat="42.436987" lon="-3.080159"><ele>760.876</ele><time>2010-01-01T01:29:31Z</time></trkpt><trkpt lat="42.437612" lon="-3.079539"><ele>756.723</ele><time>2010-01-01T01:28:59Z</time></trkpt><trkpt lat="42.437251" lon="-3.073398"><ele>757.222</ele><time>2010-01-01T01:25:57Z</time></trkpt><trkpt lat="42.437159" lon="-3.069650"><ele>745.017</ele><time>2010-01-01T01:24:06Z</time></trkpt><trkpt lat="42.437267" lon="-3.068468"><ele>744.559</ele><time>2010-01-01T01:23:31Z</time></trkpt><trkpt lat="42.437607" lon="-3.067171"><ele>742.632</ele><time>2010-01-01T01:22:50Z</time></trkpt><trkpt lat="42.438378" lon="-3.064608"><ele>738.568</ele><time>2010-01-01T01:21:27Z</time></trkpt><trkpt lat="42.438569" lon="-3.064033"><ele>737.169</ele><time>2010-01-01T01:21:09Z</time></trkpt><trkpt lat="42.438806" lon="-3.063369"><ele>736.022</ele><time>2010-01-01T01:20:47Z</time></trkpt><trkpt lat="42.438727" lon="-3.062821"><ele>735.662</ele><time>2010-01-01T01:20:30Z</time></trkpt><trkpt lat="42.438059" lon="-3.062224"><ele>737.008</ele><time>2010-01-01T01:19:58Z</time></trkpt><trkpt lat="42.438223" lon="-3.061721"><ele>735.109</ele><time>2010-01-01T01:19:41Z</time></trkpt><trkpt lat="42.438924" lon="-3.060016"><ele>731.983</ele><time>2010-01-01T01:18:44Z</time></trkpt><trkpt lat="42.440018" lon="-3.057708"><ele>727.023</ele><time>2010-01-01T01:17:23Z</time></trkpt><trkpt lat="42.443225" lon="-3.052069"><ele>726.310</ele><time>2010-01-01T01:13:52Z</time></trkpt><trkpt lat="42.443387" lon="-3.051585"><ele>728.629</ele><time>2010-01-01T01:13:36Z</time></trkpt><trkpt lat="42.443632" lon="-3.050853"><ele>732.694</ele><time>2010-01-01T01:13:13Z</time></trkpt><trkpt lat="42.443877" lon="-3.050103"><ele>735.076</ele><time>2010-01-01T01:12:48Z</time></trkpt><trkpt lat="42.444047" lon="-3.049663"><ele>733.869</ele><time>2010-01-01T01:12:34Z</time></trkpt><trkpt lat="42.445031" lon="-3.046000"><ele>738.475</ele><time>2010-01-01T01:10:38Z</time></trkpt><trkpt lat="42.445240" lon="-3.045289"><ele>737.326</ele><time>2010-01-01T01:10:08Z</time></trkpt><trkpt lat="42.446939" lon="-3.043034"><ele>726.947</ele><time>2010-01-01T01:08:33Z</time></trkpt><trkpt lat="42.447676" lon="-3.041561"><ele>717.929</ele><time>2010-01-01T01:07:40Z</time></trkpt><trkpt lat="42.448434" lon="-3.040170"><ele>709.721</ele><time>2010-01-01T01:06:49Z</time></trkpt><trkpt lat="42.448743" lon="-3.039211"><ele>703.709</ele><time>2010-01-01T01:06:18Z</time></trkpt><trkpt lat="42.450144" lon="-3.037886"><ele>695.325</ele><time>2010-01-01T01:05:10Z</time></trkpt><trkpt lat="42.450905" lon="-3.037009"><ele>693.365</ele><time>2010-01-01T01:04:30Z</time></trkpt><trkpt lat="42.448962" lon="-3.032916"><ele>698.512</ele><time>2010-01-01T01:02:06Z</time></trkpt><trkpt lat="42.448633" lon="-3.033011"><ele>700.291</ele><time>2010-01-01T01:01:52Z</time></trkpt><trkpt lat="42.448653" lon="-3.032065"><ele>709.746</ele><time>2010-01-01T01:01:24Z</time></trkpt><trkpt lat="42.448962" lon="-3.030390"><ele>730.168</ele><time>2010-01-01T01:00:33Z</time></trkpt><trkpt lat="42.448792" lon="-3.029864"><ele>735.571</ele><time>2010-01-01T01:00:16Z</time></trkpt><trkpt lat="42.448872" lon="-3.029769"><ele>735.747</ele><time>2010-01-01T01:00:12Z</time></trkpt><trkpt lat="42.449181" lon="-3.030093"><ele>733.388</ele><time>2010-01-01T00:59:57Z</time></trkpt><trkpt lat="42.449745" lon="-3.028971"><ele>730.866</ele><time>2010-01-01T00:59:17Z</time></trkpt><trkpt lat="42.449859" lon="-3.028661"><ele>729.629</ele><time>2010-01-01T00:59:06Z</time></trkpt><trkpt lat="42.449430" lon="-3.028432"><ele>730.421</ele><time>2010-01-01T00:58:48Z</time></trkpt><trkpt lat="42.448429" lon="-3.027782"><ele>732.709</ele><time>2010-01-01T00:58:03Z</time></trkpt><trkpt lat="42.447766" lon="-3.026932"><ele>733.037</ele><time>2010-01-01T00:57:26Z</time></trkpt><trkpt lat="42.447158" lon="-3.026352"><ele>733.287</ele><time>2010-01-01T00:56:56Z</time></trkpt><trkpt lat="42.445134" lon="-3.025690"><ele>739.324</ele><time>2010-01-01T00:55:33Z</time></trkpt><trkpt lat="42.441337" lon="-3.025136"><ele>734.133</ele><time>2010-01-01T00:53:00Z</time></trkpt><trkpt lat="42.440718" lon="-3.024879"><ele>735.458</ele><time>2010-01-01T00:52:33Z</time></trkpt><trkpt lat="42.439338" lon="-3.024595"><ele>735.730</ele><time>2010-01-01T00:51:37Z</time></trkpt><trkpt lat="42.438236" lon="-3.024055"><ele>729.983</ele><time>2010-01-01T00:50:50Z</time></trkpt><trkpt lat="42.438037" lon="-3.023704"><ele>726.869</ele><time>2010-01-01T00:50:37Z</time></trkpt><trkpt lat="42.437638" lon="-3.023461"><ele>728.520</ele><time>2010-01-01T00:50:19Z</time></trkpt><trkpt lat="42.435471" lon="-3.023568"><ele>728.895</ele><time>2010-01-01T00:48:52Z</time></trkpt><trkpt lat="42.433521" lon="-3.023677"><ele>727.149</ele><time>2010-01-01T00:47:34Z</time></trkpt><trkpt lat="42.431238" lon="-3.021894"><ele>727.623</ele><time>2010-01-01T00:45:48Z</time></trkpt><trkpt lat="42.431168" lon="-3.020624"><ele>733.709</ele><time>2010-01-01T00:45:09Z</time></trkpt><trkpt lat="42.430326" lon="-3.020866"><ele>742.090</ele><time>2010-01-01T00:44:33Z</time></trkpt><trkpt lat="42.429174" lon="-3.021029"><ele>750.460</ele><time>2010-01-01T00:43:47Z</time></trkpt><trkpt lat="42.428492" lon="-3.020921"><ele>754.317</ele><time>2010-01-01T00:43:20Z</time></trkpt><trkpt lat="42.428018" lon="-3.020705"><ele>758.896</ele><time>2010-01-01T00:43:00Z</time></trkpt><trkpt lat="42.427708" lon="-3.020341"><ele>762.141</ele><time>2010-01-01T00:42:43Z</time></trkpt><trkpt lat="42.427449" lon="-3.019989"><ele>764.953</ele><time>2010-01-01T00:42:28Z</time></trkpt><trkpt lat="42.426817" lon="-3.018597"><ele>768.926</ele><time>2010-01-01T00:41:40Z</time></trkpt><trkpt lat="42.426243" lon="-3.017180"><ele>764.632</ele><time>2010-01-01T00:40:52Z</time></trkpt><trkpt lat="42.426333" lon="-3.016923"><ele>765.533</ele><time>2010-01-01T00:40:44Z</time></trkpt><trkpt lat="42.426777" lon="-3.016220"><ele>766.248</ele><time>2010-01-01T00:40:16Z</time></trkpt><trkpt lat="42.427215" lon="-3.015301"><ele>765.161</ele><time>2010-01-01T00:39:43Z</time></trkpt><trkpt lat="42.427180" lon="-3.015086"><ele>763.717</ele><time>2010-01-01T00:39:37Z</time></trkpt><trkpt lat="42.427020" lon="-3.014978"><ele>762.809</ele><time>2010-01-01T00:39:30Z</time></trkpt><trkpt lat="42.426033" lon="-3.015154"><ele>765.645</ele><time>2010-01-01T00:38:50Z</time></trkpt><trkpt lat="42.425575" lon="-3.015208"><ele>766.225</ele><time>2010-01-01T00:38:31Z</time></trkpt><trkpt lat="42.425385" lon="-3.015167"><ele>766.332</ele><time>2010-01-01T00:38:24Z</time></trkpt><trkpt lat="42.424159" lon="-3.013235"><ele>764.751</ele><time>2010-01-01T00:37:08Z</time></trkpt><trkpt lat="42.424089" lon="-3.012763"><ele>764.396</ele><time>2010-01-01T00:36:54Z</time></trkpt><trkpt lat="42.425166" lon="-3.009332"><ele>774.518</ele><time>2010-01-01T00:35:04Z</time></trkpt><trkpt lat="42.425375" lon="-3.008643"><ele>774.061</ele><time>2010-01-01T00:34:42Z</time></trkpt><trkpt lat="42.425136" lon="-3.007265"><ele>770.227</ele><time>2010-01-01T00:33:58Z</time></trkpt><trkpt lat="42.425435" lon="-3.006900"><ele>768.988</ele><time>2010-01-01T00:33:42Z</time></trkpt><trkpt lat="42.426263" lon="-3.006684"><ele>763.782</ele><time>2010-01-01T00:33:09Z</time></trkpt><trkpt lat="42.427788" lon="-3.005725"><ele>757.043</ele><time>2010-01-01T00:32:01Z</time></trkpt><trkpt lat="42.428277" lon="-3.004915"><ele>756.717</ele><time>2010-01-01T00:31:30Z</time></trkpt><trkpt lat="42.428586" lon="-3.004631"><ele>757.309</ele><time>2010-01-01T00:31:15Z</time></trkpt><trkpt lat="42.429214" lon="-3.003591"><ele>752.449</ele><time>2010-01-01T00:30:35Z</time></trkpt><trkpt lat="42.430570" lon="-3.002132"><ele>744.219</ele><time>2010-01-01T00:29:26Z</time></trkpt><trkpt lat="42.431637" lon="-3.000673"><ele>735.826</ele><time>2010-01-01T00:28:25Z</time></trkpt><trkpt lat="42.431956" lon="-2.998701"><ele>736.575</ele><time>2010-01-01T00:27:25Z</time></trkpt><trkpt lat="42.432155" lon="-2.998161"><ele>733.180</ele><time>2010-01-01T00:27:07Z</time></trkpt><trkpt lat="42.432235" lon="-2.995567"><ele>733.062</ele><time>2010-01-01T00:25:50Z</time></trkpt><trkpt lat="42.432953" lon="-2.994500"><ele>733.815</ele><time>2010-01-01T00:25:07Z</time></trkpt><trkpt lat="42.433302" lon="-2.993879"><ele>733.261</ele><time>2010-01-01T00:24:44Z</time></trkpt><trkpt lat="42.435710" lon="-2.993095"><ele>711.672</ele><time>2010-01-01T00:23:05Z</time></trkpt><trkpt lat="42.436063" lon="-2.993068"><ele>708.523</ele><time>2010-01-01T00:22:51Z</time></trkpt><trkpt lat="42.437110" lon="-2.993703"><ele>702.383</ele><time>2010-01-01T00:22:05Z</time></trkpt><trkpt lat="42.437309" lon="-2.993636"><ele>701.211</ele><time>2010-01-01T00:21:57Z</time></trkpt><trkpt lat="42.437718" lon="-2.993082"><ele>695.009</ele><time>2010-01-01T00:21:33Z</time></trkpt><trkpt lat="42.438142" lon="-2.992446"><ele>688.643</ele><time>2010-01-01T00:21:08Z</time></trkpt><trkpt lat="42.438844" lon="-2.991569"><ele>681.663</ele><time>2010-01-01T00:20:30Z</time></trkpt><trkpt lat="42.440854" lon="-2.987475"><ele>666.830</ele><time>2010-01-01T00:18:04Z</time></trkpt><trkpt lat="42.441133" lon="-2.986449"><ele>663.199</ele><time>2010-01-01T00:17:32Z</time></trkpt><trkpt lat="42.441297" lon="-2.984680"><ele>658.384</ele><time>2010-01-01T00:16:39Z</time></trkpt><trkpt lat="42.441107" lon="-2.983302"><ele>655.046</ele><time>2010-01-01T00:15:58Z</time></trkpt><trkpt lat="42.441013" lon="-2.981964"><ele>652.889</ele><time>2010-01-01T00:15:18Z</time></trkpt><trkpt lat="42.441048" lon="-2.980493"><ele>652.755</ele><time>2010-01-01T00:14:35Z</time></trkpt><trkpt lat="42.441735" lon="-2.977116"><ele>653.026</ele><time>2010-01-01T00:12:51Z</time></trkpt><trkpt lat="42.442114" lon="-2.974873"><ele>645.563</ele><time>2010-01-01T00:11:43Z</time></trkpt><trkpt lat="42.443366" lon="-2.970401"><ele>638.844</ele><time>2010-01-01T00:09:22Z</time></trkpt><trkpt lat="42.444197" lon="-2.968390"><ele>635.918</ele><time>2010-01-01T00:08:14Z</time></trkpt><trkpt lat="42.443764" lon="-2.966781"><ele>639.309</ele><time>2010-01-01T00:07:23Z</time></trkpt><trkpt lat="42.442692" lon="-2.963446"><ele>639.927</ele><time>2010-01-01T00:05:35Z</time></trkpt><trkpt lat="42.441855" lon="-2.960555"><ele>638.667</ele><time>2010-01-01T00:04:04Z</time></trkpt><trkpt lat="42.441456" lon="-2.959326"><ele>639.354</ele><time>2010-01-01T00:03:24Z</time></trkpt><trkpt lat="42.441147" lon="-2.958664"><ele>639.693</ele><time>2010-01-01T00:03:01Z</time></trkpt><trkpt lat="42.440370" lon="-2.957854"><ele>640.538</ele><time>2010-01-01T00:02:22Z</time></trkpt><trkpt lat="42.440051" lon="-2.957570"><ele>640.980</ele><time>2010-01-01T00:02:06Z</time></trkpt><trkpt lat="42.439692" lon="-2.955922"><ele>641.083</ele><time>2010-01-01T00:01:15Z</time></trkpt><trkpt lat="42.439433" lon="-2.953383"><ele>641.259</ele><time>2010-01-01T00:00:00Z</time></trkpt><trkpt lat="42.437020" lon="-2.953355"><ele>643.140</ele><time>2010-01-01T04:23:00Z</time></trkpt><trkpt lat="42.435595" lon="-2.953018"><ele>644.785</ele><time>2010-01-01T04:22:02Z</time></trkpt><trkpt lat="42.435032" lon="-2.952733"><ele>645.089</ele><time>2010-01-01T04:21:38Z</time></trkpt><trkpt lat="42.434657" lon="-2.952329"><ele>645.417</ele><time>2010-01-01T04:21:18Z</time></trkpt><trkpt lat="42.434189" lon="-2.950911"><ele>644.709</ele><time>2010-01-01T04:20:32Z</time></trkpt><trkpt lat="42.433800" lon="-2.949897"><ele>645.099</ele><time>2010-01-01T04:19:59Z</time></trkpt><trkpt lat="42.431178" lon="-2.947331"><ele>647.099</ele><time>2010-01-01T04:17:49Z</time></trkpt><trkpt lat="42.429569" lon="-2.945385"><ele>648.616</ele><time>2010-01-01T04:16:23Z</time></trkpt><trkpt lat="42.428731" lon="-2.944412"><ele>649.085</ele><time>2010-01-01T04:15:39Z</time></trkpt><trkpt lat="42.427599" lon="-2.943414"><ele>650.650</ele><time>2010-01-01T04:14:44Z</time></trkpt><trkpt lat="42.426971" lon="-2.943117"><ele>651.072</ele><time>2010-01-01T04:14:18Z</time></trkpt><trkpt lat="42.425694" lon="-2.940158"><ele>654.425</ele><time>2010-01-01T04:12:36Z</time></trkpt><trkpt lat="42.425146" lon="-2.939537"><ele>658.641</ele><time>2010-01-01T04:12:08Z</time></trkpt><trkpt lat="42.423600" lon="-2.938618"><ele>665.022</ele><time>2010-01-01T04:11:00Z</time></trkpt><trkpt lat="42.422783" lon="-2.937930"><ele>667.474</ele><time>2010-01-01T04:10:21Z</time></trkpt><trkpt lat="42.422284" lon="-2.937308"><ele>669.556</ele><time>2010-01-01T04:09:54Z</time></trkpt><trkpt lat="42.421267" lon="-2.936646"><ele>673.521</ele><time>2010-01-01T04:09:09Z</time></trkpt><trkpt lat="42.420061" lon="-2.934998"><ele>681.609</ele><time>2010-01-01T04:08:00Z</time></trkpt><trkpt lat="42.418176" lon="-2.933715"><ele>689.938</ele><time>2010-01-01T04:06:36Z</time></trkpt><trkpt lat="42.417388" lon="-2.933458"><ele>693.348</ele><time>2010-01-01T04:06:04Z</time></trkpt><trkpt lat="42.414087" lon="-2.931716"><ele>704.685</ele><time>2010-01-01T04:03:42Z</time></trkpt><trkpt lat="42.411634" lon="-2.930689"><ele>715.654</ele><time>2010-01-01T04:01:59Z</time></trkpt><trkpt lat="42.410218" lon="-2.929393"><ele>724.459</ele><time>2010-01-01T04:00:50Z</time></trkpt><trkpt lat="42.409699" lon="-2.929041"><ele>727.141</ele><time>2010-01-01T04:00:27Z</time></trkpt><trkpt lat="42.408881" lon="-2.928879"><ele>730.074</ele><time>2010-01-01T03:59:54Z</time></trkpt><trkpt lat="42.408632" lon="-2.928785"><ele>730.780</ele><time>2010-01-01T03:59:44Z</time></trkpt><trkpt lat="42.406647" lon="-2.926799"><ele>748.881</ele><time>2010-01-01T03:58:05Z</time></trkpt><trkpt lat="42.406208" lon="-2.926110"><ele>755.371</ele><time>2010-01-01T03:57:38Z</time></trkpt><trkpt lat="42.405430" lon="-2.925732"><ele>763.741</ele><time>2010-01-01T03:57:05Z</time></trkpt><trkpt lat="42.404932" lon="-2.925016"><ele>770.315</ele><time>2010-01-01T03:56:36Z</time></trkpt><trkpt lat="42.404439" lon="-2.923827"><ele>769.609</ele><time>2010-01-01T03:55:55Z</time></trkpt><trkpt lat="42.404204" lon="-2.923463"><ele>769.378</ele><time>2010-01-01T03:55:41Z</time></trkpt><trkpt lat="42.403635" lon="-2.923193"><ele>771.428</ele><time>2010-01-01T03:55:17Z</time></trkpt><trkpt lat="42.402947" lon="-2.922301"><ele>775.875</ele><time>2010-01-01T03:54:38Z</time></trkpt><trkpt lat="42.400848" lon="-2.921665"><ele>789.874</ele><time>2010-01-01T03:53:12Z</time></trkpt><trkpt lat="42.399845" lon="-2.921666"><ele>795.619</ele><time>2010-01-01T03:52:32Z</time></trkpt><trkpt lat="42.398697" lon="-2.921950"><ele>802.891</ele><time>2010-01-01T03:51:45Z</time></trkpt><trkpt lat="42.398269" lon="-2.921855"><ele>803.944</ele><time>2010-01-01T03:51:27Z</time></trkpt><trkpt lat="42.398099" lon="-2.921761"><ele>804.270</ele><time>2010-01-01T03:51:20Z</time></trkpt><trkpt lat="42.398055" lon="-2.921341"><ele>804.311</ele><time>2010-01-01T03:51:07Z</time></trkpt><trkpt lat="42.398329" lon="-2.920991"><ele>804.334</ele><time>2010-01-01T03:50:52Z</time></trkpt><trkpt lat="42.398598" lon="-2.920261"><ele>809.655</ele><time>2010-01-01T03:50:28Z</time></trkpt><trkpt lat="42.398733" lon="-2.919018"><ele>810.810</ele><time>2010-01-01T03:49:51Z</time></trkpt><trkpt lat="42.398494" lon="-2.917667"><ele>808.209</ele><time>2010-01-01T03:49:10Z</time></trkpt><trkpt lat="42.397271" lon="-2.914615"><ele>825.494</ele><time>2010-01-01T03:47:27Z</time></trkpt><trkpt lat="42.396563" lon="-2.913710"><ele>832.384</ele><time>2010-01-01T03:46:48Z</time></trkpt><trkpt lat="42.395905" lon="-2.911968"><ele>826.891</ele><time>2010-01-01T03:45:50Z</time></trkpt><trkpt lat="42.395934" lon="-2.908253"><ele>813.110</ele><time>2010-01-01T03:44:00Z</time></trkpt><trkpt lat="42.395176" lon="-2.902728"><ele>800.425</ele><time>2010-01-01T03:41:14Z</time></trkpt><trkpt lat="42.395581" lon="-2.898540"><ele>803.567</ele><time>2010-01-01T03:39:09Z</time></trkpt><trkpt lat="42.395625" lon="-2.897839"><ele>803.560</ele><time>2010-01-01T03:38:48Z</time></trkpt><trkpt lat="42.396114" lon="-2.896879"><ele>801.716</ele><time>2010-01-01T03:38:13Z</time></trkpt><trkpt lat="42.396339" lon="-2.895838"><ele>799.457</ele><time>2010-01-01T03:37:41Z</time></trkpt><trkpt lat="42.396194" lon="-2.895042"><ele>799.996</ele><time>2010-01-01T03:37:17Z</time></trkpt><trkpt lat="42.396214" lon="-2.894786"><ele>801.131</ele><time>2010-01-01T03:37:09Z</time></trkpt><trkpt lat="42.396623" lon="-2.894894"><ele>801.624</ele><time>2010-01-01T03:36:53Z</time></trkpt><trkpt lat="42.396932" lon="-2.894016"><ele>803.009</ele><time>2010-01-01T03:36:23Z</time></trkpt><trkpt lat="42.397501" lon="-2.894070"><ele>800.070</ele><time>2010-01-01T03:35:59Z</time></trkpt><trkpt lat="42.397969" lon="-2.894299"><ele>797.520</ele><time>2010-01-01T03:35:40Z</time></trkpt><trkpt lat="42.400184" lon="-2.894678"><ele>788.397</ele><time>2010-01-01T03:34:10Z</time></trkpt><trkpt lat="42.401381" lon="-2.894624"><ele>781.366</ele><time>2010-01-01T03:33:22Z</time></trkpt><trkpt lat="42.402518" lon="-2.894191"><ele>773.271</ele><time>2010-01-01T03:32:35Z</time></trkpt><trkpt lat="42.402987" lon="-2.893827"><ele>770.953</ele><time>2010-01-01T03:32:13Z</time></trkpt><trkpt lat="42.403525" lon="-2.893084"><ele>766.786</ele><time>2010-01-01T03:31:43Z</time></trkpt><trkpt lat="42.402697" lon="-2.892368"><ele>772.932</ele><time>2010-01-01T03:31:03Z</time></trkpt><trkpt lat="42.401281" lon="-2.890801"><ele>775.583</ele><time>2010-01-01T03:29:50Z</time></trkpt><trkpt lat="42.400214" lon="-2.889747"><ele>776.871</ele><time>2010-01-01T03:28:57Z</time></trkpt><trkpt lat="42.398997" lon="-2.889275"><ele>777.441</ele><time>2010-01-01T03:28:06Z</time></trkpt><trkpt lat="42.398668" lon="-2.888815"><ele>779.915</ele><time>2010-01-01T03:27:48Z</time></trkpt><trkpt lat="42.398254" lon="-2.887140"><ele>786.909</ele><time>2010-01-01T03:26:55Z</time></trkpt><trkpt lat="42.397660" lon="-2.885992"><ele>791.548</ele><time>2010-01-01T03:26:14Z</time></trkpt><trkpt lat="42.396698" lon="-2.884924"><ele>792.388</ele><time>2010-01-01T03:25:24Z</time></trkpt><trkpt lat="42.394687" lon="-2.883210"><ele>792.245</ele><time>2010-01-01T03:23:49Z</time></trkpt><trkpt lat="42.392782" lon="-2.881602"><ele>784.854</ele><time>2010-01-01T03:22:19Z</time></trkpt><trkpt lat="42.392912" lon="-2.880846"><ele>781.639</ele><time>2010-01-01T03:21:56Z</time></trkpt><trkpt lat="42.392827" lon="-2.878441"><ele>772.761</ele><time>2010-01-01T03:20:45Z</time></trkpt><trkpt lat="42.393147" lon="-2.874712"><ele>758.374</ele><time>2010-01-01T03:18:54Z</time></trkpt><trkpt lat="42.393730" lon="-2.870310"><ele>745.130</ele><time>2010-01-01T03:16:42Z</time></trkpt><trkpt lat="42.393710" lon="-2.869526"><ele>742.641</ele><time>2010-01-01T03:16:18Z</time></trkpt><trkpt lat="42.392772" lon="-2.868121"><ele>734.298</ele><time>2010-01-01T03:15:22Z</time></trkpt><trkpt lat="42.391884" lon="-2.866825"><ele>727.615</ele><time>2010-01-01T03:14:30Z</time></trkpt><trkpt lat="42.391236" lon="-2.865406"><ele>722.626</ele><time>2010-01-01T03:13:41Z</time></trkpt><trkpt lat="42.390986" lon="-2.864191"><ele>712.309</ele><time>2010-01-01T03:13:03Z</time></trkpt><trkpt lat="42.389899" lon="-2.861800"><ele>695.930</ele><time>2010-01-01T03:11:40Z</time></trkpt><trkpt lat="42.389829" lon="-2.861408"><ele>695.610</ele><time>2010-01-01T03:11:28Z</time></trkpt><trkpt lat="42.391316" lon="-2.852290"><ele>668.227</ele><time>2010-01-01T03:06:51Z</time></trkpt><trkpt lat="42.391734" lon="-2.850426"><ele>658.196</ele><time>2010-01-01T03:05:53Z</time></trkpt><trkpt lat="42.391471" lon="-2.849372"><ele>648.611</ele><time>2010-01-01T03:05:20Z</time></trkpt><trkpt lat="42.391385" lon="-2.848441"><ele>645.493</ele><time>2010-01-01T03:04:52Z</time></trkpt><trkpt lat="42.391355" lon="-2.846252"><ele>645.216</ele><time>2010-01-01T03:03:47Z</time></trkpt><trkpt lat="42.389595" lon="-2.846184"><ele>653.562</ele><time>2010-01-01T03:02:36Z</time></trkpt><trkpt lat="42.389021" lon="-2.846414"><ele>656.493</ele><time>2010-01-01T03:02:12Z</time></trkpt><trkpt lat="42.387115" lon="-2.847873"><ele>665.854</ele><time>2010-01-01T03:00:45Z</time></trkpt><trkpt lat="42.381189" lon="-2.852466"><ele>696.656</ele><time>2010-01-01T02:56:11Z</time></trkpt><trkpt lat="42.380730" lon="-2.852655"><ele>700.511</ele><time>2010-01-01T02:55:52Z</time></trkpt><trkpt lat="42.370082" lon="-2.854249"><ele>745.009</ele><time>2010-01-01T02:48:43Z</time></trkpt><trkpt lat="42.369943" lon="-2.854019"><ele>744.196</ele><time>2010-01-01T02:48:35Z</time></trkpt><trkpt lat="42.369743" lon="-2.854046"><ele>745.196</ele><time>2010-01-01T02:48:27Z</time></trkpt><trkpt lat="42.369374" lon="-2.854195"><ele>745.643</ele><time>2010-01-01T02:48:11Z</time></trkpt><trkpt lat="42.369154" lon="-2.853911"><ele>744.422</ele><time>2010-01-01T02:47:59Z</time></trkpt><trkpt lat="42.368975" lon="-2.853411"><ele>741.017</ele><time>2010-01-01T02:47:42Z</time></trkpt><trkpt lat="42.368326" lon="-2.852452"><ele>735.439</ele><time>2010-01-01T02:47:04Z</time></trkpt><trkpt lat="42.367558" lon="-2.851844"><ele>731.382</ele><time>2010-01-01T02:46:28Z</time></trkpt><trkpt lat="42.367278" lon="-2.851466"><ele>729.078</ele><time>2010-01-01T02:46:12Z</time></trkpt><trkpt lat="42.366599" lon="-2.850183"><ele>727.769</ele><time>2010-01-01T02:45:26Z</time></trkpt><trkpt lat="42.366280" lon="-2.849926"><ele>729.595</ele><time>2010-01-01T02:45:11Z</time></trkpt><trkpt lat="42.365512" lon="-2.849778"><ele>734.049</ele><time>2010-01-01T02:44:40Z</time></trkpt><trkpt lat="42.365202" lon="-2.849940"><ele>733.223</ele><time>2010-01-01T02:44:26Z</time></trkpt><trkpt lat="42.364993" lon="-2.850372"><ele>729.409</ele><time>2010-01-01T02:44:11Z</time></trkpt><trkpt lat="42.364833" lon="-2.851858"><ele>725.910</ele><time>2010-01-01T02:43:27Z</time></trkpt><trkpt lat="42.364554" lon="-2.852371"><ele>720.620</ele><time>2010-01-01T02:43:08Z</time></trkpt><trkpt lat="42.364134" lon="-2.852479"><ele>718.667</ele><time>2010-01-01T02:42:51Z</time></trkpt><trkpt lat="42.363765" lon="-2.852344"><ele>716.416</ele><time>2010-01-01T02:42:35Z</time></trkpt><trkpt lat="42.363575" lon="-2.852061"><ele>715.761</ele><time>2010-01-01T02:42:24Z</time></trkpt><trkpt lat="42.363316" lon="-2.850156"><ele>711.613</ele><time>2010-01-01T02:41:26Z</time></trkpt><trkpt lat="42.363012" lon="-2.849642"><ele>709.086</ele><time>2010-01-01T02:41:07Z</time></trkpt><trkpt lat="42.358780" lon="-2.847427"><ele>716.282</ele><time>2010-01-01T02:38:05Z</time></trkpt><trkpt lat="42.358285" lon="-2.847346"><ele>717.213</ele><time>2010-01-01T02:37:45Z</time></trkpt><trkpt lat="42.357756" lon="-2.847738"><ele>712.671</ele><time>2010-01-01T02:37:21Z</time></trkpt><trkpt lat="42.357207" lon="-2.848576"><ele>712.041</ele><time>2010-01-01T02:36:48Z</time></trkpt><trkpt lat="42.356449" lon="-2.850899"><ele>709.615</ele><time>2010-01-01T02:35:33Z</time></trkpt><trkpt lat="42.356000" lon="-2.851453"><ele>705.709</ele><time>2010-01-01T02:35:08Z</time></trkpt><trkpt lat="42.352646" lon="-2.850534"><ele>710.778</ele><time>2010-01-01T02:32:51Z</time></trkpt><trkpt lat="42.348518" lon="-2.850722"><ele>719.358</ele><time>2010-01-01T02:30:05Z</time></trkpt><trkpt lat="42.347325" lon="-2.851372"><ele>725.455</ele><time>2010-01-01T02:29:14Z</time></trkpt><trkpt lat="42.345677" lon="-2.850858"><ele>732.854</ele><time>2010-01-01T02:28:05Z</time></trkpt><trkpt lat="42.344619" lon="-2.851399"><ele>731.039</ele><time>2010-01-01T02:27:20Z</time></trkpt><trkpt lat="42.344000" lon="-2.852277"><ele>729.441</ele><time>2010-01-01T02:26:44Z</time></trkpt><trkpt lat="42.343790" lon="-2.853357"><ele>727.394</ele><time>2010-01-01T02:26:11Z</time></trkpt><trkpt lat="42.343511" lon="-2.853857"><ele>724.780</ele><time>2010-01-01T02:25:53Z</time></trkpt><trkpt lat="42.343062" lon="-2.854262"><ele>722.451</ele><time>2010-01-01T02:25:31Z</time></trkpt><trkpt lat="42.342363" lon="-2.854141"><ele>722.899</ele><time>2010-01-01T02:25:03Z</time></trkpt><trkpt lat="42.341634" lon="-2.853290"><ele>727.107</ele><time>2010-01-01T02:24:24Z</time></trkpt><trkpt lat="42.341135" lon="-2.853074"><ele>728.127</ele><time>2010-01-01T02:24:03Z</time></trkpt><trkpt lat="42.339517" lon="-2.852547"><ele>725.609</ele><time>2010-01-01T02:22:56Z</time></trkpt><trkpt lat="42.338539" lon="-2.852520"><ele>725.240</ele><time>2010-01-01T02:22:17Z</time></trkpt><trkpt lat="42.337900" lon="-2.852587"><ele>722.970</ele><time>2010-01-01T02:21:51Z</time></trkpt><trkpt lat="42.336222" lon="-2.854168"><ele>734.467</ele><time>2010-01-01T02:20:30Z</time></trkpt><trkpt lat="42.334924" lon="-2.855951"><ele>730.456</ele><time>2010-01-01T02:19:16Z</time></trkpt><trkpt lat="42.334215" lon="-2.857167"><ele>733.911</ele><time>2010-01-01T02:18:30Z</time></trkpt><trkpt lat="42.332038" lon="-2.858882"><ele>729.913</ele><time>2010-01-01T02:16:49Z</time></trkpt><trkpt lat="42.331270" lon="-2.859801"><ele>727.986</ele><time>2010-01-01T02:16:08Z</time></trkpt><trkpt lat="42.330381" lon="-2.860449"><ele>729.522</ele><time>2010-01-01T02:15:27Z</time></trkpt><trkpt lat="42.329312" lon="-2.861651"><ele>732.473</ele><time>2010-01-01T02:14:31Z</time></trkpt><trkpt lat="42.328629" lon="-2.862771"><ele>733.371</ele><time>2010-01-01T02:13:48Z</time></trkpt><trkpt lat="42.327245" lon="-2.864636"><ele>734.341</ele><time>2010-01-01T02:12:30Z</time></trkpt><trkpt lat="42.326826" lon="-2.865406"><ele>737.215</ele><time>2010-01-01T02:12:02Z</time></trkpt><trkpt lat="42.326426" lon="-2.866500"><ele>741.609</ele><time>2010-01-01T02:11:26Z</time></trkpt><trkpt lat="42.326426" lon="-2.866203"><ele>738.698</ele><time>2010-01-01T02:11:17Z</time></trkpt><trkpt lat="42.326696" lon="-2.865474"><ele>732.638</ele><time>2010-01-01T02:10:53Z</time></trkpt><trkpt lat="42.326986" lon="-2.864825"><ele>732.465</ele><time>2010-01-01T02:10:30Z</time></trkpt><trkpt lat="42.327425" lon="-2.864164"><ele>730.644</ele><time>2010-01-01T02:10:04Z</time></trkpt><trkpt lat="42.328583" lon="-2.862583"><ele>729.599</ele><time>2010-01-01T02:08:58Z</time></trkpt><trkpt lat="42.329252" lon="-2.861543"><ele>729.111</ele><time>2010-01-01T02:08:17Z</time></trkpt><trkpt lat="42.330331" lon="-2.860327"><ele>725.554</ele><time>2010-01-01T02:07:21Z</time></trkpt><trkpt lat="42.331210" lon="-2.859747"><ele>726.730</ele><time>2010-01-01T02:06:42Z</time></trkpt><trkpt lat="42.332009" lon="-2.858760"><ele>726.861</ele><time>2010-01-01T02:05:59Z</time></trkpt><trkpt lat="42.334135" lon="-2.857099"><ele>731.025</ele><time>2010-01-01T02:04:20Z</time></trkpt><trkpt lat="42.335219" lon="-2.855315"><ele>726.526</ele><time>2010-01-01T02:03:12Z</time></trkpt><trkpt lat="42.336218" lon="-2.854072"><ele>732.208</ele><time>2010-01-01T02:02:17Z</time></trkpt><trkpt lat="42.337660" lon="-2.852682"><ele>721.109</ele><time>2010-01-01T02:01:06Z</time></trkpt><trkpt lat="42.337880" lon="-2.852466"><ele>721.423</ele><time>2010-01-01T02:00:56Z</time></trkpt><trkpt lat="42.338694" lon="-2.852452"><ele>724.593</ele><time>2010-01-01T02:00:23Z</time></trkpt><trkpt lat="42.339368" lon="-2.852371"><ele>724.390</ele><time>2010-01-01T01:59:56Z</time></trkpt><trkpt lat="42.339653" lon="-2.851803"><ele>722.919</ele><time>2010-01-01T01:59:36Z</time></trkpt><trkpt lat="42.339727" lon="-2.848049"><ele>705.964</ele><time>2010-01-01T01:57:44Z</time></trkpt><trkpt lat="42.339897" lon="-2.847941"><ele>703.346</ele><time>2010-01-01T01:57:35Z</time></trkpt><trkpt lat="42.340146" lon="-2.848238"><ele>701.899</ele><time>2010-01-01T01:57:22Z</time></trkpt><trkpt lat="42.340296" lon="-2.848346"><ele>700.055</ele><time>2010-01-01T01:57:15Z</time></trkpt><trkpt lat="42.340696" lon="-2.848278"><ele>698.456</ele><time>2010-01-01T01:56:58Z</time></trkpt><trkpt lat="42.340865" lon="-2.848157"><ele>697.934</ele><time>2010-01-01T01:56:51Z</time></trkpt><trkpt lat="42.341205" lon="-2.847279"><ele>695.155</ele><time>2010-01-01T01:56:21Z</time></trkpt><trkpt lat="42.341929" lon="-2.845914"><ele>697.310</ele><time>2010-01-01T01:55:31Z</time></trkpt><trkpt lat="42.343691" lon="-2.843740"><ele>689.509</ele><time>2010-01-01T01:53:56Z</time></trkpt><trkpt lat="42.346047" lon="-2.842213"><ele>686.444</ele><time>2010-01-01T01:52:11Z</time></trkpt><trkpt lat="42.352017" lon="-2.832961"><ele>669.984</ele><time>2010-01-01T01:46:08Z</time></trkpt><trkpt lat="42.357846" lon="-2.823951"><ele>648.541</ele><time>2010-01-01T01:40:14Z</time></trkpt><trkpt lat="42.359054" lon="-2.822073"><ele>635.870</ele><time>2010-01-01T01:39:00Z</time></trkpt><trkpt lat="42.360411" lon="-2.820912"><ele>633.365</ele><time>2010-01-01T01:37:56Z</time></trkpt><trkpt lat="42.361854" lon="-2.819330"><ele>631.727</ele><time>2010-01-01T01:36:41Z</time></trkpt><trkpt lat="42.365202" lon="-2.813780"><ele>627.650</ele><time>2010-01-01T01:33:09Z</time></trkpt><trkpt lat="42.365567" lon="-2.812847"><ele>628.676</ele><time>2010-01-01T01:32:38Z</time></trkpt><trkpt lat="42.365591" lon="-2.812010"><ele>627.317</ele><time>2010-01-01T01:32:13Z</time></trkpt><trkpt lat="42.365741" lon="-2.811200"><ele>626.428</ele><time>2010-01-01T01:31:48Z</time></trkpt><trkpt lat="42.366021" lon="-2.810592"><ele>626.889</ele><time>2010-01-01T01:31:27Z</time></trkpt><trkpt lat="42.367558" lon="-2.811767"><ele>635.117</ele><time>2010-01-01T01:30:17Z</time></trkpt><trkpt lat="42.368356" lon="-2.811916"><ele>631.909</ele><time>2010-01-01T01:29:44Z</time></trkpt><trkpt lat="42.370791" lon="-2.811389"><ele>616.293</ele><time>2010-01-01T01:28:05Z</time></trkpt><trkpt lat="42.372667" lon="-2.811267"><ele>623.863</ele><time>2010-01-01T01:26:50Z</time></trkpt><trkpt lat="42.374264" lon="-2.811186"><ele>613.030</ele><time>2010-01-01T01:25:45Z</time></trkpt><trkpt lat="42.376499" lon="-2.812213"><ele>595.879</ele><time>2010-01-01T01:24:11Z</time></trkpt><trkpt lat="42.378375" lon="-2.813428"><ele>591.154</ele><time>2010-01-01T01:22:47Z</time></trkpt><trkpt lat="42.379542" lon="-2.814171"><ele>594.466</ele><time>2010-01-01T01:21:56Z</time></trkpt><trkpt lat="42.379822" lon="-2.814185"><ele>596.179</ele><time>2010-01-01T01:21:45Z</time></trkpt><trkpt lat="42.380061" lon="-2.813942"><ele>598.865</ele><time>2010-01-01T01:21:33Z</time></trkpt><trkpt lat="42.380620" lon="-2.812240"><ele>600.896</ele><time>2010-01-01T01:20:37Z</time></trkpt><trkpt lat="42.381029" lon="-2.811997"><ele>602.674</ele><time>2010-01-01T01:20:19Z</time></trkpt><trkpt lat="42.381678" lon="-2.811821"><ele>601.056</ele><time>2010-01-01T01:19:53Z</time></trkpt><trkpt lat="42.382227" lon="-2.811861"><ele>597.321</ele><time>2010-01-01T01:19:31Z</time></trkpt><trkpt lat="42.383055" lon="-2.812496"><ele>590.009</ele><time>2010-01-01T01:18:53Z</time></trkpt><trkpt lat="42.383204" lon="-2.812766"><ele>588.788</ele><time>2010-01-01T01:18:43Z</time></trkpt><trkpt lat="42.383174" lon="-2.813766"><ele>588.728</ele><time>2010-01-01T01:18:12Z</time></trkpt><trkpt lat="42.384222" lon="-2.813996"><ele>584.565</ele><time>2010-01-01T01:17:29Z</time></trkpt><trkpt lat="42.384621" lon="-2.815009"><ele>588.554</ele><time>2010-01-01T01:16:54Z</time></trkpt><trkpt lat="42.384940" lon="-2.815373"><ele>587.569</ele><time>2010-01-01T01:16:37Z</time></trkpt><trkpt lat="42.385339" lon="-2.814982"><ele>590.821</ele><time>2010-01-01T01:16:17Z</time></trkpt><trkpt lat="42.385479" lon="-2.814522"><ele>593.614</ele><time>2010-01-01T01:16:02Z</time></trkpt><trkpt lat="42.385599" lon="-2.813996"><ele>595.860</ele><time>2010-01-01T01:15:46Z</time></trkpt><trkpt lat="42.386307" lon="-2.812064"><ele>598.231</ele><time>2010-01-01T01:14:41Z</time></trkpt><trkpt lat="42.386836" lon="-2.808485"><ele>600.092</ele><time>2010-01-01T01:12:53Z</time></trkpt><trkpt lat="42.387265" lon="-2.807552"><ele>599.273</ele><time>2010-01-01T01:12:21Z</time></trkpt><trkpt lat="42.387704" lon="-2.807107"><ele>599.520</ele><time>2010-01-01T01:11:59Z</time></trkpt><trkpt lat="42.388253" lon="-2.806742"><ele>600.009</ele><time>2010-01-01T01:11:34Z</time></trkpt><trkpt lat="42.388951" lon="-2.806661"><ele>599.040</ele><time>2010-01-01T01:11:06Z</time></trkpt><trkpt lat="42.389709" lon="-2.806904"><ele>601.770</ele><time>2010-01-01T01:10:35Z</time></trkpt><trkpt lat="42.390567" lon="-2.807201"><ele>607.297</ele><time>2010-01-01T01:10:00Z</time></trkpt><trkpt lat="42.391036" lon="-2.807661"><ele>610.666</ele><time>2010-01-01T01:09:36Z</time></trkpt><trkpt lat="42.391431" lon="-2.808200"><ele>609.051</ele><time>2010-01-01T01:09:14Z</time></trkpt><trkpt lat="42.392588" lon="-2.809335"><ele>610.063</ele><time>2010-01-01T01:08:17Z</time></trkpt><trkpt lat="42.393386" lon="-2.809659"><ele>605.726</ele><time>2010-01-01T01:07:43Z</time></trkpt><trkpt lat="42.394089" lon="-2.810011"><ele>596.912</ele><time>2010-01-01T01:07:13Z</time></trkpt><trkpt lat="42.395426" lon="-2.811362"><ele>585.523</ele><time>2010-01-01T01:06:07Z</time></trkpt><trkpt lat="42.398019" lon="-2.813118"><ele>581.383</ele><time>2010-01-01T01:04:10Z</time></trkpt><trkpt lat="42.398737" lon="-2.813550"><ele>578.525</ele><time>2010-01-01T01:03:39Z</time></trkpt><trkpt lat="42.399850" lon="-2.814468"><ele>580.617</ele><time>2010-01-01T01:02:47Z</time></trkpt><trkpt lat="42.401127" lon="-2.815926"><ele>584.409</ele><time>2010-01-01T01:01:40Z</time></trkpt><trkpt lat="42.401690" lon="-2.816873"><ele>586.049</ele><time>2010-01-01T01:01:04Z</time></trkpt><trkpt lat="42.402189" lon="-2.817386"><ele>586.089</ele><time>2010-01-01T01:00:39Z</time></trkpt><trkpt lat="42.403067" lon="-2.817954"><ele>583.066</ele><time>2010-01-01T01:00:00Z</time></trkpt><trkpt lat="42.404443" lon="-2.818575"><ele>578.135</ele><time>2010-01-01T00:59:02Z</time></trkpt><trkpt lat="42.406074" lon="-2.818412"><ele>575.360</ele><time>2010-01-01T00:57:56Z</time></trkpt><trkpt lat="42.408877" lon="-2.818777"><ele>575.232</ele><time>2010-01-01T00:56:03Z</time></trkpt><trkpt lat="42.409535" lon="-2.818466"><ele>573.555</ele><time>2010-01-01T00:55:35Z</time></trkpt><trkpt lat="42.410134" lon="-2.818263"><ele>573.091</ele><time>2010-01-01T00:55:10Z</time></trkpt><trkpt lat="42.410971" lon="-2.818344"><ele>572.082</ele><time>2010-01-01T00:54:36Z</time></trkpt><trkpt lat="42.411251" lon="-2.818466"><ele>572.095</ele><time>2010-01-01T00:54:25Z</time></trkpt><trkpt lat="42.412288" lon="-2.818790"><ele>570.549</ele><time>2010-01-01T00:53:42Z</time></trkpt><trkpt lat="42.413499" lon="-2.817710"><ele>567.423</ele><time>2010-01-01T00:52:44Z</time></trkpt><trkpt lat="42.413953" lon="-2.817061"><ele>566.009</ele><time>2010-01-01T00:52:17Z</time></trkpt><trkpt lat="42.414392" lon="-2.816926"><ele>565.260</ele><time>2010-01-01T00:51:59Z</time></trkpt><trkpt lat="42.414921" lon="-2.816007"><ele>564.370</ele><time>2010-01-01T00:51:25Z</time></trkpt><trkpt lat="42.415589" lon="-2.815184"><ele>563.097</ele><time>2010-01-01T00:50:49Z</time></trkpt><trkpt lat="42.415868" lon="-2.814846"><ele>562.096</ele><time>2010-01-01T00:50:34Z</time></trkpt><trkpt lat="42.416486" lon="-2.812577"><ele>559.451</ele><time>2010-01-01T00:49:21Z</time></trkpt><trkpt lat="42.417149" lon="-2.810902"><ele>557.033</ele><time>2010-01-01T00:48:25Z</time></trkpt><trkpt lat="42.417643" lon="-2.809780"><ele>555.066</ele><time>2010-01-01T00:47:47Z</time></trkpt><trkpt lat="42.418046" lon="-2.809227"><ele>554.082</ele><time>2010-01-01T00:47:24Z</time></trkpt><trkpt lat="42.418770" lon="-2.807930"><ele>552.053</ele><time>2010-01-01T00:46:35Z</time></trkpt><trkpt lat="42.419847" lon="-2.806674"><ele>549.692</ele><time>2010-01-01T00:45:39Z</time></trkpt><trkpt lat="42.420644" lon="-2.806052"><ele>547.773</ele><time>2010-01-01T00:45:02Z</time></trkpt><trkpt lat="42.421173" lon="-2.805417"><ele>546.020</ele><time>2010-01-01T00:44:33Z</time></trkpt><trkpt lat="42.423427" lon="-2.803148"><ele>541.009</ele><time>2010-01-01T00:42:41Z</time></trkpt><trkpt lat="42.424164" lon="-2.802729"><ele>540.270</ele><time>2010-01-01T00:42:09Z</time></trkpt><trkpt lat="42.424424" lon="-2.802594"><ele>540.730</ele><time>2010-01-01T00:41:58Z</time></trkpt><trkpt lat="42.424613" lon="-2.802135"><ele>541.197</ele><time>2010-01-01T00:41:39Z</time></trkpt><trkpt lat="42.424184" lon="-2.800919"><ele>547.686</ele><time>2010-01-01T00:40:59Z</time></trkpt><trkpt lat="42.423566" lon="-2.799501"><ele>550.441</ele><time>2010-01-01T00:40:10Z</time></trkpt><trkpt lat="42.423117" lon="-2.797853"><ele>550.533</ele><time>2010-01-01T00:39:18Z</time></trkpt><trkpt lat="42.422958" lon="-2.797745"><ele>551.046</ele><time>2010-01-01T00:39:10Z</time></trkpt><trkpt lat="42.422948" lon="-2.797448"><ele>550.862</ele><time>2010-01-01T00:39:01Z</time></trkpt><trkpt lat="42.422868" lon="-2.796529"><ele>548.033</ele><time>2010-01-01T00:38:34Z</time></trkpt><trkpt lat="42.422340" lon="-2.793639"><ele>544.386</ele><time>2010-01-01T00:37:06Z</time></trkpt><trkpt lat="42.421981" lon="-2.792436"><ele>544.560</ele><time>2010-01-01T00:36:27Z</time></trkpt><trkpt lat="42.420814" lon="-2.789222"><ele>549.526</ele><time>2010-01-01T00:34:41Z</time></trkpt><trkpt lat="42.420694" lon="-2.788330"><ele>547.509</ele><time>2010-01-01T00:34:14Z</time></trkpt><trkpt lat="42.420180" lon="-2.782347"><ele>547.659</ele><time>2010-01-01T00:31:15Z</time></trkpt><trkpt lat="42.420140" lon="-2.780483"><ele>547.719</ele><time>2010-01-01T00:30:20Z</time></trkpt><trkpt lat="42.419906" lon="-2.779429"><ele>547.776</ele><time>2010-01-01T00:29:48Z</time></trkpt><trkpt lat="42.419757" lon="-2.777889"><ele>548.455</ele><time>2010-01-01T00:29:02Z</time></trkpt><trkpt lat="42.420056" lon="-2.775883"><ele>547.040</ele><time>2010-01-01T00:28:01Z</time></trkpt><trkpt lat="42.420495" lon="-2.769041"><ele>538.852</ele><time>2010-01-01T00:24:38Z</time></trkpt><trkpt lat="42.420425" lon="-2.767933"><ele>543.115</ele><time>2010-01-01T00:24:05Z</time></trkpt><trkpt lat="42.420465" lon="-2.767596"><ele>543.171</ele><time>2010-01-01T00:23:55Z</time></trkpt><trkpt lat="42.420625" lon="-2.766637"><ele>543.212</ele><time>2010-01-01T00:23:26Z</time></trkpt><trkpt lat="42.421143" lon="-2.763867"><ele>541.013</ele><time>2010-01-01T00:22:01Z</time></trkpt><trkpt lat="42.421312" lon="-2.762835"><ele>540.143</ele><time>2010-01-01T00:21:30Z</time></trkpt><trkpt lat="42.421861" lon="-2.760247"><ele>538.007</ele><time>2010-01-01T00:20:11Z</time></trkpt><trkpt lat="42.422938" lon="-2.755114"><ele>523.409</ele><time>2010-01-01T00:17:33Z</time></trkpt><trkpt lat="42.423167" lon="-2.753353"><ele>519.642</ele><time>2010-01-01T00:16:40Z</time></trkpt><trkpt lat="42.423367" lon="-2.752102"><ele>518.852</ele><time>2010-01-01T00:16:02Z</time></trkpt><trkpt lat="42.423506" lon="-2.750306"><ele>513.889</ele><time>2010-01-01T00:15:09Z</time></trkpt><trkpt lat="42.424414" lon="-2.742458"><ele>496.938</ele><time>2010-01-01T00:11:14Z</time></trkpt><trkpt lat="42.424653" lon="-2.740026"><ele>493.293</ele><time>2010-01-01T00:10:01Z</time></trkpt><trkpt lat="42.424962" lon="-2.738581"><ele>492.965</ele><time>2010-01-01T00:09:17Z</time></trkpt><trkpt lat="42.424184" lon="-2.736001"><ele>489.748</ele><time>2010-01-01T00:07:54Z</time></trkpt><trkpt lat="42.423207" lon="-2.734731"><ele>490.294</ele><time>2010-01-01T00:07:00Z</time></trkpt><trkpt lat="42.422360" lon="-2.734610"><ele>496.195</ele><time>2010-01-01T00:06:26Z</time></trkpt><trkpt lat="42.420116" lon="-2.734245"><ele>482.817</ele><time>2010-01-01T00:04:55Z</time></trkpt><trkpt lat="42.419398" lon="-2.733502"><ele>483.087</ele><time>2010-01-01T00:04:19Z</time></trkpt><trkpt lat="42.418939" lon="-2.733380"><ele>483.815</ele><time>2010-01-01T00:04:00Z</time></trkpt><trkpt lat="42.417493" lon="-2.733374"><ele>485.809</ele><time>2010-01-01T00:03:02Z</time></trkpt><trkpt lat="42.417413" lon="-2.732996"><ele>484.162</ele><time>2010-01-01T00:02:50Z</time></trkpt><trkpt lat="42.417363" lon="-2.732348"><ele>485.052</ele><time>2010-01-01T00:02:31Z</time></trkpt><trkpt lat="42.417284" lon="-2.732124"><ele>485.959</ele><time>2010-01-01T00:02:24Z</time></trkpt><trkpt lat="42.417134" lon="-2.732070"><ele>486.058</ele><time>2010-01-01T00:02:18Z</time></trkpt><trkpt lat="42.417134" lon="-2.731875"><ele>486.083</ele><time>2010-01-01T00:02:12Z</time></trkpt><trkpt lat="42.416605" lon="-2.731531"><ele>485.935</ele><time>2010-01-01T00:01:47Z</time></trkpt><trkpt lat="42.416526" lon="-2.731490"><ele>485.878</ele><time>2010-01-01T00:01:44Z</time></trkpt><trkpt lat="42.416726" lon="-2.731300"><ele>486.014</ele><time>2010-01-01T00:01:34Z</time></trkpt><trkpt lat="42.416965" lon="-2.730814"><ele>486.115</ele><time>2010-01-01T00:01:16Z</time></trkpt><trkpt lat="42.417019" lon="-2.730457"><ele>487.458</ele><time>2010-01-01T00:01:05Z</time></trkpt><trkpt lat="42.416924" lon="-2.730288"><ele>488.052</ele><time>2010-01-01T00:00:57Z</time></trkpt><trkpt lat="42.417044" lon="-2.730254"><ele>488.117</ele><time>2010-01-01T00:00:52Z</time></trkpt><trkpt lat="42.417343" lon="-2.729849"><ele>488.009</ele><time>2010-01-01T00:00:32Z</time></trkpt><trkpt lat="42.417632" lon="-2.729140"><ele>489.136</ele><time>2010-01-01T00:00:08Z</time></trkpt><trkpt lat="42.417637" lon="-2.728957"><ele>489.846</ele><time>2010-01-01T00:00:02Z</time></trkpt><trkpt lat="42.417687" lon="-2.728978"><ele>489.763</ele><time>2010-01-01T00:00:00Z</time></trkpt><trkpt lat="42.417753" lon="-2.728693"><ele>491.432</ele><time>2010-01-01T03:19:51Z</time></trkpt><trkpt lat="42.417902" lon="-2.728126"><ele>494.197</ele><time>2010-01-01T03:19:33Z</time></trkpt><trkpt lat="42.418286" lon="-2.726296"><ele>502.519</ele><time>2010-01-01T03:18:37Z</time></trkpt><trkpt lat="42.418261" lon="-2.725519"><ele>502.532</ele><time>2010-01-01T03:18:14Z</time></trkpt><trkpt lat="42.418226" lon="-2.725081"><ele>502.898</ele><time>2010-01-01T03:18:01Z</time></trkpt><trkpt lat="42.418445" lon="-2.722663"><ele>506.249</ele><time>2010-01-01T03:16:44Z</time></trkpt><trkpt lat="42.418605" lon="-2.721190"><ele>508.068</ele><time>2010-01-01T03:15:59Z</time></trkpt><trkpt lat="42.418505" lon="-2.719495"><ele>509.742</ele><time>2010-01-01T03:15:09Z</time></trkpt><trkpt lat="42.417618" lon="-2.716193"><ele>516.426</ele><time>2010-01-01T03:13:24Z</time></trkpt><trkpt lat="42.417622" lon="-2.715666"><ele>517.609</ele><time>2010-01-01T03:13:07Z</time></trkpt><trkpt lat="42.417703" lon="-2.715375"><ele>518.037</ele><time>2010-01-01T03:12:58Z</time></trkpt><trkpt lat="42.417244" lon="-2.714929"><ele>518.987</ele><time>2010-01-01T03:12:35Z</time></trkpt><trkpt lat="42.416835" lon="-2.713632"><ele>521.044</ele><time>2010-01-01T03:11:53Z</time></trkpt><trkpt lat="42.416077" lon="-2.709755"><ele>527.073</ele><time>2010-01-01T03:09:53Z</time></trkpt><trkpt lat="42.416067" lon="-2.709350"><ele>527.258</ele><time>2010-01-01T03:09:41Z</time></trkpt><trkpt lat="42.415828" lon="-2.706878"><ele>529.020</ele><time>2010-01-01T03:08:28Z</time></trkpt><trkpt lat="42.415689" lon="-2.704703"><ele>528.583</ele><time>2010-01-01T03:07:23Z</time></trkpt><trkpt lat="42.415519" lon="-2.703312"><ele>528.189</ele><time>2010-01-01T03:06:41Z</time></trkpt><trkpt lat="42.415374" lon="-2.702651"><ele>529.070</ele><time>2010-01-01T03:06:21Z</time></trkpt><trkpt lat="42.415698" lon="-2.700340"><ele>531.423</ele><time>2010-01-01T03:05:11Z</time></trkpt><trkpt lat="42.416067" lon="-2.699949"><ele>531.283</ele><time>2010-01-01T03:04:52Z</time></trkpt><trkpt lat="42.416147" lon="-2.699773"><ele>530.811</ele><time>2010-01-01T03:04:46Z</time></trkpt><trkpt lat="42.415798" lon="-2.699530"><ele>530.909</ele><time>2010-01-01T03:04:30Z</time></trkpt><trkpt lat="42.415264" lon="-2.699382"><ele>531.833</ele><time>2010-01-01T03:04:08Z</time></trkpt><trkpt lat="42.414396" lon="-2.698639"><ele>533.483</ele><time>2010-01-01T03:03:27Z</time></trkpt><trkpt lat="42.414322" lon="-2.698544"><ele>533.970</ele><time>2010-01-01T03:03:22Z</time></trkpt><trkpt lat="42.414432" lon="-2.698247"><ele>534.619</ele><time>2010-01-01T03:03:12Z</time></trkpt><trkpt lat="42.414262" lon="-2.697747"><ele>537.324</ele><time>2010-01-01T03:02:56Z</time></trkpt><trkpt lat="42.414093" lon="-2.696896"><ele>539.326</ele><time>2010-01-01T03:02:30Z</time></trkpt><trkpt lat="42.414257" lon="-2.696194"><ele>538.099</ele><time>2010-01-01T03:02:08Z</time></trkpt><trkpt lat="42.414177" lon="-2.695978"><ele>538.985</ele><time>2010-01-01T03:02:01Z</time></trkpt><trkpt lat="42.414127" lon="-2.695668"><ele>539.716</ele><time>2010-01-01T03:01:51Z</time></trkpt><trkpt lat="42.414033" lon="-2.695113"><ele>542.659</ele><time>2010-01-01T03:01:34Z</time></trkpt><trkpt lat="42.413674" lon="-2.694694"><ele>543.903</ele><time>2010-01-01T03:01:15Z</time></trkpt><trkpt lat="42.413494" lon="-2.693505"><ele>548.423</ele><time>2010-01-01T03:00:39Z</time></trkpt><trkpt lat="42.413235" lon="-2.692155"><ele>557.409</ele><time>2010-01-01T02:59:58Z</time></trkpt><trkpt lat="42.413225" lon="-2.691790"><ele>557.796</ele><time>2010-01-01T02:59:47Z</time></trkpt><trkpt lat="42.413249" lon="-2.691210"><ele>558.186</ele><time>2010-01-01T02:59:30Z</time></trkpt><trkpt lat="42.413295" lon="-2.691020"><ele>558.673</ele><time>2010-01-01T02:59:24Z</time></trkpt><trkpt lat="42.413385" lon="-2.689885"><ele>559.592</ele><time>2010-01-01T02:58:50Z</time></trkpt><trkpt lat="42.413435" lon="-2.688886"><ele>558.817</ele><time>2010-01-01T02:58:21Z</time></trkpt><trkpt lat="42.413325" lon="-2.687724"><ele>562.129</ele><time>2010-01-01T02:57:46Z</time></trkpt><trkpt lat="42.413365" lon="-2.686860"><ele>563.942</ele><time>2010-01-01T02:57:21Z</time></trkpt><trkpt lat="42.413654" lon="-2.685360"><ele>566.518</ele><time>2010-01-01T02:56:34Z</time></trkpt><trkpt lat="42.414252" lon="-2.683307"><ele>570.919</ele><time>2010-01-01T02:55:29Z</time></trkpt><trkpt lat="42.414382" lon="-2.681294"><ele>575.357</ele><time>2010-01-01T02:54:29Z</time></trkpt><trkpt lat="42.414462" lon="-2.680646"><ele>577.000</ele><time>2010-01-01T02:54:10Z</time></trkpt><trkpt lat="42.414881" lon="-2.678741"><ele>585.320</ele><time>2010-01-01T02:53:11Z</time></trkpt><trkpt lat="42.415005" lon="-2.678067"><ele>584.009</ele><time>2010-01-01T02:52:50Z</time></trkpt><trkpt lat="42.414911" lon="-2.677445"><ele>582.666</ele><time>2010-01-01T02:52:31Z</time></trkpt><trkpt lat="42.414572" lon="-2.676688"><ele>580.716</ele><time>2010-01-01T02:52:05Z</time></trkpt><trkpt lat="42.413594" lon="-2.674527"><ele>576.483</ele><time>2010-01-01T02:50:49Z</time></trkpt><trkpt lat="42.413624" lon="-2.673636"><ele>574.962</ele><time>2010-01-01T02:50:23Z</time></trkpt><trkpt lat="42.413405" lon="-2.672839"><ele>579.427</ele><time>2010-01-01T02:49:57Z</time></trkpt><trkpt lat="42.413110" lon="-2.670935"><ele>589.659</ele><time>2010-01-01T02:48:58Z</time></trkpt><trkpt lat="42.412197" lon="-2.667754"><ele>596.262</ele><time>2010-01-01T02:47:17Z</time></trkpt><trkpt lat="42.411869" lon="-2.665963"><ele>599.888</ele><time>2010-01-01T02:46:23Z</time></trkpt><trkpt lat="42.411749" lon="-2.665031"><ele>602.159</ele><time>2010-01-01T02:45:55Z</time></trkpt><trkpt lat="42.411694" lon="-2.664107"><ele>606.995</ele><time>2010-01-01T02:45:27Z</time></trkpt><trkpt lat="42.411444" lon="-2.663539"><ele>609.549</ele><time>2010-01-01T02:45:08Z</time></trkpt><trkpt lat="42.411365" lon="-2.662688"><ele>609.923</ele><time>2010-01-01T02:44:42Z</time></trkpt><trkpt lat="42.411440" lon="-2.661465"><ele>607.409</ele><time>2010-01-01T02:44:06Z</time></trkpt><trkpt lat="42.411355" lon="-2.660628"><ele>608.520</ele><time>2010-01-01T02:43:41Z</time></trkpt><trkpt lat="42.411335" lon="-2.660237"><ele>609.850</ele><time>2010-01-01T02:43:29Z</time></trkpt><trkpt lat="42.411220" lon="-2.659278"><ele>610.427</ele><time>2010-01-01T02:43:00Z</time></trkpt><trkpt lat="42.410951" lon="-2.657474"><ele>613.286</ele><time>2010-01-01T02:42:06Z</time></trkpt><trkpt lat="42.410666" lon="-2.654192"><ele>616.421</ele><time>2010-01-01T02:40:28Z</time></trkpt><trkpt lat="42.410941" lon="-2.653057"><ele>621.273</ele><time>2010-01-01T02:39:53Z</time></trkpt><trkpt lat="42.410946" lon="-2.652348"><ele>619.886</ele><time>2010-01-01T02:39:32Z</time></trkpt><trkpt lat="42.410961" lon="-2.651774"><ele>618.872</ele><time>2010-01-01T02:39:14Z</time></trkpt><trkpt lat="42.411210" lon="-2.650693"><ele>623.123</ele><time>2010-01-01T02:38:39Z</time></trkpt><trkpt lat="42.411549" lon="-2.650227"><ele>625.615</ele><time>2010-01-01T02:38:20Z</time></trkpt><trkpt lat="42.413898" lon="-2.649356"><ele>635.665</ele><time>2010-01-01T02:36:42Z</time></trkpt><trkpt lat="42.414242" lon="-2.649065"><ele>637.411</ele><time>2010-01-01T02:36:26Z</time></trkpt><trkpt lat="42.415290" lon="-2.647836"><ele>639.509</ele><time>2010-01-01T02:35:31Z</time></trkpt><trkpt lat="42.417065" lon="-2.644067"><ele>650.772</ele><time>2010-01-01T02:33:18Z</time></trkpt><trkpt lat="42.417563" lon="-2.642676"><ele>651.522</ele><time>2010-01-01T02:32:33Z</time></trkpt><trkpt lat="42.417722" lon="-2.640677"><ele>644.549</ele><time>2010-01-01T02:31:33Z</time></trkpt><trkpt lat="42.417344" lon="-2.638988"><ele>638.828</ele><time>2010-01-01T02:30:41Z</time></trkpt><trkpt lat="42.416546" lon="-2.636948"><ele>632.153</ele><time>2010-01-01T02:29:33Z</time></trkpt><trkpt lat="42.413145" lon="-2.629378"><ele>615.075</ele><time>2010-01-01T02:25:11Z</time></trkpt><trkpt lat="42.413006" lon="-2.629303"><ele>614.978</ele><time>2010-01-01T02:25:05Z</time></trkpt><trkpt lat="42.412896" lon="-2.629249"><ele>615.214</ele><time>2010-01-01T02:25:00Z</time></trkpt><trkpt lat="42.412487" lon="-2.629027"><ele>616.055</ele><time>2010-01-01T02:24:43Z</time></trkpt><trkpt lat="42.412083" lon="-2.628000"><ele>617.256</ele><time>2010-01-01T02:24:08Z</time></trkpt><trkpt lat="42.410766" lon="-2.627994"><ele>615.059</ele><time>2010-01-01T02:23:15Z</time></trkpt><trkpt lat="42.409644" lon="-2.627541"><ele>618.014</ele><time>2010-01-01T02:22:29Z</time></trkpt><trkpt lat="42.409395" lon="-2.627386"><ele>620.109</ele><time>2010-01-01T02:22:18Z</time></trkpt><trkpt lat="42.408802" lon="-2.626866"><ele>615.096</ele><time>2010-01-01T02:21:49Z</time></trkpt><trkpt lat="42.408169" lon="-2.626534"><ele>617.276</ele><time>2010-01-01T02:21:22Z</time></trkpt><trkpt lat="42.406423" lon="-2.626035"><ele>628.373</ele><time>2010-01-01T02:20:10Z</time></trkpt><trkpt lat="42.405954" lon="-2.625940"><ele>631.642</ele><time>2010-01-01T02:19:51Z</time></trkpt><trkpt lat="42.405405" lon="-2.624968"><ele>632.367</ele><time>2010-01-01T02:19:15Z</time></trkpt><trkpt lat="42.406124" lon="-2.623859"><ele>626.899</ele><time>2010-01-01T02:18:31Z</time></trkpt><trkpt lat="42.407829" lon="-2.622496"><ele>617.552</ele><time>2010-01-01T02:17:11Z</time></trkpt><trkpt lat="42.408318" lon="-2.621658"><ele>617.798</ele><time>2010-01-01T02:16:39Z</time></trkpt><trkpt lat="42.408588" lon="-2.621293"><ele>616.729</ele><time>2010-01-01T02:16:24Z</time></trkpt><trkpt lat="42.408722" lon="-2.620510"><ele>613.642</ele><time>2010-01-01T02:16:00Z</time></trkpt><trkpt lat="42.409011" lon="-2.620112"><ele>614.422</ele><time>2010-01-01T02:15:44Z</time></trkpt><trkpt lat="42.409406" lon="-2.619132"><ele>611.114</ele><time>2010-01-01T02:15:11Z</time></trkpt><trkpt lat="42.409575" lon="-2.618983"><ele>610.409</ele><time>2010-01-01T02:15:02Z</time></trkpt><trkpt lat="42.409765" lon="-2.618834"><ele>610.565</ele><time>2010-01-01T02:14:54Z</time></trkpt><trkpt lat="42.410104" lon="-2.617430"><ele>604.985</ele><time>2010-01-01T02:14:09Z</time></trkpt><trkpt lat="42.410902" lon="-2.615930"><ele>603.222</ele><time>2010-01-01T02:13:15Z</time></trkpt><trkpt lat="42.411291" lon="-2.614904"><ele>599.931</ele><time>2010-01-01T02:12:41Z</time></trkpt><trkpt lat="42.411454" lon="-2.614357"><ele>597.876</ele><time>2010-01-01T02:12:23Z</time></trkpt><trkpt lat="42.411619" lon="-2.614216"><ele>597.258</ele><time>2010-01-01T02:12:15Z</time></trkpt><trkpt lat="42.412202" lon="-2.614067"><ele>595.621</ele><time>2010-01-01T02:11:51Z</time></trkpt><trkpt lat="42.412337" lon="-2.612244"><ele>591.557</ele><time>2010-01-01T02:10:57Z</time></trkpt><trkpt lat="42.412717" lon="-2.610325"><ele>588.888</ele><time>2010-01-01T02:09:58Z</time></trkpt><trkpt lat="42.412896" lon="-2.609474"><ele>584.552</ele><time>2010-01-01T02:09:32Z</time></trkpt><trkpt lat="42.413684" lon="-2.606988"><ele>579.453</ele><time>2010-01-01T02:08:12Z</time></trkpt><trkpt lat="42.416247" lon="-2.600167"><ele>567.108</ele><time>2010-01-01T02:04:26Z</time></trkpt><trkpt lat="42.417094" lon="-2.598195"><ele>561.209</ele><time>2010-01-01T02:03:18Z</time></trkpt><trkpt lat="42.416934" lon="-2.598033"><ele>561.076</ele><time>2010-01-01T02:03:10Z</time></trkpt><trkpt lat="42.416530" lon="-2.598135"><ele>564.346</ele><time>2010-01-01T02:02:53Z</time></trkpt><trkpt lat="42.416107" lon="-2.596683"><ele>570.193</ele><time>2010-01-01T02:02:07Z</time></trkpt><trkpt lat="42.415659" lon="-2.595723"><ele>565.522</ele><time>2010-01-01T02:01:33Z</time></trkpt><trkpt lat="42.415120" lon="-2.595007"><ele>574.527</ele><time>2010-01-01T02:01:03Z</time></trkpt><trkpt lat="42.414905" lon="-2.594690"><ele>576.439</ele><time>2010-01-01T02:00:50Z</time></trkpt><trkpt lat="42.414656" lon="-2.594042"><ele>578.792</ele><time>2010-01-01T02:00:29Z</time></trkpt><trkpt lat="42.414671" lon="-2.593129"><ele>581.048</ele><time>2010-01-01T02:00:02Z</time></trkpt><trkpt lat="42.414950" lon="-2.591151"><ele>578.379</ele><time>2010-01-01T01:59:02Z</time></trkpt><trkpt lat="42.415160" lon="-2.588861"><ele>572.947</ele><time>2010-01-01T01:57:53Z</time></trkpt><trkpt lat="42.415055" lon="-2.587740"><ele>571.829</ele><time>2010-01-01T01:57:20Z</time></trkpt><trkpt lat="42.416246" lon="-2.587139"><ele>566.521</ele><time>2010-01-01T01:56:29Z</time></trkpt><trkpt lat="42.416646" lon="-2.586713"><ele>564.109</ele><time>2010-01-01T01:56:09Z</time></trkpt><trkpt lat="42.417453" lon="-2.585821"><ele>560.285</ele><time>2010-01-01T01:55:26Z</time></trkpt><trkpt lat="42.418969" lon="-2.584187"><ele>552.465</ele><time>2010-01-01T01:54:09Z</time></trkpt><trkpt lat="42.419578" lon="-2.583012"><ele>548.592</ele><time>2010-01-01T01:53:26Z</time></trkpt><trkpt lat="42.420724" lon="-2.581932"><ele>543.441</ele><time>2010-01-01T01:52:30Z</time></trkpt><trkpt lat="42.422179" lon="-2.580021"><ele>535.286</ele><time>2010-01-01T01:51:09Z</time></trkpt><trkpt lat="42.422858" lon="-2.579595"><ele>532.788</ele><time>2010-01-01T01:50:39Z</time></trkpt><trkpt lat="42.423108" lon="-2.579446"><ele>531.811</ele><time>2010-01-01T01:50:28Z</time></trkpt><trkpt lat="42.425849" lon="-2.577204"><ele>518.967</ele><time>2010-01-01T01:48:20Z</time></trkpt><trkpt lat="42.425899" lon="-2.577035"><ele>518.878</ele><time>2010-01-01T01:48:14Z</time></trkpt><trkpt lat="42.427205" lon="-2.573975"><ele>512.028</ele><time>2010-01-01T01:46:29Z</time></trkpt><trkpt lat="42.430027" lon="-2.568134"><ele>504.389</ele><time>2010-01-01T01:43:02Z</time></trkpt><trkpt lat="42.430690" lon="-2.564541"><ele>504.717</ele><time>2010-01-01T01:41:13Z</time></trkpt><trkpt lat="42.430814" lon="-2.563136"><ele>516.209</ele><time>2010-01-01T01:40:31Z</time></trkpt><trkpt lat="42.430171" lon="-2.562663"><ele>518.793</ele><time>2010-01-01T01:40:01Z</time></trkpt><trkpt lat="42.429509" lon="-2.562142"><ele>514.463</ele><time>2010-01-01T01:39:30Z</time></trkpt><trkpt lat="42.429508" lon="-2.561015"><ele>513.460</ele><time>2010-01-01T01:38:56Z</time></trkpt><trkpt lat="42.429588" lon="-2.560562"><ele>512.189</ele><time>2010-01-01T01:38:43Z</time></trkpt><trkpt lat="42.429722" lon="-2.560205"><ele>513.554</ele><time>2010-01-01T01:38:31Z</time></trkpt><trkpt lat="42.430221" lon="-2.559610"><ele>511.526</ele><time>2010-01-01T01:38:04Z</time></trkpt><trkpt lat="42.431303" lon="-2.559441"><ele>500.219</ele><time>2010-01-01T01:37:20Z</time></trkpt><trkpt lat="42.431946" lon="-2.559178"><ele>492.155</ele><time>2010-01-01T01:36:52Z</time></trkpt><trkpt lat="42.432599" lon="-2.559319"><ele>488.386</ele><time>2010-01-01T01:36:25Z</time></trkpt><trkpt lat="42.432589" lon="-2.558981"><ele>484.261</ele><time>2010-01-01T01:36:15Z</time></trkpt><trkpt lat="42.432853" lon="-2.558408"><ele>478.521</ele><time>2010-01-01T01:35:55Z</time></trkpt><trkpt lat="42.434763" lon="-2.551660"><ele>469.013</ele><time>2010-01-01T01:32:21Z</time></trkpt><trkpt lat="42.434972" lon="-2.550985"><ele>469.409</ele><time>2010-01-01T01:32:00Z</time></trkpt><trkpt lat="42.435535" lon="-2.550209"><ele>471.617</ele><time>2010-01-01T01:31:27Z</time></trkpt><trkpt lat="42.435904" lon="-2.549743"><ele>471.817</ele><time>2010-01-01T01:31:07Z</time></trkpt><trkpt lat="42.435580" lon="-2.548595"><ele>469.994</ele><time>2010-01-01T01:30:30Z</time></trkpt><trkpt lat="42.435570" lon="-2.547946"><ele>470.473</ele><time>2010-01-01T01:30:10Z</time></trkpt><trkpt lat="42.436487" lon="-2.542313"><ele>483.058</ele><time>2010-01-01T01:27:19Z</time></trkpt><trkpt lat="42.437055" lon="-2.540220"><ele>493.660</ele><time>2010-01-01T01:26:13Z</time></trkpt><trkpt lat="42.437335" lon="-2.539719"><ele>496.483</ele><time>2010-01-01T01:25:55Z</time></trkpt><trkpt lat="42.437942" lon="-2.537174"><ele>497.419</ele><time>2010-01-01T01:24:32Z</time></trkpt><trkpt lat="42.438471" lon="-2.535627"><ele>500.050</ele><time>2010-01-01T01:23:42Z</time></trkpt><trkpt lat="42.438521" lon="-2.535383"><ele>500.651</ele><time>2010-01-01T01:23:34Z</time></trkpt><trkpt lat="42.438894" lon="-2.532021"><ele>504.701</ele><time>2010-01-01T01:21:54Z</time></trkpt><trkpt lat="42.439548" lon="-2.529048"><ele>511.311</ele><time>2010-01-01T01:20:22Z</time></trkpt><trkpt lat="42.439826" lon="-2.526091"><ele>519.709</ele><time>2010-01-01T01:18:53Z</time></trkpt><trkpt lat="42.439887" lon="-2.524901"><ele>520.176</ele><time>2010-01-01T01:18:18Z</time></trkpt><trkpt lat="42.439967" lon="-2.524604"><ele>518.356</ele><time>2010-01-01T01:18:09Z</time></trkpt><trkpt lat="42.440090" lon="-2.523970"><ele>514.323</ele><time>2010-01-01T01:17:49Z</time></trkpt><trkpt lat="42.439927" lon="-2.523280"><ele>514.562</ele><time>2010-01-01T01:17:28Z</time></trkpt><trkpt lat="42.439433" lon="-2.522376"><ele>509.227</ele><time>2010-01-01T01:16:54Z</time></trkpt><trkpt lat="42.439223" lon="-2.521458"><ele>504.119</ele><time>2010-01-01T01:16:25Z</time></trkpt><trkpt lat="42.437828" lon="-2.518459"><ele>487.832</ele><time>2010-01-01T01:14:39Z</time></trkpt><trkpt lat="42.437553" lon="-2.517763"><ele>485.838</ele><time>2010-01-01T01:14:16Z</time></trkpt><trkpt lat="42.436866" lon="-2.516851"><ele>484.729</ele><time>2010-01-01T01:13:37Z</time></trkpt><trkpt lat="42.436557" lon="-2.516331"><ele>481.815</ele><time>2010-01-01T01:13:18Z</time></trkpt><trkpt lat="42.436606" lon="-2.516095"><ele>479.065</ele><time>2010-01-01T01:13:10Z</time></trkpt><trkpt lat="42.437444" lon="-2.515069"><ele>464.811</ele><time>2010-01-01T01:12:24Z</time></trkpt><trkpt lat="42.437584" lon="-2.514716"><ele>462.209</ele><time>2010-01-01T01:12:12Z</time></trkpt><trkpt lat="42.437764" lon="-2.514406"><ele>459.582</ele><time>2010-01-01T01:12:01Z</time></trkpt><trkpt lat="42.438272" lon="-2.514554"><ele>454.822</ele><time>2010-01-01T01:11:39Z</time></trkpt><trkpt lat="42.439010" lon="-2.515324"><ele>450.779</ele><time>2010-01-01T01:11:01Z</time></trkpt><trkpt lat="42.439678" lon="-2.515041"><ele>449.138</ele><time>2010-01-01T01:10:33Z</time></trkpt><trkpt lat="42.440096" lon="-2.514879"><ele>449.333</ele><time>2010-01-01T01:10:15Z</time></trkpt><trkpt lat="42.441421" lon="-2.514785"><ele>448.285</ele><time>2010-01-01T01:09:22Z</time></trkpt><trkpt lat="42.441502" lon="-2.514649"><ele>447.768</ele><time>2010-01-01T01:09:17Z</time></trkpt><trkpt lat="42.441307" lon="-2.513697"><ele>445.094</ele><time>2010-01-01T01:08:46Z</time></trkpt><trkpt lat="42.441442" lon="-2.513366"><ele>443.425</ele><time>2010-01-01T01:08:32Z</time></trkpt><trkpt lat="42.442459" lon="-2.513217"><ele>444.669</ele><time>2010-01-01T01:07:51Z</time></trkpt><trkpt lat="42.442892" lon="-2.513272"><ele>444.604</ele><time>2010-01-01T01:07:34Z</time></trkpt><trkpt lat="42.443310" lon="-2.513157"><ele>443.424</ele><time>2010-01-01T01:07:16Z</time></trkpt><trkpt lat="42.443844" lon="-2.512151"><ele>442.609</ele><time>2010-01-01T01:06:40Z</time></trkpt><trkpt lat="42.443994" lon="-2.512096"><ele>442.047</ele><time>2010-01-01T01:06:33Z</time></trkpt><trkpt lat="42.444432" lon="-2.513325"><ele>444.157</ele><time>2010-01-01T01:05:52Z</time></trkpt><trkpt lat="42.444901" lon="-2.513190"><ele>444.334</ele><time>2010-01-01T01:05:31Z</time></trkpt><trkpt lat="42.445628" lon="-2.511407"><ele>442.333</ele><time>2010-01-01T01:04:30Z</time></trkpt><trkpt lat="42.445912" lon="-2.510955"><ele>443.468</ele><time>2010-01-01T01:04:13Z</time></trkpt><trkpt lat="42.446745" lon="-2.509124"><ele>441.290</ele><time>2010-01-01T01:03:09Z</time></trkpt><trkpt lat="42.447043" lon="-2.508409"><ele>441.533</ele><time>2010-01-01T01:02:44Z</time></trkpt><trkpt lat="42.447084" lon="-2.507679"><ele>442.079</ele><time>2010-01-01T01:02:22Z</time></trkpt><trkpt lat="42.446854" lon="-2.507004"><ele>440.850</ele><time>2010-01-01T01:02:00Z</time></trkpt><trkpt lat="42.446765" lon="-2.506760"><ele>440.395</ele><time>2010-01-01T01:01:52Z</time></trkpt><trkpt lat="42.446704" lon="-2.505546"><ele>440.749</ele><time>2010-01-01T01:01:16Z</time></trkpt><trkpt lat="42.446745" lon="-2.505274"><ele>442.123</ele><time>2010-01-01T01:01:08Z</time></trkpt><trkpt lat="42.446924" lon="-2.505126"><ele>443.709</ele><time>2010-01-01T01:00:59Z</time></trkpt><trkpt lat="42.447173" lon="-2.504991"><ele>443.870</ele><time>2010-01-01T01:00:48Z</time></trkpt><trkpt lat="42.447557" lon="-2.504870"><ele>444.320</ele><time>2010-01-01T01:00:33Z</time></trkpt><trkpt lat="42.448678" lon="-2.504323"><ele>438.117</ele><time>2010-01-01T00:59:45Z</time></trkpt><trkpt lat="42.448623" lon="-2.504080"><ele>437.626</ele><time>2010-01-01T00:59:37Z</time></trkpt><trkpt lat="42.448399" lon="-2.503383"><ele>436.151</ele><time>2010-01-01T00:59:15Z</time></trkpt><trkpt lat="42.448290" lon="-2.502951"><ele>435.383</ele><time>2010-01-01T00:59:01Z</time></trkpt><trkpt lat="42.448483" lon="-2.502175"><ele>431.856</ele><time>2010-01-01T00:58:36Z</time></trkpt><trkpt lat="42.448340" lon="-2.501695"><ele>430.182</ele><time>2010-01-01T00:58:21Z</time></trkpt><trkpt lat="42.448294" lon="-2.501365"><ele>428.993</ele><time>2010-01-01T00:58:11Z</time></trkpt><trkpt lat="42.447751" lon="-2.501115"><ele>427.246</ele><time>2010-01-01T00:57:48Z</time></trkpt><trkpt lat="42.447666" lon="-2.500764"><ele>428.588</ele><time>2010-01-01T00:57:37Z</time></trkpt><trkpt lat="42.447806" lon="-2.500264"><ele>428.916</ele><time>2010-01-01T00:57:21Z</time></trkpt><trkpt lat="42.447806" lon="-2.499974"><ele>429.909</ele><time>2010-01-01T00:57:12Z</time></trkpt><trkpt lat="42.448090" lon="-2.499778"><ele>428.635</ele><time>2010-01-01T00:56:59Z</time></trkpt><trkpt lat="42.448419" lon="-2.499088"><ele>431.325</ele><time>2010-01-01T00:56:34Z</time></trkpt><trkpt lat="42.448618" lon="-2.498886"><ele>431.092</ele><time>2010-01-01T00:56:24Z</time></trkpt><trkpt lat="42.448743" lon="-2.498630"><ele>433.011</ele><time>2010-01-01T00:56:14Z</time></trkpt><trkpt lat="42.448778" lon="-2.498278"><ele>432.256</ele><time>2010-01-01T00:56:04Z</time></trkpt><trkpt lat="42.449156" lon="-2.498238"><ele>434.958</ele><time>2010-01-01T00:55:48Z</time></trkpt><trkpt lat="42.449336" lon="-2.498157"><ele>434.011</ele><time>2010-01-01T00:55:41Z</time></trkpt><trkpt lat="42.449829" lon="-2.497698"><ele>431.277</ele><time>2010-01-01T00:55:17Z</time></trkpt><trkpt lat="42.449959" lon="-2.495084"><ele>425.028</ele><time>2010-01-01T00:53:58Z</time></trkpt><trkpt lat="42.450078" lon="-2.494908"><ele>423.663</ele><time>2010-01-01T00:53:51Z</time></trkpt><trkpt lat="42.450272" lon="-2.495037"><ele>423.244</ele><time>2010-01-01T00:53:42Z</time></trkpt><trkpt lat="42.450373" lon="-2.495022"><ele>422.418</ele><time>2010-01-01T00:53:38Z</time></trkpt><trkpt lat="42.451738" lon="-2.490051"><ele>416.109</ele><time>2010-01-01T00:51:02Z</time></trkpt><trkpt lat="42.452715" lon="-2.487512"><ele>414.047</ele><time>2010-01-01T00:49:37Z</time></trkpt><trkpt lat="42.453003" lon="-2.486878"><ele>413.077</ele><time>2010-01-01T00:49:15Z</time></trkpt><trkpt lat="42.453453" lon="-2.483554"><ele>411.514</ele><time>2010-01-01T00:47:35Z</time></trkpt><trkpt lat="42.453671" lon="-2.482643"><ele>411.223</ele><time>2010-01-01T00:47:06Z</time></trkpt><trkpt lat="42.454414" lon="-2.480765"><ele>411.048</ele><time>2010-01-01T00:46:03Z</time></trkpt><trkpt lat="42.454977" lon="-2.479631"><ele>410.920</ele><time>2010-01-01T00:45:23Z</time></trkpt><trkpt lat="42.455091" lon="-2.478847"><ele>411.343</ele><time>2010-01-01T00:44:59Z</time></trkpt><trkpt lat="42.455291" lon="-2.477517"><ele>410.239</ele><time>2010-01-01T00:44:19Z</time></trkpt><trkpt lat="42.455695" lon="-2.477449"><ele>412.870</ele><time>2010-01-01T00:44:01Z</time></trkpt><trkpt lat="42.456048" lon="-2.476058"><ele>414.941</ele><time>2010-01-01T00:43:17Z</time></trkpt><trkpt lat="42.456407" lon="-2.474370"><ele>415.781</ele><time>2010-01-01T00:42:24Z</time></trkpt><trkpt lat="42.456562" lon="-2.473383"><ele>413.209</ele><time>2010-01-01T00:41:54Z</time></trkpt><trkpt lat="42.456915" lon="-2.472890"><ele>410.509</ele><time>2010-01-01T00:41:34Z</time></trkpt><trkpt lat="42.457159" lon="-2.472904"><ele>410.535</ele><time>2010-01-01T00:41:22Z</time></trkpt><trkpt lat="42.457289" lon="-2.472776"><ele>410.065</ele><time>2010-01-01T00:41:15Z</time></trkpt><trkpt lat="42.457917" lon="-2.471013"><ele>413.062</ele><time>2010-01-01T00:40:16Z</time></trkpt><trkpt lat="42.458275" lon="-2.470236"><ele>412.661</ele><time>2010-01-01T00:39:49Z</time></trkpt><trkpt lat="42.458316" lon="-2.469074"><ele>413.016</ele><time>2010-01-01T00:39:14Z</time></trkpt><trkpt lat="42.458256" lon="-2.468196"><ele>411.698</ele><time>2010-01-01T00:38:48Z</time></trkpt><trkpt lat="42.459073" lon="-2.467817"><ele>409.781</ele><time>2010-01-01T00:38:12Z</time></trkpt><trkpt lat="42.459133" lon="-2.467453"><ele>408.577</ele><time>2010-01-01T00:38:01Z</time></trkpt><trkpt lat="42.459163" lon="-2.466764"><ele>407.158</ele><time>2010-01-01T00:37:40Z</time></trkpt><trkpt lat="42.459905" lon="-2.463617"><ele>402.328</ele><time>2010-01-01T00:36:03Z</time></trkpt><trkpt lat="42.460214" lon="-2.462354"><ele>395.589</ele><time>2010-01-01T00:35:24Z</time></trkpt><trkpt lat="42.460423" lon="-2.462010"><ele>393.717</ele><time>2010-01-01T00:35:10Z</time></trkpt><trkpt lat="42.460617" lon="-2.461990"><ele>394.509</ele><time>2010-01-01T00:35:03Z</time></trkpt><trkpt lat="42.461146" lon="-2.461301"><ele>393.053</ele><time>2010-01-01T00:34:33Z</time></trkpt><trkpt lat="42.461325" lon="-2.461287"><ele>392.743</ele><time>2010-01-01T00:34:26Z</time></trkpt><trkpt lat="42.463468" lon="-2.462279"><ele>392.160</ele><time>2010-01-01T00:32:54Z</time></trkpt><trkpt lat="42.464015" lon="-2.460078"><ele>390.039</ele><time>2010-01-01T00:31:46Z</time></trkpt><trkpt lat="42.464110" lon="-2.459639"><ele>390.024</ele><time>2010-01-01T00:31:31Z</time></trkpt><trkpt lat="42.464583" lon="-2.457640"><ele>389.026</ele><time>2010-01-01T00:30:29Z</time></trkpt><trkpt lat="42.464653" lon="-2.457498"><ele>389.049</ele><time>2010-01-01T00:30:23Z</time></trkpt><trkpt lat="42.464833" lon="-2.456506"><ele>389.085</ele><time>2010-01-01T00:29:52Z</time></trkpt><trkpt lat="42.465191" lon="-2.455060"><ele>389.056</ele><time>2010-01-01T00:29:07Z</time></trkpt><trkpt lat="42.465356" lon="-2.455074"><ele>388.799</ele><time>2010-01-01T00:29:01Z</time></trkpt><trkpt lat="42.465520" lon="-2.455080"><ele>388.107</ele><time>2010-01-01T00:28:53Z</time></trkpt><trkpt lat="42.465415" lon="-2.454169"><ele>387.527</ele><time>2010-01-01T00:28:25Z</time></trkpt><trkpt lat="42.465840" lon="-2.452540"><ele>387.009</ele><time>2010-01-01T00:27:34Z</time></trkpt><trkpt lat="42.465998" lon="-2.451839"><ele>387.460</ele><time>2010-01-01T00:27:12Z</time></trkpt><trkpt lat="42.466078" lon="-2.451575"><ele>387.050</ele><time>2010-01-01T00:27:04Z</time></trkpt><trkpt lat="42.466388" lon="-2.451433"><ele>387.097</ele><time>2010-01-01T00:26:50Z</time></trkpt><trkpt lat="42.466477" lon="-2.451027"><ele>387.086</ele><time>2010-01-01T00:26:38Z</time></trkpt><trkpt lat="42.466646" lon="-2.450940"><ele>387.031</ele><time>2010-01-01T00:26:30Z</time></trkpt><trkpt lat="42.466716" lon="-2.449684"><ele>385.073</ele><time>2010-01-01T00:25:53Z</time></trkpt><trkpt lat="42.466980" lon="-2.449725"><ele>385.076</ele><time>2010-01-01T00:25:42Z</time></trkpt><trkpt lat="42.467662" lon="-2.447624"><ele>380.462</ele><time>2010-01-01T00:24:34Z</time></trkpt><trkpt lat="42.467598" lon="-2.447003"><ele>378.263</ele><time>2010-01-01T00:24:15Z</time></trkpt><trkpt lat="42.468036" lon="-2.445632"><ele>379.011</ele><time>2010-01-01T00:23:31Z</time></trkpt><trkpt lat="42.468590" lon="-2.443922"><ele>376.221</ele><time>2010-01-01T00:22:35Z</time></trkpt><trkpt lat="42.468778" lon="-2.443525"><ele>375.303</ele><time>2010-01-01T00:22:21Z</time></trkpt><trkpt lat="42.469027" lon="-2.443295"><ele>372.109</ele><time>2010-01-01T00:22:09Z</time></trkpt><trkpt lat="42.470044" lon="-2.443760"><ele>366.052</ele><time>2010-01-01T00:21:26Z</time></trkpt><trkpt lat="42.470866" lon="-2.444105"><ele>373.762</ele><time>2010-01-01T00:20:51Z</time></trkpt><trkpt lat="42.471010" lon="-2.443876"><ele>373.299</ele><time>2010-01-01T00:20:41Z</time></trkpt><trkpt lat="42.471120" lon="-2.443923"><ele>374.168</ele><time>2010-01-01T00:20:37Z</time></trkpt><trkpt lat="42.471578" lon="-2.442039"><ele>370.373</ele><time>2010-01-01T00:19:38Z</time></trkpt><trkpt lat="42.471848" lon="-2.441356"><ele>369.995</ele><time>2010-01-01T00:19:15Z</time></trkpt><trkpt lat="42.472744" lon="-2.440249"><ele>369.028</ele><time>2010-01-01T00:18:27Z</time></trkpt><trkpt lat="42.473855" lon="-2.439655"><ele>370.014</ele><time>2010-01-01T00:17:38Z</time></trkpt><trkpt lat="42.476141" lon="-2.439168"><ele>378.465</ele><time>2010-01-01T00:16:05Z</time></trkpt><trkpt lat="42.476415" lon="-2.438723"><ele>385.563</ele><time>2010-01-01T00:15:47Z</time></trkpt><trkpt lat="42.476899" lon="-2.437722"><ele>395.544</ele><time>2010-01-01T00:15:12Z</time></trkpt><trkpt lat="42.477795" lon="-2.437203"><ele>403.218</ele><time>2010-01-01T00:14:33Z</time></trkpt><trkpt lat="42.480376" lon="-2.435399"><ele>416.809</ele><time>2010-01-01T00:12:36Z</time></trkpt><trkpt lat="42.481561" lon="-2.434839"><ele>423.297</ele><time>2010-01-01T00:11:46Z</time></trkpt><trkpt lat="42.482319" lon="-2.434318"><ele>426.957</ele><time>2010-01-01T00:11:12Z</time></trkpt><trkpt lat="42.483284" lon="-2.433353"><ele>425.424</ele><time>2010-01-01T00:10:24Z</time></trkpt><trkpt lat="42.484051" lon="-2.432522"><ele>429.483</ele><time>2010-01-01T00:09:45Z</time></trkpt><trkpt lat="42.484763" lon="-2.431543"><ele>435.148</ele><time>2010-01-01T00:09:04Z</time></trkpt><trkpt lat="42.485665" lon="-2.428193"><ele>429.570</ele><time>2010-01-01T00:07:19Z</time></trkpt><trkpt lat="42.486184" lon="-2.426902"><ele>424.573</ele><time>2010-01-01T00:06:35Z</time></trkpt><trkpt lat="42.487618" lon="-2.424066"><ele>408.459</ele><time>2010-01-01T00:04:53Z</time></trkpt><trkpt lat="42.487997" lon="-2.423296"><ele>404.990</ele><time>2010-01-01T00:04:26Z</time></trkpt><trkpt lat="42.488265" lon="-2.422796"><ele>403.311</ele><time>2010-01-01T00:04:08Z</time></trkpt><trkpt lat="42.488505" lon="-2.422215"><ele>401.621</ele><time>2010-01-01T00:03:48Z</time></trkpt><trkpt lat="42.488768" lon="-2.420980"><ele>400.603</ele><time>2010-01-01T00:03:10Z</time></trkpt><trkpt lat="42.488883" lon="-2.420243"><ele>397.009</ele><time>2010-01-01T00:02:48Z</time></trkpt><trkpt lat="42.489122" lon="-2.420054"><ele>397.312</ele><time>2010-01-01T00:02:36Z</time></trkpt><trkpt lat="42.489107" lon="-2.419440"><ele>395.242</ele><time>2010-01-01T00:02:18Z</time></trkpt><trkpt lat="42.489151" lon="-2.418954"><ele>393.269</ele><time>2010-01-01T00:02:03Z</time></trkpt><trkpt lat="42.489654" lon="-2.418393"><ele>393.878</ele><time>2010-01-01T00:01:37Z</time></trkpt><trkpt lat="42.489863" lon="-2.418414"><ele>392.893</ele><time>2010-01-01T00:01:28Z</time></trkpt><trkpt lat="42.490581" lon="-2.415603"><ele>389.065</ele><time>2010-01-01T00:00:00Z</time></trkpt><trkpt lat="42.490956" lon="-2.413984"><ele>388.018</ele><time>2022-08-29T07:44:13Z</time></trkpt><trkpt lat="42.490438" lon="-2.413543"><ele>386.794</ele><time>2022-08-29T07:44:53Z</time></trkpt><trkpt lat="42.489516" lon="-2.411435"><ele>386.685</ele><time>2022-08-29T07:45:33Z</time></trkpt><trkpt lat="42.489266" lon="-2.411123"><ele>385.752</ele><time>2022-08-29T07:46:13Z</time></trkpt><trkpt lat="42.489209" lon="-2.410961"><ele>385.353</ele><time>2022-08-29T07:46:53Z</time></trkpt><trkpt lat="42.489914" lon="-2.409201"><ele>388.108</ele><time>2022-08-29T07:47:33Z</time></trkpt><trkpt lat="42.490150" lon="-2.407263"><ele>391.109</ele><time>2022-08-29T07:48:13Z</time></trkpt><trkpt lat="42.490079" lon="-2.405765"><ele>391.686</ele><time>2022-08-29T07:48:53Z</time></trkpt><trkpt lat="42.490152" lon="-2.405208"><ele>391.646</ele><time>2022-08-29T07:49:33Z</time></trkpt><trkpt lat="42.490289" lon="-2.405014"><ele>392.193</ele><time>2022-08-29T07:50:13Z</time></trkpt><trkpt lat="42.491969" lon="-2.404455"><ele>393.222</ele><time>2022-08-29T07:50:53Z</time></trkpt><trkpt lat="42.492887" lon="-2.403899"><ele>398.857</ele><time>2022-08-29T07:51:33Z</time></trkpt><trkpt lat="42.493325" lon="-2.403171"><ele>401.049</ele><time>2022-08-29T07:52:13Z</time></trkpt><trkpt lat="42.493836" lon="-2.401792"><ele>402.862</ele><time>2022-08-29T07:52:53Z</time></trkpt><trkpt lat="42.494737" lon="-2.399699"><ele>393.018</ele><time>2022-08-29T07:53:33Z</time></trkpt><trkpt lat="42.495164" lon="-2.398203"><ele>392.329</ele><time>2022-08-29T07:54:13Z</time></trkpt><trkpt lat="42.495561" lon="-2.395183"><ele>394.013</ele><time>2022-08-29T07:54:53Z</time></trkpt><trkpt lat="42.495580" lon="-2.394619"><ele>392.943</ele><time>2022-08-29T07:55:33Z</time></trkpt><trkpt lat="42.495895" lon="-2.393545"><ele>391.007</ele><time>2022-08-29T07:56:13Z</time></trkpt><trkpt lat="42.496050" lon="-2.391671"><ele>393.809</ele><time>2022-08-29T07:56:53Z</time></trkpt><trkpt lat="42.495900" lon="-2.390343"><ele>403.962</ele><time>2022-08-29T07:57:33Z</time></trkpt><trkpt lat="42.495901" lon="-2.390004"><ele>404.262</ele><time>2022-08-29T07:58:13Z</time></trkpt><trkpt lat="42.496082" lon="-2.388680"><ele>398.519</ele><time>2022-08-29T07:58:53Z</time></trkpt><trkpt lat="42.496600" lon="-2.388538"><ele>395.818</ele><time>2022-08-29T07:59:33Z</time></trkpt><trkpt lat="42.497509" lon="-2.388864"><ele>393.823</ele><time>2022-08-29T08:00:13Z</time></trkpt><trkpt lat="42.498290" lon="-2.388903"><ele>393.885</ele><time>2022-08-29T08:00:53Z</time></trkpt><trkpt lat="42.499517" lon="-2.388517"><ele>395.848</ele><time>2022-08-29T08:01:33Z</time></trkpt><trkpt lat="42.500386" lon="-2.387961"><ele>396.794</ele><time>2022-08-29T08:02:13Z</time></trkpt><trkpt lat="42.501295" lon="-2.388176"><ele>398.455</ele><time>2022-08-29T08:02:53Z</time></trkpt><trkpt lat="42.501728" lon="-2.388076"><ele>399.091</ele><time>2022-08-29T08:03:33Z</time></trkpt><trkpt lat="42.502140" lon="-2.387417"><ele>400.781</ele><time>2022-08-29T08:04:13Z</time></trkpt><trkpt lat="42.503294" lon="-2.386802"><ele>403.919</ele><time>2022-08-29T08:04:53Z</time></trkpt><trkpt lat="42.503724" lon="-2.386379"><ele>405.409</ele><time>2022-08-29T08:05:33Z</time></trkpt><trkpt lat="42.503819" lon="-2.386293"><ele>405.740</ele><time>2022-08-29T08:06:13Z</time></trkpt><trkpt lat="42.505108" lon="-2.384833"><ele>411.650</ele><time>2022-08-29T08:06:53Z</time></trkpt><trkpt lat="42.505301" lon="-2.384390"><ele>414.137</ele><time>2022-08-29T08:07:33Z</time></trkpt><trkpt lat="42.505367" lon="-2.384258"><ele>414.666</ele><time>2022-08-29T08:08:13Z</time></trkpt><trkpt lat="42.507266" lon="-2.383695"><ele>416.861</ele><time>2022-08-29T08:08:53Z</time></trkpt><trkpt lat="42.507809" lon="-2.382923"><ele>418.383</ele><time>2022-08-29T08:09:33Z</time></trkpt><trkpt lat="42.508174" lon="-2.382863"><ele>417.596</ele><time>2022-08-29T08:10:13Z</time></trkpt><trkpt lat="42.509239" lon="-2.381973"><ele>418.962</ele><time>2022-08-29T08:10:53Z</time></trkpt><trkpt lat="42.509753" lon="-2.381330"><ele>421.443</ele><time>2022-08-29T08:11:33Z</time></trkpt><trkpt lat="42.509914" lon="-2.380157"><ele>425.012</ele><time>2022-08-29T08:12:13Z</time></trkpt><trkpt lat="42.509975" lon="-2.379884"><ele>425.432</ele><time>2022-08-29T08:12:53Z</time></trkpt><trkpt lat="42.510375" lon="-2.379464"><ele>425.405</ele><time>2022-08-29T08:13:33Z</time></trkpt><trkpt lat="42.511140" lon="-2.379363"><ele>426.309</ele><time>2022-08-29T08:14:13Z</time></trkpt><trkpt lat="42.511502" lon="-2.379636"><ele>426.052</ele><time>2022-08-29T08:14:53Z</time></trkpt><trkpt lat="42.512121" lon="-2.379163"><ele>426.082</ele><time>2022-08-29T08:15:33Z</time></trkpt><trkpt lat="42.512843" lon="-2.379149"><ele>427.239</ele><time>2022-08-29T08:16:13Z</time></trkpt><trkpt lat="42.512821" lon="-2.378156"><ele>427.558</ele><time>2022-08-29T08:16:53Z</time></trkpt><trkpt lat="42.512808" lon="-2.377584"><ele>426.543</ele><time>2022-08-29T08:17:33Z</time></trkpt><trkpt lat="42.514240" lon="-2.377238"><ele>429.365</ele><time>2022-08-29T08:18:13Z</time></trkpt><trkpt lat="42.514663" lon="-2.376794"><ele>431.948</ele><time>2022-08-29T08:18:53Z</time></trkpt><trkpt lat="42.514758" lon="-2.376856"><ele>431.954</ele><time>2022-08-29T08:19:33Z</time></trkpt><trkpt lat="42.514972" lon="-2.376115"><ele>439.625</ele><time>2022-08-29T08:20:13Z</time></trkpt><trkpt lat="42.514855" lon="-2.375910"><ele>439.798</ele><time>2022-08-29T08:20:53Z</time></trkpt><trkpt lat="42.515152" lon="-2.375894"><ele>443.315</ele><time>2022-08-29T08:21:33Z</time></trkpt><trkpt lat="42.515143" lon="-2.374842"><ele>454.926</ele><time>2022-08-29T08:22:13Z</time></trkpt><trkpt lat="42.515554" lon="-2.374695"><ele>459.309</ele><time>2022-08-29T08:22:53Z</time></trkpt><trkpt lat="42.515469" lon="-2.374401"><ele>462.590</ele><time>2022-08-29T08:23:33Z</time></trkpt><trkpt lat="42.515279" lon="-2.374234"><ele>464.330</ele><time>2022-08-29T08:24:13Z</time></trkpt><trkpt lat="42.515138" lon="-2.373679"><ele>468.557</ele><time>2022-08-29T08:24:53Z</time></trkpt><trkpt lat="42.514814" lon="-2.373617"><ele>469.076</ele><time>2022-08-29T08:25:33Z</time></trkpt><trkpt lat="42.514831" lon="-2.373324"><ele>470.021</ele><time>2022-08-29T08:26:13Z</time></trkpt><trkpt lat="42.515027" lon="-2.370085"><ele>467.953</ele><time>2022-08-29T08:26:53Z</time></trkpt><trkpt lat="42.515292" lon="-2.370153"><ele>467.526</ele><time>2022-08-29T08:27:33Z</time></trkpt><trkpt lat="42.515406" lon="-2.369463"><ele>461.842</ele><time>2022-08-29T08:28:13Z</time></trkpt><trkpt lat="42.515147" lon="-2.369122"><ele>457.673</ele><time>2022-08-29T08:28:53Z</time></trkpt><trkpt lat="42.515514" lon="-2.366684"><ele>446.471</ele><time>2022-08-29T08:29:33Z</time></trkpt><trkpt lat="42.515451" lon="-2.364641"><ele>444.241</ele><time>2022-08-29T08:30:13Z</time></trkpt><trkpt lat="42.516205" lon="-2.361584"><ele>447.315</ele><time>2022-08-29T08:30:53Z</time></trkpt><trkpt lat="42.516722" lon="-2.359439"><ele>444.209</ele><time>2022-08-29T08:31:33Z</time></trkpt><trkpt lat="42.516681" lon="-2.358899"><ele>444.128</ele><time>2022-08-29T08:32:13Z</time></trkpt><trkpt lat="42.516951" lon="-2.358539"><ele>446.068</ele><time>2022-08-29T08:32:53Z</time></trkpt><trkpt lat="42.517074" lon="-2.358018"><ele>447.595</ele><time>2022-08-29T08:33:33Z</time></trkpt><trkpt lat="42.517207" lon="-2.357482"><ele>447.954</ele><time>2022-08-29T08:34:13Z</time></trkpt><trkpt lat="42.518021" lon="-2.354182"><ele>450.479</ele><time>2022-08-29T08:34:53Z</time></trkpt><trkpt lat="42.517986" lon="-2.351901"><ele>460.961</ele><time>2022-08-29T08:35:33Z</time></trkpt><trkpt lat="42.518284" lon="-2.350427"><ele>465.964</ele><time>2022-08-29T08:36:13Z</time></trkpt><trkpt lat="42.519737" lon="-2.343926"><ele>477.180</ele><time>2022-08-29T08:36:53Z</time></trkpt><trkpt lat="42.521142" lon="-2.340474"><ele>483.271</ele><time>2022-08-29T08:37:33Z</time></trkpt><trkpt lat="42.521839" lon="-2.339531"><ele>484.843</ele><time>2022-08-29T08:38:13Z</time></trkpt><trkpt lat="42.523488" lon="-2.337338"><ele>479.664</ele><time>2022-08-29T08:38:53Z</time></trkpt><trkpt lat="42.523793" lon="-2.336772"><ele>483.010</ele><time>2022-08-29T08:39:33Z</time></trkpt><trkpt lat="42.524291" lon="-2.333019"><ele>501.809</ele><time>2022-08-29T08:40:13Z</time></trkpt><trkpt lat="42.524673" lon="-2.331377"><ele>508.165</ele><time>2022-08-29T08:40:53Z</time></trkpt><trkpt lat="42.525064" lon="-2.331091"><ele>507.595</ele><time>2022-08-29T08:41:33Z</time></trkpt><trkpt lat="42.526486" lon="-2.331691"><ele>500.362</ele><time>2022-08-29T08:42:13Z</time></trkpt><trkpt lat="42.526827" lon="-2.331661"><ele>498.091</ele><time>2022-08-29T08:42:53Z</time></trkpt><trkpt lat="42.526949" lon="-2.331487"><ele>497.436</ele><time>2022-08-29T08:43:33Z</time></trkpt><trkpt lat="42.526936" lon="-2.330802"><ele>493.828</ele><time>2022-08-29T08:44:13Z</time></trkpt><trkpt lat="42.526357" lon="-2.329860"><ele>486.891</ele><time>2022-08-29T08:44:53Z</time></trkpt><trkpt lat="42.526222" lon="-2.329382"><ele>484.227</ele><time>2022-08-29T08:45:33Z</time></trkpt><trkpt lat="42.526275" lon="-2.327928"><ele>476.288</ele><time>2022-08-29T08:46:13Z</time></trkpt><trkpt lat="42.525982" lon="-2.327323"><ele>471.889</ele><time>2022-08-29T08:46:53Z</time></trkpt><trkpt lat="42.525956" lon="-2.326862"><ele>471.306</ele><time>2022-08-29T08:47:33Z</time></trkpt><trkpt lat="42.526298" lon="-2.324891"><ele>460.226</ele><time>2022-08-29T08:48:13Z</time></trkpt><trkpt lat="42.527329" lon="-2.323023"><ele>451.009</ele><time>2022-08-29T08:48:53Z</time></trkpt><trkpt lat="42.531427" lon="-2.321055"><ele>463.259</ele><time>2022-08-29T08:49:33Z</time></trkpt><trkpt lat="42.532256" lon="-2.321020"><ele>468.099</ele><time>2022-08-29T08:50:13Z</time></trkpt><trkpt lat="42.532907" lon="-2.320772"><ele>473.026</ele><time>2022-08-29T08:50:53Z</time></trkpt><trkpt lat="42.532952" lon="-2.320751"><ele>473.295</ele><time>2022-08-29T08:51:33Z</time></trkpt><trkpt lat="42.534570" lon="-2.318492"><ele>489.450</ele><time>2022-08-29T08:52:13Z</time></trkpt><trkpt lat="42.534834" lon="-2.316953"><ele>497.712</ele><time>2022-08-29T08:52:53Z</time></trkpt><trkpt lat="42.534108" lon="-2.315489"><ele>507.915</ele><time>2022-08-29T08:53:33Z</time></trkpt><trkpt lat="42.534007" lon="-2.314427"><ele>513.761</ele><time>2022-08-29T08:54:13Z</time></trkpt><trkpt lat="42.534196" lon="-2.314335"><ele>514.032</ele><time>2022-08-29T08:54:53Z</time></trkpt><trkpt lat="42.534870" lon="-2.314989"><ele>517.922</ele><time>2022-08-29T08:55:33Z</time></trkpt><trkpt lat="42.535694" lon="-2.314863"><ele>524.062</ele><time>2022-08-29T08:56:13Z</time></trkpt><trkpt lat="42.535873" lon="-2.314682"><ele>526.008</ele><time>2022-08-29T08:56:53Z</time></trkpt><trkpt lat="42.535753" lon="-2.314314"><ele>528.009</ele><time>2022-08-29T08:57:33Z</time></trkpt><trkpt lat="42.535204" lon="-2.313307"><ele>536.173</ele><time>2022-08-29T08:58:13Z</time></trkpt><trkpt lat="42.534915" lon="-2.312781"><ele>538.893</ele><time>2022-08-29T08:58:53Z</time></trkpt><trkpt lat="42.534701" lon="-2.311973"><ele>543.520</ele><time>2022-08-29T08:59:33Z</time></trkpt><trkpt lat="42.534800" lon="-2.311100"><ele>547.929</ele><time>2022-08-29T09:00:13Z</time></trkpt><trkpt lat="42.535252" lon="-2.309764"><ele>555.914</ele><time>2022-08-29T09:00:53Z</time></trkpt><trkpt lat="42.535408" lon="-2.309302"><ele>556.596</ele><time>2022-08-29T09:01:33Z</time></trkpt><trkpt lat="42.535697" lon="-2.309045"><ele>557.229</ele><time>2022-08-29T09:02:13Z</time></trkpt><trkpt lat="42.536258" lon="-2.307917"><ele>565.485</ele><time>2022-08-29T09:02:53Z</time></trkpt><trkpt lat="42.536560" lon="-2.307631"><ele>567.416</ele><time>2022-08-29T09:03:33Z</time></trkpt><trkpt lat="42.536811" lon="-2.307423"><ele>567.954</ele><time>2022-08-29T09:04:13Z</time></trkpt><trkpt lat="42.537918" lon="-2.306118"><ele>570.856</ele><time>2022-08-29T09:04:53Z</time></trkpt><trkpt lat="42.538551" lon="-2.306290"><ele>572.711</ele><time>2022-08-29T09:05:33Z</time></trkpt><trkpt lat="42.539635" lon="-2.306099"><ele>574.809</ele><time>2022-08-29T09:06:13Z</time></trkpt><trkpt lat="42.541303" lon="-2.306320"><ele>580.456</ele><time>2022-08-29T09:06:53Z</time></trkpt><trkpt lat="42.542673" lon="-2.306179"><ele>591.086</ele><time>2022-08-29T09:07:33Z</time></trkpt><trkpt lat="42.548217" lon="-2.305340"><ele>599.743</ele><time>2022-08-29T09:08:13Z</time></trkpt><trkpt lat="42.549566" lon="-2.305598"><ele>605.742</ele><time>2022-08-29T09:08:53Z</time></trkpt><trkpt lat="42.550614" lon="-2.306092"><ele>611.837</ele><time>2022-08-29T09:09:33Z</time></trkpt><trkpt lat="42.550953" lon="-2.306255"><ele>613.259</ele><time>2022-08-29T09:10:13Z</time></trkpt><trkpt lat="42.552257" lon="-2.306638"><ele>614.212</ele><time>2022-08-29T09:10:53Z</time></trkpt><trkpt lat="42.553629" lon="-2.306653"><ele>614.738</ele><time>2022-08-29T09:11:33Z</time></trkpt><trkpt lat="42.554628" lon="-2.307519"><ele>617.289</ele><time>2022-08-29T09:12:13Z</time></trkpt><trkpt lat="42.555317" lon="-2.307636"><ele>613.341</ele><time>2022-08-29T09:12:53Z</time></trkpt><trkpt lat="42.557339" lon="-2.309434"><ele>599.281</ele><time>2022-08-29T09:13:33Z</time></trkpt><trkpt lat="42.557870" lon="-2.309693"><ele>597.909</ele><time>2022-08-29T09:14:13Z</time></trkpt><trkpt lat="42.557943" lon="-2.309672"><ele>597.109</ele><time>2022-08-29T09:14:53Z</time></trkpt><trkpt lat="42.557928" lon="-2.309417"><ele>593.625</ele><time>2022-08-29T09:15:33Z</time></trkpt><trkpt lat="42.556794" lon="-2.307938"><ele>588.995</ele><time>2022-08-29T09:16:13Z</time></trkpt><trkpt lat="42.556141" lon="-2.306614"><ele>588.242</ele><time>2022-08-29T09:16:53Z</time></trkpt><trkpt lat="42.555864" lon="-2.304868"><ele>588.251</ele><time>2022-08-29T09:17:33Z</time></trkpt><trkpt lat="42.555791" lon="-2.304712"><ele>587.436</ele><time>2022-08-29T09:18:13Z</time></trkpt><trkpt lat="42.554038" lon="-2.302560"><ele>579.598</ele><time>2022-08-29T09:18:53Z</time></trkpt><trkpt lat="42.552693" lon="-2.301325"><ele>573.581</ele><time>2022-08-29T09:19:33Z</time></trkpt><trkpt lat="42.551968" lon="-2.299245"><ele>571.227</ele><time>2022-08-29T09:20:13Z</time></trkpt><trkpt lat="42.551468" lon="-2.297753"><ele>566.738</ele><time>2022-08-29T09:20:53Z</time></trkpt><trkpt lat="42.550737" lon="-2.294035"><ele>555.956</ele><time>2022-08-29T09:21:33Z</time></trkpt><trkpt lat="42.550687" lon="-2.293575"><ele>555.959</ele><time>2022-08-29T09:22:13Z</time></trkpt><trkpt lat="42.551041" lon="-2.291975"><ele>547.914</ele><time>2022-08-29T09:22:53Z</time></trkpt><trkpt lat="42.551011" lon="-2.291125"><ele>544.609</ele><time>2022-08-29T09:23:33Z</time></trkpt><trkpt lat="42.550492" lon="-2.287821"><ele>527.566</ele><time>2022-08-29T09:24:13Z</time></trkpt><trkpt lat="42.550637" lon="-2.285111"><ele>509.086</ele><time>2022-08-29T09:24:53Z</time></trkpt><trkpt lat="42.551041" lon="-2.283777"><ele>497.893</ele><time>2022-08-29T09:25:33Z</time></trkpt><trkpt lat="42.551382" lon="-2.283368"><ele>495.062</ele><time>2022-08-29T09:26:13Z</time></trkpt><trkpt lat="42.551801" lon="-2.281765"><ele>485.457</ele><time>2022-08-29T09:26:53Z</time></trkpt><trkpt lat="42.551468" lon="-2.280252"><ele>477.019</ele><time>2022-08-29T09:27:33Z</time></trkpt><trkpt lat="42.551536" lon="-2.278776"><ele>468.732</ele><time>2022-08-29T09:28:13Z</time></trkpt><trkpt lat="42.551957" lon="-2.277370"><ele>464.828</ele><time>2022-08-29T09:28:53Z</time></trkpt><trkpt lat="42.552726" lon="-2.276180"><ele>460.359</ele><time>2022-08-29T09:29:33Z</time></trkpt><trkpt lat="42.552770" lon="-2.276047"><ele>459.783</ele><time>2022-08-29T09:30:13Z</time></trkpt><trkpt lat="42.553448" lon="-2.272527"><ele>453.225</ele><time>2022-08-29T09:30:53Z</time></trkpt><trkpt lat="42.552811" lon="-2.272178"><ele>455.217</ele><time>2022-08-29T09:31:33Z</time></trkpt><trkpt lat="42.552254" lon="-2.271310"><ele>460.009</ele><time>2022-08-29T09:32:13Z</time></trkpt><trkpt lat="42.552032" lon="-2.271290"><ele>462.089</ele><time>2022-08-29T09:32:53Z</time></trkpt><trkpt lat="42.551838" lon="-2.271098"><ele>461.919</ele><time>2022-08-29T09:33:33Z</time></trkpt><trkpt lat="42.551322" lon="-2.270666"><ele>453.156</ele><time>2022-08-29T09:34:13Z</time></trkpt><trkpt lat="42.550638" lon="-2.269620"><ele>442.285</ele><time>2022-08-29T09:34:53Z</time></trkpt><trkpt lat="42.550449" lon="-2.269147"><ele>444.340</ele><time>2022-08-29T09:35:33Z</time></trkpt><trkpt lat="42.550403" lon="-2.268498"><ele>454.382</ele><time>2022-08-29T09:36:13Z</time></trkpt><trkpt lat="42.550538" lon="-2.267827"><ele>459.325</ele><time>2022-08-29T09:36:53Z</time></trkpt><trkpt lat="42.550942" lon="-2.267162"><ele>466.741</ele><time>2022-08-29T09:37:33Z</time></trkpt><trkpt lat="42.551853" lon="-2.266631"><ele>476.712</ele><time>2022-08-29T09:38:13Z</time></trkpt><trkpt lat="42.552363" lon="-2.266433"><ele>481.481</ele><time>2022-08-29T09:38:53Z</time></trkpt><trkpt lat="42.552895" lon="-2.265841"><ele>486.061</ele><time>2022-08-29T09:39:33Z</time></trkpt><trkpt lat="42.552958" lon="-2.265988"><ele>486.517</ele><time>2022-08-29T09:40:13Z</time></trkpt><trkpt lat="42.553353" lon="-2.266020"><ele>488.009</ele><time>2022-08-29T09:40:53Z</time></trkpt><trkpt lat="42.553728" lon="-2.266131"><ele>488.759</ele><time>2022-08-29T09:41:33Z</time></trkpt><trkpt lat="42.554297" lon="-2.266546"><ele>492.579</ele><time>2022-08-29T09:42:13Z</time></trkpt><trkpt lat="42.554934" lon="-2.266478"><ele>488.836</ele><time>2022-08-29T09:42:53Z</time></trkpt><trkpt lat="42.555375" lon="-2.266169"><ele>486.225</ele><time>2022-08-29T09:43:33Z</time></trkpt><trkpt lat="42.556479" lon="-2.264905"><ele>476.610</ele><time>2022-08-29T09:44:13Z</time></trkpt><trkpt lat="42.557561" lon="-2.264901"><ele>470.512</ele><time>2022-08-29T09:44:53Z</time></trkpt><trkpt lat="42.559160" lon="-2.261420"><ele>465.165</ele><time>2022-08-29T09:45:33Z</time></trkpt><trkpt lat="42.560764" lon="-2.259221"><ele>469.731</ele><time>2022-08-29T09:46:13Z</time></trkpt><trkpt lat="42.560796" lon="-2.259184"><ele>469.812</ele><time>2022-08-29T09:46:53Z</time></trkpt><trkpt lat="42.562892" lon="-2.257302"><ele>464.397</ele><time>2022-08-29T09:47:33Z</time></trkpt><trkpt lat="42.564344" lon="-2.249510"><ele>462.323</ele><time>2022-08-29T09:48:13Z</time></trkpt><trkpt lat="42.563685" lon="-2.247651"><ele>466.925</ele><time>2022-08-29T09:48:53Z</time></trkpt><trkpt lat="42.563658" lon="-2.247410"><ele>467.109</ele><time>2022-08-29T09:49:33Z</time></trkpt><trkpt lat="42.563448" lon="-2.245432"><ele>463.830</ele><time>2022-08-29T09:50:13Z</time></trkpt><trkpt lat="42.563772" lon="-2.242923"><ele>465.690</ele><time>2022-08-29T09:50:53Z</time></trkpt><trkpt lat="42.563793" lon="-2.242599"><ele>465.247</ele><time>2022-08-29T09:51:33Z</time></trkpt><trkpt lat="42.563558" lon="-2.236900"><ele>457.776</ele><time>2022-08-29T09:52:13Z</time></trkpt><trkpt lat="42.563152" lon="-2.236329"><ele>455.191</ele><time>2022-08-29T09:52:53Z</time></trkpt><trkpt lat="42.563008" lon="-2.235771"><ele>452.693</ele><time>2022-08-29T09:53:33Z</time></trkpt><trkpt lat="42.562863" lon="-2.235684"><ele>451.896</ele><time>2022-08-29T09:54:13Z</time></trkpt><trkpt lat="42.563429" lon="-2.232501"><ele>457.362</ele><time>2022-08-29T09:54:53Z</time></trkpt><trkpt lat="42.563555" lon="-2.231790"><ele>455.013</ele><time>2022-08-29T09:55:33Z</time></trkpt><trkpt lat="42.563597" lon="-2.231553"><ele>453.245</ele><time>2022-08-29T09:56:13Z</time></trkpt><trkpt lat="42.563976" lon="-2.229421"><ele>457.247</ele><time>2022-08-29T09:56:53Z</time></trkpt><trkpt lat="42.564018" lon="-2.229184"><ele>458.911</ele><time>2022-08-29T09:57:33Z</time></trkpt><trkpt lat="42.564986" lon="-2.223736"><ele>466.909</ele><time>2022-08-29T09:58:13Z</time></trkpt><trkpt lat="42.565004" lon="-2.223632"><ele>467.045</ele><time>2022-08-29T09:58:53Z</time></trkpt><trkpt lat="42.566068" lon="-2.208257"><ele>466.715</ele><time>2022-08-29T09:59:33Z</time></trkpt><trkpt lat="42.566596" lon="-2.203311"><ele>466.912</ele><time>2022-08-29T10:00:13Z</time></trkpt><trkpt lat="42.567023" lon="-2.201109"><ele>470.811</ele><time>2022-08-29T10:00:53Z</time></trkpt><trkpt lat="42.567333" lon="-2.198631"><ele>466.296</ele><time>2022-08-29T10:01:33Z</time></trkpt><trkpt lat="42.568146" lon="-2.196191"><ele>454.158</ele><time>2022-08-29T10:02:13Z</time></trkpt><trkpt lat="42.569104" lon="-2.192340"><ele>445.651</ele><time>2022-08-29T10:02:53Z</time></trkpt><trkpt lat="42.569306" lon="-2.192311"><ele>446.097</ele><time>2022-08-29T10:03:33Z</time></trkpt><trkpt lat="42.569575" lon="-2.191790"><ele>448.098</ele><time>2022-08-29T10:04:13Z</time></trkpt><trkpt lat="42.570109" lon="-2.192100"><ele>449.244</ele><time>2022-08-29T10:04:53Z</time></trkpt><trkpt lat="42.570353" lon="-2.192216"><ele>449.605</ele><time>2022-08-29T10:05:33Z</time></trkpt><trkpt lat="42.572114" lon="-2.193211"><ele>449.715</ele><time>2022-08-29T10:06:13Z</time></trkpt><trkpt lat="42.573220" lon="-2.193439"><ele>452.809</ele><time>2022-08-29T10:06:53Z</time></trkpt><trkpt lat="42.573579" lon="-2.193409"><ele>453.785</ele><time>2022-08-29T10:07:33Z</time></trkpt><trkpt lat="42.574206" lon="-2.192839"><ele>454.795</ele><time>2022-08-29T10:08:13Z</time></trkpt><trkpt lat="42.576332" lon="-2.190294"><ele>458.992</ele><time>2022-08-29T10:08:53Z</time></trkpt><trkpt lat="42.579298" lon="-2.188547"><ele>476.831</ele><time>2022-08-29T10:09:33Z</time></trkpt><trkpt lat="42.579822" lon="-2.188474"><ele>484.596</ele><time>2022-08-29T10:10:13Z</time></trkpt><trkpt lat="42.581049" lon="-2.187463"><ele>497.428</ele><time>2022-08-29T10:10:53Z</time></trkpt><trkpt lat="42.581090" lon="-2.187445"><ele>498.151</ele><time>2022-08-29T10:11:33Z</time></trkpt><trkpt lat="42.581302" lon="-2.187352"><ele>499.397</ele><time>2022-08-29T10:12:13Z</time></trkpt><trkpt lat="42.583778" lon="-2.183577"><ele>491.328</ele><time>2022-08-29T10:12:53Z</time></trkpt><trkpt lat="42.584380" lon="-2.183127"><ele>494.375</ele><time>2022-08-29T10:13:33Z</time></trkpt><trkpt lat="42.584416" lon="-2.183105"><ele>494.128</ele><time>2022-08-29T10:14:13Z</time></trkpt><trkpt lat="42.584843" lon="-2.182372"><ele>490.320</ele><time>2022-08-29T10:14:53Z</time></trkpt><trkpt lat="42.586561" lon="-2.181986"><ele>489.009</ele><time>2022-08-29T10:15:33Z</time></trkpt><trkpt lat="42.587874" lon="-2.181419"><ele>488.298</ele><time>2022-08-29T10:16:13Z</time></trkpt><trkpt lat="42.588096" lon="-2.181160"><ele>488.068</ele><time>2022-08-29T10:16:53Z</time></trkpt><trkpt lat="42.589122" lon="-2.180832"><ele>489.045</ele><time>2022-08-29T10:17:33Z</time></trkpt><trkpt lat="42.589293" lon="-2.180755"><ele>489.514</ele><time>2022-08-29T10:18:13Z</time></trkpt><trkpt lat="42.589511" lon="-2.180638"><ele>489.699</ele><time>2022-08-29T10:18:53Z</time></trkpt><trkpt lat="42.589743" lon="-2.180471"><ele>489.141</ele><time>2022-08-29T10:19:33Z</time></trkpt><trkpt lat="42.590196" lon="-2.179639"><ele>492.024</ele><time>2022-08-29T10:20:13Z</time></trkpt><trkpt lat="42.591073" lon="-2.178837"><ele>496.560</ele><time>2022-08-29T10:20:53Z</time></trkpt><trkpt lat="42.591140" lon="-2.178598"><ele>497.891</ele><time>2022-08-29T10:21:33Z</time></trkpt><trkpt lat="42.591445" lon="-2.177759"><ele>497.152</ele><time>2022-08-29T10:22:13Z</time></trkpt><trkpt lat="42.592219" lon="-2.177549"><ele>497.253</ele><time>2022-08-29T10:22:53Z</time></trkpt><trkpt lat="42.592577" lon="-2.177202"><ele>498.008</ele><time>2022-08-29T10:23:33Z</time></trkpt><trkpt lat="42.592780" lon="-2.176998"><ele>498.009</ele><time>2022-08-29T10:24:13Z</time></trkpt><trkpt lat="42.593613" lon="-2.174361"><ele>502.026</ele><time>2022-08-29T10:24:53Z</time></trkpt><trkpt lat="42.593720" lon="-2.172950"><ele>504.076</ele><time>2022-08-29T10:25:33Z</time></trkpt><trkpt lat="42.593732" lon="-2.172450"><ele>504.023</ele><time>2022-08-29T10:26:13Z</time></trkpt><trkpt lat="42.593713" lon="-2.169984"><ele>508.052</ele><time>2022-08-29T10:26:53Z</time></trkpt><trkpt lat="42.593070" lon="-2.169614"><ele>508.427</ele><time>2022-08-29T10:27:33Z</time></trkpt><trkpt lat="42.592983" lon="-2.164426"><ele>521.859</ele><time>2022-08-29T10:28:13Z</time></trkpt><trkpt lat="42.592887" lon="-2.158750"><ele>531.752</ele><time>2022-08-29T10:28:53Z</time></trkpt><trkpt lat="42.593038" lon="-2.156965"><ele>535.188</ele><time>2022-08-29T10:29:33Z</time></trkpt><trkpt lat="42.593069" lon="-2.156716"><ele>535.829</ele><time>2022-08-29T10:30:13Z</time></trkpt><trkpt lat="42.596245" lon="-2.156365"><ele>541.924</ele><time>2022-08-29T10:30:53Z</time></trkpt><trkpt lat="42.596175" lon="-2.153344"><ele>527.604</ele><time>2022-08-29T10:31:33Z</time></trkpt><trkpt lat="42.596396" lon="-2.151480"><ele>517.414</ele><time>2022-08-29T10:32:13Z</time></trkpt><trkpt lat="42.596735" lon="-2.150817"><ele>518.109</ele><time>2022-08-29T10:32:53Z</time></trkpt><trkpt lat="42.596575" lon="-2.150113"><ele>518.383</ele><time>2022-08-29T10:33:33Z</time></trkpt><trkpt lat="42.596575" lon="-2.149376"><ele>516.193</ele><time>2022-08-29T10:34:13Z</time></trkpt><trkpt lat="42.596846" lon="-2.148320"><ele>515.670</ele><time>2022-08-29T10:34:53Z</time></trkpt><trkpt lat="42.596785" lon="-2.146862"><ele>517.099</ele><time>2022-08-29T10:35:33Z</time></trkpt><trkpt lat="42.596493" lon="-2.145878"><ele>512.074</ele><time>2022-08-29T10:36:13Z</time></trkpt><trkpt lat="42.596511" lon="-2.145529"><ele>510.146</ele><time>2022-08-29T10:36:53Z</time></trkpt><trkpt lat="42.597830" lon="-2.144463"><ele>517.339</ele><time>2022-08-29T10:37:33Z</time></trkpt><trkpt lat="42.597890" lon="-2.144294"><ele>517.645</ele><time>2022-08-29T10:38:13Z</time></trkpt><trkpt lat="42.598224" lon="-2.142718"><ele>516.716</ele><time>2022-08-29T10:38:53Z</time></trkpt><trkpt lat="42.599348" lon="-2.139708"><ele>518.064</ele><time>2022-08-29T10:39:33Z</time></trkpt><trkpt lat="42.599356" lon="-2.139681"><ele>518.006</ele><time>2022-08-29T10:40:13Z</time></trkpt><trkpt lat="42.600050" lon="-2.133342"><ele>534.116</ele><time>2022-08-29T10:40:53Z</time></trkpt><trkpt lat="42.600500" lon="-2.126698"><ele>531.609</ele><time>2022-08-29T10:41:33Z</time></trkpt><trkpt lat="42.601602" lon="-2.125515"><ele>541.747</ele><time>2022-08-29T10:42:13Z</time></trkpt><trkpt lat="42.602480" lon="-2.124688"><ele>545.817</ele><time>2022-08-29T10:42:53Z</time></trkpt><trkpt lat="42.603027" lon="-2.124516"><ele>545.534</ele><time>2022-08-29T10:43:33Z</time></trkpt><trkpt lat="42.603467" lon="-2.123541"><ele>547.053</ele><time>2022-08-29T10:44:13Z</time></trkpt><trkpt lat="42.603595" lon="-2.121466"><ele>546.998</ele><time>2022-08-29T10:44:53Z</time></trkpt><trkpt lat="42.603670" lon="-2.119649"><ele>544.580</ele><time>2022-08-29T10:45:33Z</time></trkpt><trkpt lat="42.603796" lon="-2.119283"><ele>543.633</ele><time>2022-08-29T10:46:13Z</time></trkpt><trkpt lat="42.604364" lon="-2.118492"><ele>534.489</ele><time>2022-08-29T10:46:53Z</time></trkpt><trkpt lat="42.604509" lon="-2.117916"><ele>532.260</ele><time>2022-08-29T10:47:33Z</time></trkpt><trkpt lat="42.604221" lon="-2.117632"><ele>529.981</ele><time>2022-08-29T10:48:13Z</time></trkpt><trkpt lat="42.603617" lon="-2.116438"><ele>532.061</ele><time>2022-08-29T10:48:53Z</time></trkpt><trkpt lat="42.603543" lon="-2.116291"><ele>529.517</ele><time>2022-08-29T10:49:33Z</time></trkpt><trkpt lat="42.603099" lon="-2.116074"><ele>523.309</ele><time>2022-08-29T10:50:13Z</time></trkpt><trkpt lat="42.602489" lon="-2.115260"><ele>520.989</ele><time>2022-08-29T10:50:53Z</time></trkpt><trkpt lat="42.602196" lon="-2.114835"><ele>519.349</ele><time>2022-08-29T10:51:33Z</time></trkpt><trkpt lat="42.602195" lon="-2.112724"><ele>523.346</ele><time>2022-08-29T10:52:13Z</time></trkpt><trkpt lat="42.602991" lon="-2.110954"><ele>530.855</ele><time>2022-08-29T10:52:53Z</time></trkpt><trkpt lat="42.602997" lon="-2.110942"><ele>530.710</ele><time>2022-08-29T10:53:33Z</time></trkpt><trkpt lat="42.605256" lon="-2.108288"><ele>537.242</ele><time>2022-08-29T10:54:13Z</time></trkpt><trkpt lat="42.606464" lon="-2.108308"><ele>541.255</ele><time>2022-08-29T10:54:53Z</time></trkpt><trkpt lat="42.608863" lon="-2.105488"><ele>562.321</ele><time>2022-08-29T10:55:33Z</time></trkpt><trkpt lat="42.609005" lon="-2.105311"><ele>563.022</ele><time>2022-08-29T10:56:13Z</time></trkpt><trkpt lat="42.610212" lon="-2.103026"><ele>570.758</ele><time>2022-08-29T10:56:53Z</time></trkpt><trkpt lat="42.610929" lon="-2.099518"><ele>588.752</ele><time>2022-08-29T10:57:33Z</time></trkpt><trkpt lat="42.611727" lon="-2.099269"><ele>593.517</ele><time>2022-08-29T10:58:13Z</time></trkpt><trkpt lat="42.611993" lon="-2.099832"><ele>596.409</ele><time>2022-08-29T10:58:53Z</time></trkpt><trkpt lat="42.612061" lon="-2.100026"><ele>596.566</ele><time>2022-08-29T10:59:33Z</time></trkpt><trkpt lat="42.612414" lon="-2.099701"><ele>601.946</ele><time>2022-08-29T11:00:13Z</time></trkpt><trkpt lat="42.612429" lon="-2.099691"><ele>602.183</ele><time>2022-08-29T11:00:53Z</time></trkpt><trkpt lat="42.612634" lon="-2.099917"><ele>598.372</ele><time>2022-08-29T11:01:33Z</time></trkpt><trkpt lat="42.612837" lon="-2.099596"><ele>598.677</ele><time>2022-08-29T11:02:13Z</time></trkpt><trkpt lat="42.612907" lon="-2.099634"><ele>597.219</ele><time>2022-08-29T11:02:53Z</time></trkpt><trkpt lat="42.613143" lon="-2.099765"><ele>593.442</ele><time>2022-08-29T11:03:33Z</time></trkpt><trkpt lat="42.615323" lon="-2.101305"><ele>587.148</ele><time>2022-08-29T11:04:13Z</time></trkpt><trkpt lat="42.616271" lon="-2.102522"><ele>594.219</ele><time>2022-08-29T11:04:53Z</time></trkpt><trkpt lat="42.616416" lon="-2.103488"><ele>596.287</ele><time>2022-08-29T11:05:33Z</time></trkpt><trkpt lat="42.616222" lon="-2.104561"><ele>595.042</ele><time>2022-08-29T11:06:13Z</time></trkpt><trkpt lat="42.615877" lon="-2.105142"><ele>591.626</ele><time>2022-08-29T11:06:53Z</time></trkpt><trkpt lat="42.616027" lon="-2.105261"><ele>591.809</ele><time>2022-08-29T11:07:33Z</time></trkpt><trkpt lat="42.616344" lon="-2.105279"><ele>592.019</ele><time>2022-08-29T11:08:13Z</time></trkpt><trkpt lat="42.616542" lon="-2.104631"><ele>596.559</ele><time>2022-08-29T11:08:53Z</time></trkpt><trkpt lat="42.616578" lon="-2.104554"><ele>597.066</ele><time>2022-08-29T11:09:33Z</time></trkpt><trkpt lat="42.617661" lon="-2.104852"><ele>592.895</ele><time>2022-08-29T11:10:13Z</time></trkpt><trkpt lat="42.618102" lon="-2.104476"><ele>588.540</ele><time>2022-08-29T11:10:53Z</time></trkpt><trkpt lat="42.618370" lon="-2.103782"><ele>592.162</ele><time>2022-08-29T11:11:33Z</time></trkpt><trkpt lat="42.618617" lon="-2.103167"><ele>588.455</ele><time>2022-08-29T11:12:13Z</time></trkpt><trkpt lat="42.618917" lon="-2.103244"><ele>589.891</ele><time>2022-08-29T11:12:53Z</time></trkpt><trkpt lat="42.619043" lon="-2.103331"><ele>588.492</ele><time>2022-08-29T11:13:33Z</time></trkpt><trkpt lat="42.619219" lon="-2.103486"><ele>584.013</ele><time>2022-08-29T11:14:13Z</time></trkpt><trkpt lat="42.619185" lon="-2.104080"><ele>579.643</ele><time>2022-08-29T11:14:53Z</time></trkpt><trkpt lat="42.619599" lon="-2.104380"><ele>581.207</ele><time>2022-08-29T11:15:33Z</time></trkpt><trkpt lat="42.621113" lon="-2.102240"><ele>588.009</ele><time>2022-08-29T11:16:13Z</time></trkpt><trkpt lat="42.621117" lon="-2.102237"><ele>588.082</ele><time>2022-08-29T11:16:53Z</time></trkpt><trkpt lat="42.622402" lon="-2.102070"><ele>595.932</ele><time>2022-08-29T11:17:33Z</time></trkpt><trkpt lat="42.624375" lon="-2.102693"><ele>614.279</ele><time>2022-08-29T11:18:13Z</time></trkpt><trkpt lat="42.624801" lon="-2.102614"><ele>619.588</ele><time>2022-08-29T11:18:53Z</time></trkpt><trkpt lat="42.626499" lon="-2.101305"><ele>632.173</ele><time>2022-08-29T11:19:33Z</time></trkpt><trkpt lat="42.626556" lon="-2.101261"><ele>632.525</ele><time>2022-08-29T11:20:13Z</time></trkpt><trkpt lat="42.626553" lon="-2.101256"><ele>632.518</ele><time>2022-08-29T11:20:53Z</time></trkpt><trkpt lat="42.625392" lon="-2.099341"><ele>618.744</ele><time>2022-08-29T11:21:33Z</time></trkpt><trkpt lat="42.625225" lon="-2.098780"><ele>616.535</ele><time>2022-08-29T11:22:13Z</time></trkpt><trkpt lat="42.625600" lon="-2.098467"><ele>616.163</ele><time>2022-08-29T11:22:53Z</time></trkpt><trkpt lat="42.625863" lon="-2.097256"><ele>614.944</ele><time>2022-08-29T11:23:33Z</time></trkpt><trkpt lat="42.625986" lon="-2.096894"><ele>613.718</ele><time>2022-08-29T11:24:13Z</time></trkpt><trkpt lat="42.627049" lon="-2.094907"><ele>604.909</ele><time>2022-08-29T11:24:53Z</time></trkpt><trkpt lat="42.627057" lon="-2.094894"><ele>604.877</ele><time>2022-08-29T11:25:33Z</time></trkpt><trkpt lat="42.629957" lon="-2.090388"><ele>587.737</ele><time>2022-08-29T11:26:13Z</time></trkpt><trkpt lat="42.632425" lon="-2.089079"><ele>582.554</ele><time>2022-08-29T11:26:53Z</time></trkpt><trkpt lat="42.634325" lon="-2.087464"><ele>576.233</ele><time>2022-08-29T11:27:33Z</time></trkpt><trkpt lat="42.635248" lon="-2.087171"><ele>581.068</ele><time>2022-08-29T11:28:13Z</time></trkpt><trkpt lat="42.635412" lon="-2.087177"><ele>580.040</ele><time>2022-08-29T11:28:53Z</time></trkpt><trkpt lat="42.635742" lon="-2.086886"><ele>578.923</ele><time>2022-08-29T11:29:33Z</time></trkpt><trkpt lat="42.635753" lon="-2.086384"><ele>576.859</ele><time>2022-08-29T11:30:13Z</time></trkpt><trkpt lat="42.636329" lon="-2.085372"><ele>561.270</ele><time>2022-08-29T11:30:53Z</time></trkpt><trkpt lat="42.636760" lon="-2.084024"><ele>559.918</ele><time>2022-08-29T11:31:33Z</time></trkpt><trkpt lat="42.637083" lon="-2.083422"><ele>559.798</ele><time>2022-08-29T11:32:13Z</time></trkpt><trkpt lat="42.637451" lon="-2.083103"><ele>558.517</ele><time>2022-08-29T11:32:53Z</time></trkpt><trkpt lat="42.637686" lon="-2.083038"><ele>557.509</ele><time>2022-08-29T11:33:33Z</time></trkpt><trkpt lat="42.638722" lon="-2.083819"><ele>545.352</ele><time>2022-08-29T11:34:13Z</time></trkpt><trkpt lat="42.638831" lon="-2.082797"><ele>555.192</ele><time>2022-08-29T11:34:53Z</time></trkpt><trkpt lat="42.638683" lon="-2.082006"><ele>560.099</ele><time>2022-08-29T11:35:33Z</time></trkpt><trkpt lat="42.637536" lon="-2.080657"><ele>577.618</ele><time>2022-08-29T11:36:13Z</time></trkpt><trkpt lat="42.637740" lon="-2.080550"><ele>580.943</ele><time>2022-08-29T11:36:53Z</time></trkpt><trkpt lat="42.637798" lon="-2.080404"><ele>582.225</ele><time>2022-08-29T11:37:33Z</time></trkpt><trkpt lat="42.637858" lon="-2.079521"><ele>582.018</ele><time>2022-08-29T11:38:13Z</time></trkpt><trkpt lat="42.638049" lon="-2.078985"><ele>582.424</ele><time>2022-08-29T11:38:53Z</time></trkpt><trkpt lat="42.637954" lon="-2.078420"><ele>586.095</ele><time>2022-08-29T11:39:33Z</time></trkpt><trkpt lat="42.637987" lon="-2.077906"><ele>585.893</ele><time>2022-08-29T11:40:13Z</time></trkpt><trkpt lat="42.638199" lon="-2.077114"><ele>588.665</ele><time>2022-08-29T11:40:53Z</time></trkpt><trkpt lat="42.638485" lon="-2.075682"><ele>591.021</ele><time>2022-08-29T11:41:33Z</time></trkpt><trkpt lat="42.638910" lon="-2.074912"><ele>594.909</ele><time>2022-08-29T11:42:13Z</time></trkpt><trkpt lat="42.639070" lon="-2.073642"><ele>599.680</ele><time>2022-08-29T11:42:53Z</time></trkpt><trkpt lat="42.639091" lon="-2.073534"><ele>599.560</ele><time>2022-08-29T11:43:33Z</time></trkpt><trkpt lat="42.639209" lon="-2.072629"><ele>593.387</ele><time>2022-08-29T11:44:13Z</time></trkpt><trkpt lat="42.640509" lon="-2.072934"><ele>584.096</ele><time>2022-08-29T11:44:53Z</time></trkpt><trkpt lat="42.640727" lon="-2.073232"><ele>580.511</ele><time>2022-08-29T11:45:33Z</time></trkpt><trkpt lat="42.640870" lon="-2.073224"><ele>579.653</ele><time>2022-08-29T11:46:13Z</time></trkpt><trkpt lat="42.640871" lon="-2.072880"><ele>579.486</ele><time>2022-08-29T11:46:53Z</time></trkpt><trkpt lat="42.640913" lon="-2.072578"><ele>577.182</ele><time>2022-08-29T11:47:33Z</time></trkpt><trkpt lat="42.641857" lon="-2.070557"><ele>580.483</ele><time>2022-08-29T11:48:13Z</time></trkpt><trkpt lat="42.641920" lon="-2.069015"><ele>590.685</ele><time>2022-08-29T11:48:53Z</time></trkpt><trkpt lat="42.641974" lon="-2.068497"><ele>589.089</ele><time>2022-08-29T11:49:33Z</time></trkpt><trkpt lat="42.642710" lon="-2.066763"><ele>580.217</ele><time>2022-08-29T11:50:13Z</time></trkpt><trkpt lat="42.644026" lon="-2.064392"><ele>577.909</ele><time>2022-08-29T11:50:53Z</time></trkpt><trkpt lat="42.644793" lon="-2.062573"><ele>575.319</ele><time>2022-08-29T11:51:33Z</time></trkpt><trkpt lat="42.646194" lon="-2.057283"><ele>567.439</ele><time>2022-08-29T11:52:13Z</time></trkpt><trkpt lat="42.646890" lon="-2.055857"><ele>562.416</ele><time>2022-08-29T11:52:53Z</time></trkpt><trkpt lat="42.647278" lon="-2.052967"><ele>555.365</ele><time>2022-08-29T11:53:33Z</time></trkpt><trkpt lat="42.647077" lon="-2.052957"><ele>556.990</ele><time>2022-08-29T11:54:13Z</time></trkpt><trkpt lat="42.646312" lon="-2.047919"><ele>550.172</ele><time>2022-08-29T11:54:53Z</time></trkpt><trkpt lat="42.647395" lon="-2.047732"><ele>540.795</ele><time>2022-08-29T11:55:33Z</time></trkpt><trkpt lat="42.647939" lon="-2.047445"><ele>536.621</ele><time>2022-08-29T11:56:13Z</time></trkpt><trkpt lat="42.648166" lon="-2.047313"><ele>534.412</ele><time>2022-08-29T11:56:53Z</time></trkpt><trkpt lat="42.650445" lon="-2.043943"><ele>515.853</ele><time>2022-08-29T11:57:33Z</time></trkpt><trkpt lat="42.652166" lon="-2.042307"><ele>501.604</ele><time>2022-08-29T11:58:13Z</time></trkpt><trkpt lat="42.653084" lon="-2.041740"><ele>492.414</ele><time>2022-08-29T11:58:53Z</time></trkpt><trkpt lat="42.653799" lon="-2.041599"><ele>488.609</ele><time>2022-08-29T11:59:33Z</time></trkpt><trkpt lat="42.654010" lon="-2.041278"><ele>487.156</ele><time>2022-08-29T12:00:13Z</time></trkpt><trkpt lat="42.654539" lon="-2.041315"><ele>492.496</ele><time>2022-08-29T12:00:53Z</time></trkpt><trkpt lat="42.654966" lon="-2.041034"><ele>503.953</ele><time>2022-08-29T12:01:33Z</time></trkpt><trkpt lat="42.655081" lon="-2.040859"><ele>503.512</ele><time>2022-08-29T12:02:13Z</time></trkpt><trkpt lat="42.655407" lon="-2.040815"><ele>506.717</ele><time>2022-08-29T12:02:53Z</time></trkpt><trkpt lat="42.655545" lon="-2.041072"><ele>511.449</ele><time>2022-08-29T12:03:33Z</time></trkpt><trkpt lat="42.655549" lon="-2.041068"><ele>511.372</ele><time>2022-08-29T12:04:13Z</time></trkpt><trkpt lat="42.656143" lon="-2.040653"><ele>508.748</ele><time>2022-08-29T12:04:53Z</time></trkpt><trkpt lat="42.656304" lon="-2.040590"><ele>507.519</ele><time>2022-08-29T12:05:33Z</time></trkpt><trkpt lat="42.657145" lon="-2.039815"><ele>499.442</ele><time>2022-08-29T12:06:13Z</time></trkpt><trkpt lat="42.657581" lon="-2.039150"><ele>495.922</ele><time>2022-08-29T12:06:53Z</time></trkpt><trkpt lat="42.658239" lon="-2.038128"><ele>488.414</ele><time>2022-08-29T12:07:33Z</time></trkpt><trkpt lat="42.659158" lon="-2.037609"><ele>483.209</ele><time>2022-08-29T12:08:13Z</time></trkpt><trkpt lat="42.660040" lon="-2.036697"><ele>473.695</ele><time>2022-08-29T12:08:53Z</time></trkpt><trkpt lat="42.660417" lon="-2.036615"><ele>473.675</ele><time>2022-08-29T12:09:33Z</time></trkpt><trkpt lat="42.660810" lon="-2.035970"><ele>469.652</ele><time>2022-08-29T12:10:13Z</time></trkpt><trkpt lat="42.661047" lon="-2.035484"><ele>464.751</ele><time>2022-08-29T12:10:53Z</time></trkpt><trkpt lat="42.662267" lon="-2.034869"><ele>453.886</ele><time>2022-08-29T12:11:33Z</time></trkpt><trkpt lat="42.662412" lon="-2.034725"><ele>452.358</ele><time>2022-08-29T12:12:13Z</time></trkpt><trkpt lat="42.662591" lon="-2.034547"><ele>449.991</ele><time>2022-08-29T12:12:53Z</time></trkpt><trkpt lat="42.663787" lon="-2.032939"><ele>439.627</ele><time>2022-08-29T12:13:33Z</time></trkpt><trkpt lat="42.663800" lon="-2.032922"><ele>439.598</ele><time>2022-08-29T12:14:13Z</time></trkpt><trkpt lat="42.664158" lon="-2.032928"><ele>438.052</ele><time>2022-08-29T12:14:53Z</time></trkpt><trkpt lat="42.664287" lon="-2.032447"><ele>437.553</ele><time>2022-08-29T12:15:33Z</time></trkpt><trkpt lat="42.665045" lon="-2.032103"><ele>433.508</ele><time>2022-08-29T12:16:13Z</time></trkpt><trkpt lat="42.666541" lon="-2.032081"><ele>428.009</ele><time>2022-08-29T12:16:53Z</time></trkpt><trkpt lat="42.666613" lon="-2.031784"><ele>429.436</ele><time>2022-08-29T12:17:33Z</time></trkpt><trkpt lat="42.666826" lon="-2.031666"><ele>428.386</ele><time>2022-08-29T12:18:13Z</time></trkpt><trkpt lat="42.668229" lon="-2.030678"><ele>423.163</ele><time>2022-08-29T12:18:53Z</time></trkpt><trkpt lat="42.669424" lon="-2.029357"><ele>420.612</ele><time>2022-08-29T12:19:33Z</time></trkpt><trkpt lat="42.669705" lon="-2.028492"><ele>420.477</ele><time>2022-08-29T12:20:13Z</time></trkpt><trkpt lat="42.669891" lon="-2.027181"><ele>420.389</ele><time>2022-08-29T12:20:53Z</time></trkpt><trkpt lat="42.670077" lon="-2.027158"><ele>418.142</ele><time>2022-08-29T12:21:33Z</time></trkpt><trkpt lat="42.670623" lon="-2.027090"><ele>419.478</ele><time>2022-08-29T12:22:13Z</time></trkpt><trkpt lat="42.670655" lon="-2.024285"><ele>418.729</ele><time>2022-08-29T12:22:53Z</time></trkpt><trkpt lat="42.670490" lon="-2.023410"><ele>419.544</ele><time>2022-08-29T12:23:33Z</time></trkpt><trkpt lat="42.670182" lon="-2.022977"><ele>419.305</ele><time>2022-08-29T12:24:13Z</time></trkpt><trkpt lat="42.669795" lon="-2.022745"><ele>419.815</ele><time>2022-08-29T12:24:53Z</time></trkpt><trkpt lat="42.668278" lon="-2.021907"><ele>420.609</ele><time>2022-08-29T12:25:33Z</time></trkpt><trkpt lat="42.666504" lon="-2.021067"><ele>421.015</ele><time>2022-08-29T12:26:13Z</time></trkpt><trkpt lat="42.665809" lon="-2.020326"><ele>419.975</ele><time>2022-08-29T12:26:53Z</time></trkpt><trkpt lat="42.665683" lon="-2.020152"><ele>420.752</ele><time>2022-08-29T12:27:33Z</time></trkpt><trkpt lat="42.664567" lon="-2.018454"><ele>419.481</ele><time>2022-08-29T12:28:13Z</time></trkpt><trkpt lat="42.664335" lon="-2.017491"><ele>420.076</ele><time>2022-08-29T12:28:53Z</time></trkpt><trkpt lat="42.664477" lon="-2.015767"><ele>419.438</ele><time>2022-08-29T12:29:33Z</time></trkpt><trkpt lat="42.664765" lon="-2.014961"><ele>421.551</ele><time>2022-08-29T12:30:13Z</time></trkpt><trkpt lat="42.665101" lon="-2.014417"><ele>421.587</ele><time>2022-08-29T12:30:53Z</time></trkpt><trkpt lat="42.665154" lon="-2.014328"><ele>421.648</ele><time>2022-08-29T12:31:33Z</time></trkpt><trkpt lat="42.665448" lon="-2.013432"><ele>418.637</ele><time>2022-08-29T12:32:13Z</time></trkpt><trkpt lat="42.665863" lon="-2.009418"><ele>416.649</ele><time>2022-08-29T12:32:53Z</time></trkpt><trkpt lat="42.665805" lon="-2.008866"><ele>417.613</ele><time>2022-08-29T12:33:33Z</time></trkpt><trkpt lat="42.665795" lon="-2.008815"><ele>418.309</ele><time>2022-08-29T12:34:13Z</time></trkpt><trkpt lat="42.665573" lon="-2.008393"><ele>418.334</ele><time>2022-08-29T12:34:53Z</time></trkpt><trkpt lat="42.664731" lon="-2.007574"><ele>418.664</ele><time>2022-08-29T12:35:33Z</time></trkpt><trkpt lat="42.662586" lon="-2.006682"><ele>430.821</ele><time>2022-08-29T12:36:13Z</time></trkpt><trkpt lat="42.662080" lon="-2.006159"><ele>436.620</ele><time>2022-08-29T12:36:53Z</time></trkpt><trkpt lat="42.661681" lon="-2.005413"><ele>441.475</ele><time>2022-08-29T12:37:33Z</time></trkpt><trkpt lat="42.661418" lon="-2.004201"><ele>449.757</ele><time>2022-08-29T12:38:13Z</time></trkpt><trkpt lat="42.661452" lon="-2.003342"><ele>450.520</ele><time>2022-08-29T12:38:53Z</time></trkpt><trkpt lat="42.661367" lon="-2.002750"><ele>448.986</ele><time>2022-08-29T12:39:33Z</time></trkpt><trkpt lat="42.661100" lon="-2.002301"><ele>447.387</ele><time>2022-08-29T12:40:13Z</time></trkpt><trkpt lat="42.660979" lon="-2.001998"><ele>446.576</ele><time>2022-08-29T12:40:53Z</time></trkpt><trkpt lat="42.660609" lon="-1.999162"><ele>440.490</ele><time>2022-08-29T12:41:33Z</time></trkpt><trkpt lat="42.659761" lon="-1.996246"><ele>441.019</ele><time>2022-08-29T12:42:13Z</time></trkpt><trkpt lat="42.659184" lon="-1.995243"><ele>440.209</ele><time>2022-08-29T12:42:53Z</time></trkpt><trkpt lat="42.659411" lon="-1.993811"><ele>440.728</ele><time>2022-08-29T12:43:33Z</time></trkpt><trkpt lat="42.659557" lon="-1.992855"><ele>430.058</ele><time>2022-08-29T12:44:13Z</time></trkpt><trkpt lat="42.659348" lon="-1.992195"><ele>420.525</ele><time>2022-08-29T12:44:53Z</time></trkpt><trkpt lat="42.659477" lon="-1.991584"><ele>420.134</ele><time>2022-08-29T12:45:33Z</time></trkpt><trkpt lat="42.661315" lon="-1.990661"><ele>425.669</ele><time>2022-08-29T12:46:13Z</time></trkpt><trkpt lat="42.661166" lon="-1.989994"><ele>424.271</ele><time>2022-08-29T12:46:53Z</time></trkpt><trkpt lat="42.661686" lon="-1.989751"><ele>425.264</ele><time>2022-08-29T12:47:33Z</time></trkpt><trkpt lat="42.662317" lon="-1.988991"><ele>426.370</ele><time>2022-08-29T12:48:13Z</time></trkpt><trkpt lat="42.663115" lon="-1.987315"><ele>428.251</ele><time>2022-08-29T12:48:53Z</time></trkpt><trkpt lat="42.663588" lon="-1.986757"><ele>430.079</ele><time>2022-08-29T12:49:33Z</time></trkpt><trkpt lat="42.663602" lon="-1.986742"><ele>430.005</ele><time>2022-08-29T12:50:13Z</time></trkpt><trkpt lat="42.663509" lon="-1.981299"><ele>436.125</ele><time>2022-08-29T12:50:53Z</time></trkpt><trkpt lat="42.663735" lon="-1.980443"><ele>437.109</ele><time>2022-08-29T12:51:33Z</time></trkpt><trkpt lat="42.663738" lon="-1.979773"><ele>437.968</ele><time>2022-08-29T12:52:13Z</time></trkpt><trkpt lat="42.663542" lon="-1.978692"><ele>444.628</ele><time>2022-08-29T12:52:53Z</time></trkpt><trkpt lat="42.663018" lon="-1.976213"><ele>444.875</ele><time>2022-08-29T12:53:33Z</time></trkpt><trkpt lat="42.663298" lon="-1.975530"><ele>446.964</ele><time>2022-08-29T12:54:13Z</time></trkpt><trkpt lat="42.663730" lon="-1.975533"><ele>449.279</ele><time>2022-08-29T12:54:53Z</time></trkpt><trkpt lat="42.663932" lon="-1.970619"><ele>458.271</ele><time>2022-08-29T12:55:33Z</time></trkpt><trkpt lat="42.664383" lon="-1.969292"><ele>463.124</ele><time>2022-08-29T12:56:13Z</time></trkpt><trkpt lat="42.664486" lon="-1.967790"><ele>471.220</ele><time>2022-08-29T12:56:53Z</time></trkpt><trkpt lat="42.664699" lon="-1.965246"><ele>475.931</ele><time>2022-08-29T12:57:33Z</time></trkpt><trkpt lat="42.664574" lon="-1.964490"><ele>477.655</ele><time>2022-08-29T12:58:13Z</time></trkpt><trkpt lat="42.664622" lon="-1.963412"><ele>482.307</ele><time>2022-08-29T12:58:53Z</time></trkpt><trkpt lat="42.664720" lon="-1.963113"><ele>483.017</ele><time>2022-08-29T12:59:33Z</time></trkpt><trkpt lat="42.665098" lon="-1.962387"><ele>486.109</ele><time>2022-08-29T13:00:13Z</time></trkpt><trkpt lat="42.665154" lon="-1.962086"><ele>486.676</ele><time>2022-08-29T13:00:53Z</time></trkpt><trkpt lat="42.665749" lon="-1.960935"><ele>490.016</ele><time>2022-08-29T13:01:33Z</time></trkpt><trkpt lat="42.666122" lon="-1.960823"><ele>492.143</ele><time>2022-08-29T13:02:13Z</time></trkpt><trkpt lat="42.666535" lon="-1.960989"><ele>491.612</ele><time>2022-08-29T13:02:53Z</time></trkpt><trkpt lat="42.666628" lon="-1.960784"><ele>491.447</ele><time>2022-08-29T13:03:33Z</time></trkpt><trkpt lat="42.667456" lon="-1.957679"><ele>479.919</ele><time>2022-08-29T13:04:13Z</time></trkpt><trkpt lat="42.667887" lon="-1.955480"><ele>480.092</ele><time>2022-08-29T13:04:53Z</time></trkpt><trkpt lat="42.668581" lon="-1.953346"><ele>480.348</ele><time>2022-08-29T13:05:33Z</time></trkpt><trkpt lat="42.669628" lon="-1.950508"><ele>471.539</ele><time>2022-08-29T13:06:13Z</time></trkpt><trkpt lat="42.669852" lon="-1.950236"><ele>470.754</ele><time>2022-08-29T13:06:53Z</time></trkpt><trkpt lat="42.670869" lon="-1.948585"><ele>458.856</ele><time>2022-08-29T13:07:33Z</time></trkpt><trkpt lat="42.671198" lon="-1.947465"><ele>452.811</ele><time>2022-08-29T13:08:13Z</time></trkpt><trkpt lat="42.672236" lon="-1.945832"><ele>464.709</ele><time>2022-08-29T13:08:53Z</time></trkpt><trkpt lat="42.673015" lon="-1.944624"><ele>467.546</ele><time>2022-08-29T13:09:33Z</time></trkpt><trkpt lat="42.673143" lon="-1.944451"><ele>467.326</ele><time>2022-08-29T13:10:13Z</time></trkpt><trkpt lat="42.673648" lon="-1.943803"><ele>460.773</ele><time>2022-08-29T13:10:53Z</time></trkpt><trkpt lat="42.675100" lon="-1.943061"><ele>446.772</ele><time>2022-08-29T13:11:33Z</time></trkpt><trkpt lat="42.675544" lon="-1.941409"><ele>437.747</ele><time>2022-08-29T13:12:13Z</time></trkpt><trkpt lat="42.677024" lon="-1.940061"><ele>423.989</ele><time>2022-08-29T13:12:53Z</time></trkpt><trkpt lat="42.677611" lon="-1.939091"><ele>419.862</ele><time>2022-08-29T13:13:33Z</time></trkpt><trkpt lat="42.678086" lon="-1.938678"><ele>415.068</ele><time>2022-08-29T13:14:13Z</time></trkpt><trkpt lat="42.678261" lon="-1.938308"><ele>411.479</ele><time>2022-08-29T13:14:53Z</time></trkpt><trkpt lat="42.678364" lon="-1.938331"><ele>414.214</ele><time>2022-08-29T13:15:33Z</time></trkpt><trkpt lat="42.678778" lon="-1.938402"><ele>415.054</ele><time>2022-08-29T13:16:13Z</time></trkpt><trkpt lat="42.679648" lon="-1.937717"><ele>400.309</ele><time>2022-08-29T13:16:53Z</time></trkpt><trkpt lat="42.680948" lon="-1.937181"><ele>387.009</ele><time>2022-08-29T13:17:33Z</time></trkpt><trkpt lat="42.681322" lon="-1.936139"><ele>387.792</ele><time>2022-08-29T13:18:13Z</time></trkpt><trkpt lat="42.681016" lon="-1.935665"><ele>386.982</ele><time>2022-08-29T13:18:53Z</time></trkpt><trkpt lat="42.680815" lon="-1.935021"><ele>385.999</ele><time>2022-08-29T13:19:33Z</time></trkpt><trkpt lat="42.680789" lon="-1.934928"><ele>386.058</ele><time>2022-08-29T13:20:13Z</time></trkpt><trkpt lat="42.680518" lon="-1.932978"><ele>386.273</ele><time>2022-08-29T13:20:53Z</time></trkpt><trkpt lat="42.679229" lon="-1.931610"><ele>388.025</ele><time>2022-08-29T13:21:33Z</time></trkpt><trkpt lat="42.678888" lon="-1.930806"><ele>386.078</ele><time>2022-08-29T13:22:13Z</time></trkpt><trkpt lat="42.679298" lon="-1.928679"><ele>383.654</ele><time>2022-08-29T13:22:53Z</time></trkpt><trkpt lat="42.679508" lon="-1.928533"><ele>385.985</ele><time>2022-08-29T13:23:33Z</time></trkpt><trkpt lat="42.679691" lon="-1.928545"><ele>387.766</ele><time>2022-08-29T13:24:13Z</time></trkpt><trkpt lat="42.679695" lon="-1.928545"><ele>387.729</ele><time>2022-08-29T13:24:53Z</time></trkpt><trkpt lat="42.679836" lon="-1.928554"><ele>386.821</ele><time>2022-08-29T13:25:33Z</time></trkpt><trkpt lat="42.679971" lon="-1.928305"><ele>382.709</ele><time>2022-08-29T13:26:13Z</time></trkpt><trkpt lat="42.679960" lon="-1.927110"><ele>383.427</ele><time>2022-08-29T13:26:53Z</time></trkpt><trkpt lat="42.680344" lon="-1.926459"><ele>384.587</ele><time>2022-08-29T13:27:33Z</time></trkpt><trkpt lat="42.679474" lon="-1.922620"><ele>399.764</ele><time>2022-08-29T13:28:13Z</time></trkpt><trkpt lat="42.679302" lon="-1.921775"><ele>402.293</ele><time>2022-08-29T13:28:53Z</time></trkpt><trkpt lat="42.679387" lon="-1.919468"><ele>416.858</ele><time>2022-08-29T13:29:33Z</time></trkpt><trkpt lat="42.679066" lon="-1.919215"><ele>427.680</ele><time>2022-08-29T13:30:13Z</time></trkpt><trkpt lat="42.679260" lon="-1.918689"><ele>430.013</ele><time>2022-08-29T13:30:53Z</time></trkpt><trkpt lat="42.679264" lon="-1.918033"><ele>433.799</ele><time>2022-08-29T13:31:33Z</time></trkpt><trkpt lat="42.680328" lon="-1.917667"><ele>439.560</ele><time>2022-08-29T13:32:13Z</time></trkpt><trkpt lat="42.680276" lon="-1.917257"><ele>441.937</ele><time>2022-08-29T13:32:53Z</time></trkpt><trkpt lat="42.680266" lon="-1.917141"><ele>442.249</ele><time>2022-08-29T13:33:33Z</time></trkpt><trkpt lat="42.680260" lon="-1.916594"><ele>439.713</ele><time>2022-08-29T13:34:13Z</time></trkpt><trkpt lat="42.680296" lon="-1.916170"><ele>434.909</ele><time>2022-08-29T13:34:53Z</time></trkpt><trkpt lat="42.679118" lon="-1.912296"><ele>445.484</ele><time>2022-08-29T13:35:33Z</time></trkpt><trkpt lat="42.679156" lon="-1.912015"><ele>445.244</ele><time>2022-08-29T13:36:13Z</time></trkpt><trkpt lat="42.679190" lon="-1.910155"><ele>443.291</ele><time>2022-08-29T13:36:53Z</time></trkpt><trkpt lat="42.679089" lon="-1.909057"><ele>442.040</ele><time>2022-08-29T13:37:33Z</time></trkpt><trkpt lat="42.679009" lon="-1.908320"><ele>434.435</ele><time>2022-08-29T13:38:13Z</time></trkpt><trkpt lat="42.679231" lon="-1.906243"><ele>425.457</ele><time>2022-08-29T13:38:53Z</time></trkpt><trkpt lat="42.678289" lon="-1.904355"><ele>436.910</ele><time>2022-08-29T13:39:33Z</time></trkpt><trkpt lat="42.678190" lon="-1.902998"><ele>446.926</ele><time>2022-08-29T13:40:13Z</time></trkpt><trkpt lat="42.677779" lon="-1.899940"><ele>459.227</ele><time>2022-08-29T13:40:53Z</time></trkpt><trkpt lat="42.677808" lon="-1.898096"><ele>452.236</ele><time>2022-08-29T13:41:33Z</time></trkpt><trkpt lat="42.678182" lon="-1.897164"><ele>462.417</ele><time>2022-08-29T13:42:13Z</time></trkpt><trkpt lat="42.678082" lon="-1.896928"><ele>457.718</ele><time>2022-08-29T13:42:53Z</time></trkpt><trkpt lat="42.677315" lon="-1.896602"><ele>458.609</ele><time>2022-08-29T13:43:33Z</time></trkpt><trkpt lat="42.677145" lon="-1.896242"><ele>453.044</ele><time>2022-08-29T13:44:13Z</time></trkpt><trkpt lat="42.677254" lon="-1.895818"><ele>452.534</ele><time>2022-08-29T13:44:53Z</time></trkpt><trkpt lat="42.677698" lon="-1.895712"><ele>451.791</ele><time>2022-08-29T13:45:33Z</time></trkpt><trkpt lat="42.678185" lon="-1.891880"><ele>455.210</ele><time>2022-08-29T13:46:13Z</time></trkpt><trkpt lat="42.678143" lon="-1.891197"><ele>455.585</ele><time>2022-08-29T13:46:53Z</time></trkpt><trkpt lat="42.677752" lon="-1.889699"><ele>459.367</ele><time>2022-08-29T13:47:33Z</time></trkpt><trkpt lat="42.676666" lon="-1.889516"><ele>467.560</ele><time>2022-08-29T13:48:13Z</time></trkpt><trkpt lat="42.676268" lon="-1.889397"><ele>468.326</ele><time>2022-08-29T13:48:53Z</time></trkpt><trkpt lat="42.676008" lon="-1.889652"><ele>470.537</ele><time>2022-08-29T13:49:33Z</time></trkpt><trkpt lat="42.675480" lon="-1.889608"><ele>469.963</ele><time>2022-08-29T13:50:13Z</time></trkpt><trkpt lat="42.675296" lon="-1.889484"><ele>468.444</ele><time>2022-08-29T13:50:53Z</time></trkpt><trkpt lat="42.675609" lon="-1.889020"><ele>467.618</ele><time>2022-08-29T13:51:33Z</time></trkpt><trkpt lat="42.675608" lon="-1.888827"><ele>467.109</ele><time>2022-08-29T13:52:13Z</time></trkpt><trkpt lat="42.675145" lon="-1.886971"><ele>468.587</ele><time>2022-08-29T13:52:53Z</time></trkpt><trkpt lat="42.674837" lon="-1.885482"><ele>465.767</ele><time>2022-08-29T13:53:33Z</time></trkpt><trkpt lat="42.674206" lon="-1.883858"><ele>455.654</ele><time>2022-08-29T13:54:13Z</time></trkpt><trkpt lat="42.673868" lon="-1.883269"><ele>451.463</ele><time>2022-08-29T13:54:53Z</time></trkpt><trkpt lat="42.672013" lon="-1.881074"><ele>441.268</ele><time>2022-08-29T13:55:33Z</time></trkpt><trkpt lat="42.671242" lon="-1.879686"><ele>438.060</ele><time>2022-08-29T13:56:13Z</time></trkpt><trkpt lat="42.671170" lon="-1.879534"><ele>437.913</ele><time>2022-08-29T13:56:53Z</time></trkpt><trkpt lat="42.670942" lon="-1.878040"><ele>444.299</ele><time>2022-08-29T13:57:33Z</time></trkpt><trkpt lat="42.671079" lon="-1.877449"><ele>446.670</ele><time>2022-08-29T13:58:13Z</time></trkpt><trkpt lat="42.671200" lon="-1.876532"><ele>445.332</ele><time>2022-08-29T13:58:53Z</time></trkpt><trkpt lat="42.670572" lon="-1.873588"><ele>452.392</ele><time>2022-08-29T13:59:33Z</time></trkpt><trkpt lat="42.670272" lon="-1.873049"><ele>454.011</ele><time>2022-08-29T14:00:13Z</time></trkpt><trkpt lat="42.670229" lon="-1.872718"><ele>454.509</ele><time>2022-08-29T14:00:53Z</time></trkpt><trkpt lat="42.670049" lon="-1.871997"><ele>452.594</ele><time>2022-08-29T14:01:33Z</time></trkpt><trkpt lat="42.669975" lon="-1.871631"><ele>453.024</ele><time>2022-08-29T14:02:13Z</time></trkpt><trkpt lat="42.669404" lon="-1.870280"><ele>455.531</ele><time>2022-08-29T14:02:53Z</time></trkpt><trkpt lat="42.669308" lon="-1.870032"><ele>455.050</ele><time>2022-08-29T14:03:33Z</time></trkpt><trkpt lat="42.669434" lon="-1.869601"><ele>456.525</ele><time>2022-08-29T14:04:13Z</time></trkpt><trkpt lat="42.669432" lon="-1.869078"><ele>453.937</ele><time>2022-08-29T14:04:53Z</time></trkpt><trkpt lat="42.669090" lon="-1.867694"><ele>458.720</ele><time>2022-08-29T14:05:33Z</time></trkpt><trkpt lat="42.668731" lon="-1.865159"><ele>450.016</ele><time>2022-08-29T14:06:13Z</time></trkpt><trkpt lat="42.668688" lon="-1.863866"><ele>449.217</ele><time>2022-08-29T14:06:53Z</time></trkpt><trkpt lat="42.668882" lon="-1.863769"><ele>449.589</ele><time>2022-08-29T14:07:33Z</time></trkpt><trkpt lat="42.668958" lon="-1.861940"><ele>449.506</ele><time>2022-08-29T14:08:13Z</time></trkpt><trkpt lat="42.669181" lon="-1.861477"><ele>454.426</ele><time>2022-08-29T14:08:53Z</time></trkpt><trkpt lat="42.669178" lon="-1.861177"><ele>455.809</ele><time>2022-08-29T14:09:33Z</time></trkpt><trkpt lat="42.669155" lon="-1.860828"><ele>458.939</ele><time>2022-08-29T14:10:13Z</time></trkpt><trkpt lat="42.669282" lon="-1.859674"><ele>466.999</ele><time>2022-08-29T14:10:53Z</time></trkpt><trkpt lat="42.669240" lon="-1.859193"><ele>470.836</ele><time>2022-08-29T14:11:33Z</time></trkpt><trkpt lat="42.669352" lon="-1.858918"><ele>471.395</ele><time>2022-08-29T14:12:13Z</time></trkpt><trkpt lat="42.669248" lon="-1.858672"><ele>473.470</ele><time>2022-08-29T14:12:53Z</time></trkpt><trkpt lat="42.669083" lon="-1.858645"><ele>472.932</ele><time>2022-08-29T14:13:33Z</time></trkpt><trkpt lat="42.668903" lon="-1.858506"><ele>473.555</ele><time>2022-08-29T14:14:13Z</time></trkpt><trkpt lat="42.668536" lon="-1.857743"><ele>476.031</ele><time>2022-08-29T14:14:53Z</time></trkpt><trkpt lat="42.668718" lon="-1.855857"><ele>482.662</ele><time>2022-08-29T14:15:33Z</time></trkpt><trkpt lat="42.668720" lon="-1.855669"><ele>486.292</ele><time>2022-08-29T14:16:13Z</time></trkpt><trkpt lat="42.668003" lon="-1.853618"><ele>489.173</ele><time>2022-08-29T14:16:53Z</time></trkpt><trkpt lat="42.668033" lon="-1.852462"><ele>493.220</ele><time>2022-08-29T14:17:33Z</time></trkpt><trkpt lat="42.668255" lon="-1.851406"><ele>494.009</ele><time>2022-08-29T14:18:13Z</time></trkpt><trkpt lat="42.668292" lon="-1.851156"><ele>495.140</ele><time>2022-08-29T14:18:53Z</time></trkpt><trkpt lat="42.668024" lon="-1.849539"><ele>484.550</ele><time>2022-08-29T14:19:33Z</time></trkpt><trkpt lat="42.667690" lon="-1.848441"><ele>476.777</ele><time>2022-08-29T14:20:13Z</time></trkpt><trkpt lat="42.667768" lon="-1.847715"><ele>472.836</ele><time>2022-08-29T14:20:53Z</time></trkpt><trkpt lat="42.667915" lon="-1.847465"><ele>470.451</ele><time>2022-08-29T14:21:33Z</time></trkpt><trkpt lat="42.668991" lon="-1.846450"><ele>458.243</ele><time>2022-08-29T14:22:13Z</time></trkpt><trkpt lat="42.669054" lon="-1.846052"><ele>456.716</ele><time>2022-08-29T14:22:53Z</time></trkpt><trkpt lat="42.668921" lon="-1.845683"><ele>455.692</ele><time>2022-08-29T14:23:33Z</time></trkpt><trkpt lat="42.668269" lon="-1.845028"><ele>450.973</ele><time>2022-08-29T14:24:13Z</time></trkpt><trkpt lat="42.668019" lon="-1.844610"><ele>450.051</ele><time>2022-08-29T14:24:53Z</time></trkpt><trkpt lat="42.667570" lon="-1.843176"><ele>442.801</ele><time>2022-08-29T14:25:33Z</time></trkpt><trkpt lat="42.667652" lon="-1.841333"><ele>434.011</ele><time>2022-08-29T14:26:13Z</time></trkpt><trkpt lat="42.668497" lon="-1.840572"><ele>425.009</ele><time>2022-08-29T14:26:53Z</time></trkpt><trkpt lat="42.668653" lon="-1.840279"><ele>423.696</ele><time>2022-08-29T14:27:33Z</time></trkpt><trkpt lat="42.668661" lon="-1.839882"><ele>422.376</ele><time>2022-08-29T14:28:13Z</time></trkpt><trkpt lat="42.666949" lon="-1.837019"><ele>406.183</ele><time>2022-08-29T14:28:53Z</time></trkpt><trkpt lat="42.666800" lon="-1.836251"><ele>399.962</ele><time>2022-08-29T14:29:33Z</time></trkpt><trkpt lat="42.667235" lon="-1.834011"><ele>391.117</ele><time>2022-08-29T14:30:13Z</time></trkpt><trkpt lat="42.668078" lon="-1.832062"><ele>387.199</ele><time>2022-08-29T14:30:53Z</time></trkpt><trkpt lat="42.668232" lon="-1.831789"><ele>385.912</ele><time>2022-08-29T14:31:33Z</time></trkpt><trkpt lat="42.669161" lon="-1.830557"><ele>377.188</ele><time>2022-08-29T14:32:13Z</time></trkpt><trkpt lat="42.670338" lon="-1.829925"><ele>365.699</ele><time>2022-08-29T14:32:53Z</time></trkpt><trkpt lat="42.670392" lon="-1.829793"><ele>365.212</ele><time>2022-08-29T14:33:33Z</time></trkpt><trkpt lat="42.670381" lon="-1.829428"><ele>363.332</ele><time>2022-08-29T14:34:13Z</time></trkpt><trkpt lat="42.669875" lon="-1.828645"><ele>358.105</ele><time>2022-08-29T14:34:53Z</time></trkpt><trkpt lat="42.669863" lon="-1.828631"><ele>357.909</ele><time>2022-08-29T14:35:33Z</time></trkpt><trkpt lat="42.669336" lon="-1.828241"><ele>354.442</ele><time>2022-08-29T14:36:13Z</time></trkpt><trkpt lat="42.668685" lon="-1.828076"><ele>351.192</ele><time>2022-08-29T14:36:53Z</time></trkpt><trkpt lat="42.668448" lon="-1.827732"><ele>350.689</ele><time>2022-08-29T14:37:33Z</time></trkpt><trkpt lat="42.667847" lon="-1.827227"><ele>351.748</ele><time>2022-08-29T14:38:13Z</time></trkpt><trkpt lat="42.668066" lon="-1.826945"><ele>351.313</ele><time>2022-08-29T14:38:53Z</time></trkpt><trkpt lat="42.667914" lon="-1.826108"><ele>346.095</ele><time>2022-08-29T14:39:33Z</time></trkpt><trkpt lat="42.668102" lon="-1.824385"><ele>345.098</ele><time>2022-08-29T14:40:13Z</time></trkpt><trkpt lat="42.668392" lon="-1.822970"><ele>344.994</ele><time>2022-08-29T14:40:53Z</time></trkpt><trkpt lat="42.669254" lon="-1.820505"><ele>346.435</ele><time>2022-08-29T14:41:33Z</time></trkpt><trkpt lat="42.669616" lon="-1.819437"><ele>343.224</ele><time>2022-08-29T14:42:13Z</time></trkpt><trkpt lat="42.669953" lon="-1.819246"><ele>343.804</ele><time>2022-08-29T14:42:53Z</time></trkpt><trkpt lat="42.670791" lon="-1.819478"><ele>344.714</ele><time>2022-08-29T14:43:33Z</time></trkpt><trkpt lat="42.670796" lon="-1.819482"><ele>344.709</ele><time>2022-08-29T14:44:13Z</time></trkpt><trkpt lat="42.671411" lon="-1.817999"><ele>342.373</ele><time>2022-08-29T14:44:53Z</time></trkpt><trkpt lat="42.672457" lon="-1.812732"><ele>347.033</ele><time>2022-08-29T14:45:33Z</time></trkpt><trkpt lat="42.671995" lon="-1.812535"><ele>347.050</ele><time>2022-08-29T14:46:13Z</time></trkpt><trkpt lat="42.670917" lon="-1.812143"><ele>344.729</ele><time>2022-08-29T14:46:53Z</time></trkpt><trkpt lat="42.671112" lon="-1.811720"><ele>345.214</ele><time>2022-08-29T14:47:33Z</time></trkpt><trkpt lat="42.671710" lon="-1.810988"><ele>345.086</ele><time>2022-08-29T14:48:13Z</time></trkpt><trkpt lat="42.671906" lon="-1.810513"><ele>344.479</ele><time>2022-08-29T14:48:53Z</time></trkpt><trkpt lat="42.672580" lon="-1.809837"><ele>344.065</ele><time>2022-08-29T14:49:33Z</time></trkpt><trkpt lat="42.672545" lon="-1.809033"><ele>349.076</ele><time>2022-08-29T14:50:13Z</time></trkpt><trkpt lat="42.672623" lon="-1.808813"><ele>350.168</ele><time>2022-08-29T14:50:53Z</time></trkpt><trkpt lat="42.672776" lon="-1.808431"><ele>350.742</ele><time>2022-08-29T14:51:33Z</time></trkpt><trkpt lat="42.672347" lon="-1.807944"><ele>354.726</ele><time>2022-08-29T14:52:13Z</time></trkpt><trkpt lat="42.671779" lon="-1.807300"><ele>359.609</ele><time>2022-08-29T14:52:53Z</time></trkpt><trkpt lat="42.671830" lon="-1.807241"><ele>359.717</ele><time>2022-08-29T14:53:33Z</time></trkpt><trkpt lat="42.672244" lon="-1.806716"><ele>361.417</ele><time>2022-08-29T14:54:13Z</time></trkpt><trkpt lat="42.672640" lon="-1.805033"><ele>360.994</ele><time>2022-08-29T14:54:53Z</time></trkpt><trkpt lat="42.673702" lon="-1.803244"><ele>376.533</ele><time>2022-08-29T14:55:33Z</time></trkpt><trkpt lat="42.673766" lon="-1.802066"><ele>384.868</ele><time>2022-08-29T14:56:13Z</time></trkpt><trkpt lat="42.673747" lon="-1.801824"><ele>385.290</ele><time>2022-08-29T14:56:53Z</time></trkpt><trkpt lat="42.673712" lon="-1.801263"><ele>385.033</ele><time>2022-08-29T14:57:33Z</time></trkpt><trkpt lat="42.673722" lon="-1.799921"><ele>375.289</ele><time>2022-08-29T14:58:13Z</time></trkpt><trkpt lat="42.673897" lon="-1.799181"><ele>373.960</ele><time>2022-08-29T14:58:53Z</time></trkpt><trkpt lat="42.674442" lon="-1.798154"><ele>378.387</ele><time>2022-08-29T14:59:33Z</time></trkpt><trkpt lat="42.674446" lon="-1.798147"><ele>378.342</ele><time>2022-08-29T15:00:13Z</time></trkpt><trkpt lat="42.674612" lon="-1.797795"><ele>375.426</ele><time>2022-08-29T15:00:53Z</time></trkpt><trkpt lat="42.674866" lon="-1.795779"><ele>368.509</ele><time>2022-08-29T15:01:33Z</time></trkpt><trkpt lat="42.675769" lon="-1.793310"><ele>364.269</ele><time>2022-08-29T15:02:13Z</time></trkpt><trkpt lat="42.675979" lon="-1.792625"><ele>362.439</ele><time>2022-08-29T15:02:53Z</time></trkpt><trkpt lat="42.676060" lon="-1.791186"><ele>363.166</ele><time>2022-08-29T15:03:33Z</time></trkpt><trkpt lat="42.676759" lon="-1.790201"><ele>365.345</ele><time>2022-08-29T15:04:13Z</time></trkpt><trkpt lat="42.676760" lon="-1.790198"><ele>365.370</ele><time>2022-08-29T15:04:53Z</time></trkpt><trkpt lat="42.676229" lon="-1.783673"><ele>374.722</ele><time>2022-08-29T15:05:33Z</time></trkpt><trkpt lat="42.676182" lon="-1.771557"><ele>382.365</ele><time>2022-08-29T15:06:13Z</time></trkpt><trkpt lat="42.675786" lon="-1.771526"><ele>381.791</ele><time>2022-08-29T15:06:53Z</time></trkpt><trkpt lat="42.675111" lon="-1.770781"><ele>382.092</ele><time>2022-08-29T15:07:33Z</time></trkpt><trkpt lat="42.673517" lon="-1.765772"><ele>394.578</ele><time>2022-08-29T15:08:13Z</time></trkpt><trkpt lat="42.673516" lon="-1.765772"><ele>394.533</ele><time>2022-08-29T15:08:53Z</time></trkpt><trkpt lat="42.672145" lon="-1.764494"><ele>399.926</ele><time>2022-08-29T15:09:33Z</time></trkpt><trkpt lat="42.671422" lon="-1.763756"><ele>399.309</ele><time>2022-08-29T15:10:13Z</time></trkpt><trkpt lat="42.670130" lon="-1.763055"><ele>404.178</ele><time>2022-08-29T15:10:53Z</time></trkpt><trkpt lat="42.672561" lon="-1.762601"><ele>391.888</ele><time>2022-08-29T15:11:33Z</time></trkpt><trkpt lat="42.672631" lon="-1.762274"><ele>391.555</ele><time>2022-08-29T15:12:13Z</time></trkpt><trkpt lat="42.671292" lon="-1.757765"><ele>394.394</ele><time>2022-08-29T15:12:53Z</time></trkpt><trkpt lat="42.671120" lon="-1.757710"><ele>395.029</ele><time>2022-08-29T15:13:33Z</time></trkpt><trkpt lat="42.670005" lon="-1.755428"><ele>401.411</ele><time>2022-08-29T15:14:13Z</time></trkpt><trkpt lat="42.670277" lon="-1.754812"><ele>400.024</ele><time>2022-08-29T15:14:53Z</time></trkpt><trkpt lat="42.671106" lon="-1.751354"><ele>400.250</ele><time>2022-08-29T15:15:33Z</time></trkpt><trkpt lat="42.671111" lon="-1.751331"><ele>400.211</ele><time>2022-08-29T15:16:13Z</time></trkpt><trkpt lat="42.671557" lon="-1.748242"><ele>405.481</ele><time>2022-08-29T15:16:53Z</time></trkpt><trkpt lat="42.671174" lon="-1.744801"><ele>411.461</ele><time>2022-08-29T15:17:33Z</time></trkpt><trkpt lat="42.670413" lon="-1.740926"><ele>413.517</ele><time>2022-08-29T15:18:13Z</time></trkpt><trkpt lat="42.670340" lon="-1.735452"><ele>418.109</ele><time>2022-08-29T15:18:53Z</time></trkpt><trkpt lat="42.670942" lon="-1.730234"><ele>422.579</ele><time>2022-08-29T15:19:33Z</time></trkpt><trkpt lat="42.670853" lon="-1.728776"><ele>422.989</ele><time>2022-08-29T15:20:13Z</time></trkpt><trkpt lat="42.671194" lon="-1.728582"><ele>422.066</ele><time>2022-08-29T15:20:53Z</time></trkpt><trkpt lat="42.671644" lon="-1.728684"><ele>422.795</ele><time>2022-08-29T15:21:33Z</time></trkpt><trkpt lat="42.671650" lon="-1.728347"><ele>423.890</ele><time>2022-08-29T15:22:13Z</time></trkpt><trkpt lat="42.671546" lon="-1.727892"><ele>424.082</ele><time>2022-08-29T15:22:53Z</time></trkpt><trkpt lat="42.670769" lon="-1.726470"><ele>427.155</ele><time>2022-08-29T15:23:33Z</time></trkpt><trkpt lat="42.670508" lon="-1.725046"><ele>431.231</ele><time>2022-08-29T15:24:13Z</time></trkpt><trkpt lat="42.670406" lon="-1.724219"><ele>430.442</ele><time>2022-08-29T15:24:53Z</time></trkpt><trkpt lat="42.671947" lon="-1.723906"><ele>440.281</ele><time>2022-08-29T15:25:33Z</time></trkpt><trkpt lat="42.672567" lon="-1.724006"><ele>447.161</ele><time>2022-08-29T15:26:13Z</time></trkpt><trkpt lat="42.672730" lon="-1.723903"><ele>447.317</ele><time>2022-08-29T15:26:53Z</time></trkpt><trkpt lat="42.672779" lon="-1.723871"><ele>446.809</ele><time>2022-08-29T15:27:33Z</time></trkpt><trkpt lat="42.672982" lon="-1.723705"><ele>443.899</ele><time>2022-08-29T15:28:13Z</time></trkpt><trkpt lat="42.672565" lon="-1.720732"><ele>447.729</ele><time>2022-08-29T15:28:53Z</time></trkpt><trkpt lat="42.674210" lon="-1.717857"><ele>464.586</ele><time>2022-08-29T15:29:33Z</time></trkpt><trkpt lat="42.674449" lon="-1.717205"><ele>469.175</ele><time>2022-08-29T15:30:13Z</time></trkpt><trkpt lat="42.675326" lon="-1.714502"><ele>479.350</ele><time>2022-08-29T15:30:53Z</time></trkpt><trkpt lat="42.675515" lon="-1.711359"><ele>485.382</ele><time>2022-08-29T15:31:33Z</time></trkpt><trkpt lat="42.674677" lon="-1.709542"><ele>492.885</ele><time>2022-08-29T15:32:13Z</time></trkpt><trkpt lat="42.674671" lon="-1.709413"><ele>493.641</ele><time>2022-08-29T15:32:53Z</time></trkpt><trkpt lat="42.675606" lon="-1.706754"><ele>503.442</ele><time>2022-08-29T15:33:33Z</time></trkpt><trkpt lat="42.675635" lon="-1.706118"><ele>504.349</ele><time>2022-08-29T15:34:13Z</time></trkpt><trkpt lat="42.675856" lon="-1.705607"><ele>503.302</ele><time>2022-08-29T15:34:53Z</time></trkpt><trkpt lat="42.675762" lon="-1.705308"><ele>501.222</ele><time>2022-08-29T15:35:33Z</time></trkpt><trkpt lat="42.676447" lon="-1.704155"><ele>496.509</ele><time>2022-08-29T15:36:13Z</time></trkpt><trkpt lat="42.678308" lon="-1.702236"><ele>480.025</ele><time>2022-08-29T15:36:53Z</time></trkpt><trkpt lat="42.679776" lon="-1.699038"><ele>488.445</ele><time>2022-08-29T15:37:33Z</time></trkpt><trkpt lat="42.680806" lon="-1.697828"><ele>494.922</ele><time>2022-08-29T15:38:13Z</time></trkpt><trkpt lat="42.682004" lon="-1.697164"><ele>500.211</ele><time>2022-08-29T15:38:53Z</time></trkpt><trkpt lat="42.683963" lon="-1.695023"><ele>534.376</ele><time>2022-08-29T15:39:33Z</time></trkpt><trkpt lat="42.684305" lon="-1.694788"><ele>534.548</ele><time>2022-08-29T15:40:13Z</time></trkpt><trkpt lat="42.684588" lon="-1.694597"><ele>535.291</ele><time>2022-08-29T15:40:53Z</time></trkpt><trkpt lat="42.685621" lon="-1.693267"><ele>532.757</ele><time>2022-08-29T15:41:33Z</time></trkpt><trkpt lat="42.686304" lon="-1.691457"><ele>551.198</ele><time>2022-08-29T15:42:13Z</time></trkpt><trkpt lat="42.686698" lon="-1.690903"><ele>554.596</ele><time>2022-08-29T15:42:53Z</time></trkpt><trkpt lat="42.686944" lon="-1.689932"><ele>560.531</ele><time>2022-08-29T15:43:33Z</time></trkpt><trkpt lat="42.687146" lon="-1.689613"><ele>566.924</ele><time>2022-08-29T15:44:13Z</time></trkpt><trkpt lat="42.688750" lon="-1.689264"><ele>560.909</ele><time>2022-08-29T15:44:53Z</time></trkpt><trkpt lat="42.690079" lon="-1.686851"><ele>563.890</ele><time>2022-08-29T15:45:33Z</time></trkpt><trkpt lat="42.690071" lon="-1.686401"><ele>566.710</ele><time>2022-08-29T15:46:13Z</time></trkpt><trkpt lat="42.689699" lon="-1.685727"><ele>576.497</ele><time>2022-08-29T15:46:53Z</time></trkpt><trkpt lat="42.689729" lon="-1.684851"><ele>579.356</ele><time>2022-08-29T15:47:33Z</time></trkpt><trkpt lat="42.689580" lon="-1.684053"><ele>584.721</ele><time>2022-08-29T15:48:13Z</time></trkpt><trkpt lat="42.689569" lon="-1.683918"><ele>584.373</ele><time>2022-08-29T15:48:53Z</time></trkpt><trkpt lat="42.689895" lon="-1.679823"><ele>580.616</ele><time>2022-08-29T15:49:33Z</time></trkpt><trkpt lat="42.691300" lon="-1.679846"><ele>594.022</ele><time>2022-08-29T15:50:13Z</time></trkpt><trkpt lat="42.691670" lon="-1.679842"><ele>596.023</ele><time>2022-08-29T15:50:53Z</time></trkpt><trkpt lat="42.691908" lon="-1.679773"><ele>597.017</ele><time>2022-08-29T15:51:33Z</time></trkpt><trkpt lat="42.692231" lon="-1.679104"><ele>598.387</ele><time>2022-08-29T15:52:13Z</time></trkpt><trkpt lat="42.692230" lon="-1.678759"><ele>599.515</ele><time>2022-08-29T15:52:53Z</time></trkpt><trkpt lat="42.692745" lon="-1.678128"><ele>608.109</ele><time>2022-08-29T15:53:33Z</time></trkpt><trkpt lat="42.693973" lon="-1.678489"><ele>619.452</ele><time>2022-08-29T15:54:13Z</time></trkpt><trkpt lat="42.694610" lon="-1.678084"><ele>631.122</ele><time>2022-08-29T15:54:53Z</time></trkpt><trkpt lat="42.695214" lon="-1.678130"><ele>639.629</ele><time>2022-08-29T15:55:33Z</time></trkpt><trkpt lat="42.695333" lon="-1.678130"><ele>640.738</ele><time>2022-08-29T15:56:13Z</time></trkpt><trkpt lat="42.696257" lon="-1.677436"><ele>633.453</ele><time>2022-08-29T15:56:53Z</time></trkpt><trkpt lat="42.698988" lon="-1.676774"><ele>623.745</ele><time>2022-08-29T15:57:33Z</time></trkpt><trkpt lat="42.699564" lon="-1.676752"><ele>620.068</ele><time>2022-08-29T15:58:13Z</time></trkpt><trkpt lat="42.699977" lon="-1.676985"><ele>615.654</ele><time>2022-08-29T15:58:53Z</time></trkpt><trkpt lat="42.701419" lon="-1.678402"><ele>624.755</ele><time>2022-08-29T15:59:33Z</time></trkpt><trkpt lat="42.701797" lon="-1.678892"><ele>626.664</ele><time>2022-08-29T16:00:13Z</time></trkpt><trkpt lat="42.701921" lon="-1.679082"><ele>627.306</ele><time>2022-08-29T16:00:53Z</time></trkpt><trkpt lat="42.703853" lon="-1.681905"><ele>632.016</ele><time>2022-08-29T16:01:33Z</time></trkpt><trkpt lat="42.704367" lon="-1.681280"><ele>621.109</ele><time>2022-08-29T16:02:13Z</time></trkpt><trkpt lat="42.704657" lon="-1.679161"><ele>598.287</ele><time>2022-08-29T16:02:53Z</time></trkpt><trkpt lat="42.704817" lon="-1.678735"><ele>595.687</ele><time>2022-08-29T16:03:33Z</time></trkpt><trkpt lat="42.705142" lon="-1.678385"><ele>596.564</ele><time>2022-08-29T16:04:13Z</time></trkpt><trkpt lat="42.707250" lon="-1.678854"><ele>619.123</ele><time>2022-08-29T16:04:53Z</time></trkpt><trkpt lat="42.712557" lon="-1.674841"><ele>632.538</ele><time>2022-08-29T16:05:33Z</time></trkpt><trkpt lat="42.714378" lon="-1.674128"><ele>627.080</ele><time>2022-08-29T16:06:13Z</time></trkpt><trkpt lat="42.716128" lon="-1.672704"><ele>628.513</ele><time>2022-08-29T16:06:53Z</time></trkpt><trkpt lat="42.716305" lon="-1.672361"><ele>626.759</ele><time>2022-08-29T16:07:33Z</time></trkpt><trkpt lat="42.716363" lon="-1.671752"><ele>625.930</ele><time>2022-08-29T16:08:13Z</time></trkpt><trkpt lat="42.716920" lon="-1.671257"><ele>623.741</ele><time>2022-08-29T16:08:53Z</time></trkpt><trkpt lat="42.717430" lon="-1.671075"><ele>622.681</ele><time>2022-08-29T16:09:33Z</time></trkpt><trkpt lat="42.717690" lon="-1.670718"><ele>622.109</ele><time>2022-08-29T16:10:13Z</time></trkpt><trkpt lat="42.718364" lon="-1.669211"><ele>608.109</ele><time>2022-08-29T16:10:53Z</time></trkpt><trkpt lat="42.718810" lon="-1.668577"><ele>602.035</ele><time>2022-08-29T16:11:33Z</time></trkpt><trkpt lat="42.719581" lon="-1.668949"><ele>608.385</ele><time>2022-08-29T16:12:13Z</time></trkpt><trkpt lat="42.720638" lon="-1.668562"><ele>615.282</ele><time>2022-08-29T16:12:53Z</time></trkpt><trkpt lat="42.720882" lon="-1.668513"><ele>617.021</ele><time>2022-08-29T16:13:33Z</time></trkpt><trkpt lat="42.721955" lon="-1.668634"><ele>620.876</ele><time>2022-08-29T16:14:13Z</time></trkpt><trkpt lat="42.723083" lon="-1.668332"><ele>627.188</ele><time>2022-08-29T16:14:53Z</time></trkpt><trkpt lat="42.724083" lon="-1.667963"><ele>631.171</ele><time>2022-08-29T16:15:33Z</time></trkpt><trkpt lat="42.726790" lon="-1.667728"><ele>631.137</ele><time>2022-08-29T16:16:13Z</time></trkpt><trkpt lat="42.731324" lon="-1.671325"><ele>622.328</ele><time>2022-08-29T16:16:53Z</time></trkpt><trkpt lat="42.732683" lon="-1.670928"><ele>632.331</ele><time>2022-08-29T16:17:33Z</time></trkpt><trkpt lat="42.733642" lon="-1.670351"><ele>638.961</ele><time>2022-08-29T16:18:13Z</time></trkpt><trkpt lat="42.734062" lon="-1.670059"><ele>642.407</ele><time>2022-08-29T16:18:53Z</time></trkpt><trkpt lat="42.736896" lon="-1.671414"><ele>618.809</ele><time>2022-08-29T16:19:33Z</time></trkpt><trkpt lat="42.737300" lon="-1.671848"><ele>614.914</ele><time>2022-08-29T16:20:13Z</time></trkpt><trkpt lat="42.737946" lon="-1.673245"><ele>604.894</ele><time>2022-08-29T16:20:53Z</time></trkpt><trkpt lat="42.738522" lon="-1.674001"><ele>600.171</ele><time>2022-08-29T16:21:33Z</time></trkpt><trkpt lat="42.738890" lon="-1.674210"><ele>597.170</ele><time>2022-08-29T16:22:13Z</time></trkpt><trkpt lat="42.742911" lon="-1.674933"><ele>573.045</ele><time>2022-08-29T16:22:53Z</time></trkpt><trkpt lat="42.744914" lon="-1.674292"><ele>563.277</ele><time>2022-08-29T16:23:33Z</time></trkpt><trkpt lat="42.744970" lon="-1.674315"><ele>563.270</ele><time>2022-08-29T16:24:13Z</time></trkpt><trkpt lat="42.745104" lon="-1.674388"><ele>562.526</ele><time>2022-08-29T16:24:53Z</time></trkpt><trkpt lat="42.745768" lon="-1.675157"><ele>555.927</ele><time>2022-08-29T16:25:33Z</time></trkpt><trkpt lat="42.746309" lon="-1.677239"><ele>545.546</ele><time>2022-08-29T16:26:13Z</time></trkpt><trkpt lat="42.747404" lon="-1.677915"><ele>536.488</ele><time>2022-08-29T16:26:53Z</time></trkpt><trkpt lat="42.749246" lon="-1.679826"><ele>525.916</ele><time>2022-08-29T16:27:33Z</time></trkpt><trkpt lat="42.750508" lon="-1.680403"><ele>529.409</ele><time>2022-08-29T16:28:13Z</time></trkpt><trkpt lat="42.751044" lon="-1.680648"><ele>527.695</ele><time>2022-08-29T16:28:53Z</time></trkpt><trkpt lat="42.751567" lon="-1.681217"><ele>527.365</ele><time>2022-08-29T16:29:33Z</time></trkpt><trkpt lat="42.752308" lon="-1.682296"><ele>516.172</ele><time>2022-08-29T16:30:13Z</time></trkpt><trkpt lat="42.753615" lon="-1.682995"><ele>520.551</ele><time>2022-08-29T16:30:53Z</time></trkpt><trkpt lat="42.753871" lon="-1.683189"><ele>521.026</ele><time>2022-08-29T16:31:33Z</time></trkpt><trkpt lat="42.754428" lon="-1.683256"><ele>522.968</ele><time>2022-08-29T16:32:13Z</time></trkpt><trkpt lat="42.754679" lon="-1.683453"><ele>525.671</ele><time>2022-08-29T16:32:53Z</time></trkpt><trkpt lat="42.754870" lon="-1.683917"><ele>527.167</ele><time>2022-08-29T16:33:33Z</time></trkpt><trkpt lat="42.755758" lon="-1.684077"><ele>528.928</ele><time>2022-08-29T16:34:13Z</time></trkpt><trkpt lat="42.756012" lon="-1.684618"><ele>530.248</ele><time>2022-08-29T16:34:53Z</time></trkpt><trkpt lat="42.756173" lon="-1.686091"><ele>536.961</ele><time>2022-08-29T16:35:33Z</time></trkpt><trkpt lat="42.756208" lon="-1.686308"><ele>538.117</ele><time>2022-08-29T16:36:13Z</time></trkpt><trkpt lat="42.756358" lon="-1.687129"><ele>538.109</ele><time>2022-08-29T16:36:53Z</time></trkpt><trkpt lat="42.757627" lon="-1.690371"><ele>534.085</ele><time>2022-08-29T16:37:33Z</time></trkpt><trkpt lat="42.758368" lon="-1.691798"><ele>532.975</ele><time>2022-08-29T16:38:13Z</time></trkpt><trkpt lat="42.758406" lon="-1.692000"><ele>532.792</ele><time>2022-08-29T16:38:53Z</time></trkpt><trkpt lat="42.758380" lon="-1.693042"><ele>532.811</ele><time>2022-08-29T16:39:33Z</time></trkpt><trkpt lat="42.757913" lon="-1.694572"><ele>529.836</ele><time>2022-08-29T16:40:13Z</time></trkpt><trkpt lat="42.757753" lon="-1.695920"><ele>530.428</ele><time>2022-08-29T16:40:53Z</time></trkpt><trkpt lat="42.758436" lon="-1.696620"><ele>530.441</ele><time>2022-08-29T16:41:33Z</time></trkpt><trkpt lat="42.758576" lon="-1.697324"><ele>531.497</ele><time>2022-08-29T16:42:13Z</time></trkpt><trkpt lat="42.758633" lon="-1.697654"><ele>532.038</ele><time>2022-08-29T16:42:53Z</time></trkpt><trkpt lat="42.758862" lon="-1.698397"><ele>531.141</ele><time>2022-08-29T16:43:33Z</time></trkpt><trkpt lat="42.758774" lon="-1.698643"><ele>531.481</ele><time>2022-08-29T16:44:13Z</time></trkpt><trkpt lat="42.758781" lon="-1.698656"><ele>531.409</ele><time>2022-08-29T16:44:53Z</time></trkpt><trkpt lat="42.759487" lon="-1.699608"><ele>529.309</ele><time>2022-08-29T16:45:33Z</time></trkpt><trkpt lat="42.760049" lon="-1.700724"><ele>527.335</ele><time>2022-08-29T16:46:13Z</time></trkpt><trkpt lat="42.763752" lon="-1.702471"><ele>501.685</ele><time>2022-08-29T16:46:53Z</time></trkpt><trkpt lat="42.764957" lon="-1.703412"><ele>499.782</ele><time>2022-08-29T16:47:33Z</time></trkpt><trkpt lat="42.765858" lon="-1.704155"><ele>489.961</ele><time>2022-08-29T16:48:13Z</time></trkpt><trkpt lat="42.766701" lon="-1.702464"><ele>490.426</ele><time>2022-08-29T16:48:53Z</time></trkpt><trkpt lat="42.767383" lon="-1.701606"><ele>493.388</ele><time>2022-08-29T16:49:33Z</time></trkpt><trkpt lat="42.768994" lon="-1.700650"><ele>489.671</ele><time>2022-08-29T16:50:13Z</time></trkpt><trkpt lat="42.770343" lon="-1.699343"><ele>490.677</ele><time>2022-08-29T16:50:53Z</time></trkpt><trkpt lat="42.771169" lon="-1.697965"><ele>497.088</ele><time>2022-08-29T16:51:33Z</time></trkpt><trkpt lat="42.771361" lon="-1.697069"><ele>496.372</ele><time>2022-08-29T16:52:13Z</time></trkpt><trkpt lat="42.771366" lon="-1.696777"><ele>494.813</ele><time>2022-08-29T16:52:53Z</time></trkpt><trkpt lat="42.772132" lon="-1.695195"><ele>484.914</ele><time>2022-08-29T16:53:33Z</time></trkpt><trkpt lat="42.772702" lon="-1.694300"><ele>477.109</ele><time>2022-08-29T16:54:13Z</time></trkpt><trkpt lat="42.775733" lon="-1.694275"><ele>473.548</ele><time>2022-08-29T16:54:53Z</time></trkpt><trkpt lat="42.776230" lon="-1.694081"><ele>476.498</ele><time>2022-08-29T16:55:33Z</time></trkpt><trkpt lat="42.776578" lon="-1.693957"><ele>476.065</ele><time>2022-08-29T16:56:13Z</time></trkpt><trkpt lat="42.777278" lon="-1.693710"><ele>466.844</ele><time>2022-08-29T16:56:53Z</time></trkpt><trkpt lat="42.777637" lon="-1.693599"><ele>463.829</ele><time>2022-08-29T16:57:33Z</time></trkpt><trkpt lat="42.777705" lon="-1.693546"><ele>463.161</ele><time>2022-08-29T16:58:13Z</time></trkpt><trkpt lat="42.777824" lon="-1.693288"><ele>459.084</ele><time>2022-08-29T16:58:53Z</time></trkpt><trkpt lat="42.778170" lon="-1.688749"><ele>443.350</ele><time>2022-08-29T16:59:33Z</time></trkpt><trkpt lat="42.778338" lon="-1.688273"><ele>443.021</ele><time>2022-08-29T17:00:13Z</time></trkpt><trkpt lat="42.779966" lon="-1.686123"><ele>437.343</ele><time>2022-08-29T17:00:53Z</time></trkpt><trkpt lat="42.781387" lon="-1.683680"><ele>434.064</ele><time>2022-08-29T17:01:33Z</time></trkpt><trkpt lat="42.781806" lon="-1.682634"><ele>433.010</ele><time>2022-08-29T17:02:13Z</time></trkpt><trkpt lat="42.782413" lon="-1.681993"><ele>433.909</ele><time>2022-08-29T17:02:53Z</time></trkpt><trkpt lat="42.782648" lon="-1.681527"><ele>434.555</ele><time>2022-08-29T17:03:33Z</time></trkpt><trkpt lat="42.783947" lon="-1.680526"><ele>439.345</ele><time>2022-08-29T17:04:13Z</time></trkpt><trkpt lat="42.785795" lon="-1.678464"><ele>454.962</ele><time>2022-08-29T17:04:53Z</time></trkpt><trkpt lat="42.785832" lon="-1.678435"><ele>455.011</ele><time>2022-08-29T17:05:33Z</time></trkpt><trkpt lat="42.786647" lon="-1.677791"><ele>456.036</ele><time>2022-08-29T17:06:13Z</time></trkpt><trkpt lat="42.786470" lon="-1.677183"><ele>456.428</ele><time>2022-08-29T17:06:53Z</time></trkpt><trkpt lat="42.787908" lon="-1.676268"><ele>463.961</ele><time>2022-08-29T17:07:33Z</time></trkpt><trkpt lat="42.787951" lon="-1.675917"><ele>463.487</ele><time>2022-08-29T17:08:13Z</time></trkpt><trkpt lat="42.788337" lon="-1.675284"><ele>460.068</ele><time>2022-08-29T17:08:53Z</time></trkpt><trkpt lat="42.790833" lon="-1.674728"><ele>437.069</ele><time>2022-08-29T17:09:33Z</time></trkpt><trkpt lat="42.792280" lon="-1.673798"><ele>430.604</ele><time>2022-08-29T17:10:13Z</time></trkpt><trkpt lat="42.793748" lon="-1.673095"><ele>419.524</ele><time>2022-08-29T17:10:53Z</time></trkpt><trkpt lat="42.794339" lon="-1.672571"><ele>417.409</ele><time>2022-08-29T17:11:33Z</time></trkpt><trkpt lat="42.795231" lon="-1.671399"><ele>415.067</ele><time>2022-08-29T17:12:13Z</time></trkpt><trkpt lat="42.795451" lon="-1.670837"><ele>415.477</ele><time>2022-08-29T17:12:53Z</time></trkpt><trkpt lat="42.795608" lon="-1.670281"><ele>417.024</ele><time>2022-08-29T17:13:33Z</time></trkpt><trkpt lat="42.796092" lon="-1.669178"><ele>413.053</ele><time>2022-08-29T17:14:13Z</time></trkpt><trkpt lat="42.797007" lon="-1.668461"><ele>411.048</ele><time>2022-08-29T17:14:53Z</time></trkpt><trkpt lat="42.797770" lon="-1.667298"><ele>410.020</ele><time>2022-08-29T17:15:33Z</time></trkpt><trkpt lat="42.797896" lon="-1.667086"><ele>409.173</ele><time>2022-08-29T17:16:13Z</time></trkpt><trkpt lat="42.798005" lon="-1.666977"><ele>409.659</ele><time>2022-08-29T17:16:53Z</time></trkpt><trkpt lat="42.798530" lon="-1.666532"><ele>409.890</ele><time>2022-08-29T17:17:33Z</time></trkpt><trkpt lat="42.801230" lon="-1.665067"><ele>410.397</ele><time>2022-08-29T17:18:13Z</time></trkpt><trkpt lat="42.801551" lon="-1.663696"><ele>411.323</ele><time>2022-08-29T17:18:53Z</time></trkpt><trkpt lat="42.801666" lon="-1.663749"><ele>411.525</ele><time>2022-08-29T17:19:33Z</time></trkpt><trkpt lat="42.802127" lon="-1.662931"><ele>415.109</ele><time>2022-08-29T17:20:13Z</time></trkpt><trkpt lat="42.802172" lon="-1.662856"><ele>415.690</ele><time>2022-08-29T17:20:53Z</time></trkpt><trkpt lat="42.802072" lon="-1.662670"><ele>414.960</ele><time>2022-08-29T17:21:33Z</time></trkpt><trkpt lat="42.802157" lon="-1.662550"><ele>415.597</ele><time>2022-08-29T17:22:13Z</time></trkpt><trkpt lat="42.803099" lon="-1.661503"><ele>424.826</ele><time>2022-08-29T17:22:53Z</time></trkpt><trkpt lat="42.804339" lon="-1.660477"><ele>428.071</ele><time>2022-08-29T17:23:33Z</time></trkpt><trkpt lat="42.804355" lon="-1.660185"><ele>427.833</ele><time>2022-08-29T17:24:13Z</time></trkpt><trkpt lat="42.805223" lon="-1.659496"><ele>434.926</ele><time>2022-08-29T17:24:53Z</time></trkpt><trkpt lat="42.805985" lon="-1.658435"><ele>442.552</ele><time>2022-08-29T17:25:33Z</time></trkpt><trkpt lat="42.806109" lon="-1.658257"><ele>443.093</ele><time>2022-08-29T17:26:13Z</time></trkpt><trkpt lat="42.806581" lon="-1.657075"><ele>444.952</ele><time>2022-08-29T17:26:53Z</time></trkpt><trkpt lat="42.808849" lon="-1.653412"><ele>448.053</ele><time>2022-08-29T17:27:33Z</time></trkpt><trkpt lat="42.808861" lon="-1.653227"><ele>448.008</ele><time>2022-08-29T17:28:13Z</time></trkpt><trkpt lat="42.809578" lon="-1.652943"><ele>448.009</ele><time>2022-08-29T17:28:53Z</time></trkpt><trkpt lat="42.809474" lon="-1.652633"><ele>448.126</ele><time>2022-08-29T17:29:33Z</time></trkpt><trkpt lat="42.809570" lon="-1.652518"><ele>448.466</ele><time>2022-08-29T17:30:13Z</time></trkpt><trkpt lat="42.810286" lon="-1.653418"><ele>447.713</ele><time>2022-08-29T17:30:53Z</time></trkpt><trkpt lat="42.811907" lon="-1.654384"><ele>445.332</ele><time>2022-08-29T17:31:33Z</time></trkpt><trkpt lat="42.812512" lon="-1.654442"><ele>444.047</ele><time>2022-08-29T17:32:13Z</time></trkpt><trkpt lat="42.812483" lon="-1.654812"><ele>444.019</ele><time>2022-08-29T17:32:53Z</time></trkpt><trkpt lat="42.812563" lon="-1.654914"><ele>444.062</ele><time>2022-08-29T17:33:33Z</time></trkpt><trkpt lat="42.813670" lon="-1.653586"><ele>444.188</ele><time>2022-08-29T17:34:13Z</time></trkpt><trkpt lat="42.814510" lon="-1.652903"><ele>445.039</ele><time>2022-08-29T17:34:53Z</time></trkpt><trkpt lat="42.815631" lon="-1.651191"><ele>445.982</ele><time>2022-08-29T17:35:33Z</time></trkpt><trkpt lat="42.815804" lon="-1.650893"><ele>446.043</ele><time>2022-08-29T17:36:13Z</time></trkpt><trkpt lat="42.815619" lon="-1.649176"><ele>447.017</ele><time>2022-08-29T17:36:53Z</time></trkpt><trkpt lat="42.815638" lon="-1.648885"><ele>447.009</ele><time>2022-08-29T17:37:33Z</time></trkpt><trkpt lat="42.815856" lon="-1.648619"><ele>447.039</ele><time>2022-08-29T17:38:13Z</time></trkpt><trkpt lat="42.815984" lon="-1.648516"><ele>447.099</ele><time>2022-08-29T17:38:53Z</time></trkpt><trkpt lat="42.816682" lon="-1.649294"><ele>445.976</ele><time>2022-08-29T17:39:33Z</time></trkpt><trkpt lat="42.817420" lon="-1.650138"><ele>443.355</ele><time>2022-08-29T17:40:13Z</time></trkpt><trkpt lat="42.817767" lon="-1.650454"><ele>440.520</ele><time>2022-08-29T17:40:53Z</time></trkpt><trkpt lat="42.818483" lon="-1.650723"><ele>437.392</ele><time>2022-08-29T17:41:33Z</time></trkpt><trkpt lat="42.818987" lon="-1.651138"><ele>426.085</ele><time>2022-08-29T17:42:13Z</time></trkpt><trkpt lat="42.819441" lon="-1.652365"><ele>423.211</ele><time>2022-08-29T17:42:53Z</time></trkpt><trkpt lat="42.820006" lon="-1.652874"><ele>416.992</ele><time>2022-08-29T17:43:33Z</time></trkpt><trkpt lat="42.820075" lon="-1.653054"><ele>417.617</ele><time>2022-08-29T17:44:13Z</time></trkpt><trkpt lat="42.820188" lon="-1.653320"><ele>417.587</ele><time>2022-08-29T17:44:53Z</time></trkpt><trkpt lat="42.820351" lon="-1.653546"><ele>416.015</ele><time>2022-08-29T17:45:33Z</time></trkpt><trkpt lat="42.820496" lon="-1.653676"><ele>415.809</ele><time>2022-08-29T17:46:13Z</time></trkpt><trkpt lat="42.820546" lon="-1.653530"><ele>415.252</ele><time>2022-08-29T17:46:53Z</time></trkpt><trkpt lat="42.820361" lon="-1.653177"><ele>414.122</ele><time>2022-08-29T17:47:33Z</time></trkpt><trkpt lat="42.819892" lon="-1.652555"><ele>414.769</ele><time>2022-08-29T17:48:13Z</time></trkpt><trkpt lat="42.820247" lon="-1.652017"><ele>411.288</ele><time>2022-08-29T17:48:53Z</time></trkpt><trkpt lat="42.821474" lon="-1.653559"><ele>409.443</ele><time>2022-08-29T17:49:33Z</time></trkpt><trkpt lat="42.822360" lon="-1.654307"><ele>411.745</ele><time>2022-08-29T17:50:13Z</time></trkpt><trkpt lat="42.822550" lon="-1.654492"><ele>412.438</ele><time>2022-08-29T17:50:53Z</time></trkpt><trkpt lat="42.822958" lon="-1.654829"><ele>409.074</ele><time>2022-08-29T17:51:33Z</time></trkpt><trkpt lat="42.823823" lon="-1.654965"><ele>410.695</ele><time>2022-08-29T17:52:13Z</time></trkpt><trkpt lat="42.824724" lon="-1.656111"><ele>412.026</ele><time>2022-08-29T17:52:53Z</time></trkpt><trkpt lat="42.825031" lon="-1.656941"><ele>412.247</ele><time>2022-08-29T17:53:33Z</time></trkpt><trkpt lat="42.825202" lon="-1.656677"><ele>413.711</ele><time>2022-08-29T17:54:13Z</time></trkpt><trkpt lat="42.825340" lon="-1.656760"><ele>414.409</ele><time>2022-08-29T17:54:53Z</time></trkpt><trkpt lat="42.825256" lon="-1.657021"><ele>413.863</ele><time>2022-08-29T17:55:33Z</time></trkpt><trkpt lat="42.826055" lon="-1.657508"><ele>417.653</ele><time>2022-08-29T17:56:13Z</time></trkpt><trkpt lat="42.826105" lon="-1.657759"><ele>418.030</ele><time>2022-08-29T17:56:53Z</time></trkpt><trkpt lat="42.826466" lon="-1.657647"><ele>417.349</ele><time>2022-08-29T17:57:33Z</time></trkpt><trkpt lat="42.827043" lon="-1.656861"><ele>418.074</ele><time>2022-08-29T17:58:13Z</time></trkpt><trkpt lat="42.827506" lon="-1.656444"><ele>418.036</ele><time>2022-08-29T17:58:53Z</time></trkpt><trkpt lat="42.827818" lon="-1.656163"><ele>419.059</ele><time>2022-08-29T17:59:33Z</time></trkpt><trkpt lat="42.828503" lon="-1.655794"><ele>420.065</ele><time>2022-08-29T18:00:13Z</time></trkpt><trkpt lat="42.830627" lon="-1.655258"><ele>422.596</ele><time>2022-08-29T18:00:53Z</time></trkpt><trkpt lat="42.831183" lon="-1.655619"><ele>426.159</ele><time>2022-08-29T18:01:33Z</time></trkpt><trkpt lat="42.834107" lon="-1.657518"><ele>429.703</ele><time>2022-08-29T18:02:13Z</time></trkpt><trkpt lat="42.834270" lon="-1.657623"><ele>429.523</ele><time>2022-08-29T18:02:53Z</time></trkpt><trkpt lat="42.836450" lon="-1.659039"><ele>435.209</ele><time>2022-08-29T18:03:33Z</time></trkpt><trkpt lat="42.836781" lon="-1.660271"><ele>436.546</ele><time>2022-08-29T18:04:13Z</time></trkpt><trkpt lat="42.837099" lon="-1.660629"><ele>432.386</ele><time>2022-08-29T18:04:53Z</time></trkpt><trkpt lat="42.837510" lon="-1.660006"><ele>434.083</ele><time>2022-08-29T18:05:33Z</time></trkpt><trkpt lat="42.837637" lon="-1.660134"><ele>433.832</ele><time>2022-08-29T18:06:13Z</time></trkpt><trkpt lat="42.838000" lon="-1.660644"><ele>433.397</ele><time>2022-08-29T18:06:53Z</time></trkpt><trkpt lat="42.838486" lon="-1.661789"><ele>433.669</ele><time>2022-08-29T18:07:33Z</time></trkpt><trkpt lat="42.838869" lon="-1.663793"><ele>432.952</ele><time>2022-08-29T18:08:13Z</time></trkpt><trkpt lat="42.839509" lon="-1.667795"><ele>431.278</ele><time>2022-08-29T18:08:53Z</time></trkpt><trkpt lat="42.840071" lon="-1.668450"><ele>431.399</ele><time>2022-08-29T18:09:33Z</time></trkpt><trkpt lat="42.843206" lon="-1.673600"><ele>438.223</ele><time>2022-08-29T18:10:13Z</time></trkpt><trkpt lat="42.844408" lon="-1.675021"><ele>439.783</ele><time>2022-08-29T18:10:53Z</time></trkpt><trkpt lat="42.845160" lon="-1.676501"><ele>440.111</ele><time>2022-08-29T18:11:33Z</time></trkpt><trkpt lat="42.845860" lon="-1.677114"><ele>441.509</ele><time>2022-08-29T18:12:13Z</time></trkpt><trkpt lat="42.846191" lon="-1.677219"><ele>442.693</ele><time>2022-08-29T18:12:53Z</time></trkpt><trkpt lat="42.846386" lon="-1.679414"><ele>438.063</ele><time>2022-08-29T18:13:33Z</time></trkpt><trkpt lat="42.846841" lon="-1.681681"><ele>439.260</ele><time>2022-08-29T18:14:13Z</time></trkpt><trkpt lat="42.846875" lon="-1.682104"><ele>437.749</ele><time>2022-08-29T18:14:53Z</time></trkpt><trkpt lat="42.847145" lon="-1.682438"><ele>436.434</ele><time>2022-08-29T18:15:33Z</time></trkpt><trkpt lat="42.847504" lon="-1.682411"><ele>437.326</ele><time>2022-08-29T18:16:13Z</time></trkpt><trkpt lat="42.847599" lon="-1.682723"><ele>436.269</ele><time>2022-08-29T18:16:53Z</time></trkpt><trkpt lat="42.847237" lon="-1.683477"><ele>434.075</ele><time>2022-08-29T18:17:33Z</time></trkpt><trkpt lat="42.847561" lon="-1.684127"><ele>433.186</ele><time>2022-08-29T18:18:13Z</time></trkpt><trkpt lat="42.847809" lon="-1.684283"><ele>432.646</ele><time>2022-08-29T18:18:53Z</time></trkpt><trkpt lat="42.848119" lon="-1.683013"><ele>436.088</ele><time>2022-08-29T18:19:33Z</time></trkpt><trkpt lat="42.848152" lon="-1.682905"><ele>436.216</ele><time>2022-08-29T18:20:13Z</time></trkpt><trkpt lat="42.851298" lon="-1.683321"><ele>446.409</ele><time>2022-08-29T18:20:53Z</time></trkpt><trkpt lat="42.851603" lon="-1.683399"><ele>446.845</ele><time>2022-08-29T18:21:33Z</time></trkpt><trkpt lat="42.852156" lon="-1.684725"><ele>440.795</ele><time>2022-08-29T18:22:13Z</time></trkpt><trkpt lat="42.852442" lon="-1.684960"><ele>440.042</ele><time>2022-08-29T18:22:53Z</time></trkpt><trkpt lat="42.852690" lon="-1.685818"><ele>439.771</ele><time>2022-08-29T18:23:33Z</time></trkpt><trkpt lat="42.852708" lon="-1.687724"><ele>437.776</ele><time>2022-08-29T18:24:13Z</time></trkpt><trkpt lat="42.852885" lon="-1.689133"><ele>443.538</ele><time>2022-08-29T18:24:53Z</time></trkpt><trkpt lat="42.852976" lon="-1.689304"><ele>445.341</ele><time>2022-08-29T18:25:33Z</time></trkpt><trkpt lat="42.853235" lon="-1.689262"><ele>446.337</ele><time>2022-08-29T18:26:13Z</time></trkpt><trkpt lat="42.854327" lon="-1.689024"><ele>448.828</ele><time>2022-08-29T18:26:53Z</time></trkpt><trkpt lat="42.854415" lon="-1.689352"><ele>450.658</ele><time>2022-08-29T18:27:33Z</time></trkpt><trkpt lat="42.854818" lon="-1.689132"><ele>451.052</ele><time>2022-08-29T18:28:13Z</time></trkpt><trkpt lat="42.855568" lon="-1.691283"><ele>458.017</ele><time>2022-08-29T18:28:53Z</time></trkpt><trkpt lat="42.855611" lon="-1.691521"><ele>458.009</ele><time>2022-08-29T18:29:33Z</time></trkpt><trkpt lat="42.855673" lon="-1.691861"><ele>457.046</ele><time>2022-08-29T18:30:13Z</time></trkpt><trkpt lat="42.857287" lon="-1.690686"><ele>459.156</ele><time>2022-08-29T18:30:53Z</time></trkpt><trkpt lat="42.857622" lon="-1.690328"><ele>460.183</ele><time>2022-08-29T18:31:33Z</time></trkpt><trkpt lat="42.858244" lon="-1.689834"><ele>459.862</ele><time>2022-08-29T18:32:13Z</time></trkpt><trkpt lat="42.859042" lon="-1.689200"><ele>461.127</ele><time>2022-08-29T18:32:53Z</time></trkpt><trkpt lat="42.863644" lon="-1.694668"><ele>448.289</ele><time>2022-08-29T18:33:33Z</time></trkpt><trkpt lat="42.864434" lon="-1.695770"><ele>449.862</ele><time>2022-08-29T18:34:13Z</time></trkpt><trkpt lat="42.864889" lon="-1.697178"><ele>453.068</ele><time>2022-08-29T18:34:53Z</time></trkpt><trkpt lat="42.865791" lon="-1.703409"><ele>461.339</ele><time>2022-08-29T18:35:33Z</time></trkpt><trkpt lat="42.867806" lon="-1.716545"><ele>477.692</ele><time>2022-08-29T18:36:13Z</time></trkpt><trkpt lat="42.866506" lon="-1.716513"><ele>469.373</ele><time>2022-08-29T18:36:53Z</time></trkpt><trkpt lat="42.866045" lon="-1.716828"><ele>465.520</ele><time>2022-08-29T18:37:33Z</time></trkpt><trkpt lat="42.865187" lon="-1.716783"><ele>461.909</ele><time>2022-08-29T18:38:13Z</time></trkpt><trkpt lat="42.864464" lon="-1.716693"><ele>455.150</ele><time>2022-08-29T18:38:53Z</time></trkpt><trkpt lat="42.863245" lon="-1.716828"><ele>450.920</ele><time>2022-08-29T18:39:33Z</time></trkpt><trkpt lat="42.868977" lon="-1.728019"><ele>484.937</ele><time>2022-08-29T18:40:13Z</time></trkpt><trkpt lat="42.870729" lon="-1.731800"><ele>513.966</ele><time>2022-08-29T18:40:53Z</time></trkpt><trkpt lat="42.870887" lon="-1.732239"><ele>515.421</ele><time>2022-08-29T18:41:33Z</time></trkpt><trkpt lat="42.870982" lon="-1.732532"><ele>516.623</ele><time>2022-08-29T18:42:13Z</time></trkpt><trkpt lat="42.872831" lon="-1.737989"><ele>513.276</ele><time>2022-08-29T18:42:53Z</time></trkpt><trkpt lat="42.874067" lon="-1.741602"><ele>506.912</ele><time>2022-08-29T18:43:33Z</time></trkpt><trkpt lat="42.874657" lon="-1.743002"><ele>510.853</ele><time>2022-08-29T18:44:13Z</time></trkpt><trkpt lat="42.875092" lon="-1.743441"><ele>515.243</ele><time>2022-08-29T18:44:53Z</time></trkpt><trkpt lat="42.874908" lon="-1.743536"><ele>513.164</ele><time>2022-08-29T18:45:33Z</time></trkpt><trkpt lat="42.876094" lon="-1.746656"><ele>523.810</ele><time>2022-08-29T18:46:13Z</time></trkpt><trkpt lat="42.876230" lon="-1.746920"><ele>524.409</ele><time>2022-08-29T18:46:53Z</time></trkpt><trkpt lat="42.876267" lon="-1.747608"><ele>521.615</ele><time>2022-08-29T18:47:33Z</time></trkpt><trkpt lat="42.877702" lon="-1.751755"><ele>515.975</ele><time>2022-08-29T18:48:13Z</time></trkpt><trkpt lat="42.880835" lon="-1.756200"><ele>516.422</ele><time>2022-08-29T18:48:53Z</time></trkpt><trkpt lat="42.881160" lon="-1.757560"><ele>515.761</ele><time>2022-08-29T18:49:33Z</time></trkpt><trkpt lat="42.881668" lon="-1.761283"><ele>507.876</ele><time>2022-08-29T18:50:13Z</time></trkpt><trkpt lat="42.882073" lon="-1.762969"><ele>512.688</ele><time>2022-08-29T18:50:53Z</time></trkpt><trkpt lat="42.882396" lon="-1.763964"><ele>506.751</ele><time>2022-08-29T18:51:33Z</time></trkpt><trkpt lat="42.882692" lon="-1.764314"><ele>508.077</ele><time>2022-08-29T18:52:13Z</time></trkpt><trkpt lat="42.882872" lon="-1.764273"><ele>511.998</ele><time>2022-08-29T18:52:53Z</time></trkpt><trkpt lat="42.882901" lon="-1.764256"><ele>512.455</ele><time>2022-08-29T18:53:33Z</time></trkpt><trkpt lat="42.883013" lon="-1.763499"><ele>519.607</ele><time>2022-08-29T18:54:13Z</time></trkpt><trkpt lat="42.883103" lon="-1.763538"><ele>522.517</ele><time>2022-08-29T18:54:53Z</time></trkpt><trkpt lat="42.883259" lon="-1.763902"><ele>524.709</ele><time>2022-08-29T18:55:33Z</time></trkpt><trkpt lat="42.883336" lon="-1.764134"><ele>525.556</ele><time>2022-08-29T18:56:13Z</time></trkpt><trkpt lat="42.883651" lon="-1.764911"><ele>523.756</ele><time>2022-08-29T18:56:53Z</time></trkpt><trkpt lat="42.883817" lon="-1.765081"><ele>527.263</ele><time>2022-08-29T18:57:33Z</time></trkpt><trkpt lat="42.884414" lon="-1.765694"><ele>535.012</ele><time>2022-08-29T18:58:13Z</time></trkpt><trkpt lat="42.884490" lon="-1.765773"><ele>534.897</ele><time>2022-08-29T18:58:53Z</time></trkpt><trkpt lat="42.884709" lon="-1.765634"><ele>543.649</ele><time>2022-08-29T18:59:33Z</time></trkpt><trkpt lat="42.884834" lon="-1.765276"><ele>544.682</ele><time>2022-08-29T19:00:13Z</time></trkpt><trkpt lat="42.884899" lon="-1.765285"><ele>541.998</ele><time>2022-08-29T19:00:53Z</time></trkpt><trkpt lat="42.884892" lon="-1.765871"><ele>533.779</ele><time>2022-08-29T19:01:33Z</time></trkpt><trkpt lat="42.884936" lon="-1.766015"><ele>527.175</ele><time>2022-08-29T19:02:13Z</time></trkpt><trkpt lat="42.884989" lon="-1.766045"><ele>526.528</ele><time>2022-08-29T19:02:53Z</time></trkpt><trkpt lat="42.885096" lon="-1.765727"><ele>529.020</ele><time>2022-08-29T19:03:33Z</time></trkpt><trkpt lat="42.885185" lon="-1.765600"><ele>526.509</ele><time>2022-08-29T19:04:13Z</time></trkpt><trkpt lat="42.885334" lon="-1.765617"><ele>520.378</ele><time>2022-08-29T19:04:53Z</time></trkpt><trkpt lat="42.885196" lon="-1.766055"><ele>520.278</ele><time>2022-08-29T19:05:33Z</time></trkpt><trkpt lat="42.885232" lon="-1.766146"><ele>517.065</ele><time>2022-08-29T19:06:13Z</time></trkpt><trkpt lat="42.885613" lon="-1.765944"><ele>506.884</ele><time>2022-08-29T19:06:53Z</time></trkpt><trkpt lat="42.885751" lon="-1.765424"><ele>508.369</ele><time>2022-08-29T19:07:33Z</time></trkpt><trkpt lat="42.885870" lon="-1.765479"><ele>504.521</ele><time>2022-08-29T19:08:13Z</time></trkpt><trkpt lat="42.885902" lon="-1.765772"><ele>501.134</ele><time>2022-08-29T19:08:53Z</time></trkpt><trkpt lat="42.885908" lon="-1.765824"><ele>500.580</ele><time>2022-08-29T19:09:33Z</time></trkpt><trkpt lat="42.886208" lon="-1.765512"><ele>498.181</ele><time>2022-08-29T19:10:13Z</time></trkpt><trkpt lat="42.886219" lon="-1.766055"><ele>499.678</ele><time>2022-08-29T19:10:53Z</time></trkpt><trkpt lat="42.885905" lon="-1.766795"><ele>506.133</ele><time>2022-08-29T19:11:33Z</time></trkpt><trkpt lat="42.885904" lon="-1.766796"><ele>506.126</ele><time>2022-08-29T19:12:13Z</time></trkpt><trkpt lat="42.885761" lon="-1.767277"><ele>504.009</ele><time>2022-08-29T19:12:53Z</time></trkpt><trkpt lat="42.885694" lon="-1.767533"><ele>496.458</ele><time>2022-08-29T19:13:33Z</time></trkpt><trkpt lat="42.887468" lon="-1.768632"><ele>509.548</ele><time>2022-08-29T19:14:13Z</time></trkpt><trkpt lat="42.887686" lon="-1.768495"><ele>514.685</ele><time>2022-08-29T19:14:53Z</time></trkpt><trkpt lat="42.887850" lon="-1.768393"><ele>515.494</ele><time>2022-08-29T19:15:33Z</time></trkpt><trkpt lat="42.888068" lon="-1.768257"><ele>512.159</ele><time>2022-08-29T19:16:13Z</time></trkpt><trkpt lat="42.888230" lon="-1.768398"><ele>512.521</ele><time>2022-08-29T19:16:53Z</time></trkpt><trkpt lat="42.889001" lon="-1.769381"><ele>519.974</ele><time>2022-08-29T19:17:33Z</time></trkpt><trkpt lat="42.890601" lon="-1.772741"><ele>534.260</ele><time>2022-08-29T19:18:13Z</time></trkpt><trkpt lat="42.890747" lon="-1.773147"><ele>536.171</ele><time>2022-08-29T19:18:53Z</time></trkpt><trkpt lat="42.890935" lon="-1.773853"><ele>531.029</ele><time>2022-08-29T19:19:33Z</time></trkpt><trkpt lat="42.891190" lon="-1.775607"><ele>523.900</ele><time>2022-08-29T19:20:13Z</time></trkpt><trkpt lat="42.891540" lon="-1.776430"><ele>520.720</ele><time>2022-08-29T19:20:53Z</time></trkpt><trkpt lat="42.891703" lon="-1.776533"><ele>519.809</ele><time>2022-08-29T19:21:33Z</time></trkpt><trkpt lat="42.892392" lon="-1.777651"><ele>516.183</ele><time>2022-08-29T19:22:13Z</time></trkpt><trkpt lat="42.892733" lon="-1.778078"><ele>513.913</ele><time>2022-08-29T19:22:53Z</time></trkpt><trkpt lat="42.893094" lon="-1.778771"><ele>510.370</ele><time>2022-08-29T19:23:33Z</time></trkpt><trkpt lat="42.895594" lon="-1.781414"><ele>504.689</ele><time>2022-08-29T19:24:13Z</time></trkpt><trkpt lat="42.898793" lon="-1.785924"><ele>494.084</ele><time>2022-08-29T19:24:53Z</time></trkpt><trkpt lat="42.899800" lon="-1.789084"><ele>487.636</ele><time>2022-08-29T19:25:33Z</time></trkpt><trkpt lat="42.900209" lon="-1.789989"><ele>488.229</ele><time>2022-08-29T19:26:13Z</time></trkpt><trkpt lat="42.906831" lon="-1.798466"><ele>486.855</ele><time>2022-08-29T19:26:53Z</time></trkpt><trkpt lat="42.909727" lon="-1.803975"><ele>495.036</ele><time>2022-08-29T19:27:33Z</time></trkpt><trkpt lat="42.910999" lon="-1.807642"><ele>503.999</ele><time>2022-08-29T19:28:13Z</time></trkpt><trkpt lat="42.911606" lon="-1.807315"><ele>513.807</ele><time>2022-08-29T19:28:53Z</time></trkpt><trkpt lat="42.912300" lon="-1.809301"><ele>523.127</ele><time>2022-08-29T19:29:33Z</time></trkpt><trkpt lat="42.912535" lon="-1.810343"><ele>524.609</ele><time>2022-08-29T19:30:13Z</time></trkpt><trkpt lat="42.912559" lon="-1.810763"><ele>525.510</ele><time>2022-08-29T19:30:53Z</time></trkpt><trkpt lat="42.912370" lon="-1.811219"><ele>528.010</ele><time>2022-08-29T19:31:33Z</time></trkpt><trkpt lat="42.912857" lon="-1.811751"><ele>539.447</ele><time>2022-08-29T19:32:13Z</time></trkpt><trkpt lat="42.912942" lon="-1.811876"><ele>540.716</ele><time>2022-08-29T19:32:53Z</time></trkpt><trkpt lat="42.912942" lon="-1.812201"><ele>539.921</ele><time>2022-08-29T19:33:33Z</time></trkpt><trkpt lat="42.913162" lon="-1.812722"><ele>538.643</ele><time>2022-08-29T19:34:13Z</time></trkpt><trkpt lat="42.912785" lon="-1.813162"><ele>534.086</ele><time>2022-08-29T19:34:53Z</time></trkpt><trkpt lat="42.913765" lon="-1.816124"><ele>521.152</ele><time>2022-08-29T19:35:33Z</time></trkpt><trkpt lat="42.913814" lon="-1.816298"><ele>519.353</ele><time>2022-08-29T19:36:13Z</time></trkpt><trkpt lat="42.915392" lon="-1.817997"><ele>506.451</ele><time>2022-08-29T19:36:53Z</time></trkpt><trkpt lat="42.915872" lon="-1.819074"><ele>500.601</ele><time>2022-08-29T19:37:33Z</time></trkpt><trkpt lat="42.917541" lon="-1.820856"><ele>498.611</ele><time>2022-08-29T19:38:13Z</time></trkpt><trkpt lat="42.918049" lon="-1.824018"><ele>496.909</ele><time>2022-08-29T19:38:53Z</time></trkpt><trkpt lat="42.918243" lon="-1.824529"><ele>495.746</ele><time>2022-08-29T19:39:33Z</time></trkpt><trkpt lat="42.918741" lon="-1.824960"><ele>493.746</ele><time>2022-08-29T19:40:13Z</time></trkpt><trkpt lat="42.918884" lon="-1.824993"><ele>494.193</ele><time>2022-08-29T19:40:53Z</time></trkpt><trkpt lat="42.920310" lon="-1.824990"><ele>495.272</ele><time>2022-08-29T19:41:33Z</time></trkpt><trkpt lat="42.920430" lon="-1.824930"><ele>496.057</ele><time>2022-08-29T19:42:13Z</time></trkpt><trkpt lat="42.921590" lon="-1.824630"><ele>492.529</ele><time>2022-08-29T19:42:53Z</time></trkpt><trkpt lat="42.923040" lon="-1.825110"><ele>488.292</ele><time>2022-08-29T19:43:33Z</time></trkpt><trkpt lat="42.923354" lon="-1.825517"><ele>487.688</ele><time>2022-08-29T19:44:13Z</time></trkpt><trkpt lat="42.923296" lon="-1.826666"><ele>480.229</ele><time>2022-08-29T19:44:53Z</time></trkpt><trkpt lat="42.923483" lon="-1.828133"><ele>485.218</ele><time>2022-08-29T19:45:33Z</time></trkpt><trkpt lat="42.923659" lon="-1.828721"><ele>485.098</ele><time>2022-08-29T19:46:13Z</time></trkpt><trkpt lat="42.923984" lon="-1.829032"><ele>485.417</ele><time>2022-08-29T19:46:53Z</time></trkpt><trkpt lat="42.924656" lon="-1.828434"><ele>486.209</ele><time>2022-08-29T19:47:33Z</time></trkpt><trkpt lat="42.924921" lon="-1.827653"><ele>487.042</ele><time>2022-08-29T19:48:13Z</time></trkpt><trkpt lat="42.925086" lon="-1.827551"><ele>485.522</ele><time>2022-08-29T19:48:53Z</time></trkpt><trkpt lat="42.928838" lon="-1.827085"><ele>506.399</ele><time>2022-08-29T19:49:33Z</time></trkpt><trkpt lat="42.928925" lon="-1.827072"><ele>506.398</ele><time>2022-08-29T19:50:13Z</time></trkpt><trkpt lat="42.929160" lon="-1.827040"><ele>493.963</ele><time>2022-08-29T19:50:53Z</time></trkpt><trkpt lat="42.929409" lon="-1.827001"><ele>487.255</ele><time>2022-08-29T19:51:33Z</time></trkpt><trkpt lat="42.929480" lon="-1.826990"><ele>485.078</ele><time>2022-08-29T19:52:13Z</time></trkpt><trkpt lat="42.929840" lon="-1.826960"><ele>474.534</ele><time>2022-08-29T19:52:53Z</time></trkpt><trkpt lat="42.930900" lon="-1.827410"><ele>471.285</ele><time>2022-08-29T19:53:33Z</time></trkpt><trkpt lat="42.932040" lon="-1.828220"><ele>469.225</ele><time>2022-08-29T19:54:13Z</time></trkpt><trkpt lat="42.933070" lon="-1.828430"><ele>469.926</ele><time>2022-08-29T19:54:53Z</time></trkpt><trkpt lat="42.933850" lon="-1.828330"><ele>471.108</ele><time>2022-08-29T19:55:33Z</time></trkpt><trkpt lat="42.934090" lon="-1.828570"><ele>474.309</ele><time>2022-08-29T19:56:13Z</time></trkpt><trkpt lat="42.934160" lon="-1.828660"><ele>473.143</ele><time>2022-08-29T19:56:53Z</time></trkpt><trkpt lat="42.934450" lon="-1.829040"><ele>465.313</ele><time>2022-08-29T19:57:33Z</time></trkpt><trkpt lat="42.935775" lon="-1.829775"><ele>465.410</ele><time>2022-08-29T19:58:13Z</time></trkpt><trkpt lat="42.936161" lon="-1.829817"><ele>465.329</ele><time>2022-08-29T19:58:53Z</time></trkpt><trkpt lat="42.936697" lon="-1.829524"><ele>463.074</ele><time>2022-08-29T19:59:33Z</time></trkpt><trkpt lat="42.936773" lon="-1.829437"><ele>462.086</ele><time>2022-08-29T20:00:13Z</time></trkpt><trkpt lat="42.937718" lon="-1.827369"><ele>461.099</ele><time>2022-08-29T20:00:53Z</time></trkpt><trkpt lat="42.938080" lon="-1.826914"><ele>460.145</ele><time>2022-08-29T20:01:33Z</time></trkpt><trkpt lat="42.938450" lon="-1.826736"><ele>463.176</ele><time>2022-08-29T20:02:13Z</time></trkpt><trkpt lat="42.939629" lon="-1.826192"><ele>457.478</ele><time>2022-08-29T20:02:53Z</time></trkpt><trkpt lat="42.939879" lon="-1.825988"><ele>458.633</ele><time>2022-08-29T20:03:33Z</time></trkpt><trkpt lat="42.940248" lon="-1.825595"><ele>459.626</ele><time>2022-08-29T20:04:13Z</time></trkpt><trkpt lat="42.940620" lon="-1.824710"><ele>460.409</ele><time>2022-08-29T20:04:53Z</time></trkpt><trkpt lat="42.941839" lon="-1.823576"><ele>460.618</ele><time>2022-08-29T20:05:33Z</time></trkpt><trkpt lat="42.941890" lon="-1.823550"><ele>460.898</ele><time>2022-08-29T20:06:13Z</time></trkpt><trkpt lat="42.942175" lon="-1.823791"><ele>463.175</ele><time>2022-08-29T20:06:53Z</time></trkpt><trkpt lat="42.942430" lon="-1.824210"><ele>462.414</ele><time>2022-08-29T20:07:33Z</time></trkpt><trkpt lat="42.943237" lon="-1.827490"><ele>469.249</ele><time>2022-08-29T20:08:13Z</time></trkpt><trkpt lat="42.943720" lon="-1.828760"><ele>464.771</ele><time>2022-08-29T20:08:53Z</time></trkpt><trkpt lat="42.943960" lon="-1.829050"><ele>463.794</ele><time>2022-08-29T20:09:33Z</time></trkpt><trkpt lat="42.944305" lon="-1.829101"><ele>461.530</ele><time>2022-08-29T20:10:13Z</time></trkpt><trkpt lat="42.944850" lon="-1.829340"><ele>463.451</ele><time>2022-08-29T20:10:53Z</time></trkpt><trkpt lat="42.948320" lon="-1.828160"><ele>465.936</ele><time>2022-08-29T20:11:33Z</time></trkpt><trkpt lat="42.949330" lon="-1.827650"><ele>467.017</ele><time>2022-08-29T20:12:13Z</time></trkpt><trkpt lat="42.950540" lon="-1.826540"><ele>468.518</ele><time>2022-08-29T20:12:53Z</time></trkpt><trkpt lat="42.950620" lon="-1.826740"><ele>470.609</ele><time>2022-08-29T20:13:33Z</time></trkpt><trkpt lat="42.950990" lon="-1.826420"><ele>471.884</ele><time>2022-08-29T20:14:13Z</time></trkpt><trkpt lat="42.951440" lon="-1.826341"><ele>477.524</ele><time>2022-08-29T20:14:53Z</time></trkpt><trkpt lat="42.951450" lon="-1.826340"><ele>477.771</ele><time>2022-08-29T20:15:33Z</time></trkpt><trkpt lat="42.951550" lon="-1.825950"><ele>474.730</ele><time>2022-08-29T20:16:13Z</time></trkpt><trkpt lat="42.951850" lon="-1.825840"><ele>476.165</ele><time>2022-08-29T20:16:53Z</time></trkpt><trkpt lat="42.952130" lon="-1.825540"><ele>477.377</ele><time>2022-08-29T20:17:33Z</time></trkpt><trkpt lat="42.952280" lon="-1.824900"><ele>478.330</ele><time>2022-08-29T20:18:13Z</time></trkpt><trkpt lat="42.952440" lon="-1.824350"><ele>471.086</ele><time>2022-08-29T20:18:53Z</time></trkpt><trkpt lat="42.952780" lon="-1.824330"><ele>471.757</ele><time>2022-08-29T20:19:33Z</time></trkpt><trkpt lat="42.952893" lon="-1.824086"><ele>468.348</ele><time>2022-08-29T20:20:13Z</time></trkpt><trkpt lat="42.952910" lon="-1.824050"><ele>467.861</ele><time>2022-08-29T20:20:53Z</time></trkpt><trkpt lat="42.953390" lon="-1.823560"><ele>468.217</ele><time>2022-08-29T20:21:33Z</time></trkpt><trkpt lat="42.954860" lon="-1.823220"><ele>477.209</ele><time>2022-08-29T20:22:13Z</time></trkpt><trkpt lat="42.954900" lon="-1.822970"><ele>479.835</ele><time>2022-08-29T20:22:53Z</time></trkpt><trkpt lat="42.954700" lon="-1.822850"><ele>482.025</ele><time>2022-08-29T20:23:33Z</time></trkpt><trkpt lat="42.953600" lon="-1.822400"><ele>488.462</ele><time>2022-08-29T20:24:13Z</time></trkpt><trkpt lat="42.953170" lon="-1.822030"><ele>495.011</ele><time>2022-08-29T20:24:53Z</time></trkpt><trkpt lat="42.951720" lon="-1.821690"><ele>500.996</ele><time>2022-08-29T20:25:33Z</time></trkpt><trkpt lat="42.951125" lon="-1.820713"><ele>504.878</ele><time>2022-08-29T20:26:13Z</time></trkpt><trkpt lat="42.950420" lon="-1.818081"><ele>503.391</ele><time>2022-08-29T20:26:53Z</time></trkpt><trkpt lat="42.949355" lon="-1.814865"><ele>496.567</ele><time>2022-08-29T20:27:33Z</time></trkpt><trkpt lat="42.949220" lon="-1.814220"><ele>493.368</ele><time>2022-08-29T20:28:13Z</time></trkpt><trkpt lat="42.948760" lon="-1.810720"><ele>496.725</ele><time>2022-08-29T20:28:53Z</time></trkpt><trkpt lat="42.948929" lon="-1.807074"><ele>502.426</ele><time>2022-08-29T20:29:33Z</time></trkpt><trkpt lat="42.948930" lon="-1.807060"><ele>502.408</ele><time>2022-08-29T20:30:13Z</time></trkpt><trkpt lat="42.949220" lon="-1.806460"><ele>503.909</ele><time>2022-08-29T20:30:53Z</time></trkpt><trkpt lat="42.950410" lon="-1.805430"><ele>506.843</ele><time>2022-08-29T20:31:33Z</time></trkpt><trkpt lat="42.951590" lon="-1.802830"><ele>511.433</ele><time>2022-08-29T20:32:13Z</time></trkpt><trkpt lat="42.951990" lon="-1.802260"><ele>513.610</ele><time>2022-08-29T20:32:53Z</time></trkpt><trkpt lat="42.952305" lon="-1.802004"><ele>515.829</ele><time>2022-08-29T20:33:33Z</time></trkpt><trkpt lat="42.952310" lon="-1.802000"><ele>515.844</ele><time>2022-08-29T20:34:13Z</time></trkpt><trkpt lat="42.952880" lon="-1.801890"><ele>516.146</ele><time>2022-08-29T20:34:53Z</time></trkpt><trkpt lat="42.953488" lon="-1.802555"><ele>522.399</ele><time>2022-08-29T20:35:33Z</time></trkpt><trkpt lat="42.954150" lon="-1.802710"><ele>522.375</ele><time>2022-08-29T20:36:13Z</time></trkpt><trkpt lat="42.954720" lon="-1.802530"><ele>524.186</ele><time>2022-08-29T20:36:53Z</time></trkpt><trkpt lat="42.955730" lon="-1.801690"><ele>526.681</ele><time>2022-08-29T20:37:33Z</time></trkpt><trkpt lat="42.956544" lon="-1.801348"><ele>532.761</ele><time>2022-08-29T20:38:13Z</time></trkpt><trkpt lat="42.956715" lon="-1.801270"><ele>533.917</ele><time>2022-08-29T20:38:53Z</time></trkpt><trkpt lat="42.956886" lon="-1.801192"><ele>535.609</ele><time>2022-08-29T20:39:33Z</time></trkpt><trkpt lat="42.957380" lon="-1.800040"><ele>534.959</ele><time>2022-08-29T20:40:13Z</time></trkpt><trkpt lat="42.957549" lon="-1.798689"><ele>535.169</ele><time>2022-08-29T20:40:53Z</time></trkpt><trkpt lat="42.957750" lon="-1.798150"><ele>535.136</ele><time>2022-08-29T20:41:33Z</time></trkpt><trkpt lat="42.957970" lon="-1.798040"><ele>533.395</ele><time>2022-08-29T20:42:13Z</time></trkpt><trkpt lat="42.958740" lon="-1.798260"><ele>538.010</ele><time>2022-08-29T20:42:53Z</time></trkpt><trkpt lat="42.958860" lon="-1.798220"><ele>537.852</ele><time>2022-08-29T20:43:33Z</time></trkpt><trkpt lat="42.959400" lon="-1.797830"><ele>535.485</ele><time>2022-08-29T20:44:13Z</time></trkpt><trkpt lat="42.959845" lon="-1.797100"><ele>532.751</ele><time>2022-08-29T20:44:53Z</time></trkpt><trkpt lat="42.960120" lon="-1.796710"><ele>530.792</ele><time>2022-08-29T20:45:33Z</time></trkpt><trkpt lat="42.960780" lon="-1.796540"><ele>527.933</ele><time>2022-08-29T20:46:13Z</time></trkpt><trkpt lat="42.960800" lon="-1.796280"><ele>529.223</ele><time>2022-08-29T20:46:53Z</time></trkpt><trkpt lat="42.960480" lon="-1.795790"><ele>530.615</ele><time>2022-08-29T20:47:33Z</time></trkpt><trkpt lat="42.960130" lon="-1.795510"><ele>529.609</ele><time>2022-08-29T20:48:13Z</time></trkpt><trkpt lat="42.960008" lon="-1.795302"><ele>530.834</ele><time>2022-08-29T20:48:53Z</time></trkpt><trkpt lat="42.959520" lon="-1.794100"><ele>532.874</ele><time>2022-08-29T20:49:33Z</time></trkpt><trkpt lat="42.958270" lon="-1.792560"><ele>530.281</ele><time>2022-08-29T20:50:13Z</time></trkpt><trkpt lat="42.958340" lon="-1.792390"><ele>530.150</ele><time>2022-08-29T20:50:53Z</time></trkpt><trkpt lat="42.958520" lon="-1.792310"><ele>530.435</ele><time>2022-08-29T20:51:33Z</time></trkpt><trkpt lat="42.959220" lon="-1.792280"><ele>533.547</ele><time>2022-08-29T20:52:13Z</time></trkpt><trkpt lat="42.959880" lon="-1.790390"><ele>537.560</ele><time>2022-08-29T20:52:53Z</time></trkpt><trkpt lat="42.961430" lon="-1.791350"><ele>546.066</ele><time>2022-08-29T20:53:33Z</time></trkpt><trkpt lat="42.962190" lon="-1.792590"><ele>551.397</ele><time>2022-08-29T20:54:13Z</time></trkpt><trkpt lat="42.962400" lon="-1.792530"><ele>552.746</ele><time>2022-08-29T20:54:53Z</time></trkpt><trkpt lat="42.962620" lon="-1.792047"><ele>555.088</ele><time>2022-08-29T20:55:33Z</time></trkpt><trkpt lat="42.962820" lon="-1.791700"><ele>557.216</ele><time>2022-08-29T20:56:13Z</time></trkpt><trkpt lat="42.963497" lon="-1.791184"><ele>563.309</ele><time>2022-08-29T20:56:53Z</time></trkpt><trkpt lat="42.963700" lon="-1.791110"><ele>564.925</ele><time>2022-08-29T20:57:33Z</time></trkpt><trkpt lat="42.964540" lon="-1.791240"><ele>570.125</ele><time>2022-08-29T20:58:13Z</time></trkpt><trkpt lat="42.964910" lon="-1.791950"><ele>574.412</ele><time>2022-08-29T20:58:53Z</time></trkpt><trkpt lat="42.965200" lon="-1.791980"><ele>575.541</ele><time>2022-08-29T20:59:33Z</time></trkpt><trkpt lat="42.965670" lon="-1.791330"><ele>578.996</ele><time>2022-08-29T21:00:13Z</time></trkpt><trkpt lat="42.965850" lon="-1.791290"><ele>580.448</ele><time>2022-08-29T21:00:53Z</time></trkpt><trkpt lat="42.966135" lon="-1.791609"><ele>583.441</ele><time>2022-08-29T21:01:33Z</time></trkpt><trkpt lat="42.966276" lon="-1.791914"><ele>585.197</ele><time>2022-08-29T21:02:13Z</time></trkpt><trkpt lat="42.966670" lon="-1.792340"><ele>587.078</ele><time>2022-08-29T21:02:53Z</time></trkpt><trkpt lat="42.967000" lon="-1.792410"><ele>587.488</ele><time>2022-08-29T21:03:33Z</time></trkpt><trkpt lat="42.967270" lon="-1.792210"><ele>588.924</ele><time>2022-08-29T21:04:13Z</time></trkpt><trkpt lat="42.967690" lon="-1.791620"><ele>590.526</ele><time>2022-08-29T21:04:53Z</time></trkpt><trkpt lat="42.967960" lon="-1.791750"><ele>593.409</ele><time>2022-08-29T21:05:33Z</time></trkpt><trkpt lat="42.968530" lon="-1.792480"><ele>597.289</ele><time>2022-08-29T21:06:13Z</time></trkpt><trkpt lat="42.968830" lon="-1.792500"><ele>597.889</ele><time>2022-08-29T21:06:53Z</time></trkpt><trkpt lat="42.969160" lon="-1.792830"><ele>597.656</ele><time>2022-08-29T21:07:33Z</time></trkpt><trkpt lat="42.970800" lon="-1.794840"><ele>597.485</ele><time>2022-08-29T21:08:13Z</time></trkpt><trkpt lat="42.971860" lon="-1.795430"><ele>600.040</ele><time>2022-08-29T21:08:53Z</time></trkpt><trkpt lat="42.971820" lon="-1.797000"><ele>601.662</ele><time>2022-08-29T21:09:33Z</time></trkpt><trkpt lat="42.971979" lon="-1.797761"><ele>602.055</ele><time>2022-08-29T21:10:13Z</time></trkpt><trkpt lat="42.972240" lon="-1.799290"><ele>599.961</ele><time>2022-08-29T21:10:53Z</time></trkpt><trkpt lat="42.972920" lon="-1.800290"><ele>599.012</ele><time>2022-08-29T21:11:33Z</time></trkpt><trkpt lat="42.973230" lon="-1.801260"><ele>600.027</ele><time>2022-08-29T21:12:13Z</time></trkpt><trkpt lat="42.974130" lon="-1.803080"><ele>602.068</ele><time>2022-08-29T21:12:53Z</time></trkpt><trkpt lat="42.974130" lon="-1.803080"><ele>602.014</ele><time>2022-08-29T21:13:33Z</time></trkpt><trkpt lat="42.974430" lon="-1.804360"><ele>606.309</ele><time>2022-08-29T21:14:13Z</time></trkpt><trkpt lat="42.974600" lon="-1.804630"><ele>606.933</ele><time>2022-08-29T21:14:53Z</time></trkpt><trkpt lat="42.975345" lon="-1.804744"><ele>605.543</ele><time>2022-08-29T21:15:33Z</time></trkpt><trkpt lat="42.976650" lon="-1.804900"><ele>598.120</ele><time>2022-08-29T21:16:13Z</time></trkpt><trkpt lat="42.977675" lon="-1.804462"><ele>593.049</ele><time>2022-08-29T21:16:53Z</time></trkpt><trkpt lat="42.977880" lon="-1.804480"><ele>592.214</ele><time>2022-08-29T21:17:33Z</time></trkpt><trkpt lat="42.979290" lon="-1.805460"><ele>583.016</ele><time>2022-08-29T21:18:13Z</time></trkpt><trkpt lat="42.981057" lon="-1.806158"><ele>574.269</ele><time>2022-08-29T21:18:53Z</time></trkpt><trkpt lat="42.981090" lon="-1.806170"><ele>574.025</ele><time>2022-08-29T21:19:33Z</time></trkpt><trkpt lat="42.982920" lon="-1.806450"><ele>568.596</ele><time>2022-08-29T21:20:13Z</time></trkpt><trkpt lat="42.984920" lon="-1.806050"><ele>567.328</ele><time>2022-08-29T21:20:53Z</time></trkpt><trkpt lat="42.985860" lon="-1.806420"><ele>569.889</ele><time>2022-08-29T21:21:33Z</time></trkpt><trkpt lat="42.986490" lon="-1.806290"><ele>565.317</ele><time>2022-08-29T21:22:13Z</time></trkpt><trkpt lat="42.986670" lon="-1.806690"><ele>562.909</ele><time>2022-08-29T21:22:53Z</time></trkpt><trkpt lat="42.986640" lon="-1.807170"><ele>559.213</ele><time>2022-08-29T21:23:33Z</time></trkpt><trkpt lat="42.987020" lon="-1.807610"><ele>555.683</ele><time>2022-08-29T21:24:13Z</time></trkpt><trkpt lat="42.987760" lon="-1.807580"><ele>550.730</ele><time>2022-08-29T21:24:53Z</time></trkpt><trkpt lat="42.988060" lon="-1.806980"><ele>546.799</ele><time>2022-08-29T21:25:33Z</time></trkpt><trkpt lat="42.988340" lon="-1.806950"><ele>543.924</ele><time>2022-08-29T21:26:13Z</time></trkpt><trkpt lat="42.988680" lon="-1.807140"><ele>542.346</ele><time>2022-08-29T21:26:53Z</time></trkpt><trkpt lat="42.989145" lon="-1.807777"><ele>535.119</ele><time>2022-08-29T21:27:33Z</time></trkpt><trkpt lat="42.989604" lon="-1.807613"><ele>534.055</ele><time>2022-08-29T21:28:13Z</time></trkpt><trkpt lat="42.990828" lon="-1.808060"><ele>532.916</ele><time>2022-08-29T21:28:53Z</time></trkpt><trkpt lat="42.991890" lon="-1.808916"><ele>542.419</ele><time>2022-08-29T21:29:33Z</time></trkpt><trkpt lat="42.992095" lon="-1.809040"><ele>544.809</ele><time>2022-08-29T21:30:13Z</time></trkpt><trkpt lat="42.992563" lon="-1.809205"><ele>542.319</ele><time>2022-08-29T21:30:53Z</time></trkpt><trkpt lat="42.993804" lon="-1.808434"><ele>536.909</ele><time>2022-08-29T21:31:33Z</time></trkpt><trkpt lat="42.994291" lon="-1.808131"><ele>531.482</ele><time>2022-08-29T21:32:13Z</time></trkpt><trkpt lat="42.994203" lon="-1.808497"><ele>530.322</ele><time>2022-08-29T21:32:53Z</time></trkpt><trkpt lat="42.994261" lon="-1.808599"><ele>529.719</ele><time>2022-08-29T21:33:33Z</time></trkpt><trkpt lat="42.994620" lon="-1.808691"><ele>531.238</ele><time>2022-08-29T21:34:13Z</time></trkpt><trkpt lat="42.996662" lon="-1.804183"><ele>543.913</ele><time>2022-08-29T21:34:53Z</time></trkpt><trkpt lat="42.997402" lon="-1.803544"><ele>546.555</ele><time>2022-08-29T21:35:33Z</time></trkpt><trkpt lat="42.999189" lon="-1.802366"><ele>544.698</ele><time>2022-08-29T21:36:13Z</time></trkpt><trkpt lat="42.999470" lon="-1.802330"><ele>545.034</ele><time>2022-08-29T21:36:53Z</time></trkpt><trkpt lat="43.000290" lon="-1.801650"><ele>545.025</ele><time>2022-08-29T21:37:33Z</time></trkpt><trkpt lat="43.001130" lon="-1.799280"><ele>546.016</ele><time>2022-08-29T21:38:13Z</time></trkpt><trkpt lat="42.999990" lon="-1.798110"><ele>542.076</ele><time>2022-08-29T21:38:53Z</time></trkpt><trkpt lat="43.000084" lon="-1.797690"><ele>543.113</ele><time>2022-08-29T21:39:33Z</time></trkpt><trkpt lat="43.000008" lon="-1.796102"><ele>543.909</ele><time>2022-08-29T21:40:13Z</time></trkpt><trkpt lat="42.999950" lon="-1.795600"><ele>539.322</ele><time>2022-08-29T21:40:53Z</time></trkpt><trkpt lat="42.999640" lon="-1.794860"><ele>537.082</ele><time>2022-08-29T21:41:33Z</time></trkpt><trkpt lat="42.999790" lon="-1.792920"><ele>540.919</ele><time>2022-08-29T21:42:13Z</time></trkpt><trkpt lat="42.999460" lon="-1.791590"><ele>546.288</ele><time>2022-08-29T21:42:53Z</time></trkpt><trkpt lat="42.999390" lon="-1.791040"><ele>546.533</ele><time>2022-08-29T21:43:33Z</time></trkpt><trkpt lat="42.999880" lon="-1.789880"><ele>548.085</ele><time>2022-08-29T21:44:13Z</time></trkpt><trkpt lat="42.999780" lon="-1.788190"><ele>560.858</ele><time>2022-08-29T21:44:53Z</time></trkpt><trkpt lat="42.999550" lon="-1.787670"><ele>564.784</ele><time>2022-08-29T21:45:33Z</time></trkpt><trkpt lat="42.999520" lon="-1.787450"><ele>565.925</ele><time>2022-08-29T21:46:13Z</time></trkpt><trkpt lat="42.999560" lon="-1.786310"><ele>571.084</ele><time>2022-08-29T21:46:53Z</time></trkpt><trkpt lat="42.999250" lon="-1.784800"><ele>567.307</ele><time>2022-08-29T21:47:33Z</time></trkpt><trkpt lat="42.998880" lon="-1.784470"><ele>563.417</ele><time>2022-08-29T21:48:13Z</time></trkpt><trkpt lat="42.998310" lon="-1.783040"><ele>566.109</ele><time>2022-08-29T21:48:53Z</time></trkpt><trkpt lat="42.998310" lon="-1.781950"><ele>570.069</ele><time>2022-08-29T21:49:33Z</time></trkpt><trkpt lat="42.997660" lon="-1.780170"><ele>581.129</ele><time>2022-08-29T21:50:13Z</time></trkpt><trkpt lat="42.997640" lon="-1.780010"><ele>581.946</ele><time>2022-08-29T21:50:53Z</time></trkpt><trkpt lat="42.997660" lon="-1.778130"><ele>580.325</ele><time>2022-08-29T21:51:33Z</time></trkpt><trkpt lat="42.998247" lon="-1.774271"><ele>586.210</ele><time>2022-08-29T21:52:13Z</time></trkpt><trkpt lat="42.998490" lon="-1.774100"><ele>584.992</ele><time>2022-08-29T21:52:53Z</time></trkpt><trkpt lat="42.998510" lon="-1.773870"><ele>584.795</ele><time>2022-08-29T21:53:33Z</time></trkpt><trkpt lat="42.998700" lon="-1.773790"><ele>583.121</ele><time>2022-08-29T21:54:13Z</time></trkpt><trkpt lat="42.998920" lon="-1.772150"><ele>583.072</ele><time>2022-08-29T21:54:53Z</time></trkpt><trkpt lat="42.999576" lon="-1.770499"><ele>580.622</ele><time>2022-08-29T21:55:33Z</time></trkpt><trkpt lat="42.999670" lon="-1.770280"><ele>580.962</ele><time>2022-08-29T21:56:13Z</time></trkpt><trkpt lat="42.999550" lon="-1.767490"><ele>585.408</ele><time>2022-08-29T21:56:53Z</time></trkpt><trkpt lat="42.999636" lon="-1.766945"><ele>585.909</ele><time>2022-08-29T21:57:33Z</time></trkpt><trkpt lat="42.999680" lon="-1.766670"><ele>585.453</ele><time>2022-08-29T21:58:13Z</time></trkpt><trkpt lat="43.000020" lon="-1.766370"><ele>581.683</ele><time>2022-08-29T21:58:53Z</time></trkpt><trkpt lat="43.000800" lon="-1.766160"><ele>575.040</ele><time>2022-08-29T21:59:33Z</time></trkpt><trkpt lat="43.003280" lon="-1.764070"><ele>563.169</ele><time>2022-08-29T22:00:13Z</time></trkpt><trkpt lat="43.003980" lon="-1.763790"><ele>560.824</ele><time>2022-08-29T22:00:53Z</time></trkpt><trkpt lat="43.004290" lon="-1.763240"><ele>560.056</ele><time>2022-08-29T22:01:33Z</time></trkpt><trkpt lat="43.004426" lon="-1.762219"><ele>561.959</ele><time>2022-08-29T22:02:13Z</time></trkpt><trkpt lat="43.004272" lon="-1.761096"><ele>562.575</ele><time>2022-08-29T22:02:53Z</time></trkpt><trkpt lat="43.004221" lon="-1.760987"><ele>561.696</ele><time>2022-08-29T22:03:33Z</time></trkpt><trkpt lat="43.004450" lon="-1.760880"><ele>563.451</ele><time>2022-08-29T22:04:13Z</time></trkpt><trkpt lat="43.005148" lon="-1.760790"><ele>565.701</ele><time>2022-08-29T22:04:53Z</time></trkpt><trkpt lat="43.005867" lon="-1.761012"><ele>568.211</ele><time>2022-08-29T22:05:33Z</time></trkpt><trkpt lat="43.006820" lon="-1.761320"><ele>569.309</ele><time>2022-08-29T22:06:13Z</time></trkpt><trkpt lat="43.007810" lon="-1.761130"><ele>567.166</ele><time>2022-08-29T22:06:53Z</time></trkpt><trkpt lat="43.008520" lon="-1.761410"><ele>571.946</ele><time>2022-08-29T22:07:33Z</time></trkpt><trkpt lat="43.009220" lon="-1.761160"><ele>574.933</ele><time>2022-08-29T22:08:13Z</time></trkpt><trkpt lat="43.009510" lon="-1.761100"><ele>575.172</ele><time>2022-08-29T22:08:53Z</time></trkpt><trkpt lat="43.010970" lon="-1.761310"><ele>580.887</ele><time>2022-08-29T22:09:33Z</time></trkpt><trkpt lat="43.011100" lon="-1.761290"><ele>580.689</ele><time>2022-08-29T22:10:13Z</time></trkpt><trkpt lat="43.011150" lon="-1.761250"><ele>580.892</ele><time>2022-08-29T22:10:53Z</time></trkpt><trkpt lat="43.011200" lon="-1.761200"><ele>581.228</ele><time>2022-08-29T22:11:33Z</time></trkpt><trkpt lat="43.011530" lon="-1.760770"><ele>586.289</ele><time>2022-08-29T22:12:13Z</time></trkpt><trkpt lat="43.012230" lon="-1.759469"><ele>594.969</ele><time>2022-08-29T22:12:53Z</time></trkpt><trkpt lat="43.012900" lon="-1.757650"><ele>602.904</ele><time>2022-08-29T22:13:33Z</time></trkpt><trkpt lat="43.013240" lon="-1.757670"><ele>604.024</ele><time>2022-08-29T22:14:13Z</time></trkpt><trkpt lat="43.014550" lon="-1.758430"><ele>607.409</ele><time>2022-08-29T22:14:53Z</time></trkpt><trkpt lat="43.017408" lon="-1.759401"><ele>612.027</ele><time>2022-08-29T22:15:33Z</time></trkpt><trkpt lat="43.018130" lon="-1.759530"><ele>609.047</ele><time>2022-08-29T22:16:13Z</time></trkpt><trkpt lat="43.020400" lon="-1.759380"><ele>609.714</ele><time>2022-08-29T22:16:53Z</time></trkpt><trkpt lat="43.020880" lon="-1.759410"><ele>609.323</ele><time>2022-08-29T22:17:33Z</time></trkpt><trkpt lat="43.021500" lon="-1.759340"><ele>610.968</ele><time>2022-08-29T22:18:13Z</time></trkpt><trkpt lat="43.022510" lon="-1.758860"><ele>609.820</ele><time>2022-08-29T22:18:53Z</time></trkpt><trkpt lat="43.024560" lon="-1.758260"><ele>612.043</ele><time>2022-08-29T22:19:33Z</time></trkpt><trkpt lat="43.026030" lon="-1.758880"><ele>617.949</ele><time>2022-08-29T22:20:13Z</time></trkpt><trkpt lat="43.027190" lon="-1.757740"><ele>621.010</ele><time>2022-08-29T22:20:53Z</time></trkpt><trkpt lat="43.027510" lon="-1.757620"><ele>622.653</ele><time>2022-08-29T22:21:33Z</time></trkpt><trkpt lat="43.028390" lon="-1.758100"><ele>629.004</ele><time>2022-08-29T22:22:13Z</time></trkpt><trkpt lat="43.028910" lon="-1.758730"><ele>631.414</ele><time>2022-08-29T22:22:53Z</time></trkpt><trkpt lat="43.029190" lon="-1.758910"><ele>631.809</ele><time>2022-08-29T22:23:33Z</time></trkpt><trkpt lat="43.029770" lon="-1.759000"><ele>632.396</ele><time>2022-08-29T22:24:13Z</time></trkpt><trkpt lat="43.030660" lon="-1.758480"><ele>636.416</ele><time>2022-08-29T22:24:53Z</time></trkpt><trkpt lat="43.032460" lon="-1.757940"><ele>639.243</ele><time>2022-08-29T22:25:33Z</time></trkpt><trkpt lat="43.033070" lon="-1.757162"><ele>647.212</ele><time>2022-08-29T22:26:13Z</time></trkpt><trkpt lat="43.033660" lon="-1.756050"><ele>644.177</ele><time>2022-08-29T22:26:53Z</time></trkpt><trkpt lat="43.034560" lon="-1.755300"><ele>652.859</ele><time>2022-08-29T22:27:33Z</time></trkpt><trkpt lat="43.035100" lon="-1.755390"><ele>656.022</ele><time>2022-08-29T22:28:13Z</time></trkpt><trkpt lat="43.035390" lon="-1.755690"><ele>659.728</ele><time>2022-08-29T22:28:53Z</time></trkpt><trkpt lat="43.035740" lon="-1.756300"><ele>667.449</ele><time>2022-08-29T22:29:33Z</time></trkpt><trkpt lat="43.036160" lon="-1.756560"><ele>671.459</ele><time>2022-08-29T22:30:13Z</time></trkpt><trkpt lat="43.037200" lon="-1.756570"><ele>665.703</ele><time>2022-08-29T22:30:53Z</time></trkpt><trkpt lat="43.037700" lon="-1.755990"><ele>671.523</ele><time>2022-08-29T22:31:33Z</time></trkpt><trkpt lat="43.038220" lon="-1.755360"><ele>679.609</ele><time>2022-08-29T22:32:13Z</time></trkpt><trkpt lat="43.038320" lon="-1.754870"><ele>675.626</ele><time>2022-08-29T22:32:53Z</time></trkpt><trkpt lat="43.038500" lon="-1.753930"><ele>675.656</ele><time>2022-08-29T22:33:33Z</time></trkpt><trkpt lat="43.038920" lon="-1.753660"><ele>677.313</ele><time>2022-08-29T22:34:13Z</time></trkpt><trkpt lat="43.039210" lon="-1.753650"><ele>679.512</ele><time>2022-08-29T22:34:53Z</time></trkpt><trkpt lat="43.039820" lon="-1.754080"><ele>687.267</ele><time>2022-08-29T22:35:33Z</time></trkpt><trkpt lat="43.040230" lon="-1.754430"><ele>687.329</ele><time>2022-08-29T22:36:13Z</time></trkpt><trkpt lat="43.041120" lon="-1.754850"><ele>687.962</ele><time>2022-08-29T22:36:53Z</time></trkpt><trkpt lat="43.041700" lon="-1.755360"><ele>687.048</ele><time>2022-08-29T22:37:33Z</time></trkpt><trkpt lat="43.043610" lon="-1.755850"><ele>690.499</ele><time>2022-08-29T22:38:13Z</time></trkpt><trkpt lat="43.044120" lon="-1.756120"><ele>687.897</ele><time>2022-08-29T22:38:53Z</time></trkpt><trkpt lat="43.045110" lon="-1.756220"><ele>689.823</ele><time>2022-08-29T22:39:33Z</time></trkpt><trkpt lat="43.045900" lon="-1.756870"><ele>695.625</ele><time>2022-08-29T22:40:13Z</time></trkpt><trkpt lat="43.046290" lon="-1.758180"><ele>703.409</ele><time>2022-08-29T22:40:53Z</time></trkpt><trkpt lat="43.046620" lon="-1.758680"><ele>702.950</ele><time>2022-08-29T22:41:33Z</time></trkpt><trkpt lat="43.047180" lon="-1.758970"><ele>704.120</ele><time>2022-08-29T22:42:13Z</time></trkpt><trkpt lat="43.047720" lon="-1.758960"><ele>703.757</ele><time>2022-08-29T22:42:53Z</time></trkpt><trkpt lat="43.048310" lon="-1.759650"><ele>711.936</ele><time>2022-08-29T22:43:33Z</time></trkpt><trkpt lat="43.049600" lon="-1.759980"><ele>717.411</ele><time>2022-08-29T22:44:13Z</time></trkpt><trkpt lat="43.050170" lon="-1.759940"><ele>720.513</ele><time>2022-08-29T22:44:53Z</time></trkpt><trkpt lat="43.050560" lon="-1.759680"><ele>720.336</ele><time>2022-08-29T22:45:33Z</time></trkpt><trkpt lat="43.051430" lon="-1.759990"><ele>724.072</ele><time>2022-08-29T22:46:13Z</time></trkpt><trkpt lat="43.052020" lon="-1.760130"><ele>725.813</ele><time>2022-08-29T22:46:53Z</time></trkpt><trkpt lat="43.052860" lon="-1.760890"><ele>735.683</ele><time>2022-08-29T22:47:33Z</time></trkpt><trkpt lat="43.053330" lon="-1.761490"><ele>738.425</ele><time>2022-08-29T22:48:13Z</time></trkpt><trkpt lat="43.054310" lon="-1.761570"><ele>745.517</ele><time>2022-08-29T22:48:53Z</time></trkpt><trkpt lat="43.054760" lon="-1.761870"><ele>750.309</ele><time>2022-08-29T22:49:33Z</time></trkpt><trkpt lat="43.055370" lon="-1.762510"><ele>756.749</ele><time>2022-08-29T22:50:13Z</time></trkpt><trkpt lat="43.055680" lon="-1.763090"><ele>758.129</ele><time>2022-08-29T22:50:53Z</time></trkpt><trkpt lat="43.055810" lon="-1.763210"><ele>761.196</ele><time>2022-08-29T22:51:33Z</time></trkpt><trkpt lat="43.056460" lon="-1.763290"><ele>766.535</ele><time>2022-08-29T22:52:13Z</time></trkpt><trkpt lat="43.058260" lon="-1.762690"><ele>782.340</ele><time>2022-08-29T22:52:53Z</time></trkpt><trkpt lat="43.058460" lon="-1.762800"><ele>784.362</ele><time>2022-08-29T22:53:33Z</time></trkpt><trkpt lat="43.058550" lon="-1.763230"><ele>784.845</ele><time>2022-08-29T22:54:13Z</time></trkpt><trkpt lat="43.058780" lon="-1.763490"><ele>787.031</ele><time>2022-08-29T22:54:53Z</time></trkpt><trkpt lat="43.059220" lon="-1.763640"><ele>789.372</ele><time>2022-08-29T22:55:33Z</time></trkpt><trkpt lat="43.060385" lon="-1.763057"><ele>798.031</ele><time>2022-08-29T22:56:13Z</time></trkpt><trkpt lat="43.061180" lon="-1.762590"><ele>805.361</ele><time>2022-08-29T22:56:53Z</time></trkpt><trkpt lat="43.060980" lon="-1.764060"><ele>810.507</ele><time>2022-08-29T22:57:33Z</time></trkpt><trkpt lat="43.060430" lon="-1.764880"><ele>814.009</ele><time>2022-08-29T22:58:13Z</time></trkpt><trkpt lat="43.060370" lon="-1.765000"><ele>814.324</ele><time>2022-08-29T22:58:53Z</time></trkpt><trkpt lat="43.060430" lon="-1.766400"><ele>823.774</ele><time>2022-08-29T22:59:33Z</time></trkpt><trkpt lat="43.060168" lon="-1.767552"><ele>829.871</ele><time>2022-08-29T23:00:13Z</time></trkpt><trkpt lat="43.060252" lon="-1.767769"><ele>830.220</ele><time>2022-08-29T23:00:53Z</time></trkpt><trkpt lat="43.060670" lon="-1.768780"><ele>829.035</ele><time>2022-08-29T23:01:33Z</time></trkpt><trkpt lat="43.060847" lon="-1.768886"><ele>828.877</ele><time>2022-08-29T23:02:13Z</time></trkpt><trkpt lat="43.064330" lon="-1.769570"><ele>806.930</ele><time>2022-08-29T23:02:53Z</time></trkpt><trkpt lat="43.064730" lon="-1.769700"><ele>804.136</ele><time>2022-08-29T23:03:33Z</time></trkpt><trkpt lat="43.065150" lon="-1.769950"><ele>799.917</ele><time>2022-08-29T23:04:13Z</time></trkpt><trkpt lat="43.065550" lon="-1.770380"><ele>798.654</ele><time>2022-08-29T23:04:53Z</time></trkpt><trkpt lat="43.065650" lon="-1.770790"><ele>798.656</ele><time>2022-08-29T23:05:33Z</time></trkpt><trkpt lat="43.065200" lon="-1.771220"><ele>796.211</ele><time>2022-08-29T23:06:13Z</time></trkpt><trkpt lat="43.064920" lon="-1.771520"><ele>792.309</ele><time>2022-08-29T23:06:53Z</time></trkpt><trkpt lat="43.064140" lon="-1.772720"><ele>787.056</ele><time>2022-08-29T23:07:33Z</time></trkpt><trkpt lat="43.063514" lon="-1.773084"><ele>784.396</ele><time>2022-08-29T23:08:13Z</time></trkpt><trkpt lat="43.063260" lon="-1.773130"><ele>783.113</ele><time>2022-08-29T23:08:53Z</time></trkpt><trkpt lat="43.062470" lon="-1.773210"><ele>781.262</ele><time>2022-08-29T23:09:33Z</time></trkpt><trkpt lat="43.062480" lon="-1.773470"><ele>776.947</ele><time>2022-08-29T23:10:13Z</time></trkpt><trkpt lat="43.064000" lon="-1.773570"><ele>769.189</ele><time>2022-08-29T23:10:53Z</time></trkpt><trkpt lat="43.064590" lon="-1.773360"><ele>762.162</ele><time>2022-08-29T23:11:33Z</time></trkpt><trkpt lat="43.066239" lon="-1.771865"><ele>752.678</ele><time>2022-08-29T23:12:13Z</time></trkpt><trkpt lat="43.067300" lon="-1.771660"><ele>742.789</ele><time>2022-08-29T23:12:53Z</time></trkpt><trkpt lat="43.069026" lon="-1.771914"><ele>729.921</ele><time>2022-08-29T23:13:33Z</time></trkpt><trkpt lat="43.071630" lon="-1.772820"><ele>706.941</ele><time>2022-08-29T23:14:13Z</time></trkpt><trkpt lat="43.071880" lon="-1.772740"><ele>704.905</ele><time>2022-08-29T23:14:53Z</time></trkpt><trkpt lat="43.072150" lon="-1.771400"><ele>697.409</ele><time>2022-08-29T23:15:33Z</time></trkpt><trkpt lat="43.071990" lon="-1.770270"><ele>690.833</ele><time>2022-08-29T23:16:13Z</time></trkpt><trkpt lat="43.069740" lon="-1.769630"><ele>679.473</ele><time>2022-08-29T23:16:53Z</time></trkpt><trkpt lat="43.069090" lon="-1.768680"><ele>670.910</ele><time>2022-08-29T23:17:33Z</time></trkpt><trkpt lat="43.068960" lon="-1.768650"><ele>669.799</ele><time>2022-08-29T23:18:13Z</time></trkpt><trkpt lat="43.068130" lon="-1.768700"><ele>666.724</ele><time>2022-08-29T23:18:53Z</time></trkpt><trkpt lat="43.068330" lon="-1.768190"><ele>662.796</ele><time>2022-08-29T23:19:33Z</time></trkpt><trkpt lat="43.068720" lon="-1.767840"><ele>657.579</ele><time>2022-08-29T23:20:13Z</time></trkpt><trkpt lat="43.069590" lon="-1.767590"><ele>654.675</ele><time>2022-08-29T23:20:53Z</time></trkpt><trkpt lat="43.070770" lon="-1.768180"><ele>640.986</ele><time>2022-08-29T23:21:33Z</time></trkpt><trkpt lat="43.072070" lon="-1.767990"><ele>630.794</ele><time>2022-08-29T23:22:13Z</time></trkpt><trkpt lat="43.072330" lon="-1.767420"><ele>630.257</ele><time>2022-08-29T23:22:53Z</time></trkpt><trkpt lat="43.072349" lon="-1.766608"><ele>637.522</ele><time>2022-08-29T23:23:33Z</time></trkpt><trkpt lat="43.072340" lon="-1.766310"><ele>638.409</ele><time>2022-08-29T23:24:13Z</time></trkpt><trkpt lat="43.072360" lon="-1.765520"><ele>635.920</ele><time>2022-08-29T23:24:53Z</time></trkpt><trkpt lat="43.072470" lon="-1.765510"><ele>634.460</ele><time>2022-08-29T23:25:33Z</time></trkpt><trkpt lat="43.072750" lon="-1.766770"><ele>621.697</ele><time>2022-08-29T23:26:13Z</time></trkpt><trkpt lat="43.072860" lon="-1.768320"><ele>616.856</ele><time>2022-08-29T23:26:53Z</time></trkpt><trkpt lat="43.074460" lon="-1.771410"><ele>592.431</ele><time>2022-08-29T23:27:33Z</time></trkpt><trkpt lat="43.074610" lon="-1.772210"><ele>591.633</ele><time>2022-08-29T23:28:13Z</time></trkpt><trkpt lat="43.074590" lon="-1.772444"><ele>590.036</ele><time>2022-08-29T23:28:53Z</time></trkpt><trkpt lat="43.074570" lon="-1.772840"><ele>585.462</ele><time>2022-08-29T23:29:33Z</time></trkpt><trkpt lat="43.074990" lon="-1.773640"><ele>577.123</ele><time>2022-08-29T23:30:13Z</time></trkpt><trkpt lat="43.076260" lon="-1.774060"><ele>575.465</ele><time>2022-08-29T23:30:53Z</time></trkpt><trkpt lat="43.077090" lon="-1.773960"><ele>568.168</ele><time>2022-08-29T23:31:33Z</time></trkpt><trkpt lat="43.077470" lon="-1.773450"><ele>574.214</ele><time>2022-08-29T23:32:13Z</time></trkpt><trkpt lat="43.077860" lon="-1.774170"><ele>574.209</ele><time>2022-08-29T23:32:53Z</time></trkpt><trkpt lat="43.078210" lon="-1.774370"><ele>575.067</ele><time>2022-08-29T23:33:33Z</time></trkpt><trkpt lat="43.078890" lon="-1.774570"><ele>577.667</ele><time>2022-08-29T23:34:13Z</time></trkpt><trkpt lat="43.079340" lon="-1.774330"><ele>582.924</ele><time>2022-08-29T23:34:53Z</time></trkpt><trkpt lat="43.079580" lon="-1.774290"><ele>584.993</ele><time>2022-08-29T23:35:33Z</time></trkpt><trkpt lat="43.079990" lon="-1.775040"><ele>583.268</ele><time>2022-08-29T23:36:13Z</time></trkpt><trkpt lat="43.080330" lon="-1.775190"><ele>586.370</ele><time>2022-08-29T23:36:53Z</time></trkpt><trkpt lat="43.081090" lon="-1.775960"><ele>587.073</ele><time>2022-08-29T23:37:33Z</time></trkpt><trkpt lat="43.081420" lon="-1.776570"><ele>587.039</ele><time>2022-08-29T23:38:13Z</time></trkpt><trkpt lat="43.081850" lon="-1.776950"><ele>585.920</ele><time>2022-08-29T23:38:53Z</time></trkpt><trkpt lat="43.083160" lon="-1.776750"><ele>582.286</ele><time>2022-08-29T23:39:33Z</time></trkpt><trkpt lat="43.083890" lon="-1.775040"><ele>581.960</ele><time>2022-08-29T23:40:13Z</time></trkpt><trkpt lat="43.084430" lon="-1.774480"><ele>583.626</ele><time>2022-08-29T23:40:53Z</time></trkpt><trkpt lat="43.084490" lon="-1.774420"><ele>583.309</ele><time>2022-08-29T23:41:33Z</time></trkpt><trkpt lat="43.085000" lon="-1.773870"><ele>581.779</ele><time>2022-08-29T23:42:13Z</time></trkpt><trkpt lat="43.085230" lon="-1.773950"><ele>580.419</ele><time>2022-08-29T23:42:53Z</time></trkpt><trkpt lat="43.085900" lon="-1.774860"><ele>581.016</ele><time>2022-08-29T23:43:33Z</time></trkpt><trkpt lat="43.085867" lon="-1.775309"><ele>579.325</ele><time>2022-08-29T23:44:13Z</time></trkpt><trkpt lat="43.085833" lon="-1.775551"><ele>580.940</ele><time>2022-08-29T23:44:53Z</time></trkpt><trkpt lat="43.085670" lon="-1.776890"><ele>577.112</ele><time>2022-08-29T23:45:33Z</time></trkpt><trkpt lat="43.085950" lon="-1.777550"><ele>574.315</ele><time>2022-08-29T23:46:13Z</time></trkpt><trkpt lat="43.086540" lon="-1.778250"><ele>570.361</ele><time>2022-08-29T23:46:53Z</time></trkpt><trkpt lat="43.087860" lon="-1.778010"><ele>569.052</ele><time>2022-08-29T23:47:33Z</time></trkpt><trkpt lat="43.088320" lon="-1.777740"><ele>566.541</ele><time>2022-08-29T23:48:13Z</time></trkpt><trkpt lat="43.089410" lon="-1.775720"><ele>569.581</ele><time>2022-08-29T23:48:53Z</time></trkpt><trkpt lat="43.089940" lon="-1.774940"><ele>566.609</ele><time>2022-08-29T23:49:33Z</time></trkpt><trkpt lat="43.090080" lon="-1.774390"><ele>567.809</ele><time>2022-08-29T23:50:13Z</time></trkpt><trkpt lat="43.090530" lon="-1.773880"><ele>566.995</ele><time>2022-08-29T23:50:53Z</time></trkpt><trkpt lat="43.090980" lon="-1.773020"><ele>573.735</ele><time>2022-08-29T23:51:33Z</time></trkpt><trkpt lat="43.091370" lon="-1.772810"><ele>577.732</ele><time>2022-08-29T23:52:13Z</time></trkpt><trkpt lat="43.091600" lon="-1.772730"><ele>578.741</ele><time>2022-08-29T23:52:53Z</time></trkpt><trkpt lat="43.092240" lon="-1.773110"><ele>580.376</ele><time>2022-08-29T23:53:33Z</time></trkpt><trkpt lat="43.092950" lon="-1.772470"><ele>586.058</ele><time>2022-08-29T23:54:13Z</time></trkpt><trkpt lat="43.093710" lon="-1.772960"><ele>588.771</ele><time>2022-08-29T23:54:53Z</time></trkpt><trkpt lat="43.093990" lon="-1.772720"><ele>590.327</ele><time>2022-08-29T23:55:33Z</time></trkpt><trkpt lat="43.094180" lon="-1.771950"><ele>594.378</ele><time>2022-08-29T23:56:13Z</time></trkpt><trkpt lat="43.094062" lon="-1.771064"><ele>597.761</ele><time>2022-08-29T23:56:53Z</time></trkpt><trkpt lat="43.094010" lon="-1.770050"><ele>602.721</ele><time>2022-08-29T23:57:33Z</time></trkpt><trkpt lat="43.094290" lon="-1.769320"><ele>600.013</ele><time>2022-08-29T23:58:13Z</time></trkpt><trkpt lat="43.094150" lon="-1.768220"><ele>594.409</ele><time>2022-08-29T23:58:53Z</time></trkpt><trkpt lat="43.094870" lon="-1.765350"><ele>581.187</ele><time>2022-08-29T23:59:33Z</time></trkpt><trkpt lat="43.094880" lon="-1.765300"><ele>580.637</ele><time>2022-08-30T00:00:13Z</time></trkpt><trkpt lat="43.095310" lon="-1.764710"><ele>574.974</ele><time>2022-08-30T00:00:53Z</time></trkpt><trkpt lat="43.095540" lon="-1.764140"><ele>574.963</ele><time>2022-08-30T00:01:33Z</time></trkpt><trkpt lat="43.096310" lon="-1.760480"><ele>560.238</ele><time>2022-08-30T00:02:13Z</time></trkpt><trkpt lat="43.096370" lon="-1.759680"><ele>559.450</ele><time>2022-08-30T00:02:53Z</time></trkpt><trkpt lat="43.096200" lon="-1.758830"><ele>559.373</ele><time>2022-08-30T00:03:33Z</time></trkpt><trkpt lat="43.096530" lon="-1.757310"><ele>553.299</ele><time>2022-08-30T00:04:13Z</time></trkpt><trkpt lat="43.096460" lon="-1.756120"><ele>554.670</ele><time>2022-08-30T00:04:53Z</time></trkpt><trkpt lat="43.096760" lon="-1.755310"><ele>552.724</ele><time>2022-08-30T00:05:33Z</time></trkpt><trkpt lat="43.096760" lon="-1.754850"><ele>552.904</ele><time>2022-08-30T00:06:13Z</time></trkpt><trkpt lat="43.096620" lon="-1.753510"><ele>550.314</ele><time>2022-08-30T00:06:53Z</time></trkpt><trkpt lat="43.095870" lon="-1.753530"><ele>548.109</ele><time>2022-08-30T00:07:33Z</time></trkpt><trkpt lat="43.095210" lon="-1.753150"><ele>546.683</ele><time>2022-08-30T00:08:13Z</time></trkpt><trkpt lat="43.095010" lon="-1.753130"><ele>545.463</ele><time>2022-08-30T00:08:53Z</time></trkpt><trkpt lat="43.094310" lon="-1.753520"><ele>538.110</ele><time>2022-08-30T00:09:33Z</time></trkpt><trkpt lat="43.093280" lon="-1.755520"><ele>526.429</ele><time>2022-08-30T00:10:13Z</time></trkpt><trkpt lat="43.092560" lon="-1.755800"><ele>518.394</ele><time>2022-08-30T00:10:53Z</time></trkpt><trkpt lat="43.091460" lon="-1.757220"><ele>506.096</ele><time>2022-08-30T00:11:33Z</time></trkpt><trkpt lat="43.091140" lon="-1.757900"><ele>501.139</ele><time>2022-08-30T00:12:13Z</time></trkpt><trkpt lat="43.091030" lon="-1.759110"><ele>498.575</ele><time>2022-08-30T00:12:53Z</time></trkpt><trkpt lat="43.090420" lon="-1.759200"><ele>491.976</ele><time>2022-08-30T00:13:33Z</time></trkpt><trkpt lat="43.089780" lon="-1.759940"><ele>486.878</ele><time>2022-08-30T00:14:13Z</time></trkpt><trkpt lat="43.089320" lon="-1.759690"><ele>489.433</ele><time>2022-08-30T00:14:53Z</time></trkpt><trkpt lat="43.089310" lon="-1.758120"><ele>477.726</ele><time>2022-08-30T00:15:33Z</time></trkpt><trkpt lat="43.089060" lon="-1.757760"><ele>476.909</ele><time>2022-08-30T00:16:13Z</time></trkpt><trkpt lat="43.088560" lon="-1.757710"><ele>477.888</ele><time>2022-08-30T00:16:53Z</time></trkpt><trkpt lat="43.088450" lon="-1.757390"><ele>480.448</ele><time>2022-08-30T00:17:33Z</time></trkpt><trkpt lat="43.088440" lon="-1.756950"><ele>478.725</ele><time>2022-08-30T00:18:13Z</time></trkpt><trkpt lat="43.088470" lon="-1.755770"><ele>471.244</ele><time>2022-08-30T00:18:53Z</time></trkpt><trkpt lat="43.087500" lon="-1.755680"><ele>463.829</ele><time>2022-08-30T00:19:33Z</time></trkpt><trkpt lat="43.086410" lon="-1.756530"><ele>453.991</ele><time>2022-08-30T00:20:13Z</time></trkpt><trkpt lat="43.086140" lon="-1.756580"><ele>453.234</ele><time>2022-08-30T00:20:53Z</time></trkpt><trkpt lat="43.086090" lon="-1.756520"><ele>453.820</ele><time>2022-08-30T00:21:33Z</time></trkpt><trkpt lat="43.086450" lon="-1.754410"><ele>440.331</ele><time>2022-08-30T00:22:13Z</time></trkpt><trkpt lat="43.086120" lon="-1.751830"><ele>429.147</ele><time>2022-08-30T00:22:53Z</time></trkpt><trkpt lat="43.085770" lon="-1.750830"><ele>423.029</ele><time>2022-08-30T00:23:33Z</time></trkpt><trkpt lat="43.085750" lon="-1.749740"><ele>422.221</ele><time>2022-08-30T00:24:13Z</time></trkpt><trkpt lat="43.085480" lon="-1.749070"><ele>427.609</ele><time>2022-08-30T00:24:53Z</time></trkpt><trkpt lat="43.085830" lon="-1.747570"><ele>431.015</ele><time>2022-08-30T00:25:33Z</time></trkpt><trkpt lat="43.085820" lon="-1.747520"><ele>431.115</ele><time>2022-08-30T00:26:13Z</time></trkpt><trkpt lat="43.085600" lon="-1.746170"><ele>424.412</ele><time>2022-08-30T00:26:53Z</time></trkpt><trkpt lat="43.086270" lon="-1.745370"><ele>423.481</ele><time>2022-08-30T00:27:33Z</time></trkpt><trkpt lat="43.086650" lon="-1.744620"><ele>422.286</ele><time>2022-08-30T00:28:13Z</time></trkpt><trkpt lat="43.087450" lon="-1.745020"><ele>429.718</ele><time>2022-08-30T00:28:53Z</time></trkpt><trkpt lat="43.087080" lon="-1.744420"><ele>431.611</ele><time>2022-08-30T00:29:33Z</time></trkpt><trkpt lat="43.086760" lon="-1.742170"><ele>445.337</ele><time>2022-08-30T00:30:13Z</time></trkpt><trkpt lat="43.086740" lon="-1.741960"><ele>446.418</ele><time>2022-08-30T00:30:53Z</time></trkpt><trkpt lat="43.086420" lon="-1.740410"><ele>444.418</ele><time>2022-08-30T00:31:33Z</time></trkpt><trkpt lat="43.086520" lon="-1.739860"><ele>443.898</ele><time>2022-08-30T00:32:13Z</time></trkpt><trkpt lat="43.087010" lon="-1.738880"><ele>441.017</ele><time>2022-08-30T00:32:53Z</time></trkpt><trkpt lat="43.086650" lon="-1.737860"><ele>444.609</ele><time>2022-08-30T00:33:33Z</time></trkpt><trkpt lat="43.086650" lon="-1.737810"><ele>444.482</ele><time>2022-08-30T00:34:13Z</time></trkpt><trkpt lat="43.087570" lon="-1.736660"><ele>451.632</ele><time>2022-08-30T00:34:53Z</time></trkpt><trkpt lat="43.088290" lon="-1.736100"><ele>455.489</ele><time>2022-08-30T00:35:33Z</time></trkpt><trkpt lat="43.088550" lon="-1.736320"><ele>459.458</ele><time>2022-08-30T00:36:13Z</time></trkpt><trkpt lat="43.088580" lon="-1.736540"><ele>458.453</ele><time>2022-08-30T00:36:53Z</time></trkpt><trkpt lat="43.088670" lon="-1.737020"><ele>456.655</ele><time>2022-08-30T00:37:33Z</time></trkpt><trkpt lat="43.089110" lon="-1.737070"><ele>460.258</ele><time>2022-08-30T00:38:13Z</time></trkpt><trkpt lat="43.089320" lon="-1.737340"><ele>461.454</ele><time>2022-08-30T00:38:53Z</time></trkpt><trkpt lat="43.089370" lon="-1.737410"><ele>461.655</ele><time>2022-08-30T00:39:33Z</time></trkpt><trkpt lat="43.089680" lon="-1.737690"><ele>463.846</ele><time>2022-08-30T00:40:13Z</time></trkpt><trkpt lat="43.090280" lon="-1.737600"><ele>467.688</ele><time>2022-08-30T00:40:53Z</time></trkpt><trkpt lat="43.091080" lon="-1.737800"><ele>462.816</ele><time>2022-08-30T00:41:33Z</time></trkpt><trkpt lat="43.091670" lon="-1.737530"><ele>458.209</ele><time>2022-08-30T00:42:13Z</time></trkpt><trkpt lat="43.091950" lon="-1.736470"><ele>456.895</ele><time>2022-08-30T00:42:53Z</time></trkpt><trkpt lat="43.092450" lon="-1.736260"><ele>454.725</ele><time>2022-08-30T00:43:33Z</time></trkpt><trkpt lat="43.093360" lon="-1.735070"><ele>455.292</ele><time>2022-08-30T00:44:13Z</time></trkpt><trkpt lat="43.093540" lon="-1.734630"><ele>456.011</ele><time>2022-08-30T00:44:53Z</time></trkpt><trkpt lat="43.093580" lon="-1.734530"><ele>455.416</ele><time>2022-08-30T00:45:33Z</time></trkpt><trkpt lat="43.093640" lon="-1.733670"><ele>454.848</ele><time>2022-08-30T00:46:13Z</time></trkpt><trkpt lat="43.094410" lon="-1.733700"><ele>457.521</ele><time>2022-08-30T00:46:53Z</time></trkpt><trkpt lat="43.094470" lon="-1.733210"><ele>458.527</ele><time>2022-08-30T00:47:33Z</time></trkpt><trkpt lat="43.094260" lon="-1.732180"><ele>459.358</ele><time>2022-08-30T00:48:13Z</time></trkpt><trkpt lat="43.094720" lon="-1.730890"><ele>459.311</ele><time>2022-08-30T00:48:53Z</time></trkpt><trkpt lat="43.094770" lon="-1.730200"><ele>465.221</ele><time>2022-08-30T00:49:33Z</time></trkpt><trkpt lat="43.095090" lon="-1.728730"><ele>461.203</ele><time>2022-08-30T00:50:13Z</time></trkpt><trkpt lat="43.095630" lon="-1.727650"><ele>457.409</ele><time>2022-08-30T00:50:53Z</time></trkpt><trkpt lat="43.096050" lon="-1.726360"><ele>456.222</ele><time>2022-08-30T00:51:33Z</time></trkpt><trkpt lat="43.096090" lon="-1.726250"><ele>453.622</ele><time>2022-08-30T00:52:13Z</time></trkpt><trkpt lat="43.095930" lon="-1.725620"><ele>460.229</ele><time>2022-08-30T00:52:53Z</time></trkpt><trkpt lat="43.096050" lon="-1.725390"><ele>456.028</ele><time>2022-08-30T00:53:33Z</time></trkpt><trkpt lat="43.096700" lon="-1.724980"><ele>449.673</ele><time>2022-08-30T00:54:13Z</time></trkpt><trkpt lat="43.097040" lon="-1.724150"><ele>448.265</ele><time>2022-08-30T00:54:53Z</time></trkpt><trkpt lat="43.097040" lon="-1.724110"><ele>447.858</ele><time>2022-08-30T00:55:33Z</time></trkpt><trkpt lat="43.096620" lon="-1.723260"><ele>445.254</ele><time>2022-08-30T00:56:13Z</time></trkpt><trkpt lat="43.095840" lon="-1.720120"><ele>430.785</ele><time>2022-08-30T00:56:53Z</time></trkpt><trkpt lat="43.095280" lon="-1.719870"><ele>432.946</ele><time>2022-08-30T00:57:33Z</time></trkpt><trkpt lat="43.094910" lon="-1.718770"><ele>428.088</ele><time>2022-08-30T00:58:13Z</time></trkpt><trkpt lat="43.094960" lon="-1.718410"><ele>426.016</ele><time>2022-08-30T00:58:53Z</time></trkpt><trkpt lat="43.095400" lon="-1.717480"><ele>416.109</ele><time>2022-08-30T00:59:33Z</time></trkpt><trkpt lat="43.094990" lon="-1.716230"><ele>412.155</ele><time>2022-08-30T01:00:13Z</time></trkpt><trkpt lat="43.095070" lon="-1.715780"><ele>411.835</ele><time>2022-08-30T01:00:53Z</time></trkpt><trkpt lat="43.095160" lon="-1.715710"><ele>413.362</ele><time>2022-08-30T01:01:33Z</time></trkpt><trkpt lat="43.095930" lon="-1.715910"><ele>402.041</ele><time>2022-08-30T01:02:13Z</time></trkpt><trkpt lat="43.096490" lon="-1.715320"><ele>398.116</ele><time>2022-08-30T01:02:53Z</time></trkpt><trkpt lat="43.096870" lon="-1.714570"><ele>396.428</ele><time>2022-08-30T01:03:33Z</time></trkpt><trkpt lat="43.097710" lon="-1.711940"><ele>378.951</ele><time>2022-08-30T01:04:13Z</time></trkpt><trkpt lat="43.097730" lon="-1.711230"><ele>378.657</ele><time>2022-08-30T01:04:53Z</time></trkpt><trkpt lat="43.097750" lon="-1.711160"><ele>377.598</ele><time>2022-08-30T01:05:33Z</time></trkpt><trkpt lat="43.098060" lon="-1.710830"><ele>374.094</ele><time>2022-08-30T01:06:13Z</time></trkpt><trkpt lat="43.098510" lon="-1.710740"><ele>370.557</ele><time>2022-08-30T01:06:53Z</time></trkpt><trkpt lat="43.098620" lon="-1.710880"><ele>369.522</ele><time>2022-08-30T01:07:33Z</time></trkpt><trkpt lat="43.098680" lon="-1.713210"><ele>360.309</ele><time>2022-08-30T01:08:13Z</time></trkpt><trkpt lat="43.098980" lon="-1.714390"><ele>354.890</ele><time>2022-08-30T01:08:53Z</time></trkpt><trkpt lat="43.099320" lon="-1.715050"><ele>350.530</ele><time>2022-08-30T01:09:33Z</time></trkpt><trkpt lat="43.100780" lon="-1.715190"><ele>342.097</ele><time>2022-08-30T01:10:13Z</time></trkpt><trkpt lat="43.101680" lon="-1.713790"><ele>333.546</ele><time>2022-08-30T01:10:53Z</time></trkpt><trkpt lat="43.101820" lon="-1.712890"><ele>330.361</ele><time>2022-08-30T01:11:33Z</time></trkpt><trkpt lat="43.101580" lon="-1.712020"><ele>327.233</ele><time>2022-08-30T01:12:13Z</time></trkpt><trkpt lat="43.101870" lon="-1.711090"><ele>321.046</ele><time>2022-08-30T01:12:53Z</time></trkpt><trkpt lat="43.101830" lon="-1.710130"><ele>316.462</ele><time>2022-08-30T01:13:33Z</time></trkpt><trkpt lat="43.101060" lon="-1.708830"><ele>308.513</ele><time>2022-08-30T01:14:13Z</time></trkpt><trkpt lat="43.100530" lon="-1.708620"><ele>306.615</ele><time>2022-08-30T01:14:53Z</time></trkpt><trkpt lat="43.100570" lon="-1.708380"><ele>306.665</ele><time>2022-08-30T01:15:33Z</time></trkpt><trkpt lat="43.101040" lon="-1.708090"><ele>303.811</ele><time>2022-08-30T01:16:13Z</time></trkpt><trkpt lat="43.101190" lon="-1.707470"><ele>301.009</ele><time>2022-08-30T01:16:53Z</time></trkpt><trkpt lat="43.101810" lon="-1.708130"><ele>293.422</ele><time>2022-08-30T01:17:33Z</time></trkpt><trkpt lat="43.102400" lon="-1.708450"><ele>289.052</ele><time>2022-08-30T01:18:13Z</time></trkpt><trkpt lat="43.102530" lon="-1.708470"><ele>288.269</ele><time>2022-08-30T01:18:53Z</time></trkpt><trkpt lat="43.104750" lon="-1.707770"><ele>273.538</ele><time>2022-08-30T01:19:33Z</time></trkpt><trkpt lat="43.105830" lon="-1.705900"><ele>262.483</ele><time>2022-08-30T01:20:13Z</time></trkpt><trkpt lat="43.106020" lon="-1.704600"><ele>258.125</ele><time>2022-08-30T01:20:53Z</time></trkpt><trkpt lat="43.106700" lon="-1.703720"><ele>249.068</ele><time>2022-08-30T01:21:33Z</time></trkpt><trkpt lat="43.106960" lon="-1.703180"><ele>246.514</ele><time>2022-08-30T01:22:13Z</time></trkpt><trkpt lat="43.106940" lon="-1.701670"><ele>242.365</ele><time>2022-08-30T01:22:53Z</time></trkpt><trkpt lat="43.107260" lon="-1.700500"><ele>235.844</ele><time>2022-08-30T01:23:33Z</time></trkpt><trkpt lat="43.107080" lon="-1.699080"><ele>232.005</ele><time>2022-08-30T01:24:13Z</time></trkpt><trkpt lat="43.107830" lon="-1.697490"><ele>221.215</ele><time>2022-08-30T01:24:53Z</time></trkpt><trkpt lat="43.107550" lon="-1.696410"><ele>215.909</ele><time>2022-08-30T01:25:33Z</time></trkpt><trkpt lat="43.107970" lon="-1.695910"><ele>212.945</ele><time>2022-08-30T01:26:13Z</time></trkpt><trkpt lat="43.108340" lon="-1.694340"><ele>212.295</ele><time>2022-08-30T01:26:53Z</time></trkpt><trkpt lat="43.108950" lon="-1.693660"><ele>201.412</ele><time>2022-08-30T01:27:33Z</time></trkpt><trkpt lat="43.108980" lon="-1.691870"><ele>194.791</ele><time>2022-08-30T01:28:13Z</time></trkpt><trkpt lat="43.108630" lon="-1.691130"><ele>189.196</ele><time>2022-08-30T01:28:53Z</time></trkpt><trkpt lat="43.107090" lon="-1.690760"><ele>184.928</ele><time>2022-08-30T01:29:33Z</time></trkpt><trkpt lat="43.106810" lon="-1.690360"><ele>179.781</ele><time>2022-08-30T01:30:13Z</time></trkpt><trkpt lat="43.106360" lon="-1.689130"><ele>174.117</ele><time>2022-08-30T01:30:53Z</time></trkpt><trkpt lat="43.106080" lon="-1.686600"><ele>166.788</ele><time>2022-08-30T01:31:33Z</time></trkpt><trkpt lat="43.105900" lon="-1.686280"><ele>164.987</ele><time>2022-08-30T01:32:13Z</time></trkpt><trkpt lat="43.107350" lon="-1.686460"><ele>159.542</ele><time>2022-08-30T01:32:53Z</time></trkpt><trkpt lat="43.108120" lon="-1.686850"><ele>163.726</ele><time>2022-08-30T01:33:33Z</time></trkpt><trkpt lat="43.108870" lon="-1.686110"><ele>175.609</ele><time>2022-08-30T01:34:13Z</time></trkpt><trkpt lat="43.109190" lon="-1.686240"><ele>181.749</ele><time>2022-08-30T01:34:53Z</time></trkpt><trkpt lat="43.109330" lon="-1.686560"><ele>184.689</ele><time>2022-08-30T01:35:33Z</time></trkpt><trkpt lat="43.109650" lon="-1.686200"><ele>185.446</ele><time>2022-08-30T01:36:13Z</time></trkpt><trkpt lat="43.110292" lon="-1.685036"><ele>181.535</ele><time>2022-08-30T01:36:53Z</time></trkpt><trkpt lat="43.110610" lon="-1.684550"><ele>175.160</ele><time>2022-08-30T01:37:33Z</time></trkpt><trkpt lat="43.111406" lon="-1.684199"><ele>170.172</ele><time>2022-08-30T01:38:13Z</time></trkpt><trkpt lat="43.111650" lon="-1.683900"><ele>169.855</ele><time>2022-08-30T01:38:53Z</time></trkpt><trkpt lat="43.112510" lon="-1.683060"><ele>157.741</ele><time>2022-08-30T01:39:33Z</time></trkpt><trkpt lat="43.112540" lon="-1.681240"><ele>155.832</ele><time>2022-08-30T01:40:13Z</time></trkpt><trkpt lat="43.112620" lon="-1.681150"><ele>155.527</ele><time>2022-08-30T01:40:53Z</time></trkpt><trkpt lat="43.112510" lon="-1.680480"><ele>158.368</ele><time>2022-08-30T01:41:33Z</time></trkpt><trkpt lat="43.112230" lon="-1.679870"><ele>159.414</ele><time>2022-08-30T01:42:13Z</time></trkpt><trkpt lat="43.112220" lon="-1.678400"><ele>164.909</ele><time>2022-08-30T01:42:53Z</time></trkpt><trkpt lat="43.112240" lon="-1.678170"><ele>164.543</ele><time>2022-08-30T01:43:33Z</time></trkpt><trkpt lat="43.112540" lon="-1.676470"><ele>162.853</ele><time>2022-08-30T01:44:13Z</time></trkpt><trkpt lat="43.112460" lon="-1.675050"><ele>166.860</ele><time>2022-08-30T01:44:53Z</time></trkpt><trkpt lat="43.112750" lon="-1.674200"><ele>168.019</ele><time>2022-08-30T01:45:33Z</time></trkpt><trkpt lat="43.113630" lon="-1.672850"><ele>177.774</ele><time>2022-08-30T01:46:13Z</time></trkpt><trkpt lat="43.114170" lon="-1.671100"><ele>179.046</ele><time>2022-08-30T01:46:53Z</time></trkpt><trkpt lat="43.115247" lon="-1.668845"><ele>189.029</ele><time>2022-08-30T01:47:33Z</time></trkpt><trkpt lat="43.115310" lon="-1.668670"><ele>189.165</ele><time>2022-08-30T01:48:13Z</time></trkpt><trkpt lat="43.115560" lon="-1.666740"><ele>190.536</ele><time>2022-08-30T01:48:53Z</time></trkpt><trkpt lat="43.115560" lon="-1.665370"><ele>196.792</ele><time>2022-08-30T01:49:33Z</time></trkpt><trkpt lat="43.116737" lon="-1.663673"><ele>212.873</ele><time>2022-08-30T01:50:13Z</time></trkpt><trkpt lat="43.119950" lon="-1.658880"><ele>226.420</ele><time>2022-08-30T01:50:53Z</time></trkpt><trkpt lat="43.120639" lon="-1.661988"><ele>240.609</ele><time>2022-08-30T01:51:33Z</time></trkpt><trkpt lat="43.120651" lon="-1.663195"><ele>241.450</ele><time>2022-08-30T01:52:13Z</time></trkpt><trkpt lat="43.120610" lon="-1.664680"><ele>236.950</ele><time>2022-08-30T01:52:53Z</time></trkpt><trkpt lat="43.120743" lon="-1.665306"><ele>236.817</ele><time>2022-08-30T01:53:33Z</time></trkpt><trkpt lat="43.121540" lon="-1.666910"><ele>236.126</ele><time>2022-08-30T01:54:13Z</time></trkpt><trkpt lat="43.121690" lon="-1.668040"><ele>236.811</ele><time>2022-08-30T01:54:53Z</time></trkpt><trkpt lat="43.123590" lon="-1.668240"><ele>229.163</ele><time>2022-08-30T01:55:33Z</time></trkpt><trkpt lat="43.124349" lon="-1.668469"><ele>224.726</ele><time>2022-08-30T01:56:13Z</time></trkpt><trkpt lat="43.125590" lon="-1.669120"><ele>206.312</ele><time>2022-08-30T01:56:53Z</time></trkpt><trkpt lat="43.126430" lon="-1.669210"><ele>205.743</ele><time>2022-08-30T01:57:33Z</time></trkpt><trkpt lat="43.126650" lon="-1.669400"><ele>204.445</ele><time>2022-08-30T01:58:13Z</time></trkpt><trkpt lat="43.127110" lon="-1.670040"><ele>192.247</ele><time>2022-08-30T01:58:53Z</time></trkpt><trkpt lat="43.127420" lon="-1.670350"><ele>178.911</ele><time>2022-08-30T01:59:33Z</time></trkpt><trkpt lat="43.128940" lon="-1.669150"><ele>162.409</ele><time>2022-08-30T02:00:13Z</time></trkpt><trkpt lat="43.129340" lon="-1.668710"><ele>159.035</ele><time>2022-08-30T02:00:53Z</time></trkpt><trkpt lat="43.129550" lon="-1.668710"><ele>154.865</ele><time>2022-08-30T02:01:33Z</time></trkpt><trkpt lat="43.129710" lon="-1.669210"><ele>146.722</ele><time>2022-08-30T02:02:13Z</time></trkpt><trkpt lat="43.130180" lon="-1.669817"><ele>132.191</ele><time>2022-08-30T02:02:53Z</time></trkpt><trkpt lat="43.130190" lon="-1.670070"><ele>127.216</ele><time>2022-08-30T02:03:33Z</time></trkpt><trkpt lat="43.129870" lon="-1.670190"><ele>125.148</ele><time>2022-08-30T02:04:13Z</time></trkpt><trkpt lat="43.130870" lon="-1.670860"><ele>121.911</ele><time>2022-08-30T02:04:53Z</time></trkpt><trkpt lat="43.131470" lon="-1.671570"><ele>122.157</ele><time>2022-08-30T02:05:33Z</time></trkpt><trkpt lat="43.131840" lon="-1.670920"><ele>121.268</ele><time>2022-08-30T02:06:13Z</time></trkpt><trkpt lat="43.132477" lon="-1.667993"><ele>120.076</ele><time>2010-01-01T02:48:38Z</time></trkpt><trkpt lat="43.132608" lon="-1.667215"><ele>119.690</ele><time>2010-01-01T02:48:15Z</time></trkpt><trkpt lat="43.132823" lon="-1.666642"><ele>119.119</ele><time>2010-01-01T02:47:56Z</time></trkpt><trkpt lat="43.132965" lon="-1.666373"><ele>119.309</ele><time>2010-01-01T02:47:46Z</time></trkpt><trkpt lat="43.133344" lon="-1.666064"><ele>120.088</ele><time>2010-01-01T02:47:29Z</time></trkpt><trkpt lat="43.133436" lon="-1.665955"><ele>120.088</ele><time>2010-01-01T02:47:24Z</time></trkpt><trkpt lat="43.134276" lon="-1.665972"><ele>119.835</ele><time>2010-01-01T02:46:50Z</time></trkpt><trkpt lat="43.134970" lon="-1.665785"><ele>119.084</ele><time>2010-01-01T02:46:22Z</time></trkpt><trkpt lat="43.135396" lon="-1.665925"><ele>122.779</ele><time>2010-01-01T02:46:04Z</time></trkpt><trkpt lat="43.135843" lon="-1.665671"><ele>124.121</ele><time>2010-01-01T02:45:45Z</time></trkpt><trkpt lat="43.136323" lon="-1.665602"><ele>122.574</ele><time>2010-01-01T02:45:25Z</time></trkpt><trkpt lat="43.137475" lon="-1.665694"><ele>122.740</ele><time>2010-01-01T02:44:39Z</time></trkpt><trkpt lat="43.138099" lon="-1.665740"><ele>122.121</ele><time>2010-01-01T02:44:14Z</time></trkpt><trkpt lat="43.138664" lon="-1.665795"><ele>119.122</ele><time>2010-01-01T02:43:52Z</time></trkpt><trkpt lat="43.139981" lon="-1.666600"><ele>121.862</ele><time>2010-01-01T02:42:54Z</time></trkpt><trkpt lat="43.140340" lon="-1.666719"><ele>121.508</ele><time>2010-01-01T02:42:39Z</time></trkpt><trkpt lat="43.140710" lon="-1.666728"><ele>120.609</ele><time>2010-01-01T02:42:24Z</time></trkpt><trkpt lat="43.141377" lon="-1.666797"><ele>123.863</ele><time>2010-01-01T02:41:57Z</time></trkpt><trkpt lat="43.142409" lon="-1.667352"><ele>126.253</ele><time>2010-01-01T02:41:13Z</time></trkpt><trkpt lat="43.142770" lon="-1.667658"><ele>139.390</ele><time>2010-01-01T02:40:56Z</time></trkpt><trkpt lat="43.143609" lon="-1.668609"><ele>120.229</ele><time>2010-01-01T02:40:12Z</time></trkpt><trkpt lat="43.143904" lon="-1.668772"><ele>120.484</ele><time>2010-01-01T02:39:59Z</time></trkpt><trkpt lat="43.144302" lon="-1.668885"><ele>118.946</ele><time>2010-01-01T02:39:43Z</time></trkpt><trkpt lat="43.144650" lon="-1.668905"><ele>118.959</ele><time>2010-01-01T02:39:29Z</time></trkpt><trkpt lat="43.145393" lon="-1.668848"><ele>116.275</ele><time>2010-01-01T02:38:59Z</time></trkpt><trkpt lat="43.146336" lon="-1.668902"><ele>115.556</ele><time>2010-01-01T02:38:21Z</time></trkpt><trkpt lat="43.147665" lon="-1.668778"><ele>115.435</ele><time>2010-01-01T02:37:28Z</time></trkpt><trkpt lat="43.149092" lon="-1.669295"><ele>111.986</ele><time>2010-01-01T02:36:29Z</time></trkpt><trkpt lat="43.149470" lon="-1.669252"><ele>112.514</ele><time>2010-01-01T02:36:14Z</time></trkpt><trkpt lat="43.150096" lon="-1.669022"><ele>113.909</ele><time>2010-01-01T02:35:48Z</time></trkpt><trkpt lat="43.150526" lon="-1.668895"><ele>112.154</ele><time>2010-01-01T02:35:30Z</time></trkpt><trkpt lat="43.150918" lon="-1.668911"><ele>112.814</ele><time>2010-01-01T02:35:14Z</time></trkpt><trkpt lat="43.151243" lon="-1.669052"><ele>113.121</ele><time>2010-01-01T02:35:01Z</time></trkpt><trkpt lat="43.151902" lon="-1.669168"><ele>109.270</ele><time>2010-01-01T02:34:34Z</time></trkpt><trkpt lat="43.155503" lon="-1.671175"><ele>107.895</ele><time>2010-01-01T02:31:58Z</time></trkpt><trkpt lat="43.156859" lon="-1.671601"><ele>110.387</ele><time>2010-01-01T02:31:02Z</time></trkpt><trkpt lat="43.158303" lon="-1.671907"><ele>111.320</ele><time>2010-01-01T02:30:04Z</time></trkpt><trkpt lat="43.160020" lon="-1.671832"><ele>109.116</ele><time>2010-01-01T02:28:55Z</time></trkpt><trkpt lat="43.160573" lon="-1.671618"><ele>109.137</ele><time>2010-01-01T02:28:32Z</time></trkpt><trkpt lat="43.162521" lon="-1.670981"><ele>107.346</ele><time>2010-01-01T02:27:12Z</time></trkpt><trkpt lat="43.163104" lon="-1.670886"><ele>112.088</ele><time>2010-01-01T02:26:48Z</time></trkpt><trkpt lat="43.164030" lon="-1.671333"><ele>117.016</ele><time>2010-01-01T02:26:09Z</time></trkpt><trkpt lat="43.164709" lon="-1.671667"><ele>117.209</ele><time>2010-01-01T02:25:40Z</time></trkpt><trkpt lat="43.165726" lon="-1.672247"><ele>108.855</ele><time>2010-01-01T02:24:56Z</time></trkpt><trkpt lat="43.166369" lon="-1.673056"><ele>107.145</ele><time>2010-01-01T02:24:20Z</time></trkpt><trkpt lat="43.166783" lon="-1.673950"><ele>107.192</ele><time>2010-01-01T02:23:50Z</time></trkpt><trkpt lat="43.167273" lon="-1.675111"><ele>105.931</ele><time>2010-01-01T02:23:10Z</time></trkpt><trkpt lat="43.167767" lon="-1.676139"><ele>103.446</ele><time>2010-01-01T02:22:34Z</time></trkpt><trkpt lat="43.168094" lon="-1.676506"><ele>105.488</ele><time>2010-01-01T02:22:17Z</time></trkpt><trkpt lat="43.168339" lon="-1.676667"><ele>105.061</ele><time>2010-01-01T02:22:07Z</time></trkpt><trkpt lat="43.169001" lon="-1.676633"><ele>109.157</ele><time>2010-01-01T02:21:40Z</time></trkpt><trkpt lat="43.170119" lon="-1.676271"><ele>105.938</ele><time>2010-01-01T02:20:54Z</time></trkpt><trkpt lat="43.170415" lon="-1.676335"><ele>106.115</ele><time>2010-01-01T02:20:42Z</time></trkpt><trkpt lat="43.173573" lon="-1.677378"><ele>106.665</ele><time>2010-01-01T02:18:32Z</time></trkpt><trkpt lat="43.174340" lon="-1.677424"><ele>109.511</ele><time>2010-01-01T02:18:01Z</time></trkpt><trkpt lat="43.174545" lon="-1.677374"><ele>110.009</ele><time>2010-01-01T02:17:52Z</time></trkpt><trkpt lat="43.174773" lon="-1.677259"><ele>108.432</ele><time>2010-01-01T02:17:43Z</time></trkpt><trkpt lat="43.174854" lon="-1.677191"><ele>108.752</ele><time>2010-01-01T02:17:39Z</time></trkpt><trkpt lat="43.175427" lon="-1.676530"><ele>109.179</ele><time>2010-01-01T02:17:09Z</time></trkpt><trkpt lat="43.175972" lon="-1.675761"><ele>101.688</ele><time>2010-01-01T02:16:37Z</time></trkpt><trkpt lat="43.176232" lon="-1.674647"><ele>104.553</ele><time>2010-01-01T02:16:03Z</time></trkpt><trkpt lat="43.176302" lon="-1.673918"><ele>101.935</ele><time>2010-01-01T02:15:41Z</time></trkpt><trkpt lat="43.176357" lon="-1.673515"><ele>100.978</ele><time>2010-01-01T02:15:30Z</time></trkpt><trkpt lat="43.176340" lon="-1.671700"><ele>101.524</ele><time>2010-01-01T02:14:36Z</time></trkpt><trkpt lat="43.176288" lon="-1.671138"><ele>102.615</ele><time>2010-01-01T02:14:20Z</time></trkpt><trkpt lat="43.175978" lon="-1.669093"><ele>104.081</ele><time>2010-01-01T02:13:19Z</time></trkpt><trkpt lat="43.176002" lon="-1.668160"><ele>100.661</ele><time>2010-01-01T02:12:51Z</time></trkpt><trkpt lat="43.176316" lon="-1.667564"><ele>100.117</ele><time>2010-01-01T02:12:29Z</time></trkpt><trkpt lat="43.176557" lon="-1.667343"><ele>100.309</ele><time>2010-01-01T02:12:18Z</time></trkpt><trkpt lat="43.177107" lon="-1.667229"><ele>98.549</ele><time>2010-01-01T02:11:55Z</time></trkpt><trkpt lat="43.177711" lon="-1.667549"><ele>96.819</ele><time>2010-01-01T02:11:29Z</time></trkpt><trkpt lat="43.179831" lon="-1.670527"><ele>98.636</ele><time>2010-01-01T02:09:27Z</time></trkpt><trkpt lat="43.179970" lon="-1.670723"><ele>103.315</ele><time>2010-01-01T02:09:19Z</time></trkpt><trkpt lat="43.181012" lon="-1.670879"><ele>102.970</ele><time>2010-01-01T02:08:37Z</time></trkpt><trkpt lat="43.184777" lon="-1.669821"><ele>94.872</ele><time>2010-01-01T02:06:04Z</time></trkpt><trkpt lat="43.185671" lon="-1.670137"><ele>97.525</ele><time>2010-01-01T02:05:26Z</time></trkpt><trkpt lat="43.185902" lon="-1.670432"><ele>95.721</ele><time>2010-01-01T02:05:13Z</time></trkpt><trkpt lat="43.187538" lon="-1.675051"><ele>103.922</ele><time>2010-01-01T02:02:43Z</time></trkpt><trkpt lat="43.187775" lon="-1.675429"><ele>102.253</ele><time>2010-01-01T02:02:28Z</time></trkpt><trkpt lat="43.188334" lon="-1.675759"><ele>92.404</ele><time>2010-01-01T02:02:04Z</time></trkpt><trkpt lat="43.188831" lon="-1.675811"><ele>93.014</ele><time>2010-01-01T02:01:44Z</time></trkpt><trkpt lat="43.189400" lon="-1.675485"><ele>94.709</ele><time>2010-01-01T02:01:19Z</time></trkpt><trkpt lat="43.189715" lon="-1.674931"><ele>91.126</ele><time>2010-01-01T02:00:58Z</time></trkpt><trkpt lat="43.189861" lon="-1.674557"><ele>93.996</ele><time>2010-01-01T02:00:46Z</time></trkpt><trkpt lat="43.189969" lon="-1.674172"><ele>92.573</ele><time>2010-01-01T02:00:34Z</time></trkpt><trkpt lat="43.190381" lon="-1.672680"><ele>99.472</ele><time>2010-01-01T01:59:47Z</time></trkpt><trkpt lat="43.190437" lon="-1.671709"><ele>102.677</ele><time>2010-01-01T01:59:18Z</time></trkpt><trkpt lat="43.190402" lon="-1.670657"><ele>96.729</ele><time>2010-01-01T01:58:48Z</time></trkpt><trkpt lat="43.190457" lon="-1.670421"><ele>101.142</ele><time>2010-01-01T01:58:40Z</time></trkpt><trkpt lat="43.190450" lon="-1.669865"><ele>103.658</ele><time>2010-01-01T01:58:24Z</time></trkpt><trkpt lat="43.190425" lon="-1.669357"><ele>107.069</ele><time>2010-01-01T01:58:09Z</time></trkpt><trkpt lat="43.190503" lon="-1.668838"><ele>110.745</ele><time>2010-01-01T01:57:54Z</time></trkpt><trkpt lat="43.190704" lon="-1.668425"><ele>114.347</ele><time>2010-01-01T01:57:39Z</time></trkpt><trkpt lat="43.191164" lon="-1.668141"><ele>122.911</ele><time>2010-01-01T01:57:19Z</time></trkpt><trkpt lat="43.191676" lon="-1.667785"><ele>131.409</ele><time>2010-01-01T01:56:56Z</time></trkpt><trkpt lat="43.192347" lon="-1.667288"><ele>133.695</ele><time>2010-01-01T01:56:26Z</time></trkpt><trkpt lat="43.192682" lon="-1.666892"><ele>124.835</ele><time>2010-01-01T01:56:08Z</time></trkpt><trkpt lat="43.192872" lon="-1.666611"><ele>116.512</ele><time>2010-01-01T01:55:57Z</time></trkpt><trkpt lat="43.192878" lon="-1.665966"><ele>92.141</ele><time>2010-01-01T01:55:37Z</time></trkpt><trkpt lat="43.193393" lon="-1.665661"><ele>91.036</ele><time>2010-01-01T01:55:15Z</time></trkpt><trkpt lat="43.194147" lon="-1.665519"><ele>90.898</ele><time>2010-01-01T01:54:44Z</time></trkpt><trkpt lat="43.194343" lon="-1.665503"><ele>89.931</ele><time>2010-01-01T01:54:37Z</time></trkpt><trkpt lat="43.194555" lon="-1.666177"><ele>92.157</ele><time>2010-01-01T01:54:14Z</time></trkpt><trkpt lat="43.194758" lon="-1.667103"><ele>88.788</ele><time>2010-01-01T01:53:45Z</time></trkpt><trkpt lat="43.194718" lon="-1.667855"><ele>88.267</ele><time>2010-01-01T01:53:23Z</time></trkpt><trkpt lat="43.194692" lon="-1.669457"><ele>91.281</ele><time>2010-01-01T01:52:37Z</time></trkpt><trkpt lat="43.194846" lon="-1.670322"><ele>89.919</ele><time>2010-01-01T01:52:11Z</time></trkpt><trkpt lat="43.195404" lon="-1.671359"><ele>95.909</ele><time>2010-01-01T01:51:33Z</time></trkpt><trkpt lat="43.196016" lon="-1.671951"><ele>90.377</ele><time>2010-01-01T01:51:03Z</time></trkpt><trkpt lat="43.196457" lon="-1.672212"><ele>86.597</ele><time>2010-01-01T01:50:44Z</time></trkpt><trkpt lat="43.197024" lon="-1.672222"><ele>88.414</ele><time>2010-01-01T01:50:21Z</time></trkpt><trkpt lat="43.197603" lon="-1.671985"><ele>89.473</ele><time>2010-01-01T01:49:57Z</time></trkpt><trkpt lat="43.198826" lon="-1.671467"><ele>116.498</ele><time>2010-01-01T01:49:05Z</time></trkpt><trkpt lat="43.199203" lon="-1.671446"><ele>99.220</ele><time>2010-01-01T01:48:50Z</time></trkpt><trkpt lat="43.199353" lon="-1.671694"><ele>85.843</ele><time>2010-01-01T01:48:40Z</time></trkpt><trkpt lat="43.199381" lon="-1.672572"><ele>86.919</ele><time>2010-01-01T01:48:15Z</time></trkpt><trkpt lat="43.199421" lon="-1.672860"><ele>88.580</ele><time>2010-01-01T01:48:06Z</time></trkpt><trkpt lat="43.199532" lon="-1.673068"><ele>89.459</ele><time>2010-01-01T01:47:58Z</time></trkpt><trkpt lat="43.199568" lon="-1.673092"><ele>88.203</ele><time>2010-01-01T01:47:56Z</time></trkpt><trkpt lat="43.199788" lon="-1.673445"><ele>86.723</ele><time>2010-01-01T01:47:43Z</time></trkpt><trkpt lat="43.200080" lon="-1.673771"><ele>89.609</ele><time>2010-01-01T01:47:28Z</time></trkpt><trkpt lat="43.200270" lon="-1.673840"><ele>86.276</ele><time>2010-01-01T01:47:20Z</time></trkpt><trkpt lat="43.200433" lon="-1.673874"><ele>85.216</ele><time>2010-01-01T01:47:13Z</time></trkpt><trkpt lat="43.200613" lon="-1.673858"><ele>83.433</ele><time>2010-01-01T01:47:06Z</time></trkpt><trkpt lat="43.201785" lon="-1.673204"><ele>81.772</ele><time>2010-01-01T01:46:15Z</time></trkpt><trkpt lat="43.202095" lon="-1.672767"><ele>80.037</ele><time>2010-01-01T01:45:57Z</time></trkpt><trkpt lat="43.202369" lon="-1.672355"><ele>81.139</ele><time>2010-01-01T01:45:41Z</time></trkpt><trkpt lat="43.202537" lon="-1.672105"><ele>81.892</ele><time>2010-01-01T01:45:31Z</time></trkpt><trkpt lat="43.202705" lon="-1.671794"><ele>84.148</ele><time>2010-01-01T01:45:19Z</time></trkpt><trkpt lat="43.202844" lon="-1.671409"><ele>85.989</ele><time>2010-01-01T01:45:07Z</time></trkpt><trkpt lat="43.202895" lon="-1.671125"><ele>84.998</ele><time>2010-01-01T01:44:58Z</time></trkpt><trkpt lat="43.203326" lon="-1.667164"><ele>81.115</ele><time>2010-01-01T01:43:01Z</time></trkpt><trkpt lat="43.203411" lon="-1.666732"><ele>81.326</ele><time>2010-01-01T01:42:48Z</time></trkpt><trkpt lat="43.203427" lon="-1.666583"><ele>80.409</ele><time>2010-01-01T01:42:44Z</time></trkpt><trkpt lat="43.203488" lon="-1.666348"><ele>80.290</ele><time>2010-01-01T01:42:36Z</time></trkpt><trkpt lat="43.203624" lon="-1.665656"><ele>77.540</ele><time>2010-01-01T01:42:15Z</time></trkpt><trkpt lat="43.203673" lon="-1.665273"><ele>77.837</ele><time>2010-01-01T01:42:04Z</time></trkpt><trkpt lat="43.203724" lon="-1.665014"><ele>78.886</ele><time>2010-01-01T01:41:56Z</time></trkpt><trkpt lat="43.204098" lon="-1.663812"><ele>77.381</ele><time>2010-01-01T01:41:18Z</time></trkpt><trkpt lat="43.204517" lon="-1.662707"><ele>74.783</ele><time>2010-01-01T01:40:41Z</time></trkpt><trkpt lat="43.204792" lon="-1.662332"><ele>74.596</ele><time>2010-01-01T01:40:26Z</time></trkpt><trkpt lat="43.205105" lon="-1.662202"><ele>75.142</ele><time>2010-01-01T01:40:13Z</time></trkpt><trkpt lat="43.205429" lon="-1.662170"><ele>75.273</ele><time>2010-01-01T01:40:00Z</time></trkpt><trkpt lat="43.206112" lon="-1.662304"><ele>76.296</ele><time>2010-01-01T01:39:32Z</time></trkpt><trkpt lat="43.206522" lon="-1.662461"><ele>77.431</ele><time>2010-01-01T01:39:15Z</time></trkpt><trkpt lat="43.206884" lon="-1.662611"><ele>78.724</ele><time>2010-01-01T01:39:00Z</time></trkpt><trkpt lat="43.207187" lon="-1.662768"><ele>77.909</ele><time>2010-01-01T01:38:47Z</time></trkpt><trkpt lat="43.207547" lon="-1.663028"><ele>79.570</ele><time>2010-01-01T01:38:30Z</time></trkpt><trkpt lat="43.207827" lon="-1.663272"><ele>79.160</ele><time>2010-01-01T01:38:17Z</time></trkpt><trkpt lat="43.208089" lon="-1.663561"><ele>77.617</ele><time>2010-01-01T01:38:04Z</time></trkpt><trkpt lat="43.208371" lon="-1.663971"><ele>77.516</ele><time>2010-01-01T01:37:47Z</time></trkpt><trkpt lat="43.208487" lon="-1.664128"><ele>77.521</ele><time>2010-01-01T01:37:41Z</time></trkpt><trkpt lat="43.208745" lon="-1.664506"><ele>76.953</ele><time>2010-01-01T01:37:26Z</time></trkpt><trkpt lat="43.208912" lon="-1.664813"><ele>77.276</ele><time>2010-01-01T01:37:14Z</time></trkpt><trkpt lat="43.209008" lon="-1.665010"><ele>78.212</ele><time>2010-01-01T01:37:08Z</time></trkpt><trkpt lat="43.209180" lon="-1.665372"><ele>77.383</ele><time>2010-01-01T01:36:55Z</time></trkpt><trkpt lat="43.209234" lon="-1.665495"><ele>78.418</ele><time>2010-01-01T01:36:51Z</time></trkpt><trkpt lat="43.209361" lon="-1.665874"><ele>77.698</ele><time>2010-01-01T01:36:39Z</time></trkpt><trkpt lat="43.209466" lon="-1.666441"><ele>77.817</ele><time>2010-01-01T01:36:21Z</time></trkpt><trkpt lat="43.209531" lon="-1.666793"><ele>78.209</ele><time>2010-01-01T01:36:11Z</time></trkpt><trkpt lat="43.209733" lon="-1.668059"><ele>76.792</ele><time>2010-01-01T01:35:33Z</time></trkpt><trkpt lat="43.209850" lon="-1.668567"><ele>77.912</ele><time>2010-01-01T01:35:17Z</time></trkpt><trkpt lat="43.211653" lon="-1.672329"><ele>74.559</ele><time>2010-01-01T01:33:06Z</time></trkpt><trkpt lat="43.211851" lon="-1.672520"><ele>75.138</ele><time>2010-01-01T01:32:56Z</time></trkpt><trkpt lat="43.212391" lon="-1.672736"><ele>77.353</ele><time>2010-01-01T01:32:33Z</time></trkpt><trkpt lat="43.212846" lon="-1.672681"><ele>78.515</ele><time>2010-01-01T01:32:15Z</time></trkpt><trkpt lat="43.214628" lon="-1.671514"><ele>74.718</ele><time>2010-01-01T01:30:56Z</time></trkpt><trkpt lat="43.214970" lon="-1.671289"><ele>73.124</ele><time>2010-01-01T01:30:41Z</time></trkpt><trkpt lat="43.215440" lon="-1.671123"><ele>71.075</ele><time>2010-01-01T01:30:21Z</time></trkpt><trkpt lat="43.216939" lon="-1.671260"><ele>68.334</ele><time>2010-01-01T01:29:21Z</time></trkpt><trkpt lat="43.217202" lon="-1.671377"><ele>68.055</ele><time>2010-01-01T01:29:10Z</time></trkpt><trkpt lat="43.217498" lon="-1.671716"><ele>68.610</ele><time>2010-01-01T01:28:55Z</time></trkpt><trkpt lat="43.217787" lon="-1.672677"><ele>72.109</ele><time>2010-01-01T01:28:23Z</time></trkpt><trkpt lat="43.217207" lon="-1.675996"><ele>69.914</ele><time>2010-01-01T01:26:44Z</time></trkpt><trkpt lat="43.217247" lon="-1.677677"><ele>70.964</ele><time>2010-01-01T01:25:55Z</time></trkpt><trkpt lat="43.217546" lon="-1.679097"><ele>73.421</ele><time>2010-01-01T01:25:11Z</time></trkpt><trkpt lat="43.217778" lon="-1.679538"><ele>70.750</ele><time>2010-01-01T01:24:56Z</time></trkpt><trkpt lat="43.218314" lon="-1.679954"><ele>69.085</ele><time>2010-01-01T01:24:31Z</time></trkpt><trkpt lat="43.219919" lon="-1.680389"><ele>71.557</ele><time>2010-01-01T01:23:25Z</time></trkpt><trkpt lat="43.220193" lon="-1.680352"><ele>70.850</ele><time>2010-01-01T01:23:14Z</time></trkpt><trkpt lat="43.220349" lon="-1.680293"><ele>69.836</ele><time>2010-01-01T01:23:08Z</time></trkpt><trkpt lat="43.220439" lon="-1.680250"><ele>70.287</ele><time>2010-01-01T01:23:04Z</time></trkpt><trkpt lat="43.220891" lon="-1.679774"><ele>67.169</ele><time>2010-01-01T01:22:41Z</time></trkpt><trkpt lat="43.221414" lon="-1.678062"><ele>68.504</ele><time>2010-01-01T01:21:46Z</time></trkpt><trkpt lat="43.221690" lon="-1.677107"><ele>63.624</ele><time>2010-01-01T01:21:16Z</time></trkpt><trkpt lat="43.221805" lon="-1.676886"><ele>63.509</ele><time>2010-01-01T01:21:08Z</time></trkpt><trkpt lat="43.221939" lon="-1.676691"><ele>64.297</ele><time>2010-01-01T01:21:01Z</time></trkpt><trkpt lat="43.222391" lon="-1.676319"><ele>64.887</ele><time>2010-01-01T01:20:39Z</time></trkpt><trkpt lat="43.223713" lon="-1.675996"><ele>63.184</ele><time>2010-01-01T01:19:46Z</time></trkpt><trkpt lat="43.224434" lon="-1.676088"><ele>62.683</ele><time>2010-01-01T01:19:16Z</time></trkpt><trkpt lat="43.225033" lon="-1.676602"><ele>64.418</ele><time>2010-01-01T01:18:48Z</time></trkpt><trkpt lat="43.227419" lon="-1.678974"><ele>66.070</ele><time>2010-01-01T01:16:50Z</time></trkpt><trkpt lat="43.227831" lon="-1.679236"><ele>63.873</ele><time>2010-01-01T01:16:31Z</time></trkpt><trkpt lat="43.228235" lon="-1.679211"><ele>61.329</ele><time>2010-01-01T01:16:15Z</time></trkpt><trkpt lat="43.229195" lon="-1.678836"><ele>67.060</ele><time>2010-01-01T01:15:35Z</time></trkpt><trkpt lat="43.229433" lon="-1.678755"><ele>66.645</ele><time>2010-01-01T01:15:25Z</time></trkpt><trkpt lat="43.229930" lon="-1.678542"><ele>65.847</ele><time>2010-01-01T01:15:04Z</time></trkpt><trkpt lat="43.230384" lon="-1.678086"><ele>66.611</ele><time>2010-01-01T01:14:42Z</time></trkpt><trkpt lat="43.230784" lon="-1.677058"><ele>66.409</ele><time>2010-01-01T01:14:08Z</time></trkpt><trkpt lat="43.231444" lon="-1.675389"><ele>60.575</ele><time>2010-01-01T01:13:12Z</time></trkpt><trkpt lat="43.231998" lon="-1.674852"><ele>62.245</ele><time>2010-01-01T01:12:45Z</time></trkpt><trkpt lat="43.232303" lon="-1.674787"><ele>64.062</ele><time>2010-01-01T01:12:33Z</time></trkpt><trkpt lat="43.232736" lon="-1.674943"><ele>62.481</ele><time>2010-01-01T01:12:15Z</time></trkpt><trkpt lat="43.233172" lon="-1.675349"><ele>60.526</ele><time>2010-01-01T01:11:53Z</time></trkpt><trkpt lat="43.233550" lon="-1.675803"><ele>60.278</ele><time>2010-01-01T01:11:33Z</time></trkpt><trkpt lat="43.233815" lon="-1.676113"><ele>59.951</ele><time>2010-01-01T01:11:19Z</time></trkpt><trkpt lat="43.234639" lon="-1.676994"><ele>61.437</ele><time>2010-01-01T01:10:37Z</time></trkpt><trkpt lat="43.234776" lon="-1.677066"><ele>62.078</ele><time>2010-01-01T01:10:32Z</time></trkpt><trkpt lat="43.236013" lon="-1.676956"><ele>62.862</ele><time>2010-01-01T01:09:41Z</time></trkpt><trkpt lat="43.236782" lon="-1.676313"><ele>64.783</ele><time>2010-01-01T01:09:05Z</time></trkpt><trkpt lat="43.237162" lon="-1.675708"><ele>61.611</ele><time>2010-01-01T01:08:42Z</time></trkpt><trkpt lat="43.237778" lon="-1.674957"><ele>62.609</ele><time>2010-01-01T01:08:09Z</time></trkpt><trkpt lat="43.238213" lon="-1.674459"><ele>66.617</ele><time>2010-01-01T01:07:46Z</time></trkpt><trkpt lat="43.239331" lon="-1.674828"><ele>71.487</ele><time>2010-01-01T01:07:00Z</time></trkpt><trkpt lat="43.239421" lon="-1.674629"><ele>67.544</ele><time>2010-01-01T01:06:53Z</time></trkpt><trkpt lat="43.240250" lon="-1.675516"><ele>55.113</ele><time>2010-01-01T01:06:10Z</time></trkpt><trkpt lat="43.240305" lon="-1.675538"><ele>54.738</ele><time>2010-01-01T01:06:07Z</time></trkpt><trkpt lat="43.240979" lon="-1.675484"><ele>53.430</ele><time>2010-01-01T01:05:40Z</time></trkpt><trkpt lat="43.241337" lon="-1.675270"><ele>54.983</ele><time>2010-01-01T01:05:24Z</time></trkpt><trkpt lat="43.241698" lon="-1.674683"><ele>58.699</ele><time>2010-01-01T01:05:02Z</time></trkpt><trkpt lat="43.241816" lon="-1.674427"><ele>58.740</ele><time>2010-01-01T01:04:53Z</time></trkpt><trkpt lat="43.242396" lon="-1.673415"><ele>57.084</ele><time>2010-01-01T01:04:15Z</time></trkpt><trkpt lat="43.244698" lon="-1.670134"><ele>50.707</ele><time>2010-01-01T01:02:03Z</time></trkpt><trkpt lat="43.245138" lon="-1.669838"><ele>51.017</ele><time>2010-01-01T01:01:43Z</time></trkpt><trkpt lat="43.245785" lon="-1.669818"><ele>54.409</ele><time>2010-01-01T01:01:17Z</time></trkpt><trkpt lat="43.247804" lon="-1.671296"><ele>51.289</ele><time>2010-01-01T00:59:45Z</time></trkpt><trkpt lat="43.248049" lon="-1.671478"><ele>51.019</ele><time>2010-01-01T00:59:34Z</time></trkpt><trkpt lat="43.248381" lon="-1.671703"><ele>50.866</ele><time>2010-01-01T00:59:19Z</time></trkpt><trkpt lat="43.249942" lon="-1.673818"><ele>52.695</ele><time>2010-01-01T00:57:51Z</time></trkpt><trkpt lat="43.250199" lon="-1.674612"><ele>49.410</ele><time>2010-01-01T00:57:25Z</time></trkpt><trkpt lat="43.251043" lon="-1.680167"><ele>52.852</ele><time>2010-01-01T00:54:40Z</time></trkpt><trkpt lat="43.251280" lon="-1.680671"><ele>52.945</ele><time>2010-01-01T00:54:22Z</time></trkpt><trkpt lat="43.251649" lon="-1.681050"><ele>54.651</ele><time>2010-01-01T00:54:04Z</time></trkpt><trkpt lat="43.251794" lon="-1.681126"><ele>53.612</ele><time>2010-01-01T00:53:58Z</time></trkpt><trkpt lat="43.251924" lon="-1.681194"><ele>53.512</ele><time>2010-01-01T00:53:52Z</time></trkpt><trkpt lat="43.253060" lon="-1.681539"><ele>54.432</ele><time>2010-01-01T00:53:05Z</time></trkpt><trkpt lat="43.254629" lon="-1.681461"><ele>49.805</ele><time>2010-01-01T00:52:02Z</time></trkpt><trkpt lat="43.254707" lon="-1.681323"><ele>49.509</ele><time>2010-01-01T00:51:57Z</time></trkpt><trkpt lat="43.254839" lon="-1.681226"><ele>48.152</ele><time>2010-01-01T00:51:51Z</time></trkpt><trkpt lat="43.255357" lon="-1.681491"><ele>49.082</ele><time>2010-01-01T00:51:29Z</time></trkpt><trkpt lat="43.255796" lon="-1.681517"><ele>51.789</ele><time>2010-01-01T00:51:11Z</time></trkpt><trkpt lat="43.256381" lon="-1.681234"><ele>52.628</ele><time>2010-01-01T00:50:46Z</time></trkpt><trkpt lat="43.256653" lon="-1.681058"><ele>48.973</ele><time>2010-01-01T00:50:34Z</time></trkpt><trkpt lat="43.256895" lon="-1.680989"><ele>49.485</ele><time>2010-01-01T00:50:24Z</time></trkpt><trkpt lat="43.258001" lon="-1.680532"><ele>49.718</ele><time>2010-01-01T00:49:38Z</time></trkpt><trkpt lat="43.259205" lon="-1.679986"><ele>50.074</ele><time>2010-01-01T00:48:47Z</time></trkpt><trkpt lat="43.259669" lon="-1.680137"><ele>51.615</ele><time>2010-01-01T00:48:27Z</time></trkpt><trkpt lat="43.259864" lon="-1.680136"><ele>50.543</ele><time>2010-01-01T00:48:19Z</time></trkpt><trkpt lat="43.260305" lon="-1.680779"><ele>49.064</ele><time>2010-01-01T00:47:53Z</time></trkpt><trkpt lat="43.260401" lon="-1.681042"><ele>43.810</ele><time>2010-01-01T00:47:44Z</time></trkpt><trkpt lat="43.260282" lon="-1.681722"><ele>47.509</ele><time>2010-01-01T00:47:24Z</time></trkpt><trkpt lat="43.260277" lon="-1.683377"><ele>58.835</ele><time>2010-01-01T00:46:35Z</time></trkpt><trkpt lat="43.261193" lon="-1.685384"><ele>47.945</ele><time>2010-01-01T00:45:26Z</time></trkpt><trkpt lat="43.261541" lon="-1.686021"><ele>49.922</ele><time>2010-01-01T00:45:03Z</time></trkpt><trkpt lat="43.262131" lon="-1.686713"><ele>47.451</ele><time>2010-01-01T00:44:31Z</time></trkpt><trkpt lat="43.262671" lon="-1.687193"><ele>47.466</ele><time>2010-01-01T00:44:06Z</time></trkpt><trkpt lat="43.263676" lon="-1.687623"><ele>50.438</ele><time>2010-01-01T00:43:23Z</time></trkpt><trkpt lat="43.264756" lon="-1.687361"><ele>52.031</ele><time>2010-01-01T00:42:39Z</time></trkpt><trkpt lat="43.265122" lon="-1.687067"><ele>51.547</ele><time>2010-01-01T00:42:22Z</time></trkpt><trkpt lat="43.266154" lon="-1.685984"><ele>42.248</ele><time>2010-01-01T00:41:30Z</time></trkpt><trkpt lat="43.266726" lon="-1.685511"><ele>40.637</ele><time>2010-01-01T00:41:03Z</time></trkpt><trkpt lat="43.267367" lon="-1.685058"><ele>41.549</ele><time>2010-01-01T00:40:34Z</time></trkpt><trkpt lat="43.268163" lon="-1.684616"><ele>40.013</ele><time>2010-01-01T00:40:00Z</time></trkpt><trkpt lat="43.268914" lon="-1.684912"><ele>45.609</ele><time>2010-01-01T00:39:28Z</time></trkpt><trkpt lat="43.269072" lon="-1.685121"><ele>46.864</ele><time>2010-01-01T00:39:19Z</time></trkpt><trkpt lat="43.269181" lon="-1.685345"><ele>46.384</ele><time>2010-01-01T00:39:11Z</time></trkpt><trkpt lat="43.269677" lon="-1.687495"><ele>46.031</ele><time>2010-01-01T00:38:06Z</time></trkpt><trkpt lat="43.269878" lon="-1.687864"><ele>41.980</ele><time>2010-01-01T00:37:52Z</time></trkpt><trkpt lat="43.271074" lon="-1.688651"><ele>38.585</ele><time>2010-01-01T00:36:58Z</time></trkpt><trkpt lat="43.272619" lon="-1.690007"><ele>40.937</ele><time>2010-01-01T00:35:45Z</time></trkpt><trkpt lat="43.273037" lon="-1.690347"><ele>42.480</ele><time>2010-01-01T00:35:25Z</time></trkpt><trkpt lat="43.273327" lon="-1.690550"><ele>40.246</ele><time>2010-01-01T00:35:12Z</time></trkpt><trkpt lat="43.273831" lon="-1.690884"><ele>40.437</ele><time>2010-01-01T00:34:48Z</time></trkpt><trkpt lat="43.275281" lon="-1.690530"><ele>37.764</ele><time>2010-01-01T00:33:48Z</time></trkpt><trkpt lat="43.276412" lon="-1.690605"><ele>39.606</ele><time>2010-01-01T00:33:03Z</time></trkpt><trkpt lat="43.277321" lon="-1.690642"><ele>38.616</ele><time>2010-01-01T00:32:26Z</time></trkpt><trkpt lat="43.277760" lon="-1.690795"><ele>38.709</ele><time>2010-01-01T00:32:08Z</time></trkpt><trkpt lat="43.277988" lon="-1.690977"><ele>39.437</ele><time>2010-01-01T00:31:57Z</time></trkpt><trkpt lat="43.278161" lon="-1.691188"><ele>40.277</ele><time>2010-01-01T00:31:48Z</time></trkpt><trkpt lat="43.278504" lon="-1.692070"><ele>39.514</ele><time>2010-01-01T00:31:19Z</time></trkpt><trkpt lat="43.278432" lon="-1.693197"><ele>41.213</ele><time>2010-01-01T00:30:45Z</time></trkpt><trkpt lat="43.278328" lon="-1.693445"><ele>42.578</ele><time>2010-01-01T00:30:37Z</time></trkpt><trkpt lat="43.277861" lon="-1.694073"><ele>37.240</ele><time>2010-01-01T00:30:11Z</time></trkpt><trkpt lat="43.276827" lon="-1.694890"><ele>38.323</ele><time>2010-01-01T00:29:23Z</time></trkpt><trkpt lat="43.276678" lon="-1.695015"><ele>37.519</ele><time>2010-01-01T00:29:16Z</time></trkpt><trkpt lat="43.275919" lon="-1.695739"><ele>32.980</ele><time>2010-01-01T00:28:39Z</time></trkpt><trkpt lat="43.275503" lon="-1.696377"><ele>34.549</ele><time>2010-01-01T00:28:13Z</time></trkpt><trkpt lat="43.275358" lon="-1.696898"><ele>34.902</ele><time>2010-01-01T00:27:57Z</time></trkpt><trkpt lat="43.275136" lon="-1.697613"><ele>39.522</ele><time>2010-01-01T00:27:35Z</time></trkpt><trkpt lat="43.275060" lon="-1.697920"><ele>37.309</ele><time>2010-01-01T00:27:25Z</time></trkpt><trkpt lat="43.274987" lon="-1.698284"><ele>34.875</ele><time>2010-01-01T00:27:14Z</time></trkpt><trkpt lat="43.274997" lon="-1.698601"><ele>33.335</ele><time>2010-01-01T00:27:05Z</time></trkpt><trkpt lat="43.274890" lon="-1.700816"><ele>45.482</ele><time>2010-01-01T00:26:00Z</time></trkpt><trkpt lat="43.274759" lon="-1.702513"><ele>34.411</ele><time>2010-01-01T00:25:10Z</time></trkpt><trkpt lat="43.274307" lon="-1.705637"><ele>37.166</ele><time>2010-01-01T00:23:37Z</time></trkpt><trkpt lat="43.274176" lon="-1.707950"><ele>37.368</ele><time>2010-01-01T00:22:29Z</time></trkpt><trkpt lat="43.274078" lon="-1.708974"><ele>38.381</ele><time>2010-01-01T00:21:59Z</time></trkpt><trkpt lat="43.274946" lon="-1.712009"><ele>37.037</ele><time>2010-01-01T00:20:23Z</time></trkpt><trkpt lat="43.275195" lon="-1.712540"><ele>31.838</ele><time>2010-01-01T00:20:05Z</time></trkpt><trkpt lat="43.275834" lon="-1.713001"><ele>34.065</ele><time>2010-01-01T00:19:36Z</time></trkpt><trkpt lat="43.278002" lon="-1.713624"><ele>33.868</ele><time>2010-01-01T00:18:07Z</time></trkpt><trkpt lat="43.280353" lon="-1.714257"><ele>31.514</ele><time>2010-01-01T00:16:31Z</time></trkpt><trkpt lat="43.281744" lon="-1.714215"><ele>34.709</ele><time>2010-01-01T00:15:35Z</time></trkpt><trkpt lat="43.282259" lon="-1.714156"><ele>32.777</ele><time>2010-01-01T00:15:14Z</time></trkpt><trkpt lat="43.282481" lon="-1.714139"><ele>32.137</ele><time>2010-01-01T00:15:06Z</time></trkpt><trkpt lat="43.282788" lon="-1.714102"><ele>35.234</ele><time>2010-01-01T00:14:53Z</time></trkpt><trkpt lat="43.284835" lon="-1.713103"><ele>35.753</ele><time>2010-01-01T00:13:26Z</time></trkpt><trkpt lat="43.285198" lon="-1.712925"><ele>34.298</ele><time>2010-01-01T00:13:11Z</time></trkpt><trkpt lat="43.285446" lon="-1.712865"><ele>33.460</ele><time>2010-01-01T00:13:01Z</time></trkpt><trkpt lat="43.287303" lon="-1.713063"><ele>35.173</ele><time>2010-01-01T00:11:46Z</time></trkpt><trkpt lat="43.288419" lon="-1.712650"><ele>33.869</ele><time>2010-01-01T00:11:00Z</time></trkpt><trkpt lat="43.288695" lon="-1.712316"><ele>27.250</ele><time>2010-01-01T00:10:45Z</time></trkpt><trkpt lat="43.288936" lon="-1.712043"><ele>23.725</ele><time>2010-01-01T00:10:32Z</time></trkpt><trkpt lat="43.289443" lon="-1.712161"><ele>40.826</ele><time>2010-01-01T00:10:11Z</time></trkpt><trkpt lat="43.290090" lon="-1.712487"><ele>30.108</ele><time>2010-01-01T00:09:44Z</time></trkpt><trkpt lat="43.290269" lon="-1.712870"><ele>23.809</ele><time>2010-01-01T00:09:30Z</time></trkpt><trkpt lat="43.290244" lon="-1.713500"><ele>34.253</ele><time>2010-01-01T00:09:11Z</time></trkpt><trkpt lat="43.290951" lon="-1.718356"><ele>43.423</ele><time>2010-01-01T00:06:47Z</time></trkpt><trkpt lat="43.291112" lon="-1.720263"><ele>21.090</ele><time>2010-01-01T00:05:51Z</time></trkpt><trkpt lat="43.291071" lon="-1.722298"><ele>20.529</ele><time>2010-01-01T00:04:51Z</time></trkpt><trkpt lat="43.291017" lon="-1.727088"><ele>25.144</ele><time>2010-01-01T00:02:32Z</time></trkpt><trkpt lat="43.291036" lon="-1.727568"><ele>21.056</ele><time>2010-01-01T00:02:18Z</time></trkpt><trkpt lat="43.291804" lon="-1.729402"><ele>19.039</ele><time>2010-01-01T00:01:15Z</time></trkpt><trkpt lat="43.291944" lon="-1.729546"><ele>17.435</ele><time>2010-01-01T00:01:08Z</time></trkpt><trkpt lat="43.292440" lon="-1.729881"><ele>21.886</ele><time>2010-01-01T00:00:46Z</time></trkpt><trkpt lat="43.292792" lon="-1.729952"><ele>19.146</ele><time>2010-01-01T00:00:32Z</time></trkpt><trkpt lat="43.294360" lon="-1.729630"><ele>14.788</ele><time>2022-08-30T05:44:13Z</time></trkpt><trkpt lat="43.294500" lon="-1.729570"><ele>12.916</ele><time>2022-08-30T05:44:53Z</time></trkpt><trkpt lat="43.294940" lon="-1.729790"><ele>12.209</ele><time>2022-08-30T05:45:33Z</time></trkpt><trkpt lat="43.295070" lon="-1.729920"><ele>12.585</ele><time>2022-08-30T05:46:13Z</time></trkpt><trkpt lat="43.295220" lon="-1.730060"><ele>12.215</ele><time>2022-08-30T05:46:53Z</time></trkpt><trkpt lat="43.295620" lon="-1.730550"><ele>13.792</ele><time>2022-08-30T05:47:33Z</time></trkpt><trkpt lat="43.297370" lon="-1.731430"><ele>14.711</ele><time>2022-08-30T05:48:13Z</time></trkpt><trkpt lat="43.297470" lon="-1.731470"><ele>14.446</ele><time>2022-08-30T05:48:53Z</time></trkpt><trkpt lat="43.297790" lon="-1.731630"><ele>15.998</ele><time>2022-08-30T05:49:33Z</time></trkpt><trkpt lat="43.299000" lon="-1.731880"><ele>14.621</ele><time>2022-08-30T05:50:13Z</time></trkpt><trkpt lat="43.299720" lon="-1.732390"><ele>14.987</ele><time>2022-08-30T05:50:53Z</time></trkpt><trkpt lat="43.300630" lon="-1.733090"><ele>15.648</ele><time>2022-08-30T05:51:33Z</time></trkpt><trkpt lat="43.301820" lon="-1.733650"><ele>15.371</ele><time>2022-08-30T05:52:13Z</time></trkpt><trkpt lat="43.303150" lon="-1.734090"><ele>13.741</ele><time>2022-08-30T05:52:53Z</time></trkpt><trkpt lat="43.305280" lon="-1.734460"><ele>9.215</ele><time>2022-08-30T05:53:33Z</time></trkpt><trkpt lat="43.306970" lon="-1.735510"><ele>11.309</ele><time>2022-08-30T05:54:13Z</time></trkpt><trkpt lat="43.307810" lon="-1.735540"><ele>8.988</ele><time>2022-08-30T05:54:53Z</time></trkpt><trkpt lat="43.308270" lon="-1.735950"><ele>9.528</ele><time>2022-08-30T05:55:33Z</time></trkpt><trkpt lat="43.308550" lon="-1.736050"><ele>9.895</ele><time>2022-08-30T05:56:13Z</time></trkpt><trkpt lat="43.308850" lon="-1.736140"><ele>10.844</ele><time>2022-08-30T05:56:53Z</time></trkpt><trkpt lat="43.309750" lon="-1.736460"><ele>10.779</ele><time>2022-08-30T05:57:33Z</time></trkpt><trkpt lat="43.310020" lon="-1.736730"><ele>9.691</ele><time>2022-08-30T05:58:13Z</time></trkpt><trkpt lat="43.310200" lon="-1.737190"><ele>9.914</ele><time>2022-08-30T05:58:53Z</time></trkpt><trkpt lat="43.310340" lon="-1.738070"><ele>7.670</ele><time>2022-08-30T05:59:33Z</time></trkpt><trkpt lat="43.310340" lon="-1.738100"><ele>7.651</ele><time>2022-08-30T06:00:13Z</time></trkpt><trkpt lat="43.310480" lon="-1.739430"><ele>10.317</ele><time>2022-08-30T06:00:53Z</time></trkpt><trkpt lat="43.311110" lon="-1.740530"><ele>8.087</ele><time>2022-08-30T06:01:33Z</time></trkpt><trkpt lat="43.311350" lon="-1.740790"><ele>8.815</ele><time>2022-08-30T06:02:13Z</time></trkpt><trkpt lat="43.312230" lon="-1.740500"><ele>10.409</ele><time>2022-08-30T06:02:53Z</time></trkpt><trkpt lat="43.312480" lon="-1.740310"><ele>11.682</ele><time>2022-08-30T06:03:33Z</time></trkpt><trkpt lat="43.313080" lon="-1.739120"><ele>7.582</ele><time>2022-08-30T06:04:13Z</time></trkpt><trkpt lat="43.313640" lon="-1.738660"><ele>10.219</ele><time>2022-08-30T06:04:53Z</time></trkpt><trkpt lat="43.313720" lon="-1.738650"><ele>10.198</ele><time>2022-08-30T06:05:33Z</time></trkpt><trkpt lat="43.314260" lon="-1.738980"><ele>10.883</ele><time>2022-08-30T06:06:13Z</time></trkpt><trkpt lat="43.315210" lon="-1.740750"><ele>14.955</ele><time>2022-08-30T06:06:53Z</time></trkpt><trkpt lat="43.315550" lon="-1.741220"><ele>15.638</ele><time>2022-08-30T06:07:33Z</time></trkpt><trkpt lat="43.316240" lon="-1.741900"><ele>14.794</ele><time>2022-08-30T06:08:13Z</time></trkpt><trkpt lat="43.316540" lon="-1.742050"><ele>13.085</ele><time>2022-08-30T06:08:53Z</time></trkpt><trkpt lat="43.317080" lon="-1.742090"><ele>10.662</ele><time>2022-08-30T06:09:33Z</time></trkpt><trkpt lat="43.317950" lon="-1.742270"><ele>11.183</ele><time>2022-08-30T06:10:13Z</time></trkpt><trkpt lat="43.318300" lon="-1.742290"><ele>13.511</ele><time>2022-08-30T06:10:53Z</time></trkpt><trkpt lat="43.318630" lon="-1.742290"><ele>12.709</ele><time>2022-08-30T06:11:33Z</time></trkpt><trkpt lat="43.321330" lon="-1.741980"><ele>13.047</ele><time>2022-08-30T06:12:13Z</time></trkpt><trkpt lat="43.323190" lon="-1.740820"><ele>14.897</ele><time>2022-08-30T06:12:53Z</time></trkpt><trkpt lat="43.325180" lon="-1.739220"><ele>10.564</ele><time>2022-08-30T06:13:33Z</time></trkpt><trkpt lat="43.325310" lon="-1.739170"><ele>9.153</ele><time>2022-08-30T06:14:13Z</time></trkpt><trkpt lat="43.325360" lon="-1.739140"><ele>8.668</ele><time>2022-08-30T06:14:53Z</time></trkpt><trkpt lat="43.325450" lon="-1.739110"><ele>8.220</ele><time>2022-08-30T06:15:33Z</time></trkpt><trkpt lat="43.326110" lon="-1.739030"><ele>8.063</ele><time>2022-08-30T06:16:13Z</time></trkpt><trkpt lat="43.327220" lon="-1.738850"><ele>8.439</ele><time>2022-08-30T06:16:53Z</time></trkpt><trkpt lat="43.327770" lon="-1.738740"><ele>7.420</ele><time>2022-08-30T06:17:33Z</time></trkpt><trkpt lat="43.328360" lon="-1.738670"><ele>7.352</ele><time>2022-08-30T06:18:13Z</time></trkpt><trkpt lat="43.328830" lon="-1.738970"><ele>8.053</ele><time>2022-08-30T06:18:53Z</time></trkpt><trkpt lat="43.329330" lon="-1.740160"><ele>8.008</ele><time>2022-08-30T06:19:33Z</time></trkpt><trkpt lat="43.329650" lon="-1.741980"><ele>9.409</ele><time>2022-08-30T06:20:13Z</time></trkpt><trkpt lat="43.330520" lon="-1.746230"><ele>5.876</ele><time>2022-08-30T06:20:53Z</time></trkpt><trkpt lat="43.330770" lon="-1.746840"><ele>4.026</ele><time>2022-08-30T06:21:33Z</time></trkpt><trkpt lat="43.330560" lon="-1.747520"><ele>5.043</ele><time>2022-08-30T06:22:13Z</time></trkpt><trkpt lat="43.330740" lon="-1.748950"><ele>5.882</ele><time>2022-08-30T06:22:53Z</time></trkpt><trkpt lat="43.331270" lon="-1.750320"><ele>5.537</ele><time>2022-08-30T06:23:33Z</time></trkpt><trkpt lat="43.331980" lon="-1.751560"><ele>6.039</ele><time>2022-08-30T06:24:13Z</time></trkpt><trkpt lat="43.332770" lon="-1.752670"><ele>9.232</ele><time>2022-08-30T06:24:53Z</time></trkpt><trkpt lat="43.333340" lon="-1.753040"><ele>9.538</ele><time>2022-08-30T06:25:33Z</time></trkpt><trkpt lat="43.334360" lon="-1.753360"><ele>11.169</ele><time>2022-08-30T06:26:13Z</time></trkpt><trkpt lat="43.334770" lon="-1.753370"><ele>11.374</ele><time>2022-08-30T06:26:53Z</time></trkpt><trkpt lat="43.335190" lon="-1.753250"><ele>10.856</ele><time>2022-08-30T06:27:33Z</time></trkpt><trkpt lat="43.335260" lon="-1.753190"><ele>10.721</ele><time>2022-08-30T06:28:13Z</time></trkpt><trkpt lat="43.335870" lon="-1.752290"><ele>5.909</ele><time>2022-08-30T06:28:53Z</time></trkpt><trkpt lat="43.336470" lon="-1.752110"><ele>4.398</ele><time>2022-08-30T06:29:33Z</time></trkpt><trkpt lat="43.337770" lon="-1.752640"><ele>4.068</ele><time>2022-08-30T06:30:13Z</time></trkpt><trkpt lat="43.337880" lon="-1.752710"><ele>4.265</ele><time>2022-08-30T06:30:53Z</time></trkpt><trkpt lat="43.339200" lon="-1.752950"><ele>3.014</ele><time>2022-08-30T06:31:33Z</time></trkpt><trkpt lat="43.339840" lon="-1.753070"><ele>2.779</ele><time>2022-08-30T06:32:13Z</time></trkpt><trkpt lat="43.341100" lon="-1.753750"><ele>2.021</ele><time>2022-08-30T06:32:53Z</time></trkpt><trkpt lat="43.341600" lon="-1.754290"><ele>2.164</ele><time>2022-08-30T06:33:33Z</time></trkpt><trkpt lat="43.343250" lon="-1.757080"><ele>2.350</ele><time>2022-08-30T06:34:13Z</time></trkpt><trkpt lat="43.343780" lon="-1.758680"><ele>2.291</ele><time>2022-08-30T06:34:53Z</time></trkpt><trkpt lat="43.343860" lon="-1.760630"><ele>1.131</ele><time>2022-08-30T06:35:33Z</time></trkpt><trkpt lat="43.343854" lon="-1.759138"><ele>1.361</ele><time>2022-11-14T23:58:50Z</time></trkpt><trkpt lat="43.346016" lon="-1.764017"><ele>7.707</ele><time>2022-11-14T23:59:30Z</time></trkpt><trkpt lat="43.343971" lon="-1.763713"><ele>1.409</ele><time>2022-11-15T00:00:10Z</time></trkpt><trkpt lat="43.342779" lon="-1.771959"><ele>1.054</ele><time>2022-11-15T00:00:50Z</time></trkpt><trkpt lat="43.344436" lon="-1.775898"><ele>1.514</ele><time>2022-11-15T00:01:30Z</time></trkpt><trkpt lat="43.348257" lon="-1.777324"><ele>1.241</ele><time>2022-11-15T00:02:10Z</time></trkpt><trkpt lat="43.350552" lon="-1.785255"><ele>3.050</ele><time>2022-11-15T00:02:50Z</time></trkpt><trkpt lat="43.356012" lon="-1.784023"><ele>1.755</ele><time>2022-11-15T00:03:30Z</time></trkpt><trkpt lat="43.358547" lon="-1.780222"><ele>2.557</ele><time>2022-11-15T00:04:10Z</time></trkpt><trkpt lat="43.358246" lon="-1.778171"><ele>2.210</ele><time>2022-11-15T00:04:50Z</time></trkpt><trkpt lat="43.365330" lon="-1.769934"><ele>1.036</ele><time>2022-11-15T00:05:30Z</time></trkpt><trkpt lat="43.370398" lon="-1.774430"><ele>1.697</ele><time>2022-11-15T00:06:10Z</time></trkpt><trkpt lat="43.369492" lon="-1.780996"><ele>1.016</ele><time>2022-11-15T00:06:50Z</time></trkpt><trkpt lat="43.370670" lon="-1.782752"><ele>1.876</ele><time>2022-11-15T00:07:30Z</time></trkpt><trkpt lat="43.370018" lon="-1.787675"><ele>1.013</ele><time>2022-11-15T00:08:10Z</time></trkpt><trkpt lat="43.371068" lon="-1.788130"><ele>1.109</ele><time>2022-11-15T00:08:50Z</time></trkpt><trkpt lat="43.375589" lon="-1.762791"><ele>2.012</ele><time>2022-11-15T00:09:30Z</time></trkpt><trkpt lat="43.373717" lon="-1.759765"><ele>19.812</ele><time>2022-11-15T00:10:10Z</time></trkpt><trkpt lat="43.374719" lon="-1.757032"><ele>33.779</ele><time>2022-11-15T00:10:50Z</time></trkpt><trkpt lat="43.373515" lon="-1.754918"><ele>43.138</ele><time>2022-11-15T00:11:30Z</time></trkpt><trkpt lat="43.377289" lon="-1.746374"><ele>55.273</ele><time>2022-11-15T00:12:10Z</time></trkpt><trkpt lat="43.376438" lon="-1.740366"><ele>37.885</ele><time>2022-11-15T00:12:50Z</time></trkpt><trkpt lat="43.377419" lon="-1.735947"><ele>19.498</ele><time>2022-11-15T00:13:30Z</time></trkpt><trkpt lat="43.381655" lon="-1.732005"><ele>19.184</ele><time>2022-11-15T00:14:10Z</time></trkpt><trkpt lat="43.382136" lon="-1.727509"><ele>14.955</ele><time>2022-11-15T00:14:50Z</time></trkpt><trkpt lat="43.384235" lon="-1.725131"><ele>25.976</ele><time>2022-11-15T00:15:30Z</time></trkpt><trkpt lat="43.386398" lon="-1.710084"><ele>27.790</ele><time>2022-11-15T00:16:10Z</time></trkpt><trkpt lat="43.388822" lon="-1.708383"><ele>36.119</ele><time>2022-11-15T00:16:50Z</time></trkpt><trkpt lat="43.394365" lon="-1.689513"><ele>13.109</ele><time>2022-11-15T00:17:30Z</time></trkpt><trkpt lat="43.391790" lon="-1.686146"><ele>7.328</ele><time>2022-11-15T00:18:10Z</time></trkpt><trkpt lat="43.393566" lon="-1.684816"><ele>2.148</ele><time>2022-11-15T00:18:50Z</time></trkpt><trkpt lat="43.392545" lon="-1.683192"><ele>0.855</ele><time>2022-11-15T00:19:30Z</time></trkpt><trkpt lat="43.390011" lon="-1.685351"><ele>1.934</ele><time>2022-11-15T00:20:10Z</time></trkpt><trkpt lat="43.388103" lon="-1.677847"><ele>13.349</ele><time>2022-11-15T00:20:50Z</time></trkpt><trkpt lat="43.388449" lon="-1.671990"><ele>15.681</ele><time>2022-11-15T00:21:30Z</time></trkpt><trkpt lat="43.384381" lon="-1.665770"><ele>1.014</ele><time>2022-11-15T00:22:10Z</time></trkpt><trkpt lat="43.386036" lon="-1.662242"><ele>2.770</ele><time>2022-11-15T00:22:50Z</time></trkpt><trkpt lat="43.386036" lon="-1.662242"><ele>2.721</ele><time>2022-11-15T00:23:30Z</time></trkpt><trkpt lat="43.386871" lon="-1.663312"><ele>1.842</ele><time>2022-11-15T00:24:10Z</time></trkpt><trkpt lat="43.389075" lon="-1.657994"><ele>9.022</ele><time>2022-11-15T00:24:50Z</time></trkpt><trkpt lat="43.399238" lon="-1.662251"><ele>16.014</ele><time>2022-11-15T00:25:30Z</time></trkpt><trkpt lat="43.401547" lon="-1.659564"><ele>31.909</ele><time>2022-11-15T00:26:10Z</time></trkpt><trkpt lat="43.404808" lon="-1.642619"><ele>12.935</ele><time>2022-11-15T00:26:50Z</time></trkpt><trkpt lat="43.410721" lon="-1.634746"><ele>25.925</ele><time>2022-11-15T00:27:30Z</time></trkpt><trkpt lat="43.412821" lon="-1.625132"><ele>44.972</ele><time>2022-11-15T00:28:10Z</time></trkpt><trkpt lat="43.414731" lon="-1.626544"><ele>37.571</ele><time>2022-11-15T00:28:50Z</time></trkpt><trkpt lat="43.418531" lon="-1.620179"><ele>12.416</ele><time>2022-11-15T00:29:30Z</time></trkpt><trkpt lat="43.422550" lon="-1.618429"><ele>10.548</ele><time>2022-11-15T00:30:10Z</time></trkpt><trkpt lat="43.426503" lon="-1.603734"><ele>30.071</ele><time>2022-11-15T00:30:50Z</time></trkpt><trkpt lat="43.439320" lon="-1.590155"><ele>56.727</ele><time>2022-11-15T00:31:30Z</time></trkpt><trkpt lat="43.439662" lon="-1.592139"><ele>59.158</ele><time>2022-11-15T00:32:10Z</time></trkpt><trkpt lat="43.442575" lon="-1.590139"><ele>70.036</ele><time>2022-11-15T00:32:50Z</time></trkpt><trkpt lat="43.442927" lon="-1.585695"><ele>70.017</ele><time>2022-11-15T00:33:30Z</time></trkpt><trkpt lat="43.447897" lon="-1.583321"><ele>70.018</ele><time>2022-11-15T00:34:10Z</time></trkpt><trkpt lat="43.451165" lon="-1.574439"><ele>57.809</ele><time>2022-11-15T00:34:50Z</time></trkpt><trkpt lat="43.461417" lon="-1.570664"><ele>21.884</ele><time>2022-11-15T00:35:30Z</time></trkpt><trkpt lat="43.461417" lon="-1.570664"><ele>21.894</ele><time>2022-11-15T00:36:10Z</time></trkpt><trkpt lat="43.462572" lon="-1.571631"><ele>26.041</ele><time>2022-11-15T00:36:50Z</time></trkpt><trkpt lat="43.462400" lon="-1.576207"><ele>12.370</ele><time>2022-11-15T00:37:30Z</time></trkpt><trkpt lat="43.465165" lon="-1.571925"><ele>17.325</ele><time>2022-11-15T00:38:10Z</time></trkpt><trkpt lat="43.471690" lon="-1.569095"><ele>49.987</ele><time>2022-11-15T00:38:50Z</time></trkpt><trkpt lat="43.472978" lon="-1.566758"><ele>45.470</ele><time>2022-11-15T00:39:30Z</time></trkpt><trkpt lat="43.473521" lon="-1.567957"><ele>39.446</ele><time>2022-11-15T00:40:10Z</time></trkpt><trkpt lat="43.478789" lon="-1.564866"><ele>44.547</ele><time>2022-11-15T00:40:50Z</time></trkpt><trkpt lat="43.481604" lon="-1.568480"><ele>19.684</ele><time>2022-11-15T00:41:30Z</time></trkpt><trkpt lat="43.482218" lon="-1.566932"><ele>17.107</ele><time>2022-11-15T00:42:10Z</time></trkpt><trkpt lat="43.483470" lon="-1.568230"><ele>12.117</ele><time>2022-11-15T00:42:50Z</time></trkpt><trkpt lat="43.483251" lon="-1.559691"><ele>9.609</ele><time>2022-11-15T00:43:30Z</time></trkpt><trkpt lat="43.487861" lon="-1.553521"><ele>20.429</ele><time>2022-11-15T00:44:10Z</time></trkpt><trkpt lat="43.491929" lon="-1.551428"><ele>40.919</ele><time>2022-11-15T00:44:50Z</time></trkpt><trkpt lat="43.494933" lon="-1.542948"><ele>41.486</ele><time>2022-11-15T00:45:30Z</time></trkpt><trkpt lat="43.497614" lon="-1.542659"><ele>26.365</ele><time>2022-11-15T00:46:10Z</time></trkpt><trkpt lat="43.512055" lon="-1.527050"><ele>9.230</ele><time>2022-11-15T00:46:50Z</time></trkpt><trkpt lat="43.519514" lon="-1.523656"><ele>10.052</ele><time>2022-11-15T00:47:30Z</time></trkpt><trkpt lat="43.525962" lon="-1.517142"><ele>5.755</ele><time>2022-11-15T00:48:10Z</time></trkpt><trkpt lat="43.526535" lon="-1.512224"><ele>2.981</ele><time>2022-11-15T00:48:50Z</time></trkpt><trkpt lat="43.524152" lon="-1.504364"><ele>7.742</ele><time>2022-11-15T00:49:30Z</time></trkpt><trkpt lat="43.510923" lon="-1.500110"><ele>4.711</ele><time>2022-11-15T00:50:10Z</time></trkpt><trkpt lat="43.503353" lon="-1.494702"><ele>2.021</ele><time>2022-11-15T00:50:50Z</time></trkpt><trkpt lat="43.498747" lon="-1.487837"><ele>1.103</ele><time>2022-11-15T00:51:30Z</time></trkpt><trkpt lat="43.495315" lon="-1.478324"><ele>1.909</ele><time>2022-11-15T00:52:10Z</time></trkpt><trkpt lat="43.495315" lon="-1.478324"><ele>1.932</ele><time>2022-11-15T00:52:50Z</time></trkpt><trkpt lat="43.488419" lon="-1.465239"><ele>7.572</ele><time>2022-11-15T00:53:30Z</time></trkpt><trkpt lat="43.490180" lon="-1.462751"><ele>2.039</ele><time>2022-11-15T00:54:10Z</time></trkpt><trkpt lat="43.495189" lon="-1.470759"><ele>1.828</ele><time>2022-11-15T00:54:50Z</time></trkpt><trkpt lat="43.498951" lon="-1.482275"><ele>1.083</ele><time>2022-11-15T00:55:30Z</time></trkpt><trkpt lat="43.501774" lon="-1.478910"><ele>9.195</ele><time>2022-11-15T00:56:10Z</time></trkpt><trkpt lat="43.500952" lon="-1.479862"><ele>4.048</ele><time>2022-11-15T00:56:50Z</time></trkpt><trkpt lat="43.506111" lon="-1.485540"><ele>3.034</ele><time>2022-11-15T00:57:30Z</time></trkpt><trkpt lat="43.510756" lon="-1.487261"><ele>2.685</ele><time>2022-11-15T00:58:10Z</time></trkpt><trkpt lat="43.519423" lon="-1.486541"><ele>3.973</ele><time>2022-11-15T00:58:50Z</time></trkpt><trkpt lat="43.527282" lon="-1.492267"><ele>5.085</ele><time>2022-11-15T00:59:30Z</time></trkpt><trkpt lat="43.528191" lon="-1.495380"><ele>5.013</ele><time>2022-11-15T01:00:10Z</time></trkpt><trkpt lat="43.533229" lon="-1.494258"><ele>5.709</ele><time>2022-11-15T01:00:50Z</time></trkpt><trkpt lat="43.533057" lon="-1.492503"><ele>5.058</ele><time>2022-11-15T01:01:30Z</time></trkpt><trkpt lat="43.537404" lon="-1.490130"><ele>6.048</ele><time>2022-11-15T01:02:10Z</time></trkpt><trkpt lat="43.542328" lon="-1.484047"><ele>7.035</ele><time>2022-11-15T01:02:50Z</time></trkpt><trkpt lat="43.557566" lon="-1.496807"><ele>5.514</ele><time>2022-11-15T01:03:30Z</time></trkpt><trkpt lat="43.560153" lon="-1.493967"><ele>5.759</ele><time>2022-11-15T01:04:10Z</time></trkpt><trkpt lat="43.552251" lon="-1.475944"><ele>7.041</ele><time>2022-11-15T01:04:50Z</time></trkpt><trkpt lat="43.552700" lon="-1.472492"><ele>7.094</ele><time>2022-11-15T01:05:30Z</time></trkpt><trkpt lat="43.559483" lon="-1.466069"><ele>5.090</ele><time>2022-11-15T01:06:10Z</time></trkpt><trkpt lat="43.560500" lon="-1.468155"><ele>5.081</ele><time>2022-11-15T01:06:50Z</time></trkpt><trkpt lat="43.564777" lon="-1.465777"><ele>7.292</ele><time>2022-11-15T01:07:30Z</time></trkpt><trkpt lat="43.568967" lon="-1.472085"><ele>6.073</ele><time>2022-11-15T01:08:10Z</time></trkpt><trkpt lat="43.571457" lon="-1.472215"><ele>5.020</ele><time>2022-11-15T01:08:50Z</time></trkpt><trkpt lat="43.570474" lon="-1.466995"><ele>6.009</ele><time>2022-11-15T01:09:30Z</time></trkpt><trkpt lat="43.579398" lon="-1.457131"><ele>6.050</ele><time>2022-11-15T01:10:10Z</time></trkpt><trkpt lat="43.585472" lon="-1.455574"><ele>5.070</ele><time>2022-11-15T01:10:50Z</time></trkpt><trkpt lat="43.590719" lon="-1.460226"><ele>5.057</ele><time>2022-11-15T01:11:30Z</time></trkpt><trkpt lat="43.598647" lon="-1.460040"><ele>5.096</ele><time>2022-11-15T01:12:10Z</time></trkpt><trkpt lat="43.606670" lon="-1.454744"><ele>5.071</ele><time>2022-11-15T01:12:50Z</time></trkpt><trkpt lat="43.611318" lon="-1.454372"><ele>5.023</ele><time>2022-11-15T01:13:30Z</time></trkpt><trkpt lat="43.617129" lon="-1.445470"><ele>5.066</ele><time>2022-11-15T01:14:10Z</time></trkpt><trkpt lat="43.621750" lon="-1.442844"><ele>5.042</ele><time>2022-11-15T01:14:50Z</time></trkpt><trkpt lat="43.621618" lon="-1.439761"><ele>5.093</ele><time>2022-11-15T01:15:30Z</time></trkpt><trkpt lat="43.628722" lon="-1.434847"><ele>8.015</ele><time>2022-11-15T01:16:10Z</time></trkpt><trkpt lat="43.633940" lon="-1.439023"><ele>5.065</ele><time>2022-11-15T01:16:50Z</time></trkpt><trkpt lat="43.638747" lon="-1.436740"><ele>5.011</ele><time>2022-11-15T01:17:30Z</time></trkpt><trkpt lat="43.641202" lon="-1.441749"><ele>8.209</ele><time>2022-11-15T01:18:10Z</time></trkpt><trkpt lat="43.646933" lon="-1.439733"><ele>5.062</ele><time>2022-11-15T01:18:50Z</time></trkpt><trkpt lat="43.644118" lon="-1.433380"><ele>4.072</ele><time>2022-11-15T01:19:30Z</time></trkpt><trkpt lat="43.644118" lon="-1.433380"><ele>4.099</ele><time>2022-11-15T01:20:10Z</time></trkpt><trkpt lat="43.648593" lon="-1.435616"><ele>1.368</ele><time>2022-11-15T01:20:50Z</time></trkpt><trkpt lat="43.652064" lon="-1.434737"><ele>0.083</ele><time>2022-11-15T01:21:30Z</time></trkpt><trkpt lat="43.653661" lon="-1.430237"><ele>0.885</ele><time>2022-11-15T01:22:10Z</time></trkpt><trkpt lat="43.656552" lon="-1.433258"><ele>1.018</ele><time>2022-11-15T01:22:50Z</time></trkpt><trkpt lat="43.660075" lon="-1.431137"><ele>1.084</ele><time>2022-11-15T01:23:30Z</time></trkpt><trkpt lat="43.663338" lon="-1.434353"><ele>9.755</ele><time>2022-11-15T01:24:10Z</time></trkpt><trkpt lat="43.664707" lon="-1.440121"><ele>7.949</ele><time>2022-11-15T01:24:50Z</time></trkpt><trkpt lat="43.675846" lon="-1.437530"><ele>5.002</ele><time>2022-11-15T01:25:30Z</time></trkpt><trkpt lat="43.679500" lon="-1.438570"><ele>10.922</ele><time>2022-11-15T01:26:10Z</time></trkpt><trkpt lat="43.682813" lon="-1.436502"><ele>5.409</ele><time>2022-11-15T01:26:50Z</time></trkpt><trkpt lat="43.695337" lon="-1.436229"><ele>11.025</ele><time>2022-11-15T01:27:30Z</time></trkpt><trkpt lat="43.696450" lon="-1.433942"><ele>7.025</ele><time>2022-11-15T01:28:10Z</time></trkpt><trkpt lat="43.703563" lon="-1.433135"><ele>5.022</ele><time>2022-11-15T01:28:50Z</time></trkpt><trkpt lat="43.707016" lon="-1.430350"><ele>5.071</ele><time>2022-11-15T01:29:30Z</time></trkpt><trkpt lat="43.708500" lon="-1.424087"><ele>7.276</ele><time>2022-11-15T01:30:10Z</time></trkpt><trkpt lat="43.706028" lon="-1.420316"><ele>9.068</ele><time>2022-11-15T01:30:50Z</time></trkpt><trkpt lat="43.706272" lon="-1.417875"><ele>10.021</ele><time>2022-11-15T01:31:30Z</time></trkpt><trkpt lat="43.708104" lon="-1.417087"><ele>11.767</ele><time>2022-11-15T01:32:10Z</time></trkpt><trkpt lat="43.715576" lon="-1.421071"><ele>6.198</ele><time>2022-11-15T01:32:50Z</time></trkpt><trkpt lat="43.726831" lon="-1.411729"><ele>10.086</ele><time>2022-11-15T01:33:30Z</time></trkpt><trkpt lat="43.736535" lon="-1.412250"><ele>6.060</ele><time>2022-11-15T01:34:10Z</time></trkpt><trkpt lat="43.762646" lon="-1.391159"><ele>6.026</ele><time>2022-11-15T01:34:50Z</time></trkpt><trkpt lat="43.779342" lon="-1.396184"><ele>5.009</ele><time>2022-11-15T01:35:30Z</time></trkpt><trkpt lat="43.786813" lon="-1.395000"><ele>3.059</ele><time>2022-11-15T01:36:10Z</time></trkpt><trkpt lat="43.797069" lon="-1.383177"><ele>6.249</ele><time>2022-11-15T01:36:50Z</time></trkpt><trkpt lat="43.813410" lon="-1.368681"><ele>10.716</ele><time>2022-11-15T01:37:30Z</time></trkpt><trkpt lat="43.819037" lon="-1.367351"><ele>10.055</ele><time>2022-11-15T01:38:10Z</time></trkpt><trkpt lat="43.832387" lon="-1.359762"><ele>15.030</ele><time>2022-11-15T01:38:50Z</time></trkpt><trkpt lat="43.837186" lon="-1.359194"><ele>15.032</ele><time>2022-11-15T01:39:30Z</time></trkpt><trkpt lat="43.849612" lon="-1.351737"><ele>16.035</ele><time>2022-11-15T01:40:10Z</time></trkpt><trkpt lat="43.864639" lon="-1.324122"><ele>20.021</ele><time>2022-11-15T01:40:50Z</time></trkpt><trkpt lat="43.867787" lon="-1.310267"><ele>19.092</ele><time>2022-11-15T01:41:30Z</time></trkpt><trkpt lat="43.872205" lon="-1.300276"><ele>19.066</ele><time>2022-11-15T01:42:10Z</time></trkpt><trkpt lat="43.877317" lon="-1.302779"><ele>19.729</ele><time>2022-11-15T01:42:50Z</time></trkpt><trkpt lat="43.877317" lon="-1.302779"><ele>19.721</ele><time>2022-11-15T01:43:30Z</time></trkpt><trkpt lat="43.882467" lon="-1.301347"><ele>13.109</ele><time>2022-11-15T01:44:10Z</time></trkpt><trkpt lat="43.888238" lon="-1.293531"><ele>10.037</ele><time>2022-11-15T01:44:50Z</time></trkpt><trkpt lat="43.894493" lon="-1.291580"><ele>10.067</ele><time>2022-11-15T01:45:30Z</time></trkpt><trkpt lat="43.902997" lon="-1.292948"><ele>14.084</ele><time>2022-11-15T01:46:10Z</time></trkpt><trkpt lat="43.904512" lon="-1.309518"><ele>8.273</ele><time>2022-11-15T01:46:50Z</time></trkpt><trkpt lat="43.906927" lon="-1.314308"><ele>9.018</ele><time>2022-11-15T01:47:30Z</time></trkpt><trkpt lat="43.909131" lon="-1.314742"><ele>10.060</ele><time>2022-11-15T01:48:10Z</time></trkpt><trkpt lat="43.908830" lon="-1.319584"><ele>10.073</ele><time>2022-11-15T01:48:50Z</time></trkpt><trkpt lat="43.912235" lon="-1.320254"><ele>13.069</ele><time>2022-11-15T01:49:30Z</time></trkpt><trkpt lat="43.912365" lon="-1.352002"><ele>12.470</ele><time>2022-11-15T01:50:10Z</time></trkpt><trkpt lat="43.921119" lon="-1.356156"><ele>10.039</ele><time>2022-11-15T01:50:50Z</time></trkpt><trkpt lat="43.928732" lon="-1.351679"><ele>14.001</ele><time>2022-11-15T01:51:30Z</time></trkpt><trkpt lat="43.933278" lon="-1.352948"><ele>13.221</ele><time>2022-11-15T01:52:10Z</time></trkpt><trkpt lat="43.936002" lon="-1.355912"><ele>11.909</ele><time>2022-11-15T01:52:50Z</time></trkpt><trkpt lat="43.946304" lon="-1.353189"><ele>10.384</ele><time>2022-11-15T01:53:30Z</time></trkpt><trkpt lat="43.956784" lon="-1.353187"><ele>9.564</ele><time>2022-11-15T01:54:10Z</time></trkpt><trkpt lat="43.963550" lon="-1.347526"><ele>10.131</ele><time>2022-11-15T01:54:50Z</time></trkpt><trkpt lat="43.968094" lon="-1.348156"><ele>10.070</ele><time>2022-11-15T01:55:30Z</time></trkpt><trkpt lat="43.973398" lon="-1.344387"><ele>10.035</ele><time>2022-11-15T01:56:10Z</time></trkpt><trkpt lat="43.983435" lon="-1.341406"><ele>10.077</ele><time>2022-11-15T01:56:50Z</time></trkpt><trkpt lat="43.986629" lon="-1.336416"><ele>14.270</ele><time>2022-11-15T01:57:30Z</time></trkpt><trkpt lat="43.998470" lon="-1.336219"><ele>10.276</ele><time>2022-11-15T01:58:10Z</time></trkpt><trkpt lat="44.002933" lon="-1.329386"><ele>27.627</ele><time>2022-11-15T01:58:50Z</time></trkpt><trkpt lat="44.005383" lon="-1.328218"><ele>17.272</ele><time>2022-11-15T01:59:30Z</time></trkpt><trkpt lat="44.020178" lon="-1.327067"><ele>24.813</ele><time>2022-11-15T02:00:10Z</time></trkpt><trkpt lat="44.035316" lon="-1.329223"><ele>16.414</ele><time>2022-11-15T02:00:50Z</time></trkpt><trkpt lat="44.049593" lon="-1.322514"><ele>24.209</ele><time>2022-11-15T02:01:30Z</time></trkpt><trkpt lat="44.062771" lon="-1.325875"><ele>16.098</ele><time>2022-11-15T02:02:10Z</time></trkpt><trkpt lat="44.075066" lon="-1.318069"><ele>15.568</ele><time>2022-11-15T02:02:50Z</time></trkpt><trkpt lat="44.083571" lon="-1.316340"><ele>9.185</ele><time>2022-11-15T02:03:30Z</time></trkpt><trkpt lat="44.085644" lon="-1.309881"><ele>11.764</ele><time>2022-11-15T02:04:10Z</time></trkpt><trkpt lat="44.087244" lon="-1.310753"><ele>21.789</ele><time>2022-11-15T02:04:50Z</time></trkpt><trkpt lat="44.089700" lon="-1.318579"><ele>13.271</ele><time>2022-11-15T02:05:30Z</time></trkpt><trkpt lat="44.091665" lon="-1.319855"><ele>12.054</ele><time>2022-11-15T02:06:10Z</time></trkpt><trkpt lat="44.104021" lon="-1.309727"><ele>7.520</ele><time>2022-11-15T02:06:50Z</time></trkpt><trkpt lat="44.109350" lon="-1.302206"><ele>19.231</ele><time>2022-11-15T02:07:30Z</time></trkpt><trkpt lat="44.119831" lon="-1.298678"><ele>19.766</ele><time>2022-11-15T02:08:10Z</time></trkpt><trkpt lat="44.139566" lon="-1.297757"><ele>14.629</ele><time>2022-11-15T02:08:50Z</time></trkpt><trkpt lat="44.142779" lon="-1.300570"><ele>17.021</ele><time>2022-11-15T02:09:30Z</time></trkpt><trkpt lat="44.152323" lon="-1.297777"><ele>19.009</ele><time>2022-11-15T02:10:10Z</time></trkpt><trkpt lat="44.156610" lon="-1.302825"><ele>15.917</ele><time>2022-11-15T02:10:50Z</time></trkpt><trkpt lat="44.161369" lon="-1.300574"><ele>20.917</ele><time>2022-11-15T02:11:30Z</time></trkpt><trkpt lat="44.164014" lon="-1.302000"><ele>11.554</ele><time>2022-11-15T02:12:10Z</time></trkpt><trkpt lat="44.182236" lon="-1.293243"><ele>10.333</ele><time>2022-11-15T02:12:50Z</time></trkpt><trkpt lat="44.193301" lon="-1.291836"><ele>10.488</ele><time>2022-11-15T02:13:30Z</time></trkpt><trkpt lat="44.197369" lon="-1.284553"><ele>8.480</ele><time>2022-11-15T02:14:10Z</time></trkpt><trkpt lat="44.204285" lon="-1.283267"><ele>9.243</ele><time>2022-11-15T02:14:50Z</time></trkpt><trkpt lat="44.207484" lon="-1.294495"><ele>5.069</ele><time>2022-11-15T02:15:30Z</time></trkpt><trkpt lat="44.209343" lon="-1.295677"><ele>5.430</ele><time>2022-11-15T02:16:10Z</time></trkpt><trkpt lat="44.213471" lon="-1.293022"><ele>5.079</ele><time>2022-11-15T02:16:50Z</time></trkpt><trkpt lat="44.213471" lon="-1.293022"><ele>5.005</ele><time>2022-11-15T02:17:30Z</time></trkpt><trkpt lat="44.217182" lon="-1.281800"><ele>6.125</ele><time>2022-11-15T02:18:10Z</time></trkpt><trkpt lat="44.219248" lon="-1.281247"><ele>7.209</ele><time>2022-11-15T02:18:50Z</time></trkpt><trkpt lat="44.219228" lon="-1.276064"><ele>18.548</ele><time>2022-11-15T02:19:30Z</time></trkpt><trkpt lat="44.224488" lon="-1.260786"><ele>11.158</ele><time>2022-11-15T02:20:10Z</time></trkpt><trkpt lat="44.220941" lon="-1.254044"><ele>25.815</ele><time>2022-11-15T02:20:50Z</time></trkpt><trkpt lat="44.222057" lon="-1.251280"><ele>37.634</ele><time>2022-11-15T02:21:30Z</time></trkpt><trkpt lat="44.218573" lon="-1.250011"><ele>42.489</ele><time>2022-11-15T02:22:10Z</time></trkpt><trkpt lat="44.219958" lon="-1.241937"><ele>35.751</ele><time>2022-11-15T02:22:50Z</time></trkpt><trkpt lat="44.217516" lon="-1.231544"><ele>16.054</ele><time>2022-11-15T02:23:30Z</time></trkpt><trkpt lat="44.224140" lon="-1.228141"><ele>15.340</ele><time>2022-11-15T02:24:10Z</time></trkpt><trkpt lat="44.229273" lon="-1.221490"><ele>22.041</ele><time>2022-11-15T02:24:50Z</time></trkpt><trkpt lat="44.234090" lon="-1.223253"><ele>13.422</ele><time>2022-11-15T02:25:30Z</time></trkpt><trkpt lat="44.242659" lon="-1.200735"><ele>19.462</ele><time>2022-11-15T02:26:10Z</time></trkpt><trkpt lat="44.249258" lon="-1.196907"><ele>18.908</ele><time>2022-11-15T02:26:50Z</time></trkpt><trkpt lat="44.264847" lon="-1.195769"><ele>21.909</ele><time>2022-11-15T02:27:30Z</time></trkpt><trkpt lat="44.269634" lon="-1.190195"><ele>23.713</ele><time>2022-11-15T02:28:10Z</time></trkpt><trkpt lat="44.272557" lon="-1.181657"><ele>28.613</ele><time>2022-11-15T02:28:50Z</time></trkpt><trkpt lat="44.276800" lon="-1.181743"><ele>31.730</ele><time>2022-11-15T02:29:30Z</time></trkpt><trkpt lat="44.294312" lon="-1.170029"><ele>38.449</ele><time>2022-11-15T02:30:10Z</time></trkpt><trkpt lat="44.297626" lon="-1.174698"><ele>30.024</ele><time>2022-11-15T02:30:50Z</time></trkpt><trkpt lat="44.305404" lon="-1.177387"><ele>28.316</ele><time>2022-11-15T02:31:30Z</time></trkpt><trkpt lat="44.307527" lon="-1.181489"><ele>24.739</ele><time>2022-11-15T02:32:10Z</time></trkpt><trkpt lat="44.311912" lon="-1.179284"><ele>27.945</ele><time>2022-11-15T02:32:50Z</time></trkpt><trkpt lat="44.322841" lon="-1.166238"><ele>23.256</ele><time>2022-11-15T02:33:30Z</time></trkpt><trkpt lat="44.329866" lon="-1.144859"><ele>24.284</ele><time>2022-11-15T02:34:10Z</time></trkpt><trkpt lat="44.329194" lon="-1.142955"><ele>22.607</ele><time>2022-11-15T02:34:50Z</time></trkpt><trkpt lat="44.326654" lon="-1.143439"><ele>26.017</ele><time>2022-11-15T02:35:30Z</time></trkpt><trkpt lat="44.325159" lon="-1.134756"><ele>34.909</ele><time>2022-11-15T02:36:10Z</time></trkpt><trkpt lat="44.322620" lon="-1.132428"><ele>29.779</ele><time>2022-11-15T02:36:50Z</time></trkpt><trkpt lat="44.321389" lon="-1.116038"><ele>33.599</ele><time>2022-11-15T02:37:30Z</time></trkpt><trkpt lat="44.322670" lon="-1.104604"><ele>35.886</ele><time>2022-11-15T02:38:10Z</time></trkpt><trkpt lat="44.331411" lon="-1.087128"><ele>32.715</ele><time>2022-11-15T02:38:50Z</time></trkpt><trkpt lat="44.336086" lon="-1.084259"><ele>26.140</ele><time>2022-11-15T02:39:30Z</time></trkpt><trkpt lat="44.342158" lon="-1.074641"><ele>25.252</ele><time>2022-11-15T02:40:10Z</time></trkpt><trkpt lat="44.345317" lon="-1.073760"><ele>29.715</ele><time>2022-11-15T02:40:50Z</time></trkpt><trkpt lat="44.345998" lon="-1.075114"><ele>32.451</ele><time>2022-11-15T02:41:30Z</time></trkpt><trkpt lat="44.346509" lon="-1.073737"><ele>30.842</ele><time>2022-11-15T02:42:10Z</time></trkpt><trkpt lat="44.346509" lon="-1.073737"><ele>30.816</ele><time>2022-11-15T02:42:50Z</time></trkpt><trkpt lat="44.349808" lon="-1.082593"><ele>28.076</ele><time>2022-11-15T02:43:30Z</time></trkpt><trkpt lat="44.358933" lon="-1.089505"><ele>35.113</ele><time>2022-11-15T02:44:10Z</time></trkpt><trkpt lat="44.383533" lon="-1.148942"><ele>27.209</ele><time>2022-11-15T02:44:50Z</time></trkpt><trkpt lat="44.399347" lon="-1.174267"><ele>25.172</ele><time>2022-11-15T02:45:30Z</time></trkpt><trkpt lat="44.406902" lon="-1.170857"><ele>24.752</ele><time>2022-11-15T02:46:10Z</time></trkpt><trkpt lat="44.410058" lon="-1.173600"><ele>24.029</ele><time>2022-11-15T02:46:50Z</time></trkpt><trkpt lat="44.411247" lon="-1.172771"><ele>25.048</ele><time>2022-11-15T02:47:30Z</time></trkpt><trkpt lat="44.411680" lon="-1.174738"><ele>20.963</ele><time>2022-11-15T02:48:10Z</time></trkpt><trkpt lat="44.424394" lon="-1.175195"><ele>19.715</ele><time>2022-11-15T02:48:50Z</time></trkpt><trkpt lat="44.424243" lon="-1.168933"><ele>27.698</ele><time>2022-11-15T02:49:30Z</time></trkpt><trkpt lat="44.429388" lon="-1.167850"><ele>24.274</ele><time>2022-11-15T02:50:10Z</time></trkpt><trkpt lat="44.430242" lon="-1.176497"><ele>27.775</ele><time>2022-11-15T02:50:50Z</time></trkpt><trkpt lat="44.434424" lon="-1.187029"><ele>28.322</ele><time>2022-11-15T02:51:30Z</time></trkpt><trkpt lat="44.441172" lon="-1.195205"><ele>36.662</ele><time>2022-11-15T02:52:10Z</time></trkpt><trkpt lat="44.444335" lon="-1.196062"><ele>31.508</ele><time>2022-11-15T02:52:50Z</time></trkpt><trkpt lat="44.445900" lon="-1.194482"><ele>28.009</ele><time>2022-11-15T02:53:30Z</time></trkpt><trkpt lat="44.456464" lon="-1.201367"><ele>31.073</ele><time>2022-11-15T02:54:10Z</time></trkpt><trkpt lat="44.458765" lon="-1.208403"><ele>48.923</ele><time>2022-11-15T02:54:50Z</time></trkpt><trkpt lat="44.457756" lon="-1.212002"><ele>43.740</ele><time>2022-11-15T02:55:30Z</time></trkpt><trkpt lat="44.452975" lon="-1.210622"><ele>41.349</ele><time>2022-11-15T02:56:10Z</time></trkpt><trkpt lat="44.450030" lon="-1.214590"><ele>41.724</ele><time>2022-11-15T02:56:50Z</time></trkpt><trkpt lat="44.446153" lon="-1.215447"><ele>33.946</ele><time>2022-11-15T02:57:30Z</time></trkpt><trkpt lat="44.448763" lon="-1.218687"><ele>55.979</ele><time>2022-11-15T02:58:10Z</time></trkpt><trkpt lat="44.446061" lon="-1.220674"><ele>68.625</ele><time>2022-11-15T02:58:50Z</time></trkpt><trkpt lat="44.445268" lon="-1.226159"><ele>52.556</ele><time>2022-11-15T02:59:30Z</time></trkpt><trkpt lat="44.443275" lon="-1.227992"><ele>48.433</ele><time>2022-11-15T03:00:10Z</time></trkpt><trkpt lat="44.438783" lon="-1.226477"><ele>45.423</ele><time>2022-11-15T03:00:50Z</time></trkpt><trkpt lat="44.438050" lon="-1.227800"><ele>41.015</ele><time>2022-11-15T03:01:30Z</time></trkpt><trkpt lat="44.437610" lon="-1.232923"><ele>24.609</ele><time>2022-11-15T03:02:10Z</time></trkpt><trkpt lat="44.442263" lon="-1.243009"><ele>18.814</ele><time>2022-11-15T03:02:50Z</time></trkpt><trkpt lat="44.442263" lon="-1.243009"><ele>18.844</ele><time>2022-11-15T03:03:30Z</time></trkpt><trkpt lat="44.445669" lon="-1.242499"><ele>18.021</ele><time>2022-11-15T03:04:10Z</time></trkpt><trkpt lat="44.448314" lon="-1.244864"><ele>15.510</ele><time>2022-11-15T03:04:50Z</time></trkpt><trkpt lat="44.452035" lon="-1.239265"><ele>19.735</ele><time>2022-11-15T03:05:30Z</time></trkpt><trkpt lat="44.453548" lon="-1.242414"><ele>18.077</ele><time>2022-11-15T03:06:10Z</time></trkpt><trkpt lat="44.456789" lon="-1.240635"><ele>18.340</ele><time>2022-11-15T03:06:50Z</time></trkpt><trkpt lat="44.459194" lon="-1.244770"><ele>20.026</ele><time>2022-11-15T03:07:30Z</time></trkpt><trkpt lat="44.471900" lon="-1.234814"><ele>17.637</ele><time>2022-11-15T03:08:10Z</time></trkpt><trkpt lat="44.493537" lon="-1.235497"><ele>19.236</ele><time>2022-11-15T03:08:50Z</time></trkpt><trkpt lat="44.494915" lon="-1.232824"><ele>22.217</ele><time>2022-11-15T03:09:30Z</time></trkpt><trkpt lat="44.498131" lon="-1.232412"><ele>17.718</ele><time>2022-11-15T03:10:10Z</time></trkpt><trkpt lat="44.516964" lon="-1.234957"><ele>13.909</ele><time>2022-11-15T03:10:50Z</time></trkpt><trkpt lat="44.518317" lon="-1.243059"><ele>12.924</ele><time>2022-11-15T03:11:30Z</time></trkpt><trkpt lat="44.526645" lon="-1.245827"><ele>19.064</ele><time>2022-11-15T03:12:10Z</time></trkpt><trkpt lat="44.528089" lon="-1.249664"><ele>9.041</ele><time>2022-11-15T03:12:50Z</time></trkpt><trkpt lat="44.546334" lon="-1.248122"><ele>11.860</ele><time>2022-11-15T03:13:30Z</time></trkpt><trkpt lat="44.549169" lon="-1.243801"><ele>20.365</ele><time>2022-11-15T03:14:10Z</time></trkpt><trkpt lat="44.550607" lon="-1.246288"><ele>14.097</ele><time>2022-11-15T03:14:50Z</time></trkpt><trkpt lat="44.553172" lon="-1.244351"><ele>11.710</ele><time>2022-11-15T03:15:30Z</time></trkpt><trkpt lat="44.554130" lon="-1.241090"><ele>19.596</ele><time>2022-11-15T03:16:10Z</time></trkpt><trkpt lat="44.551885" lon="-1.237724"><ele>17.517</ele><time>2022-11-15T03:16:50Z</time></trkpt><trkpt lat="44.555797" lon="-1.235204"><ele>33.969</ele><time>2022-11-15T03:17:30Z</time></trkpt><trkpt lat="44.559684" lon="-1.235414"><ele>32.604</ele><time>2022-11-15T03:18:10Z</time></trkpt><trkpt lat="44.570709" lon="-1.225990"><ele>48.024</ele><time>2022-11-15T03:18:50Z</time></trkpt><trkpt lat="44.572685" lon="-1.218659"><ele>48.509</ele><time>2022-11-15T03:19:30Z</time></trkpt><trkpt lat="44.575751" lon="-1.213984"><ele>66.997</ele><time>2022-11-15T03:20:10Z</time></trkpt><trkpt lat="44.582919" lon="-1.211112"><ele>58.587</ele><time>2022-11-15T03:20:50Z</time></trkpt><trkpt lat="44.591324" lon="-1.196405"><ele>31.214</ele><time>2022-11-15T03:21:30Z</time></trkpt><trkpt lat="44.598242" lon="-1.196127"><ele>36.153</ele><time>2022-11-15T03:22:10Z</time></trkpt><trkpt lat="44.598383" lon="-1.189706"><ele>34.978</ele><time>2022-11-15T03:22:50Z</time></trkpt><trkpt lat="44.600663" lon="-1.183786"><ele>40.290</ele><time>2022-11-15T03:23:30Z</time></trkpt><trkpt lat="44.600609" lon="-1.175903"><ele>23.643</ele><time>2022-11-15T03:24:10Z</time></trkpt><trkpt lat="44.603507" lon="-1.170162"><ele>26.379</ele><time>2022-11-15T03:24:50Z</time></trkpt><trkpt lat="44.603963" lon="-1.165243"><ele>27.810</ele><time>2022-11-15T03:25:30Z</time></trkpt><trkpt lat="44.609956" lon="-1.156260"><ele>18.888</ele><time>2022-11-15T03:26:10Z</time></trkpt><trkpt lat="44.609956" lon="-1.156260"><ele>18.824</ele><time>2022-11-15T03:26:50Z</time></trkpt><trkpt lat="44.613152" lon="-1.153837"><ele>19.326</ele><time>2022-11-15T03:27:30Z</time></trkpt><trkpt lat="44.613131" lon="-1.147802"><ele>16.209</ele><time>2022-11-15T03:28:10Z</time></trkpt><trkpt lat="44.617055" lon="-1.138119"><ele>8.129</ele><time>2022-11-15T03:28:50Z</time></trkpt><trkpt lat="44.618362" lon="-1.129798"><ele>8.149</ele><time>2022-11-15T03:29:30Z</time></trkpt><trkpt lat="44.620585" lon="-1.131070"><ele>6.076</ele><time>2022-11-15T03:30:10Z</time></trkpt><trkpt lat="44.616786" lon="-1.107185"><ele>14.875</ele><time>2022-11-15T03:30:50Z</time></trkpt><trkpt lat="44.624850" lon="-1.106633"><ele>9.510</ele><time>2022-11-15T03:31:30Z</time></trkpt><trkpt lat="44.621918" lon="-1.100113"><ele>12.852</ele><time>2022-11-15T03:32:10Z</time></trkpt><trkpt lat="44.619493" lon="-1.085547"><ele>11.275</ele><time>2022-11-15T03:32:50Z</time></trkpt><trkpt lat="44.620355" lon="-1.073113"><ele>11.651</ele><time>2022-11-15T03:33:30Z</time></trkpt><trkpt lat="44.622483" lon="-1.072443"><ele>8.022</ele><time>2022-11-15T03:34:10Z</time></trkpt><trkpt lat="44.625613" lon="-1.062717"><ele>9.288</ele><time>2022-11-15T03:34:50Z</time></trkpt><trkpt lat="44.623103" lon="-1.041121"><ele>9.024</ele><time>2022-11-15T03:35:30Z</time></trkpt><trkpt lat="44.625107" lon="-1.040018"><ele>12.026</ele><time>2022-11-15T03:36:10Z</time></trkpt><trkpt lat="44.626158" lon="-1.033758"><ele>10.009</ele><time>2022-11-15T03:36:50Z</time></trkpt><trkpt lat="44.623162" lon="-1.024871"><ele>8.859</ele><time>2022-11-15T03:37:30Z</time></trkpt><trkpt lat="44.631953" lon="-1.020370"><ele>6.059</ele><time>2022-11-15T03:38:10Z</time></trkpt><trkpt lat="44.634697" lon="-1.015865"><ele>4.166</ele><time>2022-11-15T03:38:50Z</time></trkpt><trkpt lat="44.633131" lon="-1.008721"><ele>12.095</ele><time>2022-11-15T03:39:30Z</time></trkpt><trkpt lat="44.627795" lon="-1.010562"><ele>13.030</ele><time>2022-11-15T03:40:10Z</time></trkpt><trkpt lat="44.625794" lon="-1.003708"><ele>9.282</ele><time>2022-11-15T03:40:50Z</time></trkpt><trkpt lat="44.626792" lon="-0.992980"><ele>6.445</ele><time>2022-11-15T03:41:30Z</time></trkpt><trkpt lat="44.642337" lon="-0.959347"><ele>16.441</ele><time>2022-11-15T03:42:10Z</time></trkpt><trkpt lat="44.651218" lon="-0.965920"><ele>17.352</ele><time>2022-11-15T03:42:50Z</time></trkpt><trkpt lat="44.683270" lon="-1.011249"><ele>7.011</ele><time>2022-11-15T03:43:30Z</time></trkpt><trkpt lat="44.701101" lon="-1.024353"><ele>9.621</ele><time>2022-11-15T03:44:10Z</time></trkpt><trkpt lat="44.717268" lon="-1.061331"><ele>7.103</ele><time>2022-11-15T03:44:50Z</time></trkpt><trkpt lat="44.728971" lon="-1.071814"><ele>11.809</ele><time>2022-11-15T03:45:30Z</time></trkpt><trkpt lat="44.742441" lon="-1.097748"><ele>5.052</ele><time>2022-11-15T03:46:10Z</time></trkpt><trkpt lat="44.756666" lon="-1.114404"><ele>10.082</ele><time>2022-11-15T03:46:50Z</time></trkpt><trkpt lat="44.770330" lon="-1.134815"><ele>3.429</ele><time>2022-11-15T03:47:30Z</time></trkpt><trkpt lat="44.774493" lon="-1.137234"><ele>9.868</ele><time>2022-11-15T03:48:10Z</time></trkpt><trkpt lat="44.779504" lon="-1.136634"><ele>8.323</ele><time>2022-11-15T03:48:50Z</time></trkpt><trkpt lat="44.779504" lon="-1.136634"><ele>8.345</ele><time>2022-11-15T03:49:30Z</time></trkpt><trkpt lat="44.781822" lon="-1.142580"><ele>12.148</ele><time>2022-11-15T03:50:10Z</time></trkpt><trkpt lat="44.782760" lon="-1.152227"><ele>4.024</ele><time>2022-11-15T03:50:50Z</time></trkpt><trkpt lat="44.781334" lon="-1.161528"><ele>5.945</ele><time>2022-11-15T03:51:30Z</time></trkpt><trkpt lat="44.777262" lon="-1.168820"><ele>12.794</ele><time>2022-11-15T03:52:10Z</time></trkpt><trkpt lat="44.779247" lon="-1.175221"><ele>6.857</ele><time>2022-11-15T03:52:50Z</time></trkpt><trkpt lat="44.788372" lon="-1.187313"><ele>16.022</ele><time>2022-11-15T03:53:30Z</time></trkpt><trkpt lat="44.783171" lon="-1.202654"><ele>10.809</ele><time>2022-11-15T03:54:10Z</time></trkpt><trkpt lat="44.778007" lon="-1.204440"><ele>21.330</ele><time>2022-11-15T03:54:50Z</time></trkpt><trkpt lat="44.776335" lon="-1.209784"><ele>14.830</ele><time>2022-11-15T03:55:30Z</time></trkpt><trkpt lat="44.777565" lon="-1.213942"><ele>19.517</ele><time>2022-11-15T03:56:10Z</time></trkpt><trkpt lat="44.784038" lon="-1.216319"><ele>12.496</ele><time>2022-11-15T03:56:50Z</time></trkpt><trkpt lat="44.786391" lon="-1.221158"><ele>10.081</ele><time>2022-11-15T03:57:30Z</time></trkpt><trkpt lat="44.786722" lon="-1.227430"><ele>9.593</ele><time>2022-11-15T03:58:10Z</time></trkpt><trkpt lat="44.789610" lon="-1.228607"><ele>13.076</ele><time>2022-11-15T03:58:50Z</time></trkpt><trkpt lat="44.791827" lon="-1.227237"><ele>6.412</ele><time>2022-11-15T03:59:30Z</time></trkpt><trkpt lat="44.792398" lon="-1.229283"><ele>9.943</ele><time>2022-11-15T04:00:10Z</time></trkpt><trkpt lat="44.796125" lon="-1.228572"><ele>9.966</ele><time>2022-11-15T04:00:50Z</time></trkpt><trkpt lat="44.797710" lon="-1.230594"><ele>10.529</ele><time>2022-11-15T04:01:30Z</time></trkpt><trkpt lat="44.804592" lon="-1.224308"><ele>11.221</ele><time>2022-11-15T04:02:10Z</time></trkpt><trkpt lat="44.810575" lon="-1.221645"><ele>13.109</ele><time>2022-11-15T04:02:50Z</time></trkpt><trkpt lat="44.816125" lon="-1.223877"><ele>12.087</ele><time>2022-11-15T04:03:30Z</time></trkpt><trkpt lat="44.826120" lon="-1.222426"><ele>15.237</ele><time>2022-11-15T04:04:10Z</time></trkpt><trkpt lat="44.831061" lon="-1.219586"><ele>10.114</ele><time>2022-11-15T04:04:50Z</time></trkpt><trkpt lat="44.837376" lon="-1.220589"><ele>7.283</ele><time>2022-11-15T04:05:30Z</time></trkpt><trkpt lat="44.843509" lon="-1.217378"><ele>11.798</ele><time>2022-11-15T04:06:10Z</time></trkpt><trkpt lat="44.849557" lon="-1.219194"><ele>7.870</ele><time>2022-11-15T04:06:50Z</time></trkpt><trkpt lat="44.856209" lon="-1.216042"><ele>9.143</ele><time>2022-11-15T04:07:30Z</time></trkpt><trkpt lat="44.863713" lon="-1.217505"><ele>9.079</ele><time>2022-11-15T04:08:10Z</time></trkpt><trkpt lat="44.881627" lon="-1.211031"><ele>12.590</ele><time>2022-11-15T04:08:50Z</time></trkpt><trkpt lat="44.885031" lon="-1.214145"><ele>9.953</ele><time>2022-11-15T04:09:30Z</time></trkpt><trkpt lat="44.896448" lon="-1.213892"><ele>5.004</ele><time>2022-11-15T04:10:10Z</time></trkpt><trkpt lat="44.908073" lon="-1.210075"><ele>12.014</ele><time>2022-11-15T04:10:50Z</time></trkpt><trkpt lat="44.911098" lon="-1.206785"><ele>19.609</ele><time>2022-11-15T04:11:30Z</time></trkpt><trkpt lat="44.919957" lon="-1.208403"><ele>9.256</ele><time>2022-11-15T04:12:10Z</time></trkpt><trkpt lat="44.937149" lon="-1.202848"><ele>14.266</ele><time>2022-11-15T04:12:50Z</time></trkpt><trkpt lat="44.949206" lon="-1.202176"><ele>16.183</ele><time>2022-11-15T04:13:30Z</time></trkpt><trkpt lat="44.956436" lon="-1.204082"><ele>9.992</ele><time>2022-11-15T04:14:10Z</time></trkpt><trkpt lat="44.960637" lon="-1.201124"><ele>14.787</ele><time>2022-11-15T04:14:50Z</time></trkpt><trkpt lat="44.970968" lon="-1.202477"><ele>5.529</ele><time>2022-11-15T04:15:30Z</time></trkpt><trkpt lat="44.977302" lon="-1.200018"><ele>10.592</ele><time>2022-11-15T04:16:10Z</time></trkpt><trkpt lat="44.979711" lon="-1.201772"><ele>13.778</ele><time>2022-11-15T04:16:50Z</time></trkpt><trkpt lat="44.991200" lon="-1.197843"><ele>11.949</ele><time>2022-11-15T04:17:30Z</time></trkpt><trkpt lat="44.990045" lon="-1.196497"><ele>21.189</ele><time>2022-11-15T04:18:10Z</time></trkpt><trkpt lat="44.992599" lon="-1.192945"><ele>17.006</ele><time>2022-11-15T04:18:50Z</time></trkpt><trkpt lat="44.992366" lon="-1.185413"><ele>18.526</ele><time>2022-11-15T04:19:30Z</time></trkpt><trkpt lat="44.996499" lon="-1.179194"><ele>23.609</ele><time>2022-11-15T04:20:10Z</time></trkpt><trkpt lat="45.003429" lon="-1.182432"><ele>19.489</ele><time>2022-11-15T04:20:50Z</time></trkpt><trkpt lat="45.003429" lon="-1.182432"><ele>19.429</ele><time>2022-11-15T04:21:30Z</time></trkpt><trkpt lat="45.002726" lon="-1.187045"><ele>14.626</ele><time>2022-11-15T04:22:10Z</time></trkpt><trkpt lat="45.007343" lon="-1.194375"><ele>9.745</ele><time>2022-11-15T04:22:50Z</time></trkpt><trkpt lat="45.016468" lon="-1.186229"><ele>20.770</ele><time>2022-11-15T04:23:30Z</time></trkpt><trkpt lat="45.024271" lon="-1.185996"><ele>21.832</ele><time>2022-11-15T04:24:10Z</time></trkpt><trkpt lat="45.029703" lon="-1.188985"><ele>15.745</ele><time>2022-11-15T04:24:50Z</time></trkpt><trkpt lat="45.036878" lon="-1.186774"><ele>20.011</ele><time>2022-11-15T04:25:30Z</time></trkpt><trkpt lat="45.037694" lon="-1.186021"><ele>18.552</ele><time>2022-11-15T04:26:10Z</time></trkpt><trkpt lat="45.030019" lon="-1.175440"><ele>16.881</ele><time>2022-11-15T04:26:50Z</time></trkpt><trkpt lat="45.028786" lon="-1.170947"><ele>34.161</ele><time>2022-11-15T04:27:30Z</time></trkpt><trkpt lat="45.031726" lon="-1.162450"><ele>35.317</ele><time>2022-11-15T04:28:10Z</time></trkpt><trkpt lat="45.029618" lon="-1.159687"><ele>31.909</ele><time>2022-11-15T04:28:50Z</time></trkpt><trkpt lat="45.030125" lon="-1.154557"><ele>27.899</ele><time>2022-11-15T04:29:30Z</time></trkpt><trkpt lat="45.032497" lon="-1.156874"><ele>24.049</ele><time>2022-11-15T04:30:10Z</time></trkpt><trkpt lat="45.036946" lon="-1.155582"><ele>32.566</ele><time>2022-11-15T04:30:50Z</time></trkpt><trkpt lat="45.041263" lon="-1.150789"><ele>38.835</ele><time>2022-11-15T04:31:30Z</time></trkpt><trkpt lat="45.047735" lon="-1.151967"><ele>42.740</ele><time>2022-11-15T04:32:10Z</time></trkpt><trkpt lat="45.050839" lon="-1.154796"><ele>38.952</ele><time>2022-11-15T04:32:50Z</time></trkpt><trkpt lat="45.055653" lon="-1.153758"><ele>44.525</ele><time>2022-11-15T04:33:30Z</time></trkpt><trkpt lat="45.057398" lon="-1.158603"><ele>44.051</ele><time>2022-11-15T04:34:10Z</time></trkpt><trkpt lat="45.063542" lon="-1.160094"><ele>61.422</ele><time>2022-11-15T04:34:50Z</time></trkpt><trkpt lat="45.067952" lon="-1.158805"><ele>42.662</ele><time>2022-11-15T04:35:30Z</time></trkpt><trkpt lat="45.068945" lon="-1.152791"><ele>49.683</ele><time>2022-11-15T04:36:10Z</time></trkpt><trkpt lat="45.071023" lon="-1.151560"><ele>42.911</ele><time>2022-11-15T04:36:50Z</time></trkpt><trkpt lat="45.072228" lon="-1.147662"><ele>25.509</ele><time>2022-11-15T04:37:30Z</time></trkpt><trkpt lat="45.073784" lon="-1.151337"><ele>35.927</ele><time>2022-11-15T04:38:10Z</time></trkpt><trkpt lat="45.078031" lon="-1.150784"><ele>38.427</ele><time>2022-11-15T04:38:50Z</time></trkpt><trkpt lat="45.077988" lon="-1.156361"><ele>36.214</ele><time>2022-11-15T04:39:30Z</time></trkpt><trkpt lat="45.081749" lon="-1.161246"><ele>53.233</ele><time>2022-11-15T04:40:10Z</time></trkpt><trkpt lat="45.082678" lon="-1.165258"><ele>37.528</ele><time>2022-11-15T04:40:50Z</time></trkpt><trkpt lat="45.080931" lon="-1.171511"><ele>32.540</ele><time>2022-11-15T04:41:30Z</time></trkpt><trkpt lat="45.082899" lon="-1.175060"><ele>17.633</ele><time>2022-11-15T04:42:10Z</time></trkpt><trkpt lat="45.101922" lon="-1.169077"><ele>15.319</ele><time>2022-11-15T04:42:50Z</time></trkpt><trkpt lat="45.105695" lon="-1.170379"><ele>17.610</ele><time>2022-11-15T04:43:30Z</time></trkpt><trkpt lat="45.108545" lon="-1.169038"><ele>15.094</ele><time>2022-11-15T04:44:10Z</time></trkpt><trkpt lat="45.113445" lon="-1.171449"><ele>28.657</ele><time>2022-11-15T04:44:50Z</time></trkpt><trkpt lat="45.123042" lon="-1.166590"><ele>25.422</ele><time>2022-11-15T04:45:30Z</time></trkpt><trkpt lat="45.128113" lon="-1.167767"><ele>16.109</ele><time>2022-11-15T04:46:10Z</time></trkpt><trkpt lat="45.131792" lon="-1.163217"><ele>23.380</ele><time>2022-11-15T04:46:50Z</time></trkpt><trkpt lat="45.137162" lon="-1.166057"><ele>16.320</ele><time>2022-11-15T04:47:30Z</time></trkpt><trkpt lat="45.143701" lon="-1.162884"><ele>22.087</ele><time>2022-11-15T04:48:10Z</time></trkpt><trkpt lat="45.146355" lon="-1.165038"><ele>18.336</ele><time>2022-11-15T04:48:50Z</time></trkpt><trkpt lat="45.149328" lon="-1.164676"><ele>19.391</ele><time>2022-11-15T04:49:30Z</time></trkpt><trkpt lat="45.156017" lon="-1.159844"><ele>19.383</ele><time>2022-11-15T04:50:10Z</time></trkpt><trkpt lat="45.159891" lon="-1.161493"><ele>16.826</ele><time>2022-11-15T04:50:50Z</time></trkpt><trkpt lat="45.166513" lon="-1.160622"><ele>16.122</ele><time>2022-11-15T04:51:30Z</time></trkpt><trkpt lat="45.176895" lon="-1.151660"><ele>20.833</ele><time>2022-11-15T04:52:10Z</time></trkpt><trkpt lat="45.192000" lon="-1.157234"><ele>17.443</ele><time>2022-11-15T04:52:50Z</time></trkpt><trkpt lat="45.198042" lon="-1.152722"><ele>21.064</ele><time>2022-11-15T04:53:30Z</time></trkpt><trkpt lat="45.212611" lon="-1.158694"><ele>14.810</ele><time>2022-11-15T04:54:10Z</time></trkpt><trkpt lat="45.219035" lon="-1.157623"><ele>20.809</ele><time>2022-11-15T04:54:50Z</time></trkpt><trkpt lat="45.219035" lon="-1.157623"><ele>20.825</ele><time>2022-11-15T04:55:30Z</time></trkpt><trkpt lat="45.228267" lon="-1.156314"><ele>16.365</ele><time>2022-11-15T04:56:10Z</time></trkpt><trkpt lat="45.299033" lon="-1.131707"><ele>17.022</ele><time>2022-11-15T04:56:50Z</time></trkpt><trkpt lat="45.306600" lon="-1.137548"><ele>14.821</ele><time>2022-11-15T04:57:30Z</time></trkpt><trkpt lat="45.323417" lon="-1.133087"><ele>18.426</ele><time>2022-11-15T04:58:10Z</time></trkpt><trkpt lat="45.325886" lon="-1.148461"><ele>15.538</ele><time>2022-11-15T04:58:50Z</time></trkpt><trkpt lat="45.369369" lon="-1.144622"><ele>13.051</ele><time>2022-11-15T04:59:30Z</time></trkpt><trkpt lat="45.371479" lon="-1.151641"><ele>16.177</ele><time>2022-11-15T05:00:10Z</time></trkpt><trkpt lat="45.376115" lon="-1.155412"><ele>8.538</ele><time>2022-11-15T05:00:50Z</time></trkpt><trkpt lat="45.376373" lon="-1.158057"><ele>8.184</ele><time>2022-11-15T05:01:30Z</time></trkpt><trkpt lat="45.378280" lon="-1.158339"><ele>8.807</ele><time>2022-11-15T05:02:10Z</time></trkpt><trkpt lat="45.378280" lon="-1.158339"><ele>8.817</ele><time>2022-11-15T05:02:50Z</time></trkpt><trkpt lat="45.380140" lon="-1.158374"><ele>7.809</ele><time>2022-11-15T05:03:30Z</time></trkpt><trkpt lat="45.380666" lon="-1.152042"><ele>13.019</ele><time>2022-11-15T05:04:10Z</time></trkpt><trkpt lat="45.388554" lon="-1.152752"><ele>12.889</ele><time>2022-11-15T05:04:50Z</time></trkpt><trkpt lat="45.384077" lon="-1.131864"><ele>10.896</ele><time>2022-11-15T05:05:30Z</time></trkpt><trkpt lat="45.430147" lon="-1.128989"><ele>14.215</ele><time>2022-11-15T05:06:10Z</time></trkpt><trkpt lat="45.432465" lon="-1.139279"><ele>18.210</ele><time>2022-11-15T05:06:50Z</time></trkpt><trkpt lat="45.437190" lon="-1.136637"><ele>15.942</ele><time>2022-11-15T05:07:30Z</time></trkpt><trkpt lat="45.437708" lon="-1.138972"><ele>15.535</ele><time>2022-11-15T05:08:10Z</time></trkpt><trkpt lat="45.465921" lon="-1.135300"><ele>12.761</ele><time>2022-11-15T05:08:50Z</time></trkpt><trkpt lat="45.467580" lon="-1.153025"><ele>10.342</ele><time>2022-11-15T05:09:30Z</time></trkpt><trkpt lat="45.483952" lon="-1.143337"><ele>13.877</ele><time>2022-11-15T05:10:10Z</time></trkpt><trkpt lat="45.484994" lon="-1.148842"><ele>11.061</ele><time>2022-11-15T05:10:50Z</time></trkpt><trkpt lat="45.505578" lon="-1.132364"><ele>11.527</ele><time>2022-11-15T05:11:30Z</time></trkpt><trkpt lat="45.506978" lon="-1.134620"><ele>11.009</ele><time>2022-11-15T05:12:10Z</time></trkpt><trkpt lat="45.512896" lon="-1.130733"><ele>9.158</ele><time>2022-11-15T05:12:50Z</time></trkpt><trkpt lat="45.517892" lon="-1.124738"><ele>11.338</ele><time>2022-11-15T05:13:30Z</time></trkpt><trkpt lat="45.519775" lon="-1.119296"><ele>11.575</ele><time>2022-11-15T05:14:10Z</time></trkpt><trkpt lat="45.528024" lon="-1.112209"><ele>8.014</ele><time>2022-11-15T05:14:50Z</time></trkpt><trkpt lat="45.528961" lon="-1.108888"><ele>14.319</ele><time>2022-11-15T05:15:30Z</time></trkpt><trkpt lat="45.534080" lon="-1.104113"><ele>14.211</ele><time>2022-11-15T05:16:10Z</time></trkpt><trkpt lat="45.535888" lon="-1.105860"><ele>7.864</ele><time>2022-11-15T05:16:50Z</time></trkpt><trkpt lat="45.538733" lon="-1.099760"><ele>17.230</ele><time>2022-11-15T05:17:30Z</time></trkpt><trkpt lat="45.551316" lon="-1.091730"><ele>12.331</ele><time>2022-11-15T05:18:10Z</time></trkpt><trkpt lat="45.555545" lon="-1.085112"><ele>8.656</ele><time>2022-11-15T05:18:50Z</time></trkpt><trkpt lat="45.563901" lon="-1.077180"><ele>11.259</ele><time>2022-11-15T05:19:30Z</time></trkpt><trkpt lat="45.567527" lon="-1.069434"><ele>7.014</ele><time>2022-11-15T05:20:10Z</time></trkpt><trkpt lat="45.566255" lon="-1.066933"><ele>5.509</ele><time>2022-11-15T05:20:50Z</time></trkpt><trkpt lat="45.568748" lon="-1.063307"><ele>2.046</ele><time>2022-11-15T05:21:30Z</time></trkpt><trkpt lat="45.618056" lon="-1.031709"><ele>4.786</ele><time>2022-11-15T05:22:10Z</time></trkpt><trkpt lat="45.619972" lon="-1.034585"><ele>16.873</ele><time>2022-11-15T05:22:50Z</time></trkpt><trkpt lat="45.617977" lon="-1.036663"><ele>6.092</ele><time>2022-11-15T05:23:30Z</time></trkpt><trkpt lat="45.617580" lon="-1.041067"><ele>8.897</ele><time>2022-11-15T05:24:10Z</time></trkpt><trkpt lat="45.620620" lon="-1.042419"><ele>9.979</ele><time>2022-11-15T05:24:50Z</time></trkpt><trkpt lat="45.620557" lon="-1.045666"><ele>8.082</ele><time>2022-11-15T05:25:30Z</time></trkpt><trkpt lat="45.622078" lon="-1.047010"><ele>9.718</ele><time>2022-11-15T05:26:10Z</time></trkpt><trkpt lat="45.620634" lon="-1.049038"><ele>7.239</ele><time>2022-11-15T05:26:50Z</time></trkpt><trkpt lat="45.622300" lon="-1.051858"><ele>5.292</ele><time>2022-11-15T05:27:30Z</time></trkpt><trkpt lat="45.625754" lon="-1.050068"><ele>16.273</ele><time>2022-11-15T05:28:10Z</time></trkpt><trkpt lat="45.628486" lon="-1.053339"><ele>10.720</ele><time>2022-11-15T05:28:50Z</time></trkpt><trkpt lat="45.629466" lon="-1.059657"><ele>20.209</ele><time>2022-11-15T05:29:30Z</time></trkpt><trkpt lat="45.639122" lon="-1.074144"><ele>12.450</ele><time>2022-11-15T05:30:10Z</time></trkpt><trkpt lat="45.638998" lon="-1.080061"><ele>11.270</ele><time>2022-11-15T05:30:50Z</time></trkpt><trkpt lat="45.636754" lon="-1.081502"><ele>5.197</ele><time>2022-11-15T05:31:30Z</time></trkpt><trkpt lat="45.638853" lon="-1.087274"><ele>5.346</ele><time>2022-11-15T05:32:10Z</time></trkpt><trkpt lat="45.641283" lon="-1.085410"><ele>11.081</ele><time>2022-11-15T05:32:50Z</time></trkpt><trkpt lat="45.644449" lon="-1.091583"><ele>15.773</ele><time>2022-11-15T05:33:30Z</time></trkpt><trkpt lat="45.648354" lon="-1.115540"><ele>12.236</ele><time>2022-11-15T05:34:10Z</time></trkpt><trkpt lat="45.651656" lon="-1.123616"><ele>6.932</ele><time>2022-11-15T05:34:50Z</time></trkpt><trkpt lat="45.653045" lon="-1.121881"><ele>17.053</ele><time>2022-11-15T05:35:30Z</time></trkpt><trkpt lat="45.658423" lon="-1.126448"><ele>15.641</ele><time>2022-11-15T05:36:10Z</time></trkpt><trkpt lat="45.659532" lon="-1.132613"><ele>14.281</ele><time>2022-11-15T05:36:50Z</time></trkpt><trkpt lat="45.665391" lon="-1.142966"><ele>8.809</ele><time>2022-11-15T05:37:30Z</time></trkpt><trkpt lat="45.676715" lon="-1.152793"><ele>7.009</ele><time>2022-11-15T05:38:10Z</time></trkpt><trkpt lat="45.679984" lon="-1.157785"><ele>8.135</ele><time>2022-11-15T05:38:50Z</time></trkpt><trkpt lat="45.675959" lon="-1.161792"><ele>5.775</ele><time>2022-11-15T05:39:30Z</time></trkpt><trkpt lat="45.675035" lon="-1.165543"><ele>5.322</ele><time>2022-11-15T05:40:10Z</time></trkpt><trkpt lat="45.681710" lon="-1.179129"><ele>2.391</ele><time>2022-11-15T05:40:50Z</time></trkpt><trkpt lat="45.683250" lon="-1.181355"><ele>3.486</ele><time>2022-11-15T05:41:30Z</time></trkpt><trkpt lat="45.685119" lon="-1.180815"><ele>8.148</ele><time>2022-11-15T05:42:10Z</time></trkpt><trkpt lat="45.688612" lon="-1.190176"><ele>6.451</ele><time>2022-11-15T05:42:50Z</time></trkpt><trkpt lat="45.690853" lon="-1.189805"><ele>4.727</ele><time>2022-11-15T05:43:30Z</time></trkpt><trkpt lat="45.694304" lon="-1.193747"><ele>6.348</ele><time>2022-11-15T05:44:10Z</time></trkpt><trkpt lat="45.697436" lon="-1.207690"><ele>7.315</ele><time>2022-11-15T05:44:50Z</time></trkpt><trkpt lat="45.697469" lon="-1.232066"><ele>6.965</ele><time>2022-11-15T05:45:30Z</time></trkpt><trkpt lat="45.708135" lon="-1.233822"><ele>3.511</ele><time>2022-11-15T05:46:10Z</time></trkpt><trkpt lat="45.727280" lon="-1.231658"><ele>9.009</ele><time>2022-11-15T05:46:50Z</time></trkpt><trkpt lat="45.730083" lon="-1.230005"><ele>11.052</ele><time>2022-11-15T05:47:30Z</time></trkpt><trkpt lat="45.732738" lon="-1.224852"><ele>7.952</ele><time>2022-11-15T05:48:10Z</time></trkpt><trkpt lat="45.736996" lon="-1.224572"><ele>8.449</ele><time>2022-11-15T05:48:50Z</time></trkpt><trkpt lat="45.739928" lon="-1.224539"><ele>13.298</ele><time>2022-11-15T05:49:30Z</time></trkpt><trkpt lat="45.741143" lon="-1.227736"><ele>15.043</ele><time>2022-11-15T05:50:10Z</time></trkpt><trkpt lat="45.768700" lon="-1.229936"><ele>6.085</ele><time>2022-11-15T05:50:50Z</time></trkpt><trkpt lat="45.783202" lon="-1.226769"><ele>8.988</ele><time>2022-11-15T05:51:30Z</time></trkpt><trkpt lat="45.790027" lon="-1.215239"><ele>8.154</ele><time>2022-11-15T05:52:10Z</time></trkpt><trkpt lat="45.790907" lon="-1.211001"><ele>7.275</ele><time>2022-11-15T05:52:50Z</time></trkpt><trkpt lat="45.788757" lon="-1.189078"><ele>14.581</ele><time>2022-11-15T05:53:30Z</time></trkpt><trkpt lat="45.786383" lon="-1.183562"><ele>13.061</ele><time>2022-11-15T05:54:10Z</time></trkpt><trkpt lat="45.793118" lon="-1.163370"><ele>15.717</ele><time>2022-11-15T05:54:50Z</time></trkpt><trkpt lat="45.792347" lon="-1.160785"><ele>13.209</ele><time>2022-11-15T05:55:30Z</time></trkpt><trkpt lat="45.785908" lon="-1.156897"><ele>4.779</ele><time>2022-11-15T05:56:10Z</time></trkpt><trkpt lat="45.793077" lon="-1.149780"><ele>6.269</ele><time>2022-11-15T05:56:50Z</time></trkpt><trkpt lat="45.802907" lon="-1.132573"><ele>2.786</ele><time>2022-11-15T05:57:30Z</time></trkpt><trkpt lat="45.813663" lon="-1.133366"><ele>4.335</ele><time>2022-11-15T05:58:10Z</time></trkpt><trkpt lat="45.819782" lon="-1.130987"><ele>0.680</ele><time>2022-11-15T05:58:50Z</time></trkpt><trkpt lat="45.829946" lon="-1.120101"><ele>7.962</ele><time>2022-11-15T05:59:30Z</time></trkpt><trkpt lat="45.829946" lon="-1.120101"><ele>7.925</ele><time>2022-11-15T06:00:10Z</time></trkpt><trkpt lat="45.830858" lon="-1.120788"><ele>8.931</ele><time>2022-11-15T06:00:50Z</time></trkpt><trkpt lat="45.831737" lon="-1.113514"><ele>9.072</ele><time>2022-11-15T06:01:30Z</time></trkpt><trkpt lat="45.837419" lon="-1.112493"><ele>16.478</ele><time>2022-11-15T06:02:10Z</time></trkpt><trkpt lat="45.834013" lon="-1.098037"><ele>20.033</ele><time>2022-11-15T06:02:50Z</time></trkpt><trkpt lat="45.831778" lon="-1.097032"><ele>17.726</ele><time>2022-11-15T06:03:30Z</time></trkpt><trkpt lat="45.825779" lon="-1.086655"><ele>4.009</ele><time>2022-11-15T06:04:10Z</time></trkpt><trkpt lat="45.829603" lon="-1.084888"><ele>6.048</ele><time>2022-11-15T06:04:50Z</time></trkpt><trkpt lat="45.834483" lon="-1.072118"><ele>0.638</ele><time>2022-11-15T06:05:30Z</time></trkpt><trkpt lat="45.827829" lon="-1.061711"><ele>3.055</ele><time>2022-11-15T06:06:10Z</time></trkpt><trkpt lat="45.834738" lon="-1.058012"><ele>0.084</ele><time>2022-11-15T06:06:50Z</time></trkpt><trkpt lat="45.833669" lon="-1.053895"><ele>1.239</ele><time>2022-11-15T06:07:30Z</time></trkpt><trkpt lat="45.841281" lon="-1.043773"><ele>1.041</ele><time>2022-11-15T06:08:10Z</time></trkpt><trkpt lat="45.839315" lon="-1.040030"><ele>-0.534</ele><time>2022-11-15T06:08:50Z</time></trkpt><trkpt lat="45.841293" lon="-1.036640"><ele>0.060</ele><time>2022-11-15T06:09:30Z</time></trkpt><trkpt lat="45.846097" lon="-1.033921"><ele>1.051</ele><time>2022-11-15T06:10:10Z</time></trkpt><trkpt lat="45.839376" lon="-1.024683"><ele>0.132</ele><time>2022-11-15T06:10:50Z</time></trkpt><trkpt lat="45.845738" lon="-1.014916"><ele>1.192</ele><time>2022-11-15T06:11:30Z</time></trkpt><trkpt lat="45.856407" lon="-1.003938"><ele>2.011</ele><time>2022-11-15T06:12:10Z</time></trkpt><trkpt lat="45.874153" lon="-0.968104"><ele>7.009</ele><time>2022-11-15T06:12:50Z</time></trkpt><trkpt lat="45.878050" lon="-0.947485"><ele>2.964</ele><time>2022-11-15T06:13:30Z</time></trkpt><trkpt lat="45.888868" lon="-0.936408"><ele>5.174</ele><time>2022-11-15T06:14:10Z</time></trkpt><trkpt lat="45.900315" lon="-0.913646"><ele>11.031</ele><time>2022-11-15T06:14:50Z</time></trkpt><trkpt lat="45.902437" lon="-0.900263"><ele>19.370</ele><time>2022-11-15T06:15:30Z</time></trkpt><trkpt lat="45.901685" lon="-0.884145"><ele>7.925</ele><time>2022-11-15T06:16:10Z</time></trkpt><trkpt lat="45.905528" lon="-0.872793"><ele>7.197</ele><time>2022-11-15T06:16:50Z</time></trkpt><trkpt lat="45.914004" lon="-0.860872"><ele>1.160</ele><time>2022-11-15T06:17:30Z</time></trkpt><trkpt lat="45.919337" lon="-0.858895"><ele>3.036</ele><time>2022-11-15T06:18:10Z</time></trkpt><trkpt lat="45.922393" lon="-0.859975"><ele>2.667</ele><time>2022-11-15T06:18:50Z</time></trkpt><trkpt lat="45.925439" lon="-0.857372"><ele>9.571</ele><time>2022-11-15T06:19:30Z</time></trkpt><trkpt lat="45.931109" lon="-0.867421"><ele>13.041</ele><time>2022-11-15T06:20:10Z</time></trkpt><trkpt lat="45.928803" lon="-0.868680"><ele>4.315</ele><time>2022-11-15T06:20:50Z</time></trkpt><trkpt lat="45.939542" lon="-0.879695"><ele>7.309</ele><time>2022-11-15T06:21:30Z</time></trkpt><trkpt lat="45.939105" lon="-0.882714"><ele>3.848</ele><time>2022-11-15T06:22:10Z</time></trkpt><trkpt lat="45.945871" lon="-0.898842"><ele>20.078</ele><time>2022-11-15T06:22:50Z</time></trkpt><trkpt lat="45.950489" lon="-0.928497"><ele>4.025</ele><time>2022-11-15T06:23:30Z</time></trkpt><trkpt lat="45.949326" lon="-0.948151"><ele>4.814</ele><time>2022-11-15T06:24:10Z</time></trkpt><trkpt lat="45.949326" lon="-0.948151"><ele>4.859</ele><time>2022-11-15T06:24:50Z</time></trkpt><trkpt lat="45.946426" lon="-0.954263"><ele>4.081</ele><time>2022-11-15T06:25:30Z</time></trkpt><trkpt lat="45.936514" lon="-0.956407"><ele>0.594</ele><time>2022-11-15T06:26:10Z</time></trkpt><trkpt lat="45.929171" lon="-0.950608"><ele>0.270</ele><time>2022-11-15T06:26:50Z</time></trkpt><trkpt lat="45.924473" lon="-0.949315"><ele>1.651</ele><time>2022-11-15T06:27:30Z</time></trkpt><trkpt lat="45.918288" lon="-0.956790"><ele>2.964</ele><time>2022-11-15T06:28:10Z</time></trkpt><trkpt lat="45.916929" lon="-0.961084"><ele>-0.606</ele><time>2022-11-15T06:28:50Z</time></trkpt><trkpt lat="45.917635" lon="-0.964106"><ele>3.416</ele><time>2022-11-15T06:29:30Z</time></trkpt><trkpt lat="45.919304" lon="-0.965105"><ele>2.609</ele><time>2022-11-15T06:30:10Z</time></trkpt><trkpt lat="45.920158" lon="-0.971096"><ele>2.267</ele><time>2022-11-15T06:30:50Z</time></trkpt><trkpt lat="45.924176" lon="-0.975016"><ele>-0.977</ele><time>2022-11-15T06:31:30Z</time></trkpt><trkpt lat="45.920983" lon="-0.979682"><ele>1.114</ele><time>2022-11-15T06:32:10Z</time></trkpt><trkpt lat="45.921508" lon="-0.986024"><ele>2.253</ele><time>2022-11-15T06:32:50Z</time></trkpt><trkpt lat="45.927786" lon="-0.995149"><ele>0.058</ele><time>2022-11-15T06:33:30Z</time></trkpt><trkpt lat="45.931293" lon="-1.004332"><ele>3.250</ele><time>2022-11-15T06:34:10Z</time></trkpt><trkpt lat="45.937268" lon="-1.006188"><ele>-0.883</ele><time>2022-11-15T06:34:50Z</time></trkpt><trkpt lat="45.945760" lon="-0.997565"><ele>2.859</ele><time>2022-11-15T06:35:30Z</time></trkpt><trkpt lat="45.950114" lon="-0.995826"><ele>0.620</ele><time>2022-11-15T06:36:10Z</time></trkpt><trkpt lat="45.947487" lon="-0.988242"><ele>1.769</ele><time>2022-11-15T06:36:50Z</time></trkpt><trkpt lat="45.953231" lon="-0.985918"><ele>3.904</ele><time>2022-11-15T06:37:30Z</time></trkpt><trkpt lat="45.957448" lon="-0.980109"><ele>4.424</ele><time>2022-11-15T06:38:10Z</time></trkpt><trkpt lat="45.958598" lon="-0.979959"><ele>5.109</ele><time>2022-11-15T06:38:50Z</time></trkpt><trkpt lat="45.960618" lon="-0.986350"><ele>5.947</ele><time>2022-11-15T06:39:30Z</time></trkpt><trkpt lat="45.968516" lon="-0.983056"><ele>14.747</ele><time>2022-11-15T06:40:10Z</time></trkpt><trkpt lat="45.979884" lon="-1.000226"><ele>2.724</ele><time>2022-11-15T06:40:50Z</time></trkpt><trkpt lat="45.980918" lon="-1.014049"><ele>2.643</ele><time>2022-11-15T06:41:30Z</time></trkpt><trkpt lat="45.986842" lon="-1.031543"><ele>11.698</ele><time>2022-11-15T06:42:10Z</time></trkpt><trkpt lat="45.992478" lon="-1.027493"><ele>6.010</ele><time>2022-11-15T06:42:50Z</time></trkpt><trkpt lat="45.996919" lon="-1.040510"><ele>7.163</ele><time>2022-11-15T06:43:30Z</time></trkpt><trkpt lat="46.016287" lon="-1.049323"><ele>7.479</ele><time>2022-11-15T06:44:10Z</time></trkpt><trkpt lat="46.020384" lon="-1.047722"><ele>4.090</ele><time>2022-11-15T06:44:50Z</time></trkpt><trkpt lat="46.020804" lon="-1.045553"><ele>4.033</ele><time>2022-11-15T06:45:30Z</time></trkpt><trkpt lat="46.031253" lon="-1.047876"><ele>1.823</ele><time>2022-11-15T06:46:10Z</time></trkpt><trkpt lat="46.036748" lon="-1.045510"><ele>1.915</ele><time>2022-11-15T06:46:50Z</time></trkpt><trkpt lat="46.042711" lon="-1.039617"><ele>2.409</ele><time>2022-11-15T06:47:30Z</time></trkpt><trkpt lat="46.042335" lon="-1.046608"><ele>3.034</ele><time>2022-11-15T06:48:10Z</time></trkpt><trkpt lat="46.056896" lon="-1.058236"><ele>2.014</ele><time>2022-11-15T06:48:50Z</time></trkpt><trkpt lat="46.057853" lon="-1.065334"><ele>5.151</ele><time>2022-11-15T06:49:30Z</time></trkpt><trkpt lat="46.050485" lon="-1.068582"><ele>2.840</ele><time>2022-11-15T06:50:10Z</time></trkpt><trkpt lat="46.053402" lon="-1.077270"><ele>3.245</ele><time>2022-11-15T06:50:50Z</time></trkpt><trkpt lat="46.053437" lon="-1.087641"><ele>3.737</ele><time>2022-11-15T06:51:30Z</time></trkpt><trkpt lat="46.058351" lon="-1.086747"><ele>18.810</ele><time>2022-11-15T06:52:10Z</time></trkpt><trkpt lat="46.059378" lon="-1.089530"><ele>10.846</ele><time>2022-11-15T06:52:50Z</time></trkpt><trkpt lat="46.062738" lon="-1.091607"><ele>4.947</ele><time>2022-11-15T06:53:30Z</time></trkpt><trkpt lat="46.062301" lon="-1.092986"><ele>4.136</ele><time>2022-11-15T06:54:10Z</time></trkpt><trkpt lat="46.074098" lon="-1.093386"><ele>4.517</ele><time>2022-11-15T06:54:50Z</time></trkpt><trkpt lat="46.082928" lon="-1.096572"><ele>2.918</ele><time>2022-11-15T06:55:30Z</time></trkpt><trkpt lat="46.084409" lon="-1.093261"><ele>3.909</ele><time>2022-11-15T06:56:10Z</time></trkpt><trkpt lat="46.089754" lon="-1.098559"><ele>5.024</ele><time>2022-11-15T06:56:50Z</time></trkpt><trkpt lat="46.094782" lon="-1.100152"><ele>3.634</ele><time>2022-11-15T06:57:30Z</time></trkpt><trkpt lat="46.103871" lon="-1.113872"><ele>5.971</ele><time>2022-11-15T06:58:10Z</time></trkpt><trkpt lat="46.103143" lon="-1.118264"><ele>3.620</ele><time>2022-11-15T06:58:50Z</time></trkpt><trkpt lat="46.105249" lon="-1.118876"><ele>4.035</ele><time>2022-11-15T06:59:30Z</time></trkpt><trkpt lat="46.106985" lon="-1.115778"><ele>5.027</ele><time>2022-11-15T07:00:10Z</time></trkpt><trkpt lat="46.113635" lon="-1.123836"><ele>1.860</ele><time>2022-11-15T07:00:50Z</time></trkpt><trkpt lat="46.118765" lon="-1.123106"><ele>2.336</ele><time>2022-11-15T07:01:30Z</time></trkpt><trkpt lat="46.129721" lon="-1.128326"><ele>0.077</ele><time>2022-11-15T07:02:10Z</time></trkpt><trkpt lat="46.132080" lon="-1.137336"><ele>8.546</ele><time>2022-11-15T07:02:50Z</time></trkpt><trkpt lat="46.130665" lon="-1.147683"><ele>3.988</ele><time>2022-11-15T07:03:30Z</time></trkpt><trkpt lat="46.137248" lon="-1.153590"><ele>5.116</ele><time>2022-11-15T07:04:10Z</time></trkpt><trkpt lat="46.138386" lon="-1.161913"><ele>9.309</ele><time>2022-11-15T07:04:50Z</time></trkpt><trkpt lat="46.141949" lon="-1.163611"><ele>3.055</ele><time>2022-11-15T07:05:30Z</time></trkpt><trkpt lat="46.144852" lon="-1.159568"><ele>6.525</ele><time>2022-11-15T07:06:10Z</time></trkpt><trkpt lat="46.152757" lon="-1.157656"><ele>4.362</ele><time>2022-11-15T07:06:50Z</time></trkpt><trkpt lat="46.155372" lon="-1.148696"><ele>3.571</ele><time>2022-11-15T07:07:30Z</time></trkpt><trkpt lat="46.155372" lon="-1.148696"><ele>3.536</ele><time>2022-11-15T07:08:10Z</time></trkpt><trkpt lat="46.154065" lon="-1.146703"><ele>8.038</ele><time>2022-11-15T07:08:50Z</time></trkpt><trkpt lat="46.156831" lon="-1.142812"><ele>4.121</ele><time>2022-11-15T07:09:30Z</time></trkpt><trkpt lat="46.163497" lon="-1.116206"><ele>8.857</ele><time>2022-11-15T07:10:10Z</time></trkpt><trkpt lat="46.169431" lon="-1.104244"><ele>12.018</ele><time>2022-11-15T07:10:50Z</time></trkpt><trkpt lat="46.167917" lon="-1.091230"><ele>12.596</ele><time>2022-11-15T07:11:30Z</time></trkpt><trkpt lat="46.170088" lon="-1.077492"><ele>21.631</ele><time>2022-11-15T07:12:10Z</time></trkpt><trkpt lat="46.186155" lon="-1.054606"><ele>20.324</ele><time>2022-11-15T07:12:50Z</time></trkpt><trkpt lat="46.194764" lon="-1.055165"><ele>13.809</ele><time>2022-11-15T07:13:30Z</time></trkpt><trkpt lat="46.194244" lon="-1.061632"><ele>22.760</ele><time>2022-11-15T07:14:10Z</time></trkpt><trkpt lat="46.204512" lon="-1.053874"><ele>6.090</ele><time>2022-11-15T07:14:50Z</time></trkpt><trkpt lat="46.207070" lon="-1.049154"><ele>5.587</ele><time>2022-11-15T07:15:30Z</time></trkpt><trkpt lat="46.211874" lon="-1.045652"><ele>3.036</ele><time>2022-11-15T07:16:10Z</time></trkpt><trkpt lat="46.229772" lon="-1.051717"><ele>2.751</ele><time>2022-11-15T07:16:50Z</time></trkpt><trkpt lat="46.306500" lon="-1.023354"><ele>3.943</ele><time>2022-11-15T07:17:30Z</time></trkpt><trkpt lat="46.309447" lon="-1.020071"><ele>4.596</ele><time>2022-11-15T07:18:10Z</time></trkpt><trkpt lat="46.314230" lon="-1.004366"><ele>2.892</ele><time>2022-11-15T07:18:50Z</time></trkpt><trkpt lat="46.314230" lon="-1.004366"><ele>2.843</ele><time>2022-11-15T07:19:30Z</time></trkpt><trkpt lat="46.317349" lon="-1.071494"><ele>0.548</ele><time>2022-11-15T07:20:10Z</time></trkpt><trkpt lat="46.319302" lon="-1.073371"><ele>2.161</ele><time>2022-11-15T07:20:50Z</time></trkpt><trkpt lat="46.319058" lon="-1.077235"><ele>2.617</ele><time>2022-11-15T07:21:30Z</time></trkpt><trkpt lat="46.321267" lon="-1.082177"><ele>1.609</ele><time>2022-11-15T07:22:10Z</time></trkpt><trkpt lat="46.317919" lon="-1.082461"><ele>1.175</ele><time>2022-11-15T07:22:50Z</time></trkpt><trkpt lat="46.317525" lon="-1.084359"><ele>1.475</ele><time>2022-11-15T07:23:30Z</time></trkpt><trkpt lat="46.318759" lon="-1.088658"><ele>1.182</ele><time>2022-11-15T07:24:10Z</time></trkpt><trkpt lat="46.331579" lon="-1.102102"><ele>-1.431</ele><time>2022-11-15T07:24:50Z</time></trkpt><trkpt lat="46.332135" lon="-1.106271"><ele>0.216</ele><time>2022-11-15T07:25:30Z</time></trkpt><trkpt lat="46.329175" lon="-1.114576"><ele>1.528</ele><time>2022-11-15T07:26:10Z</time></trkpt><trkpt lat="46.329726" lon="-1.123023"><ele>1.971</ele><time>2022-11-15T07:26:50Z</time></trkpt><trkpt lat="46.345937" lon="-1.150588"><ele>-1.087</ele><time>2022-11-15T07:27:30Z</time></trkpt><trkpt lat="46.349443" lon="-1.151898"><ele>1.068</ele><time>2022-11-15T07:28:10Z</time></trkpt><trkpt lat="46.355101" lon="-1.165525"><ele>1.849</ele><time>2022-11-15T07:28:50Z</time></trkpt><trkpt lat="46.358359" lon="-1.166609"><ele>0.202</ele><time>2022-11-15T07:29:30Z</time></trkpt><trkpt lat="46.361091" lon="-1.172452"><ele>2.122</ele><time>2022-11-15T07:30:10Z</time></trkpt><trkpt lat="46.359739" lon="-1.216612"><ele>2.109</ele><time>2022-11-15T07:30:50Z</time></trkpt><trkpt lat="46.357857" lon="-1.216755"><ele>1.655</ele><time>2022-11-15T07:31:30Z</time></trkpt><trkpt lat="46.359273" lon="-1.218689"><ele>0.325</ele><time>2022-11-15T07:32:10Z</time></trkpt><trkpt lat="46.350856" lon="-1.247712"><ele>5.142</ele><time>2022-11-15T07:32:50Z</time></trkpt><trkpt lat="46.343555" lon="-1.247721"><ele>3.261</ele><time>2022-11-15T07:33:30Z</time></trkpt><trkpt lat="46.329138" lon="-1.242272"><ele>1.246</ele><time>2022-11-15T07:34:10Z</time></trkpt><trkpt lat="46.326123" lon="-1.245823"><ele>0.028</ele><time>2022-11-15T07:34:50Z</time></trkpt><trkpt lat="46.315282" lon="-1.244642"><ele>1.041</ele><time>2022-11-15T07:35:30Z</time></trkpt><trkpt lat="46.309690" lon="-1.243028"><ele>-0.927</ele><time>2022-11-15T07:36:10Z</time></trkpt><trkpt lat="46.305837" lon="-1.238209"><ele>1.578</ele><time>2022-11-15T07:36:50Z</time></trkpt><trkpt lat="46.303058" lon="-1.242974"><ele>2.082</ele><time>2022-11-15T07:37:30Z</time></trkpt><trkpt lat="46.303072" lon="-1.254265"><ele>5.843</ele><time>2022-11-15T07:38:10Z</time></trkpt><trkpt lat="46.297816" lon="-1.258036"><ele>0.917</ele><time>2022-11-15T07:38:50Z</time></trkpt><trkpt lat="46.297634" lon="-1.260435"><ele>1.309</ele><time>2022-11-15T07:39:30Z</time></trkpt><trkpt lat="46.309726" lon="-1.280051"><ele>2.879</ele><time>2022-11-15T07:40:10Z</time></trkpt><trkpt lat="46.313570" lon="-1.282334"><ele>2.079</ele><time>2022-11-15T07:40:50Z</time></trkpt><trkpt lat="46.319034" lon="-1.291311"><ele>4.196</ele><time>2022-11-15T07:41:30Z</time></trkpt><trkpt lat="46.327505" lon="-1.299215"><ele>3.055</ele><time>2022-11-15T07:42:10Z</time></trkpt><trkpt lat="46.332519" lon="-1.307127"><ele>2.410</ele><time>2022-11-15T07:42:50Z</time></trkpt><trkpt lat="46.332790" lon="-1.311154"><ele>0.172</ele><time>2022-11-15T07:43:30Z</time></trkpt><trkpt lat="46.335682" lon="-1.314238"><ele>5.395</ele><time>2022-11-15T07:44:10Z</time></trkpt><trkpt lat="46.332629" lon="-1.321751"><ele>3.521</ele><time>2022-11-15T07:44:50Z</time></trkpt><trkpt lat="46.336249" lon="-1.329840"><ele>2.742</ele><time>2022-11-15T07:45:30Z</time></trkpt><trkpt lat="46.336005" lon="-1.333388"><ele>3.097</ele><time>2022-11-15T07:46:10Z</time></trkpt><trkpt lat="46.343138" lon="-1.343368"><ele>3.823</ele><time>2022-11-15T07:46:50Z</time></trkpt><trkpt lat="46.347065" lon="-1.352804"><ele>7.225</ele><time>2022-11-15T07:47:30Z</time></trkpt><trkpt lat="46.349058" lon="-1.366082"><ele>2.709</ele><time>2022-11-15T07:48:10Z</time></trkpt><trkpt lat="46.352079" lon="-1.368367"><ele>0.640</ele><time>2022-11-15T07:48:50Z</time></trkpt><trkpt lat="46.354206" lon="-1.381562"><ele>2.080</ele><time>2022-11-15T07:49:30Z</time></trkpt><trkpt lat="46.353132" lon="-1.396885"><ele>0.757</ele><time>2022-11-15T07:50:10Z</time></trkpt><trkpt lat="46.353898" lon="-1.424970"><ele>2.086</ele><time>2022-11-15T07:50:50Z</time></trkpt><trkpt lat="46.351568" lon="-1.428568"><ele>2.281</ele><time>2022-11-15T07:51:30Z</time></trkpt><trkpt lat="46.351568" lon="-1.428568"><ele>2.253</ele><time>2022-11-15T07:52:10Z</time></trkpt><trkpt lat="46.357293" lon="-1.443661"><ele>2.546</ele><time>2022-11-15T07:52:50Z</time></trkpt><trkpt lat="46.364795" lon="-1.456144"><ele>2.932</ele><time>2022-11-15T07:53:30Z</time></trkpt><trkpt lat="46.373297" lon="-1.462276"><ele>8.733</ele><time>2022-11-15T07:54:10Z</time></trkpt><trkpt lat="46.373938" lon="-1.466805"><ele>14.234</ele><time>2022-11-15T07:54:50Z</time></trkpt><trkpt lat="46.377441" lon="-1.465133"><ele>15.655</ele><time>2022-11-15T07:55:30Z</time></trkpt><trkpt lat="46.382518" lon="-1.466303"><ele>13.410</ele><time>2022-11-15T07:56:10Z</time></trkpt><trkpt lat="46.385149" lon="-1.471874"><ele>8.409</ele><time>2022-11-15T07:56:50Z</time></trkpt><trkpt lat="46.384023" lon="-1.486946"><ele>11.564</ele><time>2022-11-15T07:57:30Z</time></trkpt><trkpt lat="46.386502" lon="-1.490107"><ele>9.694</ele><time>2022-11-15T07:58:10Z</time></trkpt><trkpt lat="46.389175" lon="-1.491334"><ele>11.491</ele><time>2022-11-15T07:58:50Z</time></trkpt><trkpt lat="46.391769" lon="-1.485541"><ele>17.020</ele><time>2022-11-15T07:59:30Z</time></trkpt><trkpt lat="46.395958" lon="-1.489709"><ele>10.635</ele><time>2022-11-15T08:00:10Z</time></trkpt><trkpt lat="46.400860" lon="-1.485920"><ele>10.047</ele><time>2022-11-15T08:00:50Z</time></trkpt><trkpt lat="46.403686" lon="-1.490584"><ele>10.650</ele><time>2022-11-15T08:01:30Z</time></trkpt><trkpt lat="46.404585" lon="-1.489368"><ele>10.086</ele><time>2022-11-15T08:02:10Z</time></trkpt><trkpt lat="46.407556" lon="-1.492261"><ele>14.467</ele><time>2022-11-15T08:02:50Z</time></trkpt><trkpt lat="46.403327" lon="-1.500526"><ele>19.022</ele><time>2022-11-15T08:03:30Z</time></trkpt><trkpt lat="46.406852" lon="-1.504013"><ele>17.062</ele><time>2022-11-15T08:04:10Z</time></trkpt><trkpt lat="46.410415" lon="-1.502168"><ele>18.608</ele><time>2022-11-15T08:04:50Z</time></trkpt><trkpt lat="46.410827" lon="-1.510238"><ele>25.809</ele><time>2022-11-15T08:05:30Z</time></trkpt><trkpt lat="46.413449" lon="-1.515008"><ele>18.533</ele><time>2022-11-15T08:06:10Z</time></trkpt><trkpt lat="46.412351" lon="-1.532130"><ele>11.093</ele><time>2022-11-15T08:06:50Z</time></trkpt><trkpt lat="46.409317" lon="-1.544577"><ele>3.080</ele><time>2022-11-15T08:07:30Z</time></trkpt><trkpt lat="46.411686" lon="-1.549386"><ele>6.079</ele><time>2022-11-15T08:08:10Z</time></trkpt><trkpt lat="46.414127" lon="-1.548809"><ele>6.784</ele><time>2022-11-15T08:08:50Z</time></trkpt><trkpt lat="46.415565" lon="-1.568766"><ele>10.056</ele><time>2022-11-15T08:09:30Z</time></trkpt><trkpt lat="46.417461" lon="-1.574961"><ele>11.969</ele><time>2022-11-15T08:10:10Z</time></trkpt><trkpt lat="46.420285" lon="-1.574183"><ele>12.925</ele><time>2022-11-15T08:10:50Z</time></trkpt><trkpt lat="46.420298" lon="-1.581972"><ele>11.956</ele><time>2022-11-15T08:11:30Z</time></trkpt><trkpt lat="46.418863" lon="-1.583058"><ele>11.083</ele><time>2022-11-15T08:12:10Z</time></trkpt><trkpt lat="46.418555" lon="-1.587142"><ele>12.125</ele><time>2022-11-15T08:12:50Z</time></trkpt><trkpt lat="46.419311" lon="-1.598817"><ele>15.017</ele><time>2022-11-15T08:13:30Z</time></trkpt><trkpt lat="46.421740" lon="-1.603057"><ele>6.509</ele><time>2022-11-15T08:14:10Z</time></trkpt><trkpt lat="46.423182" lon="-1.596048"><ele>12.439</ele><time>2022-11-15T08:14:50Z</time></trkpt><trkpt lat="46.427435" lon="-1.588517"><ele>14.059</ele><time>2022-11-15T08:15:30Z</time></trkpt><trkpt lat="46.433166" lon="-1.596138"><ele>-0.666</ele><time>2022-11-15T08:16:10Z</time></trkpt><trkpt lat="46.435615" lon="-1.603003"><ele>0.645</ele><time>2022-11-15T08:16:50Z</time></trkpt><trkpt lat="46.441012" lon="-1.602269"><ele>3.030</ele><time>2022-11-15T08:17:30Z</time></trkpt><trkpt lat="46.441723" lon="-1.629250"><ele>2.812</ele><time>2022-11-15T08:18:10Z</time></trkpt><trkpt lat="46.447317" lon="-1.632488"><ele>5.745</ele><time>2022-11-15T08:18:50Z</time></trkpt><trkpt lat="46.448182" lon="-1.635815"><ele>7.481</ele><time>2022-11-15T08:19:30Z</time></trkpt><trkpt lat="46.445863" lon="-1.646338"><ele>2.952</ele><time>2022-11-15T08:20:10Z</time></trkpt><trkpt lat="46.446627" lon="-1.648515"><ele>1.714</ele><time>2022-11-15T08:20:50Z</time></trkpt><trkpt lat="46.443086" lon="-1.648036"><ele>1.154</ele><time>2022-11-15T08:21:30Z</time></trkpt><trkpt lat="46.440276" lon="-1.652889"><ele>11.509</ele><time>2022-11-15T08:22:10Z</time></trkpt><trkpt lat="46.439994" lon="-1.662515"><ele>10.009</ele><time>2022-11-15T08:22:50Z</time></trkpt><trkpt lat="46.442401" lon="-1.664846"><ele>9.392</ele><time>2022-11-15T08:23:30Z</time></trkpt><trkpt lat="46.446866" lon="-1.676291"><ele>17.662</ele><time>2022-11-15T08:24:10Z</time></trkpt><trkpt lat="46.447619" lon="-1.683626"><ele>19.479</ele><time>2022-11-15T08:24:50Z</time></trkpt><trkpt lat="46.450676" lon="-1.687024"><ele>15.418</ele><time>2022-11-15T08:25:30Z</time></trkpt><trkpt lat="46.453344" lon="-1.710235"><ele>9.543</ele><time>2022-11-15T08:26:10Z</time></trkpt><trkpt lat="46.458783" lon="-1.713890"><ele>3.615</ele><time>2022-11-15T08:26:50Z</time></trkpt><trkpt lat="46.462294" lon="-1.718932"><ele>25.968</ele><time>2022-11-15T08:27:30Z</time></trkpt><trkpt lat="46.464216" lon="-1.730510"><ele>9.264</ele><time>2022-11-15T08:28:10Z</time></trkpt><trkpt lat="46.473630" lon="-1.748209"><ele>10.625</ele><time>2022-11-15T08:28:50Z</time></trkpt><trkpt lat="46.475234" lon="-1.756020"><ele>7.785</ele><time>2022-11-15T08:29:30Z</time></trkpt><trkpt lat="46.489187" lon="-1.769929"><ele>9.089</ele><time>2022-11-15T08:30:10Z</time></trkpt><trkpt lat="46.494290" lon="-1.781081"><ele>12.617</ele><time>2022-11-15T08:30:50Z</time></trkpt><trkpt lat="46.494619" lon="-1.791137"><ele>10.309</ele><time>2022-11-15T08:31:30Z</time></trkpt><trkpt lat="46.494619" lon="-1.791137"><ele>10.359</ele><time>2022-11-15T08:32:10Z</time></trkpt><trkpt lat="46.493519" lon="-1.792929"><ele>7.489</ele><time>2022-11-15T08:32:50Z</time></trkpt><trkpt lat="46.496064" lon="-1.794846"><ele>1.526</ele><time>2022-11-15T08:33:30Z</time></trkpt><trkpt lat="46.496343" lon="-1.789333"><ele>7.745</ele><time>2022-11-15T08:34:10Z</time></trkpt><trkpt lat="46.498779" lon="-1.784986"><ele>5.010</ele><time>2022-11-15T08:34:50Z</time></trkpt><trkpt lat="46.505054" lon="-1.789576"><ele>2.142</ele><time>2022-11-15T08:35:30Z</time></trkpt><trkpt lat="46.501750" lon="-1.805460"><ele>12.825</ele><time>2022-11-15T08:36:10Z</time></trkpt><trkpt lat="46.503467" lon="-1.813713"><ele>7.691</ele><time>2022-11-15T08:36:50Z</time></trkpt><trkpt lat="46.506160" lon="-1.816877"><ele>2.122</ele><time>2022-11-15T08:37:30Z</time></trkpt><trkpt lat="46.510316" lon="-1.818459"><ele>3.955</ele><time>2022-11-15T08:38:10Z</time></trkpt><trkpt lat="46.511269" lon="-1.813482"><ele>16.607</ele><time>2022-11-15T08:38:50Z</time></trkpt><trkpt lat="46.515226" lon="-1.809744"><ele>19.317</ele><time>2022-11-15T08:39:30Z</time></trkpt><trkpt lat="46.517703" lon="-1.809871"><ele>19.409</ele><time>2022-11-15T08:40:10Z</time></trkpt><trkpt lat="46.519243" lon="-1.812997"><ele>16.336</ele><time>2022-11-15T08:40:50Z</time></trkpt><trkpt lat="46.523730" lon="-1.813297"><ele>17.996</ele><time>2022-11-15T08:41:30Z</time></trkpt><trkpt lat="46.525294" lon="-1.806945"><ele>4.023</ele><time>2022-11-15T08:42:10Z</time></trkpt><trkpt lat="46.527886" lon="-1.806061"><ele>3.612</ele><time>2022-11-15T08:42:50Z</time></trkpt><trkpt lat="46.530132" lon="-1.808911"><ele>1.027</ele><time>2022-11-15T08:43:30Z</time></trkpt><trkpt lat="46.542738" lon="-1.801568"><ele>3.359</ele><time>2022-11-15T08:44:10Z</time></trkpt><trkpt lat="46.544233" lon="-1.810369"><ele>8.482</ele><time>2022-11-15T08:44:50Z</time></trkpt><trkpt lat="46.550456" lon="-1.809918"><ele>3.778</ele><time>2022-11-15T08:45:30Z</time></trkpt><trkpt lat="46.554807" lon="-1.816239"><ele>13.039</ele><time>2022-11-15T08:46:10Z</time></trkpt><trkpt lat="46.557789" lon="-1.808739"><ele>5.515</ele><time>2022-11-15T08:46:50Z</time></trkpt><trkpt lat="46.563414" lon="-1.809973"><ele>10.765</ele><time>2022-11-15T08:47:30Z</time></trkpt><trkpt lat="46.568772" lon="-1.820188"><ele>11.111</ele><time>2022-11-15T08:48:10Z</time></trkpt><trkpt lat="46.571033" lon="-1.818665"><ele>12.609</ele><time>2022-11-15T08:48:50Z</time></trkpt><trkpt lat="46.572401" lon="-1.821249"><ele>10.172</ele><time>2022-11-15T08:49:30Z</time></trkpt><trkpt lat="46.576440" lon="-1.822626"><ele>9.932</ele><time>2022-11-15T08:50:10Z</time></trkpt><trkpt lat="46.581105" lon="-1.837339"><ele>16.089</ele><time>2022-11-15T08:50:50Z</time></trkpt><trkpt lat="46.585545" lon="-1.839573"><ele>8.628</ele><time>2022-11-15T08:51:30Z</time></trkpt><trkpt lat="46.590514" lon="-1.837332"><ele>3.123</ele><time>2022-11-15T08:52:10Z</time></trkpt><trkpt lat="46.592704" lon="-1.833190"><ele>1.675</ele><time>2022-11-15T08:52:50Z</time></trkpt><trkpt lat="46.595717" lon="-1.832891"><ele>4.828</ele><time>2022-11-15T08:53:30Z</time></trkpt><trkpt lat="46.595629" lon="-1.836228"><ele>1.654</ele><time>2022-11-15T08:54:10Z</time></trkpt><trkpt lat="46.601698" lon="-1.836417"><ele>9.015</ele><time>2022-11-15T08:54:50Z</time></trkpt><trkpt lat="46.604170" lon="-1.840495"><ele>6.247</ele><time>2022-11-15T08:55:30Z</time></trkpt><trkpt lat="46.602640" lon="-1.850143"><ele>5.329</ele><time>2022-11-15T08:56:10Z</time></trkpt><trkpt lat="46.610892" lon="-1.854650"><ele>13.021</ele><time>2022-11-15T08:56:50Z</time></trkpt><trkpt lat="46.613157" lon="-1.860720"><ele>5.409</ele><time>2022-11-15T08:57:30Z</time></trkpt><trkpt lat="46.614258" lon="-1.858640"><ele>6.625</ele><time>2022-11-15T08:58:10Z</time></trkpt><trkpt lat="46.617936" lon="-1.870825"><ele>4.655</ele><time>2022-11-15T08:58:50Z</time></trkpt><trkpt lat="46.628469" lon="-1.875139"><ele>8.772</ele><time>2022-11-15T08:59:30Z</time></trkpt><trkpt lat="46.635290" lon="-1.890520"><ele>5.371</ele><time>2022-11-15T09:00:10Z</time></trkpt><trkpt lat="46.639284" lon="-1.894368"><ele>3.946</ele><time>2022-11-15T09:00:50Z</time></trkpt><trkpt lat="46.648995" lon="-1.893029"><ele>17.398</ele><time>2022-11-15T09:01:30Z</time></trkpt><trkpt lat="46.651301" lon="-1.897534"><ele>12.031</ele><time>2022-11-15T09:02:10Z</time></trkpt><trkpt lat="46.654517" lon="-1.895995"><ele>7.727</ele><time>2022-11-15T09:02:50Z</time></trkpt><trkpt lat="46.658110" lon="-1.898264"><ele>7.888</ele><time>2022-11-15T09:03:30Z</time></trkpt><trkpt lat="46.660810" lon="-1.900091"><ele>7.961</ele><time>2022-11-15T09:04:10Z</time></trkpt><trkpt lat="46.661428" lon="-1.905906"><ele>5.021</ele><time>2022-11-15T09:04:50Z</time></trkpt><trkpt lat="46.666671" lon="-1.906218"><ele>7.313</ele><time>2022-11-15T09:05:30Z</time></trkpt><trkpt lat="46.666825" lon="-1.911054"><ele>5.809</ele><time>2022-11-15T09:06:10Z</time></trkpt><trkpt lat="46.671513" lon="-1.907989"><ele>2.737</ele><time>2022-11-15T09:06:50Z</time></trkpt><trkpt lat="46.684510" lon="-1.930196"><ele>2.897</ele><time>2022-11-15T09:07:30Z</time></trkpt><trkpt lat="46.696240" lon="-1.934365"><ele>4.364</ele><time>2022-11-15T09:08:10Z</time></trkpt><trkpt lat="46.694183" lon="-1.936320"><ele>2.833</ele><time>2022-11-15T09:08:50Z</time></trkpt><trkpt lat="46.695808" lon="-1.940479"><ele>3.968</ele><time>2022-11-15T09:09:30Z</time></trkpt><trkpt lat="46.695808" lon="-1.940479"><ele>3.930</ele><time>2022-11-15T09:10:10Z</time></trkpt><trkpt lat="46.698104" lon="-1.947140"><ele>4.413</ele><time>2022-11-15T09:10:50Z</time></trkpt><trkpt lat="46.693264" lon="-1.961411"><ele>8.269</ele><time>2022-11-15T09:11:30Z</time></trkpt><trkpt lat="46.693718" lon="-1.967540"><ele>11.430</ele><time>2022-11-15T09:12:10Z</time></trkpt><trkpt lat="46.704623" lon="-1.978935"><ele>7.127</ele><time>2022-11-15T09:12:50Z</time></trkpt><trkpt lat="46.709677" lon="-1.980628"><ele>5.268</ele><time>2022-11-15T09:13:30Z</time></trkpt><trkpt lat="46.711639" lon="-1.980102"><ele>4.214</ele><time>2022-11-15T09:14:10Z</time></trkpt><trkpt lat="46.718607" lon="-1.968815"><ele>14.709</ele><time>2022-11-15T09:14:50Z</time></trkpt><trkpt lat="46.724838" lon="-1.979562"><ele>9.013</ele><time>2022-11-15T09:15:30Z</time></trkpt><trkpt lat="46.731683" lon="-1.983169"><ele>12.073</ele><time>2022-11-15T09:16:10Z</time></trkpt><trkpt lat="46.733771" lon="-1.987031"><ele>9.070</ele><time>2022-11-15T09:16:50Z</time></trkpt><trkpt lat="46.742077" lon="-1.993311"><ele>5.429</ele><time>2022-11-15T09:17:30Z</time></trkpt><trkpt lat="46.740183" lon="-2.006680"><ele>3.044</ele><time>2022-11-15T09:18:10Z</time></trkpt><trkpt lat="46.749469" lon="-2.013659"><ele>5.836</ele><time>2022-11-15T09:18:50Z</time></trkpt><trkpt lat="46.755104" lon="-2.022477"><ele>1.099</ele><time>2022-11-15T09:19:30Z</time></trkpt><trkpt lat="46.763389" lon="-2.029134"><ele>8.755</ele><time>2022-11-15T09:20:10Z</time></trkpt><trkpt lat="46.766978" lon="-2.041908"><ele>3.916</ele><time>2022-11-15T09:20:50Z</time></trkpt><trkpt lat="46.771312" lon="-2.048619"><ele>5.554</ele><time>2022-11-15T09:21:30Z</time></trkpt><trkpt lat="46.770639" lon="-2.051928"><ele>8.056</ele><time>2022-11-15T09:22:10Z</time></trkpt><trkpt lat="46.779298" lon="-2.063973"><ele>10.811</ele><time>2022-11-15T09:22:50Z</time></trkpt><trkpt lat="46.786861" lon="-2.079886"><ele>10.409</ele><time>2022-11-15T09:23:30Z</time></trkpt><trkpt lat="46.791645" lon="-2.081757"><ele>5.216</ele><time>2022-11-15T09:24:10Z</time></trkpt><trkpt lat="46.794982" lon="-2.077580"><ele>13.096</ele><time>2022-11-15T09:24:50Z</time></trkpt><trkpt lat="46.798201" lon="-2.076972"><ele>13.643</ele><time>2022-11-15T09:25:30Z</time></trkpt><trkpt lat="46.810309" lon="-2.117708"><ele>7.862</ele><time>2022-11-15T09:26:10Z</time></trkpt><trkpt lat="46.813255" lon="-2.121345"><ele>4.357</ele><time>2022-11-15T09:26:50Z</time></trkpt><trkpt lat="46.813234" lon="-2.124074"><ele>12.919</ele><time>2022-11-15T09:27:30Z</time></trkpt><trkpt lat="46.820014" lon="-2.132281"><ele>7.222</ele><time>2022-11-15T09:28:10Z</time></trkpt><trkpt lat="46.820341" lon="-2.137089"><ele>11.188</ele><time>2022-11-15T09:28:50Z</time></trkpt><trkpt lat="46.830762" lon="-2.140166"><ele>8.369</ele><time>2022-11-15T09:29:30Z</time></trkpt><trkpt lat="46.837002" lon="-2.137500"><ele>8.045</ele><time>2022-11-15T09:30:10Z</time></trkpt><trkpt lat="46.841607" lon="-2.139251"><ele>9.247</ele><time>2022-11-15T09:30:50Z</time></trkpt><trkpt lat="46.841560" lon="-2.134841"><ele>7.511</ele><time>2022-11-15T09:31:30Z</time></trkpt><trkpt lat="46.856614" lon="-2.122907"><ele>13.109</ele><time>2022-11-15T09:32:10Z</time></trkpt><trkpt lat="46.859151" lon="-2.118113"><ele>12.495</ele><time>2022-11-15T09:32:50Z</time></trkpt><trkpt lat="46.862173" lon="-2.120461"><ele>11.815</ele><time>2022-11-15T09:33:30Z</time></trkpt><trkpt lat="46.863537" lon="-2.124968"><ele>12.572</ele><time>2022-11-15T09:34:10Z</time></trkpt><trkpt lat="46.874719" lon="-2.123489"><ele>8.721</ele><time>2022-11-15T09:34:50Z</time></trkpt><trkpt lat="46.878475" lon="-2.125094"><ele>12.556</ele><time>2022-11-15T09:35:30Z</time></trkpt><trkpt lat="46.878872" lon="-2.141151"><ele>7.918</ele><time>2022-11-15T09:36:10Z</time></trkpt><trkpt lat="46.883307" lon="-2.142570"><ele>6.251</ele><time>2022-11-15T09:36:50Z</time></trkpt><trkpt lat="46.884465" lon="-2.149237"><ele>8.177</ele><time>2022-11-15T09:37:30Z</time></trkpt><trkpt lat="46.884465" lon="-2.149237"><ele>8.178</ele><time>2022-11-15T09:38:10Z</time></trkpt><trkpt lat="46.885262" lon="-2.150316"><ele>5.152</ele><time>2022-11-15T09:38:50Z</time></trkpt><trkpt lat="46.885663" lon="-2.142828"><ele>7.953</ele><time>2022-11-15T09:39:30Z</time></trkpt><trkpt lat="46.890248" lon="-2.143610"><ele>5.308</ele><time>2022-11-15T09:40:10Z</time></trkpt><trkpt lat="46.892172" lon="-2.139262"><ele>3.209</ele><time>2022-11-15T09:40:50Z</time></trkpt><trkpt lat="46.886572" lon="-2.122685"><ele>5.436</ele><time>2022-11-15T09:41:30Z</time></trkpt><trkpt lat="46.889391" lon="-2.120875"><ele>3.826</ele><time>2022-11-15T09:42:10Z</time></trkpt><trkpt lat="46.889197" lon="-2.109986"><ele>3.073</ele><time>2022-11-15T09:42:50Z</time></trkpt><trkpt lat="46.884512" lon="-2.106115"><ele>1.052</ele><time>2022-11-15T09:43:30Z</time></trkpt><trkpt lat="46.880575" lon="-2.107494"><ele>-0.977</ele><time>2022-11-15T09:44:10Z</time></trkpt><trkpt lat="46.878093" lon="-2.104500"><ele>1.059</ele><time>2022-11-15T09:44:50Z</time></trkpt><trkpt lat="46.871710" lon="-2.103223"><ele>0.052</ele><time>2022-11-15T09:45:30Z</time></trkpt><trkpt lat="46.871203" lon="-2.100827"><ele>0.078</ele><time>2022-11-15T09:46:10Z</time></trkpt><trkpt lat="46.872731" lon="-2.099031"><ele>-0.179</ele><time>2022-11-15T09:46:50Z</time></trkpt><trkpt lat="46.861299" lon="-2.074666"><ele>0.027</ele><time>2022-11-15T09:47:30Z</time></trkpt><trkpt lat="46.876969" lon="-2.020010"><ele>2.068</ele><time>2022-11-15T09:48:10Z</time></trkpt><trkpt lat="46.879254" lon="-2.019026"><ele>1.714</ele><time>2022-11-15T09:48:50Z</time></trkpt><trkpt lat="46.880244" lon="-2.025443"><ele>0.409</ele><time>2022-11-15T09:49:30Z</time></trkpt><trkpt lat="46.890025" lon="-2.024200"><ele>0.823</ele><time>2022-11-15T09:50:10Z</time></trkpt><trkpt lat="46.889547" lon="-2.030302"><ele>1.123</ele><time>2022-11-15T09:50:50Z</time></trkpt><trkpt lat="46.892138" lon="-2.035986"><ele>-0.970</ele><time>2022-11-15T09:51:30Z</time></trkpt><trkpt lat="46.895375" lon="-2.036832"><ele>0.329</ele><time>2022-11-15T09:52:10Z</time></trkpt><trkpt lat="46.903236" lon="-2.033085"><ele>2.014</ele><time>2022-11-15T09:52:50Z</time></trkpt><trkpt lat="46.904408" lon="-2.041689"><ele>2.896</ele><time>2022-11-15T09:53:30Z</time></trkpt><trkpt lat="46.912373" lon="-2.040597"><ele>7.549</ele><time>2022-11-15T09:54:10Z</time></trkpt><trkpt lat="46.913689" lon="-2.043020"><ele>7.075</ele><time>2022-11-15T09:54:50Z</time></trkpt><trkpt lat="46.915068" lon="-2.041700"><ele>6.826</ele><time>2022-11-15T09:55:30Z</time></trkpt><trkpt lat="46.919945" lon="-2.048126"><ele>2.293</ele><time>2022-11-15T09:56:10Z</time></trkpt><trkpt lat="46.918237" lon="-2.053631"><ele>0.965</ele><time>2022-11-15T09:56:50Z</time></trkpt><trkpt lat="46.919858" lon="-2.053849"><ele>-0.621</ele><time>2022-11-15T09:57:30Z</time></trkpt><trkpt lat="46.920002" lon="-2.058145"><ele>1.309</ele><time>2022-11-15T09:58:10Z</time></trkpt><trkpt lat="46.913113" lon="-2.063762"><ele>2.030</ele><time>2022-11-15T09:58:50Z</time></trkpt><trkpt lat="46.911020" lon="-2.071345"><ele>2.340</ele><time>2022-11-15T09:59:30Z</time></trkpt><trkpt lat="46.912379" lon="-2.081019"><ele>1.457</ele><time>2022-11-15T10:00:10Z</time></trkpt><trkpt lat="46.914606" lon="-2.080768"><ele>2.996</ele><time>2022-11-15T10:00:50Z</time></trkpt><trkpt lat="46.916448" lon="-2.083352"><ele>0.991</ele><time>2022-11-15T10:01:30Z</time></trkpt><trkpt lat="46.919292" lon="-2.080815"><ele>2.023</ele><time>2022-11-15T10:02:10Z</time></trkpt><trkpt lat="46.924135" lon="-2.080661"><ele>0.726</ele><time>2022-11-15T10:02:50Z</time></trkpt><trkpt lat="46.926053" lon="-2.079282"><ele>0.292</ele><time>2022-11-15T10:03:30Z</time></trkpt><trkpt lat="46.926199" lon="-2.075350"><ele>3.753</ele><time>2022-11-15T10:04:10Z</time></trkpt><trkpt lat="46.936039" lon="-2.070991"><ele>3.519</ele><time>2022-11-15T10:04:50Z</time></trkpt><trkpt lat="46.940702" lon="-2.052233"><ele>2.009</ele><time>2022-11-15T10:05:30Z</time></trkpt><trkpt lat="46.946017" lon="-2.044945"><ele>2.019</ele><time>2022-11-15T10:06:10Z</time></trkpt><trkpt lat="46.948126" lon="-2.043310"><ele>2.209</ele><time>2022-11-15T10:06:50Z</time></trkpt><trkpt lat="46.949608" lon="-2.047589"><ele>2.692</ele><time>2022-11-15T10:07:30Z</time></trkpt><trkpt lat="46.957047" lon="-2.042412"><ele>1.432</ele><time>2022-11-15T10:08:10Z</time></trkpt><trkpt lat="46.966669" lon="-2.043984"><ele>-0.379</ele><time>2022-11-15T10:08:50Z</time></trkpt><trkpt lat="46.967986" lon="-2.043002"><ele>0.818</ele><time>2022-11-15T10:09:30Z</time></trkpt><trkpt lat="46.969210" lon="-2.033451"><ele>0.273</ele><time>2022-11-15T10:10:10Z</time></trkpt><trkpt lat="46.969210" lon="-2.033451"><ele>0.295</ele><time>2022-11-15T10:10:50Z</time></trkpt><trkpt lat="46.977822" lon="-2.034877"><ele>2.098</ele><time>2022-11-15T10:11:30Z</time></trkpt><trkpt lat="46.981919" lon="-2.030584"><ele>1.174</ele><time>2022-11-15T10:12:10Z</time></trkpt><trkpt lat="46.984736" lon="-2.031447"><ele>2.075</ele><time>2022-11-15T10:12:50Z</time></trkpt><trkpt lat="46.985863" lon="-2.029081"><ele>0.759</ele><time>2022-11-15T10:13:30Z</time></trkpt><trkpt lat="46.988671" lon="-2.031516"><ele>0.503</ele><time>2022-11-15T10:14:10Z</time></trkpt><trkpt lat="46.990472" lon="-2.029809"><ele>1.523</ele><time>2022-11-15T10:14:50Z</time></trkpt><trkpt lat="46.997206" lon="-2.037987"><ele>0.009</ele><time>2022-11-15T10:15:30Z</time></trkpt><trkpt lat="46.997181" lon="-2.026627"><ele>3.076</ele><time>2022-11-15T10:16:10Z</time></trkpt><trkpt lat="46.997935" lon="-2.028985"><ele>1.076</ele><time>2022-11-15T10:16:50Z</time></trkpt><trkpt lat="47.006685" lon="-2.025654"><ele>1.023</ele><time>2022-11-15T10:17:30Z</time></trkpt><trkpt lat="47.009058" lon="-2.027344"><ele>0.772</ele><time>2022-11-15T10:18:10Z</time></trkpt><trkpt lat="47.011912" lon="-2.017173"><ele>0.987</ele><time>2022-11-15T10:18:50Z</time></trkpt><trkpt lat="47.016615" lon="-2.009877"><ele>2.119</ele><time>2022-11-15T10:19:30Z</time></trkpt><trkpt lat="47.013933" lon="-2.003096"><ele>0.872</ele><time>2022-11-15T10:20:10Z</time></trkpt><trkpt lat="47.013454" lon="-1.986956"><ele>0.538</ele><time>2022-11-15T10:20:50Z</time></trkpt><trkpt lat="47.015998" lon="-1.986835"><ele>-0.499</ele><time>2022-11-15T10:21:30Z</time></trkpt><trkpt lat="47.021698" lon="-1.976131"><ele>-1.071</ele><time>2022-11-15T10:22:10Z</time></trkpt><trkpt lat="47.026831" lon="-1.975624"><ele>0.041</ele><time>2022-11-15T10:22:50Z</time></trkpt><trkpt lat="47.028309" lon="-1.970994"><ele>1.515</ele><time>2022-11-15T10:23:30Z</time></trkpt><trkpt lat="47.034175" lon="-1.970422"><ele>-0.009</ele><time>2022-11-15T10:24:10Z</time></trkpt><trkpt lat="47.029212" lon="-1.972815"><ele>0.818</ele><time>2022-11-15T10:24:50Z</time></trkpt><trkpt lat="47.029600" lon="-1.978946"><ele>0.668</ele><time>2022-11-15T10:25:30Z</time></trkpt><trkpt lat="47.043404" lon="-1.990524"><ele>6.015</ele><time>2022-11-15T10:26:10Z</time></trkpt><trkpt lat="47.050774" lon="-1.990535"><ele>1.044</ele><time>2022-11-15T10:26:50Z</time></trkpt><trkpt lat="47.060784" lon="-2.002373"><ele>1.659</ele><time>2022-11-15T10:27:30Z</time></trkpt><trkpt lat="47.063531" lon="-2.000801"><ele>5.521</ele><time>2022-11-15T10:28:10Z</time></trkpt><trkpt lat="47.064004" lon="-1.998220"><ele>8.244</ele><time>2022-11-15T10:28:50Z</time></trkpt><trkpt lat="47.075889" lon="-1.993119"><ele>27.270</ele><time>2022-11-15T10:29:30Z</time></trkpt><trkpt lat="47.080386" lon="-2.008127"><ele>33.851</ele><time>2022-11-15T10:30:10Z</time></trkpt><trkpt lat="47.085916" lon="-2.016862"><ele>31.231</ele><time>2022-11-15T10:30:50Z</time></trkpt><trkpt lat="47.083304" lon="-2.015437"><ele>31.561</ele><time>2022-11-15T10:31:30Z</time></trkpt><trkpt lat="47.080355" lon="-2.018682"><ele>23.807</ele><time>2022-11-15T10:32:10Z</time></trkpt><trkpt lat="47.083794" lon="-2.027221"><ele>27.709</ele><time>2022-11-15T10:32:50Z</time></trkpt><trkpt lat="47.083992" lon="-2.037181"><ele>22.084</ele><time>2022-11-15T10:33:30Z</time></trkpt><trkpt lat="47.085086" lon="-2.039900"><ele>22.924</ele><time>2022-11-15T10:34:10Z</time></trkpt><trkpt lat="47.088379" lon="-2.035714"><ele>39.251</ele><time>2022-11-15T10:34:50Z</time></trkpt><trkpt lat="47.091098" lon="-2.043595"><ele>38.040</ele><time>2022-11-15T10:35:30Z</time></trkpt><trkpt lat="47.093552" lon="-2.040822"><ele>36.625</ele><time>2022-11-15T10:36:10Z</time></trkpt><trkpt lat="47.096266" lon="-2.044796"><ele>33.067</ele><time>2022-11-15T10:36:50Z</time></trkpt><trkpt lat="47.095793" lon="-2.052807"><ele>21.790</ele><time>2022-11-15T10:37:30Z</time></trkpt><trkpt lat="47.104929" lon="-2.069159"><ele>33.396</ele><time>2022-11-15T10:38:10Z</time></trkpt><trkpt lat="47.103968" lon="-2.079115"><ele>24.227</ele><time>2022-11-15T10:38:50Z</time></trkpt><trkpt lat="47.106966" lon="-2.084791"><ele>30.527</ele><time>2022-11-15T10:39:30Z</time></trkpt><trkpt lat="47.110450" lon="-2.098421"><ele>30.868</ele><time>2022-11-15T10:40:10Z</time></trkpt><trkpt lat="47.107353" lon="-2.105842"><ele>6.814</ele><time>2022-11-15T10:40:50Z</time></trkpt><trkpt lat="47.109467" lon="-2.107357"><ele>6.209</ele><time>2022-11-15T10:41:30Z</time></trkpt><trkpt lat="47.113950" lon="-2.102388"><ele>6.973</ele><time>2022-11-15T10:42:10Z</time></trkpt><trkpt lat="47.114567" lon="-2.098598"><ele>2.663</ele><time>2022-11-15T10:42:50Z</time></trkpt><trkpt lat="47.114567" lon="-2.098598"><ele>2.630</ele><time>2022-11-15T10:43:30Z</time></trkpt><trkpt lat="47.114546" lon="-2.106096"><ele>13.479</ele><time>2022-11-15T10:44:10Z</time></trkpt><trkpt lat="47.112593" lon="-2.107422"><ele>11.684</ele><time>2022-11-15T10:44:50Z</time></trkpt><trkpt lat="47.110535" lon="-2.115359"><ele>13.816</ele><time>2022-11-15T10:45:30Z</time></trkpt><trkpt lat="47.110450" lon="-2.121780"><ele>11.789</ele><time>2022-11-15T10:46:10Z</time></trkpt><trkpt lat="47.112858" lon="-2.130406"><ele>20.375</ele><time>2022-11-15T10:46:50Z</time></trkpt><trkpt lat="47.112338" lon="-2.144350"><ele>7.716</ele><time>2022-11-15T10:47:30Z</time></trkpt><trkpt lat="47.116247" lon="-2.148308"><ele>16.099</ele><time>2022-11-15T10:48:10Z</time></trkpt><trkpt lat="47.116054" lon="-2.155807"><ele>23.107</ele><time>2022-11-15T10:48:50Z</time></trkpt><trkpt lat="47.118092" lon="-2.158715"><ele>21.027</ele><time>2022-11-15T10:49:30Z</time></trkpt><trkpt lat="47.119048" lon="-2.168321"><ele>9.909</ele><time>2022-11-15T10:50:10Z</time></trkpt><trkpt lat="47.120512" lon="-2.167145"><ele>17.860</ele><time>2022-11-15T10:50:50Z</time></trkpt><trkpt lat="47.121671" lon="-2.172610"><ele>20.610</ele><time>2022-11-15T10:51:30Z</time></trkpt><trkpt lat="47.128751" lon="-2.168849"><ele>30.467</ele><time>2022-11-15T10:52:10Z</time></trkpt><trkpt lat="47.129933" lon="-2.171286"><ele>27.476</ele><time>2022-11-15T10:52:50Z</time></trkpt><trkpt lat="47.130289" lon="-2.173706"><ele>28.441</ele><time>2022-11-15T10:53:30Z</time></trkpt><trkpt lat="47.127962" lon="-2.174659"><ele>26.213</ele><time>2022-11-15T10:54:10Z</time></trkpt><trkpt lat="47.129583" lon="-2.178167"><ele>30.036</ele><time>2022-11-15T10:54:50Z</time></trkpt><trkpt lat="47.128224" lon="-2.181781"><ele>28.842</ele><time>2022-11-15T10:55:30Z</time></trkpt><trkpt lat="47.129777" lon="-2.182655"><ele>29.923</ele><time>2022-11-15T10:56:10Z</time></trkpt><trkpt lat="47.129325" lon="-2.188998"><ele>34.861</ele><time>2022-11-15T10:56:50Z</time></trkpt><trkpt lat="47.131204" lon="-2.189846"><ele>34.721</ele><time>2022-11-15T10:57:30Z</time></trkpt><trkpt lat="47.131041" lon="-2.192333"><ele>34.513</ele><time>2022-11-15T10:58:10Z</time></trkpt><trkpt lat="47.125566" lon="-2.194326"><ele>17.009</ele><time>2022-11-15T10:58:50Z</time></trkpt><trkpt lat="47.124419" lon="-2.214600"><ele>10.597</ele><time>2022-11-15T10:59:30Z</time></trkpt><trkpt lat="47.125696" lon="-2.220447"><ele>3.867</ele><time>2022-11-15T11:00:10Z</time></trkpt><trkpt lat="47.128021" lon="-2.220899"><ele>7.134</ele><time>2022-11-15T11:00:50Z</time></trkpt><trkpt lat="47.131248" lon="-2.226923"><ele>7.683</ele><time>2022-11-15T11:01:30Z</time></trkpt><trkpt lat="47.131684" lon="-2.236514"><ele>14.178</ele><time>2022-11-15T11:02:10Z</time></trkpt><trkpt lat="47.133841" lon="-2.239387"><ele>11.850</ele><time>2022-11-15T11:02:50Z</time></trkpt><trkpt lat="47.132548" lon="-2.243888"><ele>10.233</ele><time>2022-11-15T11:03:30Z</time></trkpt><trkpt lat="47.135100" lon="-2.245177"><ele>5.849</ele><time>2022-11-15T11:04:10Z</time></trkpt><trkpt lat="47.135708" lon="-2.234690"><ele>14.910</ele><time>2022-11-15T11:04:50Z</time></trkpt><trkpt lat="47.139515" lon="-2.236083"><ele>4.715</ele><time>2022-11-15T11:05:30Z</time></trkpt><trkpt lat="47.141464" lon="-2.233588"><ele>6.865</ele><time>2022-11-15T11:06:10Z</time></trkpt><trkpt lat="47.139400" lon="-2.229292"><ele>12.711</ele><time>2022-11-15T11:06:50Z</time></trkpt><trkpt lat="47.139686" lon="-2.226112"><ele>12.009</ele><time>2022-11-15T11:07:30Z</time></trkpt><trkpt lat="47.144771" lon="-2.228555"><ele>3.262</ele><time>2022-11-15T11:08:10Z</time></trkpt><trkpt lat="47.149623" lon="-2.223816"><ele>5.322</ele><time>2022-11-15T11:08:50Z</time></trkpt><trkpt lat="47.152168" lon="-2.224713"><ele>4.079</ele><time>2022-11-15T11:09:30Z</time></trkpt><trkpt lat="47.153254" lon="-2.222376"><ele>2.628</ele><time>2022-11-15T11:10:10Z</time></trkpt><trkpt lat="47.152534" lon="-2.216740"><ele>5.213</ele><time>2022-11-15T11:10:50Z</time></trkpt><trkpt lat="47.155033" lon="-2.213261"><ele>4.085</ele><time>2022-11-15T11:11:30Z</time></trkpt><trkpt lat="47.157875" lon="-2.197785"><ele>10.098</ele><time>2022-11-15T11:12:10Z</time></trkpt><trkpt lat="47.155221" lon="-2.174769"><ele>9.094</ele><time>2022-11-15T11:12:50Z</time></trkpt><trkpt lat="47.157964" lon="-2.175082"><ele>5.935</ele><time>2022-11-15T11:13:30Z</time></trkpt><trkpt lat="47.165531" lon="-2.167204"><ele>9.155</ele><time>2022-11-15T11:14:10Z</time></trkpt><trkpt lat="47.176021" lon="-2.163857"><ele>5.707</ele><time>2022-11-15T11:14:50Z</time></trkpt><trkpt lat="47.176068" lon="-2.156655"><ele>21.817</ele><time>2022-11-15T11:15:30Z</time></trkpt><trkpt lat="47.181052" lon="-2.151001"><ele>27.209</ele><time>2022-11-15T11:16:10Z</time></trkpt><trkpt lat="47.181331" lon="-2.148677"><ele>28.846</ele><time>2022-11-15T11:16:50Z</time></trkpt><trkpt lat="47.182572" lon="-2.148410"><ele>28.866</ele><time>2022-11-15T11:17:30Z</time></trkpt><trkpt lat="47.182845" lon="-2.150680"><ele>27.163</ele><time>2022-11-15T11:18:10Z</time></trkpt><trkpt lat="47.193245" lon="-2.147428"><ele>30.472</ele><time>2022-11-15T11:18:50Z</time></trkpt><trkpt lat="47.194221" lon="-2.150253"><ele>23.937</ele><time>2022-11-15T11:19:30Z</time></trkpt><trkpt lat="47.196881" lon="-2.149883"><ele>19.019</ele><time>2022-11-15T11:20:10Z</time></trkpt><trkpt lat="47.197280" lon="-2.152910"><ele>22.222</ele><time>2022-11-15T11:20:50Z</time></trkpt><trkpt lat="47.202760" lon="-2.152232"><ele>21.148</ele><time>2022-11-15T11:21:30Z</time></trkpt><trkpt lat="47.204706" lon="-2.155063"><ele>10.859</ele><time>2022-11-15T11:22:10Z</time></trkpt><trkpt lat="47.211567" lon="-2.157500"><ele>5.115</ele><time>2022-11-15T11:22:50Z</time></trkpt><trkpt lat="47.218560" lon="-2.162389"><ele>14.265</ele><time>2022-11-15T11:23:30Z</time></trkpt><trkpt lat="47.231789" lon="-2.178995"><ele>5.411</ele><time>2022-11-15T11:24:10Z</time></trkpt><trkpt lat="47.238784" lon="-2.169246"><ele>5.309</ele><time>2022-11-15T11:24:50Z</time></trkpt><trkpt lat="47.239483" lon="-2.171307"><ele>1.632</ele><time>2022-11-15T11:25:30Z</time></trkpt><trkpt lat="47.268049" lon="-2.168488"><ele>4.542</ele><time>2022-11-15T11:26:10Z</time></trkpt><trkpt lat="47.268049" lon="-2.168488"><ele>4.559</ele><time>2022-11-15T11:26:50Z</time></trkpt><trkpt lat="47.267085" lon="-2.161728"><ele>3.928</ele><time>2022-11-15T11:27:30Z</time></trkpt><trkpt lat="47.269064" lon="-2.160145"><ele>2.443</ele><time>2022-11-15T11:28:10Z</time></trkpt><trkpt lat="47.269834" lon="-2.152887"><ele>1.665</ele><time>2022-11-15T11:28:50Z</time></trkpt><trkpt lat="47.268592" lon="-2.150159"><ele>3.048</ele><time>2022-11-15T11:29:30Z</time></trkpt><trkpt lat="47.270506" lon="-2.140466"><ele>2.974</ele><time>2022-11-15T11:30:10Z</time></trkpt><trkpt lat="47.274250" lon="-2.133005"><ele>-1.025</ele><time>2022-11-15T11:30:50Z</time></trkpt><trkpt lat="47.275292" lon="-2.110808"><ele>-0.043</ele><time>2022-11-15T11:31:30Z</time></trkpt><trkpt lat="47.278654" lon="-2.098516"><ele>1.864</ele><time>2022-11-15T11:32:10Z</time></trkpt><trkpt lat="47.281094" lon="-2.076649"><ele>5.110</ele><time>2022-11-15T11:32:50Z</time></trkpt><trkpt lat="47.281441" lon="-2.063584"><ele>2.709</ele><time>2022-11-15T11:33:30Z</time></trkpt><trkpt lat="47.277690" lon="-2.061881"><ele>7.145</ele><time>2022-11-15T11:34:10Z</time></trkpt><trkpt lat="47.277507" lon="-2.059297"><ele>6.065</ele><time>2022-11-15T11:34:50Z</time></trkpt><trkpt lat="47.288926" lon="-2.039652"><ele>8.292</ele><time>2022-11-15T11:35:30Z</time></trkpt><trkpt lat="47.289965" lon="-2.029171"><ele>2.581</ele><time>2022-11-15T11:36:10Z</time></trkpt><trkpt lat="47.285956" lon="-2.017332"><ele>5.346</ele><time>2022-11-15T11:36:50Z</time></trkpt><trkpt lat="47.279313" lon="-2.014866"><ele>2.068</ele><time>2022-11-15T11:37:30Z</time></trkpt><trkpt lat="47.277515" lon="-2.009640"><ele>6.141</ele><time>2022-11-15T11:38:10Z</time></trkpt><trkpt lat="47.279567" lon="-2.006813"><ele>5.047</ele><time>2022-11-15T11:38:50Z</time></trkpt><trkpt lat="47.276695" lon="-2.004438"><ele>5.958</ele><time>2022-11-15T11:39:30Z</time></trkpt><trkpt lat="47.275739" lon="-1.999514"><ele>3.674</ele><time>2022-11-15T11:40:10Z</time></trkpt><trkpt lat="47.275950" lon="-1.989209"><ele>1.656</ele><time>2022-11-15T11:40:50Z</time></trkpt><trkpt lat="47.274054" lon="-1.984735"><ele>4.721</ele><time>2022-11-15T11:41:30Z</time></trkpt><trkpt lat="47.274355" lon="-1.979378"><ele>6.709</ele><time>2022-11-15T11:42:10Z</time></trkpt><trkpt lat="47.264836" lon="-1.952988"><ele>5.228</ele><time>2022-11-15T11:42:50Z</time></trkpt><trkpt lat="47.264705" lon="-1.950865"><ele>6.158</ele><time>2022-11-15T11:43:30Z</time></trkpt><trkpt lat="47.267297" lon="-1.948542"><ele>2.575</ele><time>2022-11-15T11:44:10Z</time></trkpt><trkpt lat="47.261717" lon="-1.921204"><ele>0.534</ele><time>2022-11-15T11:44:50Z</time></trkpt><trkpt lat="47.250365" lon="-1.900466"><ele>0.119</ele><time>2022-11-15T11:45:30Z</time></trkpt><trkpt lat="47.243429" lon="-1.882918"><ele>0.041</ele><time>2022-11-15T11:46:10Z</time></trkpt><trkpt lat="47.208973" lon="-1.813444"><ele>4.014</ele><time>2022-11-15T11:46:50Z</time></trkpt><trkpt lat="47.206771" lon="-1.796164"><ele>3.040</ele><time>2022-11-15T11:47:30Z</time></trkpt><trkpt lat="47.208265" lon="-1.786299"><ele>3.991</ele><time>2022-11-15T11:48:10Z</time></trkpt><trkpt lat="47.206209" lon="-1.785100"><ele>9.143</ele><time>2022-11-15T11:48:50Z</time></trkpt><trkpt lat="47.205512" lon="-1.769581"><ele>5.664</ele><time>2022-11-15T11:49:30Z</time></trkpt><trkpt lat="47.202969" lon="-1.755203"><ele>5.410</ele><time>2022-11-15T11:50:10Z</time></trkpt><trkpt lat="47.202969" lon="-1.755203"><ele>5.409</ele><time>2022-11-15T11:50:50Z</time></trkpt><trkpt lat="47.199683" lon="-1.740331"><ele>15.145</ele><time>2022-11-15T11:51:30Z</time></trkpt><trkpt lat="47.200703" lon="-1.735236"><ele>6.975</ele><time>2022-11-15T11:52:10Z</time></trkpt><trkpt lat="47.198839" lon="-1.724715"><ele>8.442</ele><time>2022-11-15T11:52:50Z</time></trkpt><trkpt lat="47.199682" lon="-1.723797"><ele>4.641</ele><time>2022-11-15T11:53:30Z</time></trkpt><trkpt lat="47.197882" lon="-1.720228"><ele>13.526</ele><time>2022-11-15T11:54:10Z</time></trkpt><trkpt lat="47.196136" lon="-1.720025"><ele>7.278</ele><time>2022-11-15T11:54:50Z</time></trkpt><trkpt lat="47.195060" lon="-1.714353"><ele>15.461</ele><time>2022-11-15T11:55:30Z</time></trkpt><trkpt lat="47.196016" lon="-1.713780"><ele>20.117</ele><time>2022-11-15T11:56:10Z</time></trkpt><trkpt lat="47.194901" lon="-1.710884"><ele>23.838</ele><time>2022-11-15T11:56:50Z</time></trkpt><trkpt lat="47.197269" lon="-1.709139"><ele>23.673</ele><time>2022-11-15T11:57:30Z</time></trkpt><trkpt lat="47.196252" lon="-1.697228"><ele>7.085</ele><time>2022-11-15T11:58:10Z</time></trkpt><trkpt lat="47.194858" lon="-1.694058"><ele>5.713</ele><time>2022-11-15T11:58:50Z</time></trkpt><trkpt lat="47.192823" lon="-1.694682"><ele>11.809</ele><time>2022-11-15T11:59:30Z</time></trkpt><trkpt lat="47.194105" lon="-1.692872"><ele>17.898</ele><time>2022-11-15T12:00:10Z</time></trkpt><trkpt lat="47.188938" lon="-1.677120"><ele>33.798</ele><time>2022-11-15T12:00:50Z</time></trkpt><trkpt lat="47.185237" lon="-1.674200"><ele>39.565</ele><time>2022-11-15T12:01:30Z</time></trkpt><trkpt lat="47.179949" lon="-1.677415"><ele>33.084</ele><time>2022-11-15T12:02:10Z</time></trkpt><trkpt lat="47.174583" lon="-1.665901"><ele>32.569</ele><time>2022-11-15T12:02:50Z</time></trkpt><trkpt lat="47.182700" lon="-1.657124"><ele>35.061</ele><time>2022-11-15T12:03:30Z</time></trkpt><trkpt lat="47.180467" lon="-1.652708"><ele>32.014</ele><time>2022-11-15T12:04:10Z</time></trkpt><trkpt lat="47.178682" lon="-1.652899"><ele>33.990</ele><time>2022-11-15T12:04:50Z</time></trkpt><trkpt lat="47.179781" lon="-1.644753"><ele>28.951</ele><time>2022-11-15T12:05:30Z</time></trkpt><trkpt lat="47.177827" lon="-1.636630"><ele>12.751</ele><time>2022-11-15T12:06:10Z</time></trkpt><trkpt lat="47.180012" lon="-1.635694"><ele>3.501</ele><time>2022-11-15T12:06:50Z</time></trkpt><trkpt lat="47.179609" lon="-1.632977"><ele>7.111</ele><time>2022-11-15T12:07:30Z</time></trkpt><trkpt lat="47.181791" lon="-1.630965"><ele>2.809</ele><time>2022-11-15T12:08:10Z</time></trkpt><trkpt lat="47.181260" lon="-1.624146"><ele>6.386</ele><time>2022-11-15T12:08:50Z</time></trkpt><trkpt lat="47.180430" lon="-1.621810"><ele>8.486</ele><time>2022-11-15T12:09:30Z</time></trkpt><trkpt lat="47.176606" lon="-1.620104"><ele>25.113</ele><time>2022-11-15T12:10:10Z</time></trkpt><trkpt lat="47.176818" lon="-1.615181"><ele>13.142</ele><time>2022-11-15T12:10:50Z</time></trkpt><trkpt lat="47.173838" lon="-1.610044"><ele>5.237</ele><time>2022-11-15T12:11:30Z</time></trkpt><trkpt lat="47.180483" lon="-1.594235"><ele>23.389</ele><time>2022-11-15T12:12:10Z</time></trkpt><trkpt lat="47.182720" lon="-1.591961"><ele>22.022</ele><time>2022-11-15T12:12:50Z</time></trkpt><trkpt lat="47.185676" lon="-1.593060"><ele>9.328</ele><time>2022-11-15T12:13:30Z</time></trkpt><trkpt lat="47.187250" lon="-1.587064"><ele>5.689</ele><time>2022-11-15T12:14:10Z</time></trkpt><trkpt lat="47.191211" lon="-1.584942"><ele>5.056</ele><time>2022-11-15T12:14:50Z</time></trkpt><trkpt lat="47.193369" lon="-1.586258"><ele>5.759</ele><time>2022-11-15T12:15:30Z</time></trkpt><trkpt lat="47.195111" lon="-1.582642"><ele>5.814</ele><time>2022-11-15T12:16:10Z</time></trkpt><trkpt lat="47.196330" lon="-1.562314"><ele>4.709</ele><time>2022-11-15T12:16:50Z</time></trkpt><trkpt lat="47.199765" lon="-1.561785"><ele>6.586</ele><time>2022-11-15T12:17:30Z</time></trkpt><trkpt lat="47.199701" lon="-1.574435"><ele>-5.436</ele><time>2022-11-15T12:18:10Z</time></trkpt><trkpt lat="47.204428" lon="-1.571175"><ele>3.753</ele><time>2022-11-15T12:18:50Z</time></trkpt><trkpt lat="47.206976" lon="-1.562154"><ele>11.032</ele><time>2022-11-15T12:19:30Z</time></trkpt><trkpt lat="47.209917" lon="-1.561756"><ele>8.017</ele><time>2022-11-15T12:20:10Z</time></trkpt><trkpt lat="47.209917" lon="-1.561756"><ele>8.089</ele><time>2022-11-15T12:20:50Z</time></trkpt><trkpt lat="47.208506" lon="-1.549513"><ele>0.032</ele><time>2022-11-15T12:21:30Z</time></trkpt><trkpt lat="47.218182" lon="-1.557171"><ele>10.188</ele><time>2022-11-15T12:22:10Z</time></trkpt><trkpt lat="47.221648" lon="-1.551305"><ele>14.789</ele><time>2022-11-15T12:22:50Z</time></trkpt><trkpt lat="47.228476" lon="-1.553124"><ele>9.059</ele><time>2022-11-15T12:23:30Z</time></trkpt><trkpt lat="47.232123" lon="-1.548995"><ele>9.903</ele><time>2022-11-15T12:24:10Z</time></trkpt><trkpt lat="47.234635" lon="-1.549005"><ele>11.423</ele><time>2022-11-15T12:24:50Z</time></trkpt><trkpt lat="47.238158" lon="-1.552050"><ele>14.909</ele><time>2022-11-15T12:25:30Z</time></trkpt><trkpt lat="47.239265" lon="-1.555569"><ele>19.426</ele><time>2022-11-15T12:26:10Z</time></trkpt><trkpt lat="47.241930" lon="-1.556259"><ele>13.046</ele><time>2022-11-15T12:26:50Z</time></trkpt><trkpt lat="47.243434" lon="-1.551988"><ele>11.763</ele><time>2022-11-15T12:27:30Z</time></trkpt><trkpt lat="47.248136" lon="-1.551921"><ele>21.742</ele><time>2022-11-15T12:28:10Z</time></trkpt><trkpt lat="47.252229" lon="-1.549238"><ele>15.077</ele><time>2022-11-15T12:28:50Z</time></trkpt><trkpt lat="47.251699" lon="-1.541007"><ele>5.619</ele><time>2022-11-15T12:29:30Z</time></trkpt><trkpt lat="47.256568" lon="-1.539485"><ele>8.952</ele><time>2022-11-15T12:30:10Z</time></trkpt><trkpt lat="47.258871" lon="-1.542953"><ele>29.548</ele><time>2022-11-15T12:30:50Z</time></trkpt><trkpt lat="47.285604" lon="-1.550461"><ele>25.249</ele><time>2022-11-15T12:31:30Z</time></trkpt><trkpt lat="47.299181" lon="-1.548163"><ele>26.476</ele><time>2022-11-15T12:32:10Z</time></trkpt><trkpt lat="47.308299" lon="-1.542730"><ele>17.490</ele><time>2022-11-15T12:32:50Z</time></trkpt><trkpt lat="47.316043" lon="-1.543289"><ele>10.019</ele><time>2022-11-15T12:33:30Z</time></trkpt><trkpt lat="47.322497" lon="-1.535096"><ele>15.009</ele><time>2022-11-15T12:34:10Z</time></trkpt><trkpt lat="47.327166" lon="-1.537010"><ele>23.298</ele><time>2022-11-15T12:34:50Z</time></trkpt><trkpt lat="47.334904" lon="-1.534826"><ele>17.788</ele><time>2022-11-15T12:35:30Z</time></trkpt><trkpt lat="47.340068" lon="-1.528905"><ele>10.295</ele><time>2022-11-15T12:36:10Z</time></trkpt><trkpt lat="47.339931" lon="-1.524763"><ele>9.094</ele><time>2022-11-15T12:36:50Z</time></trkpt><trkpt lat="47.344054" lon="-1.527112"><ele>20.659</ele><time>2022-11-15T12:37:30Z</time></trkpt><trkpt lat="47.346117" lon="-1.524298"><ele>23.051</ele><time>2022-11-15T12:38:10Z</time></trkpt><trkpt lat="47.349638" lon="-1.525420"><ele>26.644</ele><time>2022-11-15T12:38:50Z</time></trkpt><trkpt lat="47.356261" lon="-1.520994"><ele>20.980</ele><time>2022-11-15T12:39:30Z</time></trkpt><trkpt lat="47.358516" lon="-1.522741"><ele>13.971</ele><time>2022-11-15T12:40:10Z</time></trkpt><trkpt lat="47.360155" lon="-1.521247"><ele>8.984</ele><time>2022-11-15T12:40:50Z</time></trkpt><trkpt lat="47.365179" lon="-1.526138"><ele>9.307</ele><time>2022-11-15T12:41:30Z</time></trkpt><trkpt lat="47.367986" lon="-1.516898"><ele>10.217</ele><time>2022-11-15T12:42:10Z</time></trkpt><trkpt lat="47.370873" lon="-1.517146"><ele>12.109</ele><time>2022-11-15T12:42:50Z</time></trkpt><trkpt lat="47.373689" lon="-1.514126"><ele>8.849</ele><time>2022-11-15T12:43:30Z</time></trkpt><trkpt lat="47.374459" lon="-1.509188"><ele>6.199</ele><time>2022-11-15T12:44:10Z</time></trkpt><trkpt lat="47.376483" lon="-1.506711"><ele>8.096</ele><time>2022-11-15T12:44:50Z</time></trkpt><trkpt lat="47.381751" lon="-1.507816"><ele>5.775</ele><time>2022-11-15T12:45:30Z</time></trkpt><trkpt lat="47.385080" lon="-1.513490"><ele>6.850</ele><time>2022-11-15T12:46:10Z</time></trkpt><trkpt lat="47.389672" lon="-1.532251"><ele>15.152</ele><time>2022-11-15T12:46:50Z</time></trkpt><trkpt lat="47.395311" lon="-1.527764"><ele>9.925</ele><time>2022-11-15T12:47:30Z</time></trkpt><trkpt lat="47.399799" lon="-1.536724"><ele>17.681</ele><time>2022-11-15T12:48:10Z</time></trkpt><trkpt lat="47.400921" lon="-1.533249"><ele>9.482</ele><time>2022-11-15T12:48:50Z</time></trkpt><trkpt lat="47.402228" lon="-1.536448"><ele>10.079</ele><time>2022-11-15T12:49:30Z</time></trkpt><trkpt lat="47.406837" lon="-1.527799"><ele>10.705</ele><time>2022-11-15T12:50:10Z</time></trkpt><trkpt lat="47.402225" lon="-1.518933"><ele>8.025</ele><time>2022-11-15T12:50:50Z</time></trkpt><trkpt lat="47.406727" lon="-1.525749"><ele>10.509</ele><time>2022-11-15T12:51:30Z</time></trkpt><trkpt lat="47.406575" lon="-1.532509"><ele>7.068</ele><time>2022-11-15T12:52:10Z</time></trkpt><trkpt lat="47.411094" lon="-1.535360"><ele>7.118</ele><time>2022-11-15T12:52:50Z</time></trkpt><trkpt lat="47.418739" lon="-1.536057"><ele>6.315</ele><time>2022-11-15T12:53:30Z</time></trkpt><trkpt lat="47.425841" lon="-1.532278"><ele>10.074</ele><time>2022-11-15T12:54:10Z</time></trkpt><trkpt lat="47.425841" lon="-1.532278"><ele>10.069</ele><time>2022-11-15T12:54:50Z</time></trkpt><trkpt lat="47.433605" lon="-1.528481"><ele>9.071</ele><time>2022-11-15T12:55:30Z</time></trkpt><trkpt lat="47.434821" lon="-1.536535"><ele>8.994</ele><time>2022-11-15T12:56:10Z</time></trkpt><trkpt lat="47.439578" lon="-1.539590"><ele>11.260</ele><time>2022-11-15T12:56:50Z</time></trkpt><trkpt lat="47.440658" lon="-1.545205"><ele>11.941</ele><time>2022-11-15T12:57:30Z</time></trkpt><trkpt lat="47.439365" lon="-1.553627"><ele>17.781</ele><time>2022-11-15T12:58:10Z</time></trkpt><trkpt lat="47.445078" lon="-1.563733"><ele>16.761</ele><time>2022-11-15T12:58:50Z</time></trkpt><trkpt lat="47.449737" lon="-1.577047"><ele>20.517</ele><time>2022-11-15T12:59:30Z</time></trkpt><trkpt lat="47.454412" lon="-1.600620"><ele>28.309</ele><time>2022-11-15T13:00:10Z</time></trkpt><trkpt lat="47.460102" lon="-1.607866"><ele>24.679</ele><time>2022-11-15T13:00:50Z</time></trkpt><trkpt lat="47.459980" lon="-1.629157"><ele>23.969</ele><time>2022-11-15T13:01:30Z</time></trkpt><trkpt lat="47.453132" lon="-1.630525"><ele>21.756</ele><time>2022-11-15T13:02:10Z</time></trkpt><trkpt lat="47.452744" lon="-1.639053"><ele>19.695</ele><time>2022-11-15T13:02:50Z</time></trkpt><trkpt lat="47.449711" lon="-1.644452"><ele>21.070</ele><time>2022-11-15T13:03:30Z</time></trkpt><trkpt lat="47.450018" lon="-1.652483"><ele>21.882</ele><time>2022-11-15T13:04:10Z</time></trkpt><trkpt lat="47.451624" lon="-1.661078"><ele>21.025</ele><time>2022-11-15T13:04:50Z</time></trkpt><trkpt lat="47.459493" lon="-1.677339"><ele>16.281</ele><time>2022-11-15T13:05:30Z</time></trkpt><trkpt lat="47.462444" lon="-1.679919"><ele>17.672</ele><time>2022-11-15T13:06:10Z</time></trkpt><trkpt lat="47.466409" lon="-1.679756"><ele>19.861</ele><time>2022-11-15T13:06:50Z</time></trkpt><trkpt lat="47.470175" lon="-1.684664"><ele>17.821</ele><time>2022-11-15T13:07:30Z</time></trkpt><trkpt lat="47.470406" lon="-1.720040"><ele>18.113</ele><time>2022-11-15T13:08:10Z</time></trkpt><trkpt lat="47.468874" lon="-1.723549"><ele>15.709</ele><time>2022-11-15T13:08:50Z</time></trkpt><trkpt lat="47.463828" lon="-1.727535"><ele>17.857</ele><time>2022-11-15T13:09:30Z</time></trkpt><trkpt lat="47.458431" lon="-1.740678"><ele>15.567</ele><time>2022-11-15T13:10:10Z</time></trkpt><trkpt lat="47.461732" lon="-1.752232"><ele>15.624</ele><time>2022-11-15T13:10:50Z</time></trkpt><trkpt lat="47.470513" lon="-1.767327"><ele>12.973</ele><time>2022-11-15T13:11:30Z</time></trkpt><trkpt lat="47.470513" lon="-1.767327"><ele>12.948</ele><time>2022-11-15T13:12:10Z</time></trkpt><trkpt lat="47.473388" lon="-1.776298"><ele>12.220</ele><time>2022-11-15T13:12:50Z</time></trkpt><trkpt lat="47.468268" lon="-1.807609"><ele>11.673</ele><time>2022-11-15T13:13:30Z</time></trkpt><trkpt lat="47.470151" lon="-1.812559"><ele>9.639</ele><time>2022-11-15T13:14:10Z</time></trkpt><trkpt lat="47.469993" lon="-1.820955"><ele>12.540</ele><time>2022-11-15T13:14:50Z</time></trkpt><trkpt lat="47.475171" lon="-1.833182"><ele>15.794</ele><time>2022-11-15T13:15:30Z</time></trkpt><trkpt lat="47.475130" lon="-1.843581"><ele>9.557</ele><time>2022-11-15T13:16:10Z</time></trkpt><trkpt lat="47.474364" lon="-1.847066"><ele>9.022</ele><time>2022-11-15T13:16:50Z</time></trkpt><trkpt lat="47.465653" lon="-1.856768"><ele>11.309</ele><time>2022-11-15T13:17:30Z</time></trkpt><trkpt lat="47.467059" lon="-1.863717"><ele>8.450</ele><time>2022-11-15T13:18:10Z</time></trkpt><trkpt lat="47.465924" lon="-1.869657"><ele>11.540</ele><time>2022-11-15T13:18:50Z</time></trkpt><trkpt lat="47.473912" lon="-1.873624"><ele>13.117</ele><time>2022-11-15T13:19:30Z</time></trkpt><trkpt lat="47.479747" lon="-1.880258"><ele>11.426</ele><time>2022-11-15T13:20:10Z</time></trkpt><trkpt lat="47.483748" lon="-1.890638"><ele>11.551</ele><time>2022-11-15T13:20:50Z</time></trkpt><trkpt lat="47.482498" lon="-1.896791"><ele>12.043</ele><time>2022-11-15T13:21:30Z</time></trkpt><trkpt lat="47.484109" lon="-1.910333"><ele>8.096</ele><time>2022-11-15T13:22:10Z</time></trkpt><trkpt lat="47.491453" lon="-1.912478"><ele>4.742</ele><time>2022-11-15T13:22:50Z</time></trkpt><trkpt lat="47.494622" lon="-1.910673"><ele>7.693</ele><time>2022-11-15T13:23:30Z</time></trkpt><trkpt lat="47.497199" lon="-1.913231"><ele>9.162</ele><time>2022-11-15T13:24:10Z</time></trkpt><trkpt lat="47.498530" lon="-1.917423"><ele>14.183</ele><time>2022-11-15T13:24:50Z</time></trkpt><trkpt lat="47.497148" lon="-1.924764"><ele>7.611</ele><time>2022-11-15T13:25:30Z</time></trkpt><trkpt lat="47.497721" lon="-1.931336"><ele>6.609</ele><time>2022-11-15T13:26:10Z</time></trkpt><trkpt lat="47.503026" lon="-1.932663"><ele>10.317</ele><time>2022-11-15T13:26:50Z</time></trkpt><trkpt lat="47.505209" lon="-1.923866"><ele>7.967</ele><time>2022-11-15T13:27:30Z</time></trkpt><trkpt lat="47.508355" lon="-1.922528"><ele>12.344</ele><time>2022-11-15T13:28:10Z</time></trkpt><trkpt lat="47.510194" lon="-1.924225"><ele>14.493</ele><time>2022-11-15T13:28:50Z</time></trkpt><trkpt lat="47.510841" lon="-1.926111"><ele>13.238</ele><time>2022-11-15T13:29:30Z</time></trkpt><trkpt lat="47.506995" lon="-1.936259"><ele>6.090</ele><time>2022-11-15T13:30:10Z</time></trkpt><trkpt lat="47.507861" lon="-1.944814"><ele>7.243</ele><time>2022-11-15T13:30:50Z</time></trkpt><trkpt lat="47.516009" lon="-1.946756"><ele>8.429</ele><time>2022-11-15T13:31:30Z</time></trkpt><trkpt lat="47.518046" lon="-1.944845"><ele>5.050</ele><time>2022-11-15T13:32:10Z</time></trkpt><trkpt lat="47.523291" lon="-1.945071"><ele>2.479</ele><time>2022-11-15T13:32:50Z</time></trkpt><trkpt lat="47.525396" lon="-1.950437"><ele>3.905</ele><time>2022-11-15T13:33:30Z</time></trkpt><trkpt lat="47.522827" lon="-1.955921"><ele>6.025</ele><time>2022-11-15T13:34:10Z</time></trkpt><trkpt lat="47.525782" lon="-1.962317"><ele>3.709</ele><time>2022-11-15T13:34:50Z</time></trkpt><trkpt lat="47.531272" lon="-1.959805"><ele>3.088</ele><time>2022-11-15T13:35:30Z</time></trkpt><trkpt lat="47.542395" lon="-1.964772"><ele>4.068</ele><time>2022-11-15T13:36:10Z</time></trkpt><trkpt lat="47.544474" lon="-1.970476"><ele>0.935</ele><time>2022-11-15T13:36:50Z</time></trkpt><trkpt lat="47.542714" lon="-1.981777"><ele>3.454</ele><time>2022-11-15T13:37:30Z</time></trkpt><trkpt lat="47.544027" lon="-1.995131"><ele>4.029</ele><time>2022-11-15T13:38:10Z</time></trkpt><trkpt lat="47.548981" lon="-2.000709"><ele>2.461</ele><time>2022-11-15T13:38:50Z</time></trkpt><trkpt lat="47.561458" lon="-2.007669"><ele>2.794</ele><time>2022-11-15T13:39:30Z</time></trkpt><trkpt lat="47.565228" lon="-2.013950"><ele>3.420</ele><time>2022-11-15T13:40:10Z</time></trkpt><trkpt lat="47.567377" lon="-2.027637"><ele>5.481</ele><time>2022-11-15T13:40:50Z</time></trkpt><trkpt lat="47.569922" lon="-2.032193"><ele>6.637</ele><time>2022-11-15T13:41:30Z</time></trkpt><trkpt lat="47.576261" lon="-2.075467"><ele>4.549</ele><time>2022-11-15T13:42:10Z</time></trkpt><trkpt lat="47.598432" lon="-2.090524"><ele>6.213</ele><time>2022-11-15T13:42:50Z</time></trkpt><trkpt lat="47.604309" lon="-2.083693"><ele>3.809</ele><time>2022-11-15T13:43:30Z</time></trkpt><trkpt lat="47.643338" lon="-2.071677"><ele>2.044</ele><time>2022-11-15T13:44:10Z</time></trkpt><trkpt lat="47.648332" lon="-2.084320"><ele>4.644</ele><time>2022-11-15T13:44:50Z</time></trkpt><trkpt lat="47.648332" lon="-2.084320"><ele>4.621</ele><time>2022-11-15T13:45:30Z</time></trkpt><trkpt lat="47.652306" lon="-2.098430"><ele>7.030</ele><time>2022-11-15T13:46:10Z</time></trkpt><trkpt lat="47.654589" lon="-2.101648"><ele>7.015</ele><time>2022-11-15T13:46:50Z</time></trkpt><trkpt lat="47.664516" lon="-2.098108"><ele>3.637</ele><time>2022-11-15T13:47:30Z</time></trkpt><trkpt lat="47.669305" lon="-2.089031"><ele>4.560</ele><time>2022-11-15T13:48:10Z</time></trkpt><trkpt lat="47.672253" lon="-2.088959"><ele>3.996</ele><time>2022-11-15T13:48:50Z</time></trkpt><trkpt lat="47.676837" lon="-2.094537"><ele>6.997</ele><time>2022-11-15T13:49:30Z</time></trkpt><trkpt lat="47.684781" lon="-2.123248"><ele>3.388</ele><time>2022-11-15T13:50:10Z</time></trkpt><trkpt lat="47.688370" lon="-2.121917"><ele>3.824</ele><time>2022-11-15T13:50:50Z</time></trkpt><trkpt lat="47.691124" lon="-2.125475"><ele>2.326</ele><time>2022-11-15T13:51:30Z</time></trkpt><trkpt lat="47.708595" lon="-2.119228"><ele>17.809</ele><time>2022-11-15T13:52:10Z</time></trkpt><trkpt lat="47.713470" lon="-2.124307"><ele>5.329</ele><time>2022-11-15T13:52:50Z</time></trkpt><trkpt lat="47.723224" lon="-2.187759"><ele>5.929</ele><time>2022-11-15T13:53:30Z</time></trkpt><trkpt lat="47.725226" lon="-2.213088"><ele>5.176</ele><time>2022-11-15T13:54:10Z</time></trkpt><trkpt lat="47.725226" lon="-2.213088"><ele>5.175</ele><time>2022-11-15T13:54:50Z</time></trkpt><trkpt lat="47.728845" lon="-2.214474"><ele>6.310</ele><time>2022-11-15T13:55:30Z</time></trkpt><trkpt lat="47.730767" lon="-2.221060"><ele>6.012</ele><time>2022-11-15T13:56:10Z</time></trkpt><trkpt lat="47.737009" lon="-2.227678"><ele>7.785</ele><time>2022-11-15T13:56:50Z</time></trkpt><trkpt lat="47.741046" lon="-2.235070"><ele>9.721</ele><time>2022-11-15T13:57:30Z</time></trkpt><trkpt lat="47.741069" lon="-2.239350"><ele>5.312</ele><time>2022-11-15T13:58:10Z</time></trkpt><trkpt lat="47.737020" lon="-2.246614"><ele>6.576</ele><time>2022-11-15T13:58:50Z</time></trkpt><trkpt lat="47.736496" lon="-2.251572"><ele>18.790</ele><time>2022-11-15T13:59:30Z</time></trkpt><trkpt lat="47.738327" lon="-2.256402"><ele>11.219</ele><time>2022-11-15T14:00:10Z</time></trkpt><trkpt lat="47.744994" lon="-2.262316"><ele>9.609</ele><time>2022-11-15T14:00:50Z</time></trkpt><trkpt lat="47.746376" lon="-2.268615"><ele>9.048</ele><time>2022-11-15T14:01:30Z</time></trkpt><trkpt lat="47.742730" lon="-2.277071"><ele>6.938</ele><time>2022-11-15T14:02:10Z</time></trkpt><trkpt lat="47.744560" lon="-2.287791"><ele>22.635</ele><time>2022-11-15T14:02:50Z</time></trkpt><trkpt lat="47.750056" lon="-2.294311"><ele>8.054</ele><time>2022-11-15T14:03:30Z</time></trkpt><trkpt lat="47.756945" lon="-2.311146"><ele>13.159</ele><time>2022-11-15T14:04:10Z</time></trkpt><trkpt lat="47.757283" lon="-2.315534"><ele>10.281</ele><time>2022-11-15T14:04:50Z</time></trkpt><trkpt lat="47.765306" lon="-2.317737"><ele>10.114</ele><time>2022-11-15T14:05:30Z</time></trkpt><trkpt lat="47.778605" lon="-2.314031"><ele>10.560</ele><time>2022-11-15T14:06:10Z</time></trkpt><trkpt lat="47.789583" lon="-2.320773"><ele>16.771</ele><time>2022-11-15T14:06:50Z</time></trkpt><trkpt lat="47.792303" lon="-2.327114"><ele>20.367</ele><time>2022-11-15T14:07:30Z</time></trkpt><trkpt lat="47.796508" lon="-2.326017"><ele>12.481</ele><time>2022-11-15T14:08:10Z</time></trkpt><trkpt lat="47.802883" lon="-2.331415"><ele>12.519</ele><time>2022-11-15T14:08:50Z</time></trkpt><trkpt lat="47.808218" lon="-2.355336"><ele>14.209</ele><time>2022-11-15T14:09:30Z</time></trkpt><trkpt lat="47.807374" lon="-2.368807"><ele>14.557</ele><time>2022-11-15T14:10:10Z</time></trkpt><trkpt lat="47.804416" lon="-2.372651"><ele>30.467</ele><time>2022-11-15T14:10:50Z</time></trkpt><trkpt lat="47.805761" lon="-2.378985"><ele>14.914</ele><time>2022-11-15T14:11:30Z</time></trkpt><trkpt lat="47.811251" lon="-2.382027"><ele>16.063</ele><time>2022-11-15T14:12:10Z</time></trkpt><trkpt lat="47.824710" lon="-2.399388"><ele>17.058</ele><time>2022-11-15T14:12:50Z</time></trkpt><trkpt lat="47.827884" lon="-2.407611"><ele>22.170</ele><time>2022-11-15T14:13:30Z</time></trkpt><trkpt lat="47.836414" lon="-2.417250"><ele>19.153</ele><time>2022-11-15T14:14:10Z</time></trkpt><trkpt lat="47.839767" lon="-2.434194"><ele>18.089</ele><time>2022-11-15T14:14:50Z</time></trkpt><trkpt lat="47.844223" lon="-2.441497"><ele>21.160</ele><time>2022-11-15T14:15:30Z</time></trkpt><trkpt lat="47.853004" lon="-2.446389"><ele>21.633</ele><time>2022-11-15T14:16:10Z</time></trkpt><trkpt lat="47.865009" lon="-2.446231"><ele>30.323</ele><time>2022-11-15T14:16:50Z</time></trkpt><trkpt lat="47.871621" lon="-2.427549"><ele>32.315</ele><time>2022-11-15T14:17:30Z</time></trkpt><trkpt lat="47.875408" lon="-2.427875"><ele>21.909</ele><time>2022-11-15T14:18:10Z</time></trkpt><trkpt lat="47.880017" lon="-2.423355"><ele>19.994</ele><time>2022-11-15T14:18:50Z</time></trkpt><trkpt lat="47.883811" lon="-2.426180"><ele>22.994</ele><time>2022-11-15T14:19:30Z</time></trkpt><trkpt lat="47.888032" lon="-2.436293"><ele>24.651</ele><time>2022-11-15T14:20:10Z</time></trkpt><trkpt lat="47.886879" lon="-2.450325"><ele>20.970</ele><time>2022-11-15T14:20:50Z</time></trkpt><trkpt lat="47.888504" lon="-2.452822"><ele>25.015</ele><time>2022-11-15T14:21:30Z</time></trkpt><trkpt lat="47.894277" lon="-2.453750"><ele>28.517</ele><time>2022-11-15T14:22:10Z</time></trkpt><trkpt lat="47.899900" lon="-2.458140"><ele>32.320</ele><time>2022-11-15T14:22:50Z</time></trkpt><trkpt lat="47.899972" lon="-2.465027"><ele>27.736</ele><time>2022-11-15T14:23:30Z</time></trkpt><trkpt lat="47.907668" lon="-2.475451"><ele>27.817</ele><time>2022-11-15T14:24:10Z</time></trkpt><trkpt lat="47.909667" lon="-2.481222"><ele>32.954</ele><time>2022-11-15T14:24:50Z</time></trkpt><trkpt lat="47.916415" lon="-2.483434"><ele>27.956</ele><time>2022-11-15T14:25:30Z</time></trkpt><trkpt lat="47.922799" lon="-2.492724"><ele>34.011</ele><time>2022-11-15T14:26:10Z</time></trkpt><trkpt lat="47.923963" lon="-2.496104"><ele>29.309</ele><time>2022-11-15T14:26:50Z</time></trkpt><trkpt lat="47.922698" lon="-2.500590"><ele>30.066</ele><time>2022-11-15T14:27:30Z</time></trkpt><trkpt lat="47.927272" lon="-2.506526"><ele>25.276</ele><time>2022-11-15T14:28:10Z</time></trkpt><trkpt lat="47.930788" lon="-2.516224"><ele>29.833</ele><time>2022-11-15T14:28:50Z</time></trkpt><trkpt lat="47.931085" lon="-2.527732"><ele>31.662</ele><time>2022-11-15T14:29:30Z</time></trkpt><trkpt lat="47.935419" lon="-2.535125"><ele>28.247</ele><time>2022-11-15T14:30:10Z</time></trkpt><trkpt lat="47.948885" lon="-2.543623"><ele>35.149</ele><time>2022-11-15T14:30:50Z</time></trkpt><trkpt lat="47.952588" lon="-2.548246"><ele>43.072</ele><time>2022-11-15T14:31:30Z</time></trkpt><trkpt lat="47.952588" lon="-2.548246"><ele>43.098</ele><time>2022-11-15T14:32:10Z</time></trkpt><trkpt lat="47.951708" lon="-2.556746"><ele>32.689</ele><time>2022-11-15T14:32:50Z</time></trkpt><trkpt lat="47.954007" lon="-2.564888"><ele>34.628</ele><time>2022-11-15T14:33:30Z</time></trkpt><trkpt lat="47.952985" lon="-2.574449"><ele>32.389</ele><time>2022-11-15T14:34:10Z</time></trkpt><trkpt lat="47.960043" lon="-2.591024"><ele>34.017</ele><time>2022-11-15T14:34:50Z</time></trkpt><trkpt lat="47.961554" lon="-2.604696"><ele>35.609</ele><time>2022-11-15T14:35:30Z</time></trkpt><trkpt lat="47.958654" lon="-2.607787"><ele>35.063</ele><time>2022-11-15T14:36:10Z</time></trkpt><trkpt lat="47.957873" lon="-2.611592"><ele>37.023</ele><time>2022-11-15T14:36:50Z</time></trkpt><trkpt lat="47.959413" lon="-2.622217"><ele>40.320</ele><time>2022-11-15T14:37:30Z</time></trkpt><trkpt lat="47.966016" lon="-2.619301"><ele>38.959</ele><time>2022-11-15T14:38:10Z</time></trkpt><trkpt lat="47.974911" lon="-2.624668"><ele>38.334</ele><time>2022-11-15T14:38:50Z</time></trkpt><trkpt lat="47.983960" lon="-2.641531"><ele>45.176</ele><time>2022-11-15T14:39:30Z</time></trkpt><trkpt lat="47.984397" lon="-2.648239"><ele>47.179</ele><time>2022-11-15T14:40:10Z</time></trkpt><trkpt lat="47.988857" lon="-2.650881"><ele>42.875</ele><time>2022-11-15T14:40:50Z</time></trkpt><trkpt lat="47.991282" lon="-2.654795"><ele>48.046</ele><time>2022-11-15T14:41:30Z</time></trkpt><trkpt lat="47.994188" lon="-2.655834"><ele>43.214</ele><time>2022-11-15T14:42:10Z</time></trkpt><trkpt lat="48.002915" lon="-2.652069"><ele>46.054</ele><time>2022-11-15T14:42:50Z</time></trkpt><trkpt lat="48.005206" lon="-2.658674"><ele>49.309</ele><time>2022-11-15T14:43:30Z</time></trkpt><trkpt lat="48.009081" lon="-2.660008"><ele>47.009</ele><time>2022-11-15T14:44:10Z</time></trkpt><trkpt lat="48.010599" lon="-2.662999"><ele>48.242</ele><time>2022-11-15T14:44:50Z</time></trkpt><trkpt lat="48.009128" lon="-2.670906"><ele>48.342</ele><time>2022-11-15T14:45:30Z</time></trkpt><trkpt lat="48.016947" lon="-2.676857"><ele>49.049</ele><time>2022-11-15T14:46:10Z</time></trkpt><trkpt lat="48.021966" lon="-2.683830"><ele>52.228</ele><time>2022-11-15T14:46:50Z</time></trkpt><trkpt lat="48.023962" lon="-2.697704"><ele>52.933</ele><time>2022-11-15T14:47:30Z</time></trkpt><trkpt lat="48.041607" lon="-2.714696"><ele>65.575</ele><time>2022-11-15T14:48:10Z</time></trkpt><trkpt lat="48.052523" lon="-2.734673"><ele>60.888</ele><time>2022-11-15T14:48:50Z</time></trkpt><trkpt lat="48.057909" lon="-2.733135"><ele>65.174</ele><time>2022-11-15T14:49:30Z</time></trkpt><trkpt lat="48.060901" lon="-2.735875"><ele>58.075</ele><time>2022-11-15T14:50:10Z</time></trkpt><trkpt lat="48.066649" lon="-2.749483"><ele>62.378</ele><time>2022-11-15T14:50:50Z</time></trkpt><trkpt lat="48.069388" lon="-2.749287"><ele>65.933</ele><time>2022-11-15T14:51:30Z</time></trkpt><trkpt lat="48.071597" lon="-2.755323"><ele>64.926</ele><time>2022-11-15T14:52:10Z</time></trkpt><trkpt lat="48.075480" lon="-2.757002"><ele>65.109</ele><time>2022-11-15T14:52:50Z</time></trkpt><trkpt lat="48.087154" lon="-2.768358"><ele>65.058</ele><time>2022-11-15T14:53:30Z</time></trkpt><trkpt lat="48.087399" lon="-2.775771"><ele>71.138</ele><time>2022-11-15T14:54:10Z</time></trkpt><trkpt lat="48.090530" lon="-2.777733"><ele>67.895</ele><time>2022-11-15T14:54:50Z</time></trkpt><trkpt lat="48.096061" lon="-2.776760"><ele>69.954</ele><time>2022-11-15T14:55:30Z</time></trkpt><trkpt lat="48.105738" lon="-2.781686"><ele>74.499</ele><time>2022-11-15T14:56:10Z</time></trkpt><trkpt lat="48.104460" lon="-2.790007"><ele>79.131</ele><time>2022-11-15T14:56:50Z</time></trkpt><trkpt lat="48.105962" lon="-2.808818"><ele>98.584</ele><time>2022-11-15T14:57:30Z</time></trkpt><trkpt lat="48.111603" lon="-2.822192"><ele>113.140</ele><time>2022-11-15T14:58:10Z</time></trkpt><trkpt lat="48.112821" lon="-2.829182"><ele>123.941</ele><time>2022-11-15T14:58:50Z</time></trkpt><trkpt lat="48.116642" lon="-2.834949"><ele>140.134</ele><time>2022-11-15T14:59:30Z</time></trkpt><trkpt lat="48.113410" lon="-2.843969"><ele>144.055</ele><time>2022-11-15T15:00:10Z</time></trkpt><trkpt lat="48.113642" lon="-2.847550"><ele>139.910</ele><time>2022-11-15T15:00:50Z</time></trkpt><trkpt lat="48.118617" lon="-2.850679"><ele>133.009</ele><time>2022-11-15T15:01:30Z</time></trkpt><trkpt lat="48.119866" lon="-2.857415"><ele>134.234</ele><time>2022-11-15T15:02:10Z</time></trkpt><trkpt lat="48.117413" lon="-2.877235"><ele>132.314</ele><time>2022-11-15T15:02:50Z</time></trkpt><trkpt lat="48.114512" lon="-2.884779"><ele>133.141</ele><time>2022-11-15T15:03:30Z</time></trkpt><trkpt lat="48.114966" lon="-2.903377"><ele>109.960</ele><time>2022-11-15T15:04:10Z</time></trkpt><trkpt lat="48.112091" lon="-2.911716"><ele>108.655</ele><time>2022-11-15T15:04:50Z</time></trkpt><trkpt lat="48.105878" lon="-2.913138"><ele>106.817</ele><time>2022-11-15T15:05:30Z</time></trkpt><trkpt lat="48.106511" lon="-2.940685"><ele>87.450</ele><time>2022-11-15T15:06:10Z</time></trkpt><trkpt lat="48.096632" lon="-2.936587"><ele>78.726</ele><time>2022-11-15T15:06:50Z</time></trkpt><trkpt lat="48.089473" lon="-2.937256"><ele>75.357</ele><time>2022-11-15T15:07:30Z</time></trkpt><trkpt lat="48.086121" lon="-2.942446"><ele>73.298</ele><time>2022-11-15T15:08:10Z</time></trkpt><trkpt lat="48.084518" lon="-2.948616"><ele>68.515</ele><time>2022-11-15T15:08:50Z</time></trkpt><trkpt lat="48.075485" lon="-2.958683"><ele>63.226</ele><time>2022-11-15T15:09:30Z</time></trkpt><trkpt lat="48.074368" lon="-2.962291"><ele>61.209</ele><time>2022-11-15T15:10:10Z</time></trkpt><trkpt lat="48.074368" lon="-2.962291"><ele>61.270</ele><time>2022-11-15T15:10:50Z</time></trkpt><trkpt lat="48.072257" lon="-2.966102"><ele>59.150</ele><time>2022-11-15T15:11:30Z</time></trkpt><trkpt lat="48.076258" lon="-2.971461"><ele>59.757</ele><time>2022-11-15T15:12:10Z</time></trkpt><trkpt lat="48.075396" lon="-2.981532"><ele>55.886</ele><time>2022-11-15T15:12:50Z</time></trkpt><trkpt lat="48.076681" lon="-2.984647"><ele>62.961</ele><time>2022-11-15T15:13:30Z</time></trkpt><trkpt lat="48.086247" lon="-2.984800"><ele>59.353</ele><time>2022-11-15T15:14:10Z</time></trkpt><trkpt lat="48.092367" lon="-2.990088"><ele>58.816</ele><time>2022-11-15T15:14:50Z</time></trkpt><trkpt lat="48.096556" lon="-2.991248"><ele>62.222</ele><time>2022-11-15T15:15:30Z</time></trkpt><trkpt lat="48.109506" lon="-3.004362"><ele>63.633</ele><time>2022-11-15T15:16:10Z</time></trkpt><trkpt lat="48.112769" lon="-3.002229"><ele>65.022</ele><time>2022-11-15T15:16:50Z</time></trkpt><trkpt lat="48.113959" lon="-2.995687"><ele>67.162</ele><time>2022-11-15T15:17:30Z</time></trkpt><trkpt lat="48.116762" lon="-2.992853"><ele>78.608</ele><time>2022-11-15T15:18:10Z</time></trkpt><trkpt lat="48.122811" lon="-2.995001"><ele>69.109</ele><time>2022-11-15T15:18:50Z</time></trkpt><trkpt lat="48.123850" lon="-2.998659"><ele>64.263</ele><time>2022-11-15T15:19:30Z</time></trkpt><trkpt lat="48.121459" lon="-3.004108"><ele>68.123</ele><time>2022-11-15T15:20:10Z</time></trkpt><trkpt lat="48.121582" lon="-3.011570"><ele>66.560</ele><time>2022-11-15T15:20:50Z</time></trkpt><trkpt lat="48.124230" lon="-3.014990"><ele>72.049</ele><time>2022-11-15T15:21:30Z</time></trkpt><trkpt lat="48.128400" lon="-3.013916"><ele>68.314</ele><time>2022-11-15T15:22:10Z</time></trkpt><trkpt lat="48.131024" lon="-3.004358"><ele>76.376</ele><time>2022-11-15T15:22:50Z</time></trkpt><trkpt lat="48.133751" lon="-3.002008"><ele>79.269</ele><time>2022-11-15T15:23:30Z</time></trkpt><trkpt lat="48.137847" lon="-3.010865"><ele>74.925</ele><time>2022-11-15T15:24:10Z</time></trkpt><trkpt lat="48.144692" lon="-3.002352"><ele>72.246</ele><time>2022-11-15T15:24:50Z</time></trkpt><trkpt lat="48.148178" lon="-3.004046"><ele>70.223</ele><time>2022-11-15T15:25:30Z</time></trkpt><trkpt lat="48.152859" lon="-3.011766"><ele>73.383</ele><time>2022-11-15T15:26:10Z</time></trkpt><trkpt lat="48.158740" lon="-3.010571"><ele>72.111</ele><time>2022-11-15T15:26:50Z</time></trkpt><trkpt lat="48.158838" lon="-3.000334"><ele>77.009</ele><time>2022-11-15T15:27:30Z</time></trkpt><trkpt lat="48.170420" lon="-2.994451"><ele>77.513</ele><time>2022-11-15T15:28:10Z</time></trkpt><trkpt lat="48.173890" lon="-3.007078"><ele>80.013</ele><time>2022-11-15T15:28:50Z</time></trkpt><trkpt lat="48.186638" lon="-3.012362"><ele>89.080</ele><time>2022-11-15T15:29:30Z</time></trkpt><trkpt lat="48.190036" lon="-3.017138"><ele>86.489</ele><time>2022-11-15T15:30:10Z</time></trkpt><trkpt lat="48.188550" lon="-3.013085"><ele>109.454</ele><time>2022-11-15T15:30:50Z</time></trkpt><trkpt lat="48.191005" lon="-3.009687"><ele>135.616</ele><time>2022-11-15T15:31:30Z</time></trkpt><trkpt lat="48.195745" lon="-3.008520"><ele>162.589</ele><time>2022-11-15T15:32:10Z</time></trkpt><trkpt lat="48.197668" lon="-3.000287"><ele>152.535</ele><time>2022-11-15T15:32:50Z</time></trkpt><trkpt lat="48.200036" lon="-3.000299"><ele>163.156</ele><time>2022-11-15T15:33:30Z</time></trkpt><trkpt lat="48.200036" lon="-3.000299"><ele>163.156</ele><time>2022-11-15T15:34:10Z</time></trkpt><trkpt lat="48.207380" lon="-3.000810"><ele>152.159</ele><time>2022-11-15T15:34:50Z</time></trkpt><trkpt lat="48.215758" lon="-3.011425"><ele>144.714</ele><time>2022-11-15T15:35:30Z</time></trkpt><trkpt lat="48.214841" lon="-3.017146"><ele>147.309</ele><time>2022-11-15T15:36:10Z</time></trkpt><trkpt lat="48.217367" lon="-3.025367"><ele>163.486</ele><time>2022-11-15T15:36:50Z</time></trkpt><trkpt lat="48.214997" lon="-3.033097"><ele>172.076</ele><time>2022-11-15T15:37:30Z</time></trkpt><trkpt lat="48.214738" lon="-3.044645"><ele>179.213</ele><time>2022-11-15T15:38:10Z</time></trkpt><trkpt lat="48.217312" lon="-3.053986"><ele>196.582</ele><time>2022-11-15T15:38:50Z</time></trkpt><trkpt lat="48.215087" lon="-3.063111"><ele>204.337</ele><time>2022-11-15T15:39:30Z</time></trkpt><trkpt lat="48.218327" lon="-3.069934"><ele>203.449</ele><time>2022-11-15T15:40:10Z</time></trkpt><trkpt lat="48.219140" lon="-3.080960"><ele>207.752</ele><time>2022-11-15T15:40:50Z</time></trkpt><trkpt lat="48.217455" lon="-3.087766"><ele>200.548</ele><time>2022-11-15T15:41:30Z</time></trkpt><trkpt lat="48.217802" lon="-3.096371"><ele>192.379</ele><time>2022-11-15T15:42:10Z</time></trkpt><trkpt lat="48.213230" lon="-3.108912"><ele>175.615</ele><time>2022-11-15T15:42:50Z</time></trkpt><trkpt lat="48.218421" lon="-3.123523"><ele>148.365</ele><time>2022-11-15T15:43:30Z</time></trkpt><trkpt lat="48.216048" lon="-3.128863"><ele>148.111</ele><time>2022-11-15T15:44:10Z</time></trkpt><trkpt lat="48.213902" lon="-3.128086"><ele>129.909</ele><time>2022-11-15T15:44:50Z</time></trkpt><trkpt lat="48.212038" lon="-3.130055"><ele>126.012</ele><time>2022-11-15T15:45:30Z</time></trkpt><trkpt lat="48.213631" lon="-3.132213"><ele>134.532</ele><time>2022-11-15T15:46:10Z</time></trkpt><trkpt lat="48.214541" lon="-3.143107"><ele>132.079</ele><time>2022-11-15T15:46:50Z</time></trkpt><trkpt lat="48.211880" lon="-3.155242"><ele>146.388</ele><time>2022-11-15T15:47:30Z</time></trkpt><trkpt lat="48.214908" lon="-3.160513"><ele>144.613</ele><time>2022-11-15T15:48:10Z</time></trkpt><trkpt lat="48.219850" lon="-3.161467"><ele>139.065</ele><time>2022-11-15T15:48:50Z</time></trkpt><trkpt lat="48.218861" lon="-3.169250"><ele>146.168</ele><time>2022-11-15T15:49:30Z</time></trkpt><trkpt lat="48.224784" lon="-3.173218"><ele>131.194</ele><time>2022-11-15T15:50:10Z</time></trkpt><trkpt lat="48.224391" lon="-3.179686"><ele>136.345</ele><time>2022-11-15T15:50:50Z</time></trkpt><trkpt lat="48.226277" lon="-3.187482"><ele>133.051</ele><time>2022-11-15T15:51:30Z</time></trkpt><trkpt lat="48.217048" lon="-3.207129"><ele>141.101</ele><time>2022-11-15T15:52:10Z</time></trkpt><trkpt lat="48.206190" lon="-3.219027"><ele>142.111</ele><time>2022-11-15T15:52:50Z</time></trkpt><trkpt lat="48.205506" lon="-3.222150"><ele>141.009</ele><time>2022-11-15T15:53:30Z</time></trkpt><trkpt lat="48.207667" lon="-3.235045"><ele>148.246</ele><time>2022-11-15T15:54:10Z</time></trkpt><trkpt lat="48.205509" lon="-3.237242"><ele>147.216</ele><time>2022-11-15T15:54:50Z</time></trkpt><trkpt lat="48.202584" lon="-3.236876"><ele>144.293</ele><time>2022-11-15T15:55:30Z</time></trkpt><trkpt lat="48.194358" lon="-3.244264"><ele>145.782</ele><time>2022-11-15T15:56:10Z</time></trkpt><trkpt lat="48.196288" lon="-3.258134"><ele>159.187</ele><time>2022-11-15T15:56:50Z</time></trkpt><trkpt lat="48.194341" lon="-3.260976"><ele>155.889</ele><time>2022-11-15T15:57:30Z</time></trkpt><trkpt lat="48.195796" lon="-3.263352"><ele>162.892</ele><time>2022-11-15T15:58:10Z</time></trkpt><trkpt lat="48.196558" lon="-3.272181"><ele>160.938</ele><time>2022-11-15T15:58:50Z</time></trkpt><trkpt lat="48.200393" lon="-3.270680"><ele>160.619</ele><time>2022-11-15T15:59:30Z</time></trkpt><trkpt lat="48.202177" lon="-3.278154"><ele>166.786</ele><time>2022-11-15T16:00:10Z</time></trkpt><trkpt lat="48.205628" lon="-3.280515"><ele>163.660</ele><time>2022-11-15T16:00:50Z</time></trkpt><trkpt lat="48.205214" lon="-3.284291"><ele>164.026</ele><time>2022-11-15T16:01:30Z</time></trkpt><trkpt lat="48.201203" lon="-3.287483"><ele>164.309</ele><time>2022-11-15T16:02:10Z</time></trkpt><trkpt lat="48.204550" lon="-3.295517"><ele>161.119</ele><time>2022-11-15T16:02:50Z</time></trkpt><trkpt lat="48.205104" lon="-3.304887"><ele>162.239</ele><time>2022-11-15T16:03:30Z</time></trkpt><trkpt lat="48.205104" lon="-3.304887"><ele>162.236</ele><time>2022-11-15T16:04:10Z</time></trkpt><trkpt lat="48.211069" lon="-3.318501"><ele>169.545</ele><time>2022-11-15T16:04:50Z</time></trkpt><trkpt lat="48.211334" lon="-3.329453"><ele>167.270</ele><time>2022-11-15T16:05:30Z</time></trkpt><trkpt lat="48.218390" lon="-3.337225"><ele>169.032</ele><time>2022-11-15T16:06:10Z</time></trkpt><trkpt lat="48.220647" lon="-3.343662"><ele>169.555</ele><time>2022-11-15T16:06:50Z</time></trkpt><trkpt lat="48.223934" lon="-3.346042"><ele>171.231</ele><time>2022-11-15T16:07:30Z</time></trkpt><trkpt lat="48.224449" lon="-3.349126"><ele>171.052</ele><time>2022-11-15T16:08:10Z</time></trkpt><trkpt lat="48.222066" lon="-3.352929"><ele>176.017</ele><time>2022-11-15T16:08:50Z</time></trkpt><trkpt lat="48.222374" lon="-3.355836"><ele>182.987</ele><time>2022-11-15T16:09:30Z</time></trkpt><trkpt lat="48.224999" lon="-3.360912"><ele>176.715</ele><time>2022-11-15T16:10:10Z</time></trkpt><trkpt lat="48.228559" lon="-3.360098"><ele>179.909</ele><time>2022-11-15T16:10:50Z</time></trkpt><trkpt lat="48.231406" lon="-3.364282"><ele>190.872</ele><time>2022-11-15T16:11:30Z</time></trkpt><trkpt lat="48.231696" lon="-3.371905"><ele>197.512</ele><time>2022-11-15T16:12:10Z</time></trkpt><trkpt lat="48.237446" lon="-3.372061"><ele>189.289</ele><time>2022-11-15T16:12:50Z</time></trkpt><trkpt lat="48.240411" lon="-3.379922"><ele>192.438</ele><time>2022-11-15T16:13:30Z</time></trkpt><trkpt lat="48.239470" lon="-3.389993"><ele>200.153</ele><time>2022-11-15T16:14:10Z</time></trkpt><trkpt lat="48.230551" lon="-3.408270"><ele>191.485</ele><time>2022-11-15T16:14:50Z</time></trkpt><trkpt lat="48.237004" lon="-3.417169"><ele>169.288</ele><time>2022-11-15T16:15:30Z</time></trkpt><trkpt lat="48.238114" lon="-3.422447"><ele>162.044</ele><time>2022-11-15T16:16:10Z</time></trkpt><trkpt lat="48.245945" lon="-3.424826"><ele>152.265</ele><time>2022-11-15T16:16:50Z</time></trkpt><trkpt lat="48.256061" lon="-3.442566"><ele>134.432</ele><time>2022-11-15T16:17:30Z</time></trkpt><trkpt lat="48.256100" lon="-3.447668"><ele>134.092</ele><time>2022-11-15T16:18:10Z</time></trkpt><trkpt lat="48.251780" lon="-3.451675"><ele>135.011</ele><time>2022-11-15T16:18:50Z</time></trkpt><trkpt lat="48.251515" lon="-3.456457"><ele>129.109</ele><time>2022-11-15T16:19:30Z</time></trkpt><trkpt lat="48.252532" lon="-3.460002"><ele>126.174</ele><time>2022-11-15T16:20:10Z</time></trkpt><trkpt lat="48.256774" lon="-3.464143"><ele>125.724</ele><time>2022-11-15T16:20:50Z</time></trkpt><trkpt lat="48.255863" lon="-3.467733"><ele>121.041</ele><time>2022-11-15T16:21:30Z</time></trkpt><trkpt lat="48.256772" lon="-3.473291"><ele>121.860</ele><time>2022-11-15T16:22:10Z</time></trkpt><trkpt lat="48.254759" lon="-3.479785"><ele>118.545</ele><time>2022-11-15T16:22:50Z</time></trkpt><trkpt lat="48.255554" lon="-3.483854"><ele>123.737</ele><time>2022-11-15T16:23:30Z</time></trkpt><trkpt lat="48.253192" lon="-3.487757"><ele>113.040</ele><time>2022-11-15T16:24:10Z</time></trkpt><trkpt lat="48.253416" lon="-3.497870"><ele>117.336</ele><time>2022-11-15T16:24:50Z</time></trkpt><trkpt lat="48.257208" lon="-3.503774"><ele>110.087</ele><time>2022-11-15T16:25:30Z</time></trkpt><trkpt lat="48.255670" lon="-3.507521"><ele>107.642</ele><time>2022-11-15T16:26:10Z</time></trkpt><trkpt lat="48.257129" lon="-3.514238"><ele>106.322</ele><time>2022-11-15T16:26:50Z</time></trkpt><trkpt lat="48.255280" lon="-3.521677"><ele>105.014</ele><time>2022-11-15T16:27:30Z</time></trkpt><trkpt lat="48.257197" lon="-3.524537"><ele>108.609</ele><time>2022-11-15T16:28:10Z</time></trkpt><trkpt lat="48.252494" lon="-3.528100"><ele>102.025</ele><time>2022-11-15T16:28:50Z</time></trkpt><trkpt lat="48.256178" lon="-3.532282"><ele>99.595</ele><time>2022-11-15T16:29:30Z</time></trkpt><trkpt lat="48.255811" lon="-3.536483"><ele>97.312</ele><time>2022-11-15T16:30:10Z</time></trkpt><trkpt lat="48.253326" lon="-3.540281"><ele>94.091</ele><time>2022-11-15T16:30:50Z</time></trkpt><trkpt lat="48.254661" lon="-3.554585"><ele>94.826</ele><time>2022-11-15T16:31:30Z</time></trkpt><trkpt lat="48.251091" lon="-3.563065"><ele>87.168</ele><time>2022-11-15T16:32:10Z</time></trkpt><trkpt lat="48.250969" lon="-3.568345"><ele>96.081</ele><time>2022-11-15T16:32:50Z</time></trkpt><trkpt lat="48.249013" lon="-3.570799"><ele>85.167</ele><time>2022-11-15T16:33:30Z</time></trkpt><trkpt lat="48.248018" lon="-3.581711"><ele>80.098</ele><time>2022-11-15T16:34:10Z</time></trkpt><trkpt lat="48.244969" lon="-3.586613"><ele>80.871</ele><time>2022-11-15T16:34:50Z</time></trkpt><trkpt lat="48.255604" lon="-3.578251"><ele>111.841</ele><time>2022-11-15T16:35:30Z</time></trkpt><trkpt lat="48.259942" lon="-3.579340"><ele>123.815</ele><time>2022-11-15T16:36:10Z</time></trkpt><trkpt lat="48.265113" lon="-3.571735"><ele>129.309</ele><time>2022-11-15T16:36:50Z</time></trkpt><trkpt lat="48.268000" lon="-3.563936"><ele>121.928</ele><time>2022-11-15T16:37:30Z</time></trkpt><trkpt lat="48.272793" lon="-3.561678"><ele>124.138</ele><time>2022-11-15T16:38:10Z</time></trkpt><trkpt lat="48.273167" lon="-3.565384"><ele>119.275</ele><time>2022-11-15T16:38:50Z</time></trkpt><trkpt lat="48.277041" lon="-3.563992"><ele>129.784</ele><time>2022-11-15T16:39:30Z</time></trkpt><trkpt lat="48.277041" lon="-3.563992"><ele>129.749</ele><time>2022-11-15T16:40:10Z</time></trkpt><trkpt lat="48.279437" lon="-3.561369"><ele>133.031</ele><time>2022-11-15T16:40:50Z</time></trkpt><trkpt lat="48.286130" lon="-3.562120"><ele>112.344</ele><time>2022-11-15T16:41:30Z</time></trkpt><trkpt lat="48.288560" lon="-3.557846"><ele>100.030</ele><time>2022-11-15T16:42:10Z</time></trkpt><trkpt lat="48.294529" lon="-3.554661"><ele>93.911</ele><time>2022-11-15T16:42:50Z</time></trkpt><trkpt lat="48.301660" lon="-3.565332"><ele>104.984</ele><time>2022-11-15T16:43:30Z</time></trkpt><trkpt lat="48.303752" lon="-3.571428"><ele>119.107</ele><time>2022-11-15T16:44:10Z</time></trkpt><trkpt lat="48.308045" lon="-3.574622"><ele>128.617</ele><time>2022-11-15T16:44:50Z</time></trkpt><trkpt lat="48.314900" lon="-3.598653"><ele>133.409</ele><time>2022-11-15T16:45:30Z</time></trkpt><trkpt lat="48.317366" lon="-3.599833"><ele>133.299</ele><time>2022-11-15T16:46:10Z</time></trkpt><trkpt lat="48.321860" lon="-3.596910"><ele>125.019</ele><time>2022-11-15T16:46:50Z</time></trkpt><trkpt lat="48.328127" lon="-3.605053"><ele>154.976</ele><time>2022-11-15T16:47:30Z</time></trkpt><trkpt lat="48.331148" lon="-3.626549"><ele>158.135</ele><time>2022-11-15T16:48:10Z</time></trkpt><trkpt lat="48.336700" lon="-3.638106"><ele>155.160</ele><time>2022-11-15T16:48:50Z</time></trkpt><trkpt lat="48.336966" lon="-3.644052"><ele>144.242</ele><time>2022-11-15T16:49:30Z</time></trkpt><trkpt lat="48.339901" lon="-3.648832"><ele>136.485</ele><time>2022-11-15T16:50:10Z</time></trkpt><trkpt lat="48.339704" lon="-3.654105"><ele>128.591</ele><time>2022-11-15T16:50:50Z</time></trkpt><trkpt lat="48.343016" lon="-3.660116"><ele>115.732</ele><time>2022-11-15T16:51:30Z</time></trkpt><trkpt lat="48.342741" lon="-3.672099"><ele>104.119</ele><time>2022-11-15T16:52:10Z</time></trkpt><trkpt lat="48.341099" lon="-3.676622"><ele>101.609</ele><time>2022-11-15T16:52:50Z</time></trkpt><trkpt lat="48.342070" lon="-3.680842"><ele>94.519</ele><time>2022-11-15T16:53:30Z</time></trkpt><trkpt lat="48.347389" lon="-3.684118"><ele>95.009</ele><time>2022-11-15T16:54:10Z</time></trkpt><trkpt lat="48.356101" lon="-3.682944"><ele>87.672</ele><time>2022-11-15T16:54:50Z</time></trkpt><trkpt lat="48.362749" lon="-3.686114"><ele>93.832</ele><time>2022-11-15T16:55:30Z</time></trkpt><trkpt lat="48.371022" lon="-3.680402"><ele>96.559</ele><time>2022-11-15T16:56:10Z</time></trkpt><trkpt lat="48.373980" lon="-3.685042"><ele>95.738</ele><time>2022-11-15T16:56:50Z</time></trkpt><trkpt lat="48.386311" lon="-3.688996"><ele>101.253</ele><time>2022-11-15T16:57:30Z</time></trkpt><trkpt lat="48.395329" lon="-3.684232"><ele>112.725</ele><time>2022-11-15T16:58:10Z</time></trkpt><trkpt lat="48.406491" lon="-3.689686"><ele>105.518</ele><time>2022-11-15T16:58:50Z</time></trkpt><trkpt lat="48.410440" lon="-3.696649"><ele>122.964</ele><time>2022-11-15T16:59:30Z</time></trkpt><trkpt lat="48.417233" lon="-3.715767"><ele>120.825</ele><time>2022-11-15T17:00:10Z</time></trkpt><trkpt lat="48.425110" lon="-3.718563"><ele>126.596</ele><time>2022-11-15T17:00:50Z</time></trkpt><trkpt lat="48.427102" lon="-3.724640"><ele>129.231</ele><time>2022-11-15T17:01:30Z</time></trkpt><trkpt lat="48.430088" lon="-3.727504"><ele>129.324</ele><time>2022-11-15T17:02:10Z</time></trkpt><trkpt lat="48.435290" lon="-3.728417"><ele>137.109</ele><time>2022-11-15T17:02:50Z</time></trkpt><trkpt lat="48.440763" lon="-3.721487"><ele>144.340</ele><time>2022-11-15T17:03:30Z</time></trkpt><trkpt lat="48.449254" lon="-3.726450"><ele>153.180</ele><time>2022-11-15T17:04:10Z</time></trkpt><trkpt lat="48.453219" lon="-3.722884"><ele>165.797</ele><time>2022-11-15T17:04:50Z</time></trkpt><trkpt lat="48.459207" lon="-3.724756"><ele>172.346</ele><time>2022-11-15T17:05:30Z</time></trkpt><trkpt lat="48.464274" lon="-3.722254"><ele>179.421</ele><time>2022-11-15T17:06:10Z</time></trkpt><trkpt lat="48.466745" lon="-3.731135"><ele>194.483</ele><time>2022-11-15T17:06:50Z</time></trkpt><trkpt lat="48.465145" lon="-3.742051"><ele>215.736</ele><time>2022-11-15T17:07:30Z</time></trkpt><trkpt lat="48.466087" lon="-3.746742"><ele>222.212</ele><time>2022-11-15T17:08:10Z</time></trkpt><trkpt lat="48.469178" lon="-3.749942"><ele>216.083</ele><time>2022-11-15T17:08:50Z</time></trkpt><trkpt lat="48.477356" lon="-3.750872"><ele>199.119</ele><time>2022-11-15T17:09:30Z</time></trkpt><trkpt lat="48.484407" lon="-3.758575"><ele>184.109</ele><time>2022-11-15T17:10:10Z</time></trkpt><trkpt lat="48.506438" lon="-3.754873"><ele>144.419</ele><time>2022-11-15T17:10:50Z</time></trkpt><trkpt lat="48.523765" lon="-3.765960"><ele>118.309</ele><time>2022-11-15T17:11:30Z</time></trkpt><trkpt lat="48.530043" lon="-3.762155"><ele>104.512</ele><time>2022-11-15T17:12:10Z</time></trkpt><trkpt lat="48.539331" lon="-3.765121"><ele>90.162</ele><time>2022-11-15T17:12:50Z</time></trkpt><trkpt lat="48.541190" lon="-3.769268"><ele>83.979</ele><time>2022-11-15T17:13:30Z</time></trkpt><trkpt lat="48.545724" lon="-3.772604"><ele>84.068</ele><time>2022-11-15T17:14:10Z</time></trkpt><trkpt lat="48.560480" lon="-3.796575"><ele>36.923</ele><time>2022-11-15T17:14:50Z</time></trkpt><trkpt lat="48.570502" lon="-3.802596"><ele>36.565</ele><time>2022-11-15T17:15:30Z</time></trkpt><trkpt lat="48.577253" lon="-3.826568"><ele>15.158</ele><time>2022-11-15T17:16:10Z</time></trkpt><trkpt lat="48.577253" lon="-3.826568"><ele>15.164</ele><time>2022-11-15T17:16:50Z</time></trkpt><trkpt lat="48.577254" lon="-3.828410"><ele>13.485</ele><time>2022-11-15T17:17:30Z</time></trkpt><trkpt lat="48.586863" lon="-3.837687"><ele>11.549</ele><time>2022-11-15T17:18:10Z</time></trkpt><trkpt lat="48.585711" lon="-3.843199"><ele>39.702</ele><time>2022-11-15T17:18:50Z</time></trkpt><trkpt lat="48.582229" lon="-3.846677"><ele>56.922</ele><time>2022-11-15T17:19:30Z</time></trkpt><trkpt lat="48.585403" lon="-3.849061"><ele>67.409</ele><time>2022-11-15T17:20:10Z</time></trkpt><trkpt lat="48.578015" lon="-3.853384"><ele>90.045</ele><time>2022-11-15T17:20:50Z</time></trkpt><trkpt lat="48.581680" lon="-3.855967"><ele>91.015</ele><time>2022-11-15T17:21:30Z</time></trkpt><trkpt lat="48.586159" lon="-3.863306"><ele>88.082</ele><time>2022-11-15T17:22:10Z</time></trkpt><trkpt lat="48.582381" lon="-3.868106"><ele>47.451</ele><time>2022-11-15T17:22:50Z</time></trkpt><trkpt lat="48.582152" lon="-3.879194"><ele>64.676</ele><time>2022-11-15T17:23:30Z</time></trkpt><trkpt lat="48.584976" lon="-3.880093"><ele>79.938</ele><time>2022-11-15T17:24:10Z</time></trkpt><trkpt lat="48.586681" lon="-3.888183"><ele>75.951</ele><time>2022-11-15T17:24:50Z</time></trkpt><trkpt lat="48.592516" lon="-3.895352"><ele>96.027</ele><time>2022-11-15T17:25:30Z</time></trkpt><trkpt lat="48.594287" lon="-3.900401"><ele>88.338</ele><time>2022-11-15T17:26:10Z</time></trkpt><trkpt lat="48.596111" lon="-3.925086"><ele>58.427</ele><time>2022-11-15T17:26:50Z</time></trkpt><trkpt lat="48.594811" lon="-3.931048"><ele>32.868</ele><time>2022-11-15T17:27:30Z</time></trkpt><trkpt lat="48.601643" lon="-3.940164"><ele>9.914</ele><time>2022-11-15T17:28:10Z</time></trkpt><trkpt lat="48.609739" lon="-3.942671"><ele>11.309</ele><time>2022-11-15T17:28:50Z</time></trkpt><trkpt lat="48.618886" lon="-3.953625"><ele>11.163</ele><time>2022-11-15T17:29:30Z</time></trkpt><trkpt lat="48.626307" lon="-3.954686"><ele>6.373</ele><time>2022-11-15T17:30:10Z</time></trkpt><trkpt lat="48.627097" lon="-3.961195"><ele>13.180</ele><time>2022-11-15T17:30:50Z</time></trkpt><trkpt lat="48.638269" lon="-3.969467"><ele>58.969</ele><time>2022-11-15T17:31:30Z</time></trkpt><trkpt lat="48.643721" lon="-3.962178"><ele>48.174</ele><time>2022-11-15T17:32:10Z</time></trkpt><trkpt lat="48.645734" lon="-3.956332"><ele>14.846</ele><time>2022-11-15T17:32:50Z</time></trkpt><trkpt lat="48.644870" lon="-3.953731"><ele>15.559</ele><time>2022-11-15T17:33:30Z</time></trkpt><trkpt lat="48.647892" lon="-3.957704"><ele>11.625</ele><time>2022-11-15T17:34:10Z</time></trkpt><trkpt lat="48.648810" lon="-3.956214"><ele>3.796</ele><time>2022-11-15T17:34:50Z</time></trkpt><trkpt lat="48.651705" lon="-3.958722"><ele>17.892</ele><time>2022-11-15T17:35:30Z</time></trkpt><trkpt lat="48.659397" lon="-3.954331"><ele>17.873</ele><time>2022-11-15T17:36:10Z</time></trkpt><trkpt lat="48.670216" lon="-3.968169"><ele>13.120</ele><time>2022-11-15T17:36:50Z</time></trkpt><trkpt lat="48.676434" lon="-3.980775"><ele>16.209</ele><time>2022-11-15T17:37:30Z</time></trkpt><trkpt lat="48.684951" lon="-3.987443"><ele>41.230</ele><time>2022-11-15T17:38:10Z</time></trkpt><trkpt lat="48.693791" lon="-3.982843"><ele>44.420</ele><time>2022-11-15T17:38:50Z</time></trkpt><trkpt lat="48.702667" lon="-3.982148"><ele>37.977</ele><time>2022-11-15T17:39:30Z</time></trkpt><trkpt lat="48.704039" lon="-3.979064"><ele>35.556</ele><time>2022-11-15T17:40:10Z</time></trkpt><trkpt lat="48.707517" lon="-3.979968"><ele>25.981</ele><time>2022-11-15T17:40:50Z</time></trkpt><trkpt lat="48.708334" lon="-3.976269"><ele>16.143</ele><time>2022-11-15T17:41:30Z</time></trkpt><trkpt lat="48.710071" lon="-3.976700"><ele>23.816</ele><time>2022-11-15T17:42:10Z</time></trkpt><trkpt lat="48.711399" lon="-3.973813"><ele>14.892</ele><time>2022-11-15T17:42:50Z</time></trkpt><trkpt lat="48.714052" lon="-3.975173"><ele>29.063</ele><time>2022-11-15T17:43:30Z</time></trkpt><trkpt lat="48.715641" lon="-3.972185"><ele>15.368</ele><time>2022-11-15T17:44:10Z</time></trkpt><trkpt lat="48.721378" lon="-3.971221"><ele>20.642</ele><time>2022-11-15T17:44:50Z</time></trkpt><trkpt lat="48.721604" lon="-3.967394"><ele>7.026</ele><time>2022-11-15T17:45:30Z</time></trkpt><trkpt lat="50.364832" lon="-4.166011"><ele>0.009</ele><time>2022-11-15T17:46:10Z</time></trkpt><trkpt lat="50.367133" lon="-4.162164"><ele>9.757</ele><time>2022-11-15T17:46:50Z</time></trkpt><trkpt lat="50.368194" lon="-4.153938"><ele>5.747</ele><time>2022-11-15T17:47:30Z</time></trkpt><trkpt lat="50.362901" lon="-4.149810"><ele>4.724</ele><time>2022-11-15T17:48:10Z</time></trkpt><trkpt lat="50.364418" lon="-4.145227"><ele>10.513</ele><time>2022-11-15T17:48:50Z</time></trkpt><trkpt lat="50.363318" lon="-4.134748"><ele>7.068</ele><time>2022-11-15T17:49:30Z</time></trkpt><trkpt lat="50.366550" lon="-4.130830"><ele>8.060</ele><time>2022-11-15T17:50:10Z</time></trkpt><trkpt lat="50.366036" lon="-4.124889"><ele>12.253</ele><time>2022-11-15T17:50:50Z</time></trkpt><trkpt lat="50.362013" lon="-4.121224"><ele>6.869</ele><time>2022-11-15T17:51:30Z</time></trkpt><trkpt lat="50.361990" lon="-4.118864"><ele>2.520</ele><time>2022-11-15T17:52:10Z</time></trkpt><trkpt lat="50.365913" lon="-4.112464"><ele>6.879</ele><time>2022-11-15T17:52:50Z</time></trkpt><trkpt lat="50.369521" lon="-4.110634"><ele>5.305</ele><time>2022-11-15T17:53:30Z</time></trkpt><trkpt lat="50.368657" lon="-4.107082"><ele>1.325</ele><time>2022-11-15T17:54:10Z</time></trkpt><trkpt lat="50.370964" lon="-4.103449"><ele>1.609</ele><time>2022-11-15T17:54:50Z</time></trkpt><trkpt lat="50.379698" lon="-4.099203"><ele>5.668</ele><time>2022-11-15T17:55:30Z</time></trkpt><trkpt lat="50.383634" lon="-4.083868"><ele>12.488</ele><time>2022-11-15T17:56:10Z</time></trkpt><trkpt lat="50.407462" lon="-4.082349"><ele>25.015</ele><time>2022-11-15T17:56:50Z</time></trkpt><trkpt lat="50.401604" lon="-4.087352"><ele>16.374</ele><time>2022-11-15T17:57:30Z</time></trkpt><trkpt lat="50.394408" lon="-4.082511"><ele>5.059</ele><time>2022-11-15T17:58:10Z</time></trkpt><trkpt lat="50.408896" lon="-4.078424"><ele>20.391</ele><time>2022-11-15T17:58:50Z</time></trkpt><trkpt lat="50.418147" lon="-4.080491"><ele>30.124</ele><time>2022-11-15T17:59:30Z</time></trkpt><trkpt lat="50.412217" lon="-4.076235"><ele>37.220</ele><time>2022-11-15T18:00:10Z</time></trkpt><trkpt lat="50.409402" lon="-4.078126"><ele>25.151</ele><time>2022-11-15T18:00:50Z</time></trkpt><trkpt lat="50.421584" lon="-4.082790"><ele>39.992</ele><time>2022-11-15T18:01:30Z</time></trkpt><trkpt lat="50.418147" lon="-4.080491"><ele>30.173</ele><time>2022-11-15T18:02:10Z</time></trkpt><trkpt lat="50.425979" lon="-4.085865"><ele>37.620</ele><time>2022-11-15T18:02:50Z</time></trkpt><trkpt lat="50.424605" lon="-4.084829"><ele>53.009</ele><time>2022-11-15T18:03:30Z</time></trkpt><trkpt lat="50.434375" lon="-4.082539"><ele>57.250</ele><time>2022-11-15T18:04:10Z</time></trkpt><trkpt lat="50.428325" lon="-4.086513"><ele>58.320</ele><time>2022-11-15T18:04:50Z</time></trkpt><trkpt lat="50.426617" lon="-4.086265"><ele>44.677</ele><time>2022-11-15T18:05:30Z</time></trkpt><trkpt lat="50.438627" lon="-4.077581"><ele>71.536</ele><time>2022-11-15T18:06:10Z</time></trkpt><trkpt lat="50.435361" lon="-4.081873"><ele>50.271</ele><time>2022-11-15T18:06:50Z</time></trkpt><trkpt lat="50.443624" lon="-4.078027"><ele>80.813</ele><time>2022-11-15T18:07:30Z</time></trkpt><trkpt lat="50.439438" lon="-4.076940"><ele>79.916</ele><time>2022-11-15T18:08:10Z</time></trkpt><trkpt lat="50.445418" lon="-4.078397"><ele>75.892</ele><time>2022-11-15T18:08:50Z</time></trkpt><trkpt lat="50.443624" lon="-4.078027"><ele>80.863</ele><time>2022-11-15T18:09:30Z</time></trkpt><trkpt lat="50.458280" lon="-4.071704"><ele>137.028</ele><time>2022-11-15T18:10:10Z</time></trkpt><trkpt lat="50.454735" lon="-4.075463"><ele>106.989</ele><time>2022-11-15T18:10:50Z</time></trkpt><trkpt lat="50.445998" lon="-4.078254"><ele>62.317</ele><time>2022-11-15T18:11:30Z</time></trkpt><trkpt lat="50.461931" lon="-4.073557"><ele>122.409</ele><time>2022-11-15T18:12:10Z</time></trkpt><trkpt lat="50.459721" lon="-4.071737"><ele>130.073</ele><time>2022-11-15T18:12:50Z</time></trkpt><trkpt lat="50.471409" lon="-4.083897"><ele>146.973</ele><time>2022-11-15T18:13:30Z</time></trkpt><trkpt lat="50.471405" lon="-4.081356"><ele>145.550</ele><time>2022-11-15T18:14:10Z</time></trkpt><trkpt lat="50.470289" lon="-4.079923"><ele>139.659</ele><time>2022-11-15T18:14:50Z</time></trkpt><trkpt lat="50.466911" lon="-4.089086"><ele>174.924</ele><time>2022-11-15T18:15:30Z</time></trkpt><trkpt lat="50.471409" lon="-4.083897"><ele>146.996</ele><time>2022-11-15T18:16:10Z</time></trkpt><trkpt lat="50.466911" lon="-4.089086"><ele>174.999</ele><time>2022-11-15T18:16:50Z</time></trkpt><trkpt lat="50.468557" lon="-4.093100"><ele>180.345</ele><time>2022-11-15T18:17:30Z</time></trkpt><trkpt lat="50.476785" lon="-4.087437"><ele>184.226</ele><time>2022-11-15T18:18:10Z</time></trkpt><trkpt lat="50.482332" lon="-4.087502"><ele>188.667</ele><time>2022-11-15T18:18:50Z</time></trkpt><trkpt lat="50.485941" lon="-4.091748"><ele>192.981</ele><time>2022-11-15T18:19:30Z</time></trkpt><trkpt lat="50.490672" lon="-4.087973"><ele>188.819</ele><time>2022-11-15T18:20:10Z</time></trkpt><trkpt lat="50.492337" lon="-4.091316"><ele>193.309</ele><time>2022-11-15T18:20:50Z</time></trkpt><trkpt lat="50.491692" lon="-4.086624"><ele>190.147</ele><time>2022-11-15T18:21:30Z</time></trkpt><trkpt lat="50.502030" lon="-4.101690"><ele>150.977</ele><time>2022-11-15T18:22:10Z</time></trkpt><trkpt lat="50.493988" lon="-4.096382"><ele>190.214</ele><time>2022-11-15T18:22:50Z</time></trkpt><trkpt lat="50.492337" lon="-4.091316"><ele>193.343</ele><time>2022-11-15T18:23:30Z</time></trkpt><trkpt lat="50.506413" lon="-4.102957"><ele>136.818</ele><time>2022-11-15T18:24:10Z</time></trkpt><trkpt lat="50.505723" lon="-4.101665"><ele>137.850</ele><time>2022-11-15T18:24:50Z</time></trkpt><trkpt lat="50.509556" lon="-4.107107"><ele>134.423</ele><time>2022-11-15T18:25:30Z</time></trkpt><trkpt lat="50.506413" lon="-4.102957"><ele>136.889</ele><time>2022-11-15T18:26:10Z</time></trkpt><trkpt lat="50.510577" lon="-4.109860"><ele>126.210</ele><time>2022-11-15T18:26:50Z</time></trkpt><trkpt lat="50.514948" lon="-4.123929"><ele>84.385</ele><time>2022-11-15T18:27:30Z</time></trkpt><trkpt lat="50.513961" lon="-4.122968"><ele>107.989</ele><time>2022-11-15T18:28:10Z</time></trkpt><trkpt lat="50.512356" lon="-4.116942"><ele>120.217</ele><time>2022-11-15T18:28:50Z</time></trkpt><trkpt lat="50.516774" lon="-4.126137"><ele>96.609</ele><time>2022-11-15T18:29:30Z</time></trkpt><trkpt lat="50.523913" lon="-4.126401"><ele>138.019</ele><time>2022-11-15T18:30:10Z</time></trkpt><trkpt lat="50.522361" lon="-4.125558"><ele>132.579</ele><time>2022-11-15T18:30:50Z</time></trkpt><trkpt lat="50.528373" lon="-4.130065"><ele>111.846</ele><time>2022-11-15T18:31:30Z</time></trkpt><trkpt lat="50.527135" lon="-4.128624"><ele>112.095</ele><time>2022-11-15T18:32:10Z</time></trkpt><trkpt lat="50.534490" lon="-4.137786"><ele>87.070</ele><time>2022-11-15T18:32:50Z</time></trkpt><trkpt lat="50.533968" lon="-4.136138"><ele>89.152</ele><time>2022-11-15T18:33:30Z</time></trkpt><trkpt lat="50.532417" lon="-4.135091"><ele>91.085</ele><time>2022-11-15T18:34:10Z</time></trkpt><trkpt lat="50.538041" lon="-4.149155"><ele>70.041</ele><time>2022-11-15T18:34:50Z</time></trkpt><trkpt lat="50.544769" lon="-4.151554"><ele>79.962</ele><time>2022-11-15T18:35:30Z</time></trkpt><trkpt lat="50.541301" lon="-4.155648"><ele>78.051</ele><time>2022-11-15T18:36:10Z</time></trkpt><trkpt lat="50.546961" lon="-4.145711"><ele>90.201</ele><time>2022-11-15T18:36:50Z</time></trkpt><trkpt lat="50.544769" lon="-4.151554"><ele>79.911</ele><time>2022-11-15T18:37:30Z</time></trkpt><trkpt lat="50.551097" lon="-4.143114"><ele>83.909</ele><time>2022-11-15T18:38:10Z</time></trkpt><trkpt lat="50.549095" lon="-4.143748"><ele>83.056</ele><time>2022-11-15T18:38:50Z</time></trkpt><trkpt lat="50.550100" lon="-4.144819"><ele>86.196</ele><time>2022-11-15T18:39:30Z</time></trkpt><trkpt lat="50.551514" lon="-4.146733"><ele>101.173</ele><time>2022-11-15T18:40:10Z</time></trkpt><trkpt lat="50.550939" lon="-4.142841"><ele>83.772</ele><time>2022-11-15T18:40:50Z</time></trkpt><trkpt lat="50.549095" lon="-4.143748"><ele>83.087</ele><time>2022-11-15T18:41:30Z</time></trkpt><trkpt lat="50.553651" lon="-4.140376"><ele>121.099</ele><time>2022-11-15T18:42:10Z</time></trkpt><trkpt lat="50.551048" lon="-4.144367"><ele>89.692</ele><time>2022-11-15T18:42:50Z</time></trkpt><trkpt lat="50.554377" lon="-4.138796"><ele>131.748</ele><time>2022-11-15T18:43:30Z</time></trkpt><trkpt lat="50.557126" lon="-4.137450"><ele>145.269</ele><time>2022-11-15T18:44:10Z</time></trkpt><trkpt lat="50.559798" lon="-4.131619"><ele>119.029</ele><time>2022-11-15T18:44:50Z</time></trkpt><trkpt lat="50.566565" lon="-4.127858"><ele>132.000</ele><time>2022-11-15T18:45:30Z</time></trkpt><trkpt lat="50.566268" lon="-4.122259"><ele>108.220</ele><time>2022-11-15T18:46:10Z</time></trkpt><trkpt lat="50.564526" lon="-4.125028"><ele>106.309</ele><time>2022-11-15T18:46:50Z</time></trkpt><trkpt lat="50.571102" lon="-4.115837"><ele>116.063</ele><time>2022-11-15T18:47:30Z</time></trkpt><trkpt lat="50.572044" lon="-4.105846"><ele>149.313</ele><time>2022-11-15T18:48:10Z</time></trkpt><trkpt lat="50.578904" lon="-4.100116"><ele>163.670</ele><time>2022-11-15T18:48:50Z</time></trkpt><trkpt lat="50.580641" lon="-4.103554"><ele>162.539</ele><time>2022-11-15T18:49:30Z</time></trkpt><trkpt lat="50.579025" lon="-4.100129"><ele>164.084</ele><time>2022-11-15T18:50:10Z</time></trkpt><trkpt lat="50.587872" lon="-4.107749"><ele>165.596</ele><time>2022-11-15T18:50:50Z</time></trkpt><trkpt lat="50.587170" lon="-4.105893"><ele>158.669</ele><time>2022-11-15T18:51:30Z</time></trkpt><trkpt lat="50.583310" lon="-4.106084"><ele>162.475</ele><time>2022-11-15T18:52:10Z</time></trkpt><trkpt lat="50.580641" lon="-4.103554"><ele>162.566</ele><time>2022-11-15T18:52:50Z</time></trkpt><trkpt lat="50.596937" lon="-4.117257"><ele>214.157</ele><time>2022-11-15T18:53:30Z</time></trkpt><trkpt lat="50.595181" lon="-4.112670"><ele>187.400</ele><time>2022-11-15T18:54:10Z</time></trkpt><trkpt lat="50.587872" lon="-4.107749"><ele>165.520</ele><time>2022-11-15T18:54:50Z</time></trkpt><trkpt lat="50.597711" lon="-4.120841"><ele>220.509</ele><time>2022-11-15T18:55:30Z</time></trkpt><trkpt lat="50.596330" lon="-4.119102"><ele>210.726</ele><time>2022-11-15T18:56:10Z</time></trkpt><trkpt lat="50.596937" lon="-4.117257"><ele>214.126</ele><time>2022-11-15T18:56:50Z</time></trkpt><trkpt lat="50.609849" lon="-4.140020"><ele>189.823</ele><time>2022-11-15T18:57:30Z</time></trkpt><trkpt lat="50.600946" lon="-4.138258"><ele>220.442</ele><time>2022-11-15T18:58:10Z</time></trkpt><trkpt lat="50.600307" lon="-4.124732"><ele>235.377</ele><time>2022-11-15T18:58:50Z</time></trkpt><trkpt lat="50.611036" lon="-4.141110"><ele>186.059</ele><time>2022-11-15T18:59:30Z</time></trkpt><trkpt lat="50.612881" lon="-4.148127"><ele>207.082</ele><time>2022-11-15T19:00:10Z</time></trkpt><trkpt lat="50.618035" lon="-4.143418"><ele>224.258</ele><time>2022-11-15T19:00:50Z</time></trkpt><trkpt lat="50.619455" lon="-4.147487"><ele>228.059</ele><time>2022-11-15T19:01:30Z</time></trkpt><trkpt lat="50.623876" lon="-4.142898"><ele>258.452</ele><time>2022-11-15T19:02:10Z</time></trkpt><trkpt lat="50.628392" lon="-4.130365"><ele>253.253</ele><time>2022-11-15T19:02:50Z</time></trkpt><trkpt lat="50.629369" lon="-4.124967"><ele>227.308</ele><time>2022-11-15T19:03:30Z</time></trkpt><trkpt lat="50.628411" lon="-4.118768"><ele>205.209</ele><time>2022-11-15T19:04:10Z</time></trkpt><trkpt lat="50.644193" lon="-4.107900"><ele>224.076</ele><time>2022-11-15T19:04:50Z</time></trkpt><trkpt lat="50.642320" lon="-4.110626"><ele>210.076</ele><time>2022-11-15T19:05:30Z</time></trkpt><trkpt lat="50.638622" lon="-4.108713"><ele>218.073</ele><time>2022-11-15T19:06:10Z</time></trkpt><trkpt lat="50.628444" lon="-4.118671"><ele>205.412</ele><time>2022-11-15T19:06:50Z</time></trkpt><trkpt lat="50.646600" lon="-4.104590"><ele>230.837</ele><time>2022-11-15T19:07:30Z</time></trkpt><trkpt lat="50.645628" lon="-4.106035"><ele>226.519</ele><time>2022-11-15T19:08:10Z</time></trkpt><trkpt lat="50.647973" lon="-4.099580"><ele>240.692</ele><time>2022-11-15T19:08:50Z</time></trkpt><trkpt lat="50.646600" lon="-4.104590"><ele>230.898</ele><time>2022-11-15T19:09:30Z</time></trkpt><trkpt lat="50.665454" lon="-4.092761"><ele>247.829</ele><time>2022-11-15T19:10:10Z</time></trkpt><trkpt lat="50.664379" lon="-4.093857"><ele>244.269</ele><time>2022-11-15T19:10:50Z</time></trkpt><trkpt lat="50.647973" lon="-4.099580"><ele>240.604</ele><time>2022-11-15T19:11:30Z</time></trkpt><trkpt lat="50.669698" lon="-4.086660"><ele>246.124</ele><time>2022-11-15T19:12:10Z</time></trkpt><trkpt lat="50.666512" lon="-4.090864"><ele>242.109</ele><time>2022-11-15T19:12:50Z</time></trkpt><trkpt lat="50.680391" lon="-4.077303"><ele>244.337</ele><time>2022-11-15T19:13:30Z</time></trkpt><trkpt lat="50.678396" lon="-4.077914"><ele>248.957</ele><time>2022-11-15T19:14:10Z</time></trkpt><trkpt lat="50.674720" lon="-4.082227"><ele>260.014</ele><time>2022-11-15T19:14:50Z</time></trkpt><trkpt lat="50.681691" lon="-4.077308"><ele>237.823</ele><time>2022-11-15T19:15:30Z</time></trkpt><trkpt lat="50.680475" lon="-4.077275"><ele>244.098</ele><time>2022-11-15T19:16:10Z</time></trkpt><trkpt lat="50.685633" lon="-4.078757"><ele>263.780</ele><time>2022-11-15T19:16:50Z</time></trkpt><trkpt lat="50.681691" lon="-4.077308"><ele>237.863</ele><time>2022-11-15T19:17:30Z</time></trkpt><trkpt lat="50.690883" lon="-4.076480"><ele>256.639</ele><time>2022-11-15T19:18:10Z</time></trkpt><trkpt lat="50.685633" lon="-4.078757"><ele>263.720</ele><time>2022-11-15T19:18:50Z</time></trkpt><trkpt lat="50.693278" lon="-4.073867"><ele>265.556</ele><time>2022-11-15T19:19:30Z</time></trkpt><trkpt lat="50.706856" lon="-4.057899"><ele>295.459</ele><time>2022-11-15T19:20:10Z</time></trkpt><trkpt lat="50.710518" lon="-4.048149"><ele>271.214</ele><time>2022-11-15T19:20:50Z</time></trkpt><trkpt lat="50.712222" lon="-4.036356"><ele>263.909</ele><time>2022-11-15T19:21:30Z</time></trkpt><trkpt lat="50.723009" lon="-4.020657"><ele>242.176</ele><time>2022-11-15T19:22:10Z</time></trkpt><trkpt lat="50.726767" lon="-4.006677"><ele>230.116</ele><time>2022-11-15T19:22:50Z</time></trkpt><trkpt lat="50.731865" lon="-3.999953"><ele>218.923</ele><time>2022-11-15T19:23:30Z</time></trkpt><trkpt lat="50.739447" lon="-4.001652"><ele>152.082</ele><time>2022-11-15T19:24:10Z</time></trkpt><trkpt lat="50.739209" lon="-4.001689"><ele>152.987</ele><time>2022-11-15T19:24:50Z</time></trkpt><trkpt lat="50.741969" lon="-4.001631"><ele>149.089</ele><time>2022-11-15T19:25:30Z</time></trkpt><trkpt lat="50.748689" lon="-3.995023"><ele>145.492</ele><time>2022-11-15T19:26:10Z</time></trkpt><trkpt lat="50.750417" lon="-4.003023"><ele>187.398</ele><time>2022-11-15T19:26:50Z</time></trkpt><trkpt lat="50.766942" lon="-4.001616"><ele>175.079</ele><time>2022-11-15T19:27:30Z</time></trkpt><trkpt lat="50.779145" lon="-3.997893"><ele>145.563</ele><time>2022-11-15T19:28:10Z</time></trkpt><trkpt lat="50.804584" lon="-4.011954"><ele>97.544</ele><time>2022-11-15T19:28:50Z</time></trkpt><trkpt lat="50.809456" lon="-4.010813"><ele>87.818</ele><time>2022-11-15T19:29:30Z</time></trkpt><trkpt lat="50.811796" lon="-4.012874"><ele>82.709</ele><time>2022-11-15T19:30:10Z</time></trkpt><trkpt lat="50.815836" lon="-4.041152"><ele>126.047</ele><time>2022-11-15T19:30:50Z</time></trkpt><trkpt lat="50.821829" lon="-4.050342"><ele>138.247</ele><time>2022-11-15T19:31:30Z</time></trkpt><trkpt lat="50.822191" lon="-4.059670"><ele>136.854</ele><time>2022-11-15T19:32:10Z</time></trkpt><trkpt lat="50.822320" lon="-4.051071"><ele>140.783</ele><time>2022-11-15T19:32:50Z</time></trkpt><trkpt lat="50.821141" lon="-4.067260"><ele>111.398</ele><time>2022-11-15T19:33:30Z</time></trkpt><trkpt lat="50.822173" lon="-4.061035"><ele>132.920</ele><time>2022-11-15T19:34:10Z</time></trkpt><trkpt lat="50.819457" lon="-4.072718"><ele>70.373</ele><time>2022-11-15T19:34:50Z</time></trkpt><trkpt lat="50.820995" lon="-4.068472"><ele>102.649</ele><time>2022-11-15T19:35:30Z</time></trkpt><trkpt lat="50.815437" lon="-4.079403"><ele>80.930</ele><time>2022-11-15T19:36:10Z</time></trkpt><trkpt lat="50.819247" lon="-4.091539"><ele>69.098</ele><time>2022-11-15T19:36:50Z</time></trkpt><trkpt lat="50.814045" lon="-4.096510"><ele>69.615</ele><time>2022-11-15T19:37:30Z</time></trkpt><trkpt lat="50.812611" lon="-4.101619"><ele>74.626</ele><time>2022-11-15T19:38:10Z</time></trkpt><trkpt lat="50.813899" lon="-4.113061"><ele>78.909</ele><time>2022-11-15T19:38:50Z</time></trkpt><trkpt lat="50.823333" lon="-4.117491"><ele>105.020</ele><time>2022-11-15T19:39:30Z</time></trkpt><trkpt lat="50.824123" lon="-4.133792"><ele>137.060</ele><time>2022-11-15T19:40:10Z</time></trkpt><trkpt lat="50.822500" lon="-4.144001"><ele>164.447</ele><time>2022-11-15T19:40:50Z</time></trkpt><trkpt lat="50.818186" lon="-4.154424"><ele>143.626</ele><time>2022-11-15T19:41:30Z</time></trkpt><trkpt lat="50.825759" lon="-4.156087"><ele>107.041</ele><time>2022-11-15T19:42:10Z</time></trkpt><trkpt lat="50.830252" lon="-4.151176"><ele>80.143</ele><time>2022-11-15T19:42:50Z</time></trkpt><trkpt lat="50.848195" lon="-4.149636"><ele>99.186</ele><time>2022-11-15T19:43:30Z</time></trkpt><trkpt lat="50.856118" lon="-4.153907"><ele>125.992</ele><time>2022-11-15T19:44:10Z</time></trkpt><trkpt lat="50.861453" lon="-4.152508"><ele>155.873</ele><time>2022-11-15T19:44:50Z</time></trkpt><trkpt lat="50.861674" lon="-4.132801"><ele>146.157</ele><time>2022-11-15T19:45:30Z</time></trkpt><trkpt lat="50.868602" lon="-4.117659"><ele>94.100</ele><time>2022-11-15T19:46:10Z</time></trkpt><trkpt lat="50.864484" lon="-4.123602"><ele>142.720</ele><time>2022-11-15T19:46:50Z</time></trkpt><trkpt lat="50.861818" lon="-4.131734"><ele>147.209</ele><time>2022-11-15T19:47:30Z</time></trkpt><trkpt lat="50.875050" lon="-4.109850"><ele>68.726</ele><time>2022-11-15T19:48:10Z</time></trkpt><trkpt lat="50.870365" lon="-4.113031"><ele>75.946</ele><time>2022-11-15T19:48:50Z</time></trkpt><trkpt lat="50.905811" lon="-4.134799"><ele>96.863</ele><time>2022-11-15T19:49:30Z</time></trkpt><trkpt lat="50.903284" lon="-4.130583"><ele>86.972</ele><time>2022-11-15T19:50:10Z</time></trkpt><trkpt lat="50.899355" lon="-4.128574"><ele>78.247</ele><time>2022-11-15T19:50:50Z</time></trkpt><trkpt lat="50.892862" lon="-4.131628"><ele>80.029</ele><time>2022-11-15T19:51:30Z</time></trkpt><trkpt lat="50.889739" lon="-4.130629"><ele>81.592</ele><time>2022-11-15T19:52:10Z</time></trkpt><trkpt lat="50.884392" lon="-4.118783"><ele>65.048</ele><time>2022-11-15T19:52:50Z</time></trkpt><trkpt lat="50.875667" lon="-4.109813"><ele>69.179</ele><time>2022-11-15T19:53:30Z</time></trkpt><trkpt lat="50.909842" lon="-4.147205"><ele>119.916</ele><time>2022-11-15T19:54:10Z</time></trkpt><trkpt lat="50.909155" lon="-4.140934"><ele>106.976</ele><time>2022-11-15T19:54:50Z</time></trkpt><trkpt lat="50.905811" lon="-4.134799"><ele>96.813</ele><time>2022-11-15T19:55:30Z</time></trkpt><trkpt lat="50.914446" lon="-4.161150"><ele>124.309</ele><time>2022-11-15T19:56:10Z</time></trkpt><trkpt lat="50.912905" lon="-4.160684"><ele>127.042</ele><time>2022-11-15T19:56:50Z</time></trkpt><trkpt lat="50.910513" lon="-4.155331"><ele>138.342</ele><time>2022-11-15T19:57:30Z</time></trkpt><trkpt lat="50.910005" lon="-4.148172"><ele>127.459</ele><time>2022-11-15T19:58:10Z</time></trkpt><trkpt lat="50.928128" lon="-4.171105"><ele>84.218</ele><time>2022-11-15T19:58:50Z</time></trkpt><trkpt lat="50.921389" lon="-4.162910"><ele>107.583</ele><time>2022-11-15T19:59:30Z</time></trkpt><trkpt lat="50.919687" lon="-4.158262"><ele>114.555</ele><time>2022-11-15T20:00:10Z</time></trkpt><trkpt lat="50.914446" lon="-4.161150"><ele>124.398</ele><time>2022-11-15T20:00:50Z</time></trkpt><trkpt lat="50.929015" lon="-4.171912"><ele>84.864</ele><time>2022-11-15T20:01:30Z</time></trkpt><trkpt lat="50.935991" lon="-4.180921"><ele>56.125</ele><time>2022-11-15T20:02:10Z</time></trkpt><trkpt lat="50.941554" lon="-4.177733"><ele>55.491</ele><time>2022-11-15T20:02:50Z</time></trkpt><trkpt lat="50.944746" lon="-4.179229"><ele>53.181</ele><time>2022-11-15T20:03:30Z</time></trkpt><trkpt lat="50.948865" lon="-4.176639"><ele>44.119</ele><time>2022-11-15T20:04:10Z</time></trkpt><trkpt lat="50.951384" lon="-4.170068"><ele>35.109</ele><time>2022-11-15T20:04:50Z</time></trkpt><trkpt lat="50.959271" lon="-4.167718"><ele>26.170</ele><time>2022-11-15T20:05:30Z</time></trkpt><trkpt lat="50.965279" lon="-4.173487"><ele>23.150</ele><time>2022-11-15T20:06:10Z</time></trkpt><trkpt lat="50.971100" lon="-4.171769"><ele>20.817</ele><time>2022-11-15T20:06:50Z</time></trkpt><trkpt lat="50.974253" lon="-4.173419"><ele>21.876</ele><time>2022-11-15T20:07:30Z</time></trkpt><trkpt lat="50.976437" lon="-4.187840"><ele>27.341</ele><time>2022-11-15T20:08:10Z</time></trkpt><trkpt lat="50.987263" lon="-4.197521"><ele>20.233</ele><time>2022-11-15T20:08:50Z</time></trkpt><trkpt lat="50.991446" lon="-4.197930"><ele>42.026</ele><time>2022-11-15T20:09:30Z</time></trkpt><trkpt lat="51.001122" lon="-4.193158"><ele>0.172</ele><time>2022-11-15T20:10:10Z</time></trkpt><trkpt lat="50.999776" lon="-4.192660"><ele>3.823</ele><time>2022-11-15T20:10:50Z</time></trkpt><trkpt lat="50.993786" lon="-4.196265"><ele>19.392</ele><time>2022-11-15T20:11:30Z</time></trkpt><trkpt lat="51.015984" lon="-4.200816"><ele>13.773</ele><time>2022-11-15T20:12:10Z</time></trkpt><trkpt lat="51.008541" lon="-4.202812"><ele>6.120</ele><time>2022-11-15T20:12:50Z</time></trkpt><trkpt lat="51.004891" lon="-4.199322"><ele>9.909</ele><time>2022-11-15T20:13:30Z</time></trkpt><trkpt lat="51.032415" lon="-4.196698"><ele>4.940</ele><time>2022-11-15T20:14:10Z</time></trkpt><trkpt lat="51.029797" lon="-4.197774"><ele>5.570</ele><time>2022-11-15T20:14:50Z</time></trkpt><trkpt lat="51.049003" lon="-4.179214"><ele>6.547</ele><time>2022-11-15T20:15:30Z</time></trkpt><trkpt lat="51.047813" lon="-4.179729"><ele>8.756</ele><time>2022-11-15T20:16:10Z</time></trkpt><trkpt lat="51.038215" lon="-4.188106"><ele>3.881</ele><time>2022-11-15T20:16:50Z</time></trkpt><trkpt lat="51.032651" lon="-4.196539"><ele>5.013</ele><time>2022-11-15T20:17:30Z</time></trkpt><trkpt lat="51.050313" lon="-4.179227"><ele>7.916</ele><time>2022-11-15T20:18:10Z</time></trkpt><trkpt lat="51.053582" lon="-4.179867"><ele>14.642</ele><time>2022-11-15T20:18:50Z</time></trkpt><trkpt lat="51.063366" lon="-4.175355"><ele>4.983</ele><time>2022-11-15T20:19:30Z</time></trkpt><trkpt lat="51.068607" lon="-4.169580"><ele>5.014</ele><time>2022-11-15T20:20:10Z</time></trkpt><trkpt lat="51.078407" lon="-4.123379"><ele>10.054</ele><time>2022-11-15T20:20:50Z</time></trkpt><trkpt lat="51.081863" lon="-4.113545"><ele>17.109</ele><time>2022-11-15T20:21:30Z</time></trkpt><trkpt lat="51.076368" lon="-4.068043"><ele>3.009</ele><time>2022-11-15T20:22:10Z</time></trkpt><trkpt lat="51.075313" lon="-4.068591"><ele>4.792</ele><time>2022-11-15T20:22:50Z</time></trkpt><trkpt lat="51.076060" lon="-4.065683"><ele>3.282</ele><time>2022-11-15T20:23:30Z</time></trkpt><trkpt lat="51.076621" lon="-4.067511"><ele>1.349</ele><time>2022-11-15T20:24:10Z</time></trkpt><trkpt lat="51.076898" lon="-4.060913"><ele>5.048</ele><time>2022-11-15T20:24:50Z</time></trkpt><trkpt lat="51.076898" lon="-4.060913"><ele>5.093</ele><time>2022-11-15T20:25:30Z</time></trkpt><trkpt lat="51.072633" lon="-4.056123"><ele>4.645</ele><time>2022-11-15T20:26:10Z</time></trkpt><trkpt lat="51.068849" lon="-4.057643"><ele>5.458</ele><time>2022-11-15T20:26:50Z</time></trkpt><trkpt lat="51.067335" lon="-4.048854"><ele>25.074</ele><time>2022-11-15T20:27:30Z</time></trkpt><trkpt lat="51.072629" lon="-4.041920"><ele>11.625</ele><time>2022-11-15T20:28:10Z</time></trkpt><trkpt lat="51.073504" lon="-4.034809"><ele>19.398</ele><time>2022-11-15T20:28:50Z</time></trkpt><trkpt lat="51.073226" lon="-4.040101"><ele>10.415</ele><time>2022-11-15T20:29:30Z</time></trkpt><trkpt lat="51.077587" lon="-4.025328"><ele>33.526</ele><time>2022-11-15T20:30:10Z</time></trkpt><trkpt lat="51.074248" lon="-4.028024"><ele>23.909</ele><time>2022-11-15T20:30:50Z</time></trkpt><trkpt lat="51.073666" lon="-4.030001"><ele>20.210</ele><time>2022-11-15T20:31:30Z</time></trkpt><trkpt lat="51.080205" lon="-4.023286"><ele>37.850</ele><time>2022-11-15T20:32:10Z</time></trkpt><trkpt lat="51.080944" lon="-4.020136"><ele>44.237</ele><time>2022-11-15T20:32:50Z</time></trkpt><trkpt lat="51.080705" lon="-3.995638"><ele>151.336</ele><time>2022-11-15T20:33:30Z</time></trkpt><trkpt lat="51.083743" lon="-3.983544"><ele>159.431</ele><time>2022-11-15T20:34:10Z</time></trkpt><trkpt lat="51.082529" lon="-3.971436"><ele>173.193</ele><time>2022-11-15T20:34:50Z</time></trkpt><trkpt lat="51.084582" lon="-3.958143"><ele>191.526</ele><time>2022-11-15T20:35:30Z</time></trkpt><trkpt lat="51.083184" lon="-3.945731"><ele>224.032</ele><time>2022-11-15T20:36:10Z</time></trkpt><trkpt lat="51.084550" lon="-3.937704"><ele>223.253</ele><time>2022-11-15T20:36:50Z</time></trkpt><trkpt lat="51.096024" lon="-3.908400"><ele>253.487</ele><time>2022-11-15T20:37:30Z</time></trkpt><trkpt lat="51.110390" lon="-3.908296"><ele>265.542</ele><time>2022-11-15T20:38:10Z</time></trkpt><trkpt lat="51.112255" lon="-3.910750"><ele>272.726</ele><time>2022-11-15T20:38:50Z</time></trkpt><trkpt lat="51.113508" lon="-3.919647"><ele>262.809</ele><time>2022-11-15T20:39:30Z</time></trkpt><trkpt lat="51.119274" lon="-3.921053"><ele>279.979</ele><time>2022-11-15T20:40:10Z</time></trkpt><trkpt lat="51.122754" lon="-3.930455"><ele>267.689</ele><time>2022-11-15T20:40:50Z</time></trkpt><trkpt lat="51.124447" lon="-3.930486"><ele>279.086</ele><time>2022-11-15T20:41:30Z</time></trkpt><trkpt lat="51.130551" lon="-3.910155"><ele>302.565</ele><time>2022-11-15T20:42:10Z</time></trkpt><trkpt lat="51.128793" lon="-3.898439"><ele>260.020</ele><time>2022-11-15T20:42:50Z</time></trkpt><trkpt lat="51.125827" lon="-3.892155"><ele>202.332</ele><time>2022-11-15T20:43:30Z</time></trkpt><trkpt lat="51.125741" lon="-3.869011"><ele>322.695</ele><time>2022-11-15T20:44:10Z</time></trkpt><trkpt lat="51.133677" lon="-3.854591"><ele>395.881</ele><time>2022-11-15T20:44:50Z</time></trkpt><trkpt lat="51.134500" lon="-3.845453"><ele>450.452</ele><time>2022-11-15T20:45:30Z</time></trkpt><trkpt lat="51.138964" lon="-3.834708"><ele>424.481</ele><time>2022-11-15T20:46:10Z</time></trkpt><trkpt lat="51.132541" lon="-3.827636"><ele>460.561</ele><time>2022-11-15T20:46:50Z</time></trkpt><trkpt lat="51.127117" lon="-3.827402"><ele>452.517</ele><time>2022-11-15T20:47:30Z</time></trkpt><trkpt lat="51.123189" lon="-3.821452"><ele>459.509</ele><time>2022-11-15T20:48:10Z</time></trkpt><trkpt lat="51.111318" lon="-3.791361"><ele>479.649</ele><time>2022-11-15T20:48:50Z</time></trkpt><trkpt lat="51.107023" lon="-3.777452"><ele>450.089</ele><time>2022-11-15T20:49:30Z</time></trkpt><trkpt lat="51.105752" lon="-3.767309"><ele>404.286</ele><time>2022-11-15T20:50:10Z</time></trkpt><trkpt lat="51.089832" lon="-3.741461"><ele>386.235</ele><time>2022-11-15T20:50:50Z</time></trkpt><trkpt lat="51.084825" lon="-3.726154"><ele>391.510</ele><time>2022-11-15T20:51:30Z</time></trkpt><trkpt lat="51.077930" lon="-3.722513"><ele>398.062</ele><time>2022-11-15T20:52:10Z</time></trkpt><trkpt lat="51.076796" lon="-3.707487"><ele>390.425</ele><time>2022-11-15T20:52:50Z</time></trkpt><trkpt lat="51.073545" lon="-3.696520"><ele>357.181</ele><time>2022-11-15T20:53:30Z</time></trkpt><trkpt lat="51.061294" lon="-3.700951"><ele>351.142</ele><time>2022-11-15T20:54:10Z</time></trkpt><trkpt lat="51.061412" lon="-3.691079"><ele>349.286</ele><time>2022-11-15T20:54:50Z</time></trkpt><trkpt lat="51.058519" lon="-3.673699"><ele>337.760</ele><time>2022-11-15T20:55:30Z</time></trkpt><trkpt lat="51.045420" lon="-3.622228"><ele>345.026</ele><time>2022-11-15T20:56:10Z</time></trkpt><trkpt lat="51.044124" lon="-3.606942"><ele>317.509</ele><time>2022-11-15T20:56:50Z</time></trkpt><trkpt lat="51.045519" lon="-3.582104"><ele>297.969</ele><time>2022-11-15T20:57:30Z</time></trkpt><trkpt lat="51.043478" lon="-3.572407"><ele>264.719</ele><time>2022-11-15T20:58:10Z</time></trkpt><trkpt lat="51.037291" lon="-3.558536"><ele>247.216</ele><time>2022-11-15T20:58:50Z</time></trkpt><trkpt lat="51.035646" lon="-3.557793"><ele>218.725</ele><time>2022-11-15T20:59:30Z</time></trkpt><trkpt lat="51.036637" lon="-3.554629"><ele>191.740</ele><time>2022-11-15T21:00:10Z</time></trkpt><trkpt lat="51.039426" lon="-3.553451"><ele>134.532</ele><time>2022-11-15T21:00:50Z</time></trkpt><trkpt lat="51.035896" lon="-3.546695"><ele>131.695</ele><time>2022-11-15T21:01:30Z</time></trkpt><trkpt lat="51.039426" lon="-3.553451"><ele>134.511</ele><time>2022-11-15T21:02:10Z</time></trkpt><trkpt lat="51.034229" lon="-3.543608"><ele>129.292</ele><time>2022-11-15T21:02:50Z</time></trkpt><trkpt lat="51.021035" lon="-3.527842"><ele>126.734</ele><time>2022-11-15T21:03:30Z</time></trkpt><trkpt lat="51.021023" lon="-3.523678"><ele>132.455</ele><time>2022-11-15T21:04:10Z</time></trkpt><trkpt lat="51.023610" lon="-3.519022"><ele>131.610</ele><time>2022-11-15T21:04:50Z</time></trkpt><trkpt lat="51.022358" lon="-3.507202"><ele>145.509</ele><time>2022-11-15T21:05:30Z</time></trkpt><trkpt lat="51.023433" lon="-3.504286"><ele>159.454</ele><time>2022-11-15T21:06:10Z</time></trkpt><trkpt lat="51.021944" lon="-3.496803"><ele>170.014</ele><time>2022-11-15T21:06:50Z</time></trkpt><trkpt lat="51.014820" lon="-3.493373"><ele>164.071</ele><time>2022-11-15T21:07:30Z</time></trkpt><trkpt lat="51.016118" lon="-3.482116"><ele>158.020</ele><time>2022-11-15T21:08:10Z</time></trkpt><trkpt lat="51.012886" lon="-3.479185"><ele>144.015</ele><time>2022-11-15T21:08:50Z</time></trkpt><trkpt lat="51.011708" lon="-3.474041"><ele>136.527</ele><time>2022-11-15T21:09:30Z</time></trkpt><trkpt lat="51.006199" lon="-3.475446"><ele>162.410</ele><time>2022-11-15T21:10:10Z</time></trkpt><trkpt lat="51.006406" lon="-3.463071"><ele>129.176</ele><time>2022-11-15T21:10:50Z</time></trkpt><trkpt lat="50.999746" lon="-3.470106"><ele>115.047</ele><time>2022-11-15T21:11:30Z</time></trkpt><trkpt lat="50.998996" lon="-3.474710"><ele>111.858</ele><time>2022-11-15T21:12:10Z</time></trkpt><trkpt lat="50.990977" lon="-3.486745"><ele>104.752</ele><time>2022-11-15T21:12:50Z</time></trkpt><trkpt lat="50.988919" lon="-3.483160"><ele>108.717</ele><time>2022-11-15T21:13:30Z</time></trkpt><trkpt lat="50.990744" lon="-3.486589"><ele>104.009</ele><time>2022-11-15T21:14:10Z</time></trkpt><trkpt lat="50.986146" lon="-3.467283"><ele>180.556</ele><time>2022-11-15T21:14:50Z</time></trkpt><trkpt lat="50.988447" lon="-3.474271"><ele>157.026</ele><time>2022-11-15T21:15:30Z</time></trkpt><trkpt lat="50.988366" lon="-3.480416"><ele>127.343</ele><time>2022-11-15T21:16:10Z</time></trkpt><trkpt lat="50.986177" lon="-3.467032"><ele>179.932</ele><time>2022-11-15T21:16:50Z</time></trkpt><trkpt lat="50.987052" lon="-3.454445"><ele>157.657</ele><time>2022-11-15T21:17:30Z</time></trkpt><trkpt lat="50.984498" lon="-3.440015"><ele>216.649</ele><time>2022-11-15T21:18:10Z</time></trkpt><trkpt lat="50.986706" lon="-3.431518"><ele>203.922</ele><time>2022-11-15T21:18:50Z</time></trkpt><trkpt lat="50.983344" lon="-3.417839"><ele>199.118</ele><time>2022-11-15T21:19:30Z</time></trkpt><trkpt lat="50.985643" lon="-3.416575"><ele>199.039</ele><time>2022-11-15T21:20:10Z</time></trkpt><trkpt lat="50.983620" lon="-3.407964"><ele>203.068</ele><time>2022-11-15T21:20:50Z</time></trkpt><trkpt lat="50.986426" lon="-3.401077"><ele>225.042</ele><time>2022-11-15T21:21:30Z</time></trkpt><trkpt lat="50.994555" lon="-3.400022"><ele>192.326</ele><time>2022-11-15T21:22:10Z</time></trkpt><trkpt lat="50.993776" lon="-3.369557"><ele>145.809</ele><time>2022-11-15T21:22:50Z</time></trkpt><trkpt lat="50.994946" lon="-3.352114"><ele>129.277</ele><time>2022-11-15T21:23:30Z</time></trkpt><trkpt lat="50.992616" lon="-3.336354"><ele>138.417</ele><time>2022-11-15T21:24:10Z</time></trkpt><trkpt lat="50.986234" lon="-3.331340"><ele>142.364</ele><time>2022-11-15T21:24:50Z</time></trkpt><trkpt lat="50.985099" lon="-3.324386"><ele>122.083</ele><time>2022-11-15T21:25:30Z</time></trkpt><trkpt lat="50.981219" lon="-3.324468"><ele>114.798</ele><time>2022-11-15T21:26:10Z</time></trkpt><trkpt lat="50.977001" lon="-3.315016"><ele>100.080</ele><time>2022-11-15T21:26:50Z</time></trkpt><trkpt lat="50.974144" lon="-3.314242"><ele>79.193</ele><time>2022-11-15T21:27:30Z</time></trkpt><trkpt lat="50.972125" lon="-3.309687"><ele>98.759</ele><time>2022-11-15T21:28:10Z</time></trkpt><trkpt lat="50.972293" lon="-3.302540"><ele>94.550</ele><time>2022-11-15T21:28:50Z</time></trkpt><trkpt lat="50.973819" lon="-3.300790"><ele>93.739</ele><time>2022-11-15T21:29:30Z</time></trkpt><trkpt lat="50.981459" lon="-3.302813"><ele>83.101</ele><time>2022-11-15T21:30:10Z</time></trkpt><trkpt lat="50.984518" lon="-3.299919"><ele>81.021</ele><time>2022-11-15T21:30:50Z</time></trkpt><trkpt lat="50.985387" lon="-3.304458"><ele>73.209</ele><time>2022-11-15T21:31:30Z</time></trkpt><trkpt lat="50.993749" lon="-3.304883"><ele>70.694</ele><time>2022-11-15T21:32:10Z</time></trkpt><trkpt lat="50.991118" lon="-3.296618"><ele>70.924</ele><time>2022-11-15T21:32:50Z</time></trkpt><trkpt lat="50.991126" lon="-3.282740"><ele>70.051</ele><time>2022-11-15T21:33:30Z</time></trkpt><trkpt lat="50.995544" lon="-3.274283"><ele>137.690</ele><time>2022-11-15T21:34:10Z</time></trkpt><trkpt lat="50.995351" lon="-3.270568"><ele>121.585</ele><time>2022-11-15T21:34:50Z</time></trkpt><trkpt lat="51.001378" lon="-3.262209"><ele>90.147</ele><time>2022-11-15T21:35:30Z</time></trkpt><trkpt lat="51.003450" lon="-3.253405"><ele>75.760</ele><time>2022-11-15T21:36:10Z</time></trkpt><trkpt lat="51.002483" lon="-3.245331"><ele>74.146</ele><time>2022-11-15T21:36:50Z</time></trkpt><trkpt lat="51.000001" lon="-3.238971"><ele>60.757</ele><time>2022-11-15T21:37:30Z</time></trkpt><trkpt lat="51.000206" lon="-3.233597"><ele>54.999</ele><time>2022-11-15T21:38:10Z</time></trkpt><trkpt lat="50.997988" lon="-3.228024"><ele>49.807</ele><time>2022-11-15T21:38:50Z</time></trkpt><trkpt lat="50.999662" lon="-3.219119"><ele>62.027</ele><time>2022-11-15T21:39:30Z</time></trkpt><trkpt lat="51.005489" lon="-3.203753"><ele>56.809</ele><time>2022-11-15T21:40:10Z</time></trkpt><trkpt lat="51.009712" lon="-3.207763"><ele>55.080</ele><time>2022-11-15T21:40:50Z</time></trkpt><trkpt lat="51.011344" lon="-3.201444"><ele>47.490</ele><time>2022-11-15T21:41:30Z</time></trkpt><trkpt lat="51.013709" lon="-3.201146"><ele>38.067</ele><time>2022-11-15T21:42:10Z</time></trkpt><trkpt lat="51.013507" lon="-3.195984"><ele>35.426</ele><time>2022-11-15T21:42:50Z</time></trkpt><trkpt lat="51.015028" lon="-3.196309"><ele>36.191</ele><time>2022-11-15T21:43:30Z</time></trkpt><trkpt lat="51.015878" lon="-3.187866"><ele>34.573</ele><time>2022-11-15T21:44:10Z</time></trkpt><trkpt lat="51.014011" lon="-3.181209"><ele>41.416</ele><time>2022-11-15T21:44:50Z</time></trkpt><trkpt lat="51.018479" lon="-3.173003"><ele>34.372</ele><time>2022-11-15T21:45:30Z</time></trkpt><trkpt lat="51.016235" lon="-3.160456"><ele>28.033</ele><time>2022-11-15T21:46:10Z</time></trkpt><trkpt lat="51.018739" lon="-3.154700"><ele>28.185</ele><time>2022-11-15T21:46:50Z</time></trkpt><trkpt lat="51.015922" lon="-3.151765"><ele>31.789</ele><time>2022-11-15T21:47:30Z</time></trkpt><trkpt lat="51.015277" lon="-3.146816"><ele>32.517</ele><time>2022-11-15T21:48:10Z</time></trkpt><trkpt lat="51.015874" lon="-3.130998"><ele>24.109</ele><time>2022-11-15T21:48:50Z</time></trkpt><trkpt lat="51.016996" lon="-3.134817"><ele>39.339</ele><time>2022-11-15T21:49:30Z</time></trkpt><trkpt lat="51.015700" lon="-3.141882"><ele>30.319</ele><time>2022-11-15T21:50:10Z</time></trkpt><trkpt lat="51.016806" lon="-3.121265"><ele>21.346</ele><time>2022-11-15T21:50:50Z</time></trkpt><trkpt lat="51.016902" lon="-3.124900"><ele>19.265</ele><time>2022-11-15T21:51:30Z</time></trkpt><trkpt lat="51.015531" lon="-3.119789"><ele>23.960</ele><time>2022-11-15T21:52:10Z</time></trkpt><trkpt lat="51.016778" lon="-3.115956"><ele>17.692</ele><time>2022-11-15T21:52:50Z</time></trkpt><trkpt lat="51.015189" lon="-3.106741"><ele>19.135</ele><time>2022-11-15T21:53:30Z</time></trkpt><trkpt lat="51.017162" lon="-3.102805"><ele>19.111</ele><time>2022-11-15T21:54:10Z</time></trkpt><trkpt lat="51.018666" lon="-3.103334"><ele>17.052</ele><time>2022-11-15T21:54:50Z</time></trkpt><trkpt lat="51.022240" lon="-3.098297"><ele>18.916</ele><time>2022-11-15T21:55:30Z</time></trkpt><trkpt lat="51.021631" lon="-3.093436"><ele>13.576</ele><time>2022-11-15T21:56:10Z</time></trkpt><trkpt lat="51.029519" lon="-3.080632"><ele>13.513</ele><time>2022-11-15T21:56:50Z</time></trkpt><trkpt lat="51.025736" lon="-3.088451"><ele>14.409</ele><time>2022-11-15T21:57:30Z</time></trkpt><trkpt lat="51.029555" lon="-3.080216"><ele>13.522</ele><time>2022-11-15T21:58:10Z</time></trkpt><trkpt lat="51.030198" lon="-3.070166"><ele>11.612</ele><time>2022-11-15T21:58:50Z</time></trkpt><trkpt lat="51.027258" lon="-3.060895"><ele>14.159</ele><time>2022-11-15T21:59:30Z</time></trkpt><trkpt lat="51.024258" lon="-3.037932"><ele>16.048</ele><time>2022-11-15T22:00:10Z</time></trkpt><trkpt lat="51.027570" lon="-3.022639"><ele>13.083</ele><time>2022-11-15T22:00:50Z</time></trkpt><trkpt lat="51.040811" lon="-3.002570"><ele>13.285</ele><time>2022-11-15T22:01:30Z</time></trkpt><trkpt lat="51.038935" lon="-3.003846"><ele>12.078</ele><time>2022-11-15T22:02:10Z</time></trkpt><trkpt lat="51.033955" lon="-3.012580"><ele>14.324</ele><time>2022-11-15T22:02:50Z</time></trkpt><trkpt lat="51.042653" lon="-2.998634"><ele>11.615</ele><time>2022-11-15T22:03:30Z</time></trkpt><trkpt lat="51.045037" lon="-2.997828"><ele>13.086</ele><time>2022-11-15T22:04:10Z</time></trkpt><trkpt lat="51.045519" lon="-2.994835"><ele>14.160</ele><time>2022-11-15T22:04:50Z</time></trkpt><trkpt lat="51.056794" lon="-2.987814"><ele>6.126</ele><time>2022-11-15T22:05:30Z</time></trkpt><trkpt lat="51.063025" lon="-2.988850"><ele>14.009</ele><time>2022-11-15T22:06:10Z</time></trkpt><trkpt lat="51.074748" lon="-2.996577"><ele>8.119</ele><time>2022-11-15T22:06:50Z</time></trkpt><trkpt lat="51.068158" lon="-2.993454"><ele>10.429</ele><time>2022-11-15T22:07:30Z</time></trkpt><trkpt lat="51.065528" lon="-2.988546"><ele>11.336</ele><time>2022-11-15T22:08:10Z</time></trkpt><trkpt lat="51.063025" lon="-2.988850"><ele>14.015</ele><time>2022-11-15T22:08:50Z</time></trkpt><trkpt lat="51.075162" lon="-2.996284"><ele>8.820</ele><time>2022-11-15T22:09:30Z</time></trkpt><trkpt lat="51.079171" lon="-2.989171"><ele>5.062</ele><time>2022-11-15T22:10:10Z</time></trkpt><trkpt lat="51.078434" lon="-2.978441"><ele>7.675</ele><time>2022-11-15T22:10:50Z</time></trkpt><trkpt lat="51.082312" lon="-2.976547"><ele>6.731</ele><time>2022-11-15T22:11:30Z</time></trkpt><trkpt lat="51.087272" lon="-2.969704"><ele>7.962</ele><time>2022-11-15T22:12:10Z</time></trkpt><trkpt lat="51.105331" lon="-2.975500"><ele>7.014</ele><time>2022-11-15T22:12:50Z</time></trkpt><trkpt lat="51.109630" lon="-2.980924"><ele>7.754</ele><time>2022-11-15T22:13:30Z</time></trkpt><trkpt lat="51.110930" lon="-2.986461"><ele>8.809</ele><time>2022-11-15T22:14:10Z</time></trkpt><trkpt lat="51.122776" lon="-2.998890"><ele>7.009</ele><time>2022-11-15T22:14:50Z</time></trkpt><trkpt lat="51.116039" lon="-2.995593"><ele>8.362</ele><time>2022-11-15T22:15:30Z</time></trkpt><trkpt lat="51.112871" lon="-2.988462"><ele>6.592</ele><time>2022-11-15T22:16:10Z</time></trkpt><trkpt lat="51.125799" lon="-2.999344"><ele>8.149</ele><time>2022-11-15T22:16:50Z</time></trkpt><trkpt lat="51.122776" lon="-2.998890"><ele>7.098</ele><time>2022-11-15T22:17:30Z</time></trkpt><trkpt lat="51.125283" lon="-2.997937"><ele>9.053</ele><time>2022-11-15T22:18:10Z</time></trkpt><trkpt lat="51.117083" lon="-2.992807"><ele>7.595</ele><time>2022-11-15T22:18:50Z</time></trkpt><trkpt lat="51.116783" lon="-2.984044"><ele>8.088</ele><time>2022-11-15T22:19:30Z</time></trkpt><trkpt lat="51.113213" lon="-2.976207"><ele>7.834</ele><time>2022-11-15T22:20:10Z</time></trkpt><trkpt lat="51.111510" lon="-2.967018"><ele>5.695</ele><time>2022-11-15T22:20:50Z</time></trkpt><trkpt lat="51.112749" lon="-2.960188"><ele>5.996</ele><time>2022-11-15T22:21:30Z</time></trkpt><trkpt lat="51.118952" lon="-2.956731"><ele>5.231</ele><time>2022-11-15T22:22:10Z</time></trkpt><trkpt lat="51.119329" lon="-2.954041"><ele>2.724</ele><time>2022-11-15T22:22:50Z</time></trkpt><trkpt lat="51.125942" lon="-2.947070"><ele>8.209</ele><time>2022-11-15T22:23:30Z</time></trkpt><trkpt lat="51.128931" lon="-2.952560"><ele>5.820</ele><time>2022-11-15T22:24:10Z</time></trkpt><trkpt lat="51.135292" lon="-2.939545"><ele>9.990</ele><time>2022-11-15T22:24:50Z</time></trkpt><trkpt lat="51.136274" lon="-2.935685"><ele>6.527</ele><time>2022-11-15T22:25:30Z</time></trkpt><trkpt lat="51.134803" lon="-2.930388"><ele>5.786</ele><time>2022-11-15T22:26:10Z</time></trkpt><trkpt lat="51.136738" lon="-2.930083"><ele>2.611</ele><time>2022-11-15T22:26:50Z</time></trkpt><trkpt lat="51.148497" lon="-2.945347"><ele>5.493</ele><time>2022-11-15T22:27:30Z</time></trkpt><trkpt lat="51.152659" lon="-2.942358"><ele>16.436</ele><time>2022-11-15T22:28:10Z</time></trkpt><trkpt lat="51.154309" lon="-2.934379"><ele>26.922</ele><time>2022-11-15T22:28:50Z</time></trkpt><trkpt lat="51.160339" lon="-2.925203"><ele>42.383</ele><time>2022-11-15T22:29:30Z</time></trkpt><trkpt lat="51.158939" lon="-2.920659"><ele>33.951</ele><time>2022-11-15T22:30:10Z</time></trkpt><trkpt lat="51.157528" lon="-2.920641"><ele>33.001</ele><time>2022-11-15T22:30:50Z</time></trkpt><trkpt lat="51.157828" lon="-2.909826"><ele>41.011</ele><time>2022-11-15T22:31:30Z</time></trkpt><trkpt lat="51.155925" lon="-2.895727"><ele>28.209</ele><time>2022-11-15T22:32:10Z</time></trkpt><trkpt lat="51.153389" lon="-2.890300"><ele>40.826</ele><time>2022-11-15T22:32:50Z</time></trkpt><trkpt lat="51.149967" lon="-2.874428"><ele>44.976</ele><time>2022-11-15T22:33:30Z</time></trkpt><trkpt lat="51.137511" lon="-2.845938"><ele>52.023</ele><time>2022-11-15T22:34:10Z</time></trkpt><trkpt lat="51.140171" lon="-2.839180"><ele>39.492</ele><time>2022-11-15T22:34:50Z</time></trkpt><trkpt lat="51.140413" lon="-2.826839"><ele>32.537</ele><time>2022-11-15T22:35:30Z</time></trkpt><trkpt lat="51.138705" lon="-2.826223"><ele>37.799</ele><time>2022-11-15T22:36:10Z</time></trkpt><trkpt lat="51.138468" lon="-2.821255"><ele>37.032</ele><time>2022-11-15T22:36:50Z</time></trkpt><trkpt lat="51.132537" lon="-2.810833"><ele>70.778</ele><time>2022-11-15T22:37:30Z</time></trkpt><trkpt lat="51.132721" lon="-2.806827"><ele>66.679</ele><time>2022-11-15T22:38:10Z</time></trkpt><trkpt lat="51.131363" lon="-2.805101"><ele>55.339</ele><time>2022-11-15T22:38:50Z</time></trkpt><trkpt lat="51.132165" lon="-2.797996"><ele>47.001</ele><time>2022-11-15T22:39:30Z</time></trkpt><trkpt lat="51.136195" lon="-2.789363"><ele>34.321</ele><time>2022-11-15T22:40:10Z</time></trkpt><trkpt lat="51.135282" lon="-2.781230"><ele>27.409</ele><time>2022-11-15T22:40:50Z</time></trkpt><trkpt lat="51.144510" lon="-2.775554"><ele>1.864</ele><time>2022-11-15T22:41:30Z</time></trkpt><trkpt lat="51.142357" lon="-2.760459"><ele>3.524</ele><time>2022-11-15T22:42:10Z</time></trkpt><trkpt lat="51.147264" lon="-2.760142"><ele>2.611</ele><time>2022-11-15T22:42:50Z</time></trkpt><trkpt lat="51.149742" lon="-2.755954"><ele>3.940</ele><time>2022-11-15T22:43:30Z</time></trkpt><trkpt lat="51.150071" lon="-2.736784"><ele>6.225</ele><time>2022-11-15T22:44:10Z</time></trkpt><trkpt lat="51.146164" lon="-2.735506"><ele>4.077</ele><time>2022-11-15T22:44:50Z</time></trkpt><trkpt lat="51.146805" lon="-2.699245"><ele>98.930</ele><time>2022-11-15T22:45:30Z</time></trkpt><trkpt lat="51.149381" lon="-2.701159"><ele>97.696</ele><time>2022-11-15T22:46:10Z</time></trkpt><trkpt lat="51.149848" lon="-2.704126"><ele>91.447</ele><time>2022-11-15T22:46:50Z</time></trkpt><trkpt lat="51.148491" lon="-2.712496"><ele>38.088</ele><time>2022-11-15T22:47:30Z</time></trkpt><trkpt lat="51.148287" lon="-2.679798"><ele>26.224</ele><time>2022-11-15T22:48:10Z</time></trkpt><trkpt lat="51.146709" lon="-2.694885"><ele>102.226</ele><time>2022-11-15T22:48:50Z</time></trkpt><trkpt lat="51.157189" lon="-2.692354"><ele>15.509</ele><time>2022-11-15T22:49:30Z</time></trkpt><trkpt lat="51.154500" lon="-2.689441"><ele>24.229</ele><time>2022-11-15T22:50:10Z</time></trkpt><trkpt lat="51.155436" lon="-2.683350"><ele>23.019</ele><time>2022-11-15T22:50:50Z</time></trkpt><trkpt lat="51.153689" lon="-2.680094"><ele>17.076</ele><time>2022-11-15T22:51:30Z</time></trkpt><trkpt lat="51.148287" lon="-2.679798"><ele>26.275</ele><time>2022-11-15T22:52:10Z</time></trkpt><trkpt lat="51.159801" lon="-2.700364"><ele>12.450</ele><time>2022-11-15T22:52:50Z</time></trkpt><trkpt lat="51.159089" lon="-2.693347"><ele>12.092</ele><time>2022-11-15T22:53:30Z</time></trkpt><trkpt lat="51.157189" lon="-2.692354"><ele>15.565</ele><time>2022-11-15T22:54:10Z</time></trkpt><trkpt lat="51.161631" lon="-2.700412"><ele>7.121</ele><time>2022-11-15T22:54:50Z</time></trkpt><trkpt lat="51.159899" lon="-2.700426"><ele>11.762</ele><time>2022-11-15T22:55:30Z</time></trkpt><trkpt lat="51.167559" lon="-2.697734"><ele>7.299</ele><time>2022-11-15T22:56:10Z</time></trkpt><trkpt lat="51.169252" lon="-2.695062"><ele>5.507</ele><time>2022-11-15T22:56:50Z</time></trkpt><trkpt lat="51.179144" lon="-2.651429"><ele>4.927</ele><time>2022-11-15T22:57:30Z</time></trkpt><trkpt lat="51.181499" lon="-2.651560"><ele>6.009</ele><time>2022-11-15T22:58:10Z</time></trkpt><trkpt lat="51.187375" lon="-2.643245"><ele>54.520</ele><time>2022-11-15T22:58:50Z</time></trkpt><trkpt lat="51.191180" lon="-2.630082"><ele>45.980</ele><time>2022-11-15T22:59:30Z</time></trkpt><trkpt lat="51.197919" lon="-2.628601"><ele>43.067</ele><time>2022-11-15T23:00:10Z</time></trkpt><trkpt lat="51.201013" lon="-2.635633"><ele>47.426</ele><time>2022-11-15T23:00:50Z</time></trkpt><trkpt lat="51.204226" lon="-2.651980"><ele>35.021</ele><time>2022-11-15T23:01:30Z</time></trkpt><trkpt lat="51.207881" lon="-2.643075"><ele>45.483</ele><time>2022-11-15T23:02:10Z</time></trkpt><trkpt lat="51.210440" lon="-2.646756"><ele>52.336</ele><time>2022-11-15T23:02:50Z</time></trkpt><trkpt lat="51.209191" lon="-2.653598"><ele>39.132</ele><time>2022-11-15T23:03:30Z</time></trkpt><trkpt lat="51.212871" lon="-2.657208"><ele>55.783</ele><time>2022-11-15T23:04:10Z</time></trkpt><trkpt lat="51.218596" lon="-2.670859"><ele>55.896</ele><time>2022-11-15T23:04:50Z</time></trkpt><trkpt lat="51.226291" lon="-2.671563"><ele>59.331</ele><time>2022-11-15T23:05:30Z</time></trkpt><trkpt lat="51.228179" lon="-2.681156"><ele>98.324</ele><time>2022-11-15T23:06:10Z</time></trkpt><trkpt lat="51.236417" lon="-2.691990"><ele>210.409</ele><time>2022-11-15T23:06:50Z</time></trkpt><trkpt lat="51.238434" lon="-2.692302"><ele>219.170</ele><time>2022-11-15T23:07:30Z</time></trkpt><trkpt lat="51.249082" lon="-2.679995"><ele>251.450</ele><time>2022-11-15T23:08:10Z</time></trkpt><trkpt lat="51.253999" lon="-2.677740"><ele>242.097</ele><time>2022-11-15T23:08:50Z</time></trkpt><trkpt lat="51.262511" lon="-2.681294"><ele>257.056</ele><time>2022-11-15T23:09:30Z</time></trkpt><trkpt lat="51.264431" lon="-2.692146"><ele>255.811</ele><time>2022-11-15T23:10:10Z</time></trkpt><trkpt lat="51.277930" lon="-2.699872"><ele>271.553</ele><time>2022-11-15T23:10:50Z</time></trkpt><trkpt lat="51.283887" lon="-2.706489"><ele>238.796</ele><time>2022-11-15T23:11:30Z</time></trkpt><trkpt lat="51.286896" lon="-2.700904"><ele>254.792</ele><time>2022-11-15T23:12:10Z</time></trkpt><trkpt lat="51.297157" lon="-2.668222"><ele>264.033</ele><time>2022-11-15T23:12:50Z</time></trkpt><trkpt lat="51.302516" lon="-2.660134"><ele>242.967</ele><time>2022-11-15T23:13:30Z</time></trkpt><trkpt lat="51.300586" lon="-2.653635"><ele>231.881</ele><time>2022-11-15T23:14:10Z</time></trkpt><trkpt lat="51.315748" lon="-2.637573"><ele>82.319</ele><time>2022-11-15T23:14:50Z</time></trkpt><trkpt lat="51.309503" lon="-2.641429"><ele>97.609</ele><time>2022-11-15T23:15:30Z</time></trkpt><trkpt lat="51.304337" lon="-2.647770"><ele>170.527</ele><time>2022-11-15T23:16:10Z</time></trkpt><trkpt lat="51.300586" lon="-2.653635"><ele>231.867</ele><time>2022-11-15T23:16:50Z</time></trkpt><trkpt lat="51.316596" lon="-2.637052"><ele>82.274</ele><time>2022-11-15T23:17:30Z</time></trkpt><trkpt lat="51.322863" lon="-2.640631"><ele>67.383</ele><time>2022-11-15T23:18:10Z</time></trkpt><trkpt lat="51.329541" lon="-2.641379"><ele>55.648</ele><time>2022-11-15T23:18:50Z</time></trkpt><trkpt lat="51.339099" lon="-2.639087"><ele>60.090</ele><time>2022-11-15T23:19:30Z</time></trkpt><trkpt lat="51.343882" lon="-2.633821"><ele>63.023</ele><time>2022-11-15T23:20:10Z</time></trkpt><trkpt lat="51.351802" lon="-2.634443"><ele>58.029</ele><time>2022-11-15T23:20:50Z</time></trkpt><trkpt lat="51.350996" lon="-2.612601"><ele>68.280</ele><time>2022-11-15T23:21:30Z</time></trkpt><trkpt lat="51.360957" lon="-2.608344"><ele>47.684</ele><time>2022-11-15T23:22:10Z</time></trkpt><trkpt lat="51.366915" lon="-2.610298"><ele>48.207</ele><time>2022-11-15T23:22:50Z</time></trkpt><trkpt lat="51.367933" lon="-2.605488"><ele>50.817</ele><time>2022-11-15T23:23:30Z</time></trkpt><trkpt lat="51.371247" lon="-2.604682"><ele>65.109</ele><time>2022-11-15T23:24:10Z</time></trkpt><trkpt lat="51.375622" lon="-2.590493"><ele>89.829</ele><time>2022-11-15T23:24:50Z</time></trkpt><trkpt lat="51.378180" lon="-2.586407"><ele>77.599</ele><time>2022-11-15T23:25:30Z</time></trkpt><trkpt lat="51.382392" lon="-2.586461"><ele>69.746</ele><time>2022-11-15T23:26:10Z</time></trkpt><trkpt lat="51.386740" lon="-2.573299"><ele>115.895</ele><time>2022-11-15T23:26:50Z</time></trkpt><trkpt lat="51.385825" lon="-2.576182"><ele>107.270</ele><time>2022-11-15T23:27:30Z</time></trkpt><trkpt lat="51.400740" lon="-2.552380"><ele>94.742</ele><time>2022-11-15T23:28:10Z</time></trkpt><trkpt lat="51.393088" lon="-2.560516"><ele>101.245</ele><time>2022-11-15T23:28:50Z</time></trkpt><trkpt lat="51.386740" lon="-2.573299"><ele>115.861</ele><time>2022-11-15T23:29:30Z</time></trkpt><trkpt lat="51.404913" lon="-2.552054"><ele>91.012</ele><time>2022-11-15T23:30:10Z</time></trkpt><trkpt lat="51.401849" lon="-2.552748"><ele>92.337</ele><time>2022-11-15T23:30:50Z</time></trkpt><trkpt lat="51.409656" lon="-2.554453"><ele>77.249</ele><time>2022-11-15T23:31:30Z</time></trkpt><trkpt lat="51.405948" lon="-2.555233"><ele>83.313</ele><time>2022-11-15T23:32:10Z</time></trkpt><trkpt lat="51.409878" lon="-2.556538"><ele>74.509</ele><time>2022-11-15T23:32:50Z</time></trkpt><trkpt lat="51.418705" lon="-2.555142"><ele>53.564</ele><time>2022-11-15T23:33:30Z</time></trkpt><trkpt lat="51.426377" lon="-2.558307"><ele>32.164</ele><time>2022-11-15T23:34:10Z</time></trkpt><trkpt lat="51.433698" lon="-2.555859"><ele>36.781</ele><time>2022-11-15T23:34:50Z</time></trkpt><trkpt lat="51.431928" lon="-2.555949"><ele>33.110</ele><time>2022-11-15T23:35:30Z</time></trkpt><trkpt lat="51.439244" lon="-2.560749"><ele>25.365</ele><time>2022-11-15T23:36:10Z</time></trkpt><trkpt lat="51.443289" lon="-2.558063"><ele>14.247</ele><time>2022-11-15T23:36:50Z</time></trkpt><trkpt lat="51.445276" lon="-2.561683"><ele>12.060</ele><time>2022-11-15T23:37:30Z</time></trkpt><trkpt lat="51.445916" lon="-2.559803"><ele>10.756</ele><time>2022-11-15T23:38:10Z</time></trkpt><trkpt lat="51.447642" lon="-2.576981"><ele>9.047</ele><time>2022-11-15T23:38:50Z</time></trkpt><trkpt lat="51.443963" lon="-2.575910"><ele>10.925</ele><time>2022-11-15T23:39:30Z</time></trkpt><trkpt lat="51.443272" lon="-2.571477"><ele>10.826</ele><time>2022-11-15T23:40:10Z</time></trkpt><trkpt lat="51.445276" lon="-2.561683"><ele>12.008</ele><time>2022-11-15T23:40:50Z</time></trkpt><trkpt lat="51.446118" lon="-2.576962"><ele>8.009</ele><time>2022-11-15T23:41:30Z</time></trkpt><trkpt lat="51.444624" lon="-2.576943"><ele>11.053</ele><time>2022-11-15T23:42:10Z</time></trkpt><trkpt lat="51.448379" lon="-2.578210"><ele>11.373</ele><time>2022-11-15T23:42:50Z</time></trkpt><trkpt lat="51.447642" lon="-2.576981"><ele>9.050</ele><time>2022-11-15T23:43:30Z</time></trkpt><trkpt lat="51.449942" lon="-2.596746"><ele>21.419</ele><time>2022-11-15T23:44:10Z</time></trkpt><trkpt lat="51.451504" lon="-2.596309"><ele>19.454</ele><time>2022-11-15T23:44:50Z</time></trkpt><trkpt lat="51.449942" lon="-2.596746"><ele>21.486</ele><time>2022-11-15T23:45:30Z</time></trkpt><trkpt lat="51.454505" lon="-2.597825"><ele>30.999</ele><time>2022-11-15T23:46:10Z</time></trkpt><trkpt lat="51.456185" lon="-2.597592"><ele>28.255</ele><time>2022-11-15T23:46:50Z</time></trkpt><trkpt lat="51.455340" lon="-2.601524"><ele>47.516</ele><time>2022-11-15T23:47:30Z</time></trkpt><trkpt lat="51.456517" lon="-2.603235"><ele>64.271</ele><time>2022-11-15T23:48:10Z</time></trkpt><trkpt lat="51.462091" lon="-2.605424"><ele>69.041</ele><time>2022-11-15T23:48:50Z</time></trkpt><trkpt lat="51.464168" lon="-2.608424"><ele>60.315</ele><time>2022-11-15T23:49:30Z</time></trkpt><trkpt lat="51.470560" lon="-2.609811"><ele>75.009</ele><time>2022-11-15T23:50:10Z</time></trkpt><trkpt lat="51.470950" lon="-2.613100"><ele>96.078</ele><time>2022-11-15T23:50:50Z</time></trkpt><trkpt lat="51.474070" lon="-2.616244"><ele>98.778</ele><time>2022-11-15T23:51:30Z</time></trkpt><trkpt lat="51.474140" lon="-2.614374"><ele>99.945</ele><time>2022-11-15T23:52:10Z</time></trkpt><trkpt lat="51.471595" lon="-2.613577"><ele>96.814</ele><time>2022-11-15T23:52:50Z</time></trkpt><trkpt lat="51.471574" lon="-2.617751"><ele>99.379</ele><time>2022-11-15T23:53:30Z</time></trkpt><trkpt lat="51.474415" lon="-2.624079"><ele>95.051</ele><time>2022-11-15T23:54:10Z</time></trkpt><trkpt lat="51.475943" lon="-2.622943"><ele>95.024</ele><time>2022-11-15T23:54:50Z</time></trkpt><trkpt lat="51.474581" lon="-2.624254"><ele>95.080</ele><time>2022-11-15T23:55:30Z</time></trkpt><trkpt lat="51.478484" lon="-2.619298"><ele>88.251</ele><time>2022-11-15T23:56:10Z</time></trkpt><trkpt lat="51.483461" lon="-2.627561"><ele>40.141</ele><time>2022-11-15T23:56:50Z</time></trkpt><trkpt lat="51.497395" lon="-2.615844"><ele>45.081</ele><time>2022-11-15T23:57:30Z</time></trkpt><trkpt lat="51.496082" lon="-2.615101"><ele>45.309</ele><time>2022-11-15T23:58:10Z</time></trkpt><trkpt lat="51.495602" lon="-2.616568"><ele>35.509</ele><time>2022-11-15T23:58:50Z</time></trkpt><trkpt lat="51.502012" lon="-2.625267"><ele>58.235</ele><time>2022-11-15T23:59:30Z</time></trkpt><trkpt lat="51.499606" lon="-2.623958"><ele>64.715</ele><time>2022-11-16T00:00:10Z</time></trkpt><trkpt lat="51.501729" lon="-2.616246"><ele>70.742</ele><time>2022-11-16T00:00:50Z</time></trkpt><trkpt lat="51.507464" lon="-2.626632"><ele>36.881</ele><time>2022-11-16T00:01:30Z</time></trkpt><trkpt lat="51.502643" lon="-2.625615"><ele>51.946</ele><time>2022-11-16T00:02:10Z</time></trkpt><trkpt lat="51.509355" lon="-2.630172"><ele>40.298</ele><time>2022-11-16T00:02:50Z</time></trkpt><trkpt lat="51.526598" lon="-2.613174"><ele>62.521</ele><time>2022-11-16T00:03:30Z</time></trkpt><trkpt lat="51.517924" lon="-2.623255"><ele>41.447</ele><time>2022-11-16T00:04:10Z</time></trkpt><trkpt lat="51.533414" lon="-2.621873"><ele>14.558</ele><time>2022-11-16T00:04:50Z</time></trkpt><trkpt lat="51.530375" lon="-2.619841"><ele>35.717</ele><time>2022-11-16T00:05:30Z</time></trkpt><trkpt lat="51.526685" lon="-2.613162"><ele>63.287</ele><time>2022-11-16T00:06:10Z</time></trkpt><trkpt lat="51.534647" lon="-2.618987"><ele>15.015</ele><time>2022-11-16T00:06:50Z</time></trkpt><trkpt lat="51.533414" lon="-2.621873"><ele>14.509</ele><time>2022-11-16T00:07:30Z</time></trkpt><trkpt lat="51.541203" lon="-2.631336"><ele>3.762</ele><time>2022-11-16T00:08:10Z</time></trkpt><trkpt lat="51.537871" lon="-2.622457"><ele>9.452</ele><time>2022-11-16T00:08:50Z</time></trkpt><trkpt lat="51.544444" lon="-2.639236"><ele>5.369</ele><time>2022-11-16T00:09:30Z</time></trkpt><trkpt lat="51.543382" lon="-2.638766"><ele>6.478</ele><time>2022-11-16T00:10:10Z</time></trkpt><trkpt lat="51.541203" lon="-2.631336"><ele>3.783</ele><time>2022-11-16T00:10:50Z</time></trkpt><trkpt lat="51.546115" lon="-2.644012"><ele>5.035</ele><time>2022-11-16T00:11:30Z</time></trkpt><trkpt lat="51.544444" lon="-2.639236"><ele>5.318</ele><time>2022-11-16T00:12:10Z</time></trkpt><trkpt lat="51.549065" lon="-2.645180"><ele>6.754</ele><time>2022-11-16T00:12:50Z</time></trkpt><trkpt lat="51.546115" lon="-2.644012"><ele>5.045</ele><time>2022-11-16T00:13:30Z</time></trkpt><trkpt lat="51.553570" lon="-2.654965"><ele>7.797</ele><time>2022-11-16T00:14:10Z</time></trkpt><trkpt lat="51.551996" lon="-2.653585"><ele>5.723</ele><time>2022-11-16T00:14:50Z</time></trkpt><trkpt lat="51.550302" lon="-2.649399"><ele>6.925</ele><time>2022-11-16T00:15:30Z</time></trkpt><trkpt lat="51.555328" lon="-2.655555"><ele>6.009</ele><time>2022-11-16T00:16:10Z</time></trkpt><trkpt lat="51.553570" lon="-2.654965"><ele>7.790</ele><time>2022-11-16T00:16:50Z</time></trkpt><trkpt lat="51.564842" lon="-2.660432"><ele>5.050</ele><time>2022-11-16T00:17:30Z</time></trkpt><trkpt lat="51.560539" lon="-2.658451"><ele>6.147</ele><time>2022-11-16T00:18:10Z</time></trkpt><trkpt lat="51.568660" lon="-2.650708"><ele>8.586</ele><time>2022-11-16T00:18:50Z</time></trkpt><trkpt lat="51.566479" lon="-2.658687"><ele>7.441</ele><time>2022-11-16T00:19:30Z</time></trkpt><trkpt lat="51.565225" lon="-2.660437"><ele>5.033</ele><time>2022-11-16T00:20:10Z</time></trkpt><trkpt lat="51.569482" lon="-2.647132"><ele>4.186</ele><time>2022-11-16T00:20:50Z</time></trkpt><trkpt lat="51.570522" lon="-2.650892"><ele>6.022</ele><time>2022-11-16T00:21:30Z</time></trkpt><trkpt lat="51.569591" lon="-2.639864"><ele>6.563</ele><time>2022-11-16T00:22:10Z</time></trkpt><trkpt lat="51.569495" lon="-2.642761"><ele>6.749</ele><time>2022-11-16T00:22:50Z</time></trkpt><trkpt lat="51.570877" lon="-2.637194"><ele>7.002</ele><time>2022-11-16T00:23:30Z</time></trkpt><trkpt lat="51.574749" lon="-2.634093"><ele>5.722</ele><time>2022-11-16T00:24:10Z</time></trkpt><trkpt lat="51.578300" lon="-2.640490"><ele>7.009</ele><time>2022-11-16T00:24:50Z</time></trkpt><trkpt lat="51.575062" lon="-2.634014"><ele>5.535</ele><time>2022-11-16T00:25:30Z</time></trkpt><trkpt lat="51.588424" lon="-2.632162"><ele>6.045</ele><time>2022-11-16T00:26:10Z</time></trkpt><trkpt lat="51.581742" lon="-2.639727"><ele>6.072</ele><time>2022-11-16T00:26:50Z</time></trkpt><trkpt lat="51.578309" lon="-2.640728"><ele>7.011</ele><time>2022-11-16T00:27:30Z</time></trkpt><trkpt lat="51.599284" lon="-2.621710"><ele>22.696</ele><time>2022-11-16T00:28:10Z</time></trkpt><trkpt lat="51.597565" lon="-2.630785"><ele>17.838</ele><time>2022-11-16T00:28:50Z</time></trkpt><trkpt lat="51.591284" lon="-2.634324"><ele>7.091</ele><time>2022-11-16T00:29:30Z</time></trkpt><trkpt lat="51.588424" lon="-2.632162"><ele>6.017</ele><time>2022-11-16T00:30:10Z</time></trkpt><trkpt lat="51.607125" lon="-2.633292"><ele>0.078</ele><time>2022-11-16T00:30:50Z</time></trkpt><trkpt lat="51.601633" lon="-2.621899"><ele>27.836</ele><time>2022-11-16T00:31:30Z</time></trkpt><trkpt lat="51.599284" lon="-2.621710"><ele>22.617</ele><time>2022-11-16T00:32:10Z</time></trkpt><trkpt lat="51.609045" lon="-2.638321"><ele>0.018</ele><time>2022-11-16T00:32:50Z</time></trkpt><trkpt lat="51.607125" lon="-2.633292"><ele>0.009</ele><time>2022-11-16T00:33:30Z</time></trkpt><trkpt lat="51.619800" lon="-2.668486"><ele>17.724</ele><time>2022-11-16T00:34:10Z</time></trkpt><trkpt lat="51.617551" lon="-2.660733"><ele>8.024</ele><time>2022-11-16T00:34:50Z</time></trkpt><trkpt lat="51.620933" lon="-2.670378"><ele>30.521</ele><time>2022-11-16T00:35:30Z</time></trkpt><trkpt lat="51.620870" lon="-2.668857"><ele>23.140</ele><time>2022-11-16T00:36:10Z</time></trkpt><trkpt lat="51.629545" lon="-2.681352"><ele>64.525</ele><time>2022-11-16T00:36:50Z</time></trkpt><trkpt lat="51.621828" lon="-2.673268"><ele>39.397</ele><time>2022-11-16T00:37:30Z</time></trkpt><trkpt lat="51.620933" lon="-2.670378"><ele>30.570</ele><time>2022-11-16T00:38:10Z</time></trkpt><trkpt lat="51.635918" lon="-2.686462"><ele>83.956</ele><time>2022-11-16T00:38:50Z</time></trkpt><trkpt lat="51.629966" lon="-2.681843"><ele>64.327</ele><time>2022-11-16T00:39:30Z</time></trkpt><trkpt lat="51.638450" lon="-2.687562"><ele>102.448</ele><time>2022-11-16T00:40:10Z</time></trkpt><trkpt lat="51.635918" lon="-2.686462"><ele>83.961</ele><time>2022-11-16T00:40:50Z</time></trkpt><trkpt lat="51.635918" lon="-2.686462"><ele>83.917</ele><time>2022-11-16T00:41:30Z</time></trkpt><trkpt lat="51.638450" lon="-2.687562"><ele>102.409</ele><time>2022-11-16T00:42:10Z</time></trkpt><trkpt lat="51.637532" lon="-2.697675"><ele>68.375</ele><time>2022-11-16T00:42:50Z</time></trkpt><trkpt lat="51.634907" lon="-2.705238"><ele>30.855</ele><time>2022-11-16T00:43:30Z</time></trkpt><trkpt lat="51.630726" lon="-2.704205"><ele>34.742</ele><time>2022-11-16T00:44:10Z</time></trkpt><trkpt lat="51.629118" lon="-2.706439"><ele>33.651</ele><time>2022-11-16T00:44:50Z</time></trkpt><trkpt lat="51.626638" lon="-2.703066"><ele>18.916</ele><time>2022-11-16T00:45:30Z</time></trkpt><trkpt lat="51.623190" lon="-2.716282"><ele>34.928</ele><time>2022-11-16T00:46:10Z</time></trkpt><trkpt lat="51.620411" lon="-2.713083"><ele>26.181</ele><time>2022-11-16T00:46:50Z</time></trkpt><trkpt lat="51.618298" lon="-2.716639"><ele>18.167</ele><time>2022-11-16T00:47:30Z</time></trkpt><trkpt lat="51.616926" lon="-2.725397"><ele>25.128</ele><time>2022-11-16T00:48:10Z</time></trkpt><trkpt lat="51.610637" lon="-2.737941"><ele>14.926</ele><time>2022-11-16T00:48:50Z</time></trkpt><trkpt lat="51.608523" lon="-2.739348"><ele>13.047</ele><time>2022-11-16T00:49:30Z</time></trkpt><trkpt lat="51.608237" lon="-2.747759"><ele>14.011</ele><time>2022-11-16T00:50:10Z</time></trkpt><trkpt lat="51.610687" lon="-2.764718"><ele>23.509</ele><time>2022-11-16T00:50:50Z</time></trkpt><trkpt lat="51.605271" lon="-2.763875"><ele>9.163</ele><time>2022-11-16T00:51:30Z</time></trkpt><trkpt lat="51.603852" lon="-2.758386"><ele>13.233</ele><time>2022-11-16T00:52:10Z</time></trkpt><trkpt lat="51.599617" lon="-2.758029"><ele>19.580</ele><time>2022-11-16T00:52:50Z</time></trkpt><trkpt lat="51.595211" lon="-2.752068"><ele>18.089</ele><time>2022-11-16T00:53:30Z</time></trkpt><trkpt lat="51.590565" lon="-2.752977"><ele>12.074</ele><time>2022-11-16T00:54:10Z</time></trkpt><trkpt lat="51.587281" lon="-2.758316"><ele>12.056</ele><time>2022-11-16T00:54:50Z</time></trkpt><trkpt lat="51.584008" lon="-2.759775"><ele>7.639</ele><time>2022-11-16T00:55:30Z</time></trkpt><trkpt lat="51.580853" lon="-2.770385"><ele>6.095</ele><time>2022-11-16T00:56:10Z</time></trkpt><trkpt lat="51.582288" lon="-2.778937"><ele>6.646</ele><time>2022-11-16T00:56:50Z</time></trkpt><trkpt lat="51.578876" lon="-2.776769"><ele>6.494</ele><time>2022-11-16T00:57:30Z</time></trkpt><trkpt lat="51.573304" lon="-2.794727"><ele>7.057</ele><time>2022-11-16T00:58:10Z</time></trkpt><trkpt lat="51.578946" lon="-2.799226"><ele>2.022</ele><time>2022-11-16T00:58:50Z</time></trkpt><trkpt lat="51.577907" lon="-2.802968"><ele>5.309</ele><time>2022-11-16T00:59:30Z</time></trkpt><trkpt lat="51.580156" lon="-2.804722"><ele>10.660</ele><time>2022-11-16T01:00:10Z</time></trkpt><trkpt lat="51.579555" lon="-2.808936"><ele>7.510</ele><time>2022-11-16T01:00:50Z</time></trkpt><trkpt lat="51.576449" lon="-2.814595"><ele>7.827</ele><time>2022-11-16T01:01:30Z</time></trkpt><trkpt lat="51.571763" lon="-2.814086"><ele>6.266</ele><time>2022-11-16T01:02:10Z</time></trkpt><trkpt lat="51.565449" lon="-2.821502"><ele>6.061</ele><time>2022-11-16T01:02:50Z</time></trkpt><trkpt lat="51.560925" lon="-2.831966"><ele>6.043</ele><time>2022-11-16T01:03:30Z</time></trkpt><trkpt lat="51.552833" lon="-2.843752"><ele>6.066</ele><time>2022-11-16T01:04:10Z</time></trkpt><trkpt lat="51.552915" lon="-2.848469"><ele>7.712</ele><time>2022-11-16T01:04:50Z</time></trkpt><trkpt lat="51.556240" lon="-2.846144"><ele>4.983</ele><time>2022-11-16T01:05:30Z</time></trkpt><trkpt lat="51.557268" lon="-2.847793"><ele>5.029</ele><time>2022-11-16T01:06:10Z</time></trkpt><trkpt lat="51.557306" lon="-2.858143"><ele>5.500</ele><time>2022-11-16T01:06:50Z</time></trkpt><trkpt lat="51.566372" lon="-2.869153"><ele>7.020</ele><time>2022-11-16T01:07:30Z</time></trkpt><trkpt lat="51.559297" lon="-2.892299"><ele>6.309</ele><time>2022-11-16T01:08:10Z</time></trkpt><trkpt lat="51.565038" lon="-2.900394"><ele>4.113</ele><time>2022-11-16T01:08:50Z</time></trkpt><trkpt lat="51.564860" lon="-2.904267"><ele>5.593</ele><time>2022-11-16T01:09:30Z</time></trkpt><trkpt lat="51.560783" lon="-2.909605"><ele>6.160</ele><time>2022-11-16T01:10:10Z</time></trkpt><trkpt lat="51.564575" lon="-2.911212"><ele>9.669</ele><time>2022-11-16T01:10:50Z</time></trkpt><trkpt lat="51.564953" lon="-2.914666"><ele>4.644</ele><time>2022-11-16T01:11:30Z</time></trkpt><trkpt lat="51.558369" lon="-2.934261"><ele>5.976</ele><time>2022-11-16T01:12:10Z</time></trkpt><trkpt lat="51.561939" lon="-2.941048"><ele>8.019</ele><time>2022-11-16T01:12:50Z</time></trkpt><trkpt lat="51.560307" lon="-2.951870"><ele>5.735</ele><time>2022-11-16T01:13:30Z</time></trkpt><trkpt lat="51.562106" lon="-2.960795"><ele>7.316</ele><time>2022-11-16T01:14:10Z</time></trkpt><trkpt lat="51.569905" lon="-2.969770"><ele>7.163</ele><time>2022-11-16T01:14:50Z</time></trkpt><trkpt lat="51.566156" lon="-2.969609"><ele>7.644</ele><time>2022-11-16T01:15:30Z</time></trkpt><trkpt lat="51.564140" lon="-2.965522"><ele>7.018</ele><time>2022-11-16T01:16:10Z</time></trkpt><trkpt lat="51.576549" lon="-2.968753"><ele>9.009</ele><time>2022-11-16T01:16:50Z</time></trkpt><trkpt lat="51.569905" lon="-2.969770"><ele>7.127</ele><time>2022-11-16T01:17:30Z</time></trkpt><trkpt lat="51.576779" lon="-2.972675"><ele>6.777</ele><time>2022-11-16T01:18:10Z</time></trkpt><trkpt lat="51.576116" lon="-2.978843"><ele>9.084</ele><time>2022-11-16T01:18:50Z</time></trkpt><trkpt lat="51.576116" lon="-2.978843"><ele>9.033</ele><time>2022-11-16T01:19:30Z</time></trkpt><trkpt lat="51.574614" lon="-2.984353"><ele>7.218</ele><time>2022-11-16T01:20:10Z</time></trkpt><trkpt lat="51.571140" lon="-2.987345"><ele>4.790</ele><time>2022-11-16T01:20:50Z</time></trkpt><trkpt lat="51.570153" lon="-2.991235"><ele>9.833</ele><time>2022-11-16T01:21:30Z</time></trkpt><trkpt lat="51.572529" lon="-2.993905"><ele>9.049</ele><time>2022-11-16T01:22:10Z</time></trkpt><trkpt lat="51.566276" lon="-3.009105"><ele>12.810</ele><time>2022-11-16T01:22:50Z</time></trkpt><trkpt lat="51.561519" lon="-3.011726"><ele>9.669</ele><time>2022-11-16T01:23:30Z</time></trkpt><trkpt lat="51.562338" lon="-3.010285"><ele>8.404</ele><time>2022-11-16T01:24:10Z</time></trkpt><trkpt lat="51.565789" lon="-3.009475"><ele>13.024</ele><time>2022-11-16T01:24:50Z</time></trkpt><trkpt lat="51.556897" lon="-3.018737"><ele>6.309</ele><time>2022-11-16T01:25:30Z</time></trkpt><trkpt lat="51.560308" lon="-3.010769"><ele>8.977</ele><time>2022-11-16T01:26:10Z</time></trkpt><trkpt lat="51.561519" lon="-3.011726"><ele>9.697</ele><time>2022-11-16T01:26:50Z</time></trkpt><trkpt lat="51.558796" lon="-3.029732"><ele>14.094</ele><time>2022-11-16T01:27:30Z</time></trkpt><trkpt lat="51.555508" lon="-3.021603"><ele>7.083</ele><time>2022-11-16T01:28:10Z</time></trkpt><trkpt lat="51.556897" lon="-3.018737"><ele>6.318</ele><time>2022-11-16T01:28:50Z</time></trkpt><trkpt lat="51.572229" lon="-3.040506"><ele>24.050</ele><time>2022-11-16T01:29:30Z</time></trkpt><trkpt lat="51.565971" lon="-3.035534"><ele>20.943</ele><time>2022-11-16T01:30:10Z</time></trkpt><trkpt lat="51.561443" lon="-3.035461"><ele>24.579</ele><time>2022-11-16T01:30:50Z</time></trkpt><trkpt lat="51.558796" lon="-3.029732"><ele>14.070</ele><time>2022-11-16T01:31:30Z</time></trkpt><trkpt lat="51.577521" lon="-3.045351"><ele>33.453</ele><time>2022-11-16T01:32:10Z</time></trkpt><trkpt lat="51.573316" lon="-3.070573"><ele>100.004</ele><time>2022-11-16T01:32:50Z</time></trkpt><trkpt lat="51.569966" lon="-3.077472"><ele>86.114</ele><time>2022-11-16T01:33:30Z</time></trkpt><trkpt lat="51.564491" lon="-3.083475"><ele>68.009</ele><time>2022-11-16T01:34:10Z</time></trkpt><trkpt lat="51.562802" lon="-3.094039"><ele>38.736</ele><time>2022-11-16T01:34:50Z</time></trkpt><trkpt lat="51.567235" lon="-3.098252"><ele>44.046</ele><time>2022-11-16T01:35:30Z</time></trkpt><trkpt lat="51.569549" lon="-3.104422"><ele>54.493</ele><time>2022-11-16T01:36:10Z</time></trkpt><trkpt lat="51.575849" lon="-3.108833"><ele>49.322</ele><time>2022-11-16T01:36:50Z</time></trkpt><trkpt lat="51.577123" lon="-3.114446"><ele>61.897</ele><time>2022-11-16T01:37:30Z</time></trkpt><trkpt lat="51.579161" lon="-3.116405"><ele>68.269</ele><time>2022-11-16T01:38:10Z</time></trkpt><trkpt lat="51.579519" lon="-3.125889"><ele>54.132</ele><time>2022-11-16T01:38:50Z</time></trkpt><trkpt lat="51.580906" lon="-3.124727"><ele>57.848</ele><time>2022-11-16T01:39:30Z</time></trkpt><trkpt lat="51.588717" lon="-3.132404"><ele>65.129</ele><time>2022-11-16T01:40:10Z</time></trkpt><trkpt lat="51.593172" lon="-3.143688"><ele>69.321</ele><time>2022-11-16T01:40:50Z</time></trkpt><trkpt lat="51.594734" lon="-3.141426"><ele>51.841</ele><time>2022-11-16T01:41:30Z</time></trkpt><trkpt lat="51.597392" lon="-3.145025"><ele>85.205</ele><time>2022-11-16T01:42:10Z</time></trkpt><trkpt lat="51.591087" lon="-3.165621"><ele>88.909</ele><time>2022-11-16T01:42:50Z</time></trkpt><trkpt lat="51.593134" lon="-3.169508"><ele>91.893</ele><time>2022-11-16T01:43:30Z</time></trkpt><trkpt lat="51.590436" lon="-3.181171"><ele>62.183</ele><time>2022-11-16T01:44:10Z</time></trkpt><trkpt lat="51.588153" lon="-3.182179"><ele>60.030</ele><time>2022-11-16T01:44:50Z</time></trkpt><trkpt lat="51.586299" lon="-3.193961"><ele>65.639</ele><time>2022-11-16T01:45:30Z</time></trkpt><trkpt lat="51.589140" lon="-3.199317"><ele>63.174</ele><time>2022-11-16T01:46:10Z</time></trkpt><trkpt lat="51.587463" lon="-3.203501"><ele>70.556</ele><time>2022-11-16T01:46:50Z</time></trkpt><trkpt lat="51.582692" lon="-3.202780"><ele>72.729</ele><time>2022-11-16T01:47:30Z</time></trkpt><trkpt lat="51.581831" lon="-3.208821"><ele>72.035</ele><time>2022-11-16T01:48:10Z</time></trkpt><trkpt lat="51.579220" lon="-3.212817"><ele>76.216</ele><time>2022-11-16T01:48:50Z</time></trkpt><trkpt lat="51.576795" lon="-3.212964"><ele>83.725</ele><time>2022-11-16T01:49:30Z</time></trkpt><trkpt lat="51.574358" lon="-3.224088"><ele>91.326</ele><time>2022-11-16T01:50:10Z</time></trkpt><trkpt lat="51.570154" lon="-3.231134"><ele>104.308</ele><time>2022-11-16T01:50:50Z</time></trkpt><trkpt lat="51.569352" lon="-3.238092"><ele>97.309</ele><time>2022-11-16T01:51:30Z</time></trkpt><trkpt lat="51.561357" lon="-3.261965"><ele>95.473</ele><time>2022-11-16T01:52:10Z</time></trkpt><trkpt lat="51.563592" lon="-3.260762"><ele>100.073</ele><time>2022-11-16T01:52:50Z</time></trkpt><trkpt lat="51.569105" lon="-3.274015"><ele>90.390</ele><time>2022-11-16T01:53:30Z</time></trkpt><trkpt lat="51.582780" lon="-3.293972"><ele>81.479</ele><time>2022-11-16T01:54:10Z</time></trkpt><trkpt lat="51.590218" lon="-3.313733"><ele>73.644</ele><time>2022-11-16T01:54:50Z</time></trkpt><trkpt lat="51.589234" lon="-3.312414"><ele>74.626</ele><time>2022-11-16T01:55:30Z</time></trkpt><trkpt lat="51.586693" lon="-3.302143"><ele>76.599</ele><time>2022-11-16T01:56:10Z</time></trkpt><trkpt lat="51.594551" lon="-3.321064"><ele>66.335</ele><time>2022-11-16T01:56:50Z</time></trkpt><trkpt lat="51.593005" lon="-3.319364"><ele>66.676</ele><time>2022-11-16T01:57:30Z</time></trkpt><trkpt lat="51.590218" lon="-3.313733"><ele>73.621</ele><time>2022-11-16T01:58:10Z</time></trkpt><trkpt lat="51.599164" lon="-3.326582"><ele>62.641</ele><time>2022-11-16T01:58:50Z</time></trkpt><trkpt lat="51.595704" lon="-3.322646"><ele>62.105</ele><time>2022-11-16T01:59:30Z</time></trkpt><trkpt lat="51.600825" lon="-3.342167"><ele>61.009</ele><time>2022-11-16T02:00:10Z</time></trkpt><trkpt lat="51.601062" lon="-3.344106"><ele>62.883</ele><time>2022-11-16T02:00:50Z</time></trkpt><trkpt lat="51.597759" lon="-3.348451"><ele>89.343</ele><time>2022-11-16T02:01:30Z</time></trkpt><trkpt lat="51.600086" lon="-3.347206"><ele>81.370</ele><time>2022-11-16T02:02:10Z</time></trkpt><trkpt lat="51.597424" lon="-3.348637"><ele>86.869</ele><time>2022-11-16T02:02:50Z</time></trkpt><trkpt lat="51.597508" lon="-3.352193"><ele>120.834</ele><time>2022-11-16T02:03:30Z</time></trkpt><trkpt lat="51.593990" lon="-3.357287"><ele>175.296</ele><time>2022-11-16T02:04:10Z</time></trkpt><trkpt lat="51.592001" lon="-3.363942"><ele>216.089</ele><time>2022-11-16T02:04:50Z</time></trkpt><trkpt lat="51.592838" lon="-3.366170"><ele>226.165</ele><time>2022-11-16T02:05:30Z</time></trkpt><trkpt lat="51.590637" lon="-3.370684"><ele>245.996</ele><time>2022-11-16T02:06:10Z</time></trkpt><trkpt lat="51.582545" lon="-3.375585"><ele>211.174</ele><time>2022-11-16T02:06:50Z</time></trkpt><trkpt lat="51.586195" lon="-3.382375"><ele>238.356</ele><time>2022-11-16T02:07:30Z</time></trkpt><trkpt lat="51.583981" lon="-3.387314"><ele>208.321</ele><time>2022-11-16T02:08:10Z</time></trkpt><trkpt lat="51.578781" lon="-3.390719"><ele>135.109</ele><time>2022-11-16T02:08:50Z</time></trkpt><trkpt lat="51.577723" lon="-3.395727"><ele>135.178</ele><time>2022-11-16T02:09:30Z</time></trkpt><trkpt lat="51.579415" lon="-3.401477"><ele>139.418</ele><time>2022-11-16T02:10:10Z</time></trkpt><trkpt lat="51.578593" lon="-3.405350"><ele>163.495</ele><time>2022-11-16T02:10:50Z</time></trkpt><trkpt lat="51.585181" lon="-3.418832"><ele>165.474</ele><time>2022-11-16T02:11:30Z</time></trkpt><trkpt lat="51.583871" lon="-3.430409"><ele>136.569</ele><time>2022-11-16T02:12:10Z</time></trkpt><trkpt lat="51.585166" lon="-3.420143"><ele>167.191</ele><time>2022-11-16T02:12:50Z</time></trkpt><trkpt lat="51.582385" lon="-3.436487"><ele>133.554</ele><time>2022-11-16T02:13:30Z</time></trkpt><trkpt lat="51.583481" lon="-3.436553"><ele>137.580</ele><time>2022-11-16T02:14:10Z</time></trkpt><trkpt lat="51.583491" lon="-3.434380"><ele>131.071</ele><time>2022-11-16T02:14:50Z</time></trkpt><trkpt lat="51.571482" lon="-3.431432"><ele>106.488</ele><time>2022-11-16T02:15:30Z</time></trkpt><trkpt lat="51.575679" lon="-3.435996"><ele>114.024</ele><time>2022-11-16T02:16:10Z</time></trkpt><trkpt lat="51.580974" lon="-3.435209"><ele>130.126</ele><time>2022-11-16T02:16:50Z</time></trkpt><trkpt lat="51.571855" lon="-3.444328"><ele>148.809</ele><time>2022-11-16T02:17:30Z</time></trkpt><trkpt lat="51.571408" lon="-3.432431"><ele>108.889</ele><time>2022-11-16T02:18:10Z</time></trkpt><trkpt lat="51.571890" lon="-3.451908"><ele>197.679</ele><time>2022-11-16T02:18:50Z</time></trkpt><trkpt lat="51.570877" lon="-3.449612"><ele>176.096</ele><time>2022-11-16T02:19:30Z</time></trkpt><trkpt lat="51.571855" lon="-3.444328"><ele>148.865</ele><time>2022-11-16T02:20:10Z</time></trkpt><trkpt lat="51.574224" lon="-3.460917"><ele>199.810</ele><time>2022-11-16T02:20:50Z</time></trkpt><trkpt lat="51.572854" lon="-3.456992"><ele>213.882</ele><time>2022-11-16T02:21:30Z</time></trkpt><trkpt lat="51.577361" lon="-3.479777"><ele>158.775</ele><time>2022-11-16T02:22:10Z</time></trkpt><trkpt lat="51.577873" lon="-3.461454"><ele>161.021</ele><time>2022-11-16T02:22:50Z</time></trkpt><trkpt lat="51.575129" lon="-3.484373"><ele>142.032</ele><time>2022-11-16T02:23:30Z</time></trkpt><trkpt lat="51.577333" lon="-3.479864"><ele>158.695</ele><time>2022-11-16T02:24:10Z</time></trkpt><trkpt lat="51.570793" lon="-3.503736"><ele>117.649</ele><time>2022-11-16T02:24:50Z</time></trkpt><trkpt lat="51.571039" lon="-3.500848"><ele>121.323</ele><time>2022-11-16T02:25:30Z</time></trkpt><trkpt lat="51.572545" lon="-3.493760"><ele>132.409</ele><time>2022-11-16T02:26:10Z</time></trkpt><trkpt lat="51.571105" lon="-3.529682"><ele>94.370</ele><time>2022-11-16T02:26:50Z</time></trkpt><trkpt lat="51.569459" lon="-3.506381"><ele>123.580</ele><time>2022-11-16T02:27:30Z</time></trkpt><trkpt lat="51.569917" lon="-3.504189"><ele>116.167</ele><time>2022-11-16T02:28:10Z</time></trkpt><trkpt lat="51.569053" lon="-3.539528"><ele>83.076</ele><time>2022-11-16T02:28:50Z</time></trkpt><trkpt lat="51.571618" lon="-3.534347"><ele>97.111</ele><time>2022-11-16T02:29:30Z</time></trkpt><trkpt lat="51.571105" lon="-3.529682"><ele>94.393</ele><time>2022-11-16T02:30:10Z</time></trkpt><trkpt lat="51.558060" lon="-3.563916"><ele>66.256</ele><time>2022-11-16T02:30:50Z</time></trkpt><trkpt lat="51.565369" lon="-3.543228"><ele>82.952</ele><time>2022-11-16T02:31:30Z</time></trkpt><trkpt lat="51.568761" lon="-3.540519"><ele>85.853</ele><time>2022-11-16T02:32:10Z</time></trkpt><trkpt lat="51.548132" lon="-3.582410"><ele>47.354</ele><time>2022-11-16T02:32:50Z</time></trkpt><trkpt lat="51.549406" lon="-3.582349"><ele>51.356</ele><time>2022-11-16T02:33:30Z</time></trkpt><trkpt lat="51.542442" lon="-3.587606"><ele>41.711</ele><time>2022-11-16T02:34:10Z</time></trkpt><trkpt lat="51.542868" lon="-3.585797"><ele>43.809</ele><time>2022-11-16T02:34:50Z</time></trkpt><trkpt lat="51.548132" lon="-3.582410"><ele>47.326</ele><time>2022-11-16T02:35:30Z</time></trkpt><trkpt lat="51.545412" lon="-3.596495"><ele>49.436</ele><time>2022-11-16T02:36:10Z</time></trkpt><trkpt lat="51.547313" lon="-3.605237"><ele>89.263</ele><time>2022-11-16T02:36:50Z</time></trkpt><trkpt lat="51.544767" lon="-3.609699"><ele>102.022</ele><time>2022-11-16T02:37:30Z</time></trkpt><trkpt lat="51.545577" lon="-3.613869"><ele>92.167</ele><time>2022-11-16T02:38:10Z</time></trkpt><trkpt lat="51.543859" lon="-3.618066"><ele>95.049</ele><time>2022-11-16T02:38:50Z</time></trkpt><trkpt lat="51.539274" lon="-3.618063"><ele>75.452</ele><time>2022-11-16T02:39:30Z</time></trkpt><trkpt lat="51.538131" lon="-3.623120"><ele>68.188</ele><time>2022-11-16T02:40:10Z</time></trkpt><trkpt lat="51.539172" lon="-3.630039"><ele>73.299</ele><time>2022-11-16T02:40:50Z</time></trkpt><trkpt lat="51.538231" lon="-3.645491"><ele>86.793</ele><time>2022-11-16T02:41:30Z</time></trkpt><trkpt lat="51.539741" lon="-3.652710"><ele>67.265</ele><time>2022-11-16T02:42:10Z</time></trkpt><trkpt lat="51.537865" lon="-3.654207"><ele>73.121</ele><time>2022-11-16T02:42:50Z</time></trkpt><trkpt lat="51.536968" lon="-3.660319"><ele>70.909</ele><time>2022-11-16T02:43:30Z</time></trkpt><trkpt lat="51.535854" lon="-3.681974"><ele>58.820</ele><time>2022-11-16T02:44:10Z</time></trkpt><trkpt lat="51.533221" lon="-3.683512"><ele>57.430</ele><time>2022-11-16T02:44:50Z</time></trkpt><trkpt lat="51.543117" lon="-3.690507"><ele>63.077</ele><time>2022-11-16T02:45:30Z</time></trkpt><trkpt lat="51.537306" lon="-3.694770"><ele>36.686</ele><time>2022-11-16T02:46:10Z</time></trkpt><trkpt lat="51.549292" lon="-3.711272"><ele>50.221</ele><time>2022-11-16T02:46:50Z</time></trkpt><trkpt lat="51.561812" lon="-3.705232"><ele>111.033</ele><time>2022-11-16T02:47:30Z</time></trkpt><trkpt lat="51.563343" lon="-3.717846"><ele>97.996</ele><time>2022-11-16T02:48:10Z</time></trkpt><trkpt lat="51.567365" lon="-3.723573"><ele>71.192</ele><time>2022-11-16T02:48:50Z</time></trkpt><trkpt lat="51.563540" lon="-3.732618"><ele>44.233</ele><time>2022-11-16T02:49:30Z</time></trkpt><trkpt lat="51.562287" lon="-3.740985"><ele>14.223</ele><time>2022-11-16T02:50:10Z</time></trkpt><trkpt lat="51.568101" lon="-3.747001"><ele>9.583</ele><time>2022-11-16T02:50:50Z</time></trkpt><trkpt lat="51.570453" lon="-3.757380"><ele>7.411</ele><time>2022-11-16T02:51:30Z</time></trkpt><trkpt lat="51.575415" lon="-3.759628"><ele>8.509</ele><time>2022-11-16T02:52:10Z</time></trkpt><trkpt lat="51.590336" lon="-3.780774"><ele>7.273</ele><time>2022-11-16T02:52:50Z</time></trkpt><trkpt lat="51.589819" lon="-3.785098"><ele>7.753</ele><time>2022-11-16T02:53:30Z</time></trkpt><trkpt lat="51.591649" lon="-3.793276"><ele>9.150</ele><time>2022-11-16T02:54:10Z</time></trkpt><trkpt lat="51.590292" lon="-3.787588"><ele>7.969</ele><time>2022-11-16T02:54:50Z</time></trkpt><trkpt lat="51.589176" lon="-3.798424"><ele>7.334</ele><time>2022-11-16T02:55:30Z</time></trkpt><trkpt lat="51.585628" lon="-3.799597"><ele>5.376</ele><time>2022-11-16T02:56:10Z</time></trkpt><trkpt lat="51.584060" lon="-3.804432"><ele>8.829</ele><time>2022-11-16T02:56:50Z</time></trkpt><trkpt lat="51.599377" lon="-3.827139"><ele>11.235</ele><time>2022-11-16T02:57:30Z</time></trkpt><trkpt lat="51.603436" lon="-3.832098"><ele>11.666</ele><time>2022-11-16T02:58:10Z</time></trkpt><trkpt lat="51.608054" lon="-3.823369"><ele>12.954</ele><time>2022-11-16T02:58:50Z</time></trkpt><trkpt lat="51.607461" lon="-3.821177"><ele>11.256</ele><time>2022-11-16T02:59:30Z</time></trkpt><trkpt lat="51.612443" lon="-3.814796"><ele>8.811</ele><time>2022-11-16T03:00:10Z</time></trkpt><trkpt lat="51.628936" lon="-3.821743"><ele>12.609</ele><time>2022-11-16T03:00:50Z</time></trkpt><trkpt lat="51.626059" lon="-3.826417"><ele>5.876</ele><time>2022-11-16T03:01:30Z</time></trkpt><trkpt lat="51.622308" lon="-3.825972"><ele>6.016</ele><time>2022-11-16T03:02:10Z</time></trkpt><trkpt lat="51.613251" lon="-3.814381"><ele>6.893</ele><time>2022-11-16T03:02:50Z</time></trkpt><trkpt lat="51.629697" lon="-3.821724"><ele>11.972</ele><time>2022-11-16T03:03:30Z</time></trkpt><trkpt lat="51.631367" lon="-3.825278"><ele>12.817</ele><time>2022-11-16T03:04:10Z</time></trkpt><trkpt lat="51.632990" lon="-3.836322"><ele>21.829</ele><time>2022-11-16T03:04:50Z</time></trkpt><trkpt lat="51.628107" lon="-3.838043"><ele>10.172</ele><time>2022-11-16T03:05:30Z</time></trkpt><trkpt lat="51.625221" lon="-3.846928"><ele>5.558</ele><time>2022-11-16T03:06:10Z</time></trkpt><trkpt lat="51.625676" lon="-3.869311"><ele>12.099</ele><time>2022-11-16T03:06:50Z</time></trkpt><trkpt lat="51.626539" lon="-3.866999"><ele>13.188</ele><time>2022-11-16T03:07:30Z</time></trkpt><trkpt lat="51.626547" lon="-3.859874"><ele>10.624</ele><time>2022-11-16T03:08:10Z</time></trkpt><trkpt lat="51.625113" lon="-3.857196"><ele>9.426</ele><time>2022-11-16T03:08:50Z</time></trkpt><trkpt lat="51.622354" lon="-3.886049"><ele>7.009</ele><time>2022-11-16T03:09:30Z</time></trkpt><trkpt lat="51.625636" lon="-3.869862"><ele>12.489</ele><time>2022-11-16T03:10:10Z</time></trkpt><trkpt lat="51.621289" lon="-3.896823"><ele>10.619</ele><time>2022-11-16T03:10:50Z</time></trkpt><trkpt lat="51.621530" lon="-3.933409"><ele>9.086</ele><time>2022-11-16T03:11:30Z</time></trkpt><trkpt lat="51.614237" lon="-3.936219"><ele>10.825</ele><time>2022-11-16T03:12:10Z</time></trkpt><trkpt lat="51.614714" lon="-3.929331"><ele>2.630</ele><time>2022-11-16T03:12:50Z</time></trkpt><trkpt lat="51.616729" lon="-3.928880"><ele>-1.042</ele><time>2022-11-16T03:13:30Z</time></trkpt><trkpt lat="51.613993" lon="-3.937595"><ele>12.475</ele><time>2022-11-16T03:14:10Z</time></trkpt><trkpt lat="51.611589" lon="-3.966591"><ele>7.711</ele><time>2022-11-16T03:14:50Z</time></trkpt><trkpt lat="51.606051" lon="-3.982082"><ele>12.072</ele><time>2022-11-16T03:15:30Z</time></trkpt><trkpt lat="51.599471" lon="-3.992023"><ele>6.048</ele><time>2022-11-16T03:16:10Z</time></trkpt><trkpt lat="51.598897" lon="-3.997683"><ele>11.161</ele><time>2022-11-16T03:16:50Z</time></trkpt><trkpt lat="51.603091" lon="-4.004050"><ele>26.017</ele><time>2022-11-16T03:17:30Z</time></trkpt><trkpt lat="51.607911" lon="-4.006606"><ele>24.809</ele><time>2022-11-16T03:18:10Z</time></trkpt><trkpt lat="51.610549" lon="-4.013145"><ele>32.025</ele><time>2022-11-16T03:18:50Z</time></trkpt><trkpt lat="51.610811" lon="-4.023280"><ele>46.035</ele><time>2022-11-16T03:19:30Z</time></trkpt><trkpt lat="51.618941" lon="-4.035138"><ele>46.122</ele><time>2022-11-16T03:20:10Z</time></trkpt><trkpt lat="51.622233" lon="-4.035237"><ele>54.241</ele><time>2022-11-16T03:20:50Z</time></trkpt><trkpt lat="51.626687" lon="-4.030661"><ele>61.676</ele><time>2022-11-16T03:21:30Z</time></trkpt><trkpt lat="51.641266" lon="-4.031350"><ele>30.258</ele><time>2022-11-16T03:22:10Z</time></trkpt><trkpt lat="51.648562" lon="-4.037439"><ele>22.651</ele><time>2022-11-16T03:22:50Z</time></trkpt><trkpt lat="51.650157" lon="-4.041777"><ele>14.757</ele><time>2022-11-16T03:23:30Z</time></trkpt><trkpt lat="51.649759" lon="-4.052637"><ele>14.048</ele><time>2022-11-16T03:24:10Z</time></trkpt><trkpt lat="51.655224" lon="-4.055300"><ele>5.623</ele><time>2022-11-16T03:24:50Z</time></trkpt><trkpt lat="51.657608" lon="-4.064835"><ele>6.483</ele><time>2022-11-16T03:25:30Z</time></trkpt><trkpt lat="51.661615" lon="-4.072290"><ele>5.011</ele><time>2022-11-16T03:26:10Z</time></trkpt><trkpt lat="51.662776" lon="-4.081708"><ele>0.009</ele><time>2022-11-16T03:26:50Z</time></trkpt><trkpt lat="51.666033" lon="-4.090300"><ele>5.973</ele><time>2022-11-16T03:27:30Z</time></trkpt><trkpt lat="51.661667" lon="-4.098500"><ele>0.653</ele><time>2022-11-16T03:28:10Z</time></trkpt><trkpt lat="51.659562" lon="-4.113698"><ele>5.080</ele><time>2022-11-16T03:28:50Z</time></trkpt><trkpt lat="51.663038" lon="-4.123830"><ele>6.969</ele><time>2022-11-16T03:29:30Z</time></trkpt><trkpt lat="51.668548" lon="-4.123779"><ele>5.664</ele><time>2022-11-16T03:30:10Z</time></trkpt><trkpt lat="51.668845" lon="-4.130367"><ele>3.936</ele><time>2022-11-16T03:30:50Z</time></trkpt><trkpt lat="51.668505" lon="-4.133135"><ele>3.089</ele><time>2022-11-16T03:31:30Z</time></trkpt><trkpt lat="51.665309" lon="-4.134651"><ele>4.715</ele><time>2022-11-16T03:32:10Z</time></trkpt><trkpt lat="51.660180" lon="-4.145773"><ele>5.286</ele><time>2022-11-16T03:32:50Z</time></trkpt><trkpt lat="51.655439" lon="-4.148652"><ele>1.816</ele><time>2022-11-16T03:33:30Z</time></trkpt><trkpt lat="51.655540" lon="-4.153261"><ele>0.076</ele><time>2022-11-16T03:34:10Z</time></trkpt><trkpt lat="51.657604" lon="-4.154138"><ele>6.313</ele><time>2022-11-16T03:34:50Z</time></trkpt><trkpt lat="51.658484" lon="-4.159015"><ele>0.009</ele><time>2022-11-16T03:35:30Z</time></trkpt><trkpt lat="51.661116" lon="-4.162452"><ele>0.092</ele><time>2022-11-16T03:36:10Z</time></trkpt><trkpt lat="51.664428" lon="-4.163251"><ele>6.292</ele><time>2022-11-16T03:36:50Z</time></trkpt><trkpt lat="51.665286" lon="-4.166750"><ele>0.039</ele><time>2022-11-16T03:37:30Z</time></trkpt><trkpt lat="51.666294" lon="-4.164695"><ele>2.868</ele><time>2022-11-16T03:38:10Z</time></trkpt><trkpt lat="51.673924" lon="-4.175575"><ele>5.373</ele><time>2022-11-16T03:38:50Z</time></trkpt><trkpt lat="51.681114" lon="-4.181018"><ele>6.475</ele><time>2022-11-16T03:39:30Z</time></trkpt><trkpt lat="51.682538" lon="-4.184592"><ele>7.958</ele><time>2022-11-16T03:40:10Z</time></trkpt><trkpt lat="51.687239" lon="-4.218358"><ele>6.034</ele><time>2022-11-16T03:40:50Z</time></trkpt><trkpt lat="51.686832" lon="-4.222076"><ele>8.465</ele><time>2022-11-16T03:41:30Z</time></trkpt><trkpt lat="51.683235" lon="-4.226389"><ele>5.035</ele><time>2022-11-16T03:42:10Z</time></trkpt><trkpt lat="51.678428" lon="-4.244754"><ele>2.086</ele><time>2022-11-16T03:42:50Z</time></trkpt><trkpt lat="51.679012" lon="-4.248987"><ele>1.414</ele><time>2022-11-16T03:43:30Z</time></trkpt><trkpt lat="51.680632" lon="-4.248310"><ele>6.109</ele><time>2022-11-16T03:44:10Z</time></trkpt><trkpt lat="51.682804" lon="-4.254030"><ele>4.674</ele><time>2022-11-16T03:44:50Z</time></trkpt><trkpt lat="51.681345" lon="-4.252555"><ele>3.384</ele><time>2022-11-16T03:45:30Z</time></trkpt><trkpt lat="51.679391" lon="-4.255266"><ele>5.031</ele><time>2022-11-16T03:46:10Z</time></trkpt><trkpt lat="51.677812" lon="-4.290072"><ele>7.150</ele><time>2022-11-16T03:46:50Z</time></trkpt><trkpt lat="51.683148" lon="-4.294205"><ele>7.175</ele><time>2022-11-16T03:47:30Z</time></trkpt><trkpt lat="51.687643" lon="-4.307081"><ele>14.517</ele><time>2022-11-16T03:48:10Z</time></trkpt><trkpt lat="51.695752" lon="-4.313311"><ele>10.030</ele><time>2022-11-16T03:48:50Z</time></trkpt><trkpt lat="51.697855" lon="-4.323374"><ele>12.956</ele><time>2022-11-16T03:49:30Z</time></trkpt><trkpt lat="51.695592" lon="-4.329358"><ele>14.437</ele><time>2022-11-16T03:50:10Z</time></trkpt><trkpt lat="51.703548" lon="-4.337409"><ele>9.358</ele><time>2022-11-16T03:50:50Z</time></trkpt><trkpt lat="51.706104" lon="-4.335500"><ele>12.852</ele><time>2022-11-16T03:51:30Z</time></trkpt><trkpt lat="51.708421" lon="-4.325696"><ele>5.817</ele><time>2022-11-16T03:52:10Z</time></trkpt><trkpt lat="51.711029" lon="-4.327123"><ele>5.309</ele><time>2022-11-16T03:52:50Z</time></trkpt><trkpt lat="51.711620" lon="-4.324772"><ele>3.886</ele><time>2022-11-16T03:53:30Z</time></trkpt><trkpt lat="51.715014" lon="-4.324357"><ele>5.026</ele><time>2022-11-16T03:54:10Z</time></trkpt><trkpt lat="51.721121" lon="-4.301824"><ele>4.593</ele><time>2022-11-16T03:54:50Z</time></trkpt><trkpt lat="51.717291" lon="-4.318693"><ele>2.072</ele><time>2022-11-16T03:55:30Z</time></trkpt><trkpt lat="51.727263" lon="-4.302877"><ele>3.897</ele><time>2022-11-16T03:56:10Z</time></trkpt><trkpt lat="51.721276" lon="-4.301111"><ele>4.429</ele><time>2022-11-16T03:56:50Z</time></trkpt><trkpt lat="51.730326" lon="-4.306723"><ele>5.812</ele><time>2022-11-16T03:57:30Z</time></trkpt><trkpt lat="51.727263" lon="-4.302877"><ele>3.878</ele><time>2022-11-16T03:58:10Z</time></trkpt><trkpt lat="51.736388" lon="-4.307284"><ele>7.869</ele><time>2022-11-16T03:58:50Z</time></trkpt><trkpt lat="51.735167" lon="-4.305760"><ele>16.728</ele><time>2022-11-16T03:59:30Z</time></trkpt><trkpt lat="51.737436" lon="-4.318646"><ele>6.589</ele><time>2022-11-16T04:00:10Z</time></trkpt><trkpt lat="51.737932" lon="-4.309594"><ele>7.517</ele><time>2022-11-16T04:00:50Z</time></trkpt><trkpt lat="51.739020" lon="-4.320821"><ele>11.309</ele><time>2022-11-16T04:01:30Z</time></trkpt><trkpt lat="51.737732" lon="-4.325566"><ele>4.033</ele><time>2022-11-16T04:02:10Z</time></trkpt><trkpt lat="51.739736" lon="-4.335456"><ele>25.673</ele><time>2022-11-16T04:02:50Z</time></trkpt><trkpt lat="51.739490" lon="-4.342672"><ele>17.050</ele><time>2022-11-16T04:03:30Z</time></trkpt><trkpt lat="51.744485" lon="-4.368233"><ele>16.919</ele><time>2022-11-16T04:04:10Z</time></trkpt><trkpt lat="51.748235" lon="-4.373782"><ele>11.024</ele><time>2022-11-16T04:04:50Z</time></trkpt><trkpt lat="51.755295" lon="-4.375561"><ele>21.656</ele><time>2022-11-16T04:05:30Z</time></trkpt><trkpt lat="51.759866" lon="-4.370705"><ele>27.649</ele><time>2022-11-16T04:06:10Z</time></trkpt><trkpt lat="51.767546" lon="-4.369934"><ele>8.225</ele><time>2022-11-16T04:06:50Z</time></trkpt><trkpt lat="51.771606" lon="-4.365120"><ele>6.496</ele><time>2022-11-16T04:07:30Z</time></trkpt><trkpt lat="51.775243" lon="-4.357442"><ele>22.217</ele><time>2022-11-16T04:08:10Z</time></trkpt><trkpt lat="51.775925" lon="-4.351746"><ele>30.287</ele><time>2022-11-16T04:08:50Z</time></trkpt><trkpt lat="51.773880" lon="-4.343959"><ele>60.615</ele><time>2022-11-16T04:09:30Z</time></trkpt><trkpt lat="51.777299" lon="-4.328093"><ele>98.009</ele><time>2022-11-16T04:10:10Z</time></trkpt><trkpt lat="51.781228" lon="-4.328366"><ele>120.932</ele><time>2022-11-16T04:10:50Z</time></trkpt><trkpt lat="51.787710" lon="-4.324800"><ele>122.032</ele><time>2022-11-16T04:11:30Z</time></trkpt><trkpt lat="51.791569" lon="-4.311894"><ele>123.999</ele><time>2022-11-16T04:12:10Z</time></trkpt><trkpt lat="51.794779" lon="-4.313954"><ele>116.178</ele><time>2022-11-16T04:12:50Z</time></trkpt><trkpt lat="51.802155" lon="-4.310592"><ele>97.153</ele><time>2022-11-16T04:13:30Z</time></trkpt><trkpt lat="51.801872" lon="-4.303852"><ele>116.095</ele><time>2022-11-16T04:14:10Z</time></trkpt><trkpt lat="51.809946" lon="-4.303575"><ele>122.098</ele><time>2022-11-16T04:14:50Z</time></trkpt><trkpt lat="51.816455" lon="-4.310463"><ele>58.634</ele><time>2022-11-16T04:15:30Z</time></trkpt><trkpt lat="51.825000" lon="-4.312505"><ele>38.965</ele><time>2022-11-16T04:16:10Z</time></trkpt><trkpt lat="51.832841" lon="-4.310215"><ele>25.632</ele><time>2022-11-16T04:16:50Z</time></trkpt><trkpt lat="51.837567" lon="-4.311591"><ele>5.292</ele><time>2022-11-16T04:17:30Z</time></trkpt><trkpt lat="51.848581" lon="-4.306625"><ele>11.411</ele><time>2022-11-16T04:18:10Z</time></trkpt><trkpt lat="51.853210" lon="-4.307553"><ele>4.309</ele><time>2022-11-16T04:18:50Z</time></trkpt><trkpt lat="51.853744" lon="-4.312092"><ele>6.034</ele><time>2022-11-16T04:19:30Z</time></trkpt><trkpt lat="51.853957" lon="-4.316851"><ele>15.294</ele><time>2022-11-16T04:20:10Z</time></trkpt><trkpt lat="51.855730" lon="-4.317973"><ele>29.121</ele><time>2022-11-16T04:20:50Z</time></trkpt><trkpt lat="51.853897" lon="-4.324600"><ele>12.570</ele><time>2022-11-16T04:21:30Z</time></trkpt><trkpt lat="51.849090" lon="-4.324446"><ele>13.765</ele><time>2022-11-16T04:22:10Z</time></trkpt><trkpt lat="51.847314" lon="-4.333989"><ele>17.327</ele><time>2022-11-16T04:22:50Z</time></trkpt><trkpt lat="51.838380" lon="-4.346850"><ele>87.780</ele><time>2022-11-16T04:23:30Z</time></trkpt><trkpt lat="51.836311" lon="-4.361461"><ele>72.336</ele><time>2022-11-16T04:24:10Z</time></trkpt><trkpt lat="51.836557" lon="-4.374238"><ele>125.027</ele><time>2022-11-16T04:24:50Z</time></trkpt><trkpt lat="51.834896" lon="-4.376308"><ele>127.325</ele><time>2022-11-16T04:25:30Z</time></trkpt><trkpt lat="51.831779" lon="-4.390480"><ele>133.426</ele><time>2022-11-16T04:26:10Z</time></trkpt><trkpt lat="51.834701" lon="-4.395990"><ele>122.008</ele><time>2022-11-16T04:26:50Z</time></trkpt><trkpt lat="51.829987" lon="-4.399723"><ele>132.009</ele><time>2022-11-16T04:27:30Z</time></trkpt><trkpt lat="51.826056" lon="-4.408227"><ele>132.833</ele><time>2022-11-16T04:28:10Z</time></trkpt><trkpt lat="51.824333" lon="-4.407947"><ele>127.023</ele><time>2022-11-16T04:28:50Z</time></trkpt><trkpt lat="51.824119" lon="-4.412223"><ele>123.740</ele><time>2022-11-16T04:29:30Z</time></trkpt><trkpt lat="51.822010" lon="-4.415408"><ele>130.129</ele><time>2022-11-16T04:30:10Z</time></trkpt><trkpt lat="51.811581" lon="-4.422561"><ele>92.554</ele><time>2022-11-16T04:30:50Z</time></trkpt><trkpt lat="51.810576" lon="-4.425575"><ele>84.096</ele><time>2022-11-16T04:31:30Z</time></trkpt><trkpt lat="51.814208" lon="-4.432416"><ele>59.359</ele><time>2022-11-16T04:32:10Z</time></trkpt><trkpt lat="51.814041" lon="-4.440473"><ele>33.375</ele><time>2022-11-16T04:32:50Z</time></trkpt><trkpt lat="51.809185" lon="-4.443406"><ele>27.096</ele><time>2022-11-16T04:33:30Z</time></trkpt><trkpt lat="51.807790" lon="-4.450000"><ele>9.019</ele><time>2022-11-16T04:34:10Z</time></trkpt><trkpt lat="51.801477" lon="-4.450419"><ele>5.009</ele><time>2022-11-16T04:34:50Z</time></trkpt><trkpt lat="51.803668" lon="-4.459160"><ele>8.819</ele><time>2022-11-16T04:35:30Z</time></trkpt><trkpt lat="51.803611" lon="-4.469402"><ele>46.709</ele><time>2022-11-16T04:36:10Z</time></trkpt><trkpt lat="51.811118" lon="-4.470497"><ele>35.092</ele><time>2022-11-16T04:36:50Z</time></trkpt><trkpt lat="51.809690" lon="-4.495586"><ele>6.812</ele><time>2022-11-16T04:37:30Z</time></trkpt><trkpt lat="51.807987" lon="-4.481827"><ele>35.979</ele><time>2022-11-16T04:38:10Z</time></trkpt><trkpt lat="51.811118" lon="-4.470497"><ele>35.048</ele><time>2022-11-16T04:38:50Z</time></trkpt><trkpt lat="51.809690" lon="-4.495586"><ele>6.823</ele><time>2022-11-16T04:39:30Z</time></trkpt><trkpt lat="51.803861" lon="-4.504442"><ele>30.115</ele><time>2022-11-16T04:40:10Z</time></trkpt><trkpt lat="51.801125" lon="-4.512831"><ele>70.948</ele><time>2022-11-16T04:40:50Z</time></trkpt><trkpt lat="51.797344" lon="-4.515087"><ele>83.064</ele><time>2022-11-16T04:41:30Z</time></trkpt><trkpt lat="51.790562" lon="-4.503864"><ele>73.095</ele><time>2022-11-16T04:42:10Z</time></trkpt><trkpt lat="51.782946" lon="-4.472104"><ele>68.051</ele><time>2022-11-16T04:42:50Z</time></trkpt><trkpt lat="51.776587" lon="-4.465595"><ele>36.501</ele><time>2022-11-16T04:43:30Z</time></trkpt><trkpt lat="51.769502" lon="-4.465209"><ele>11.211</ele><time>2022-11-16T04:44:10Z</time></trkpt><trkpt lat="51.769426" lon="-4.473830"><ele>41.109</ele><time>2022-11-16T04:44:50Z</time></trkpt><trkpt lat="51.771545" lon="-4.479764"><ele>53.836</ele><time>2022-11-16T04:45:30Z</time></trkpt><trkpt lat="51.767545" lon="-4.502060"><ele>135.056</ele><time>2022-11-16T04:46:10Z</time></trkpt><trkpt lat="51.768522" lon="-4.531078"><ele>148.443</ele><time>2022-11-16T04:46:50Z</time></trkpt><trkpt lat="51.766942" lon="-4.546593"><ele>167.042</ele><time>2022-11-16T04:47:30Z</time></trkpt><trkpt lat="51.752620" lon="-4.576363"><ele>87.057</ele><time>2022-11-16T04:48:10Z</time></trkpt><trkpt lat="51.750570" lon="-4.605536"><ele>137.149</ele><time>2022-11-16T04:48:50Z</time></trkpt><trkpt lat="51.745910" lon="-4.619821"><ele>140.022</ele><time>2022-11-16T04:49:30Z</time></trkpt><trkpt lat="51.742551" lon="-4.623743"><ele>131.428</ele><time>2022-11-16T04:50:10Z</time></trkpt><trkpt lat="51.734981" lon="-4.639861"><ele>26.649</ele><time>2022-11-16T04:50:50Z</time></trkpt><trkpt lat="51.731650" lon="-4.665781"><ele>53.876</ele><time>2022-11-16T04:51:30Z</time></trkpt><trkpt lat="51.726717" lon="-4.682811"><ele>37.690</ele><time>2022-11-16T04:52:10Z</time></trkpt><trkpt lat="51.717191" lon="-4.690459"><ele>18.619</ele><time>2022-11-16T04:52:50Z</time></trkpt><trkpt lat="51.716815" lon="-4.694539"><ele>13.709</ele><time>2022-11-16T04:53:30Z</time></trkpt><trkpt lat="51.709682" lon="-4.699857"><ele>15.668</ele><time>2022-11-16T04:54:10Z</time></trkpt><trkpt lat="51.703244" lon="-4.711425"><ele>84.148</ele><time>2022-11-16T04:54:50Z</time></trkpt><trkpt lat="51.699744" lon="-4.712037"><ele>92.745</ele><time>2022-11-16T04:55:30Z</time></trkpt><trkpt lat="51.697907" lon="-4.708319"><ele>97.694</ele><time>2022-11-16T04:56:10Z</time></trkpt><trkpt lat="51.684297" lon="-4.709275"><ele>92.069</ele><time>2022-11-16T04:56:50Z</time></trkpt><trkpt lat="51.669976" lon="-4.699014"><ele>21.691</ele><time>2022-11-16T04:57:30Z</time></trkpt><trkpt lat="51.668839" lon="-4.702354"><ele>21.944</ele><time>2022-11-16T04:58:10Z</time></trkpt><trkpt lat="51.668839" lon="-4.702354"><ele>21.990</ele><time>2022-11-16T04:58:50Z</time></trkpt><trkpt lat="51.669976" lon="-4.699014"><ele>21.661</ele><time>2022-11-16T04:59:30Z</time></trkpt><trkpt lat="51.670148" lon="-4.706972"><ele>8.185</ele><time>2022-11-16T05:00:10Z</time></trkpt><trkpt lat="51.667471" lon="-4.710479"><ele>6.089</ele><time>2022-11-16T05:00:50Z</time></trkpt><trkpt lat="51.668683" lon="-4.723693"><ele>5.517</ele><time>2022-11-16T05:01:30Z</time></trkpt><trkpt lat="51.668666" lon="-4.717179"><ele>6.609</ele><time>2022-11-16T05:02:10Z</time></trkpt><trkpt lat="51.667387" lon="-4.714028"><ele>6.829</ele><time>2022-11-16T05:02:50Z</time></trkpt><trkpt lat="51.667982" lon="-4.726174"><ele>8.379</ele><time>2022-11-16T05:03:30Z</time></trkpt><trkpt lat="51.670314" lon="-4.732028"><ele>10.826</ele><time>2022-11-16T05:04:10Z</time></trkpt><trkpt lat="51.667195" lon="-4.748352"><ele>40.285</ele><time>2022-11-16T05:04:50Z</time></trkpt><trkpt lat="51.667529" lon="-4.757149"><ele>44.980</ele><time>2022-11-16T05:05:30Z</time></trkpt><trkpt lat="51.671471" lon="-4.758023"><ele>38.332</ele><time>2022-11-16T05:06:10Z</time></trkpt><trkpt lat="51.673179" lon="-4.763774"><ele>25.035</ele><time>2022-11-16T05:06:50Z</time></trkpt><trkpt lat="51.671573" lon="-4.768821"><ele>30.351</ele><time>2022-11-16T05:07:30Z</time></trkpt><trkpt lat="51.675250" lon="-4.773573"><ele>20.092</ele><time>2022-11-16T05:08:10Z</time></trkpt><trkpt lat="51.679615" lon="-4.786325"><ele>21.576</ele><time>2022-11-16T05:08:50Z</time></trkpt><trkpt lat="51.675670" lon="-4.811049"><ele>49.690</ele><time>2022-11-16T05:09:30Z</time></trkpt><trkpt lat="51.670483" lon="-4.820698"><ele>94.519</ele><time>2022-11-16T05:10:10Z</time></trkpt><trkpt lat="51.672543" lon="-4.849606"><ele>49.809</ele><time>2022-11-16T05:10:50Z</time></trkpt><trkpt lat="51.670755" lon="-4.862441"><ele>16.698</ele><time>2022-11-16T05:11:30Z</time></trkpt><trkpt lat="51.666378" lon="-4.872144"><ele>25.088</ele><time>2022-11-16T05:12:10Z</time></trkpt><trkpt lat="51.668198" lon="-4.882373"><ele>23.095</ele><time>2022-11-16T05:12:50Z</time></trkpt><trkpt lat="51.668038" lon="-4.893270"><ele>14.024</ele><time>2022-11-16T05:13:30Z</time></trkpt><trkpt lat="51.673700" lon="-4.908368"><ele>13.759</ele><time>2022-11-16T05:14:10Z</time></trkpt><trkpt lat="51.668088" lon="-4.893970"><ele>14.221</ele><time>2022-11-16T05:14:50Z</time></trkpt><trkpt lat="51.674160" lon="-4.915469"><ele>3.144</ele><time>2022-11-16T05:15:30Z</time></trkpt><trkpt lat="51.673458" lon="-4.910241"><ele>6.640</ele><time>2022-11-16T05:16:10Z</time></trkpt><trkpt lat="51.674849" lon="-4.920688"><ele>6.651</ele><time>2022-11-16T05:16:50Z</time></trkpt><trkpt lat="51.677127" lon="-4.923247"><ele>7.768</ele><time>2022-11-16T05:17:30Z</time></trkpt><trkpt lat="51.679579" lon="-4.918047"><ele>14.542</ele><time>2022-11-16T05:18:10Z</time></trkpt><trkpt lat="51.685923" lon="-4.921700"><ele>53.026</ele><time>2022-11-16T05:18:50Z</time></trkpt><trkpt lat="51.690046" lon="-4.943914"><ele>34.909</ele><time>2022-11-16T05:19:30Z</time></trkpt><trkpt lat="51.694694" lon="-4.942313"><ele>6.027</ele><time>2022-11-16T05:20:10Z</time></trkpt><trkpt lat="51.695934" lon="-4.938862"><ele>7.037</ele><time>2022-11-16T05:20:50Z</time></trkpt><trkpt lat="51.694626" lon="-4.933385"><ele>9.754</ele><time>2022-11-16T05:21:30Z</time></trkpt><trkpt lat="51.695392" lon="-4.929608"><ele>5.043</ele><time>2022-11-16T05:22:10Z</time></trkpt><trkpt lat="51.714591" lon="-4.938299"><ele>33.238</ele><time>2022-11-16T05:22:50Z</time></trkpt><trkpt lat="51.716547" lon="-4.946851"><ele>36.310</ele><time>2022-11-16T05:23:30Z</time></trkpt><trkpt lat="51.718183" lon="-4.945611"><ele>13.313</ele><time>2022-11-16T05:24:10Z</time></trkpt><trkpt lat="51.727826" lon="-4.954248"><ele>12.349</ele><time>2022-11-16T05:24:50Z</time></trkpt><trkpt lat="51.735861" lon="-4.972019"><ele>26.890</ele><time>2022-11-16T05:25:30Z</time></trkpt><trkpt lat="51.742590" lon="-4.975190"><ele>36.537</ele><time>2022-11-16T05:26:10Z</time></trkpt><trkpt lat="51.746688" lon="-4.984734"><ele>48.049</ele><time>2022-11-16T05:26:50Z</time></trkpt><trkpt lat="51.754987" lon="-4.995560"><ele>71.113</ele><time>2022-11-16T05:27:30Z</time></trkpt><trkpt lat="51.763174" lon="-4.999972"><ele>60.609</ele><time>2022-11-16T05:28:10Z</time></trkpt><trkpt lat="51.768562" lon="-5.012362"><ele>44.954</ele><time>2022-11-16T05:28:50Z</time></trkpt><trkpt lat="51.771323" lon="-5.015137"><ele>49.144</ele><time>2022-11-16T05:29:30Z</time></trkpt><trkpt lat="51.780431" lon="-5.006755"><ele>46.251</ele><time>2022-11-16T05:30:10Z</time></trkpt><trkpt lat="51.783515" lon="-4.996002"><ele>38.460</ele><time>2022-11-16T05:30:50Z</time></trkpt><trkpt lat="51.788864" lon="-4.986425"><ele>19.965</ele><time>2022-11-16T05:31:30Z</time></trkpt><trkpt lat="51.788864" lon="-4.986425"><ele>19.917</ele><time>2022-11-16T05:32:10Z</time></trkpt><trkpt lat="51.788638" lon="-4.988780"><ele>31.210</ele><time>2022-11-16T05:32:50Z</time></trkpt><trkpt lat="51.792694" lon="-4.990710"><ele>59.356</ele><time>2022-11-16T05:33:30Z</time></trkpt><trkpt lat="51.798746" lon="-5.007392"><ele>85.947</ele><time>2022-11-16T05:34:10Z</time></trkpt><trkpt lat="51.798928" lon="-5.018978"><ele>93.753</ele><time>2022-11-16T05:34:50Z</time></trkpt><trkpt lat="51.793584" lon="-5.043616"><ele>88.204</ele><time>2022-11-16T05:35:30Z</time></trkpt><trkpt lat="51.792807" lon="-5.056042"><ele>95.914</ele><time>2022-11-16T05:36:10Z</time></trkpt><trkpt lat="51.796913" lon="-5.065647"><ele>113.309</ele><time>2022-11-16T05:36:50Z</time></trkpt><trkpt lat="51.790354" lon="-5.084438"><ele>82.716</ele><time>2022-11-16T05:37:30Z</time></trkpt><trkpt lat="51.786007" lon="-5.084078"><ele>64.676</ele><time>2022-11-16T05:38:10Z</time></trkpt><trkpt lat="51.784533" lon="-5.097728"><ele>22.243</ele><time>2022-11-16T05:38:50Z</time></trkpt><trkpt lat="51.782667" lon="-5.101980"><ele>6.942</ele><time>2022-11-16T05:39:30Z</time></trkpt><trkpt lat="51.785061" lon="-5.103212"><ele>12.537</ele><time>2022-11-16T05:40:10Z</time></trkpt><trkpt lat="51.790193" lon="-5.101177"><ele>64.929</ele><time>2022-11-16T05:40:50Z</time></trkpt><trkpt lat="51.800487" lon="-5.094521"><ele>92.782</ele><time>2022-11-16T05:41:30Z</time></trkpt><trkpt lat="51.802317" lon="-5.100622"><ele>86.118</ele><time>2022-11-16T05:42:10Z</time></trkpt><trkpt lat="51.811296" lon="-5.100181"><ele>38.689</ele><time>2022-11-16T05:42:50Z</time></trkpt><trkpt lat="51.820225" lon="-5.103586"><ele>51.119</ele><time>2022-11-16T05:43:30Z</time></trkpt><trkpt lat="51.825789" lon="-5.108404"><ele>19.309</ele><time>2022-11-16T05:44:10Z</time></trkpt><trkpt lat="51.831397" lon="-5.107287"><ele>71.319</ele><time>2022-11-16T05:44:50Z</time></trkpt><trkpt lat="51.853670" lon="-5.123495"><ele>7.309</ele><time>2022-11-16T05:45:30Z</time></trkpt><trkpt lat="51.845441" lon="-5.117626"><ele>11.742</ele><time>2022-11-16T05:46:10Z</time></trkpt><trkpt lat="51.840437" lon="-5.111267"><ele>68.942</ele><time>2022-11-16T05:46:50Z</time></trkpt><trkpt lat="51.839406" lon="-5.110923"><ele>74.099</ele><time>2022-11-16T05:47:30Z</time></trkpt><trkpt lat="51.857219" lon="-5.127121"><ele>4.468</ele><time>2022-11-16T05:48:10Z</time></trkpt><trkpt lat="51.861972" lon="-5.123081"><ele>73.693</ele><time>2022-11-16T05:48:50Z</time></trkpt><trkpt lat="51.867076" lon="-5.124838"><ele>93.875</ele><time>2022-11-16T05:49:30Z</time></trkpt><trkpt lat="51.870016" lon="-5.145173"><ele>82.388</ele><time>2022-11-16T05:50:10Z</time></trkpt><trkpt lat="51.871825" lon="-5.137093"><ele>91.174</ele><time>2022-11-16T05:50:50Z</time></trkpt><trkpt lat="51.875269" lon="-5.139303"><ele>84.045</ele><time>2022-11-16T05:51:30Z</time></trkpt><trkpt lat="51.876614" lon="-5.136964"><ele>95.649</ele><time>2022-11-16T05:52:10Z</time></trkpt><trkpt lat="51.879767" lon="-5.138084"><ele>98.902</ele><time>2022-11-16T05:52:50Z</time></trkpt><trkpt lat="51.881859" lon="-5.136162"><ele>102.622</ele><time>2022-11-16T05:53:30Z</time></trkpt><trkpt lat="51.884018" lon="-5.147604"><ele>79.809</ele><time>2022-11-16T05:54:10Z</time></trkpt><trkpt lat="51.883585" lon="-5.173053"><ele>73.085</ele><time>2022-11-16T05:54:50Z</time></trkpt><trkpt lat="51.887513" lon="-5.188286"><ele>29.445</ele><time>2022-11-16T05:55:30Z</time></trkpt><trkpt lat="51.884230" lon="-5.198137"><ele>85.082</ele><time>2022-11-16T05:56:10Z</time></trkpt><trkpt lat="51.885067" lon="-5.192116"><ele>60.261</ele><time>2022-11-16T05:56:50Z</time></trkpt><trkpt lat="51.888054" lon="-5.190455"><ele>27.386</ele><time>2022-11-16T05:57:30Z</time></trkpt><trkpt lat="51.887513" lon="-5.188286"><ele>29.428</ele><time>2022-11-16T05:58:10Z</time></trkpt><trkpt lat="51.883376" lon="-5.203716"><ele>77.631</ele><time>2022-11-16T05:58:50Z</time></trkpt><trkpt lat="51.882403" lon="-5.224413"><ele>74.397</ele><time>2022-11-16T05:59:30Z</time></trkpt><trkpt lat="51.884792" lon="-5.230917"><ele>65.778</ele><time>2022-11-16T06:00:10Z</time></trkpt><trkpt lat="51.884889" lon="-5.236505"><ele>56.083</ele><time>2022-11-16T06:00:50Z</time></trkpt><trkpt lat="51.881094" lon="-5.255612"><ele>74.125</ele><time>2022-11-16T06:01:30Z</time></trkpt><trkpt lat="51.880978" lon="-5.265176"><ele>63.517</ele><time>2022-11-16T06:02:10Z</time></trkpt><trkpt lat="51.880662" lon="-5.260925"><ele>72.009</ele><time>2022-11-16T06:02:50Z</time></trkpt><trkpt lat="51.881094" lon="-5.255612"><ele>74.139</ele><time>2022-11-16T06:03:30Z</time></trkpt><trkpt lat="51.884809" lon="-5.268811"><ele>34.719</ele><time>2022-11-16T06:04:10Z</time></trkpt><trkpt lat="51.881179" lon="-5.269121"><ele>42.666</ele><time>2022-11-16T06:04:50Z</time></trkpt><trkpt lat="51.881289" lon="-5.265937"><ele>58.955</ele><time>2022-11-16T06:05:30Z</time></trkpt><trkpt lat="51.888152" lon="-5.272080"><ele>45.570</ele><time>2022-11-16T06:06:10Z</time></trkpt><trkpt lat="51.893212" lon="-5.273658"><ele>48.642</ele><time>2022-11-16T06:06:50Z</time></trkpt><trkpt lat="51.897665" lon="-5.270383"><ele>49.025</ele><time>2022-11-16T06:07:30Z</time></trkpt><trkpt lat="51.898375" lon="-5.264622"><ele>43.951</ele><time>2022-11-16T06:08:10Z</time></trkpt><trkpt lat="51.904918" lon="-5.252424"><ele>48.722</ele><time>2022-11-16T06:08:50Z</time></trkpt><trkpt lat="51.906328" lon="-5.247885"><ele>60.666</ele><time>2022-11-16T06:09:30Z</time></trkpt><trkpt lat="51.903605" lon="-5.244982"><ele>60.029</ele><time>2022-11-16T06:10:10Z</time></trkpt><trkpt lat="51.914376" lon="-5.239451"><ele>79.821</ele><time>2022-11-16T06:10:50Z</time></trkpt><trkpt lat="51.918382" lon="-5.233272"><ele>84.009</ele><time>2022-11-16T06:11:30Z</time></trkpt><trkpt lat="51.922681" lon="-5.211322"><ele>89.027</ele><time>2022-11-16T06:12:10Z</time></trkpt><trkpt lat="51.933336" lon="-5.180768"><ele>76.257</ele><time>2022-11-16T06:12:50Z</time></trkpt><trkpt lat="51.947479" lon="-5.155330"><ele>37.444</ele><time>2022-11-16T06:13:30Z</time></trkpt><trkpt lat="51.947796" lon="-5.150986"><ele>28.063</ele><time>2022-11-16T06:14:10Z</time></trkpt><trkpt lat="51.955991" lon="-5.130567"><ele>46.528</ele><time>2022-11-16T06:14:50Z</time></trkpt><trkpt lat="51.950212" lon="-5.139131"><ele>62.110</ele><time>2022-11-16T06:15:30Z</time></trkpt><trkpt lat="51.958895" lon="-5.125817"><ele>17.943</ele><time>2022-11-16T06:16:10Z</time></trkpt><trkpt lat="51.957338" lon="-5.123285"><ele>23.469</ele><time>2022-11-16T06:16:50Z</time></trkpt><trkpt lat="51.957276" lon="-5.113883"><ele>52.050</ele><time>2022-11-16T06:17:30Z</time></trkpt><trkpt lat="51.950228" lon="-5.099100"><ele>85.611</ele><time>2022-11-16T06:18:10Z</time></trkpt><trkpt lat="51.952862" lon="-5.092686"><ele>81.821</ele><time>2022-11-16T06:18:50Z</time></trkpt><trkpt lat="51.961606" lon="-5.080398"><ele>26.103</ele><time>2022-11-16T06:19:30Z</time></trkpt><trkpt lat="51.959624" lon="-5.075035"><ele>49.109</ele><time>2022-11-16T06:20:10Z</time></trkpt><trkpt lat="51.965737" lon="-5.075324"><ele>61.922</ele><time>2022-11-16T06:20:50Z</time></trkpt><trkpt lat="51.992057" lon="-5.031644"><ele>125.942</ele><time>2022-11-16T06:21:30Z</time></trkpt><trkpt lat="51.977977" lon="-5.050803"><ele>94.789</ele><time>2022-11-16T06:22:10Z</time></trkpt><trkpt lat="51.974640" lon="-5.058942"><ele>80.048</ele><time>2022-11-16T06:22:50Z</time></trkpt><trkpt lat="51.985691" lon="-4.991605"><ele>87.773</ele><time>2022-11-16T06:23:30Z</time></trkpt><trkpt lat="51.981371" lon="-5.006761"><ele>64.755</ele><time>2022-11-16T06:24:10Z</time></trkpt><trkpt lat="51.983129" lon="-5.010601"><ele>68.528</ele><time>2022-11-16T06:24:50Z</time></trkpt><trkpt lat="51.977962" lon="-5.016803"><ele>78.354</ele><time>2022-11-16T06:25:30Z</time></trkpt><trkpt lat="51.980864" lon="-5.023531"><ele>95.175</ele><time>2022-11-16T06:26:10Z</time></trkpt><trkpt lat="51.992057" lon="-5.031644"><ele>125.971</ele><time>2022-11-16T06:26:50Z</time></trkpt><trkpt lat="51.990415" lon="-4.990184"><ele>58.741</ele><time>2022-11-16T06:27:30Z</time></trkpt><trkpt lat="52.002952" lon="-4.992272"><ele>5.815</ele><time>2022-11-16T06:28:10Z</time></trkpt><trkpt lat="51.999595" lon="-4.988386"><ele>3.809</ele><time>2022-11-16T06:28:50Z</time></trkpt><trkpt lat="51.997931" lon="-4.989276"><ele>20.868</ele><time>2022-11-16T06:29:30Z</time></trkpt><trkpt lat="51.998228" lon="-4.987343"><ele>33.478</ele><time>2022-11-16T06:30:10Z</time></trkpt><trkpt lat="51.994313" lon="-4.990601"><ele>52.515</ele><time>2022-11-16T06:30:50Z</time></trkpt><trkpt lat="52.250510" lon="-6.334560"><ele>5.694</ele><time>2022-11-16T06:31:30Z</time></trkpt><trkpt lat="52.251090" lon="-6.342850"><ele>17.159</ele><time>2022-11-16T06:32:10Z</time></trkpt><trkpt lat="52.243910" lon="-6.347270"><ele>12.271</ele><time>2022-11-16T06:32:50Z</time></trkpt><trkpt lat="52.242010" lon="-6.355270"><ele>16.884</ele><time>2022-11-16T06:33:30Z</time></trkpt><trkpt lat="52.235580" lon="-6.356560"><ele>21.130</ele><time>2022-11-16T06:34:10Z</time></trkpt><trkpt lat="52.232960" lon="-6.354210"><ele>23.061</ele><time>2022-11-16T06:34:50Z</time></trkpt><trkpt lat="52.225190" lon="-6.353740"><ele>21.331</ele><time>2022-11-16T06:35:30Z</time></trkpt><trkpt lat="52.222350" lon="-6.358490"><ele>23.061</ele><time>2022-11-16T06:36:10Z</time></trkpt><trkpt lat="52.221790" lon="-6.370200"><ele>11.807</ele><time>2022-11-16T06:36:50Z</time></trkpt><trkpt lat="52.212250" lon="-6.368910"><ele>15.809</ele><time>2022-11-16T06:37:30Z</time></trkpt><trkpt lat="52.208780" lon="-6.373000"><ele>13.844</ele><time>2022-11-16T06:38:10Z</time></trkpt><trkpt lat="52.210930" lon="-6.382640"><ele>6.224</ele><time>2022-11-16T06:38:50Z</time></trkpt><trkpt lat="52.217870" lon="-6.382620"><ele>9.241</ele><time>2022-11-16T06:39:30Z</time></trkpt><trkpt lat="52.219160" lon="-6.387110"><ele>21.610</ele><time>2022-11-16T06:40:10Z</time></trkpt><trkpt lat="52.213360" lon="-6.397550"><ele>18.165</ele><time>2022-11-16T06:40:50Z</time></trkpt><trkpt lat="52.212790" lon="-6.409590"><ele>29.627</ele><time>2022-11-16T06:41:30Z</time></trkpt><trkpt lat="52.208950" lon="-6.422590"><ele>27.080</ele><time>2022-11-16T06:42:10Z</time></trkpt><trkpt lat="52.209490" lon="-6.433340"><ele>19.096</ele><time>2022-11-16T06:42:50Z</time></trkpt><trkpt lat="52.207760" lon="-6.437020"><ele>17.197</ele><time>2022-11-16T06:43:30Z</time></trkpt><trkpt lat="52.203930" lon="-6.437200"><ele>12.157</ele><time>2022-11-16T06:44:10Z</time></trkpt><trkpt lat="52.203480" lon="-6.442160"><ele>5.700</ele><time>2022-11-16T06:44:50Z</time></trkpt><trkpt lat="52.214700" lon="-6.456560"><ele>16.020</ele><time>2022-11-16T06:45:30Z</time></trkpt><trkpt lat="52.216730" lon="-6.456670"><ele>20.009</ele><time>2022-11-16T06:46:10Z</time></trkpt><trkpt lat="52.218470" lon="-6.463050"><ele>21.516</ele><time>2022-11-16T06:46:50Z</time></trkpt><trkpt lat="52.218230" lon="-6.476140"><ele>19.916</ele><time>2022-11-16T06:47:30Z</time></trkpt><trkpt lat="52.214480" lon="-6.486030"><ele>6.083</ele><time>2022-11-16T06:48:10Z</time></trkpt><trkpt lat="52.215640" lon="-6.493970"><ele>12.372</ele><time>2022-11-16T06:48:50Z</time></trkpt><trkpt lat="52.207450" lon="-6.500780"><ele>4.227</ele><time>2022-11-16T06:49:30Z</time></trkpt><trkpt lat="52.207240" lon="-6.503420"><ele>7.079</ele><time>2022-11-16T06:50:10Z</time></trkpt><trkpt lat="52.201220" lon="-6.512460"><ele>8.982</ele><time>2022-11-16T06:50:50Z</time></trkpt><trkpt lat="52.198790" lon="-6.523680"><ele>8.028</ele><time>2022-11-16T06:51:30Z</time></trkpt><trkpt lat="52.194600" lon="-6.531340"><ele>6.089</ele><time>2022-11-16T06:52:10Z</time></trkpt><trkpt lat="52.196100" lon="-6.541300"><ele>10.761</ele><time>2022-11-16T06:52:50Z</time></trkpt><trkpt lat="52.191300" lon="-6.552230"><ele>8.721</ele><time>2022-11-16T06:53:30Z</time></trkpt><trkpt lat="52.194370" lon="-6.559130"><ele>7.113</ele><time>2022-11-16T06:54:10Z</time></trkpt><trkpt lat="52.197470" lon="-6.561720"><ele>5.909</ele><time>2022-11-16T06:54:50Z</time></trkpt><trkpt lat="52.196650" lon="-6.565160"><ele>7.077</ele><time>2022-11-16T06:55:30Z</time></trkpt><trkpt lat="52.191690" lon="-6.572750"><ele>11.967</ele><time>2022-11-16T06:56:10Z</time></trkpt><trkpt lat="52.187620" lon="-6.565980"><ele>16.034</ele><time>2022-11-16T06:56:50Z</time></trkpt><trkpt lat="52.184790" lon="-6.571830"><ele>17.453</ele><time>2022-11-16T06:57:30Z</time></trkpt><trkpt lat="52.183990" lon="-6.579580"><ele>11.138</ele><time>2022-11-16T06:58:10Z</time></trkpt><trkpt lat="52.172880" lon="-6.588920"><ele>3.540</ele><time>2022-11-16T06:58:50Z</time></trkpt><trkpt lat="52.172070" lon="-6.592500"><ele>3.533</ele><time>2022-11-16T06:59:30Z</time></trkpt><trkpt lat="52.200670" lon="-6.585860"><ele>1.099</ele><time>2022-11-16T07:00:10Z</time></trkpt><trkpt lat="52.210340" lon="-6.619310"><ele>4.290</ele><time>2022-11-16T07:00:50Z</time></trkpt><trkpt lat="52.212630" lon="-6.618650"><ele>3.588</ele><time>2022-11-16T07:01:30Z</time></trkpt><trkpt lat="52.216270" lon="-6.629600"><ele>7.024</ele><time>2022-11-16T07:02:10Z</time></trkpt><trkpt lat="52.218580" lon="-6.640800"><ele>3.126</ele><time>2022-11-16T07:02:50Z</time></trkpt><trkpt lat="52.222750" lon="-6.647020"><ele>4.909</ele><time>2022-11-16T07:03:30Z</time></trkpt><trkpt lat="52.229600" lon="-6.652140"><ele>13.489</ele><time>2022-11-16T07:04:10Z</time></trkpt><trkpt lat="52.227170" lon="-6.659180"><ele>16.819</ele><time>2022-11-16T07:04:50Z</time></trkpt><trkpt lat="52.226680" lon="-6.667950"><ele>19.036</ele><time>2022-11-16T07:05:30Z</time></trkpt><trkpt lat="52.220710" lon="-6.696990"><ele>16.575</ele><time>2022-11-16T07:06:10Z</time></trkpt><trkpt lat="52.223220" lon="-6.705290"><ele>15.450</ele><time>2022-11-16T07:06:50Z</time></trkpt><trkpt lat="52.234170" lon="-6.699650"><ele>21.722</ele><time>2022-11-16T07:07:30Z</time></trkpt><trkpt lat="52.235200" lon="-6.705160"><ele>24.795</ele><time>2022-11-16T07:08:10Z</time></trkpt><trkpt lat="52.240340" lon="-6.710670"><ele>26.141</ele><time>2022-11-16T07:08:50Z</time></trkpt><trkpt lat="52.244410" lon="-6.726980"><ele>44.962</ele><time>2022-11-16T07:09:30Z</time></trkpt><trkpt lat="52.242870" lon="-6.731900"><ele>44.771</ele><time>2022-11-16T07:10:10Z</time></trkpt><trkpt lat="52.239370" lon="-6.731860"><ele>53.241</ele><time>2022-11-16T07:10:50Z</time></trkpt><trkpt lat="52.235860" lon="-6.735540"><ele>49.915</ele><time>2022-11-16T07:11:30Z</time></trkpt><trkpt lat="52.233380" lon="-6.742500"><ele>22.809</ele><time>2022-11-16T07:12:10Z</time></trkpt><trkpt lat="52.251030" lon="-6.754350"><ele>2.018</ele><time>2022-11-16T07:12:50Z</time></trkpt><trkpt lat="52.256300" lon="-6.755330"><ele>3.778</ele><time>2022-11-16T07:13:30Z</time></trkpt><trkpt lat="52.265020" lon="-6.749220"><ele>11.975</ele><time>2022-11-16T07:14:10Z</time></trkpt><trkpt lat="52.266515" lon="-6.750187"><ele>5.444</ele><time>2022-11-16T07:14:50Z</time></trkpt><trkpt lat="52.266515" lon="-6.750187"><ele>5.449</ele><time>2022-11-16T07:15:30Z</time></trkpt><trkpt lat="52.271380" lon="-6.757400"><ele>19.481</ele><time>2022-11-16T07:16:10Z</time></trkpt><trkpt lat="52.282140" lon="-6.753250"><ele>49.394</ele><time>2022-11-16T07:16:50Z</time></trkpt><trkpt lat="52.285240" lon="-6.762700"><ele>26.270</ele><time>2022-11-16T07:17:30Z</time></trkpt><trkpt lat="52.284710" lon="-6.772600"><ele>47.021</ele><time>2022-11-16T07:18:10Z</time></trkpt><trkpt lat="52.287550" lon="-6.783520"><ele>46.068</ele><time>2022-11-16T07:18:50Z</time></trkpt><trkpt lat="52.285280" lon="-6.796290"><ele>45.342</ele><time>2022-11-16T07:19:30Z</time></trkpt><trkpt lat="52.277780" lon="-6.797800"><ele>8.126</ele><time>2022-11-16T07:20:10Z</time></trkpt><trkpt lat="52.271460" lon="-6.806040"><ele>52.309</ele><time>2022-11-16T07:20:50Z</time></trkpt><trkpt lat="52.269580" lon="-6.804540"><ele>47.597</ele><time>2022-11-16T07:21:30Z</time></trkpt><trkpt lat="52.267830" lon="-6.792710"><ele>23.957</ele><time>2022-11-16T07:22:10Z</time></trkpt><trkpt lat="52.264520" lon="-6.785480"><ele>32.054</ele><time>2022-11-16T07:22:50Z</time></trkpt><trkpt lat="52.248500" lon="-6.786910"><ele>28.123</ele><time>2022-11-16T07:23:30Z</time></trkpt><trkpt lat="52.251190" lon="-6.796620"><ele>22.488</ele><time>2022-11-16T07:24:10Z</time></trkpt><trkpt lat="52.244040" lon="-6.809700"><ele>39.370</ele><time>2022-11-16T07:24:50Z</time></trkpt><trkpt lat="52.243210" lon="-6.807080"><ele>28.413</ele><time>2022-11-16T07:25:30Z</time></trkpt><trkpt lat="52.238940" lon="-6.806070"><ele>24.099</ele><time>2022-11-16T07:26:10Z</time></trkpt><trkpt lat="52.237230" lon="-6.803180"><ele>4.510</ele><time>2022-11-16T07:26:50Z</time></trkpt><trkpt lat="52.231270" lon="-6.813080"><ele>4.261</ele><time>2022-11-16T07:27:30Z</time></trkpt><trkpt lat="52.229400" lon="-6.823350"><ele>3.021</ele><time>2022-11-16T07:28:10Z</time></trkpt><trkpt lat="52.229740" lon="-6.826140"><ele>12.113</ele><time>2022-11-16T07:28:50Z</time></trkpt><trkpt lat="52.244070" lon="-6.833080"><ele>43.709</ele><time>2022-11-16T07:29:30Z</time></trkpt><trkpt lat="52.243300" lon="-6.835250"><ele>40.267</ele><time>2022-11-16T07:30:10Z</time></trkpt><trkpt lat="52.238370" lon="-6.835730"><ele>22.127</ele><time>2022-11-16T07:30:50Z</time></trkpt><trkpt lat="52.235670" lon="-6.839140"><ele>16.524</ele><time>2022-11-16T07:31:30Z</time></trkpt><trkpt lat="52.235070" lon="-6.837050"><ele>4.613</ele><time>2022-11-16T07:32:10Z</time></trkpt><trkpt lat="52.229290" lon="-6.836420"><ele>22.458</ele><time>2022-11-16T07:32:50Z</time></trkpt><trkpt lat="52.226520" lon="-6.831980"><ele>13.240</ele><time>2022-11-16T07:33:30Z</time></trkpt><trkpt lat="52.221610" lon="-6.844670"><ele>33.093</ele><time>2022-11-16T07:34:10Z</time></trkpt><trkpt lat="52.210010" lon="-6.846350"><ele>5.019</ele><time>2022-11-16T07:34:50Z</time></trkpt><trkpt lat="52.206200" lon="-6.857840"><ele>13.080</ele><time>2022-11-16T07:35:30Z</time></trkpt><trkpt lat="52.202560" lon="-6.850960"><ele>31.882</ele><time>2022-11-16T07:36:10Z</time></trkpt><trkpt lat="52.208050" lon="-6.834060"><ele>21.643</ele><time>2022-11-16T07:36:50Z</time></trkpt><trkpt lat="52.206740" lon="-6.832630"><ele>21.017</ele><time>2022-11-16T07:37:30Z</time></trkpt><trkpt lat="52.207680" lon="-6.825090"><ele>14.309</ele><time>2022-11-16T07:38:10Z</time></trkpt><trkpt lat="52.205170" lon="-6.824240"><ele>13.029</ele><time>2022-11-16T07:38:50Z</time></trkpt><trkpt lat="52.198280" lon="-6.829800"><ele>9.849</ele><time>2022-11-16T07:39:30Z</time></trkpt><trkpt lat="52.197120" lon="-6.836510"><ele>17.486</ele><time>2022-11-16T07:40:10Z</time></trkpt><trkpt lat="52.194160" lon="-6.841910"><ele>17.025</ele><time>2022-11-16T07:40:50Z</time></trkpt><trkpt lat="52.187590" lon="-6.837410"><ele>12.760</ele><time>2022-11-16T07:41:30Z</time></trkpt><trkpt lat="52.179700" lon="-6.836260"><ele>20.532</ele><time>2022-11-16T07:42:10Z</time></trkpt><trkpt lat="52.178250" lon="-6.844530"><ele>23.035</ele><time>2022-11-16T07:42:50Z</time></trkpt><trkpt lat="52.172520" lon="-6.848050"><ele>25.081</ele><time>2022-11-16T07:43:30Z</time></trkpt><trkpt lat="52.168980" lon="-6.856550"><ele>29.442</ele><time>2022-11-16T07:44:10Z</time></trkpt><trkpt lat="52.169360" lon="-6.862260"><ele>28.274</ele><time>2022-11-16T07:44:50Z</time></trkpt><trkpt lat="52.173490" lon="-6.864170"><ele>14.456</ele><time>2022-11-16T07:45:30Z</time></trkpt><trkpt lat="52.177380" lon="-6.876640"><ele>25.021</ele><time>2022-11-16T07:46:10Z</time></trkpt><trkpt lat="52.162780" lon="-6.887230"><ele>33.009</ele><time>2022-11-16T07:46:50Z</time></trkpt><trkpt lat="52.157540" lon="-6.894150"><ele>20.068</ele><time>2022-11-16T07:47:30Z</time></trkpt><trkpt lat="52.164500" lon="-6.893580"><ele>33.138</ele><time>2022-11-16T07:48:10Z</time></trkpt><trkpt lat="52.173280" lon="-6.896250"><ele>38.265</ele><time>2022-11-16T07:48:50Z</time></trkpt><trkpt lat="52.186650" lon="-6.893860"><ele>34.024</ele><time>2022-11-16T07:49:30Z</time></trkpt><trkpt lat="52.193370" lon="-6.899430"><ele>51.049</ele><time>2022-11-16T07:50:10Z</time></trkpt><trkpt lat="52.210100" lon="-6.897690"><ele>41.211</ele><time>2022-11-16T07:50:50Z</time></trkpt><trkpt lat="52.209870" lon="-6.902440"><ele>35.334</ele><time>2022-11-16T07:51:30Z</time></trkpt><trkpt lat="52.215740" lon="-6.907610"><ele>36.290</ele><time>2022-11-16T07:52:10Z</time></trkpt><trkpt lat="52.215500" lon="-6.915470"><ele>25.221</ele><time>2022-11-16T07:52:50Z</time></trkpt><trkpt lat="52.219500" lon="-6.920720"><ele>7.316</ele><time>2022-11-16T07:53:30Z</time></trkpt><trkpt lat="52.221020" lon="-6.933420"><ele>8.476</ele><time>2022-11-16T07:54:10Z</time></trkpt><trkpt lat="52.221690" lon="-6.930640"><ele>21.913</ele><time>2022-11-16T07:54:50Z</time></trkpt><trkpt lat="52.231350" lon="-6.935210"><ele>50.709</ele><time>2022-11-16T07:55:30Z</time></trkpt><trkpt lat="52.234970" lon="-6.931860"><ele>66.872</ele><time>2022-11-16T07:56:10Z</time></trkpt><trkpt lat="52.242630" lon="-6.935540"><ele>67.052</ele><time>2022-11-16T07:56:50Z</time></trkpt><trkpt lat="52.241860" lon="-6.948870"><ele>17.419</ele><time>2022-11-16T07:57:30Z</time></trkpt><trkpt lat="52.243070" lon="-6.955570"><ele>6.218</ele><time>2022-11-16T07:58:10Z</time></trkpt><trkpt lat="52.241990" lon="-6.960670"><ele>11.233</ele><time>2022-11-16T07:58:50Z</time></trkpt><trkpt lat="52.244420" lon="-6.967820"><ele>5.425</ele><time>2022-11-16T07:59:30Z</time></trkpt><trkpt lat="52.244420" lon="-6.967820"><ele>5.498</ele><time>2022-11-16T08:00:10Z</time></trkpt><trkpt lat="52.239400" lon="-6.973550"><ele>6.034</ele><time>2022-11-16T08:00:50Z</time></trkpt><trkpt lat="52.233100" lon="-6.972010"><ele>28.775</ele><time>2022-11-16T08:01:30Z</time></trkpt><trkpt lat="52.216730" lon="-6.977960"><ele>30.769</ele><time>2022-11-16T08:02:10Z</time></trkpt><trkpt lat="52.206520" lon="-6.976290"><ele>29.704</ele><time>2022-11-16T08:02:50Z</time></trkpt><trkpt lat="52.191830" lon="-6.984570"><ele>11.924</ele><time>2022-11-16T08:03:30Z</time></trkpt><trkpt lat="52.178550" lon="-7.013190"><ele>70.009</ele><time>2022-11-16T08:04:10Z</time></trkpt><trkpt lat="52.173630" lon="-7.008570"><ele>71.867</ele><time>2022-11-16T08:04:50Z</time></trkpt><trkpt lat="52.167480" lon="-7.007080"><ele>77.537</ele><time>2022-11-16T08:05:30Z</time></trkpt><trkpt lat="52.154960" lon="-6.994580"><ele>9.494</ele><time>2022-11-16T08:06:10Z</time></trkpt><trkpt lat="52.155160" lon="-6.998940"><ele>18.523</ele><time>2022-11-16T08:06:50Z</time></trkpt><trkpt lat="52.153500" lon="-6.994630"><ele>20.438</ele><time>2022-11-16T08:07:30Z</time></trkpt><trkpt lat="52.143970" lon="-7.016260"><ele>63.490</ele><time>2022-11-16T08:08:10Z</time></trkpt><trkpt lat="52.140560" lon="-7.029470"><ele>60.863</ele><time>2022-11-16T08:08:50Z</time></trkpt><trkpt lat="52.143200" lon="-7.035150"><ele>22.759</ele><time>2022-11-16T08:09:30Z</time></trkpt><trkpt lat="52.141340" lon="-7.046470"><ele>31.870</ele><time>2022-11-16T08:10:10Z</time></trkpt><trkpt lat="52.144390" lon="-7.057060"><ele>29.284</ele><time>2022-11-16T08:10:50Z</time></trkpt><trkpt lat="52.155300" lon="-7.057780"><ele>53.007</ele><time>2022-11-16T08:11:30Z</time></trkpt><trkpt lat="52.156150" lon="-7.061060"><ele>47.617</ele><time>2022-11-16T08:12:10Z</time></trkpt><trkpt lat="52.161780" lon="-7.062000"><ele>12.409</ele><time>2022-11-16T08:12:50Z</time></trkpt><trkpt lat="52.172030" lon="-7.070950"><ele>11.559</ele><time>2022-11-16T08:13:30Z</time></trkpt><trkpt lat="52.176470" lon="-7.091430"><ele>23.019</ele><time>2022-11-16T08:14:10Z</time></trkpt><trkpt lat="52.180500" lon="-7.101670"><ele>11.056</ele><time>2022-11-16T08:14:50Z</time></trkpt><trkpt lat="52.180580" lon="-7.112350"><ele>5.685</ele><time>2022-11-16T08:15:30Z</time></trkpt><trkpt lat="52.183120" lon="-7.116950"><ele>20.010</ele><time>2022-11-16T08:16:10Z</time></trkpt><trkpt lat="52.177130" lon="-7.117870"><ele>21.772</ele><time>2022-11-16T08:16:50Z</time></trkpt><trkpt lat="52.170500" lon="-7.123280"><ele>14.815</ele><time>2022-11-16T08:17:30Z</time></trkpt><trkpt lat="52.171700" lon="-7.132450"><ele>17.681</ele><time>2022-11-16T08:18:10Z</time></trkpt><trkpt lat="52.176430" lon="-7.137540"><ele>11.792</ele><time>2022-11-16T08:18:50Z</time></trkpt><trkpt lat="52.203500" lon="-7.116250"><ele>11.912</ele><time>2022-11-16T08:19:30Z</time></trkpt><trkpt lat="52.210190" lon="-7.116530"><ele>26.832</ele><time>2022-11-16T08:20:10Z</time></trkpt><trkpt lat="52.215280" lon="-7.125000"><ele>18.005</ele><time>2022-11-16T08:20:50Z</time></trkpt><trkpt lat="52.222810" lon="-7.127870"><ele>11.709</ele><time>2022-11-16T08:21:30Z</time></trkpt><trkpt lat="52.232680" lon="-7.121040"><ele>2.092</ele><time>2022-11-16T08:22:10Z</time></trkpt><trkpt lat="52.245420" lon="-7.119990"><ele>4.522</ele><time>2022-11-16T08:22:50Z</time></trkpt><trkpt lat="52.253140" lon="-7.112870"><ele>4.039</ele><time>2022-11-16T08:23:30Z</time></trkpt><trkpt lat="52.256720" lon="-7.112140"><ele>6.218</ele><time>2022-11-16T08:24:10Z</time></trkpt><trkpt lat="52.260430" lon="-7.105120"><ele>8.363</ele><time>2022-11-16T08:24:50Z</time></trkpt><trkpt lat="52.262120" lon="-7.111490"><ele>11.355</ele><time>2022-11-16T08:25:30Z</time></trkpt><trkpt lat="52.262120" lon="-7.111490"><ele>11.358</ele><time>2022-11-16T08:26:10Z</time></trkpt><trkpt lat="52.266440" lon="-7.133190"><ele>10.114</ele><time>2022-11-16T08:26:50Z</time></trkpt><trkpt lat="52.270110" lon="-7.138400"><ele>15.455</ele><time>2022-11-16T08:27:30Z</time></trkpt><trkpt lat="52.272910" lon="-7.147210"><ele>18.552</ele><time>2022-11-16T08:28:10Z</time></trkpt><trkpt lat="52.273260" lon="-7.157990"><ele>20.853</ele><time>2022-11-16T08:28:50Z</time></trkpt><trkpt lat="52.267420" lon="-7.173240"><ele>11.808</ele><time>2022-11-16T08:29:30Z</time></trkpt><trkpt lat="52.257160" lon="-7.188560"><ele>7.209</ele><time>2022-11-16T08:30:10Z</time></trkpt><trkpt lat="52.247220" lon="-7.198950"><ele>1.836</ele><time>2022-11-16T08:30:50Z</time></trkpt><trkpt lat="52.242190" lon="-7.212790"><ele>3.116</ele><time>2022-11-16T08:31:30Z</time></trkpt><trkpt lat="52.242350" lon="-7.220610"><ele>8.043</ele><time>2022-11-16T08:32:10Z</time></trkpt><trkpt lat="52.246520" lon="-7.231540"><ele>3.852</ele><time>2022-11-16T08:32:50Z</time></trkpt><trkpt lat="52.247320" lon="-7.240960"><ele>22.627</ele><time>2022-11-16T08:33:30Z</time></trkpt><trkpt lat="52.245520" lon="-7.258810"><ele>32.769</ele><time>2022-11-16T08:34:10Z</time></trkpt><trkpt lat="52.238590" lon="-7.269820"><ele>43.622</ele><time>2022-11-16T08:34:50Z</time></trkpt><trkpt lat="52.238040" lon="-7.297000"><ele>47.998</ele><time>2022-11-16T08:35:30Z</time></trkpt><trkpt lat="52.227330" lon="-7.319190"><ele>59.669</ele><time>2022-11-16T08:36:10Z</time></trkpt><trkpt lat="52.224460" lon="-7.340020"><ele>73.131</ele><time>2022-11-16T08:36:50Z</time></trkpt><trkpt lat="52.220170" lon="-7.345350"><ele>85.761</ele><time>2022-11-16T08:37:30Z</time></trkpt><trkpt lat="52.210530" lon="-7.366080"><ele>97.007</ele><time>2022-11-16T08:38:10Z</time></trkpt><trkpt lat="52.202800" lon="-7.395700"><ele>73.409</ele><time>2022-11-16T08:38:50Z</time></trkpt><trkpt lat="52.202680" lon="-7.409770"><ele>63.694</ele><time>2022-11-16T08:39:30Z</time></trkpt><trkpt lat="52.208630" lon="-7.428550"><ele>55.644</ele><time>2022-11-16T08:40:10Z</time></trkpt><trkpt lat="52.206690" lon="-7.439760"><ele>64.991</ele><time>2022-11-16T08:40:50Z</time></trkpt><trkpt lat="52.203360" lon="-7.446520"><ele>67.430</ele><time>2022-11-16T08:41:30Z</time></trkpt><trkpt lat="52.192550" lon="-7.459080"><ele>85.075</ele><time>2022-11-16T08:42:10Z</time></trkpt><trkpt lat="52.186610" lon="-7.475070"><ele>85.217</ele><time>2022-11-16T08:42:50Z</time></trkpt><trkpt lat="52.182310" lon="-7.480840"><ele>100.740</ele><time>2022-11-16T08:43:30Z</time></trkpt><trkpt lat="52.173030" lon="-7.483460"><ele>79.536</ele><time>2022-11-16T08:44:10Z</time></trkpt><trkpt lat="52.162460" lon="-7.494430"><ele>69.027</ele><time>2022-11-16T08:44:50Z</time></trkpt><trkpt lat="52.147170" lon="-7.495660"><ele>63.847</ele><time>2022-11-16T08:45:30Z</time></trkpt><trkpt lat="52.136280" lon="-7.508420"><ele>56.329</ele><time>2022-11-16T08:46:10Z</time></trkpt><trkpt lat="52.119610" lon="-7.506240"><ele>66.121</ele><time>2022-11-16T08:46:50Z</time></trkpt><trkpt lat="52.107680" lon="-7.513120"><ele>41.909</ele><time>2022-11-16T08:47:30Z</time></trkpt><trkpt lat="52.106580" lon="-7.516400"><ele>31.225</ele><time>2022-11-16T08:48:10Z</time></trkpt><trkpt lat="52.106510" lon="-7.533440"><ele>22.185</ele><time>2022-11-16T08:48:50Z</time></trkpt><trkpt lat="52.101240" lon="-7.556070"><ele>8.912</ele><time>2022-11-16T08:49:30Z</time></trkpt><trkpt lat="52.098020" lon="-7.589020"><ele>0.081</ele><time>2022-11-16T08:50:10Z</time></trkpt><trkpt lat="52.092210" lon="-7.611820"><ele>6.916</ele><time>2022-11-16T08:50:50Z</time></trkpt><trkpt lat="52.091510" lon="-7.619790"><ele>3.058</ele><time>2022-11-16T08:51:30Z</time></trkpt><trkpt lat="52.091510" lon="-7.619790"><ele>3.021</ele><time>2022-11-16T08:52:10Z</time></trkpt><trkpt lat="52.087880" lon="-7.621370"><ele>12.077</ele><time>2022-11-16T08:52:50Z</time></trkpt><trkpt lat="52.083090" lon="-7.634540"><ele>3.978</ele><time>2022-11-16T08:53:30Z</time></trkpt><trkpt lat="52.060780" lon="-7.649200"><ele>14.223</ele><time>2022-11-16T08:54:10Z</time></trkpt><trkpt lat="52.057070" lon="-7.641590"><ele>29.383</ele><time>2022-11-16T08:54:50Z</time></trkpt><trkpt lat="52.054490" lon="-7.629780"><ele>60.511</ele><time>2022-11-16T08:55:30Z</time></trkpt><trkpt lat="52.052210" lon="-7.626370"><ele>67.909</ele><time>2022-11-16T08:56:10Z</time></trkpt><trkpt lat="52.050720" lon="-7.627910"><ele>86.593</ele><time>2022-11-16T08:56:50Z</time></trkpt><trkpt lat="52.049260" lon="-7.621520"><ele>98.393</ele><time>2022-11-16T08:57:30Z</time></trkpt><trkpt lat="52.049200" lon="-7.623000"><ele>96.690</ele><time>2022-11-16T08:58:10Z</time></trkpt><trkpt lat="52.049890" lon="-7.614510"><ele>93.169</ele><time>2022-11-16T08:58:50Z</time></trkpt><trkpt lat="52.047780" lon="-7.600980"><ele>59.554</ele><time>2022-11-16T08:59:30Z</time></trkpt><trkpt lat="52.048970" lon="-7.584270"><ele>28.746</ele><time>2022-11-16T09:00:10Z</time></trkpt><trkpt lat="52.047200" lon="-7.582630"><ele>39.249</ele><time>2022-11-16T09:00:50Z</time></trkpt><trkpt lat="52.046100" lon="-7.569760"><ele>48.585</ele><time>2022-11-16T09:01:30Z</time></trkpt><trkpt lat="52.043280" lon="-7.568150"><ele>61.626</ele><time>2022-11-16T09:02:10Z</time></trkpt><trkpt lat="52.020720" lon="-7.597500"><ele>116.611</ele><time>2022-11-16T09:02:50Z</time></trkpt><trkpt lat="52.014350" lon="-7.593120"><ele>103.821</ele><time>2022-11-16T09:03:30Z</time></trkpt><trkpt lat="52.011360" lon="-7.597040"><ele>83.403</ele><time>2022-11-16T09:04:10Z</time></trkpt><trkpt lat="52.011950" lon="-7.601800"><ele>66.009</ele><time>2022-11-16T09:04:50Z</time></trkpt><trkpt lat="52.008760" lon="-7.598850"><ele>84.232</ele><time>2022-11-16T09:05:30Z</time></trkpt><trkpt lat="52.003600" lon="-7.605030"><ele>85.942</ele><time>2022-11-16T09:06:10Z</time></trkpt><trkpt lat="52.000950" lon="-7.601620"><ele>82.049</ele><time>2022-11-16T09:06:50Z</time></trkpt><trkpt lat="51.998790" lon="-7.602300"><ele>80.318</ele><time>2022-11-16T09:07:30Z</time></trkpt><trkpt lat="51.995870" lon="-7.609060"><ele>73.623</ele><time>2022-11-16T09:08:10Z</time></trkpt><trkpt lat="51.992660" lon="-7.626260"><ele>90.285</ele><time>2022-11-16T09:08:50Z</time></trkpt><trkpt lat="51.991310" lon="-7.627410"><ele>87.788</ele><time>2022-11-16T09:09:30Z</time></trkpt><trkpt lat="51.990800" lon="-7.630750"><ele>76.534</ele><time>2022-11-16T09:10:10Z</time></trkpt><trkpt lat="51.991970" lon="-7.632670"><ele>69.135</ele><time>2022-11-16T09:10:50Z</time></trkpt><trkpt lat="51.986700" lon="-7.640350"><ele>89.347</ele><time>2022-11-16T09:11:30Z</time></trkpt><trkpt lat="51.981420" lon="-7.673260"><ele>74.329</ele><time>2022-11-16T09:12:10Z</time></trkpt><trkpt lat="51.981500" lon="-7.676930"><ele>66.521</ele><time>2022-11-16T09:12:50Z</time></trkpt><trkpt lat="51.984360" lon="-7.681710"><ele>64.009</ele><time>2022-11-16T09:13:30Z</time></trkpt><trkpt lat="51.985130" lon="-7.690160"><ele>77.675</ele><time>2022-11-16T09:14:10Z</time></trkpt><trkpt lat="51.993540" lon="-7.697210"><ele>107.095</ele><time>2022-11-16T09:14:50Z</time></trkpt><trkpt lat="51.992300" lon="-7.705270"><ele>100.382</ele><time>2022-11-16T09:15:30Z</time></trkpt><trkpt lat="51.979620" lon="-7.707720"><ele>70.691</ele><time>2022-11-16T09:16:10Z</time></trkpt><trkpt lat="51.978290" lon="-7.718110"><ele>45.436</ele><time>2022-11-16T09:16:50Z</time></trkpt><trkpt lat="51.976040" lon="-7.715040"><ele>32.468</ele><time>2022-11-16T09:17:30Z</time></trkpt><trkpt lat="51.974440" lon="-7.716300"><ele>28.341</ele><time>2022-11-16T09:18:10Z</time></trkpt><trkpt lat="51.965310" lon="-7.712520"><ele>14.227</ele><time>2022-11-16T09:18:50Z</time></trkpt><trkpt lat="51.963670" lon="-7.715250"><ele>14.368</ele><time>2022-11-16T09:19:30Z</time></trkpt><trkpt lat="51.963440" lon="-7.731230"><ele>20.252</ele><time>2022-11-16T09:20:10Z</time></trkpt><trkpt lat="51.952880" lon="-7.725390"><ele>6.053</ele><time>2022-11-16T09:20:50Z</time></trkpt><trkpt lat="51.949010" lon="-7.725620"><ele>28.608</ele><time>2022-11-16T09:21:30Z</time></trkpt><trkpt lat="51.947120" lon="-7.739850"><ele>60.409</ele><time>2022-11-16T09:22:10Z</time></trkpt><trkpt lat="51.947320" lon="-7.743960"><ele>63.046</ele><time>2022-11-16T09:22:50Z</time></trkpt><trkpt lat="51.955710" lon="-7.742480"><ele>14.056</ele><time>2022-11-16T09:23:30Z</time></trkpt><trkpt lat="51.960320" lon="-7.750750"><ele>27.023</ele><time>2022-11-16T09:24:10Z</time></trkpt><trkpt lat="51.958370" lon="-7.771190"><ele>19.992</ele><time>2022-11-16T09:24:50Z</time></trkpt><trkpt lat="51.964490" lon="-7.793900"><ele>15.857</ele><time>2022-11-16T09:25:30Z</time></trkpt><trkpt lat="51.964050" lon="-7.807930"><ele>4.839</ele><time>2022-11-16T09:26:10Z</time></trkpt><trkpt lat="51.970690" lon="-7.809530"><ele>7.572</ele><time>2022-11-16T09:26:50Z</time></trkpt><trkpt lat="51.975490" lon="-7.804660"><ele>11.238</ele><time>2022-11-16T09:27:30Z</time></trkpt><trkpt lat="51.975220" lon="-7.830400"><ele>13.649</ele><time>2022-11-16T09:28:10Z</time></trkpt><trkpt lat="51.978710" lon="-7.848750"><ele>7.357</ele><time>2022-11-16T09:28:50Z</time></trkpt><trkpt lat="51.981570" lon="-7.854120"><ele>6.300</ele><time>2022-11-16T09:29:30Z</time></trkpt><trkpt lat="51.976290" lon="-7.865250"><ele>6.120</ele><time>2022-11-16T09:30:10Z</time></trkpt><trkpt lat="51.965940" lon="-7.863550"><ele>1.109</ele><time>2022-11-16T09:30:50Z</time></trkpt><trkpt lat="51.960450" lon="-7.859100"><ele>4.846</ele><time>2022-11-16T09:31:30Z</time></trkpt><trkpt lat="51.956310" lon="-7.851060"><ele>5.076</ele><time>2022-11-16T09:32:10Z</time></trkpt><trkpt lat="51.956960" lon="-7.849610"><ele>4.133</ele><time>2022-11-16T09:32:50Z</time></trkpt><trkpt lat="51.952050" lon="-7.845160"><ele>5.642</ele><time>2022-11-16T09:33:30Z</time></trkpt><trkpt lat="51.952050" lon="-7.845160"><ele>5.617</ele><time>2022-11-16T09:34:10Z</time></trkpt><trkpt lat="51.949740" lon="-7.843030"><ele>8.019</ele><time>2022-11-16T09:34:50Z</time></trkpt><trkpt lat="51.940880" lon="-7.843020"><ele>10.232</ele><time>2022-11-16T09:35:30Z</time></trkpt><trkpt lat="51.940610" lon="-7.858150"><ele>5.958</ele><time>2022-11-16T09:36:10Z</time></trkpt><trkpt lat="51.938710" lon="-7.863590"><ele>5.329</ele><time>2022-11-16T09:36:50Z</time></trkpt><trkpt lat="51.939930" lon="-7.885670"><ele>6.939</ele><time>2022-11-16T09:37:30Z</time></trkpt><trkpt lat="51.926990" lon="-7.894280"><ele>9.001</ele><time>2022-11-16T09:38:10Z</time></trkpt><trkpt lat="51.929280" lon="-7.906440"><ele>5.421</ele><time>2022-11-16T09:38:50Z</time></trkpt><trkpt lat="51.927830" lon="-7.940340"><ele>4.409</ele><time>2022-11-16T09:39:30Z</time></trkpt><trkpt lat="51.930040" lon="-7.957810"><ele>2.884</ele><time>2022-11-16T09:40:10Z</time></trkpt><trkpt lat="51.925160" lon="-7.971830"><ele>1.624</ele><time>2022-11-16T09:40:50Z</time></trkpt><trkpt lat="51.927530" lon="-7.981300"><ele>5.491</ele><time>2022-11-16T09:41:30Z</time></trkpt><trkpt lat="51.924300" lon="-7.985870"><ele>4.920</ele><time>2022-11-16T09:42:10Z</time></trkpt><trkpt lat="51.918740" lon="-8.010340"><ele>22.915</ele><time>2022-11-16T09:42:50Z</time></trkpt><trkpt lat="51.915260" lon="-8.015430"><ele>19.087</ele><time>2022-11-16T09:43:30Z</time></trkpt><trkpt lat="51.913000" lon="-8.024420"><ele>8.070</ele><time>2022-11-16T09:44:10Z</time></trkpt><trkpt lat="51.911000" lon="-8.024560"><ele>8.656</ele><time>2022-11-16T09:44:50Z</time></trkpt><trkpt lat="51.903520" lon="-8.045780"><ele>13.497</ele><time>2022-11-16T09:45:30Z</time></trkpt><trkpt lat="51.898240" lon="-8.043970"><ele>8.977</ele><time>2022-11-16T09:46:10Z</time></trkpt><trkpt lat="51.896530" lon="-8.056810"><ele>21.261</ele><time>2022-11-16T09:46:50Z</time></trkpt><trkpt lat="51.895680" lon="-8.089130"><ele>20.227</ele><time>2022-11-16T09:47:30Z</time></trkpt><trkpt lat="51.902890" lon="-8.089790"><ele>18.409</ele><time>2022-11-16T09:48:10Z</time></trkpt><trkpt lat="51.900940" lon="-8.105960"><ele>18.068</ele><time>2022-11-16T09:48:50Z</time></trkpt><trkpt lat="51.901610" lon="-8.120550"><ele>24.258</ele><time>2022-11-16T09:49:30Z</time></trkpt><trkpt lat="51.898390" lon="-8.139060"><ele>13.245</ele><time>2022-11-16T09:50:10Z</time></trkpt><trkpt lat="51.897990" lon="-8.161090"><ele>4.584</ele><time>2022-11-16T09:50:50Z</time></trkpt><trkpt lat="51.899830" lon="-8.166550"><ele>13.289</ele><time>2022-11-16T09:51:30Z</time></trkpt><trkpt lat="51.899180" lon="-8.168940"><ele>5.061</ele><time>2022-11-16T09:52:10Z</time></trkpt><trkpt lat="51.907840" lon="-8.174980"><ele>5.044</ele><time>2022-11-16T09:52:50Z</time></trkpt><trkpt lat="51.912040" lon="-8.173660"><ele>6.070</ele><time>2022-11-16T09:53:30Z</time></trkpt><trkpt lat="51.916550" lon="-8.175790"><ele>4.571</ele><time>2022-11-16T09:54:10Z</time></trkpt><trkpt lat="51.913940" lon="-8.188890"><ele>6.214</ele><time>2022-11-16T09:54:50Z</time></trkpt><trkpt lat="51.912240" lon="-8.190010"><ele>9.054</ele><time>2022-11-16T09:55:30Z</time></trkpt><trkpt lat="51.911140" lon="-8.201340"><ele>9.009</ele><time>2022-11-16T09:56:10Z</time></trkpt><trkpt lat="51.908640" lon="-8.205300"><ele>6.109</ele><time>2022-11-16T09:56:50Z</time></trkpt><trkpt lat="51.901470" lon="-8.206210"><ele>11.482</ele><time>2022-11-16T09:57:30Z</time></trkpt><trkpt lat="51.897010" lon="-8.220760"><ele>18.262</ele><time>2022-11-16T09:58:10Z</time></trkpt><trkpt lat="51.896010" lon="-8.259430"><ele>13.069</ele><time>2022-11-16T09:58:50Z</time></trkpt><trkpt lat="51.899310" lon="-8.277990"><ele>7.148</ele><time>2022-11-16T09:59:30Z</time></trkpt><trkpt lat="51.894510" lon="-8.282640"><ele>12.973</ele><time>2022-11-16T10:00:10Z</time></trkpt><trkpt lat="51.890370" lon="-8.295590"><ele>7.895</ele><time>2022-11-16T10:00:50Z</time></trkpt><trkpt lat="51.891060" lon="-8.301870"><ele>6.438</ele><time>2022-11-16T10:01:30Z</time></trkpt><trkpt lat="51.888460" lon="-8.304540"><ele>1.984</ele><time>2022-11-16T10:02:10Z</time></trkpt><trkpt lat="51.887890" lon="-8.302470"><ele>5.795</ele><time>2022-11-16T10:02:50Z</time></trkpt><trkpt lat="51.884890" lon="-8.302970"><ele>7.988</ele><time>2022-11-16T10:03:30Z</time></trkpt><trkpt lat="51.882220" lon="-8.298140"><ele>8.024</ele><time>2022-11-16T10:04:10Z</time></trkpt><trkpt lat="51.879500" lon="-8.274480"><ele>11.926</ele><time>2022-11-16T10:04:50Z</time></trkpt><trkpt lat="51.874970" lon="-8.273050"><ele>60.309</ele><time>2022-11-16T10:05:30Z</time></trkpt><trkpt lat="51.866040" lon="-8.274670"><ele>27.749</ele><time>2022-11-16T10:06:10Z</time></trkpt><trkpt lat="51.860430" lon="-8.282090"><ele>48.779</ele><time>2022-11-16T10:06:50Z</time></trkpt><trkpt lat="51.853480" lon="-8.278360"><ele>56.356</ele><time>2022-11-16T10:07:30Z</time></trkpt><trkpt lat="51.846830" lon="-8.317130"><ele>23.275</ele><time>2022-11-16T10:08:10Z</time></trkpt><trkpt lat="51.852340" lon="-8.326740"><ele>10.420</ele><time>2022-11-16T10:08:50Z</time></trkpt><trkpt lat="51.861870" lon="-8.325900"><ele>7.182</ele><time>2022-11-16T10:09:30Z</time></trkpt><trkpt lat="51.859580" lon="-8.329960"><ele>0.095</ele><time>2022-11-16T10:10:10Z</time></trkpt><trkpt lat="51.860120" lon="-8.332600"><ele>9.041</ele><time>2022-11-16T10:10:50Z</time></trkpt><trkpt lat="51.860120" lon="-8.332600"><ele>9.082</ele><time>2022-11-16T10:11:30Z</time></trkpt><trkpt lat="51.849750" lon="-8.331510"><ele>5.685</ele><time>2022-11-16T10:12:10Z</time></trkpt><trkpt lat="51.841170" lon="-8.340360"><ele>6.689</ele><time>2022-11-16T10:12:50Z</time></trkpt><trkpt lat="51.839520" lon="-8.347580"><ele>7.217</ele><time>2022-11-16T10:13:30Z</time></trkpt><trkpt lat="51.839920" lon="-8.353950"><ele>8.809</ele><time>2022-11-16T10:14:10Z</time></trkpt><trkpt lat="51.832540" lon="-8.385600"><ele>24.779</ele><time>2022-11-16T10:14:50Z</time></trkpt><trkpt lat="51.815830" lon="-8.374940"><ele>10.099</ele><time>2022-11-16T10:15:30Z</time></trkpt><trkpt lat="51.816040" lon="-8.388830"><ele>10.766</ele><time>2022-11-16T10:16:10Z</time></trkpt><trkpt lat="51.813600" lon="-8.388720"><ele>3.095</ele><time>2022-11-16T10:16:50Z</time></trkpt><trkpt lat="51.810370" lon="-8.374810"><ele>3.760</ele><time>2022-11-16T10:17:30Z</time></trkpt><trkpt lat="51.811280" lon="-8.370130"><ele>3.562</ele><time>2022-11-16T10:18:10Z</time></trkpt><trkpt lat="51.809730" lon="-8.350200"><ele>2.165</ele><time>2022-11-16T10:18:50Z</time></trkpt><trkpt lat="51.801320" lon="-8.329010"><ele>8.441</ele><time>2022-11-16T10:19:30Z</time></trkpt><trkpt lat="51.801620" lon="-8.326040"><ele>4.312</ele><time>2022-11-16T10:20:10Z</time></trkpt><trkpt lat="51.805380" lon="-8.321600"><ele>3.045</ele><time>2022-11-16T10:20:50Z</time></trkpt><trkpt lat="51.803450" lon="-8.307883"><ele>5.447</ele><time>2022-11-16T10:21:30Z</time></trkpt><trkpt lat="51.804340" lon="-8.298450"><ele>6.111</ele><time>2022-11-16T10:22:10Z</time></trkpt><trkpt lat="51.798062" lon="-8.296687"><ele>54.109</ele><time>2022-11-16T10:22:50Z</time></trkpt><trkpt lat="51.796290" lon="-8.299180"><ele>70.625</ele><time>2022-11-16T10:23:30Z</time></trkpt><trkpt lat="51.791530" lon="-8.297190"><ele>91.045</ele><time>2022-11-16T10:24:10Z</time></trkpt><trkpt lat="51.790250" lon="-8.306360"><ele>94.892</ele><time>2022-11-16T10:24:50Z</time></trkpt><trkpt lat="51.785240" lon="-8.305840"><ele>72.661</ele><time>2022-11-16T10:25:30Z</time></trkpt><trkpt lat="51.782550" lon="-8.296480"><ele>20.626</ele><time>2022-11-16T10:26:10Z</time></trkpt><trkpt lat="51.780390" lon="-8.294070"><ele>28.798</ele><time>2022-11-16T10:26:50Z</time></trkpt><trkpt lat="51.775620" lon="-8.311500"><ele>5.291</ele><time>2022-11-16T10:27:30Z</time></trkpt><trkpt lat="51.780920" lon="-8.317750"><ele>13.787</ele><time>2022-11-16T10:28:10Z</time></trkpt><trkpt lat="51.781920" lon="-8.334860"><ele>55.028</ele><time>2022-11-16T10:28:50Z</time></trkpt><trkpt lat="51.779900" lon="-8.344630"><ele>96.728</ele><time>2022-11-16T10:29:30Z</time></trkpt><trkpt lat="51.775570" lon="-8.355040"><ele>119.989</ele><time>2022-11-16T10:30:10Z</time></trkpt><trkpt lat="51.777160" lon="-8.371160"><ele>95.017</ele><time>2022-11-16T10:30:50Z</time></trkpt><trkpt lat="51.774720" lon="-8.374780"><ele>77.609</ele><time>2022-11-16T10:31:30Z</time></trkpt><trkpt lat="51.770720" lon="-8.375370"><ele>61.793</ele><time>2022-11-16T10:32:10Z</time></trkpt><trkpt lat="51.769280" lon="-8.379550"><ele>47.713</ele><time>2022-11-16T10:32:50Z</time></trkpt><trkpt lat="51.762830" lon="-8.381660"><ele>14.650</ele><time>2022-11-16T10:33:30Z</time></trkpt><trkpt lat="51.761980" lon="-8.370540"><ele>10.879</ele><time>2022-11-16T10:34:10Z</time></trkpt><trkpt lat="51.753740" lon="-8.354670"><ele>64.894</ele><time>2022-11-16T10:34:50Z</time></trkpt><trkpt lat="51.751050" lon="-8.345130"><ele>74.596</ele><time>2022-11-16T10:35:30Z</time></trkpt><trkpt lat="51.752340" lon="-8.338130"><ele>61.519</ele><time>2022-11-16T10:36:10Z</time></trkpt><trkpt lat="51.747690" lon="-8.334550"><ele>24.675</ele><time>2022-11-16T10:36:50Z</time></trkpt><trkpt lat="51.749230" lon="-8.325190"><ele>18.816</ele><time>2022-11-16T10:37:30Z</time></trkpt><trkpt lat="51.747770" lon="-8.319540"><ele>10.378</ele><time>2022-11-16T10:38:10Z</time></trkpt><trkpt lat="51.745560" lon="-8.313360"><ele>5.933</ele><time>2022-11-16T10:38:50Z</time></trkpt><trkpt lat="51.743510" lon="-8.313040"><ele>9.026</ele><time>2022-11-16T10:39:30Z</time></trkpt><trkpt lat="51.741460" lon="-8.322750"><ele>45.409</ele><time>2022-11-16T10:40:10Z</time></trkpt><trkpt lat="51.742700" lon="-8.325930"><ele>52.338</ele><time>2022-11-16T10:40:50Z</time></trkpt><trkpt lat="51.741320" lon="-8.339120"><ele>60.648</ele><time>2022-11-16T10:41:30Z</time></trkpt><trkpt lat="51.729030" lon="-8.361410"><ele>97.575</ele><time>2022-11-16T10:42:10Z</time></trkpt><trkpt lat="51.727960" lon="-8.369730"><ele>96.784</ele><time>2022-11-16T10:42:50Z</time></trkpt><trkpt lat="51.722650" lon="-8.381740"><ele>70.039</ele><time>2022-11-16T10:43:30Z</time></trkpt><trkpt lat="51.722060" lon="-8.411320"><ele>49.821</ele><time>2022-11-16T10:44:10Z</time></trkpt><trkpt lat="51.714150" lon="-8.463800"><ele>28.694</ele><time>2022-11-16T10:44:50Z</time></trkpt><trkpt lat="51.723220" lon="-8.470850"><ele>70.860</ele><time>2022-11-16T10:45:30Z</time></trkpt><trkpt lat="51.720800" lon="-8.487920"><ele>17.641</ele><time>2022-11-16T10:46:10Z</time></trkpt><trkpt lat="51.722430" lon="-8.488490"><ele>7.145</ele><time>2022-11-16T10:46:50Z</time></trkpt><trkpt lat="51.717510" lon="-8.494170"><ele>3.047</ele><time>2022-11-16T10:47:30Z</time></trkpt><trkpt lat="51.713540" lon="-8.491790"><ele>32.711</ele><time>2022-11-16T10:48:10Z</time></trkpt><trkpt lat="51.710720" lon="-8.499720"><ele>65.809</ele><time>2022-11-16T10:48:50Z</time></trkpt><trkpt lat="51.710970" lon="-8.504490"><ele>60.355</ele><time>2022-11-16T10:49:30Z</time></trkpt><trkpt lat="51.707970" lon="-8.497830"><ele>70.915</ele><time>2022-11-16T10:50:10Z</time></trkpt><trkpt lat="51.702130" lon="-8.502480"><ele>35.322</ele><time>2022-11-16T10:50:50Z</time></trkpt><trkpt lat="51.705340" lon="-8.510240"><ele>22.831</ele><time>2022-11-16T10:51:30Z</time></trkpt><trkpt lat="51.704050" lon="-8.518060"><ele>9.616</ele><time>2022-11-16T10:52:10Z</time></trkpt><trkpt lat="51.706680" lon="-8.516080"><ele>14.538</ele><time>2022-11-16T10:52:50Z</time></trkpt><trkpt lat="51.705850" lon="-8.522050"><ele>9.781</ele><time>2022-11-16T10:53:30Z</time></trkpt><trkpt lat="51.705850" lon="-8.522050"><ele>9.757</ele><time>2022-11-16T10:54:10Z</time></trkpt><trkpt lat="51.699170" lon="-8.518000"><ele>9.668</ele><time>2022-11-16T10:54:50Z</time></trkpt><trkpt lat="51.694790" lon="-8.527750"><ele>11.623</ele><time>2022-11-16T10:55:30Z</time></trkpt><trkpt lat="51.692190" lon="-8.524560"><ele>13.583</ele><time>2022-11-16T10:56:10Z</time></trkpt><trkpt lat="51.685650" lon="-8.530120"><ele>11.611</ele><time>2022-11-16T10:56:50Z</time></trkpt><trkpt lat="51.685530" lon="-8.525860"><ele>10.509</ele><time>2022-11-16T10:57:30Z</time></trkpt><trkpt lat="51.682430" lon="-8.520710"><ele>9.253</ele><time>2022-11-16T10:58:10Z</time></trkpt><trkpt lat="51.678320" lon="-8.520510"><ele>14.023</ele><time>2022-11-16T10:58:50Z</time></trkpt><trkpt lat="51.676870" lon="-8.524270"><ele>10.170</ele><time>2022-11-16T10:59:30Z</time></trkpt><trkpt lat="51.677050" lon="-8.529820"><ele>42.079</ele><time>2022-11-16T11:00:10Z</time></trkpt><trkpt lat="51.673630" lon="-8.529740"><ele>63.134</ele><time>2022-11-16T11:00:50Z</time></trkpt><trkpt lat="51.671950" lon="-8.546960"><ele>96.126</ele><time>2022-11-16T11:01:30Z</time></trkpt><trkpt lat="51.669710" lon="-8.555390"><ele>111.919</ele><time>2022-11-16T11:02:10Z</time></trkpt><trkpt lat="51.665340" lon="-8.553650"><ele>90.295</ele><time>2022-11-16T11:02:50Z</time></trkpt><trkpt lat="51.657040" lon="-8.559880"><ele>67.766</ele><time>2022-11-16T11:03:30Z</time></trkpt><trkpt lat="51.650100" lon="-8.559850"><ele>49.418</ele><time>2022-11-16T11:04:10Z</time></trkpt><trkpt lat="51.640880" lon="-8.550710"><ele>10.098</ele><time>2022-11-16T11:04:50Z</time></trkpt><trkpt lat="51.636900" lon="-8.550660"><ele>25.217</ele><time>2022-11-16T11:05:30Z</time></trkpt><trkpt lat="51.628540" lon="-8.543740"><ele>55.109</ele><time>2022-11-16T11:06:10Z</time></trkpt><trkpt lat="51.619680" lon="-8.542250"><ele>84.052</ele><time>2022-11-16T11:06:50Z</time></trkpt><trkpt lat="51.620710" lon="-8.545230"><ele>85.182</ele><time>2022-11-16T11:07:30Z</time></trkpt><trkpt lat="51.638360" lon="-8.559450"><ele>9.959</ele><time>2022-11-16T11:08:10Z</time></trkpt><trkpt lat="51.642170" lon="-8.569900"><ele>8.878</ele><time>2022-11-16T11:08:50Z</time></trkpt><trkpt lat="51.642080" lon="-8.575730"><ele>8.863</ele><time>2022-11-16T11:09:30Z</time></trkpt><trkpt lat="51.645070" lon="-8.581870"><ele>6.285</ele><time>2022-11-16T11:10:10Z</time></trkpt><trkpt lat="51.644710" lon="-8.592020"><ele>50.178</ele><time>2022-11-16T11:10:50Z</time></trkpt><trkpt lat="51.647050" lon="-8.593030"><ele>70.394</ele><time>2022-11-16T11:11:30Z</time></trkpt><trkpt lat="51.651060" lon="-8.606910"><ele>85.865</ele><time>2022-11-16T11:12:10Z</time></trkpt><trkpt lat="51.660340" lon="-8.621410"><ele>105.895</ele><time>2022-11-16T11:12:50Z</time></trkpt><trkpt lat="51.658850" lon="-8.634110"><ele>74.249</ele><time>2022-11-16T11:13:30Z</time></trkpt><trkpt lat="51.654720" lon="-8.631690"><ele>69.923</ele><time>2022-11-16T11:14:10Z</time></trkpt><trkpt lat="51.652400" lon="-8.641620"><ele>24.709</ele><time>2022-11-16T11:14:50Z</time></trkpt><trkpt lat="51.654160" lon="-8.664030"><ele>9.040</ele><time>2022-11-16T11:15:30Z</time></trkpt><trkpt lat="51.658170" lon="-8.673760"><ele>5.570</ele><time>2022-11-16T11:16:10Z</time></trkpt><trkpt lat="51.652630" lon="-8.679550"><ele>10.557</ele><time>2022-11-16T11:16:50Z</time></trkpt><trkpt lat="51.647170" lon="-8.680000"><ele>13.616</ele><time>2022-11-16T11:17:30Z</time></trkpt><trkpt lat="51.645200" lon="-8.683730"><ele>23.031</ele><time>2022-11-16T11:18:10Z</time></trkpt><trkpt lat="51.646020" lon="-8.694150"><ele>6.113</ele><time>2022-11-16T11:18:50Z</time></trkpt><trkpt lat="51.651730" lon="-8.698450"><ele>13.736</ele><time>2022-11-16T11:19:30Z</time></trkpt><trkpt lat="51.652150" lon="-8.702050"><ele>15.532</ele><time>2022-11-16T11:20:10Z</time></trkpt><trkpt lat="51.645900" lon="-8.702140"><ele>7.413</ele><time>2022-11-16T11:20:50Z</time></trkpt><trkpt lat="51.643970" lon="-8.706990"><ele>7.827</ele><time>2022-11-16T11:21:30Z</time></trkpt><trkpt lat="51.639390" lon="-8.711380"><ele>3.668</ele><time>2022-11-16T11:22:10Z</time></trkpt><trkpt lat="51.641480" lon="-8.719300"><ele>5.814</ele><time>2022-11-16T11:22:50Z</time></trkpt><trkpt lat="51.645670" lon="-8.722630"><ele>6.509</ele><time>2022-11-16T11:23:30Z</time></trkpt><trkpt lat="51.647450" lon="-8.728500"><ele>7.133</ele><time>2022-11-16T11:24:10Z</time></trkpt><trkpt lat="51.644900" lon="-8.763910"><ele>8.833</ele><time>2022-11-16T11:24:50Z</time></trkpt><trkpt lat="51.641920" lon="-8.763210"><ele>2.580</ele><time>2022-11-16T11:25:30Z</time></trkpt><trkpt lat="51.640660" lon="-8.759900"><ele>3.799</ele><time>2022-11-16T11:26:10Z</time></trkpt><trkpt lat="51.643040" lon="-8.756500"><ele>13.774</ele><time>2022-11-16T11:26:50Z</time></trkpt><trkpt lat="51.642700" lon="-8.750200"><ele>7.936</ele><time>2022-11-16T11:27:30Z</time></trkpt><trkpt lat="51.640410" lon="-8.741300"><ele>2.989</ele><time>2022-11-16T11:28:10Z</time></trkpt><trkpt lat="51.635590" lon="-8.732740"><ele>5.635</ele><time>2022-11-16T11:28:50Z</time></trkpt><trkpt lat="51.635450" lon="-8.711580"><ele>8.516</ele><time>2022-11-16T11:29:30Z</time></trkpt><trkpt lat="51.631950" lon="-8.701920"><ele>34.769</ele><time>2022-11-16T11:30:10Z</time></trkpt><trkpt lat="51.628190" lon="-8.709450"><ele>54.004</ele><time>2022-11-16T11:30:50Z</time></trkpt><trkpt lat="51.620580" lon="-8.709370"><ele>45.524</ele><time>2022-11-16T11:31:30Z</time></trkpt><trkpt lat="51.618050" lon="-8.713940"><ele>43.009</ele><time>2022-11-16T11:32:10Z</time></trkpt><trkpt lat="51.613440" lon="-8.710120"><ele>33.717</ele><time>2022-11-16T11:32:50Z</time></trkpt><trkpt lat="51.609100" lon="-8.710890"><ele>31.357</ele><time>2022-11-16T11:33:30Z</time></trkpt><trkpt lat="51.606480" lon="-8.713850"><ele>41.474</ele><time>2022-11-16T11:34:10Z</time></trkpt><trkpt lat="51.602820" lon="-8.713190"><ele>96.233</ele><time>2022-11-16T11:34:50Z</time></trkpt><trkpt lat="51.600850" lon="-8.715660"><ele>95.818</ele><time>2022-11-16T11:35:30Z</time></trkpt><trkpt lat="51.596710" lon="-8.743500"><ele>80.660</ele><time>2022-11-16T11:36:10Z</time></trkpt><trkpt lat="51.590260" lon="-8.753360"><ele>30.473</ele><time>2022-11-16T11:36:50Z</time></trkpt><trkpt lat="51.598780" lon="-8.769260"><ele>6.579</ele><time>2022-11-16T11:37:30Z</time></trkpt><trkpt lat="51.609330" lon="-8.770660"><ele>22.140</ele><time>2022-11-16T11:38:10Z</time></trkpt><trkpt lat="51.604130" lon="-8.785180"><ele>31.911</ele><time>2022-11-16T11:38:50Z</time></trkpt><trkpt lat="51.603310" lon="-8.795130"><ele>55.421</ele><time>2022-11-16T11:39:30Z</time></trkpt><trkpt lat="51.606370" lon="-8.806220"><ele>90.903</ele><time>2022-11-16T11:40:10Z</time></trkpt><trkpt lat="51.610710" lon="-8.811470"><ele>81.809</ele><time>2022-11-16T11:40:50Z</time></trkpt><trkpt lat="51.609510" lon="-8.830240"><ele>48.032</ele><time>2022-11-16T11:41:30Z</time></trkpt><trkpt lat="51.612350" lon="-8.837340"><ele>21.892</ele><time>2022-11-16T11:42:10Z</time></trkpt><trkpt lat="51.613670" lon="-8.837430"><ele>20.229</ele><time>2022-11-16T11:42:50Z</time></trkpt><trkpt lat="51.614600" lon="-8.845380"><ele>14.128</ele><time>2022-11-16T11:43:30Z</time></trkpt><trkpt lat="51.614270" lon="-8.848810"><ele>11.113</ele><time>2022-11-16T11:44:10Z</time></trkpt><trkpt lat="51.611020" lon="-8.851660"><ele>2.715</ele><time>2022-11-16T11:44:50Z</time></trkpt><trkpt lat="51.613410" lon="-8.861780"><ele>13.198</ele><time>2022-11-16T11:45:30Z</time></trkpt><trkpt lat="51.612790" lon="-8.867310"><ele>0.694</ele><time>2022-11-16T11:46:10Z</time></trkpt><trkpt lat="51.622560" lon="-8.878690"><ele>6.035</ele><time>2022-11-16T11:46:50Z</time></trkpt><trkpt lat="51.623390" lon="-8.881710"><ele>5.511</ele><time>2022-11-16T11:47:30Z</time></trkpt><trkpt lat="51.621940" lon="-8.885660"><ele>6.021</ele><time>2022-11-16T11:48:10Z</time></trkpt><trkpt lat="51.621940" lon="-8.885660"><ele>6.003</ele><time>2022-11-16T11:48:50Z</time></trkpt><trkpt lat="51.620580" lon="-8.886140"><ele>11.709</ele><time>2022-11-16T11:49:30Z</time></trkpt><trkpt lat="51.619060" lon="-8.881020"><ele>6.162</ele><time>2022-11-16T11:50:10Z</time></trkpt><trkpt lat="51.615950" lon="-8.880280"><ele>16.072</ele><time>2022-11-16T11:50:50Z</time></trkpt><trkpt lat="51.613870" lon="-8.875400"><ele>11.369</ele><time>2022-11-16T11:51:30Z</time></trkpt><trkpt lat="51.606160" lon="-8.877060"><ele>2.298</ele><time>2022-11-16T11:52:10Z</time></trkpt><trkpt lat="51.605770" lon="-8.882650"><ele>1.523</ele><time>2022-11-16T11:52:50Z</time></trkpt><trkpt lat="51.602840" lon="-8.885500"><ele>5.285</ele><time>2022-11-16T11:53:30Z</time></trkpt><trkpt lat="51.604200" lon="-8.892500"><ele>6.038</ele><time>2022-11-16T11:54:10Z</time></trkpt><trkpt lat="51.593430" lon="-8.897300"><ele>41.034</ele><time>2022-11-16T11:54:50Z</time></trkpt><trkpt lat="51.591890" lon="-8.895500"><ele>55.675</ele><time>2022-11-16T11:55:30Z</time></trkpt><trkpt lat="51.591060" lon="-8.897960"><ele>64.111</ele><time>2022-11-16T11:56:10Z</time></trkpt><trkpt lat="51.585110" lon="-8.900440"><ele>82.621</ele><time>2022-11-16T11:56:50Z</time></trkpt><trkpt lat="51.579820" lon="-8.910570"><ele>95.903</ele><time>2022-11-16T11:57:30Z</time></trkpt><trkpt lat="51.563940" lon="-8.909350"><ele>101.909</ele><time>2022-11-16T11:58:10Z</time></trkpt><trkpt lat="51.560760" lon="-8.912210"><ele>91.782</ele><time>2022-11-16T11:58:50Z</time></trkpt><trkpt lat="51.558630" lon="-8.910580"><ele>71.192</ele><time>2022-11-16T11:59:30Z</time></trkpt><trkpt lat="51.552460" lon="-8.920560"><ele>56.499</ele><time>2022-11-16T12:00:10Z</time></trkpt><trkpt lat="51.548320" lon="-8.923250"><ele>7.388</ele><time>2022-11-16T12:00:50Z</time></trkpt><trkpt lat="51.548170" lon="-8.932120"><ele>15.373</ele><time>2022-11-16T12:01:30Z</time></trkpt><trkpt lat="51.552680" lon="-8.935990"><ele>32.775</ele><time>2022-11-16T12:02:10Z</time></trkpt><trkpt lat="51.546180" lon="-8.945090"><ele>56.968</ele><time>2022-11-16T12:02:50Z</time></trkpt><trkpt lat="51.550800" lon="-8.953870"><ele>20.974</ele><time>2022-11-16T12:03:30Z</time></trkpt><trkpt lat="51.556850" lon="-8.958600"><ele>7.735</ele><time>2022-11-16T12:04:10Z</time></trkpt><trkpt lat="51.557210" lon="-8.963720"><ele>15.696</ele><time>2022-11-16T12:04:50Z</time></trkpt><trkpt lat="51.561090" lon="-8.971610"><ele>8.531</ele><time>2022-11-16T12:05:30Z</time></trkpt><trkpt lat="51.560460" lon="-8.982740"><ele>25.724</ele><time>2022-11-16T12:06:10Z</time></trkpt><trkpt lat="51.565630" lon="-8.989330"><ele>11.209</ele><time>2022-11-16T12:06:50Z</time></trkpt><trkpt lat="51.567620" lon="-9.002630"><ele>14.570</ele><time>2022-11-16T12:07:30Z</time></trkpt><trkpt lat="51.570820" lon="-9.002530"><ele>23.540</ele><time>2022-11-16T12:08:10Z</time></trkpt><trkpt lat="51.572130" lon="-9.005960"><ele>31.697</ele><time>2022-11-16T12:08:50Z</time></trkpt><trkpt lat="51.571380" lon="-9.013550"><ele>32.146</ele><time>2022-11-16T12:09:30Z</time></trkpt><trkpt lat="51.575280" lon="-9.019480"><ele>9.771</ele><time>2022-11-16T12:10:10Z</time></trkpt><trkpt lat="51.575670" lon="-9.027920"><ele>2.343</ele><time>2022-11-16T12:10:50Z</time></trkpt><trkpt lat="51.575670" lon="-9.027920"><ele>2.366</ele><time>2022-11-16T12:11:30Z</time></trkpt><trkpt lat="51.576150" lon="-9.035560"><ele>5.232</ele><time>2022-11-16T12:12:10Z</time></trkpt><trkpt lat="51.570640" lon="-9.054210"><ele>60.113</ele><time>2022-11-16T12:12:50Z</time></trkpt><trkpt lat="51.575750" lon="-9.064420"><ele>32.689</ele><time>2022-11-16T12:13:30Z</time></trkpt><trkpt lat="51.576590" lon="-9.069820"><ele>16.006</ele><time>2022-11-16T12:14:10Z</time></trkpt><trkpt lat="51.568160" lon="-9.089490"><ele>113.226</ele><time>2022-11-16T12:14:50Z</time></trkpt><trkpt lat="51.564080" lon="-9.108330"><ele>48.709</ele><time>2022-11-16T12:15:30Z</time></trkpt><trkpt lat="51.564180" lon="-9.115690"><ele>21.069</ele><time>2022-11-16T12:16:10Z</time></trkpt><trkpt lat="51.566510" lon="-9.121160"><ele>14.779</ele><time>2022-11-16T12:16:50Z</time></trkpt><trkpt lat="51.562930" lon="-9.125840"><ele>9.796</ele><time>2022-11-16T12:17:30Z</time></trkpt><trkpt lat="51.562840" lon="-9.130810"><ele>10.645</ele><time>2022-11-16T12:18:10Z</time></trkpt><trkpt lat="51.566260" lon="-9.135460"><ele>9.120</ele><time>2022-11-16T12:18:50Z</time></trkpt><trkpt lat="51.564940" lon="-9.138940"><ele>23.992</ele><time>2022-11-16T12:19:30Z</time></trkpt><trkpt lat="51.560820" lon="-9.139430"><ele>13.545</ele><time>2022-11-16T12:20:10Z</time></trkpt><trkpt lat="51.559820" lon="-9.141600"><ele>6.651</ele><time>2022-11-16T12:20:50Z</time></trkpt><trkpt lat="51.558660" lon="-9.139970"><ele>6.062</ele><time>2022-11-16T12:21:30Z</time></trkpt><trkpt lat="51.553050" lon="-9.146220"><ele>29.168</ele><time>2022-11-16T12:22:10Z</time></trkpt><trkpt lat="51.552400" lon="-9.152480"><ele>74.442</ele><time>2022-11-16T12:22:50Z</time></trkpt><trkpt lat="51.555800" lon="-9.162050"><ele>51.626</ele><time>2022-11-16T12:23:30Z</time></trkpt><trkpt lat="51.545670" lon="-9.181080"><ele>14.809</ele><time>2022-11-16T12:24:10Z</time></trkpt><trkpt lat="51.541530" lon="-9.202660"><ele>31.087</ele><time>2022-11-16T12:24:50Z</time></trkpt><trkpt lat="51.538610" lon="-9.205660"><ele>33.447</ele><time>2022-11-16T12:25:30Z</time></trkpt><trkpt lat="51.536620" lon="-9.199600"><ele>61.044</ele><time>2022-11-16T12:26:10Z</time></trkpt><trkpt lat="51.533670" lon="-9.202450"><ele>65.453</ele><time>2022-11-16T12:26:50Z</time></trkpt><trkpt lat="51.528760" lon="-9.195260"><ele>89.928</ele><time>2022-11-16T12:27:30Z</time></trkpt><trkpt lat="51.530140" lon="-9.183910"><ele>81.540</ele><time>2022-11-16T12:28:10Z</time></trkpt><trkpt lat="51.527810" lon="-9.180670"><ele>58.223</ele><time>2022-11-16T12:28:50Z</time></trkpt><trkpt lat="51.525320" lon="-9.189030"><ele>67.519</ele><time>2022-11-16T12:29:30Z</time></trkpt><trkpt lat="51.515800" lon="-9.194190"><ele>40.240</ele><time>2022-11-16T12:30:10Z</time></trkpt><trkpt lat="51.513000" lon="-9.203200"><ele>32.842</ele><time>2022-11-16T12:30:50Z</time></trkpt><trkpt lat="51.506350" lon="-9.208580"><ele>24.122</ele><time>2022-11-16T12:31:30Z</time></trkpt><trkpt lat="51.499070" lon="-9.227940"><ele>16.414</ele><time>2022-11-16T12:32:10Z</time></trkpt><trkpt lat="51.497730" lon="-9.236970"><ele>11.809</ele><time>2022-11-16T12:32:50Z</time></trkpt><trkpt lat="51.493320" lon="-9.240760"><ele>28.985</ele><time>2022-11-16T12:33:30Z</time></trkpt><trkpt lat="51.491430" lon="-9.264960"><ele>25.525</ele><time>2022-11-16T12:34:10Z</time></trkpt><trkpt lat="51.500110" lon="-9.259790"><ele>32.162</ele><time>2022-11-16T12:34:50Z</time></trkpt><trkpt lat="51.500750" lon="-9.264670"><ele>6.421</ele><time>2022-11-16T12:35:30Z</time></trkpt><trkpt lat="51.502730" lon="-9.264990"><ele>9.886</ele><time>2022-11-16T12:36:10Z</time></trkpt><trkpt lat="51.505080" lon="-9.269450"><ele>36.148</ele><time>2022-11-16T12:36:50Z</time></trkpt><trkpt lat="51.508490" lon="-9.270310"><ele>50.741</ele><time>2022-11-16T12:37:30Z</time></trkpt><trkpt lat="51.504720" lon="-9.274230"><ele>48.527</ele><time>2022-11-16T12:38:10Z</time></trkpt><trkpt lat="51.511850" lon="-9.276060"><ele>9.388</ele><time>2022-11-16T12:38:50Z</time></trkpt><trkpt lat="51.507910" lon="-9.287790"><ele>31.934</ele><time>2022-11-16T12:39:30Z</time></trkpt><trkpt lat="51.513040" lon="-9.290600"><ele>70.455</ele><time>2022-11-16T12:40:10Z</time></trkpt><trkpt lat="51.510030" lon="-9.300700"><ele>49.210</ele><time>2022-11-16T12:40:50Z</time></trkpt><trkpt lat="51.508750" lon="-9.301070"><ele>40.809</ele><time>2022-11-16T12:41:30Z</time></trkpt><trkpt lat="51.509070" lon="-9.305350"><ele>18.174</ele><time>2022-11-16T12:42:10Z</time></trkpt><trkpt lat="51.503350" lon="-9.310380"><ele>52.124</ele><time>2022-11-16T12:42:50Z</time></trkpt><trkpt lat="51.501300" lon="-9.317050"><ele>93.971</ele><time>2022-11-16T12:43:30Z</time></trkpt><trkpt lat="51.499070" lon="-9.317590"><ele>86.640</ele><time>2022-11-16T12:44:10Z</time></trkpt><trkpt lat="51.496390" lon="-9.324710"><ele>63.055</ele><time>2022-11-16T12:44:50Z</time></trkpt><trkpt lat="51.492090" lon="-9.327260"><ele>69.237</ele><time>2022-11-16T12:45:30Z</time></trkpt><trkpt lat="51.487860" lon="-9.339260"><ele>83.480</ele><time>2022-11-16T12:46:10Z</time></trkpt><trkpt lat="51.485100" lon="-9.353180"><ele>68.196</ele><time>2022-11-16T12:46:50Z</time></trkpt><trkpt lat="51.481180" lon="-9.358980"><ele>37.467</ele><time>2022-11-16T12:47:30Z</time></trkpt><trkpt lat="51.488480" lon="-9.355460"><ele>14.067</ele><time>2022-11-16T12:48:10Z</time></trkpt><trkpt lat="51.492510" lon="-9.348810"><ele>23.381</ele><time>2022-11-16T12:48:50Z</time></trkpt><trkpt lat="51.494900" lon="-9.351740"><ele>28.819</ele><time>2022-11-16T12:49:30Z</time></trkpt><trkpt lat="51.500030" lon="-9.351830"><ele>30.709</ele><time>2022-11-16T12:50:10Z</time></trkpt><trkpt lat="51.505530" lon="-9.349220"><ele>16.227</ele><time>2022-11-16T12:50:50Z</time></trkpt><trkpt lat="51.508870" lon="-9.344490"><ele>16.887</ele><time>2022-11-16T12:51:30Z</time></trkpt><trkpt lat="51.514220" lon="-9.344640"><ele>28.914</ele><time>2022-11-16T12:52:10Z</time></trkpt><trkpt lat="51.522360" lon="-9.334680"><ele>25.723</ele><time>2022-11-16T12:52:50Z</time></trkpt><trkpt lat="51.530350" lon="-9.320860"><ele>18.738</ele><time>2022-11-16T12:53:30Z</time></trkpt><trkpt lat="51.534980" lon="-9.317780"><ele>11.910</ele><time>2022-11-16T12:54:10Z</time></trkpt><trkpt lat="51.543830" lon="-9.316730"><ele>13.283</ele><time>2022-11-16T12:54:50Z</time></trkpt><trkpt lat="51.548800" lon="-9.305450"><ele>11.649</ele><time>2022-11-16T12:55:30Z</time></trkpt><trkpt lat="51.551020" lon="-9.284520"><ele>17.090</ele><time>2022-11-16T12:56:10Z</time></trkpt><trkpt lat="51.552070" lon="-9.287260"><ele>16.155</ele><time>2022-11-16T12:56:50Z</time></trkpt><trkpt lat="51.555200" lon="-9.287210"><ele>48.907</ele><time>2022-11-16T12:57:30Z</time></trkpt><trkpt lat="51.555620" lon="-9.295230"><ele>67.017</ele><time>2022-11-16T12:58:10Z</time></trkpt><trkpt lat="51.558300" lon="-9.300060"><ele>66.709</ele><time>2022-11-16T12:58:50Z</time></trkpt><trkpt lat="51.558870" lon="-9.304900"><ele>55.796</ele><time>2022-11-16T12:59:30Z</time></trkpt><trkpt lat="51.553870" lon="-9.330930"><ele>85.096</ele><time>2022-11-16T13:00:10Z</time></trkpt><trkpt lat="51.554110" lon="-9.335560"><ele>79.643</ele><time>2022-11-16T13:00:50Z</time></trkpt><trkpt lat="51.548910" lon="-9.346280"><ele>42.232</ele><time>2022-11-16T13:01:30Z</time></trkpt><trkpt lat="51.541990" lon="-9.345840"><ele>14.827</ele><time>2022-11-16T13:02:10Z</time></trkpt><trkpt lat="51.536940" lon="-9.354550"><ele>5.469</ele><time>2022-11-16T13:02:50Z</time></trkpt><trkpt lat="51.532470" lon="-9.353320"><ele>5.822</ele><time>2022-11-16T13:03:30Z</time></trkpt><trkpt lat="51.529460" lon="-9.358990"><ele>9.168</ele><time>2022-11-16T13:04:10Z</time></trkpt><trkpt lat="51.535360" lon="-9.364390"><ele>34.039</ele><time>2022-11-16T13:04:50Z</time></trkpt><trkpt lat="51.533630" lon="-9.371270"><ele>12.661</ele><time>2022-11-16T13:05:30Z</time></trkpt><trkpt lat="51.534240" lon="-9.377920"><ele>22.921</ele><time>2022-11-16T13:06:10Z</time></trkpt><trkpt lat="51.538420" lon="-9.381950"><ele>23.713</ele><time>2022-11-16T13:06:50Z</time></trkpt><trkpt lat="51.539740" lon="-9.385860"><ele>23.109</ele><time>2022-11-16T13:07:30Z</time></trkpt><trkpt lat="51.542870" lon="-9.386540"><ele>29.147</ele><time>2022-11-16T13:08:10Z</time></trkpt><trkpt lat="51.547910" lon="-9.379380"><ele>43.047</ele><time>2022-11-16T13:08:50Z</time></trkpt><trkpt lat="51.553720" lon="-9.382030"><ele>49.384</ele><time>2022-11-16T13:09:30Z</time></trkpt><trkpt lat="51.553110" lon="-9.392770"><ele>22.793</ele><time>2022-11-16T13:10:10Z</time></trkpt><trkpt lat="51.554540" lon="-9.395130"><ele>22.628</ele><time>2022-11-16T13:10:50Z</time></trkpt><trkpt lat="51.552480" lon="-9.398640"><ele>51.270</ele><time>2022-11-16T13:11:30Z</time></trkpt><trkpt lat="51.553070" lon="-9.409520"><ele>12.753</ele><time>2022-11-16T13:12:10Z</time></trkpt><trkpt lat="51.562340" lon="-9.441070"><ele>39.239</ele><time>2022-11-16T13:12:50Z</time></trkpt><trkpt lat="51.562910" lon="-9.459730"><ele>9.590</ele><time>2022-11-16T13:13:30Z</time></trkpt><trkpt lat="51.562910" lon="-9.459730"><ele>9.565</ele><time>2022-11-16T13:14:10Z</time></trkpt><trkpt lat="51.558270" lon="-9.460310"><ele>20.568</ele><time>2022-11-16T13:14:50Z</time></trkpt><trkpt lat="51.554990" lon="-9.454630"><ele>12.314</ele><time>2022-11-16T13:15:30Z</time></trkpt><trkpt lat="51.551780" lon="-9.456720"><ele>15.209</ele><time>2022-11-16T13:16:10Z</time></trkpt><trkpt lat="51.548380" lon="-9.464220"><ele>19.097</ele><time>2022-11-16T13:16:50Z</time></trkpt><trkpt lat="51.545190" lon="-9.465910"><ele>26.377</ele><time>2022-11-16T13:17:30Z</time></trkpt><trkpt lat="51.539930" lon="-9.464360"><ele>41.274</ele><time>2022-11-16T13:18:10Z</time></trkpt><trkpt lat="51.535850" lon="-9.489590"><ele>34.923</ele><time>2022-11-16T13:18:50Z</time></trkpt><trkpt lat="51.533250" lon="-9.496310"><ele>36.678</ele><time>2022-11-16T13:19:30Z</time></trkpt><trkpt lat="51.528140" lon="-9.500260"><ele>30.590</ele><time>2022-11-16T13:20:10Z</time></trkpt><trkpt lat="51.527520" lon="-9.508730"><ele>42.553</ele><time>2022-11-16T13:20:50Z</time></trkpt><trkpt lat="51.530180" lon="-9.513300"><ele>56.439</ele><time>2022-11-16T13:21:30Z</time></trkpt><trkpt lat="51.528530" lon="-9.523770"><ele>15.680</ele><time>2022-11-16T13:22:10Z</time></trkpt><trkpt lat="51.530930" lon="-9.527320"><ele>8.328</ele><time>2022-11-16T13:22:50Z</time></trkpt><trkpt lat="51.529760" lon="-9.539550"><ele>9.889</ele><time>2022-11-16T13:23:30Z</time></trkpt><trkpt lat="51.526900" lon="-9.544560"><ele>21.817</ele><time>2022-11-16T13:24:10Z</time></trkpt><trkpt lat="51.523530" lon="-9.567990"><ele>85.509</ele><time>2022-11-16T13:24:50Z</time></trkpt><trkpt lat="51.517380" lon="-9.586830"><ele>6.283</ele><time>2022-11-16T13:25:30Z</time></trkpt><trkpt lat="51.504530" lon="-9.608760"><ele>21.733</ele><time>2022-11-16T13:26:10Z</time></trkpt><trkpt lat="51.502840" lon="-9.617740"><ele>25.060</ele><time>2022-11-16T13:26:50Z</time></trkpt><trkpt lat="51.503890" lon="-9.622570"><ele>39.349</ele><time>2022-11-16T13:27:30Z</time></trkpt><trkpt lat="51.510220" lon="-9.628840"><ele>31.464</ele><time>2022-11-16T13:28:10Z</time></trkpt><trkpt lat="51.515860" lon="-9.627360"><ele>20.086</ele><time>2022-11-16T13:28:50Z</time></trkpt><trkpt lat="51.512880" lon="-9.642600"><ele>9.079</ele><time>2022-11-16T13:29:30Z</time></trkpt><trkpt lat="51.520880" lon="-9.643510"><ele>4.685</ele><time>2022-11-16T13:30:10Z</time></trkpt><trkpt lat="51.521480" lon="-9.647610"><ele>8.766</ele><time>2022-11-16T13:30:50Z</time></trkpt><trkpt lat="51.519260" lon="-9.654710"><ele>23.027</ele><time>2022-11-16T13:31:30Z</time></trkpt><trkpt lat="51.520210" lon="-9.657540"><ele>25.468</ele><time>2022-11-16T13:32:10Z</time></trkpt><trkpt lat="51.516610" lon="-9.667500"><ele>5.814</ele><time>2022-11-16T13:32:50Z</time></trkpt><trkpt lat="51.508700" lon="-9.669960"><ele>25.809</ele><time>2022-11-16T13:33:30Z</time></trkpt><trkpt lat="51.507650" lon="-9.684000"><ele>30.093</ele><time>2022-11-16T13:34:10Z</time></trkpt><trkpt lat="51.508740" lon="-9.691740"><ele>42.383</ele><time>2022-11-16T13:34:50Z</time></trkpt><trkpt lat="51.506090" lon="-9.701420"><ele>47.040</ele><time>2022-11-16T13:35:30Z</time></trkpt><trkpt lat="51.502120" lon="-9.702950"><ele>30.459</ele><time>2022-11-16T13:36:10Z</time></trkpt><trkpt lat="51.499710" lon="-9.710900"><ele>12.954</ele><time>2022-11-16T13:36:50Z</time></trkpt><trkpt lat="51.495480" lon="-9.711910"><ele>12.186</ele><time>2022-11-16T13:37:30Z</time></trkpt><trkpt lat="51.489700" lon="-9.705200"><ele>15.269</ele><time>2022-11-16T13:38:10Z</time></trkpt><trkpt lat="51.480360" lon="-9.709370"><ele>6.025</ele><time>2022-11-16T13:38:50Z</time></trkpt><trkpt lat="51.475150" lon="-9.720870"><ele>10.856</ele><time>2022-11-16T13:39:30Z</time></trkpt><trkpt lat="51.475380" lon="-9.723930"><ele>11.129</ele><time>2022-11-16T13:40:10Z</time></trkpt><trkpt lat="51.471640" lon="-9.732130"><ele>13.100</ele><time>2022-11-16T13:40:50Z</time></trkpt><trkpt lat="51.470820" lon="-9.738920"><ele>17.120</ele><time>2022-11-16T13:41:30Z</time></trkpt><trkpt lat="51.463280" lon="-9.751560"><ele>3.309</ele><time>2022-11-16T13:42:10Z</time></trkpt><trkpt lat="51.464590" lon="-9.757170"><ele>6.513</ele><time>2022-11-16T13:42:50Z</time></trkpt><trkpt lat="51.463990" lon="-9.766970"><ele>21.743</ele><time>2022-11-16T13:43:30Z</time></trkpt><trkpt lat="51.466150" lon="-9.769380"><ele>40.390</ele><time>2022-11-16T13:44:10Z</time></trkpt><trkpt lat="51.472350" lon="-9.767500"><ele>8.669</ele><time>2022-11-16T13:44:50Z</time></trkpt><trkpt lat="51.478400" lon="-9.769270"><ele>10.624</ele><time>2022-11-16T13:45:30Z</time></trkpt><trkpt lat="51.480450" lon="-9.762660"><ele>3.066</ele><time>2022-11-16T13:46:10Z</time></trkpt><trkpt lat="51.485700" lon="-9.765230"><ele>4.419</ele><time>2022-11-16T13:46:50Z</time></trkpt><trkpt lat="51.487340" lon="-9.775650"><ele>35.015</ele><time>2022-11-16T13:47:30Z</time></trkpt><trkpt lat="51.490720" lon="-9.772490"><ele>37.676</ele><time>2022-11-16T13:48:10Z</time></trkpt><trkpt lat="51.508050" lon="-9.766630"><ele>111.193</ele><time>2022-11-16T13:48:50Z</time></trkpt><trkpt lat="51.509020" lon="-9.752860"><ele>123.865</ele><time>2022-11-16T13:49:30Z</time></trkpt><trkpt lat="51.518080" lon="-9.739020"><ele>148.821</ele><time>2022-11-16T13:50:10Z</time></trkpt><trkpt lat="51.516580" lon="-9.725830"><ele>120.909</ele><time>2022-11-16T13:50:50Z</time></trkpt><trkpt lat="51.518320" lon="-9.718390"><ele>95.270</ele><time>2022-11-16T13:51:30Z</time></trkpt><trkpt lat="51.521150" lon="-9.714240"><ele>73.840</ele><time>2022-11-16T13:52:10Z</time></trkpt><trkpt lat="51.519050" lon="-9.708380"><ele>54.327</ele><time>2022-11-16T13:52:50Z</time></trkpt><trkpt lat="51.539260" lon="-9.674090"><ele>10.416</ele><time>2022-11-16T13:53:30Z</time></trkpt><trkpt lat="51.539760" lon="-9.664400"><ele>6.791</ele><time>2022-11-16T13:54:10Z</time></trkpt><trkpt lat="51.539760" lon="-9.664400"><ele>6.733</ele><time>2022-11-16T13:54:50Z</time></trkpt><trkpt lat="51.539600" lon="-9.641010"><ele>19.086</ele><time>2022-11-16T13:55:30Z</time></trkpt><trkpt lat="51.551390" lon="-9.630460"><ele>43.062</ele><time>2022-11-16T13:56:10Z</time></trkpt><trkpt lat="51.553980" lon="-9.622640"><ele>58.323</ele><time>2022-11-16T13:56:50Z</time></trkpt><trkpt lat="51.556680" lon="-9.619550"><ele>67.335</ele><time>2022-11-16T13:57:30Z</time></trkpt><trkpt lat="51.566070" lon="-9.617070"><ele>75.586</ele><time>2022-11-16T13:58:10Z</time></trkpt><trkpt lat="51.568180" lon="-9.619200"><ele>72.614</ele><time>2022-11-16T13:58:50Z</time></trkpt><trkpt lat="51.584660" lon="-9.582210"><ele>27.009</ele><time>2022-11-16T13:59:30Z</time></trkpt><trkpt lat="51.594620" lon="-9.577910"><ele>23.834</ele><time>2022-11-16T14:00:10Z</time></trkpt><trkpt lat="51.602500" lon="-9.546310"><ele>20.724</ele><time>2022-11-16T14:00:50Z</time></trkpt><trkpt lat="51.607590" lon="-9.533750"><ele>12.221</ele><time>2022-11-16T14:01:30Z</time></trkpt><trkpt lat="51.621390" lon="-9.522270"><ele>13.220</ele><time>2022-11-16T14:02:10Z</time></trkpt><trkpt lat="51.619760" lon="-9.530000"><ele>7.495</ele><time>2022-11-16T14:02:50Z</time></trkpt><trkpt lat="51.620210" lon="-9.535770"><ele>8.067</ele><time>2022-11-16T14:03:30Z</time></trkpt><trkpt lat="51.617350" lon="-9.542870"><ele>5.580</ele><time>2022-11-16T14:04:10Z</time></trkpt><trkpt lat="51.617580" lon="-9.548700"><ele>8.396</ele><time>2022-11-16T14:04:50Z</time></trkpt><trkpt lat="51.611590" lon="-9.560920"><ele>7.937</ele><time>2022-11-16T14:05:30Z</time></trkpt><trkpt lat="51.613170" lon="-9.566450"><ele>8.579</ele><time>2022-11-16T14:06:10Z</time></trkpt><trkpt lat="51.610790" lon="-9.578700"><ele>7.805</ele><time>2022-11-16T14:06:50Z</time></trkpt><trkpt lat="51.611700" lon="-9.583880"><ele>11.525</ele><time>2022-11-16T14:07:30Z</time></trkpt><trkpt lat="51.607020" lon="-9.600450"><ele>5.409</ele><time>2022-11-16T14:08:10Z</time></trkpt><trkpt lat="51.610590" lon="-9.605160"><ele>42.798</ele><time>2022-11-16T14:08:50Z</time></trkpt><trkpt lat="51.609790" lon="-9.611140"><ele>40.198</ele><time>2022-11-16T14:09:30Z</time></trkpt><trkpt lat="51.597910" lon="-9.643200"><ele>13.235</ele><time>2022-11-16T14:10:10Z</time></trkpt><trkpt lat="51.593880" lon="-9.641380"><ele>19.844</ele><time>2022-11-16T14:10:50Z</time></trkpt><trkpt lat="51.588940" lon="-9.651900"><ele>27.459</ele><time>2022-11-16T14:11:30Z</time></trkpt><trkpt lat="51.584370" lon="-9.673490"><ele>42.831</ele><time>2022-11-16T14:12:10Z</time></trkpt><trkpt lat="51.583640" lon="-9.681160"><ele>29.944</ele><time>2022-11-16T14:12:50Z</time></trkpt><trkpt lat="51.584890" lon="-9.686590"><ele>28.890</ele><time>2022-11-16T14:13:30Z</time></trkpt><trkpt lat="51.581060" lon="-9.703090"><ele>40.181</ele><time>2022-11-16T14:14:10Z</time></trkpt><trkpt lat="51.591430" lon="-9.714990"><ele>128.987</ele><time>2022-11-16T14:14:50Z</time></trkpt><trkpt lat="51.599190" lon="-9.707060"><ele>155.242</ele><time>2022-11-16T14:15:30Z</time></trkpt><trkpt lat="51.602020" lon="-9.708370"><ele>146.026</ele><time>2022-11-16T14:16:10Z</time></trkpt><trkpt lat="51.613720" lon="-9.686970"><ele>45.109</ele><time>2022-11-16T14:16:50Z</time></trkpt><trkpt lat="51.622540" lon="-9.665670"><ele>58.549</ele><time>2022-11-16T14:17:30Z</time></trkpt><trkpt lat="51.636940" lon="-9.601950"><ele>22.149</ele><time>2022-11-16T14:18:10Z</time></trkpt><trkpt lat="51.642930" lon="-9.590710"><ele>19.176</ele><time>2022-11-16T14:18:50Z</time></trkpt><trkpt lat="51.649660" lon="-9.570190"><ele>5.915</ele><time>2022-11-16T14:19:30Z</time></trkpt><trkpt lat="51.651490" lon="-9.553650"><ele>20.080</ele><time>2022-11-16T14:20:10Z</time></trkpt><trkpt lat="51.660150" lon="-9.514430"><ele>20.522</ele><time>2022-11-16T14:20:50Z</time></trkpt><trkpt lat="51.666210" lon="-9.499710"><ele>31.015</ele><time>2022-11-16T14:21:30Z</time></trkpt><trkpt lat="51.668690" lon="-9.497910"><ele>44.531</ele><time>2022-11-16T14:22:10Z</time></trkpt><trkpt lat="51.672160" lon="-9.490350"><ele>13.532</ele><time>2022-11-16T14:22:50Z</time></trkpt><trkpt lat="51.673710" lon="-9.480730"><ele>32.476</ele><time>2022-11-16T14:23:30Z</time></trkpt><trkpt lat="51.671700" lon="-9.478970"><ele>28.590</ele><time>2022-11-16T14:24:10Z</time></trkpt><trkpt lat="51.671670" lon="-9.476130"><ele>28.919</ele><time>2022-11-16T14:24:50Z</time></trkpt><trkpt lat="51.676920" lon="-9.472220"><ele>5.009</ele><time>2022-11-16T14:25:30Z</time></trkpt><trkpt lat="51.681010" lon="-9.454570"><ele>4.568</ele><time>2022-11-16T14:26:10Z</time></trkpt><trkpt lat="51.680360" lon="-9.452200"><ele>6.628</ele><time>2022-11-16T14:26:50Z</time></trkpt><trkpt lat="51.680360" lon="-9.452200"><ele>6.695</ele><time>2022-11-16T14:27:30Z</time></trkpt><trkpt lat="51.680310" lon="-9.449130"><ele>11.244</ele><time>2022-11-16T14:28:10Z</time></trkpt><trkpt lat="51.683060" lon="-9.446370"><ele>14.929</ele><time>2022-11-16T14:28:50Z</time></trkpt><trkpt lat="51.692860" lon="-9.442760"><ele>20.111</ele><time>2022-11-16T14:29:30Z</time></trkpt><trkpt lat="51.695200" lon="-9.438970"><ele>23.484</ele><time>2022-11-16T14:30:10Z</time></trkpt><trkpt lat="51.698640" lon="-9.442270"><ele>18.880</ele><time>2022-11-16T14:30:50Z</time></trkpt><trkpt lat="51.704150" lon="-9.442440"><ele>29.571</ele><time>2022-11-16T14:31:30Z</time></trkpt><trkpt lat="51.710870" lon="-9.436840"><ele>16.294</ele><time>2022-11-16T14:32:10Z</time></trkpt><trkpt lat="51.718260" lon="-9.439670"><ele>17.657</ele><time>2022-11-16T14:32:50Z</time></trkpt><trkpt lat="51.723260" lon="-9.438690"><ele>9.722</ele><time>2022-11-16T14:33:30Z</time></trkpt><trkpt lat="51.721010" lon="-9.446550"><ele>8.909</ele><time>2022-11-16T14:34:10Z</time></trkpt><trkpt lat="51.721520" lon="-9.451110"><ele>14.020</ele><time>2022-11-16T14:34:50Z</time></trkpt><trkpt lat="51.726650" lon="-9.448930"><ele>8.160</ele><time>2022-11-16T14:35:30Z</time></trkpt><trkpt lat="51.728650" lon="-9.452840"><ele>12.077</ele><time>2022-11-16T14:36:10Z</time></trkpt><trkpt lat="51.731290" lon="-9.450650"><ele>5.136</ele><time>2022-11-16T14:36:50Z</time></trkpt><trkpt lat="51.732480" lon="-9.453090"><ele>8.011</ele><time>2022-11-16T14:37:30Z</time></trkpt><trkpt lat="51.724430" lon="-9.485600"><ele>53.813</ele><time>2022-11-16T14:38:10Z</time></trkpt><trkpt lat="51.724810" lon="-9.493410"><ele>67.916</ele><time>2022-11-16T14:38:50Z</time></trkpt><trkpt lat="51.729330" lon="-9.499530"><ele>73.622</ele><time>2022-11-16T14:39:30Z</time></trkpt><trkpt lat="51.734580" lon="-9.500530"><ele>85.163</ele><time>2022-11-16T14:40:10Z</time></trkpt><trkpt lat="51.737040" lon="-9.508820"><ele>82.246</ele><time>2022-11-16T14:40:50Z</time></trkpt><trkpt lat="51.741580" lon="-9.516660"><ele>88.488</ele><time>2022-11-16T14:41:30Z</time></trkpt><trkpt lat="51.747760" lon="-9.518790"><ele>79.116</ele><time>2022-11-16T14:42:10Z</time></trkpt><trkpt lat="51.752810" lon="-9.524390"><ele>59.509</ele><time>2022-11-16T14:42:50Z</time></trkpt><trkpt lat="51.751200" lon="-9.533050"><ele>24.035</ele><time>2022-11-16T14:43:30Z</time></trkpt><trkpt lat="51.752880" lon="-9.537570"><ele>17.155</ele><time>2022-11-16T14:44:10Z</time></trkpt><trkpt lat="51.748340" lon="-9.555120"><ele>13.572</ele><time>2022-11-16T14:44:50Z</time></trkpt><trkpt lat="51.747090" lon="-9.555530"><ele>14.031</ele><time>2022-11-16T14:45:30Z</time></trkpt><trkpt lat="51.746000" lon="-9.550940"><ele>13.046</ele><time>2022-11-16T14:46:10Z</time></trkpt><trkpt lat="51.740900" lon="-9.551010"><ele>19.538</ele><time>2022-11-16T14:46:50Z</time></trkpt><trkpt lat="51.738060" lon="-9.558900"><ele>11.971</ele><time>2022-11-16T14:47:30Z</time></trkpt><trkpt lat="51.732200" lon="-9.560230"><ele>16.527</ele><time>2022-11-16T14:48:10Z</time></trkpt><trkpt lat="51.726780" lon="-9.573190"><ele>61.498</ele><time>2022-11-16T14:48:50Z</time></trkpt><trkpt lat="51.721240" lon="-9.580010"><ele>94.421</ele><time>2022-11-16T14:49:30Z</time></trkpt><trkpt lat="51.719560" lon="-9.580390"><ele>94.841</ele><time>2022-11-16T14:50:10Z</time></trkpt><trkpt lat="51.717610" lon="-9.576470"><ele>112.205</ele><time>2022-11-16T14:50:50Z</time></trkpt><trkpt lat="51.712610" lon="-9.583230"><ele>83.309</ele><time>2022-11-16T14:51:30Z</time></trkpt><trkpt lat="51.707310" lon="-9.595950"><ele>123.153</ele><time>2022-11-16T14:52:10Z</time></trkpt><trkpt lat="51.706640" lon="-9.604070"><ele>117.383</ele><time>2022-11-16T14:52:50Z</time></trkpt><trkpt lat="51.701630" lon="-9.612250"><ele>105.210</ele><time>2022-11-16T14:53:30Z</time></trkpt><trkpt lat="51.688570" lon="-9.646810"><ele>43.569</ele><time>2022-11-16T14:54:10Z</time></trkpt><trkpt lat="51.687460" lon="-9.665590"><ele>18.424</ele><time>2022-11-16T14:54:50Z</time></trkpt><trkpt lat="51.680790" lon="-9.688180"><ele>26.436</ele><time>2022-11-16T14:55:30Z</time></trkpt><trkpt lat="51.681090" lon="-9.708650"><ele>29.899</ele><time>2022-11-16T14:56:10Z</time></trkpt><trkpt lat="51.691440" lon="-9.717970"><ele>13.765</ele><time>2022-11-16T14:56:50Z</time></trkpt><trkpt lat="51.692400" lon="-9.721550"><ele>14.316</ele><time>2022-11-16T14:57:30Z</time></trkpt><trkpt lat="51.694890" lon="-9.720960"><ele>10.216</ele><time>2022-11-16T14:58:10Z</time></trkpt><trkpt lat="51.688220" lon="-9.735080"><ele>15.276</ele><time>2022-11-16T14:58:50Z</time></trkpt><trkpt lat="51.681640" lon="-9.735980"><ele>13.013</ele><time>2022-11-16T14:59:30Z</time></trkpt><trkpt lat="51.674570" lon="-9.741130"><ele>17.009</ele><time>2022-11-16T15:00:10Z</time></trkpt><trkpt lat="51.670400" lon="-9.756110"><ele>50.862</ele><time>2022-11-16T15:00:50Z</time></trkpt><trkpt lat="51.665210" lon="-9.814010"><ele>31.352</ele><time>2022-11-16T15:01:30Z</time></trkpt><trkpt lat="51.662500" lon="-9.821810"><ele>41.099</ele><time>2022-11-16T15:02:10Z</time></trkpt><trkpt lat="51.662910" lon="-9.828010"><ele>45.198</ele><time>2022-11-16T15:02:50Z</time></trkpt><trkpt lat="51.659940" lon="-9.834440"><ele>24.433</ele><time>2022-11-16T15:03:30Z</time></trkpt><trkpt lat="51.657390" lon="-9.849290"><ele>28.515</ele><time>2022-11-16T15:04:10Z</time></trkpt><trkpt lat="51.659180" lon="-9.862200"><ele>19.138</ele><time>2022-11-16T15:04:50Z</time></trkpt><trkpt lat="51.652420" lon="-9.885040"><ele>19.684</ele><time>2022-11-16T15:05:30Z</time></trkpt><trkpt lat="51.651790" lon="-9.894380"><ele>9.945</ele><time>2022-11-16T15:06:10Z</time></trkpt><trkpt lat="51.652970" lon="-9.901690"><ele>10.067</ele><time>2022-11-16T15:06:50Z</time></trkpt><trkpt lat="51.654910" lon="-9.904120"><ele>7.881</ele><time>2022-11-16T15:07:30Z</time></trkpt><trkpt lat="51.651670" lon="-9.910020"><ele>5.119</ele><time>2022-11-16T15:08:10Z</time></trkpt><trkpt lat="51.651670" lon="-9.910020"><ele>5.109</ele><time>2022-11-16T15:08:50Z</time></trkpt><trkpt lat="51.641180" lon="-9.932180"><ele>16.617</ele><time>2022-11-16T15:09:30Z</time></trkpt><trkpt lat="51.637290" lon="-9.937220"><ele>11.567</ele><time>2022-11-16T15:10:10Z</time></trkpt><trkpt lat="51.635410" lon="-9.945790"><ele>16.394</ele><time>2022-11-16T15:10:50Z</time></trkpt><trkpt lat="51.636880" lon="-9.957720"><ele>24.893</ele><time>2022-11-16T15:11:30Z</time></trkpt><trkpt lat="51.632190" lon="-9.972180"><ele>65.558</ele><time>2022-11-16T15:12:10Z</time></trkpt><trkpt lat="51.634720" lon="-9.973950"><ele>67.850</ele><time>2022-11-16T15:12:50Z</time></trkpt><trkpt lat="51.635120" lon="-9.979010"><ele>78.913</ele><time>2022-11-16T15:13:30Z</time></trkpt><trkpt lat="51.628310" lon="-9.978310"><ele>110.499</ele><time>2022-11-16T15:14:10Z</time></trkpt><trkpt lat="51.619040" lon="-9.983620"><ele>126.080</ele><time>2022-11-16T15:14:50Z</time></trkpt><trkpt lat="51.614240" lon="-9.993720"><ele>88.345</ele><time>2022-11-16T15:15:30Z</time></trkpt><trkpt lat="51.606440" lon="-10.021520"><ele>28.747</ele><time>2022-11-16T15:16:10Z</time></trkpt><trkpt lat="51.606320" lon="-10.037540"><ele>28.311</ele><time>2022-11-16T15:16:50Z</time></trkpt><trkpt lat="51.604020" lon="-10.043130"><ele>14.909</ele><time>2022-11-16T15:17:30Z</time></trkpt><trkpt lat="51.603500" lon="-10.058160"><ele>42.015</ele><time>2022-11-16T15:18:10Z</time></trkpt><trkpt lat="51.605280" lon="-10.062150"><ele>49.345</ele><time>2022-11-16T15:18:50Z</time></trkpt><trkpt lat="51.613120" lon="-10.065150"><ele>79.562</ele><time>2022-11-16T15:19:30Z</time></trkpt><trkpt lat="51.618210" lon="-10.069650"><ele>67.891</ele><time>2022-11-16T15:20:10Z</time></trkpt><trkpt lat="51.630170" lon="-10.049990"><ele>25.176</ele><time>2022-11-16T15:20:50Z</time></trkpt><trkpt lat="51.634830" lon="-10.052590"><ele>10.468</ele><time>2022-11-16T15:21:30Z</time></trkpt><trkpt lat="51.640060" lon="-10.044370"><ele>47.531</ele><time>2022-11-16T15:22:10Z</time></trkpt><trkpt lat="51.643350" lon="-10.043670"><ele>56.787</ele><time>2022-11-16T15:22:50Z</time></trkpt><trkpt lat="51.645750" lon="-10.045520"><ele>51.618</ele><time>2022-11-16T15:23:30Z</time></trkpt><trkpt lat="51.646830" lon="-10.055290"><ele>42.776</ele><time>2022-11-16T15:24:10Z</time></trkpt><trkpt lat="51.651030" lon="-10.054940"><ele>19.790</ele><time>2022-11-16T15:24:50Z</time></trkpt><trkpt lat="51.653040" lon="-10.057980"><ele>6.819</ele><time>2022-11-16T15:25:30Z</time></trkpt><trkpt lat="51.654920" lon="-10.057660"><ele>21.709</ele><time>2022-11-16T15:26:10Z</time></trkpt><trkpt lat="51.655220" lon="-10.071500"><ele>12.548</ele><time>2022-11-16T15:26:50Z</time></trkpt><trkpt lat="51.659810" lon="-10.072090"><ele>21.938</ele><time>2022-11-16T15:27:30Z</time></trkpt><trkpt lat="51.661350" lon="-10.074310"><ele>45.825</ele><time>2022-11-16T15:28:10Z</time></trkpt><trkpt lat="51.663710" lon="-10.064040"><ele>89.194</ele><time>2022-11-16T15:28:50Z</time></trkpt><trkpt lat="51.668040" lon="-10.060130"><ele>36.539</ele><time>2022-11-16T15:29:30Z</time></trkpt><trkpt lat="51.670390" lon="-10.039920"><ele>65.531</ele><time>2022-11-16T15:30:10Z</time></trkpt><trkpt lat="51.673650" lon="-10.029350"><ele>53.024</ele><time>2022-11-16T15:30:50Z</time></trkpt><trkpt lat="51.671270" lon="-10.022750"><ele>23.030</ele><time>2022-11-16T15:31:30Z</time></trkpt><trkpt lat="51.672290" lon="-10.021490"><ele>18.131</ele><time>2022-11-16T15:32:10Z</time></trkpt><trkpt lat="51.671810" lon="-10.016330"><ele>4.219</ele><time>2022-11-16T15:32:50Z</time></trkpt><trkpt lat="51.668360" lon="-10.012340"><ele>22.909</ele><time>2022-11-16T15:33:30Z</time></trkpt><trkpt lat="51.673350" lon="-9.997150"><ele>19.719</ele><time>2022-11-16T15:34:10Z</time></trkpt><trkpt lat="51.676480" lon="-9.994620"><ele>7.309</ele><time>2022-11-16T15:34:50Z</time></trkpt><trkpt lat="51.681290" lon="-9.984980"><ele>10.482</ele><time>2022-11-16T15:35:30Z</time></trkpt><trkpt lat="51.681240" lon="-9.976780"><ele>18.562</ele><time>2022-11-16T15:36:10Z</time></trkpt><trkpt lat="51.683990" lon="-9.961930"><ele>33.339</ele><time>2022-11-16T15:36:50Z</time></trkpt><trkpt lat="51.683160" lon="-9.957390"><ele>35.468</ele><time>2022-11-16T15:37:30Z</time></trkpt><trkpt lat="51.685330" lon="-9.954250"><ele>42.353</ele><time>2022-11-16T15:38:10Z</time></trkpt><trkpt lat="51.690240" lon="-9.954030"><ele>47.115</ele><time>2022-11-16T15:38:50Z</time></trkpt><trkpt lat="51.693810" lon="-9.958040"><ele>37.748</ele><time>2022-11-16T15:39:30Z</time></trkpt><trkpt lat="51.706160" lon="-9.949500"><ele>48.144</ele><time>2022-11-16T15:40:10Z</time></trkpt><trkpt lat="51.713080" lon="-9.938340"><ele>23.975</ele><time>2022-11-16T15:40:50Z</time></trkpt><trkpt lat="51.714080" lon="-9.939810"><ele>13.071</ele><time>2022-11-16T15:41:30Z</time></trkpt><trkpt lat="51.718220" lon="-9.930460"><ele>33.641</ele><time>2022-11-16T15:42:10Z</time></trkpt><trkpt lat="51.720830" lon="-9.918670"><ele>28.815</ele><time>2022-11-16T15:42:50Z</time></trkpt><trkpt lat="51.725490" lon="-9.913300"><ele>33.009</ele><time>2022-11-16T15:43:30Z</time></trkpt><trkpt lat="51.733190" lon="-9.897570"><ele>29.038</ele><time>2022-11-16T15:44:10Z</time></trkpt><trkpt lat="51.733190" lon="-9.897570"><ele>29.088</ele><time>2022-11-16T15:44:50Z</time></trkpt><trkpt lat="51.736900" lon="-9.882490"><ele>33.085</ele><time>2022-11-16T15:45:30Z</time></trkpt><trkpt lat="51.742980" lon="-9.866320"><ele>22.574</ele><time>2022-11-16T15:46:10Z</time></trkpt><trkpt lat="51.750880" lon="-9.852150"><ele>25.399</ele><time>2022-11-16T15:46:50Z</time></trkpt><trkpt lat="51.757500" lon="-9.843290"><ele>35.581</ele><time>2022-11-16T15:47:30Z</time></trkpt><trkpt lat="51.761120" lon="-9.843420"><ele>39.494</ele><time>2022-11-16T15:48:10Z</time></trkpt><trkpt lat="51.765220" lon="-9.835530"><ele>25.320</ele><time>2022-11-16T15:48:50Z</time></trkpt><trkpt lat="51.765980" lon="-9.824480"><ele>5.191</ele><time>2022-11-16T15:49:30Z</time></trkpt><trkpt lat="51.763910" lon="-9.810590"><ele>11.846</ele><time>2022-11-16T15:50:10Z</time></trkpt><trkpt lat="51.759850" lon="-9.804080"><ele>18.488</ele><time>2022-11-16T15:50:50Z</time></trkpt><trkpt lat="51.762740" lon="-9.779340"><ele>5.416</ele><time>2022-11-16T15:51:30Z</time></trkpt><trkpt lat="51.765630" lon="-9.774780"><ele>14.009</ele><time>2022-11-16T15:52:10Z</time></trkpt><trkpt lat="51.771240" lon="-9.779140"><ele>18.715</ele><time>2022-11-16T15:52:50Z</time></trkpt><trkpt lat="51.772890" lon="-9.784570"><ele>18.275</ele><time>2022-11-16T15:53:30Z</time></trkpt><trkpt lat="51.774060" lon="-9.783730"><ele>19.272</ele><time>2022-11-16T15:54:10Z</time></trkpt><trkpt lat="51.780860" lon="-9.809940"><ele>7.331</ele><time>2022-11-16T15:54:50Z</time></trkpt><trkpt lat="51.783370" lon="-9.809580"><ele>15.836</ele><time>2022-11-16T15:55:30Z</time></trkpt><trkpt lat="51.783330" lon="-9.819810"><ele>14.068</ele><time>2022-11-16T15:56:10Z</time></trkpt><trkpt lat="51.784310" lon="-9.823620"><ele>6.061</ele><time>2022-11-16T15:56:50Z</time></trkpt><trkpt lat="51.785690" lon="-9.823230"><ele>5.947</ele><time>2022-11-16T15:57:30Z</time></trkpt><trkpt lat="51.795470" lon="-9.795450"><ele>22.188</ele><time>2022-11-16T15:58:10Z</time></trkpt><trkpt lat="51.797040" lon="-9.773690"><ele>29.729</ele><time>2022-11-16T15:58:50Z</time></trkpt><trkpt lat="51.803670" lon="-9.756400"><ele>61.400</ele><time>2022-11-16T15:59:30Z</time></trkpt><trkpt lat="51.815170" lon="-9.747820"><ele>39.520</ele><time>2022-11-16T16:00:10Z</time></trkpt><trkpt lat="51.821370" lon="-9.734410"><ele>26.209</ele><time>2022-11-16T16:00:50Z</time></trkpt><trkpt lat="51.830460" lon="-9.725500"><ele>33.563</ele><time>2022-11-16T16:01:30Z</time></trkpt><trkpt lat="51.836090" lon="-9.710180"><ele>17.893</ele><time>2022-11-16T16:02:10Z</time></trkpt><trkpt lat="51.840080" lon="-9.696600"><ele>12.780</ele><time>2022-11-16T16:02:50Z</time></trkpt><trkpt lat="51.842100" lon="-9.676000"><ele>5.969</ele><time>2022-11-16T16:03:30Z</time></trkpt><trkpt lat="51.841460" lon="-9.668130"><ele>12.714</ele><time>2022-11-16T16:04:10Z</time></trkpt><trkpt lat="51.844950" lon="-9.652640"><ele>3.176</ele><time>2022-11-16T16:04:50Z</time></trkpt><trkpt lat="51.844460" lon="-9.645070"><ele>10.149</ele><time>2022-11-16T16:05:30Z</time></trkpt><trkpt lat="51.849500" lon="-9.633850"><ele>13.745</ele><time>2022-11-16T16:06:10Z</time></trkpt><trkpt lat="51.860460" lon="-9.599010"><ele>58.296</ele><time>2022-11-16T16:06:50Z</time></trkpt><trkpt lat="51.863710" lon="-9.594880"><ele>28.428</ele><time>2022-11-16T16:07:30Z</time></trkpt><trkpt lat="51.864910" lon="-9.596350"><ele>23.589</ele><time>2022-11-16T16:08:10Z</time></trkpt><trkpt lat="51.869190" lon="-9.587770"><ele>24.517</ele><time>2022-11-16T16:08:50Z</time></trkpt><trkpt lat="51.869990" lon="-9.581560"><ele>10.109</ele><time>2022-11-16T16:09:30Z</time></trkpt><trkpt lat="51.878100" lon="-9.583550"><ele>10.833</ele><time>2022-11-16T16:10:10Z</time></trkpt><trkpt lat="51.878100" lon="-9.583550"><ele>10.833</ele><time>2022-11-16T16:10:50Z</time></trkpt><trkpt lat="51.879730" lon="-9.582660"><ele>10.080</ele><time>2022-11-16T16:11:30Z</time></trkpt><trkpt lat="51.883080" lon="-9.585600"><ele>10.299</ele><time>2022-11-16T16:12:10Z</time></trkpt><trkpt lat="51.886190" lon="-9.595720"><ele>22.944</ele><time>2022-11-16T16:12:50Z</time></trkpt><trkpt lat="51.894570" lon="-9.601780"><ele>44.376</ele><time>2022-11-16T16:13:30Z</time></trkpt><trkpt lat="51.900580" lon="-9.598640"><ele>60.579</ele><time>2022-11-16T16:14:10Z</time></trkpt><trkpt lat="51.904830" lon="-9.600530"><ele>71.045</ele><time>2022-11-16T16:14:50Z</time></trkpt><trkpt lat="51.909000" lon="-9.614330"><ele>87.256</ele><time>2022-11-16T16:15:30Z</time></trkpt><trkpt lat="51.912840" lon="-9.615500"><ele>98.635</ele><time>2022-11-16T16:16:10Z</time></trkpt><trkpt lat="51.913970" lon="-9.619130"><ele>109.486</ele><time>2022-11-16T16:16:50Z</time></trkpt><trkpt lat="51.924860" lon="-9.632660"><ele>163.114</ele><time>2022-11-16T16:17:30Z</time></trkpt><trkpt lat="51.927720" lon="-9.642650"><ele>186.209</ele><time>2022-11-16T16:18:10Z</time></trkpt><trkpt lat="51.927250" lon="-9.646760"><ele>193.224</ele><time>2022-11-16T16:18:50Z</time></trkpt><trkpt lat="51.931060" lon="-9.646730"><ele>218.954</ele><time>2022-11-16T16:19:30Z</time></trkpt><trkpt lat="51.933490" lon="-9.653360"><ele>228.771</ele><time>2022-11-16T16:20:10Z</time></trkpt><trkpt lat="51.937920" lon="-9.653070"><ele>250.390</ele><time>2022-11-16T16:20:50Z</time></trkpt><trkpt lat="51.939740" lon="-9.661790"><ele>255.965</ele><time>2022-11-16T16:21:30Z</time></trkpt><trkpt lat="51.937610" lon="-9.668640"><ele>264.957</ele><time>2022-11-16T16:22:10Z</time></trkpt><trkpt lat="51.934540" lon="-9.670910"><ele>270.430</ele><time>2022-11-16T16:22:50Z</time></trkpt><trkpt lat="51.924920" lon="-9.672670"><ele>249.586</ele><time>2022-11-16T16:23:30Z</time></trkpt><trkpt lat="51.921220" lon="-9.670660"><ele>230.937</ele><time>2022-11-16T16:24:10Z</time></trkpt><trkpt lat="51.918550" lon="-9.672650"><ele>222.917</ele><time>2022-11-16T16:24:50Z</time></trkpt><trkpt lat="51.913120" lon="-9.688540"><ele>192.487</ele><time>2022-11-16T16:25:30Z</time></trkpt><trkpt lat="51.913570" lon="-9.702620"><ele>167.315</ele><time>2022-11-16T16:26:10Z</time></trkpt><trkpt lat="51.906670" lon="-9.732550"><ele>117.009</ele><time>2022-11-16T16:26:50Z</time></trkpt><trkpt lat="51.906650" lon="-9.738520"><ele>104.672</ele><time>2022-11-16T16:27:30Z</time></trkpt><trkpt lat="51.901130" lon="-9.745290"><ele>87.292</ele><time>2022-11-16T16:28:10Z</time></trkpt><trkpt lat="51.894450" lon="-9.759480"><ele>60.129</ele><time>2022-11-16T16:28:50Z</time></trkpt><trkpt lat="51.894590" lon="-9.768330"><ele>56.528</ele><time>2022-11-16T16:29:30Z</time></trkpt><trkpt lat="51.896880" lon="-9.778010"><ele>56.523</ele><time>2022-11-16T16:30:10Z</time></trkpt><trkpt lat="51.900730" lon="-9.783010"><ele>66.075</ele><time>2022-11-16T16:30:50Z</time></trkpt><trkpt lat="51.905060" lon="-9.784790"><ele>97.758</ele><time>2022-11-16T16:31:30Z</time></trkpt><trkpt lat="51.908380" lon="-9.782500"><ele>98.834</ele><time>2022-11-16T16:32:10Z</time></trkpt><trkpt lat="51.909900" lon="-9.783970"><ele>97.895</ele><time>2022-11-16T16:32:50Z</time></trkpt><trkpt lat="51.911050" lon="-9.782010"><ele>91.526</ele><time>2022-11-16T16:33:30Z</time></trkpt><trkpt lat="51.916700" lon="-9.782060"><ele>79.847</ele><time>2022-11-16T16:34:10Z</time></trkpt><trkpt lat="51.917610" lon="-9.784290"><ele>80.311</ele><time>2022-11-16T16:34:50Z</time></trkpt><trkpt lat="51.929460" lon="-9.790920"><ele>114.809</ele><time>2022-11-16T16:35:30Z</time></trkpt><trkpt lat="51.931540" lon="-9.795650"><ele>137.243</ele><time>2022-11-16T16:36:10Z</time></trkpt><trkpt lat="51.936580" lon="-9.794820"><ele>164.813</ele><time>2022-11-16T16:36:50Z</time></trkpt><trkpt lat="51.942080" lon="-9.808050"><ele>239.880</ele><time>2022-11-16T16:37:30Z</time></trkpt><trkpt lat="51.941150" lon="-9.815920"><ele>244.589</ele><time>2022-11-16T16:38:10Z</time></trkpt><trkpt lat="51.942060" lon="-9.824200"><ele>183.454</ele><time>2022-11-16T16:38:50Z</time></trkpt><trkpt lat="51.945220" lon="-9.822370"><ele>180.096</ele><time>2022-11-16T16:39:30Z</time></trkpt><trkpt lat="51.947720" lon="-9.825250"><ele>160.559</ele><time>2022-11-16T16:40:10Z</time></trkpt><trkpt lat="51.947950" lon="-9.829680"><ele>150.085</ele><time>2022-11-16T16:40:50Z</time></trkpt><trkpt lat="51.950120" lon="-9.832830"><ele>141.656</ele><time>2022-11-16T16:41:30Z</time></trkpt><trkpt lat="51.952400" lon="-9.834700"><ele>125.713</ele><time>2022-11-16T16:42:10Z</time></trkpt><trkpt lat="51.956200" lon="-9.833500"><ele>118.843</ele><time>2022-11-16T16:42:50Z</time></trkpt><trkpt lat="51.957540" lon="-9.841430"><ele>100.007</ele><time>2022-11-16T16:43:30Z</time></trkpt><trkpt lat="51.962420" lon="-9.848020"><ele>68.509</ele><time>2022-11-16T16:44:10Z</time></trkpt><trkpt lat="51.971140" lon="-9.847550"><ele>48.012</ele><time>2022-11-16T16:44:50Z</time></trkpt><trkpt lat="51.974570" lon="-9.863610"><ele>48.072</ele><time>2022-11-16T16:45:30Z</time></trkpt><trkpt lat="51.984040" lon="-9.868770"><ele>51.299</ele><time>2022-11-16T16:46:10Z</time></trkpt><trkpt lat="51.987560" lon="-9.868430"><ele>50.658</ele><time>2022-11-16T16:46:50Z</time></trkpt><trkpt lat="51.981450" lon="-9.877510"><ele>59.233</ele><time>2022-11-16T16:47:30Z</time></trkpt><trkpt lat="51.972940" lon="-9.896420"><ele>122.165</ele><time>2022-11-16T16:48:10Z</time></trkpt><trkpt lat="51.971080" lon="-9.904510"><ele>141.158</ele><time>2022-11-16T16:48:50Z</time></trkpt><trkpt lat="51.963350" lon="-9.910250"><ele>145.154</ele><time>2022-11-16T16:49:30Z</time></trkpt><trkpt lat="51.953970" lon="-9.920990"><ele>182.875</ele><time>2022-11-16T16:50:10Z</time></trkpt><trkpt lat="51.950290" lon="-9.930780"><ele>254.611</ele><time>2022-11-16T16:50:50Z</time></trkpt><trkpt lat="51.948020" lon="-9.932180"><ele>293.521</ele><time>2022-11-16T16:51:30Z</time></trkpt><trkpt lat="51.948600" lon="-9.935480"><ele>298.203</ele><time>2022-11-16T16:52:10Z</time></trkpt><trkpt lat="51.940900" lon="-9.943960"><ele>198.509</ele><time>2022-11-16T16:52:50Z</time></trkpt><trkpt lat="51.942010" lon="-9.949650"><ele>169.082</ele><time>2022-11-16T16:53:30Z</time></trkpt><trkpt lat="51.940760" lon="-9.962570"><ele>104.962</ele><time>2022-11-16T16:54:10Z</time></trkpt><trkpt lat="51.941580" lon="-9.965690"><ele>97.739</ele><time>2022-11-16T16:54:50Z</time></trkpt><trkpt lat="51.927430" lon="-9.997300"><ele>78.278</ele><time>2022-11-16T16:55:30Z</time></trkpt><trkpt lat="51.923450" lon="-10.013220"><ele>78.683</ele><time>2022-11-16T16:56:10Z</time></trkpt><trkpt lat="51.920670" lon="-10.014860"><ele>84.595</ele><time>2022-11-16T16:56:50Z</time></trkpt><trkpt lat="51.909400" lon="-10.014100"><ele>124.838</ele><time>2022-11-16T16:57:30Z</time></trkpt><trkpt lat="51.904640" lon="-10.026230"><ele>139.884</ele><time>2022-11-16T16:58:10Z</time></trkpt><trkpt lat="51.889550" lon="-10.047310"><ele>115.345</ele><time>2022-11-16T16:58:50Z</time></trkpt><trkpt lat="51.864630" lon="-10.102360"><ele>96.025</ele><time>2022-11-16T16:59:30Z</time></trkpt><trkpt lat="51.861740" lon="-10.105040"><ele>88.426</ele><time>2022-11-16T17:00:10Z</time></trkpt><trkpt lat="51.857760" lon="-10.115830"><ele>79.508</ele><time>2022-11-16T17:00:50Z</time></trkpt><trkpt lat="51.847740" lon="-10.131140"><ele>28.809</ele><time>2022-11-16T17:01:30Z</time></trkpt><trkpt lat="51.844880" lon="-10.140470"><ele>24.653</ele><time>2022-11-16T17:02:10Z</time></trkpt><trkpt lat="51.845560" lon="-10.146030"><ele>24.143</ele><time>2022-11-16T17:02:50Z</time></trkpt><trkpt lat="51.840030" lon="-10.154570"><ele>16.530</ele><time>2022-11-16T17:03:30Z</time></trkpt><trkpt lat="51.837720" lon="-10.163090"><ele>22.749</ele><time>2022-11-16T17:04:10Z</time></trkpt><trkpt lat="51.828540" lon="-10.171960"><ele>14.554</ele><time>2022-11-16T17:04:50Z</time></trkpt><trkpt lat="51.828540" lon="-10.171960"><ele>14.596</ele><time>2022-11-16T17:05:30Z</time></trkpt><trkpt lat="51.844780" lon="-10.168360"><ele>28.689</ele><time>2022-11-16T17:06:10Z</time></trkpt><trkpt lat="51.857960" lon="-10.172030"><ele>5.085</ele><time>2022-11-16T17:06:50Z</time></trkpt><trkpt lat="51.864100" lon="-10.178470"><ele>27.936</ele><time>2022-11-16T17:07:30Z</time></trkpt><trkpt lat="51.862380" lon="-10.187470"><ele>39.641</ele><time>2022-11-16T17:08:10Z</time></trkpt><trkpt lat="51.849500" lon="-10.213420"><ele>14.581</ele><time>2022-11-16T17:08:50Z</time></trkpt><trkpt lat="51.848090" lon="-10.220570"><ele>9.209</ele><time>2022-11-16T17:09:30Z</time></trkpt><trkpt lat="51.849790" lon="-10.245390"><ele>15.009</ele><time>2022-11-16T17:10:10Z</time></trkpt><trkpt lat="51.835010" lon="-10.260270"><ele>36.065</ele><time>2022-11-16T17:10:50Z</time></trkpt><trkpt lat="51.832340" lon="-10.267100"><ele>27.985</ele><time>2022-11-16T17:11:30Z</time></trkpt><trkpt lat="51.821390" lon="-10.274800"><ele>8.382</ele><time>2022-11-16T17:12:10Z</time></trkpt><trkpt lat="51.823100" lon="-10.280840"><ele>31.331</ele><time>2022-11-16T17:12:50Z</time></trkpt><trkpt lat="51.821470" lon="-10.282790"><ele>28.626</ele><time>2022-11-16T17:13:30Z</time></trkpt><trkpt lat="51.824600" lon="-10.312220"><ele>84.728</ele><time>2022-11-16T17:14:10Z</time></trkpt><trkpt lat="51.828110" lon="-10.313160"><ele>100.511</ele><time>2022-11-16T17:14:50Z</time></trkpt><trkpt lat="51.828510" lon="-10.321600"><ele>115.157</ele><time>2022-11-16T17:15:30Z</time></trkpt><trkpt lat="51.830940" lon="-10.322260"><ele>116.458</ele><time>2022-11-16T17:16:10Z</time></trkpt><trkpt lat="51.834600" lon="-10.333670"><ele>61.639</ele><time>2022-11-16T17:16:50Z</time></trkpt><trkpt lat="51.839380" lon="-10.328890"><ele>36.101</ele><time>2022-11-16T17:17:30Z</time></trkpt><trkpt lat="51.845220" lon="-10.329700"><ele>20.121</ele><time>2022-11-16T17:18:10Z</time></trkpt><trkpt lat="51.848170" lon="-10.349680"><ele>33.009</ele><time>2022-11-16T17:18:50Z</time></trkpt><trkpt lat="51.851450" lon="-10.350910"><ele>49.774</ele><time>2022-11-16T17:19:30Z</time></trkpt><trkpt lat="51.851220" lon="-10.368710"><ele>116.734</ele><time>2022-11-16T17:20:10Z</time></trkpt><trkpt lat="51.853120" lon="-10.364940"><ele>153.211</ele><time>2022-11-16T17:20:50Z</time></trkpt><trkpt lat="51.853230" lon="-10.370880"><ele>201.510</ele><time>2022-11-16T17:21:30Z</time></trkpt><trkpt lat="51.856220" lon="-10.367360"><ele>250.215</ele><time>2022-11-16T17:22:10Z</time></trkpt><trkpt lat="51.860470" lon="-10.376380"><ele>147.747</ele><time>2022-11-16T17:22:50Z</time></trkpt><trkpt lat="51.880200" lon="-10.381190"><ele>34.180</ele><time>2022-11-16T17:23:30Z</time></trkpt><trkpt lat="51.881860" lon="-10.379370"><ele>31.556</ele><time>2022-11-16T17:24:10Z</time></trkpt><trkpt lat="51.886000" lon="-10.362710"><ele>0.087</ele><time>2022-11-16T17:24:50Z</time></trkpt><trkpt lat="51.892500" lon="-10.369910"><ele>29.094</ele><time>2022-11-16T17:25:30Z</time></trkpt><trkpt lat="51.890580" lon="-10.387470"><ele>19.557</ele><time>2022-11-16T17:26:10Z</time></trkpt><trkpt lat="51.893650" lon="-10.390570"><ele>39.622</ele><time>2022-11-16T17:26:50Z</time></trkpt><trkpt lat="51.909280" lon="-10.362110"><ele>101.209</ele><time>2022-11-16T17:27:30Z</time></trkpt><trkpt lat="51.913280" lon="-10.353580"><ele>113.960</ele><time>2022-11-16T17:28:10Z</time></trkpt><trkpt lat="51.912030" lon="-10.351770"><ele>99.590</ele><time>2022-11-16T17:28:50Z</time></trkpt><trkpt lat="51.913280" lon="-10.353580"><ele>113.927</ele><time>2022-11-16T17:29:30Z</time></trkpt><trkpt lat="51.914890" lon="-10.351080"><ele>115.326</ele><time>2022-11-16T17:30:10Z</time></trkpt><trkpt lat="51.919770" lon="-10.331560"><ele>122.391</ele><time>2022-11-16T17:30:50Z</time></trkpt><trkpt lat="51.922270" lon="-10.328620"><ele>102.713</ele><time>2022-11-16T17:31:30Z</time></trkpt><trkpt lat="51.920480" lon="-10.325790"><ele>102.576</ele><time>2022-11-16T17:32:10Z</time></trkpt><trkpt lat="51.924270" lon="-10.307950"><ele>45.342</ele><time>2022-11-16T17:32:50Z</time></trkpt><trkpt lat="51.926480" lon="-10.287850"><ele>3.423</ele><time>2022-11-16T17:33:30Z</time></trkpt><trkpt lat="51.925310" lon="-10.287090"><ele>3.419</ele><time>2022-11-16T17:34:10Z</time></trkpt><trkpt lat="51.925680" lon="-10.282810"><ele>0.009</ele><time>2022-11-16T17:34:50Z</time></trkpt><trkpt lat="51.929310" lon="-10.277570"><ele>3.919</ele><time>2022-11-16T17:35:30Z</time></trkpt><trkpt lat="51.932780" lon="-10.264750"><ele>23.009</ele><time>2022-11-16T17:36:10Z</time></trkpt><trkpt lat="51.933380" lon="-10.241590"><ele>37.212</ele><time>2022-11-16T17:36:50Z</time></trkpt><trkpt lat="51.939790" lon="-10.238420"><ele>22.022</ele><time>2022-11-16T17:37:30Z</time></trkpt><trkpt lat="51.944590" lon="-10.231550"><ele>12.459</ele><time>2022-11-16T17:38:10Z</time></trkpt><trkpt lat="51.947410" lon="-10.222650"><ele>20.368</ele><time>2022-11-16T17:38:50Z</time></trkpt><trkpt lat="51.951860" lon="-10.229210"><ele>13.413</ele><time>2022-11-16T17:39:30Z</time></trkpt><trkpt lat="51.955620" lon="-10.231050"><ele>31.735</ele><time>2022-11-16T17:40:10Z</time></trkpt><trkpt lat="51.969110" lon="-10.197860"><ele>8.678</ele><time>2022-11-16T17:40:50Z</time></trkpt><trkpt lat="51.969670" lon="-10.185650"><ele>22.614</ele><time>2022-11-16T17:41:30Z</time></trkpt><trkpt lat="51.971730" lon="-10.176220"><ele>22.875</ele><time>2022-11-16T17:42:10Z</time></trkpt><trkpt lat="51.966480" lon="-10.171450"><ele>5.052</ele><time>2022-11-16T17:42:50Z</time></trkpt><trkpt lat="51.973090" lon="-10.153490"><ele>10.953</ele><time>2022-11-16T17:43:30Z</time></trkpt><trkpt lat="51.977070" lon="-10.148660"><ele>25.008</ele><time>2022-11-16T17:44:10Z</time></trkpt><trkpt lat="51.990130" lon="-10.123380"><ele>71.609</ele><time>2022-11-16T17:44:50Z</time></trkpt><trkpt lat="51.995730" lon="-10.119290"><ele>107.856</ele><time>2022-11-16T17:45:30Z</time></trkpt><trkpt lat="52.003930" lon="-10.104630"><ele>100.156</ele><time>2022-11-16T17:46:10Z</time></trkpt><trkpt lat="52.011980" lon="-10.102780"><ele>70.933</ele><time>2022-11-16T17:46:50Z</time></trkpt><trkpt lat="52.019750" lon="-10.097560"><ele>54.552</ele><time>2022-11-16T17:47:30Z</time></trkpt><trkpt lat="52.020560" lon="-10.094750"><ele>59.957</ele><time>2022-11-16T17:48:10Z</time></trkpt><trkpt lat="52.026690" lon="-10.092970"><ele>56.329</ele><time>2022-11-16T17:48:50Z</time></trkpt><trkpt lat="52.032190" lon="-10.084590"><ele>71.192</ele><time>2022-11-16T17:49:30Z</time></trkpt><trkpt lat="52.032800" lon="-10.075480"><ele>74.038</ele><time>2022-11-16T17:50:10Z</time></trkpt><trkpt lat="52.031300" lon="-10.068850"><ele>68.779</ele><time>2022-11-16T17:50:50Z</time></trkpt><trkpt lat="52.033010" lon="-10.068310"><ele>63.733</ele><time>2022-11-16T17:51:30Z</time></trkpt><trkpt lat="52.038220" lon="-10.053620"><ele>62.523</ele><time>2022-11-16T17:52:10Z</time></trkpt><trkpt lat="52.035290" lon="-10.041100"><ele>78.415</ele><time>2022-11-16T17:52:50Z</time></trkpt><trkpt lat="52.036880" lon="-10.024500"><ele>72.409</ele><time>2022-11-16T17:53:30Z</time></trkpt><trkpt lat="52.033540" lon="-10.011370"><ele>103.734</ele><time>2022-11-16T17:54:10Z</time></trkpt><trkpt lat="52.036340" lon="-10.003470"><ele>114.984</ele><time>2022-11-16T17:54:50Z</time></trkpt><trkpt lat="52.036850" lon="-9.993590"><ele>104.831</ele><time>2022-11-16T17:55:30Z</time></trkpt><trkpt lat="52.040200" lon="-9.988430"><ele>118.030</ele><time>2022-11-16T17:56:10Z</time></trkpt><trkpt lat="52.042340" lon="-9.988070"><ele>127.815</ele><time>2022-11-16T17:56:50Z</time></trkpt><trkpt lat="52.042710" lon="-9.968290"><ele>81.587</ele><time>2022-11-16T17:57:30Z</time></trkpt><trkpt lat="52.045880" lon="-9.956400"><ele>45.950</ele><time>2022-11-16T17:58:10Z</time></trkpt><trkpt lat="52.049390" lon="-9.949040"><ele>29.726</ele><time>2022-11-16T17:58:50Z</time></trkpt><trkpt lat="52.051840" lon="-9.946630"><ele>24.117</ele><time>2022-11-16T17:59:30Z</time></trkpt><trkpt lat="52.053990" lon="-9.947440"><ele>28.512</ele><time>2022-11-16T18:00:10Z</time></trkpt><trkpt lat="52.056350" lon="-9.939640"><ele>27.432</ele><time>2022-11-16T18:00:50Z</time></trkpt><trkpt lat="52.056350" lon="-9.939640"><ele>27.405</ele><time>2022-11-16T18:01:30Z</time></trkpt><trkpt lat="52.061100" lon="-9.918360"><ele>31.309</ele><time>2022-11-16T18:02:10Z</time></trkpt><trkpt lat="52.068350" lon="-9.903060"><ele>6.952</ele><time>2022-11-16T18:02:50Z</time></trkpt><trkpt lat="52.072820" lon="-9.914680"><ele>20.342</ele><time>2022-11-16T18:03:30Z</time></trkpt><trkpt lat="52.076980" lon="-9.915860"><ele>8.069</ele><time>2022-11-16T18:04:10Z</time></trkpt><trkpt lat="52.083280" lon="-9.923610"><ele>11.058</ele><time>2022-11-16T18:04:50Z</time></trkpt><trkpt lat="52.095620" lon="-9.898510"><ele>18.943</ele><time>2022-11-16T18:05:30Z</time></trkpt><trkpt lat="52.101580" lon="-9.896630"><ele>21.075</ele><time>2022-11-16T18:06:10Z</time></trkpt><trkpt lat="52.105670" lon="-9.898070"><ele>11.768</ele><time>2022-11-16T18:06:50Z</time></trkpt><trkpt lat="52.109810" lon="-9.883800"><ele>7.424</ele><time>2022-11-16T18:07:30Z</time></trkpt><trkpt lat="52.113080" lon="-9.864920"><ele>4.995</ele><time>2022-11-16T18:08:10Z</time></trkpt><trkpt lat="52.109150" lon="-9.843570"><ele>4.091</ele><time>2022-11-16T18:08:50Z</time></trkpt><trkpt lat="52.117150" lon="-9.823110"><ele>3.781</ele><time>2022-11-16T18:09:30Z</time></trkpt><trkpt lat="52.118270" lon="-9.812370"><ele>4.019</ele><time>2022-11-16T18:10:10Z</time></trkpt><trkpt lat="52.115800" lon="-9.786380"><ele>11.109</ele><time>2022-11-16T18:10:50Z</time></trkpt><trkpt lat="52.106310" lon="-9.784730"><ele>10.640</ele><time>2022-11-16T18:11:30Z</time></trkpt><trkpt lat="52.109060" lon="-9.776850"><ele>11.950</ele><time>2022-11-16T18:12:10Z</time></trkpt><trkpt lat="52.105560" lon="-9.768590"><ele>31.257</ele><time>2022-11-16T18:12:50Z</time></trkpt><trkpt lat="52.103140" lon="-9.751600"><ele>30.126</ele><time>2022-11-16T18:13:30Z</time></trkpt><trkpt lat="52.106400" lon="-9.717350"><ele>27.611</ele><time>2022-11-16T18:14:10Z</time></trkpt><trkpt lat="52.121360" lon="-9.714250"><ele>28.163</ele><time>2022-11-16T18:14:50Z</time></trkpt><trkpt lat="52.127650" lon="-9.708880"><ele>45.026</ele><time>2022-11-16T18:15:30Z</time></trkpt><trkpt lat="52.143430" lon="-9.719120"><ele>27.472</ele><time>2022-11-16T18:16:10Z</time></trkpt><trkpt lat="52.147310" lon="-9.716360"><ele>16.633</ele><time>2022-11-16T18:16:50Z</time></trkpt><trkpt lat="52.151010" lon="-9.717860"><ele>11.112</ele><time>2022-11-16T18:17:30Z</time></trkpt><trkpt lat="52.160160" lon="-9.703990"><ele>5.932</ele><time>2022-11-16T18:18:10Z</time></trkpt><trkpt lat="52.163860" lon="-9.700800"><ele>6.205</ele><time>2022-11-16T18:18:50Z</time></trkpt><trkpt lat="52.166880" lon="-9.702640"><ele>2.009</ele><time>2022-11-16T18:19:30Z</time></trkpt><trkpt lat="52.168600" lon="-9.701250"><ele>7.572</ele><time>2022-11-16T18:20:10Z</time></trkpt><trkpt lat="52.176700" lon="-9.754380"><ele>10.112</ele><time>2022-11-16T18:20:50Z</time></trkpt><trkpt lat="52.156300" lon="-9.889460"><ele>14.459</ele><time>2022-11-16T18:21:30Z</time></trkpt><trkpt lat="52.147830" lon="-9.935690"><ele>12.968</ele><time>2022-11-16T18:22:10Z</time></trkpt><trkpt lat="52.147650" lon="-9.964500"><ele>12.513</ele><time>2022-11-16T18:22:50Z</time></trkpt><trkpt lat="52.145180" lon="-9.981520"><ele>51.735</ele><time>2022-11-16T18:23:30Z</time></trkpt><trkpt lat="52.147470" lon="-10.010080"><ele>123.668</ele><time>2022-11-16T18:24:10Z</time></trkpt><trkpt lat="52.153680" lon="-10.023180"><ele>175.554</ele><time>2022-11-16T18:24:50Z</time></trkpt><trkpt lat="52.150970" lon="-10.057130"><ele>24.035</ele><time>2022-11-16T18:25:30Z</time></trkpt><trkpt lat="52.150970" lon="-10.057130"><ele>24.064</ele><time>2022-11-16T18:26:10Z</time></trkpt><trkpt lat="52.147940" lon="-10.098380"><ele>97.106</ele><time>2022-11-16T18:26:50Z</time></trkpt><trkpt lat="52.147250" lon="-10.102060"><ele>82.116</ele><time>2022-11-16T18:27:30Z</time></trkpt><trkpt lat="52.145370" lon="-10.103340"><ele>86.409</ele><time>2022-11-16T18:28:10Z</time></trkpt><trkpt lat="52.142980" lon="-10.115070"><ele>69.947</ele><time>2022-11-16T18:28:50Z</time></trkpt><trkpt lat="52.145490" lon="-10.125320"><ele>64.477</ele><time>2022-11-16T18:29:30Z</time></trkpt><trkpt lat="52.145080" lon="-10.136140"><ele>115.354</ele><time>2022-11-16T18:30:10Z</time></trkpt><trkpt lat="52.148150" lon="-10.139790"><ele>76.233</ele><time>2022-11-16T18:30:50Z</time></trkpt><trkpt lat="52.149600" lon="-10.138060"><ele>78.458</ele><time>2022-11-16T18:31:30Z</time></trkpt><trkpt lat="52.152460" lon="-10.140420"><ele>96.730</ele><time>2022-11-16T18:32:10Z</time></trkpt><trkpt lat="52.148120" lon="-10.146090"><ele>90.783</ele><time>2022-11-16T18:32:50Z</time></trkpt><trkpt lat="52.148730" lon="-10.150670"><ele>88.029</ele><time>2022-11-16T18:33:30Z</time></trkpt><trkpt lat="52.151130" lon="-10.152030"><ele>91.070</ele><time>2022-11-16T18:34:10Z</time></trkpt><trkpt lat="52.147300" lon="-10.155190"><ele>77.593</ele><time>2022-11-16T18:34:50Z</time></trkpt><trkpt lat="52.144670" lon="-10.166580"><ele>56.065</ele><time>2022-11-16T18:35:30Z</time></trkpt><trkpt lat="52.148700" lon="-10.167640"><ele>69.321</ele><time>2022-11-16T18:36:10Z</time></trkpt><trkpt lat="52.154010" lon="-10.187140"><ele>65.609</ele><time>2022-11-16T18:36:50Z</time></trkpt><trkpt lat="52.153390" lon="-10.213250"><ele>47.270</ele><time>2022-11-16T18:37:30Z</time></trkpt><trkpt lat="52.151390" lon="-10.224860"><ele>48.040</ele><time>2022-11-16T18:38:10Z</time></trkpt><trkpt lat="52.147270" lon="-10.234290"><ele>50.297</ele><time>2022-11-16T18:38:50Z</time></trkpt><trkpt lat="52.139970" lon="-10.240500"><ele>49.636</ele><time>2022-11-16T18:39:30Z</time></trkpt><trkpt lat="52.133740" lon="-10.252520"><ele>51.411</ele><time>2022-11-16T18:40:10Z</time></trkpt><trkpt lat="52.134250" lon="-10.258020"><ele>65.053</ele><time>2022-11-16T18:40:50Z</time></trkpt><trkpt lat="52.138250" lon="-10.263790"><ele>29.766</ele><time>2022-11-16T18:41:30Z</time></trkpt><trkpt lat="52.136270" lon="-10.267960"><ele>10.992</ele><time>2022-11-16T18:42:10Z</time></trkpt><trkpt lat="52.138770" lon="-10.270750"><ele>3.453</ele><time>2022-11-16T18:42:50Z</time></trkpt><trkpt lat="52.148810" lon="-10.244880"><ele>83.041</ele><time>2022-11-16T18:43:30Z</time></trkpt><trkpt lat="52.151470" lon="-10.243510"><ele>98.381</ele><time>2022-11-16T18:44:10Z</time></trkpt><trkpt lat="52.154650" lon="-10.245440"><ele>115.109</ele><time>2022-11-16T18:44:50Z</time></trkpt><trkpt lat="52.169110" lon="-10.238810"><ele>243.209</ele><time>2022-11-16T18:45:30Z</time></trkpt><trkpt lat="52.175340" lon="-10.229050"><ele>298.985</ele><time>2022-11-16T18:46:10Z</time></trkpt><trkpt lat="52.181890" lon="-10.207060"><ele>404.865</ele><time>2022-11-16T18:46:50Z</time></trkpt><trkpt lat="52.181600" lon="-10.202970"><ele>412.662</ele><time>2022-11-16T18:47:30Z</time></trkpt><trkpt lat="52.185780" lon="-10.196230"><ele>334.171</ele><time>2022-11-16T18:48:10Z</time></trkpt><trkpt lat="52.186240" lon="-10.190940"><ele>311.026</ele><time>2022-11-16T18:48:50Z</time></trkpt><trkpt lat="52.189790" lon="-10.191240"><ele>279.658</ele><time>2022-11-16T18:49:30Z</time></trkpt><trkpt lat="52.214020" lon="-10.160810"><ele>64.871</ele><time>2022-11-16T18:50:10Z</time></trkpt><trkpt lat="52.217740" lon="-10.149450"><ele>50.357</ele><time>2022-11-16T18:50:50Z</time></trkpt><trkpt lat="52.225450" lon="-10.134950"><ele>50.148</ele><time>2022-11-16T18:51:30Z</time></trkpt><trkpt lat="52.224300" lon="-10.130470"><ele>37.814</ele><time>2022-11-16T18:52:10Z</time></trkpt><trkpt lat="52.238130" lon="-10.108490"><ele>36.554</ele><time>2022-11-16T18:52:50Z</time></trkpt><trkpt lat="52.244370" lon="-10.061400"><ele>37.809</ele><time>2022-11-16T18:53:30Z</time></trkpt><trkpt lat="52.250090" lon="-10.062690"><ele>8.009</ele><time>2022-11-16T18:54:10Z</time></trkpt><trkpt lat="52.249040" lon="-10.038630"><ele>14.922</ele><time>2022-11-16T18:54:50Z</time></trkpt><trkpt lat="52.255270" lon="-10.027260"><ele>7.932</ele><time>2022-11-16T18:55:30Z</time></trkpt><trkpt lat="52.255520" lon="-10.023660"><ele>10.319</ele><time>2022-11-16T18:56:10Z</time></trkpt><trkpt lat="52.248510" lon="-9.999020"><ele>3.258</ele><time>2022-11-16T18:56:50Z</time></trkpt><trkpt lat="52.240780" lon="-10.003310"><ele>24.963</ele><time>2022-11-16T18:57:30Z</time></trkpt><trkpt lat="52.235650" lon="-9.975350"><ele>17.355</ele><time>2022-11-16T18:58:10Z</time></trkpt><trkpt lat="52.229190" lon="-9.957760"><ele>8.888</ele><time>2022-11-16T18:58:50Z</time></trkpt><trkpt lat="52.225950" lon="-9.932630"><ele>3.614</ele><time>2022-11-16T18:59:30Z</time></trkpt><trkpt lat="52.224330" lon="-9.906560"><ele>21.425</ele><time>2022-11-16T19:00:10Z</time></trkpt><trkpt lat="52.225550" lon="-9.900710"><ele>22.145</ele><time>2022-11-16T19:00:50Z</time></trkpt><trkpt lat="52.225550" lon="-9.900710"><ele>22.147</ele><time>2022-11-16T19:01:30Z</time></trkpt><trkpt lat="52.233930" lon="-9.853740"><ele>27.611</ele><time>2022-11-16T19:02:10Z</time></trkpt><trkpt lat="52.239090" lon="-9.839720"><ele>31.809</ele><time>2022-11-16T19:02:50Z</time></trkpt><trkpt lat="52.238950" lon="-9.829070"><ele>20.445</ele><time>2022-11-16T19:03:30Z</time></trkpt><trkpt lat="52.246460" lon="-9.746730"><ele>7.555</ele><time>2022-11-16T19:04:10Z</time></trkpt><trkpt lat="52.256060" lon="-9.735400"><ele>4.062</ele><time>2022-11-16T19:04:50Z</time></trkpt><trkpt lat="52.258480" lon="-9.735720"><ele>1.361</ele><time>2022-11-16T19:05:30Z</time></trkpt><trkpt lat="52.259790" lon="-9.727690"><ele>1.816</ele><time>2022-11-16T19:06:10Z</time></trkpt><trkpt lat="52.265240" lon="-9.716000"><ele>3.778</ele><time>2022-11-16T19:06:50Z</time></trkpt><trkpt lat="52.264560" lon="-9.711450"><ele>2.811</ele><time>2022-11-16T19:07:30Z</time></trkpt><trkpt lat="52.267630" lon="-9.709330"><ele>5.047</ele><time>2022-11-16T19:08:10Z</time></trkpt><trkpt lat="52.267090" lon="-9.705880"><ele>5.538</ele><time>2022-11-16T19:08:50Z</time></trkpt><trkpt lat="52.269410" lon="-9.705090"><ele>6.749</ele><time>2022-11-16T19:09:30Z</time></trkpt><trkpt lat="52.269030" lon="-9.702730"><ele>7.502</ele><time>2022-11-16T19:10:10Z</time></trkpt><trkpt lat="52.271300" lon="-9.699880"><ele>8.322</ele><time>2022-11-16T19:10:50Z</time></trkpt><trkpt lat="52.273880" lon="-9.704800"><ele>9.009</ele><time>2022-11-16T19:11:30Z</time></trkpt><trkpt lat="52.286830" lon="-9.697060"><ele>41.625</ele><time>2022-11-16T19:12:10Z</time></trkpt><trkpt lat="52.305820" lon="-9.718410"><ele>118.075</ele><time>2022-11-16T19:12:50Z</time></trkpt><trkpt lat="52.320330" lon="-9.731190"><ele>63.782</ele><time>2022-11-16T19:13:30Z</time></trkpt><trkpt lat="52.323630" lon="-9.737760"><ele>40.081</ele><time>2022-11-16T19:14:10Z</time></trkpt><trkpt lat="52.328770" lon="-9.738380"><ele>30.056</ele><time>2022-11-16T19:14:50Z</time></trkpt><trkpt lat="52.329330" lon="-9.744240"><ele>25.078</ele><time>2022-11-16T19:15:30Z</time></trkpt><trkpt lat="52.338450" lon="-9.742550"><ele>14.691</ele><time>2022-11-16T19:16:10Z</time></trkpt><trkpt lat="52.348150" lon="-9.731080"><ele>28.767</ele><time>2022-11-16T19:16:50Z</time></trkpt><trkpt lat="52.355300" lon="-9.721290"><ele>12.068</ele><time>2022-11-16T19:17:30Z</time></trkpt><trkpt lat="52.361250" lon="-9.702260"><ele>11.185</ele><time>2022-11-16T19:18:10Z</time></trkpt><trkpt lat="52.363020" lon="-9.705540"><ele>12.089</ele><time>2022-11-16T19:18:50Z</time></trkpt><trkpt lat="52.366770" lon="-9.707210"><ele>20.017</ele><time>2022-11-16T19:19:30Z</time></trkpt><trkpt lat="52.371530" lon="-9.715950"><ele>15.809</ele><time>2022-11-16T19:20:10Z</time></trkpt><trkpt lat="52.376560" lon="-9.705330"><ele>16.079</ele><time>2022-11-16T19:20:50Z</time></trkpt><trkpt lat="52.381650" lon="-9.698920"><ele>12.259</ele><time>2022-11-16T19:21:30Z</time></trkpt><trkpt lat="52.387170" lon="-9.695830"><ele>8.866</ele><time>2022-11-16T19:22:10Z</time></trkpt><trkpt lat="52.388410" lon="-9.692190"><ele>9.015</ele><time>2022-11-16T19:22:50Z</time></trkpt><trkpt lat="52.392990" lon="-9.664770"><ele>5.080</ele><time>2022-11-16T19:23:30Z</time></trkpt><trkpt lat="52.397880" lon="-9.659260"><ele>10.372</ele><time>2022-11-16T19:24:10Z</time></trkpt><trkpt lat="52.403860" lon="-9.635560"><ele>1.065</ele><time>2022-11-16T19:24:50Z</time></trkpt><trkpt lat="52.406500" lon="-9.618210"><ele>5.421</ele><time>2022-11-16T19:25:30Z</time></trkpt><trkpt lat="52.401630" lon="-9.616560"><ele>9.122</ele><time>2022-11-16T19:26:10Z</time></trkpt><trkpt lat="52.413690" lon="-9.582890"><ele>5.638</ele><time>2022-11-16T19:26:50Z</time></trkpt><trkpt lat="52.419780" lon="-9.571560"><ele>4.770</ele><time>2022-11-16T19:27:30Z</time></trkpt><trkpt lat="52.420120" lon="-9.562200"><ele>5.017</ele><time>2022-11-16T19:28:10Z</time></trkpt><trkpt lat="52.424850" lon="-9.537060"><ele>10.009</ele><time>2022-11-16T19:28:50Z</time></trkpt><trkpt lat="52.433560" lon="-9.546710"><ele>6.164</ele><time>2022-11-16T19:29:30Z</time></trkpt><trkpt lat="52.438760" lon="-9.529470"><ele>8.954</ele><time>2022-11-16T19:30:10Z</time></trkpt><trkpt lat="52.441860" lon="-9.533720"><ele>7.731</ele><time>2022-11-16T19:30:50Z</time></trkpt><trkpt lat="52.445520" lon="-9.523970"><ele>8.050</ele><time>2022-11-16T19:31:30Z</time></trkpt><trkpt lat="52.449730" lon="-9.497630"><ele>22.085</ele><time>2022-11-16T19:32:10Z</time></trkpt><trkpt lat="52.447050" lon="-9.492350"><ele>22.837</ele><time>2022-11-16T19:32:50Z</time></trkpt><trkpt lat="52.446950" lon="-9.485860"><ele>25.030</ele><time>2022-11-16T19:33:30Z</time></trkpt><trkpt lat="52.444920" lon="-9.486410"><ele>22.926</ele><time>2022-11-16T19:34:10Z</time></trkpt><trkpt lat="52.440590" lon="-9.477540"><ele>21.667</ele><time>2022-11-16T19:34:50Z</time></trkpt><trkpt lat="52.442580" lon="-9.466060"><ele>47.124</ele><time>2022-11-16T19:35:30Z</time></trkpt><trkpt lat="52.435820" lon="-9.439990"><ele>47.904</ele><time>2022-11-16T19:36:10Z</time></trkpt><trkpt lat="52.430110" lon="-9.442720"><ele>31.714</ele><time>2022-11-16T19:36:50Z</time></trkpt><trkpt lat="52.427420" lon="-9.440390"><ele>40.309</ele><time>2022-11-16T19:37:30Z</time></trkpt><trkpt lat="52.424640" lon="-9.415860"><ele>93.393</ele><time>2022-11-16T19:38:10Z</time></trkpt><trkpt lat="52.425950" lon="-9.406930"><ele>100.823</ele><time>2022-11-16T19:38:50Z</time></trkpt><trkpt lat="52.423260" lon="-9.398190"><ele>99.040</ele><time>2022-11-16T19:39:30Z</time></trkpt><trkpt lat="52.416010" lon="-9.392450"><ele>82.749</ele><time>2022-11-16T19:40:10Z</time></trkpt><trkpt lat="52.409320" lon="-9.379590"><ele>59.944</ele><time>2022-11-16T19:40:50Z</time></trkpt><trkpt lat="52.419970" lon="-9.364200"><ele>40.876</ele><time>2022-11-16T19:41:30Z</time></trkpt><trkpt lat="52.422210" lon="-9.366070"><ele>50.929</ele><time>2022-11-16T19:42:10Z</time></trkpt><trkpt lat="52.423620" lon="-9.363220"><ele>62.075</ele><time>2022-11-16T19:42:50Z</time></trkpt><trkpt lat="52.404770" lon="-9.327380"><ele>66.356</ele><time>2022-11-16T19:43:30Z</time></trkpt><trkpt lat="52.400360" lon="-9.314800"><ele>71.286</ele><time>2022-11-16T19:44:10Z</time></trkpt><trkpt lat="52.398610" lon="-9.302200"><ele>62.160</ele><time>2022-11-16T19:44:50Z</time></trkpt><trkpt lat="52.393930" lon="-9.303350"><ele>55.126</ele><time>2022-11-16T19:45:30Z</time></trkpt><trkpt lat="52.393930" lon="-9.303350"><ele>55.109</ele><time>2022-11-16T19:46:10Z</time></trkpt><trkpt lat="52.392280" lon="-9.262970"><ele>75.759</ele><time>2022-11-16T19:46:50Z</time></trkpt><trkpt lat="52.392850" lon="-9.240950"><ele>83.379</ele><time>2022-11-16T19:47:30Z</time></trkpt><trkpt lat="52.386320" lon="-9.218600"><ele>93.026</ele><time>2022-11-16T19:48:10Z</time></trkpt><trkpt lat="52.387030" lon="-9.219570"><ele>92.595</ele><time>2022-11-16T19:48:50Z</time></trkpt><trkpt lat="52.385880" lon="-9.212870"><ele>101.490</ele><time>2022-11-16T19:49:30Z</time></trkpt><trkpt lat="52.387750" lon="-9.206950"><ele>111.472</ele><time>2022-11-16T19:50:10Z</time></trkpt><trkpt lat="52.392560" lon="-9.200630"><ele>115.475</ele><time>2022-11-16T19:50:50Z</time></trkpt><trkpt lat="52.401540" lon="-9.178170"><ele>136.151</ele><time>2022-11-16T19:51:30Z</time></trkpt><trkpt lat="52.410430" lon="-9.171180"><ele>142.352</ele><time>2022-11-16T19:52:10Z</time></trkpt><trkpt lat="52.412320" lon="-9.159710"><ele>163.468</ele><time>2022-11-16T19:52:50Z</time></trkpt><trkpt lat="52.418880" lon="-9.147880"><ele>173.042</ele><time>2022-11-16T19:53:30Z</time></trkpt><trkpt lat="52.422040" lon="-9.130780"><ele>178.026</ele><time>2022-11-16T19:54:10Z</time></trkpt><trkpt lat="52.425100" lon="-9.128420"><ele>163.909</ele><time>2022-11-16T19:54:50Z</time></trkpt><trkpt lat="52.430490" lon="-9.128240"><ele>148.787</ele><time>2022-11-16T19:55:30Z</time></trkpt><trkpt lat="52.435570" lon="-9.131130"><ele>138.357</ele><time>2022-11-16T19:56:10Z</time></trkpt><trkpt lat="52.446130" lon="-9.128640"><ele>120.934</ele><time>2022-11-16T19:56:50Z</time></trkpt><trkpt lat="52.449620" lon="-9.122720"><ele>115.023</ele><time>2022-11-16T19:57:30Z</time></trkpt><trkpt lat="52.454380" lon="-9.107620"><ele>101.018</ele><time>2022-11-16T19:58:10Z</time></trkpt><trkpt lat="52.463610" lon="-9.095680"><ele>83.680</ele><time>2022-11-16T19:58:50Z</time></trkpt><trkpt lat="52.464640" lon="-9.086230"><ele>74.553</ele><time>2022-11-16T19:59:30Z</time></trkpt><trkpt lat="52.461180" lon="-9.062670"><ele>66.989</ele><time>2022-11-16T20:00:10Z</time></trkpt><trkpt lat="52.458380" lon="-9.059200"><ele>65.070</ele><time>2022-11-16T20:00:50Z</time></trkpt><trkpt lat="52.467580" lon="-9.056760"><ele>69.018</ele><time>2022-11-16T20:01:30Z</time></trkpt><trkpt lat="52.490840" lon="-9.056370"><ele>65.998</ele><time>2022-11-16T20:02:10Z</time></trkpt><trkpt lat="52.495300" lon="-9.052180"><ele>61.017</ele><time>2022-11-16T20:02:50Z</time></trkpt><trkpt lat="52.499130" lon="-9.039100"><ele>51.609</ele><time>2022-11-16T20:03:30Z</time></trkpt><trkpt lat="52.505330" lon="-9.026720"><ele>47.232</ele><time>2022-11-16T20:04:10Z</time></trkpt><trkpt lat="52.506980" lon="-9.019970"><ele>44.012</ele><time>2022-11-16T20:04:50Z</time></trkpt><trkpt lat="52.505320" lon="-9.014900"><ele>39.099</ele><time>2022-11-16T20:05:30Z</time></trkpt><trkpt lat="52.509130" lon="-9.012560"><ele>39.138</ele><time>2022-11-16T20:06:10Z</time></trkpt><trkpt lat="52.512250" lon="-9.004260"><ele>42.043</ele><time>2022-11-16T20:06:50Z</time></trkpt><trkpt lat="52.516920" lon="-8.981220"><ele>38.665</ele><time>2022-11-16T20:07:30Z</time></trkpt><trkpt lat="52.516800" lon="-8.957210"><ele>42.028</ele><time>2022-11-16T20:08:10Z</time></trkpt><trkpt lat="52.519580" lon="-8.950260"><ele>32.484</ele><time>2022-11-16T20:08:50Z</time></trkpt><trkpt lat="52.526360" lon="-8.943110"><ele>37.955</ele><time>2022-11-16T20:09:30Z</time></trkpt><trkpt lat="52.526360" lon="-8.943110"><ele>37.985</ele><time>2022-11-16T20:10:10Z</time></trkpt><trkpt lat="52.529100" lon="-8.948900"><ele>36.089</ele><time>2022-11-16T20:10:50Z</time></trkpt><trkpt lat="52.541980" lon="-8.962680"><ele>46.017</ele><time>2022-11-16T20:11:30Z</time></trkpt><trkpt lat="52.545400" lon="-8.936470"><ele>46.709</ele><time>2022-11-16T20:12:10Z</time></trkpt><trkpt lat="52.549610" lon="-8.936640"><ele>41.469</ele><time>2022-11-16T20:12:50Z</time></trkpt><trkpt lat="52.552440" lon="-8.940320"><ele>38.059</ele><time>2022-11-16T20:13:30Z</time></trkpt><trkpt lat="52.555500" lon="-8.910180"><ele>57.036</ele><time>2022-11-16T20:14:10Z</time></trkpt><trkpt lat="52.557990" lon="-8.900750"><ele>47.865</ele><time>2022-11-16T20:14:50Z</time></trkpt><trkpt lat="52.555250" lon="-8.885830"><ele>34.050</ele><time>2022-11-16T20:15:30Z</time></trkpt><trkpt lat="52.555510" lon="-8.876320"><ele>26.672</ele><time>2022-11-16T20:16:10Z</time></trkpt><trkpt lat="52.554440" lon="-8.876440"><ele>25.075</ele><time>2022-11-16T20:16:50Z</time></trkpt><trkpt lat="52.553160" lon="-8.857210"><ele>17.631</ele><time>2022-11-16T20:17:30Z</time></trkpt><trkpt lat="52.551160" lon="-8.849300"><ele>16.822</ele><time>2022-11-16T20:18:10Z</time></trkpt><trkpt lat="52.551490" lon="-8.827980"><ele>19.915</ele><time>2022-11-16T20:18:50Z</time></trkpt><trkpt lat="52.547150" lon="-8.823700"><ele>19.365</ele><time>2022-11-16T20:19:30Z</time></trkpt><trkpt lat="52.543400" lon="-8.824310"><ele>21.011</ele><time>2022-11-16T20:20:10Z</time></trkpt><trkpt lat="52.542130" lon="-8.822170"><ele>18.309</ele><time>2022-11-16T20:20:50Z</time></trkpt><trkpt lat="52.542650" lon="-8.813840"><ele>27.092</ele><time>2022-11-16T20:21:30Z</time></trkpt><trkpt lat="52.537950" lon="-8.810580"><ele>32.182</ele><time>2022-11-16T20:22:10Z</time></trkpt><trkpt lat="52.543090" lon="-8.784630"><ele>14.899</ele><time>2022-11-16T20:22:50Z</time></trkpt><trkpt lat="52.540820" lon="-8.779740"><ele>12.078</ele><time>2022-11-16T20:23:30Z</time></trkpt><trkpt lat="52.540670" lon="-8.772770"><ele>11.653</ele><time>2022-11-16T20:24:10Z</time></trkpt><trkpt lat="52.545910" lon="-8.764580"><ele>12.835</ele><time>2022-11-16T20:24:50Z</time></trkpt><trkpt lat="52.547660" lon="-8.744240"><ele>28.038</ele><time>2022-11-16T20:25:30Z</time></trkpt><trkpt lat="52.555000" lon="-8.747340"><ele>24.634</ele><time>2022-11-16T20:26:10Z</time></trkpt><trkpt lat="52.570610" lon="-8.743730"><ele>21.075</ele><time>2022-11-16T20:26:50Z</time></trkpt><trkpt lat="52.570100" lon="-8.748710"><ele>22.038</ele><time>2022-11-16T20:27:30Z</time></trkpt><trkpt lat="52.575540" lon="-8.752150"><ele>21.070</ele><time>2022-11-16T20:28:10Z</time></trkpt><trkpt lat="52.579690" lon="-8.751740"><ele>12.817</ele><time>2022-11-16T20:28:50Z</time></trkpt><trkpt lat="52.599930" lon="-8.703620"><ele>26.709</ele><time>2022-11-16T20:29:30Z</time></trkpt><trkpt lat="52.608290" lon="-8.696700"><ele>11.094</ele><time>2022-11-16T20:30:10Z</time></trkpt><trkpt lat="52.613600" lon="-8.689190"><ele>17.014</ele><time>2022-11-16T20:30:50Z</time></trkpt><trkpt lat="52.628011" lon="-8.661847"><ele>17.551</ele><time>2022-11-16T20:31:30Z</time></trkpt><trkpt lat="52.638940" lon="-8.652830"><ele>7.040</ele><time>2022-11-16T20:32:10Z</time></trkpt><trkpt lat="52.648350" lon="-8.637790"><ele>13.015</ele><time>2022-11-16T20:32:50Z</time></trkpt><trkpt lat="52.657410" lon="-8.633010"><ele>12.847</ele><time>2022-11-16T20:33:30Z</time></trkpt><trkpt lat="52.657820" lon="-8.634570"><ele>14.540</ele><time>2022-11-16T20:34:10Z</time></trkpt><trkpt lat="52.661290" lon="-8.633240"><ele>6.336</ele><time>2022-11-16T20:34:50Z</time></trkpt><trkpt lat="52.661290" lon="-8.633240"><ele>6.327</ele><time>2022-11-16T20:35:30Z</time></trkpt><trkpt lat="52.663360" lon="-8.639280"><ele>3.043</ele><time>2022-11-16T20:36:10Z</time></trkpt><trkpt lat="52.662197" lon="-8.639550"><ele>1.564</ele><time>2022-11-16T20:36:50Z</time></trkpt><trkpt lat="52.659280" lon="-8.656930"><ele>2.710</ele><time>2022-11-16T20:37:30Z</time></trkpt><trkpt lat="52.661030" lon="-8.664660"><ele>3.909</ele><time>2022-11-16T20:38:10Z</time></trkpt><trkpt lat="52.665230" lon="-8.670270"><ele>5.045</ele><time>2022-11-16T20:38:50Z</time></trkpt><trkpt lat="52.671860" lon="-8.661240"><ele>7.265</ele><time>2022-11-16T20:39:30Z</time></trkpt><trkpt lat="52.672430" lon="-8.657390"><ele>5.142</ele><time>2022-11-16T20:40:10Z</time></trkpt><trkpt lat="52.676230" lon="-8.654410"><ele>11.151</ele><time>2022-11-16T20:40:50Z</time></trkpt><trkpt lat="52.681130" lon="-8.665160"><ele>6.176</ele><time>2022-11-16T20:41:30Z</time></trkpt><trkpt lat="52.693620" lon="-8.669680"><ele>7.978</ele><time>2022-11-16T20:42:10Z</time></trkpt><trkpt lat="52.694490" lon="-8.671830"><ele>9.411</ele><time>2022-11-16T20:42:50Z</time></trkpt><trkpt lat="52.694060" lon="-8.670020"><ele>7.917</ele><time>2022-11-16T20:43:30Z</time></trkpt><trkpt lat="52.699800" lon="-8.660040"><ele>33.138</ele><time>2022-11-16T20:44:10Z</time></trkpt><trkpt lat="52.707610" lon="-8.665280"><ele>56.815</ele><time>2022-11-16T20:44:50Z</time></trkpt><trkpt lat="52.708890" lon="-8.671520"><ele>75.065</ele><time>2022-11-16T20:45:30Z</time></trkpt><trkpt lat="52.719310" lon="-8.677180"><ele>141.811</ele><time>2022-11-16T20:46:10Z</time></trkpt><trkpt lat="52.726300" lon="-8.690940"><ele>196.109</ele><time>2022-11-16T20:46:50Z</time></trkpt><trkpt lat="52.728710" lon="-8.691820"><ele>212.762</ele><time>2022-11-16T20:47:30Z</time></trkpt><trkpt lat="52.730880" lon="-8.689200"><ele>224.532</ele><time>2022-11-16T20:48:10Z</time></trkpt><trkpt lat="52.733050" lon="-8.691540"><ele>220.089</ele><time>2022-11-16T20:48:50Z</time></trkpt><trkpt lat="52.734470" lon="-8.705050"><ele>189.538</ele><time>2022-11-16T20:49:30Z</time></trkpt><trkpt lat="52.739020" lon="-8.713220"><ele>152.773</ele><time>2022-11-16T20:50:10Z</time></trkpt><trkpt lat="52.740660" lon="-8.721300"><ele>114.135</ele><time>2022-11-16T20:50:50Z</time></trkpt><trkpt lat="52.740190" lon="-8.729770"><ele>95.918</ele><time>2022-11-16T20:51:30Z</time></trkpt><trkpt lat="52.741960" lon="-8.738490"><ele>69.634</ele><time>2022-11-16T20:52:10Z</time></trkpt><trkpt lat="52.746770" lon="-8.746620"><ele>58.025</ele><time>2022-11-16T20:52:50Z</time></trkpt><trkpt lat="52.741560" lon="-8.757200"><ele>34.026</ele><time>2022-11-16T20:53:30Z</time></trkpt><trkpt lat="52.740910" lon="-8.763880"><ele>32.947</ele><time>2022-11-16T20:54:10Z</time></trkpt><trkpt lat="52.742740" lon="-8.768150"><ele>16.511</ele><time>2022-11-16T20:54:50Z</time></trkpt><trkpt lat="52.741780" lon="-8.773950"><ele>11.809</ele><time>2022-11-16T20:55:30Z</time></trkpt><trkpt lat="52.743070" lon="-8.774210"><ele>13.153</ele><time>2022-11-16T20:56:10Z</time></trkpt><trkpt lat="52.746170" lon="-8.786640"><ele>22.623</ele><time>2022-11-16T20:56:50Z</time></trkpt><trkpt lat="52.749000" lon="-8.791400"><ele>24.060</ele><time>2022-11-16T20:57:30Z</time></trkpt><trkpt lat="52.748720" lon="-8.805820"><ele>26.019</ele><time>2022-11-16T20:58:10Z</time></trkpt><trkpt lat="52.754140" lon="-8.819530"><ele>31.054</ele><time>2022-11-16T20:58:50Z</time></trkpt><trkpt lat="52.753740" lon="-8.825220"><ele>31.816</ele><time>2022-11-16T20:59:30Z</time></trkpt><trkpt lat="52.757870" lon="-8.848800"><ele>29.339</ele><time>2022-11-16T21:00:10Z</time></trkpt><trkpt lat="52.764540" lon="-8.859240"><ele>29.745</ele><time>2022-11-16T21:00:50Z</time></trkpt><trkpt lat="52.768760" lon="-8.852120"><ele>27.866</ele><time>2022-11-16T21:01:30Z</time></trkpt><trkpt lat="52.779770" lon="-8.849070"><ele>26.812</ele><time>2022-11-16T21:02:10Z</time></trkpt><trkpt lat="52.781900" lon="-8.841260"><ele>27.232</ele><time>2022-11-16T21:02:50Z</time></trkpt><trkpt lat="52.780310" lon="-8.825580"><ele>32.905</ele><time>2022-11-16T21:03:30Z</time></trkpt><trkpt lat="52.787310" lon="-8.816460"><ele>30.009</ele><time>2022-11-16T21:04:10Z</time></trkpt><trkpt lat="52.795080" lon="-8.814730"><ele>30.712</ele><time>2022-11-16T21:04:50Z</time></trkpt><trkpt lat="52.797020" lon="-8.832400"><ele>32.552</ele><time>2022-11-16T21:05:30Z</time></trkpt><trkpt lat="52.809640" lon="-8.857160"><ele>22.729</ele><time>2022-11-16T21:06:10Z</time></trkpt><trkpt lat="52.817450" lon="-8.863450"><ele>19.028</ele><time>2022-11-16T21:06:50Z</time></trkpt><trkpt lat="52.818720" lon="-8.867030"><ele>22.873</ele><time>2022-11-16T21:07:30Z</time></trkpt><trkpt lat="52.816610" lon="-8.872720"><ele>19.665</ele><time>2022-11-16T21:08:10Z</time></trkpt><trkpt lat="52.808510" lon="-8.880360"><ele>20.768</ele><time>2022-11-16T21:08:50Z</time></trkpt><trkpt lat="52.807340" lon="-8.883760"><ele>16.884</ele><time>2022-11-16T21:09:30Z</time></trkpt><trkpt lat="52.808820" lon="-8.892920"><ele>26.085</ele><time>2022-11-16T21:10:10Z</time></trkpt><trkpt lat="52.812750" lon="-8.899310"><ele>22.131</ele><time>2022-11-16T21:10:50Z</time></trkpt><trkpt lat="52.815670" lon="-8.910360"><ele>10.461</ele><time>2022-11-16T21:11:30Z</time></trkpt><trkpt lat="52.815560" lon="-8.914070"><ele>7.307</ele><time>2022-11-16T21:12:10Z</time></trkpt><trkpt lat="52.810460" lon="-8.916740"><ele>4.909</ele><time>2022-11-16T21:12:50Z</time></trkpt><trkpt lat="52.808640" lon="-8.920090"><ele>2.924</ele><time>2022-11-16T21:13:30Z</time></trkpt><trkpt lat="52.806100" lon="-8.931090"><ele>11.174</ele><time>2022-11-16T21:14:10Z</time></trkpt><trkpt lat="52.806990" lon="-8.935290"><ele>10.081</ele><time>2022-11-16T21:14:50Z</time></trkpt><trkpt lat="52.812280" lon="-8.942030"><ele>11.780</ele><time>2022-11-16T21:15:30Z</time></trkpt><trkpt lat="52.817030" lon="-8.956500"><ele>3.065</ele><time>2022-11-16T21:16:10Z</time></trkpt><trkpt lat="52.814530" lon="-8.964480"><ele>2.017</ele><time>2022-11-16T21:16:50Z</time></trkpt><trkpt lat="52.814530" lon="-8.964480"><ele>2.080</ele><time>2022-11-16T21:17:30Z</time></trkpt><trkpt lat="52.810150" lon="-8.968420"><ele>12.276</ele><time>2022-11-16T21:18:10Z</time></trkpt><trkpt lat="52.802070" lon="-8.969000"><ele>3.417</ele><time>2022-11-16T21:18:50Z</time></trkpt><trkpt lat="52.796370" lon="-8.975150"><ele>1.046</ele><time>2022-11-16T21:19:30Z</time></trkpt><trkpt lat="52.790010" lon="-8.973550"><ele>3.288</ele><time>2022-11-16T21:20:10Z</time></trkpt><trkpt lat="52.785320" lon="-8.980920"><ele>3.016</ele><time>2022-11-16T21:20:50Z</time></trkpt><trkpt lat="52.784420" lon="-8.976650"><ele>2.909</ele><time>2022-11-16T21:21:30Z</time></trkpt><trkpt lat="52.781350" lon="-8.977990"><ele>1.265</ele><time>2022-11-16T21:22:10Z</time></trkpt><trkpt lat="52.772840" lon="-8.992370"><ele>0.645</ele><time>2022-11-16T21:22:50Z</time></trkpt><trkpt lat="52.764010" lon="-8.996360"><ele>2.632</ele><time>2022-11-16T21:23:30Z</time></trkpt><trkpt lat="52.765490" lon="-9.009340"><ele>2.031</ele><time>2022-11-16T21:24:10Z</time></trkpt><trkpt lat="52.764260" lon="-9.013090"><ele>5.096</ele><time>2022-11-16T21:24:50Z</time></trkpt><trkpt lat="52.767780" lon="-9.016310"><ele>4.788</ele><time>2022-11-16T21:25:30Z</time></trkpt><trkpt lat="52.769700" lon="-9.022760"><ele>6.061</ele><time>2022-11-16T21:26:10Z</time></trkpt><trkpt lat="52.765170" lon="-9.027580"><ele>13.277</ele><time>2022-11-16T21:26:50Z</time></trkpt><trkpt lat="52.770770" lon="-9.049670"><ele>67.258</ele><time>2022-11-16T21:27:30Z</time></trkpt><trkpt lat="52.767840" lon="-9.049820"><ele>74.651</ele><time>2022-11-16T21:28:10Z</time></trkpt><trkpt lat="52.761620" lon="-9.061950"><ele>74.801</ele><time>2022-11-16T21:28:50Z</time></trkpt><trkpt lat="52.748360" lon="-9.080800"><ele>46.311</ele><time>2022-11-16T21:29:30Z</time></trkpt><trkpt lat="52.743800" lon="-9.081950"><ele>35.009</ele><time>2022-11-16T21:30:10Z</time></trkpt><trkpt lat="52.741490" lon="-9.078180"><ele>20.366</ele><time>2022-11-16T21:30:50Z</time></trkpt><trkpt lat="52.737010" lon="-9.078230"><ele>12.776</ele><time>2022-11-16T21:31:30Z</time></trkpt><trkpt lat="52.735390" lon="-9.071030"><ele>14.483</ele><time>2022-11-16T21:32:10Z</time></trkpt><trkpt lat="52.730720" lon="-9.078860"><ele>32.042</ele><time>2022-11-16T21:32:50Z</time></trkpt><trkpt lat="52.719560" lon="-9.087040"><ele>46.357</ele><time>2022-11-16T21:33:30Z</time></trkpt><trkpt lat="52.711600" lon="-9.113660"><ele>65.039</ele><time>2022-11-16T21:34:10Z</time></trkpt><trkpt lat="52.706890" lon="-9.122030"><ele>80.052</ele><time>2022-11-16T21:34:50Z</time></trkpt><trkpt lat="52.703020" lon="-9.139190"><ele>99.558</ele><time>2022-11-16T21:35:30Z</time></trkpt><trkpt lat="52.696700" lon="-9.133260"><ele>79.129</ele><time>2022-11-16T21:36:10Z</time></trkpt><trkpt lat="52.689920" lon="-9.121650"><ele>54.054</ele><time>2022-11-16T21:36:50Z</time></trkpt><trkpt lat="52.674110" lon="-9.118210"><ele>28.556</ele><time>2022-11-16T21:37:30Z</time></trkpt><trkpt lat="52.674070" lon="-9.108120"><ele>38.111</ele><time>2022-11-16T21:38:10Z</time></trkpt><trkpt lat="52.670940" lon="-9.107030"><ele>26.409</ele><time>2022-11-16T21:38:50Z</time></trkpt><trkpt lat="52.666700" lon="-9.108950"><ele>3.126</ele><time>2022-11-16T21:39:30Z</time></trkpt><trkpt lat="52.651820" lon="-9.125580"><ele>54.756</ele><time>2022-11-16T21:40:10Z</time></trkpt><trkpt lat="52.646160" lon="-9.137060"><ele>36.043</ele><time>2022-11-16T21:40:50Z</time></trkpt><trkpt lat="52.637710" lon="-9.146120"><ele>59.732</ele><time>2022-11-16T21:41:30Z</time></trkpt><trkpt lat="52.624880" lon="-9.168040"><ele>12.667</ele><time>2022-11-16T21:42:10Z</time></trkpt><trkpt lat="52.620430" lon="-9.190630"><ele>3.229</ele><time>2022-11-16T21:42:50Z</time></trkpt><trkpt lat="52.620170" lon="-9.203940"><ele>1.832</ele><time>2022-11-16T21:43:30Z</time></trkpt><trkpt lat="52.622630" lon="-9.211760"><ele>6.168</ele><time>2022-11-16T21:44:10Z</time></trkpt><trkpt lat="52.621150" lon="-9.230520"><ele>4.449</ele><time>2022-11-16T21:44:50Z</time></trkpt><trkpt lat="52.622590" lon="-9.242110"><ele>9.722</ele><time>2022-11-16T21:45:30Z</time></trkpt><trkpt lat="52.623700" lon="-9.245840"><ele>14.062</ele><time>2022-11-16T21:46:10Z</time></trkpt><trkpt lat="52.633880" lon="-9.251410"><ele>40.008</ele><time>2022-11-16T21:46:50Z</time></trkpt><trkpt lat="52.637040" lon="-9.248130"><ele>35.009</ele><time>2022-11-16T21:47:30Z</time></trkpt><trkpt lat="52.642870" lon="-9.255960"><ele>11.023</ele><time>2022-11-16T21:48:10Z</time></trkpt><trkpt lat="52.643830" lon="-9.266920"><ele>10.473</ele><time>2022-11-16T21:48:50Z</time></trkpt><trkpt lat="52.644630" lon="-9.269240"><ele>6.380</ele><time>2022-11-16T21:49:30Z</time></trkpt><trkpt lat="52.647560" lon="-9.269560"><ele>13.329</ele><time>2022-11-16T21:50:10Z</time></trkpt><trkpt lat="52.650390" lon="-9.289640"><ele>28.184</ele><time>2022-11-16T21:50:50Z</time></trkpt><trkpt lat="52.652910" lon="-9.294970"><ele>19.616</ele><time>2022-11-16T21:51:30Z</time></trkpt><trkpt lat="52.652860" lon="-9.303300"><ele>20.079</ele><time>2022-11-16T21:52:10Z</time></trkpt><trkpt lat="52.649780" lon="-9.313220"><ele>5.485</ele><time>2022-11-16T21:52:50Z</time></trkpt><trkpt lat="52.647760" lon="-9.316560"><ele>3.776</ele><time>2022-11-16T21:53:30Z</time></trkpt><trkpt lat="52.634820" lon="-9.316080"><ele>37.459</ele><time>2022-11-16T21:54:10Z</time></trkpt><trkpt lat="52.625120" lon="-9.341750"><ele>6.703</ele><time>2022-11-16T21:54:50Z</time></trkpt><trkpt lat="52.625590" lon="-9.368020"><ele>39.423</ele><time>2022-11-16T21:55:30Z</time></trkpt><trkpt lat="52.628090" lon="-9.375640"><ele>40.609</ele><time>2022-11-16T21:56:10Z</time></trkpt><trkpt lat="52.631750" lon="-9.432360"><ele>31.446</ele><time>2022-11-16T21:56:50Z</time></trkpt><trkpt lat="52.642530" lon="-9.462830"><ele>13.226</ele><time>2022-11-16T21:57:30Z</time></trkpt><trkpt lat="52.637610" lon="-9.478890"><ele>9.253</ele><time>2022-11-16T21:58:10Z</time></trkpt><trkpt lat="52.637660" lon="-9.483910"><ele>13.682</ele><time>2022-11-16T21:58:50Z</time></trkpt><trkpt lat="52.639540" lon="-9.485110"><ele>15.027</ele><time>2022-11-16T21:59:30Z</time></trkpt><trkpt lat="52.639540" lon="-9.485110"><ele>15.019</ele><time>2022-11-16T22:00:10Z</time></trkpt><trkpt lat="52.642880" lon="-9.492690"><ele>35.982</ele><time>2022-11-16T22:00:50Z</time></trkpt><trkpt lat="52.646720" lon="-9.492850"><ele>40.438</ele><time>2022-11-16T22:01:30Z</time></trkpt><trkpt lat="52.668650" lon="-9.504740"><ele>15.069</ele><time>2022-11-16T22:02:10Z</time></trkpt><trkpt lat="52.669650" lon="-9.529290"><ele>5.792</ele><time>2022-11-16T22:02:50Z</time></trkpt><trkpt lat="52.667330" lon="-9.537760"><ele>3.673</ele><time>2022-11-16T22:03:30Z</time></trkpt><trkpt lat="52.673310" lon="-9.541790"><ele>4.920</ele><time>2022-11-16T22:04:10Z</time></trkpt><trkpt lat="52.674580" lon="-9.545300"><ele>6.009</ele><time>2022-11-16T22:04:50Z</time></trkpt><trkpt lat="52.672230" lon="-9.574400"><ele>22.090</ele><time>2022-11-16T22:05:30Z</time></trkpt><trkpt lat="52.673140" lon="-9.587860"><ele>25.720</ele><time>2022-11-16T22:06:10Z</time></trkpt><trkpt lat="52.662980" lon="-9.589970"><ele>4.357</ele><time>2022-11-16T22:06:50Z</time></trkpt><trkpt lat="52.657410" lon="-9.587300"><ele>12.446</ele><time>2022-11-16T22:07:30Z</time></trkpt><trkpt lat="52.643720" lon="-9.576310"><ele>22.941</ele><time>2022-11-16T22:08:10Z</time></trkpt><trkpt lat="52.642800" lon="-9.569720"><ele>25.073</ele><time>2022-11-16T22:08:50Z</time></trkpt><trkpt lat="52.640930" lon="-9.572170"><ele>40.386</ele><time>2022-11-16T22:09:30Z</time></trkpt><trkpt lat="52.640040" lon="-9.580180"><ele>49.562</ele><time>2022-11-16T22:10:10Z</time></trkpt><trkpt lat="52.629760" lon="-9.615350"><ele>26.063</ele><time>2022-11-16T22:10:50Z</time></trkpt><trkpt lat="52.628630" lon="-9.627930"><ele>13.617</ele><time>2022-11-16T22:11:30Z</time></trkpt><trkpt lat="52.629750" lon="-9.632350"><ele>20.587</ele><time>2022-11-16T22:12:10Z</time></trkpt><trkpt lat="52.625860" lon="-9.636790"><ele>9.315</ele><time>2022-11-16T22:12:50Z</time></trkpt><trkpt lat="52.623630" lon="-9.644840"><ele>28.909</ele><time>2022-11-16T22:13:30Z</time></trkpt><trkpt lat="52.622980" lon="-9.668290"><ele>45.042</ele><time>2022-11-16T22:14:10Z</time></trkpt><trkpt lat="52.616060" lon="-9.686860"><ele>24.682</ele><time>2022-11-16T22:14:50Z</time></trkpt><trkpt lat="52.613630" lon="-9.702560"><ele>23.179</ele><time>2022-11-16T22:15:30Z</time></trkpt><trkpt lat="52.604760" lon="-9.709720"><ele>2.088</ele><time>2022-11-16T22:16:10Z</time></trkpt><trkpt lat="52.599270" lon="-9.707760"><ele>18.633</ele><time>2022-11-16T22:16:50Z</time></trkpt><trkpt lat="52.590940" lon="-9.709130"><ele>1.945</ele><time>2022-11-16T22:17:30Z</time></trkpt><trkpt lat="52.586840" lon="-9.729690"><ele>2.048</ele><time>2022-11-16T22:18:10Z</time></trkpt><trkpt lat="52.587250" lon="-9.740620"><ele>1.034</ele><time>2022-11-16T22:18:50Z</time></trkpt><trkpt lat="52.581750" lon="-9.757410"><ele>32.025</ele><time>2022-11-16T22:19:30Z</time></trkpt><trkpt lat="52.579780" lon="-9.770660"><ele>44.464</ele><time>2022-11-16T22:20:10Z</time></trkpt><trkpt lat="52.577730" lon="-9.800650"><ele>17.706</ele><time>2022-11-16T22:20:50Z</time></trkpt><trkpt lat="52.571290" lon="-9.806650"><ele>26.416</ele><time>2022-11-16T22:21:30Z</time></trkpt><trkpt lat="52.568230" lon="-9.818500"><ele>8.109</ele><time>2022-11-16T22:22:10Z</time></trkpt><trkpt lat="52.572390" lon="-9.836850"><ele>8.797</ele><time>2022-11-16T22:22:50Z</time></trkpt><trkpt lat="52.570970" lon="-9.859750"><ele>3.587</ele><time>2022-11-16T22:23:30Z</time></trkpt><trkpt lat="52.568810" lon="-9.866200"><ele>13.634</ele><time>2022-11-16T22:24:10Z</time></trkpt><trkpt lat="52.566440" lon="-9.889120"><ele>56.893</ele><time>2022-11-16T22:24:50Z</time></trkpt><trkpt lat="52.567020" lon="-9.901190"><ele>52.858</ele><time>2022-11-16T22:25:30Z</time></trkpt><trkpt lat="52.565470" lon="-9.908900"><ele>60.740</ele><time>2022-11-16T22:26:10Z</time></trkpt><trkpt lat="52.572350" lon="-9.901360"><ele>46.393</ele><time>2022-11-16T22:26:50Z</time></trkpt><trkpt lat="52.582680" lon="-9.872410"><ele>6.039</ele><time>2022-11-16T22:27:30Z</time></trkpt><trkpt lat="52.589080" lon="-9.866000"><ele>10.460</ele><time>2022-11-16T22:28:10Z</time></trkpt><trkpt lat="52.592960" lon="-9.847540"><ele>32.786</ele><time>2022-11-16T22:28:50Z</time></trkpt><trkpt lat="52.598390" lon="-9.775810"><ele>47.060</ele><time>2022-11-16T22:29:30Z</time></trkpt><trkpt lat="52.605660" lon="-9.746360"><ele>19.026</ele><time>2022-11-16T22:30:10Z</time></trkpt><trkpt lat="52.620490" lon="-9.738860"><ele>44.009</ele><time>2022-11-16T22:30:50Z</time></trkpt><trkpt lat="52.626250" lon="-9.726860"><ele>41.749</ele><time>2022-11-16T22:31:30Z</time></trkpt><trkpt lat="52.640860" lon="-9.734900"><ele>25.419</ele><time>2022-11-16T22:32:10Z</time></trkpt><trkpt lat="52.641610" lon="-9.728990"><ele>21.446</ele><time>2022-11-16T22:32:50Z</time></trkpt><trkpt lat="52.643900" lon="-9.733330"><ele>29.125</ele><time>2022-11-16T22:33:30Z</time></trkpt><trkpt lat="52.648010" lon="-9.731120"><ele>40.690</ele><time>2022-11-16T22:34:10Z</time></trkpt><trkpt lat="52.650290" lon="-9.723800"><ele>53.342</ele><time>2022-11-16T22:34:50Z</time></trkpt><trkpt lat="52.657300" lon="-9.716620"><ele>46.035</ele><time>2022-11-16T22:35:30Z</time></trkpt><trkpt lat="52.658530" lon="-9.707010"><ele>56.611</ele><time>2022-11-16T22:36:10Z</time></trkpt><trkpt lat="52.662780" lon="-9.698190"><ele>75.552</ele><time>2022-11-16T22:36:50Z</time></trkpt><trkpt lat="52.667260" lon="-9.692160"><ele>53.022</ele><time>2022-11-16T22:37:30Z</time></trkpt><trkpt lat="52.673460" lon="-9.689130"><ele>32.962</ele><time>2022-11-16T22:38:10Z</time></trkpt><trkpt lat="52.672230" lon="-9.685310"><ele>49.908</ele><time>2022-11-16T22:38:50Z</time></trkpt><trkpt lat="52.674890" lon="-9.682360"><ele>40.209</ele><time>2022-11-16T22:39:30Z</time></trkpt><trkpt lat="52.676020" lon="-9.677690"><ele>50.733</ele><time>2022-11-16T22:40:10Z</time></trkpt><trkpt lat="52.676110" lon="-9.668380"><ele>31.243</ele><time>2022-11-16T22:40:50Z</time></trkpt><trkpt lat="52.679550" lon="-9.655940"><ele>9.140</ele><time>2022-11-16T22:41:30Z</time></trkpt><trkpt lat="52.677540" lon="-9.650340"><ele>9.019</ele><time>2022-11-16T22:42:10Z</time></trkpt><trkpt lat="52.679870" lon="-9.646830"><ele>11.694</ele><time>2022-11-16T22:42:50Z</time></trkpt><trkpt lat="52.679510" lon="-9.644460"><ele>12.256</ele><time>2022-11-16T22:43:30Z</time></trkpt><trkpt lat="52.679510" lon="-9.644460"><ele>12.229</ele><time>2022-11-16T22:44:10Z</time></trkpt><trkpt lat="52.682490" lon="-9.645760"><ele>10.335</ele><time>2022-11-16T22:44:50Z</time></trkpt><trkpt lat="52.690360" lon="-9.622020"><ele>36.326</ele><time>2022-11-16T22:45:30Z</time></trkpt><trkpt lat="52.695540" lon="-9.623610"><ele>60.936</ele><time>2022-11-16T22:46:10Z</time></trkpt><trkpt lat="52.698350" lon="-9.630490"><ele>61.917</ele><time>2022-11-16T22:46:50Z</time></trkpt><trkpt lat="52.706040" lon="-9.633670"><ele>65.118</ele><time>2022-11-16T22:47:30Z</time></trkpt><trkpt lat="52.713910" lon="-9.616320"><ele>8.709</ele><time>2022-11-16T22:48:10Z</time></trkpt><trkpt lat="52.718500" lon="-9.587920"><ele>6.584</ele><time>2022-11-16T22:48:50Z</time></trkpt><trkpt lat="52.721310" lon="-9.585280"><ele>6.734</ele><time>2022-11-16T22:49:30Z</time></trkpt><trkpt lat="52.722210" lon="-9.580590"><ele>15.821</ele><time>2022-11-16T22:50:10Z</time></trkpt><trkpt lat="52.728350" lon="-9.589260"><ele>20.390</ele><time>2022-11-16T22:50:50Z</time></trkpt><trkpt lat="52.737660" lon="-9.592820"><ele>31.475</ele><time>2022-11-16T22:51:30Z</time></trkpt><trkpt lat="52.741380" lon="-9.585270"><ele>48.177</ele><time>2022-11-16T22:52:10Z</time></trkpt><trkpt lat="52.746630" lon="-9.567480"><ele>35.380</ele><time>2022-11-16T22:52:50Z</time></trkpt><trkpt lat="52.749130" lon="-9.556530"><ele>15.926</ele><time>2022-11-16T22:53:30Z</time></trkpt><trkpt lat="52.747450" lon="-9.553970"><ele>18.327</ele><time>2022-11-16T22:54:10Z</time></trkpt><trkpt lat="52.744620" lon="-9.560410"><ele>49.829</ele><time>2022-11-16T22:54:50Z</time></trkpt><trkpt lat="52.737390" lon="-9.550220"><ele>27.000</ele><time>2022-11-16T22:55:30Z</time></trkpt><trkpt lat="52.737140" lon="-9.537890"><ele>1.720</ele><time>2022-11-16T22:56:10Z</time></trkpt><trkpt lat="52.735220" lon="-9.532660"><ele>2.209</ele><time>2022-11-16T22:56:50Z</time></trkpt><trkpt lat="52.730220" lon="-9.530270"><ele>8.833</ele><time>2022-11-16T22:57:30Z</time></trkpt><trkpt lat="52.737550" lon="-9.480970"><ele>7.063</ele><time>2022-11-16T22:58:10Z</time></trkpt><trkpt lat="52.744560" lon="-9.452690"><ele>21.420</ele><time>2022-11-16T22:58:50Z</time></trkpt><trkpt lat="52.748920" lon="-9.421410"><ele>39.189</ele><time>2022-11-16T22:59:30Z</time></trkpt><trkpt lat="52.748590" lon="-9.407820"><ele>38.184</ele><time>2022-11-16T23:00:10Z</time></trkpt><trkpt lat="52.750630" lon="-9.394750"><ele>50.356</ele><time>2022-11-16T23:00:50Z</time></trkpt><trkpt lat="52.750600" lon="-9.388540"><ele>54.659</ele><time>2022-11-16T23:01:30Z</time></trkpt><trkpt lat="52.748720" lon="-9.387080"><ele>43.265</ele><time>2022-11-16T23:02:10Z</time></trkpt><trkpt lat="52.749270" lon="-9.374000"><ele>69.346</ele><time>2022-11-16T23:02:50Z</time></trkpt><trkpt lat="52.755130" lon="-9.374970"><ele>74.961</ele><time>2022-11-16T23:03:30Z</time></trkpt><trkpt lat="52.761420" lon="-9.379250"><ele>94.121</ele><time>2022-11-16T23:04:10Z</time></trkpt><trkpt lat="52.790680" lon="-9.404870"><ele>38.613</ele><time>2022-11-16T23:04:50Z</time></trkpt><trkpt lat="52.798370" lon="-9.400930"><ele>50.709</ele><time>2022-11-16T23:05:30Z</time></trkpt><trkpt lat="52.799020" lon="-9.403570"><ele>47.877</ele><time>2022-11-16T23:06:10Z</time></trkpt><trkpt lat="52.821580" lon="-9.418490"><ele>25.097</ele><time>2022-11-16T23:06:50Z</time></trkpt><trkpt lat="52.829860" lon="-9.409690"><ele>27.054</ele><time>2022-11-16T23:07:30Z</time></trkpt><trkpt lat="52.858120" lon="-9.400070"><ele>52.993</ele><time>2022-11-16T23:08:10Z</time></trkpt><trkpt lat="52.862110" lon="-9.395180"><ele>60.418</ele><time>2022-11-16T23:08:50Z</time></trkpt><trkpt lat="52.865890" lon="-9.398170"><ele>47.410</ele><time>2022-11-16T23:09:30Z</time></trkpt><trkpt lat="52.872480" lon="-9.386360"><ele>63.153</ele><time>2022-11-16T23:10:10Z</time></trkpt><trkpt lat="52.873450" lon="-9.391290"><ele>57.289</ele><time>2022-11-16T23:10:50Z</time></trkpt><trkpt lat="52.883960" lon="-9.383490"><ele>106.160</ele><time>2022-11-16T23:11:30Z</time></trkpt><trkpt lat="52.888120" lon="-9.377320"><ele>110.056</ele><time>2022-11-16T23:12:10Z</time></trkpt><trkpt lat="52.894550" lon="-9.358440"><ele>125.559</ele><time>2022-11-16T23:12:50Z</time></trkpt><trkpt lat="52.905420" lon="-9.340030"><ele>68.514</ele><time>2022-11-16T23:13:30Z</time></trkpt><trkpt lat="52.903090" lon="-9.334960"><ele>65.009</ele><time>2022-11-16T23:14:10Z</time></trkpt><trkpt lat="52.902170" lon="-9.324910"><ele>59.436</ele><time>2022-11-16T23:14:50Z</time></trkpt><trkpt lat="52.908730" lon="-9.326000"><ele>56.936</ele><time>2022-11-16T23:15:30Z</time></trkpt><trkpt lat="52.917980" lon="-9.338770"><ele>25.623</ele><time>2022-11-16T23:16:10Z</time></trkpt><trkpt lat="52.923160" lon="-9.328940"><ele>64.652</ele><time>2022-11-16T23:16:50Z</time></trkpt><trkpt lat="52.927500" lon="-9.324560"><ele>75.267</ele><time>2022-11-16T23:17:30Z</time></trkpt><trkpt lat="52.928890" lon="-9.346280"><ele>19.449</ele><time>2022-11-16T23:18:10Z</time></trkpt><trkpt lat="52.932500" lon="-9.346140"><ele>9.162</ele><time>2022-11-16T23:18:50Z</time></trkpt><trkpt lat="52.932500" lon="-9.346140"><ele>9.118</ele><time>2022-11-16T23:19:30Z</time></trkpt><trkpt lat="52.933880" lon="-9.344520"><ele>5.099</ele><time>2022-11-16T23:20:10Z</time></trkpt><trkpt lat="52.945390" lon="-9.351080"><ele>4.492</ele><time>2022-11-16T23:20:50Z</time></trkpt><trkpt lat="52.947830" lon="-9.353830"><ele>7.873</ele><time>2022-11-16T23:21:30Z</time></trkpt><trkpt lat="52.947070" lon="-9.358450"><ele>3.520</ele><time>2022-11-16T23:22:10Z</time></trkpt><trkpt lat="52.948890" lon="-9.357420"><ele>8.009</ele><time>2022-11-16T23:22:50Z</time></trkpt><trkpt lat="52.957020" lon="-9.363410"><ele>35.770</ele><time>2022-11-16T23:23:30Z</time></trkpt><trkpt lat="52.966100" lon="-9.364210"><ele>71.920</ele><time>2022-11-16T23:24:10Z</time></trkpt><trkpt lat="52.970960" lon="-9.371010"><ele>94.547</ele><time>2022-11-16T23:24:50Z</time></trkpt><trkpt lat="52.975200" lon="-9.372950"><ele>104.156</ele><time>2022-11-16T23:25:30Z</time></trkpt><trkpt lat="52.974220" lon="-9.377590"><ele>111.251</ele><time>2022-11-16T23:26:10Z</time></trkpt><trkpt lat="52.968860" lon="-9.378480"><ele>98.683</ele><time>2022-11-16T23:26:50Z</time></trkpt><trkpt lat="52.968980" lon="-9.381180"><ele>94.226</ele><time>2022-11-16T23:27:30Z</time></trkpt><trkpt lat="52.979780" lon="-9.398290"><ele>148.282</ele><time>2022-11-16T23:28:10Z</time></trkpt><trkpt lat="52.979850" lon="-9.404330"><ele>161.433</ele><time>2022-11-16T23:28:50Z</time></trkpt><trkpt lat="52.977750" lon="-9.410280"><ele>155.361</ele><time>2022-11-16T23:29:30Z</time></trkpt><trkpt lat="52.980430" lon="-9.422200"><ele>158.021</ele><time>2022-11-16T23:30:10Z</time></trkpt><trkpt lat="52.988470" lon="-9.406310"><ele>126.613</ele><time>2022-11-16T23:30:50Z</time></trkpt><trkpt lat="52.993530" lon="-9.404830"><ele>102.209</ele><time>2022-11-16T23:31:30Z</time></trkpt><trkpt lat="53.003810" lon="-9.388670"><ele>55.377</ele><time>2022-11-16T23:32:10Z</time></trkpt><trkpt lat="53.009990" lon="-9.388740"><ele>33.027</ele><time>2022-11-16T23:32:50Z</time></trkpt><trkpt lat="53.017670" lon="-9.372500"><ele>22.024</ele><time>2022-11-16T23:33:30Z</time></trkpt><trkpt lat="53.032130" lon="-9.364950"><ele>72.163</ele><time>2022-11-16T23:34:10Z</time></trkpt><trkpt lat="53.040230" lon="-9.347550"><ele>86.918</ele><time>2022-11-16T23:34:50Z</time></trkpt><trkpt lat="53.047470" lon="-9.340730"><ele>93.560</ele><time>2022-11-16T23:35:30Z</time></trkpt><trkpt lat="53.051210" lon="-9.329380"><ele>128.883</ele><time>2022-11-16T23:36:10Z</time></trkpt><trkpt lat="53.054550" lon="-9.325010"><ele>151.189</ele><time>2022-11-16T23:36:50Z</time></trkpt><trkpt lat="53.060310" lon="-9.322770"><ele>162.310</ele><time>2022-11-16T23:37:30Z</time></trkpt><trkpt lat="53.057660" lon="-9.316650"><ele>168.824</ele><time>2022-11-16T23:38:10Z</time></trkpt><trkpt lat="53.054140" lon="-9.297170"><ele>187.704</ele><time>2022-11-16T23:38:50Z</time></trkpt><trkpt lat="53.053320" lon="-9.279420"><ele>188.914</ele><time>2022-11-16T23:39:30Z</time></trkpt><trkpt lat="53.062120" lon="-9.289190"><ele>232.309</ele><time>2022-11-16T23:40:10Z</time></trkpt><trkpt lat="53.072150" lon="-9.293850"><ele>226.843</ele><time>2022-11-16T23:40:50Z</time></trkpt><trkpt lat="53.076130" lon="-9.292620"><ele>227.083</ele><time>2022-11-16T23:41:30Z</time></trkpt><trkpt lat="53.079710" lon="-9.287940"><ele>237.430</ele><time>2022-11-16T23:42:10Z</time></trkpt><trkpt lat="53.080990" lon="-9.290070"><ele>232.779</ele><time>2022-11-16T23:42:50Z</time></trkpt><trkpt lat="53.084170" lon="-9.289830"><ele>230.044</ele><time>2022-11-16T23:43:30Z</time></trkpt><trkpt lat="53.094310" lon="-9.281810"><ele>158.756</ele><time>2022-11-16T23:44:10Z</time></trkpt><trkpt lat="53.099800" lon="-9.281200"><ele>120.319</ele><time>2022-11-16T23:44:50Z</time></trkpt><trkpt lat="53.107620" lon="-9.288120"><ele>67.445</ele><time>2022-11-16T23:45:30Z</time></trkpt><trkpt lat="53.107810" lon="-9.293090"><ele>32.546</ele><time>2022-11-16T23:46:10Z</time></trkpt><trkpt lat="53.116830" lon="-9.284650"><ele>20.917</ele><time>2022-11-16T23:46:50Z</time></trkpt><trkpt lat="53.116830" lon="-9.284650"><ele>20.987</ele><time>2022-11-16T23:47:30Z</time></trkpt><trkpt lat="53.122140" lon="-9.278410"><ele>23.715</ele><time>2022-11-16T23:48:10Z</time></trkpt><trkpt lat="53.127280" lon="-9.276120"><ele>28.209</ele><time>2022-11-16T23:48:50Z</time></trkpt><trkpt lat="53.140540" lon="-9.276110"><ele>37.192</ele><time>2022-11-16T23:49:30Z</time></trkpt><trkpt lat="53.151980" lon="-9.268020"><ele>16.822</ele><time>2022-11-16T23:50:10Z</time></trkpt><trkpt lat="53.153710" lon="-9.263350"><ele>21.869</ele><time>2022-11-16T23:50:50Z</time></trkpt><trkpt lat="53.150090" lon="-9.253350"><ele>20.818</ele><time>2022-11-16T23:51:30Z</time></trkpt><trkpt lat="53.148660" lon="-9.239970"><ele>10.063</ele><time>2022-11-16T23:52:10Z</time></trkpt><trkpt lat="53.141440" lon="-9.229240"><ele>18.855</ele><time>2022-11-16T23:52:50Z</time></trkpt><trkpt lat="53.135230" lon="-9.213970"><ele>38.778</ele><time>2022-11-16T23:53:30Z</time></trkpt><trkpt lat="53.134170" lon="-9.198000"><ele>18.894</ele><time>2022-11-16T23:54:10Z</time></trkpt><trkpt lat="53.131500" lon="-9.188960"><ele>20.595</ele><time>2022-11-16T23:54:50Z</time></trkpt><trkpt lat="53.126070" lon="-9.179670"><ele>20.842</ele><time>2022-11-16T23:55:30Z</time></trkpt><trkpt lat="53.119670" lon="-9.153980"><ele>2.522</ele><time>2022-11-16T23:56:10Z</time></trkpt><trkpt lat="53.115260" lon="-9.149440"><ele>10.014</ele><time>2022-11-16T23:56:50Z</time></trkpt><trkpt lat="53.106210" lon="-9.155780"><ele>15.909</ele><time>2022-11-16T23:57:30Z</time></trkpt><trkpt lat="53.103670" lon="-9.160150"><ele>19.975</ele><time>2022-11-16T23:58:10Z</time></trkpt><trkpt lat="53.090020" lon="-9.158100"><ele>34.935</ele><time>2022-11-16T23:58:50Z</time></trkpt><trkpt lat="53.085880" lon="-9.164000"><ele>51.112</ele><time>2022-11-16T23:59:30Z</time></trkpt><trkpt lat="53.084150" lon="-9.162570"><ele>60.581</ele><time>2022-11-17T00:00:10Z</time></trkpt><trkpt lat="53.081270" lon="-9.165240"><ele>78.236</ele><time>2022-11-17T00:00:50Z</time></trkpt><trkpt lat="53.077100" lon="-9.162410"><ele>93.988</ele><time>2022-11-17T00:01:30Z</time></trkpt><trkpt lat="53.076850" lon="-9.157810"><ele>114.861</ele><time>2022-11-17T00:02:10Z</time></trkpt><trkpt lat="53.057900" lon="-9.145840"><ele>142.367</ele><time>2022-11-17T00:02:50Z</time></trkpt><trkpt lat="53.054590" lon="-9.147860"><ele>127.548</ele><time>2022-11-17T00:03:30Z</time></trkpt><trkpt lat="53.051680" lon="-9.146580"><ele>133.041</ele><time>2022-11-17T00:04:10Z</time></trkpt><trkpt lat="53.050300" lon="-9.143410"><ele>134.481</ele><time>2022-11-17T00:04:50Z</time></trkpt><trkpt lat="53.040070" lon="-9.135980"><ele>119.309</ele><time>2022-11-17T00:05:30Z</time></trkpt><trkpt lat="53.023370" lon="-9.135460"><ele>132.309</ele><time>2022-11-17T00:06:10Z</time></trkpt><trkpt lat="53.006620" lon="-9.127650"><ele>107.845</ele><time>2022-11-17T00:06:50Z</time></trkpt><trkpt lat="53.012930" lon="-9.104850"><ele>127.555</ele><time>2022-11-17T00:07:30Z</time></trkpt><trkpt lat="53.020200" lon="-9.089690"><ele>148.262</ele><time>2022-11-17T00:08:10Z</time></trkpt><trkpt lat="53.029280" lon="-9.077300"><ele>125.021</ele><time>2022-11-17T00:08:50Z</time></trkpt><trkpt lat="53.038060" lon="-9.075890"><ele>131.026</ele><time>2022-11-17T00:09:30Z</time></trkpt><trkpt lat="53.038630" lon="-9.060380"><ele>115.098</ele><time>2022-11-17T00:10:10Z</time></trkpt><trkpt lat="53.035260" lon="-9.054350"><ele>122.491</ele><time>2022-11-17T00:10:50Z</time></trkpt><trkpt lat="53.034850" lon="-9.050200"><ele>137.737</ele><time>2022-11-17T00:11:30Z</time></trkpt><trkpt lat="53.043600" lon="-9.030390"><ele>165.038</ele><time>2022-11-17T00:12:10Z</time></trkpt><trkpt lat="53.042070" lon="-9.027910"><ele>150.265</ele><time>2022-11-17T00:12:50Z</time></trkpt><trkpt lat="53.041900" lon="-9.023850"><ele>120.768</ele><time>2022-11-17T00:13:30Z</time></trkpt><trkpt lat="53.043360" lon="-9.021640"><ele>101.914</ele><time>2022-11-17T00:14:10Z</time></trkpt><trkpt lat="53.041720" lon="-9.017450"><ele>74.309</ele><time>2022-11-17T00:14:50Z</time></trkpt><trkpt lat="53.086170" lon="-8.980820"><ele>74.737</ele><time>2022-11-17T00:15:30Z</time></trkpt><trkpt lat="53.099490" lon="-8.975020"><ele>29.027</ele><time>2022-11-17T00:16:10Z</time></trkpt><trkpt lat="53.105230" lon="-8.969360"><ele>21.494</ele><time>2022-11-17T00:16:50Z</time></trkpt><trkpt lat="53.128430" lon="-8.955130"><ele>14.323</ele><time>2022-11-17T00:17:30Z</time></trkpt><trkpt lat="53.133650" lon="-8.956960"><ele>13.088</ele><time>2022-11-17T00:18:10Z</time></trkpt><trkpt lat="53.134650" lon="-8.953130"><ele>15.080</ele><time>2022-11-17T00:18:50Z</time></trkpt><trkpt lat="53.138580" lon="-8.950140"><ele>14.983</ele><time>2022-11-17T00:19:30Z</time></trkpt><trkpt lat="53.138850" lon="-8.936720"><ele>6.439</ele><time>2022-11-17T00:20:10Z</time></trkpt><trkpt lat="53.138850" lon="-8.936720"><ele>6.460</ele><time>2022-11-17T00:20:50Z</time></trkpt><trkpt lat="53.141400" lon="-8.925870"><ele>4.887</ele><time>2022-11-17T00:21:30Z</time></trkpt><trkpt lat="53.142330" lon="-8.909980"><ele>5.942</ele><time>2022-11-17T00:22:10Z</time></trkpt><trkpt lat="53.146950" lon="-8.896230"><ele>16.426</ele><time>2022-11-17T00:22:50Z</time></trkpt><trkpt lat="53.163770" lon="-8.877510"><ele>24.009</ele><time>2022-11-17T00:23:30Z</time></trkpt><trkpt lat="53.176070" lon="-8.894700"><ele>22.899</ele><time>2022-11-17T00:24:10Z</time></trkpt><trkpt lat="53.180440" lon="-8.904200"><ele>17.039</ele><time>2022-11-17T00:24:50Z</time></trkpt><trkpt lat="53.190910" lon="-8.913750"><ele>11.716</ele><time>2022-11-17T00:25:30Z</time></trkpt><trkpt lat="53.189910" lon="-8.922480"><ele>7.685</ele><time>2022-11-17T00:26:10Z</time></trkpt><trkpt lat="53.192960" lon="-8.923470"><ele>6.370</ele><time>2022-11-17T00:26:50Z</time></trkpt><trkpt lat="53.197700" lon="-8.929840"><ele>5.762</ele><time>2022-11-17T00:27:30Z</time></trkpt><trkpt lat="53.200230" lon="-8.914050"><ele>7.855</ele><time>2022-11-17T00:28:10Z</time></trkpt><trkpt lat="53.202000" lon="-8.914160"><ele>12.871</ele><time>2022-11-17T00:28:50Z</time></trkpt><trkpt lat="53.203050" lon="-8.911050"><ele>11.072</ele><time>2022-11-17T00:29:30Z</time></trkpt><trkpt lat="53.205950" lon="-8.912700"><ele>10.031</ele><time>2022-11-17T00:30:10Z</time></trkpt><trkpt lat="53.206730" lon="-8.909990"><ele>15.061</ele><time>2022-11-17T00:30:50Z</time></trkpt><trkpt lat="53.207010" lon="-8.882220"><ele>9.507</ele><time>2022-11-17T00:31:30Z</time></trkpt><trkpt lat="53.211270" lon="-8.870270"><ele>11.509</ele><time>2022-11-17T00:32:10Z</time></trkpt><trkpt lat="53.226250" lon="-8.878110"><ele>9.764</ele><time>2022-11-17T00:32:50Z</time></trkpt><trkpt lat="53.229280" lon="-8.880670"><ele>9.054</ele><time>2022-11-17T00:33:30Z</time></trkpt><trkpt lat="53.229120" lon="-8.888940"><ele>11.271</ele><time>2022-11-17T00:34:10Z</time></trkpt><trkpt lat="53.225050" lon="-8.901980"><ele>13.880</ele><time>2022-11-17T00:34:50Z</time></trkpt><trkpt lat="53.223860" lon="-8.913940"><ele>4.995</ele><time>2022-11-17T00:35:30Z</time></trkpt><trkpt lat="53.226830" lon="-8.931620"><ele>22.277</ele><time>2022-11-17T00:36:10Z</time></trkpt><trkpt lat="53.226450" lon="-8.940550"><ele>19.860</ele><time>2022-11-17T00:36:50Z</time></trkpt><trkpt lat="53.228410" lon="-8.947470"><ele>14.616</ele><time>2022-11-17T00:37:30Z</time></trkpt><trkpt lat="53.233650" lon="-8.951150"><ele>6.137</ele><time>2022-11-17T00:38:10Z</time></trkpt><trkpt lat="53.238340" lon="-8.944310"><ele>5.093</ele><time>2022-11-17T00:38:50Z</time></trkpt><trkpt lat="53.242480" lon="-8.944470"><ele>8.265</ele><time>2022-11-17T00:39:30Z</time></trkpt><trkpt lat="53.247540" lon="-8.949770"><ele>15.021</ele><time>2022-11-17T00:40:10Z</time></trkpt><trkpt lat="53.252190" lon="-8.938820"><ele>14.109</ele><time>2022-11-17T00:40:50Z</time></trkpt><trkpt lat="53.264720" lon="-8.929700"><ele>9.040</ele><time>2022-11-17T00:41:30Z</time></trkpt><trkpt lat="53.272350" lon="-8.929310"><ele>4.590</ele><time>2022-11-17T00:42:10Z</time></trkpt><trkpt lat="53.273800" lon="-8.959500"><ele>16.597</ele><time>2022-11-17T00:42:50Z</time></trkpt><trkpt lat="53.271670" lon="-8.973180"><ele>12.096</ele><time>2022-11-17T00:43:30Z</time></trkpt><trkpt lat="53.275520" lon="-8.982770"><ele>19.351</ele><time>2022-11-17T00:44:10Z</time></trkpt><trkpt lat="53.274280" lon="-8.996800"><ele>21.823</ele><time>2022-11-17T00:44:50Z</time></trkpt><trkpt lat="53.282170" lon="-9.033680"><ele>5.866</ele><time>2022-11-17T00:45:30Z</time></trkpt><trkpt lat="53.272370" lon="-9.044220"><ele>8.722</ele><time>2022-11-17T00:46:10Z</time></trkpt><trkpt lat="53.271190" lon="-9.048640"><ele>4.013</ele><time>2022-11-17T00:46:50Z</time></trkpt><trkpt lat="53.271190" lon="-9.048640"><ele>4.047</ele><time>2022-11-17T00:47:30Z</time></trkpt><trkpt lat="53.269180" lon="-9.057270"><ele>5.229</ele><time>2022-11-17T00:48:10Z</time></trkpt><trkpt lat="53.272230" lon="-9.062490"><ele>9.921</ele><time>2022-11-17T00:48:50Z</time></trkpt><trkpt lat="53.274020" lon="-9.080830"><ele>18.009</ele><time>2022-11-17T00:49:30Z</time></trkpt><trkpt lat="53.281540" lon="-9.088690"><ele>44.555</ele><time>2022-11-17T00:50:10Z</time></trkpt><trkpt lat="53.289710" lon="-9.111630"><ele>85.775</ele><time>2022-11-17T00:50:50Z</time></trkpt><trkpt lat="53.293400" lon="-9.128260"><ele>63.772</ele><time>2022-11-17T00:51:30Z</time></trkpt><trkpt lat="53.297000" lon="-9.134090"><ele>72.321</ele><time>2022-11-17T00:52:10Z</time></trkpt><trkpt lat="53.306510" lon="-9.141800"><ele>29.556</ele><time>2022-11-17T00:52:50Z</time></trkpt><trkpt lat="53.309710" lon="-9.140810"><ele>12.048</ele><time>2022-11-17T00:53:30Z</time></trkpt><trkpt lat="53.316040" lon="-9.151940"><ele>11.831</ele><time>2022-11-17T00:54:10Z</time></trkpt><trkpt lat="53.324540" lon="-9.142180"><ele>9.367</ele><time>2022-11-17T00:54:50Z</time></trkpt><trkpt lat="53.326710" lon="-9.143680"><ele>10.028</ele><time>2022-11-17T00:55:30Z</time></trkpt><trkpt lat="53.328190" lon="-9.141730"><ele>8.636</ele><time>2022-11-17T00:56:10Z</time></trkpt><trkpt lat="53.329080" lon="-9.146770"><ele>12.317</ele><time>2022-11-17T00:56:50Z</time></trkpt><trkpt lat="53.338960" lon="-9.157200"><ele>6.318</ele><time>2022-11-17T00:57:30Z</time></trkpt><trkpt lat="53.341860" lon="-9.165840"><ele>11.009</ele><time>2022-11-17T00:58:10Z</time></trkpt><trkpt lat="53.342470" lon="-9.151390"><ele>8.174</ele><time>2022-11-17T00:58:50Z</time></trkpt><trkpt lat="53.345970" lon="-9.151660"><ele>5.554</ele><time>2022-11-17T00:59:30Z</time></trkpt><trkpt lat="53.355320" lon="-9.164740"><ele>9.051</ele><time>2022-11-17T01:00:10Z</time></trkpt><trkpt lat="53.358360" lon="-9.163930"><ele>9.040</ele><time>2022-11-17T01:00:50Z</time></trkpt><trkpt lat="53.360170" lon="-9.168170"><ele>14.675</ele><time>2022-11-17T01:01:30Z</time></trkpt><trkpt lat="53.359710" lon="-9.174330"><ele>16.027</ele><time>2022-11-17T01:02:10Z</time></trkpt><trkpt lat="53.361980" lon="-9.179810"><ele>18.140</ele><time>2022-11-17T01:02:50Z</time></trkpt><trkpt lat="53.369590" lon="-9.181330"><ele>28.776</ele><time>2022-11-17T01:03:30Z</time></trkpt><trkpt lat="53.372010" lon="-9.193950"><ele>12.867</ele><time>2022-11-17T01:04:10Z</time></trkpt><trkpt lat="53.381890" lon="-9.197230"><ele>11.097</ele><time>2022-11-17T01:04:50Z</time></trkpt><trkpt lat="53.383020" lon="-9.205090"><ele>10.923</ele><time>2022-11-17T01:05:30Z</time></trkpt><trkpt lat="53.384770" lon="-9.207950"><ele>12.425</ele><time>2022-11-17T01:06:10Z</time></trkpt><trkpt lat="53.385990" lon="-9.226640"><ele>22.109</ele><time>2022-11-17T01:06:50Z</time></trkpt><trkpt lat="53.389570" lon="-9.246600"><ele>13.190</ele><time>2022-11-17T01:07:30Z</time></trkpt><trkpt lat="53.397400" lon="-9.259570"><ele>11.260</ele><time>2022-11-17T01:08:10Z</time></trkpt><trkpt lat="53.394370" lon="-9.274190"><ele>13.587</ele><time>2022-11-17T01:08:50Z</time></trkpt><trkpt lat="53.394510" lon="-9.284650"><ele>31.356</ele><time>2022-11-17T01:09:30Z</time></trkpt><trkpt lat="53.397670" lon="-9.285230"><ele>34.071</ele><time>2022-11-17T01:10:10Z</time></trkpt><trkpt lat="53.400500" lon="-9.290940"><ele>30.473</ele><time>2022-11-17T01:10:50Z</time></trkpt><trkpt lat="53.402840" lon="-9.290960"><ele>23.146</ele><time>2022-11-17T01:11:30Z</time></trkpt><trkpt lat="53.403220" lon="-9.294060"><ele>22.822</ele><time>2022-11-17T01:12:10Z</time></trkpt><trkpt lat="53.406400" lon="-9.295430"><ele>24.093</ele><time>2022-11-17T01:12:50Z</time></trkpt><trkpt lat="53.410520" lon="-9.304190"><ele>21.518</ele><time>2022-11-17T01:13:30Z</time></trkpt><trkpt lat="53.410500" lon="-9.307000"><ele>20.298</ele><time>2022-11-17T01:14:10Z</time></trkpt><trkpt lat="53.407680" lon="-9.310040"><ele>19.217</ele><time>2022-11-17T01:14:50Z</time></trkpt><trkpt lat="53.408360" lon="-9.319890"><ele>21.809</ele><time>2022-11-17T01:15:30Z</time></trkpt><trkpt lat="53.412450" lon="-9.330440"><ele>28.222</ele><time>2022-11-17T01:16:10Z</time></trkpt><trkpt lat="53.407710" lon="-9.328040"><ele>59.162</ele><time>2022-11-17T01:16:50Z</time></trkpt><trkpt lat="53.405400" lon="-9.332130"><ele>82.639</ele><time>2022-11-17T01:17:30Z</time></trkpt><trkpt lat="53.398070" lon="-9.331920"><ele>101.148</ele><time>2022-11-17T01:18:10Z</time></trkpt><trkpt lat="53.395170" lon="-9.337380"><ele>132.693</ele><time>2022-11-17T01:18:50Z</time></trkpt><trkpt lat="53.390510" lon="-9.340680"><ele>117.655</ele><time>2022-11-17T01:19:30Z</time></trkpt><trkpt lat="53.389090" lon="-9.351890"><ele>155.588</ele><time>2022-11-17T01:20:10Z</time></trkpt><trkpt lat="53.384510" lon="-9.364590"><ele>180.564</ele><time>2022-11-17T01:20:50Z</time></trkpt><trkpt lat="53.380070" lon="-9.396600"><ele>240.965</ele><time>2022-11-17T01:21:30Z</time></trkpt><trkpt lat="53.377380" lon="-9.398170"><ele>226.687</ele><time>2022-11-17T01:22:10Z</time></trkpt><trkpt lat="53.379130" lon="-9.403240"><ele>207.342</ele><time>2022-11-17T01:22:50Z</time></trkpt><trkpt lat="53.376160" lon="-9.408260"><ele>184.426</ele><time>2022-11-17T01:23:30Z</time></trkpt><trkpt lat="53.365130" lon="-9.413810"><ele>171.909</ele><time>2022-11-17T01:24:10Z</time></trkpt><trkpt lat="53.359080" lon="-9.425500"><ele>147.799</ele><time>2022-11-17T01:24:50Z</time></trkpt><trkpt lat="53.355970" lon="-9.429220"><ele>142.269</ele><time>2022-11-17T01:25:30Z</time></trkpt><trkpt lat="53.352130" lon="-9.430070"><ele>125.796</ele><time>2022-11-17T01:26:10Z</time></trkpt><trkpt lat="53.347160" lon="-9.441890"><ele>88.685</ele><time>2022-11-17T01:26:50Z</time></trkpt><trkpt lat="53.332260" lon="-9.454770"><ele>78.760</ele><time>2022-11-17T01:27:30Z</time></trkpt><trkpt lat="53.323960" lon="-9.455160"><ele>93.282</ele><time>2022-11-17T01:28:10Z</time></trkpt><trkpt lat="53.317250" lon="-9.460300"><ele>91.085</ele><time>2022-11-17T01:28:50Z</time></trkpt><trkpt lat="53.309470" lon="-9.459490"><ele>86.921</ele><time>2022-11-17T01:29:30Z</time></trkpt><trkpt lat="53.304700" lon="-9.467280"><ele>60.742</ele><time>2022-11-17T01:30:10Z</time></trkpt><trkpt lat="53.307940" lon="-9.486130"><ele>37.596</ele><time>2022-11-17T01:30:50Z</time></trkpt><trkpt lat="53.307210" lon="-9.494350"><ele>40.131</ele><time>2022-11-17T01:31:30Z</time></trkpt><trkpt lat="53.297930" lon="-9.493660"><ele>55.524</ele><time>2022-11-17T01:32:10Z</time></trkpt><trkpt lat="53.296670" lon="-9.497190"><ele>64.909</ele><time>2022-11-17T01:32:50Z</time></trkpt><trkpt lat="53.297390" lon="-9.500090"><ele>72.480</ele><time>2022-11-17T01:33:30Z</time></trkpt><trkpt lat="53.289530" lon="-9.511360"><ele>36.920</ele><time>2022-11-17T01:34:10Z</time></trkpt><trkpt lat="53.284900" lon="-9.525120"><ele>23.627</ele><time>2022-11-17T01:34:50Z</time></trkpt><trkpt lat="53.277320" lon="-9.530830"><ele>1.736</ele><time>2022-11-17T01:35:30Z</time></trkpt><trkpt lat="53.277320" lon="-9.530830"><ele>1.731</ele><time>2022-11-17T01:36:10Z</time></trkpt><trkpt lat="53.287510" lon="-9.547920"><ele>2.513</ele><time>2022-11-17T01:36:50Z</time></trkpt><trkpt lat="53.289270" lon="-9.555990"><ele>2.626</ele><time>2022-11-17T01:37:30Z</time></trkpt><trkpt lat="53.294410" lon="-9.562780"><ele>7.962</ele><time>2022-11-17T01:38:10Z</time></trkpt><trkpt lat="53.297500" lon="-9.570510"><ele>5.093</ele><time>2022-11-17T01:38:50Z</time></trkpt><trkpt lat="53.302840" lon="-9.574840"><ele>16.485</ele><time>2022-11-17T01:39:30Z</time></trkpt><trkpt lat="53.305750" lon="-9.575400"><ele>17.789</ele><time>2022-11-17T01:40:10Z</time></trkpt><trkpt lat="53.317670" lon="-9.569600"><ele>4.817</ele><time>2022-11-17T01:40:50Z</time></trkpt><trkpt lat="53.322910" lon="-9.571810"><ele>2.509</ele><time>2022-11-17T01:41:30Z</time></trkpt><trkpt lat="53.336640" lon="-9.567330"><ele>2.119</ele><time>2022-11-17T01:42:10Z</time></trkpt><trkpt lat="53.337740" lon="-9.566010"><ele>5.999</ele><time>2022-11-17T01:42:50Z</time></trkpt><trkpt lat="53.335710" lon="-9.562380"><ele>0.646</ele><time>2022-11-17T01:43:30Z</time></trkpt><trkpt lat="53.336940" lon="-9.559560"><ele>2.625</ele><time>2022-11-17T01:44:10Z</time></trkpt><trkpt lat="53.335840" lon="-9.555940"><ele>18.670</ele><time>2022-11-17T01:44:50Z</time></trkpt><trkpt lat="53.336830" lon="-9.547080"><ele>17.572</ele><time>2022-11-17T01:45:30Z</time></trkpt><trkpt lat="53.349720" lon="-9.542070"><ele>8.065</ele><time>2022-11-17T01:46:10Z</time></trkpt><trkpt lat="53.372000" lon="-9.543790"><ele>3.851</ele><time>2022-11-17T01:46:50Z</time></trkpt><trkpt lat="53.385130" lon="-9.553050"><ele>15.522</ele><time>2022-11-17T01:47:30Z</time></trkpt><trkpt lat="53.383720" lon="-9.567580"><ele>3.042</ele><time>2022-11-17T01:48:10Z</time></trkpt><trkpt lat="53.384420" lon="-9.577830"><ele>3.122</ele><time>2022-11-17T01:48:50Z</time></trkpt><trkpt lat="53.380710" lon="-9.584410"><ele>5.614</ele><time>2022-11-17T01:49:30Z</time></trkpt><trkpt lat="53.381790" lon="-9.594510"><ele>6.909</ele><time>2022-11-17T01:50:10Z</time></trkpt><trkpt lat="53.379940" lon="-9.600430"><ele>10.335</ele><time>2022-11-17T01:50:50Z</time></trkpt><trkpt lat="53.387640" lon="-9.612930"><ele>7.515</ele><time>2022-11-17T01:51:30Z</time></trkpt><trkpt lat="53.390350" lon="-9.625740"><ele>17.442</ele><time>2022-11-17T01:52:10Z</time></trkpt><trkpt lat="53.389430" lon="-9.632600"><ele>7.081</ele><time>2022-11-17T01:52:50Z</time></trkpt><trkpt lat="53.391900" lon="-9.645020"><ele>11.516</ele><time>2022-11-17T01:53:30Z</time></trkpt><trkpt lat="53.390190" lon="-9.649960"><ele>8.078</ele><time>2022-11-17T01:54:10Z</time></trkpt><trkpt lat="53.389780" lon="-9.665190"><ele>11.191</ele><time>2022-11-17T01:54:50Z</time></trkpt><trkpt lat="53.392240" lon="-9.676550"><ele>17.157</ele><time>2022-11-17T01:55:30Z</time></trkpt><trkpt lat="53.391660" lon="-9.680740"><ele>31.858</ele><time>2022-11-17T01:56:10Z</time></trkpt><trkpt lat="53.393340" lon="-9.689420"><ele>53.672</ele><time>2022-11-17T01:56:50Z</time></trkpt><trkpt lat="53.397080" lon="-9.692220"><ele>58.013</ele><time>2022-11-17T01:57:30Z</time></trkpt><trkpt lat="53.394860" lon="-9.700370"><ele>70.814</ele><time>2022-11-17T01:58:10Z</time></trkpt><trkpt lat="53.401110" lon="-9.725730"><ele>42.009</ele><time>2022-11-17T01:58:50Z</time></trkpt><trkpt lat="53.405480" lon="-9.726480"><ele>40.588</ele><time>2022-11-17T01:59:30Z</time></trkpt><trkpt lat="53.409550" lon="-9.751300"><ele>20.968</ele><time>2022-11-17T02:00:10Z</time></trkpt><trkpt lat="53.408400" lon="-9.757380"><ele>17.035</ele><time>2022-11-17T02:00:50Z</time></trkpt><trkpt lat="53.410300" lon="-9.774400"><ele>22.064</ele><time>2022-11-17T02:01:30Z</time></trkpt><trkpt lat="53.411900" lon="-9.778530"><ele>19.399</ele><time>2022-11-17T02:02:10Z</time></trkpt><trkpt lat="53.416820" lon="-9.778130"><ele>21.671</ele><time>2022-11-17T02:02:50Z</time></trkpt><trkpt lat="53.415460" lon="-9.783120"><ele>19.054</ele><time>2022-11-17T02:03:30Z</time></trkpt><trkpt lat="53.415260" lon="-9.795720"><ele>14.580</ele><time>2022-11-17T02:04:10Z</time></trkpt><trkpt lat="53.418560" lon="-9.801890"><ele>7.861</ele><time>2022-11-17T02:04:50Z</time></trkpt><trkpt lat="53.418800" lon="-9.821910"><ele>9.124</ele><time>2022-11-17T02:05:30Z</time></trkpt><trkpt lat="53.422570" lon="-9.827010"><ele>8.804</ele><time>2022-11-17T02:06:10Z</time></trkpt><trkpt lat="53.425750" lon="-9.826880"><ele>3.314</ele><time>2022-11-17T02:06:50Z</time></trkpt><trkpt lat="53.426850" lon="-9.834830"><ele>5.409</ele><time>2022-11-17T02:07:30Z</time></trkpt><trkpt lat="53.430580" lon="-9.838280"><ele>2.243</ele><time>2022-11-17T02:08:10Z</time></trkpt><trkpt lat="53.429740" lon="-9.843720"><ele>4.233</ele><time>2022-11-17T02:08:50Z</time></trkpt><trkpt lat="53.431590" lon="-9.850750"><ele>3.250</ele><time>2022-11-17T02:09:30Z</time></trkpt><trkpt lat="53.434170" lon="-9.852310"><ele>8.429</ele><time>2022-11-17T02:10:10Z</time></trkpt><trkpt lat="53.433400" lon="-9.861040"><ele>3.774</ele><time>2022-11-17T02:10:50Z</time></trkpt><trkpt lat="53.436950" lon="-9.869730"><ele>5.036</ele><time>2022-11-17T02:11:30Z</time></trkpt><trkpt lat="53.435730" lon="-9.871510"><ele>2.719</ele><time>2022-11-17T02:12:10Z</time></trkpt><trkpt lat="53.435890" lon="-9.883900"><ele>17.665</ele><time>2022-11-17T02:12:50Z</time></trkpt><trkpt lat="53.434210" lon="-9.892790"><ele>26.176</ele><time>2022-11-17T02:13:30Z</time></trkpt><trkpt lat="53.435250" lon="-9.907490"><ele>23.067</ele><time>2022-11-17T02:14:10Z</time></trkpt><trkpt lat="53.445660" lon="-9.935300"><ele>25.081</ele><time>2022-11-17T02:14:50Z</time></trkpt><trkpt lat="53.449980" lon="-9.941020"><ele>27.919</ele><time>2022-11-17T02:15:30Z</time></trkpt><trkpt lat="53.452740" lon="-9.949100"><ele>32.109</ele><time>2022-11-17T02:16:10Z</time></trkpt><trkpt lat="53.454960" lon="-9.950350"><ele>22.757</ele><time>2022-11-17T02:16:50Z</time></trkpt><trkpt lat="53.456570" lon="-9.961900"><ele>20.897</ele><time>2022-11-17T02:17:30Z</time></trkpt><trkpt lat="53.455310" lon="-9.976260"><ele>19.074</ele><time>2022-11-17T02:18:10Z</time></trkpt><trkpt lat="53.457250" lon="-9.984690"><ele>16.033</ele><time>2022-11-17T02:18:50Z</time></trkpt><trkpt lat="53.460360" lon="-9.986940"><ele>14.788</ele><time>2022-11-17T02:19:30Z</time></trkpt><trkpt lat="53.461680" lon="-9.991870"><ele>14.070</ele><time>2022-11-17T02:20:10Z</time></trkpt><trkpt lat="53.463580" lon="-10.016830"><ele>9.313</ele><time>2022-11-17T02:20:50Z</time></trkpt><trkpt lat="53.479400" lon="-10.020090"><ele>19.179</ele><time>2022-11-17T02:21:30Z</time></trkpt><trkpt lat="53.485360" lon="-10.024470"><ele>10.560</ele><time>2022-11-17T02:22:10Z</time></trkpt><trkpt lat="53.486760" lon="-10.019000"><ele>14.547</ele><time>2022-11-17T02:22:50Z</time></trkpt><trkpt lat="53.488820" lon="-10.021750"><ele>27.229</ele><time>2022-11-17T02:23:30Z</time></trkpt><trkpt lat="53.488820" lon="-10.021750"><ele>27.221</ele><time>2022-11-17T02:24:10Z</time></trkpt><trkpt lat="53.488130" lon="-10.039760"><ele>62.109</ele><time>2022-11-17T02:24:50Z</time></trkpt><trkpt lat="53.493540" lon="-10.052290"><ele>85.065</ele><time>2022-11-17T02:25:30Z</time></trkpt><trkpt lat="53.495440" lon="-10.076360"><ele>93.995</ele><time>2022-11-17T02:26:10Z</time></trkpt><trkpt lat="53.500770" lon="-10.096160"><ele>109.042</ele><time>2022-11-17T02:26:50Z</time></trkpt><trkpt lat="53.507700" lon="-10.112110"><ele>49.141</ele><time>2022-11-17T02:27:30Z</time></trkpt><trkpt lat="53.508870" lon="-10.113710"><ele>34.426</ele><time>2022-11-17T02:28:10Z</time></trkpt><trkpt lat="53.511450" lon="-10.112230"><ele>15.148</ele><time>2022-11-17T02:28:50Z</time></trkpt><trkpt lat="53.511040" lon="-10.100660"><ele>15.961</ele><time>2022-11-17T02:29:30Z</time></trkpt><trkpt lat="53.506370" lon="-10.087320"><ele>14.357</ele><time>2022-11-17T02:30:10Z</time></trkpt><trkpt lat="53.505820" lon="-10.074780"><ele>9.718</ele><time>2022-11-17T02:30:50Z</time></trkpt><trkpt lat="53.502730" lon="-10.061680"><ele>9.732</ele><time>2022-11-17T02:31:30Z</time></trkpt><trkpt lat="53.503120" lon="-10.055150"><ele>6.992</ele><time>2022-11-17T02:32:10Z</time></trkpt><trkpt lat="53.505360" lon="-10.050740"><ele>1.111</ele><time>2022-11-17T02:32:50Z</time></trkpt><trkpt lat="53.505770" lon="-10.040170"><ele>7.209</ele><time>2022-11-17T02:33:30Z</time></trkpt><trkpt lat="53.511210" lon="-10.040550"><ele>15.724</ele><time>2022-11-17T02:34:10Z</time></trkpt><trkpt lat="53.512160" lon="-10.055150"><ele>3.664</ele><time>2022-11-17T02:34:50Z</time></trkpt><trkpt lat="53.510750" lon="-10.063200"><ele>8.831</ele><time>2022-11-17T02:35:30Z</time></trkpt><trkpt lat="53.514490" lon="-10.071950"><ele>5.090</ele><time>2022-11-17T02:36:10Z</time></trkpt><trkpt lat="53.519690" lon="-10.093350"><ele>26.695</ele><time>2022-11-17T02:36:50Z</time></trkpt><trkpt lat="53.524890" lon="-10.127410"><ele>17.187</ele><time>2022-11-17T02:37:30Z</time></trkpt><trkpt lat="53.534200" lon="-10.131030"><ele>15.270</ele><time>2022-11-17T02:38:10Z</time></trkpt><trkpt lat="53.537460" lon="-10.135980"><ele>24.546</ele><time>2022-11-17T02:38:50Z</time></trkpt><trkpt lat="53.543020" lon="-10.137200"><ele>20.917</ele><time>2022-11-17T02:39:30Z</time></trkpt><trkpt lat="53.544880" lon="-10.144080"><ele>15.621</ele><time>2022-11-17T02:40:10Z</time></trkpt><trkpt lat="53.543400" lon="-10.150460"><ele>15.741</ele><time>2022-11-17T02:40:50Z</time></trkpt><trkpt lat="53.545640" lon="-10.172000"><ele>26.005</ele><time>2022-11-17T02:41:30Z</time></trkpt><trkpt lat="53.547740" lon="-10.181520"><ele>19.109</ele><time>2022-11-17T02:42:10Z</time></trkpt><trkpt lat="53.552720" lon="-10.185680"><ele>7.293</ele><time>2022-11-17T02:42:50Z</time></trkpt><trkpt lat="53.556300" lon="-10.181890"><ele>15.373</ele><time>2022-11-17T02:43:30Z</time></trkpt><trkpt lat="53.559180" lon="-10.174280"><ele>9.080</ele><time>2022-11-17T02:44:10Z</time></trkpt><trkpt lat="53.556790" lon="-10.160380"><ele>2.399</ele><time>2022-11-17T02:44:50Z</time></trkpt><trkpt lat="53.552260" lon="-10.163710"><ele>12.284</ele><time>2022-11-17T02:45:30Z</time></trkpt><trkpt lat="53.550870" lon="-10.161320"><ele>17.096</ele><time>2022-11-17T02:46:10Z</time></trkpt><trkpt lat="53.552220" lon="-10.145780"><ele>8.839</ele><time>2022-11-17T02:46:50Z</time></trkpt><trkpt lat="53.554730" lon="-10.139720"><ele>26.195</ele><time>2022-11-17T02:47:30Z</time></trkpt><trkpt lat="53.553900" lon="-10.127530"><ele>11.096</ele><time>2022-11-17T02:48:10Z</time></trkpt><trkpt lat="53.556560" lon="-10.111970"><ele>5.262</ele><time>2022-11-17T02:48:50Z</time></trkpt><trkpt lat="53.556560" lon="-10.111970"><ele>5.283</ele><time>2022-11-17T02:49:30Z</time></trkpt><trkpt lat="53.553940" lon="-10.095750"><ele>0.011</ele><time>2022-11-17T02:50:10Z</time></trkpt><trkpt lat="53.557300" lon="-10.092000"><ele>4.709</ele><time>2022-11-17T02:50:50Z</time></trkpt><trkpt lat="53.557950" lon="-10.074000"><ele>17.617</ele><time>2022-11-17T02:51:30Z</time></trkpt><trkpt lat="53.560990" lon="-10.066270"><ele>11.747</ele><time>2022-11-17T02:52:10Z</time></trkpt><trkpt lat="53.556390" lon="-10.034810"><ele>20.764</ele><time>2022-11-17T02:52:50Z</time></trkpt><trkpt lat="53.552720" lon="-10.032250"><ele>16.143</ele><time>2022-11-17T02:53:30Z</time></trkpt><trkpt lat="53.545690" lon="-10.018210"><ele>22.028</ele><time>2022-11-17T02:54:10Z</time></trkpt><trkpt lat="53.543600" lon="-10.004870"><ele>18.030</ele><time>2022-11-17T02:54:50Z</time></trkpt><trkpt lat="53.543380" lon="-9.982870"><ele>11.333</ele><time>2022-11-17T02:55:30Z</time></trkpt><trkpt lat="53.544550" lon="-9.974280"><ele>22.239</ele><time>2022-11-17T02:56:10Z</time></trkpt><trkpt lat="53.550050" lon="-9.968450"><ele>7.530</ele><time>2022-11-17T02:56:50Z</time></trkpt><trkpt lat="53.551300" lon="-9.955560"><ele>13.381</ele><time>2022-11-17T02:57:30Z</time></trkpt><trkpt lat="53.553610" lon="-9.948330"><ele>36.061</ele><time>2022-11-17T02:58:10Z</time></trkpt><trkpt lat="53.558020" lon="-9.957470"><ele>36.417</ele><time>2022-11-17T02:58:50Z</time></trkpt><trkpt lat="53.561750" lon="-9.961080"><ele>23.009</ele><time>2022-11-17T02:59:30Z</time></trkpt><trkpt lat="53.569310" lon="-9.959670"><ele>10.359</ele><time>2022-11-17T03:00:10Z</time></trkpt><trkpt lat="53.588460" lon="-9.963200"><ele>54.579</ele><time>2022-11-17T03:00:50Z</time></trkpt><trkpt lat="53.589740" lon="-9.958710"><ele>47.416</ele><time>2022-11-17T03:01:30Z</time></trkpt><trkpt lat="53.591670" lon="-9.957660"><ele>44.065</ele><time>2022-11-17T03:02:10Z</time></trkpt><trkpt lat="53.593100" lon="-9.949020"><ele>50.170</ele><time>2022-11-17T03:02:50Z</time></trkpt><trkpt lat="53.596300" lon="-9.946350"><ele>29.822</ele><time>2022-11-17T03:03:30Z</time></trkpt><trkpt lat="53.597420" lon="-9.938610"><ele>37.215</ele><time>2022-11-17T03:04:10Z</time></trkpt><trkpt lat="53.595770" lon="-9.926350"><ele>41.871</ele><time>2022-11-17T03:04:50Z</time></trkpt><trkpt lat="53.597430" lon="-9.921660"><ele>40.012</ele><time>2022-11-17T03:05:30Z</time></trkpt><trkpt lat="53.597050" lon="-9.914690"><ele>35.094</ele><time>2022-11-17T03:06:10Z</time></trkpt><trkpt lat="53.600650" lon="-9.904670"><ele>17.757</ele><time>2022-11-17T03:06:50Z</time></trkpt><trkpt lat="53.605400" lon="-9.898490"><ele>14.622</ele><time>2022-11-17T03:07:30Z</time></trkpt><trkpt lat="53.606420" lon="-9.887720"><ele>7.509</ele><time>2022-11-17T03:08:10Z</time></trkpt><trkpt lat="53.608970" lon="-9.882480"><ele>19.990</ele><time>2022-11-17T03:08:50Z</time></trkpt><trkpt lat="53.604640" lon="-9.860320"><ele>45.430</ele><time>2022-11-17T03:09:30Z</time></trkpt><trkpt lat="53.594760" lon="-9.844780"><ele>49.487</ele><time>2022-11-17T03:10:10Z</time></trkpt><trkpt lat="53.593550" lon="-9.833220"><ele>56.166</ele><time>2022-11-17T03:10:50Z</time></trkpt><trkpt lat="53.586890" lon="-9.818260"><ele>48.261</ele><time>2022-11-17T03:11:30Z</time></trkpt><trkpt lat="53.581460" lon="-9.783820"><ele>69.093</ele><time>2022-11-17T03:12:10Z</time></trkpt><trkpt lat="53.587270" lon="-9.772410"><ele>67.356</ele><time>2022-11-17T03:12:50Z</time></trkpt><trkpt lat="53.594580" lon="-9.767930"><ele>44.562</ele><time>2022-11-17T03:13:30Z</time></trkpt><trkpt lat="53.598440" lon="-9.752820"><ele>6.593</ele><time>2022-11-17T03:14:10Z</time></trkpt><trkpt lat="53.599930" lon="-9.731000"><ele>7.033</ele><time>2022-11-17T03:14:50Z</time></trkpt><trkpt lat="53.596460" lon="-9.708370"><ele>5.023</ele><time>2022-11-17T03:15:30Z</time></trkpt><trkpt lat="53.594300" lon="-9.702510"><ele>4.615</ele><time>2022-11-17T03:16:10Z</time></trkpt><trkpt lat="53.596030" lon="-9.698370"><ele>1.509</ele><time>2022-11-17T03:16:50Z</time></trkpt><trkpt lat="53.595760" lon="-9.694460"><ele>6.324</ele><time>2022-11-17T03:17:30Z</time></trkpt><trkpt lat="53.595760" lon="-9.694460"><ele>6.384</ele><time>2022-11-17T03:18:10Z</time></trkpt><trkpt lat="53.603430" lon="-9.690590"><ele>16.031</ele><time>2022-11-17T03:18:50Z</time></trkpt><trkpt lat="53.606200" lon="-9.686730"><ele>23.440</ele><time>2022-11-17T03:19:30Z</time></trkpt><trkpt lat="53.609060" lon="-9.678730"><ele>22.255</ele><time>2022-11-17T03:20:10Z</time></trkpt><trkpt lat="53.606710" lon="-9.673850"><ele>7.367</ele><time>2022-11-17T03:20:50Z</time></trkpt><trkpt lat="53.607060" lon="-9.671560"><ele>6.560</ele><time>2022-11-17T03:21:30Z</time></trkpt><trkpt lat="53.613510" lon="-9.668530"><ele>17.156</ele><time>2022-11-17T03:22:10Z</time></trkpt><trkpt lat="53.617760" lon="-9.670720"><ele>17.027</ele><time>2022-11-17T03:22:50Z</time></trkpt><trkpt lat="53.617990" lon="-9.672660"><ele>12.386</ele><time>2022-11-17T03:23:30Z</time></trkpt><trkpt lat="53.611210" lon="-9.680400"><ele>6.760</ele><time>2022-11-17T03:24:10Z</time></trkpt><trkpt lat="53.604690" lon="-9.698660"><ele>19.526</ele><time>2022-11-17T03:24:50Z</time></trkpt><trkpt lat="53.603590" lon="-9.735210"><ele>25.409</ele><time>2022-11-17T03:25:30Z</time></trkpt><trkpt lat="53.607460" lon="-9.750980"><ele>5.179</ele><time>2022-11-17T03:26:10Z</time></trkpt><trkpt lat="53.622160" lon="-9.753870"><ele>29.059</ele><time>2022-11-17T03:26:50Z</time></trkpt><trkpt lat="53.631870" lon="-9.746330"><ele>44.536</ele><time>2022-11-17T03:27:30Z</time></trkpt><trkpt lat="53.638460" lon="-9.744940"><ele>34.975</ele><time>2022-11-17T03:28:10Z</time></trkpt><trkpt lat="53.642680" lon="-9.746840"><ele>33.250</ele><time>2022-11-17T03:28:50Z</time></trkpt><trkpt lat="53.644120" lon="-9.744150"><ele>34.242</ele><time>2022-11-17T03:29:30Z</time></trkpt><trkpt lat="53.646010" lon="-9.726300"><ele>46.095</ele><time>2022-11-17T03:30:10Z</time></trkpt><trkpt lat="53.645220" lon="-9.704500"><ele>69.261</ele><time>2022-11-17T03:30:50Z</time></trkpt><trkpt lat="53.642870" lon="-9.695060"><ele>78.782</ele><time>2022-11-17T03:31:30Z</time></trkpt><trkpt lat="53.643150" lon="-9.681930"><ele>90.472</ele><time>2022-11-17T03:32:10Z</time></trkpt><trkpt lat="53.650490" lon="-9.642820"><ele>143.413</ele><time>2022-11-17T03:32:50Z</time></trkpt><trkpt lat="53.656140" lon="-9.632590"><ele>197.114</ele><time>2022-11-17T03:33:30Z</time></trkpt><trkpt lat="53.659420" lon="-9.639650"><ele>162.809</ele><time>2022-11-17T03:34:10Z</time></trkpt><trkpt lat="53.662830" lon="-9.642140"><ele>123.378</ele><time>2022-11-17T03:34:50Z</time></trkpt><trkpt lat="53.671330" lon="-9.624300"><ele>93.838</ele><time>2022-11-17T03:35:30Z</time></trkpt><trkpt lat="53.678970" lon="-9.615950"><ele>87.645</ele><time>2022-11-17T03:36:10Z</time></trkpt><trkpt lat="53.700330" lon="-9.607200"><ele>68.214</ele><time>2022-11-17T03:36:50Z</time></trkpt><trkpt lat="53.702460" lon="-9.602530"><ele>76.779</ele><time>2022-11-17T03:37:30Z</time></trkpt><trkpt lat="53.707950" lon="-9.599580"><ele>83.141</ele><time>2022-11-17T03:38:10Z</time></trkpt><trkpt lat="53.716080" lon="-9.590700"><ele>113.234</ele><time>2022-11-17T03:38:50Z</time></trkpt><trkpt lat="53.719480" lon="-9.583810"><ele>122.740</ele><time>2022-11-17T03:39:30Z</time></trkpt><trkpt lat="53.724230" lon="-9.583600"><ele>125.361</ele><time>2022-11-17T03:40:10Z</time></trkpt><trkpt lat="53.732480" lon="-9.570260"><ele>117.992</ele><time>2022-11-17T03:40:50Z</time></trkpt><trkpt lat="53.736520" lon="-9.556570"><ele>97.473</ele><time>2022-11-17T03:41:30Z</time></trkpt><trkpt lat="53.740510" lon="-9.552250"><ele>89.820</ele><time>2022-11-17T03:42:10Z</time></trkpt><trkpt lat="53.748180" lon="-9.553680"><ele>105.209</ele><time>2022-11-17T03:42:50Z</time></trkpt><trkpt lat="53.748070" lon="-9.557370"><ele>81.520</ele><time>2022-11-17T03:43:30Z</time></trkpt><trkpt lat="53.752890" lon="-9.556420"><ele>86.050</ele><time>2022-11-17T03:44:10Z</time></trkpt><trkpt lat="53.752970" lon="-9.561230"><ele>87.217</ele><time>2022-11-17T03:44:50Z</time></trkpt><trkpt lat="53.760960" lon="-9.569510"><ele>85.036</ele><time>2022-11-17T03:45:30Z</time></trkpt><trkpt lat="53.762970" lon="-9.569840"><ele>83.191</ele><time>2022-11-17T03:46:10Z</time></trkpt><trkpt lat="53.768590" lon="-9.563830"><ele>56.013</ele><time>2022-11-17T03:46:50Z</time></trkpt><trkpt lat="53.772820" lon="-9.565440"><ele>48.186</ele><time>2022-11-17T03:47:30Z</time></trkpt><trkpt lat="53.775060" lon="-9.561490"><ele>18.442</ele><time>2022-11-17T03:48:10Z</time></trkpt><trkpt lat="53.779040" lon="-9.563850"><ele>26.743</ele><time>2022-11-17T03:48:50Z</time></trkpt><trkpt lat="53.781920" lon="-9.561780"><ele>21.998</ele><time>2022-11-17T03:49:30Z</time></trkpt><trkpt lat="53.791340" lon="-9.543380"><ele>35.515</ele><time>2022-11-17T03:50:10Z</time></trkpt><trkpt lat="53.796130" lon="-9.523460"><ele>41.126</ele><time>2022-11-17T03:50:50Z</time></trkpt><trkpt lat="53.799400" lon="-9.516970"><ele>20.109</ele><time>2022-11-17T03:51:30Z</time></trkpt><trkpt lat="53.799760" lon="-9.510710"><ele>33.070</ele><time>2022-11-17T03:52:10Z</time></trkpt><trkpt lat="53.802870" lon="-9.510770"><ele>40.930</ele><time>2022-11-17T03:52:50Z</time></trkpt><trkpt lat="53.803820" lon="-9.506470"><ele>53.217</ele><time>2022-11-17T03:53:30Z</time></trkpt><trkpt lat="53.809390" lon="-9.502610"><ele>52.376</ele><time>2022-11-17T03:54:10Z</time></trkpt><trkpt lat="53.810990" lon="-9.504730"><ele>56.741</ele><time>2022-11-17T03:54:50Z</time></trkpt><trkpt lat="53.809840" lon="-9.506730"><ele>55.353</ele><time>2022-11-17T03:55:30Z</time></trkpt><trkpt lat="53.813020" lon="-9.535500"><ele>43.386</ele><time>2022-11-17T03:56:10Z</time></trkpt><trkpt lat="53.815620" lon="-9.537160"><ele>28.312</ele><time>2022-11-17T03:56:50Z</time></trkpt><trkpt lat="53.820990" lon="-9.535380"><ele>33.463</ele><time>2022-11-17T03:57:30Z</time></trkpt><trkpt lat="53.833260" lon="-9.554060"><ele>11.771</ele><time>2022-11-17T03:58:10Z</time></trkpt><trkpt lat="53.848020" lon="-9.549650"><ele>5.141</ele><time>2022-11-17T03:58:50Z</time></trkpt><trkpt lat="53.853790" lon="-9.545610"><ele>0.815</ele><time>2022-11-17T03:59:30Z</time></trkpt><trkpt lat="53.854810" lon="-9.540880"><ele>3.009</ele><time>2022-11-17T04:00:10Z</time></trkpt><trkpt lat="53.862010" lon="-9.546030"><ele>7.198</ele><time>2022-11-17T04:00:50Z</time></trkpt><trkpt lat="53.864420" lon="-9.543860"><ele>10.228</ele><time>2022-11-17T04:01:30Z</time></trkpt><trkpt lat="53.866920" lon="-9.536800"><ele>7.945</ele><time>2022-11-17T04:02:10Z</time></trkpt><trkpt lat="53.869920" lon="-9.535600"><ele>9.294</ele><time>2022-11-17T04:02:50Z</time></trkpt><trkpt lat="53.874280" lon="-9.538970"><ele>11.969</ele><time>2022-11-17T04:03:30Z</time></trkpt><trkpt lat="53.878880" lon="-9.548330"><ele>15.041</ele><time>2022-11-17T04:04:10Z</time></trkpt><trkpt lat="53.882320" lon="-9.548840"><ele>13.554</ele><time>2022-11-17T04:04:50Z</time></trkpt><trkpt lat="53.883530" lon="-9.545790"><ele>4.140</ele><time>2022-11-17T04:05:30Z</time></trkpt><trkpt lat="53.887190" lon="-9.544610"><ele>5.581</ele><time>2022-11-17T04:06:10Z</time></trkpt><trkpt lat="53.892850" lon="-9.547870"><ele>15.335</ele><time>2022-11-17T04:06:50Z</time></trkpt><trkpt lat="53.904300" lon="-9.573170"><ele>5.886</ele><time>2022-11-17T04:07:30Z</time></trkpt><trkpt lat="53.903450" lon="-9.575370"><ele>9.114</ele><time>2022-11-17T04:08:10Z</time></trkpt><trkpt lat="53.907170" lon="-9.588060"><ele>7.909</ele><time>2022-11-17T04:08:50Z</time></trkpt><trkpt lat="53.906440" lon="-9.601010"><ele>16.744</ele><time>2022-11-17T04:09:30Z</time></trkpt><trkpt lat="53.908150" lon="-9.606170"><ele>22.084</ele><time>2022-11-17T04:10:10Z</time></trkpt><trkpt lat="53.910190" lon="-9.607500"><ele>23.361</ele><time>2022-11-17T04:10:50Z</time></trkpt><trkpt lat="53.908640" lon="-9.611170"><ele>21.050</ele><time>2022-11-17T04:11:30Z</time></trkpt><trkpt lat="53.910550" lon="-9.629050"><ele>36.595</ele><time>2022-11-17T04:12:10Z</time></trkpt><trkpt lat="53.907210" lon="-9.659540"><ele>23.667</ele><time>2022-11-17T04:12:50Z</time></trkpt><trkpt lat="53.909580" lon="-9.670930"><ele>24.550</ele><time>2022-11-17T04:13:30Z</time></trkpt><trkpt lat="53.908050" lon="-9.681120"><ele>18.026</ele><time>2022-11-17T04:14:10Z</time></trkpt><trkpt lat="53.909350" lon="-9.691970"><ele>22.157</ele><time>2022-11-17T04:14:50Z</time></trkpt><trkpt lat="53.908590" lon="-9.706860"><ele>32.857</ele><time>2022-11-17T04:15:30Z</time></trkpt><trkpt lat="53.906810" lon="-9.716200"><ele>40.400</ele><time>2022-11-17T04:16:10Z</time></trkpt><trkpt lat="53.909010" lon="-9.726910"><ele>47.620</ele><time>2022-11-17T04:16:50Z</time></trkpt><trkpt lat="53.909880" lon="-9.725930"><ele>52.609</ele><time>2022-11-17T04:17:30Z</time></trkpt><trkpt lat="53.911540" lon="-9.729170"><ele>70.256</ele><time>2022-11-17T04:18:10Z</time></trkpt><trkpt lat="53.909250" lon="-9.752300"><ele>63.186</ele><time>2022-11-17T04:18:50Z</time></trkpt><trkpt lat="53.909550" lon="-9.769100"><ele>45.763</ele><time>2022-11-17T04:19:30Z</time></trkpt><trkpt lat="53.907400" lon="-9.774370"><ele>33.982</ele><time>2022-11-17T04:20:10Z</time></trkpt><trkpt lat="53.907400" lon="-9.774370"><ele>33.957</ele><time>2022-11-17T04:20:50Z</time></trkpt><trkpt lat="53.906650" lon="-9.780230"><ele>38.659</ele><time>2022-11-17T04:21:30Z</time></trkpt><trkpt lat="53.908993" lon="-9.790700"><ele>39.062</ele><time>2022-11-17T04:22:10Z</time></trkpt><trkpt lat="53.911390" lon="-9.789900"><ele>11.728</ele><time>2022-11-17T04:22:50Z</time></trkpt><trkpt lat="53.913900" lon="-9.793790"><ele>6.899</ele><time>2022-11-17T04:23:30Z</time></trkpt><trkpt lat="53.919010" lon="-9.795400"><ele>2.182</ele><time>2022-11-17T04:24:10Z</time></trkpt><trkpt lat="53.925250" lon="-9.790430"><ele>7.043</ele><time>2022-11-17T04:24:50Z</time></trkpt><trkpt lat="53.934340" lon="-9.792270"><ele>7.917</ele><time>2022-11-17T04:25:30Z</time></trkpt><trkpt lat="53.947080" lon="-9.787990"><ele>3.209</ele><time>2022-11-17T04:26:10Z</time></trkpt><trkpt lat="53.962210" lon="-9.796160"><ele>5.019</ele><time>2022-11-17T04:26:50Z</time></trkpt><trkpt lat="53.975450" lon="-9.794670"><ele>6.219</ele><time>2022-11-17T04:27:30Z</time></trkpt><trkpt lat="53.977470" lon="-9.813480"><ele>5.186</ele><time>2022-11-17T04:28:10Z</time></trkpt><trkpt lat="53.986010" lon="-9.821440"><ele>18.725</ele><time>2022-11-17T04:28:50Z</time></trkpt><trkpt lat="53.995360" lon="-9.822080"><ele>20.320</ele><time>2022-11-17T04:29:30Z</time></trkpt><trkpt lat="54.001050" lon="-9.831020"><ele>14.712</ele><time>2022-11-17T04:30:10Z</time></trkpt><trkpt lat="54.007700" lon="-9.847470"><ele>5.875</ele><time>2022-11-17T04:30:50Z</time></trkpt><trkpt lat="54.015410" lon="-9.848670"><ele>3.061</ele><time>2022-11-17T04:31:30Z</time></trkpt><trkpt lat="54.018760" lon="-9.840560"><ele>16.052</ele><time>2022-11-17T04:32:10Z</time></trkpt><trkpt lat="54.020450" lon="-9.849140"><ele>12.771</ele><time>2022-11-17T04:32:50Z</time></trkpt><trkpt lat="54.038130" lon="-9.871250"><ele>21.641</ele><time>2022-11-17T04:33:30Z</time></trkpt><trkpt lat="54.045060" lon="-9.876500"><ele>19.215</ele><time>2022-11-17T04:34:10Z</time></trkpt><trkpt lat="54.061180" lon="-9.832020"><ele>15.809</ele><time>2022-11-17T04:34:50Z</time></trkpt><trkpt lat="54.069860" lon="-9.833490"><ele>10.028</ele><time>2022-11-17T04:35:30Z</time></trkpt><trkpt lat="54.071640" lon="-9.831630"><ele>9.778</ele><time>2022-11-17T04:36:10Z</time></trkpt><trkpt lat="54.087080" lon="-9.781420"><ele>41.525</ele><time>2022-11-17T04:36:50Z</time></trkpt><trkpt lat="54.093710" lon="-9.765940"><ele>36.614</ele><time>2022-11-17T04:37:30Z</time></trkpt><trkpt lat="54.099130" lon="-9.765830"><ele>26.069</ele><time>2022-11-17T04:38:10Z</time></trkpt><trkpt lat="54.118010" lon="-9.754350"><ele>29.551</ele><time>2022-11-17T04:38:50Z</time></trkpt><trkpt lat="54.133040" lon="-9.756780"><ele>22.664</ele><time>2022-11-17T04:39:30Z</time></trkpt><trkpt lat="54.139360" lon="-9.742970"><ele>24.310</ele><time>2022-11-17T04:40:10Z</time></trkpt><trkpt lat="54.141770" lon="-9.740810"><ele>23.041</ele><time>2022-11-17T04:40:50Z</time></trkpt><trkpt lat="54.144650" lon="-9.742850"><ele>31.324</ele><time>2022-11-17T04:41:30Z</time></trkpt><trkpt lat="54.146250" lon="-9.747700"><ele>33.604</ele><time>2022-11-17T04:42:10Z</time></trkpt><trkpt lat="54.142960" lon="-9.768020"><ele>16.614</ele><time>2022-11-17T04:42:50Z</time></trkpt><trkpt lat="54.146420" lon="-9.787600"><ele>9.109</ele><time>2022-11-17T04:43:30Z</time></trkpt><trkpt lat="54.145640" lon="-9.804730"><ele>9.643</ele><time>2022-11-17T04:44:10Z</time></trkpt><trkpt lat="54.139270" lon="-9.817580"><ele>5.453</ele><time>2022-11-17T04:44:50Z</time></trkpt><trkpt lat="54.130320" lon="-9.828810"><ele>9.390</ele><time>2022-11-17T04:45:30Z</time></trkpt><trkpt lat="54.126810" lon="-9.844870"><ele>17.039</ele><time>2022-11-17T04:46:10Z</time></trkpt><trkpt lat="54.126730" lon="-9.855750"><ele>15.534</ele><time>2022-11-17T04:46:50Z</time></trkpt><trkpt lat="54.123490" lon="-9.874200"><ele>6.726</ele><time>2022-11-17T04:47:30Z</time></trkpt><trkpt lat="54.115760" lon="-9.892140"><ele>3.029</ele><time>2022-11-17T04:48:10Z</time></trkpt><trkpt lat="54.123190" lon="-9.902530"><ele>8.575</ele><time>2022-11-17T04:48:50Z</time></trkpt><trkpt lat="54.128820" lon="-9.901570"><ele>7.096</ele><time>2022-11-17T04:49:30Z</time></trkpt><trkpt lat="54.137550" lon="-9.905550"><ele>26.248</ele><time>2022-11-17T04:50:10Z</time></trkpt><trkpt lat="54.143480" lon="-9.915030"><ele>12.561</ele><time>2022-11-17T04:50:50Z</time></trkpt><trkpt lat="54.150340" lon="-9.920880"><ele>5.817</ele><time>2022-11-17T04:51:30Z</time></trkpt><trkpt lat="54.156520" lon="-9.914300"><ele>7.009</ele><time>2022-11-17T04:52:10Z</time></trkpt><trkpt lat="54.164420" lon="-9.919030"><ele>12.465</ele><time>2022-11-17T04:52:50Z</time></trkpt><trkpt lat="54.173560" lon="-9.915480"><ele>34.975</ele><time>2022-11-17T04:53:30Z</time></trkpt><trkpt lat="54.180000" lon="-9.909160"><ele>29.092</ele><time>2022-11-17T04:54:10Z</time></trkpt><trkpt lat="54.192010" lon="-9.905620"><ele>30.031</ele><time>2022-11-17T04:54:50Z</time></trkpt><trkpt lat="54.198570" lon="-9.911110"><ele>10.026</ele><time>2022-11-17T04:55:30Z</time></trkpt><trkpt lat="54.201110" lon="-9.915800"><ele>2.928</ele><time>2022-11-17T04:56:10Z</time></trkpt><trkpt lat="54.197770" lon="-9.935950"><ele>18.021</ele><time>2022-11-17T04:56:50Z</time></trkpt><trkpt lat="54.202030" lon="-9.952140"><ele>25.697</ele><time>2022-11-17T04:57:30Z</time></trkpt><trkpt lat="54.218410" lon="-9.983650"><ele>23.428</ele><time>2022-11-17T04:58:10Z</time></trkpt><trkpt lat="54.216330" lon="-9.989120"><ele>2.314</ele><time>2022-11-17T04:58:50Z</time></trkpt><trkpt lat="54.223550" lon="-9.991950"><ele>1.854</ele><time>2022-11-17T04:59:30Z</time></trkpt><trkpt lat="54.223810" lon="-9.987480"><ele>9.309</ele><time>2022-11-17T05:00:10Z</time></trkpt><trkpt lat="54.223810" lon="-9.987480"><ele>9.309</ele><time>2022-11-17T05:00:50Z</time></trkpt><trkpt lat="54.212820" lon="-9.958240"><ele>23.572</ele><time>2022-11-17T05:01:30Z</time></trkpt><trkpt lat="54.206920" lon="-9.930390"><ele>32.012</ele><time>2022-11-17T05:02:10Z</time></trkpt><trkpt lat="54.208490" lon="-9.898490"><ele>17.179</ele><time>2022-11-17T05:02:50Z</time></trkpt><trkpt lat="54.212610" lon="-9.872770"><ele>19.498</ele><time>2022-11-17T05:03:30Z</time></trkpt><trkpt lat="54.217400" lon="-9.858440"><ele>13.793</ele><time>2022-11-17T05:04:10Z</time></trkpt><trkpt lat="54.222040" lon="-9.851460"><ele>5.945</ele><time>2022-11-17T05:04:50Z</time></trkpt><trkpt lat="54.221960" lon="-9.844050"><ele>6.418</ele><time>2022-11-17T05:05:30Z</time></trkpt><trkpt lat="54.229670" lon="-9.856450"><ele>12.434</ele><time>2022-11-17T05:06:10Z</time></trkpt><trkpt lat="54.244980" lon="-9.863910"><ele>21.055</ele><time>2022-11-17T05:06:50Z</time></trkpt><trkpt lat="54.252660" lon="-9.865490"><ele>17.672</ele><time>2022-11-17T05:07:30Z</time></trkpt><trkpt lat="54.265700" lon="-9.862720"><ele>27.713</ele><time>2022-11-17T05:08:10Z</time></trkpt><trkpt lat="54.275420" lon="-9.849750"><ele>31.014</ele><time>2022-11-17T05:08:50Z</time></trkpt><trkpt lat="54.278620" lon="-9.839290"><ele>28.909</ele><time>2022-11-17T05:09:30Z</time></trkpt><trkpt lat="54.280470" lon="-9.819700"><ele>25.688</ele><time>2022-11-17T05:10:10Z</time></trkpt><trkpt lat="54.277530" lon="-9.808670"><ele>31.878</ele><time>2022-11-17T05:10:50Z</time></trkpt><trkpt lat="54.274030" lon="-9.804970"><ele>7.865</ele><time>2022-11-17T05:11:30Z</time></trkpt><trkpt lat="54.269160" lon="-9.804060"><ele>14.824</ele><time>2022-11-17T05:12:10Z</time></trkpt><trkpt lat="54.263780" lon="-9.795740"><ele>26.469</ele><time>2022-11-17T05:12:50Z</time></trkpt><trkpt lat="54.263030" lon="-9.785020"><ele>18.321</ele><time>2022-11-17T05:13:30Z</time></trkpt><trkpt lat="54.259980" lon="-9.774860"><ele>17.664</ele><time>2022-11-17T05:14:10Z</time></trkpt><trkpt lat="54.250010" lon="-9.752750"><ele>9.890</ele><time>2022-11-17T05:14:50Z</time></trkpt><trkpt lat="54.243340" lon="-9.731480"><ele>37.031</ele><time>2022-11-17T05:15:30Z</time></trkpt><trkpt lat="54.236820" lon="-9.719450"><ele>22.097</ele><time>2022-11-17T05:16:10Z</time></trkpt><trkpt lat="54.241290" lon="-9.696150"><ele>7.623</ele><time>2022-11-17T05:16:50Z</time></trkpt><trkpt lat="54.250250" lon="-9.702580"><ele>17.825</ele><time>2022-11-17T05:17:30Z</time></trkpt><trkpt lat="54.254970" lon="-9.718230"><ele>13.909</ele><time>2022-11-17T05:18:10Z</time></trkpt><trkpt lat="54.257770" lon="-9.722060"><ele>14.020</ele><time>2022-11-17T05:18:50Z</time></trkpt><trkpt lat="54.269880" lon="-9.721710"><ele>4.440</ele><time>2022-11-17T05:19:30Z</time></trkpt><trkpt lat="54.281502" lon="-9.752950"><ele>20.467</ele><time>2022-11-17T05:20:10Z</time></trkpt><trkpt lat="54.292940" lon="-9.763240"><ele>21.356</ele><time>2022-11-17T05:20:50Z</time></trkpt><trkpt lat="54.300480" lon="-9.763650"><ele>12.041</ele><time>2022-11-17T05:21:30Z</time></trkpt><trkpt lat="54.305360" lon="-9.736840"><ele>47.223</ele><time>2022-11-17T05:22:10Z</time></trkpt><trkpt lat="54.305250" lon="-9.725090"><ele>45.356</ele><time>2022-11-17T05:22:50Z</time></trkpt><trkpt lat="54.307840" lon="-9.720080"><ele>36.362</ele><time>2022-11-17T05:23:30Z</time></trkpt><trkpt lat="54.312740" lon="-9.716710"><ele>23.643</ele><time>2022-11-17T05:24:10Z</time></trkpt><trkpt lat="54.311570" lon="-9.710140"><ele>18.783</ele><time>2022-11-17T05:24:50Z</time></trkpt><trkpt lat="54.309890" lon="-9.709420"><ele>9.125</ele><time>2022-11-17T05:25:30Z</time></trkpt><trkpt lat="54.305260" lon="-9.697080"><ele>33.917</ele><time>2022-11-17T05:26:10Z</time></trkpt><trkpt lat="54.294800" lon="-9.685400"><ele>27.009</ele><time>2022-11-17T05:26:50Z</time></trkpt><trkpt lat="54.302210" lon="-9.665380"><ele>72.019</ele><time>2022-11-17T05:27:30Z</time></trkpt><trkpt lat="54.301010" lon="-9.649730"><ele>39.039</ele><time>2022-11-17T05:28:10Z</time></trkpt><trkpt lat="54.308570" lon="-9.636830"><ele>75.626</ele><time>2022-11-17T05:28:50Z</time></trkpt><trkpt lat="54.307070" lon="-9.614270"><ele>111.835</ele><time>2022-11-17T05:29:30Z</time></trkpt><trkpt lat="54.312210" lon="-9.604640"><ele>127.450</ele><time>2022-11-17T05:30:10Z</time></trkpt><trkpt lat="54.311780" lon="-9.599050"><ele>133.672</ele><time>2022-11-17T05:30:50Z</time></trkpt><trkpt lat="54.309550" lon="-9.595680"><ele>147.555</ele><time>2022-11-17T05:31:30Z</time></trkpt><trkpt lat="54.311000" lon="-9.579330"><ele>95.171</ele><time>2022-11-17T05:32:10Z</time></trkpt><trkpt lat="54.309840" lon="-9.562420"><ele>35.972</ele><time>2022-11-17T05:32:50Z</time></trkpt><trkpt lat="54.305960" lon="-9.559740"><ele>34.114</ele><time>2022-11-17T05:33:30Z</time></trkpt><trkpt lat="54.303810" lon="-9.553140"><ele>10.854</ele><time>2022-11-17T05:34:10Z</time></trkpt><trkpt lat="54.310750" lon="-9.551070"><ele>2.409</ele><time>2022-11-17T05:34:50Z</time></trkpt><trkpt lat="54.297190" lon="-9.546960"><ele>31.809</ele><time>2022-11-17T05:35:30Z</time></trkpt><trkpt lat="54.298040" lon="-9.540640"><ele>39.772</ele><time>2022-11-17T05:36:10Z</time></trkpt><trkpt lat="54.302560" lon="-9.534590"><ele>47.332</ele><time>2022-11-17T05:36:50Z</time></trkpt><trkpt lat="54.308390" lon="-9.519120"><ele>56.649</ele><time>2022-11-17T05:37:30Z</time></trkpt><trkpt lat="54.310080" lon="-9.505610"><ele>53.788</ele><time>2022-11-17T05:38:10Z</time></trkpt><trkpt lat="54.306360" lon="-9.502170"><ele>42.313</ele><time>2022-11-17T05:38:50Z</time></trkpt><trkpt lat="54.308730" lon="-9.498620"><ele>62.435</ele><time>2022-11-17T05:39:30Z</time></trkpt><trkpt lat="54.307850" lon="-9.480150"><ele>81.918</ele><time>2022-11-17T05:40:10Z</time></trkpt><trkpt lat="54.309150" lon="-9.460610"><ele>102.244</ele><time>2022-11-17T05:40:50Z</time></trkpt><trkpt lat="54.308470" lon="-9.456380"><ele>89.255</ele><time>2022-11-17T05:41:30Z</time></trkpt><trkpt lat="54.300560" lon="-9.445510"><ele>98.842</ele><time>2022-11-17T05:42:10Z</time></trkpt><trkpt lat="54.296510" lon="-9.435360"><ele>75.522</ele><time>2022-11-17T05:42:50Z</time></trkpt><trkpt lat="54.297370" lon="-9.432520"><ele>79.314</ele><time>2022-11-17T05:43:30Z</time></trkpt><trkpt lat="54.300370" lon="-9.431470"><ele>87.409</ele><time>2022-11-17T05:44:10Z</time></trkpt><trkpt lat="54.304610" lon="-9.422570"><ele>71.085</ele><time>2022-11-17T05:44:50Z</time></trkpt><trkpt lat="54.300280" lon="-9.399170"><ele>38.065</ele><time>2022-11-17T05:45:30Z</time></trkpt><trkpt lat="54.280300" lon="-9.375660"><ele>24.992</ele><time>2022-11-17T05:46:10Z</time></trkpt><trkpt lat="54.280300" lon="-9.375660"><ele>24.921</ele><time>2022-11-17T05:46:50Z</time></trkpt><trkpt lat="54.285160" lon="-9.374540"><ele>21.036</ele><time>2022-11-17T05:47:30Z</time></trkpt><trkpt lat="54.295460" lon="-9.377180"><ele>3.228</ele><time>2022-11-17T05:48:10Z</time></trkpt><trkpt lat="54.297020" lon="-9.371120"><ele>8.021</ele><time>2022-11-17T05:48:50Z</time></trkpt><trkpt lat="54.296410" lon="-9.359020"><ele>20.017</ele><time>2022-11-17T05:49:30Z</time></trkpt><trkpt lat="54.303950" lon="-9.356030"><ele>16.868</ele><time>2022-11-17T05:50:10Z</time></trkpt><trkpt lat="54.308310" lon="-9.347580"><ele>17.023</ele><time>2022-11-17T05:50:50Z</time></trkpt><trkpt lat="54.309740" lon="-9.337540"><ele>19.883</ele><time>2022-11-17T05:51:30Z</time></trkpt><trkpt lat="54.305790" lon="-9.318000"><ele>54.211</ele><time>2022-11-17T05:52:10Z</time></trkpt><trkpt lat="54.308930" lon="-9.302370"><ele>49.809</ele><time>2022-11-17T05:52:50Z</time></trkpt><trkpt lat="54.303770" lon="-9.267000"><ele>55.693</ele><time>2022-11-17T05:53:30Z</time></trkpt><trkpt lat="54.297570" lon="-9.261790"><ele>74.653</ele><time>2022-11-17T05:54:10Z</time></trkpt><trkpt lat="54.290790" lon="-9.260570"><ele>62.060</ele><time>2022-11-17T05:54:50Z</time></trkpt><trkpt lat="54.282790" lon="-9.265260"><ele>70.959</ele><time>2022-11-17T05:55:30Z</time></trkpt><trkpt lat="54.281370" lon="-9.261790"><ele>46.424</ele><time>2022-11-17T05:56:10Z</time></trkpt><trkpt lat="54.276600" lon="-9.262350"><ele>46.346</ele><time>2022-11-17T05:56:50Z</time></trkpt><trkpt lat="54.274300" lon="-9.268610"><ele>39.029</ele><time>2022-11-17T05:57:30Z</time></trkpt><trkpt lat="54.264900" lon="-9.267100"><ele>17.855</ele><time>2022-11-17T05:58:10Z</time></trkpt><trkpt lat="54.252150" lon="-9.274830"><ele>21.436</ele><time>2022-11-17T05:58:50Z</time></trkpt><trkpt lat="54.243950" lon="-9.252250"><ele>33.287</ele><time>2022-11-17T05:59:30Z</time></trkpt><trkpt lat="54.234060" lon="-9.255760"><ele>5.142</ele><time>2022-11-17T06:00:10Z</time></trkpt><trkpt lat="54.233150" lon="-9.260600"><ele>6.426</ele><time>2022-11-17T06:00:50Z</time></trkpt><trkpt lat="54.226100" lon="-9.269960"><ele>8.609</ele><time>2022-11-17T06:01:30Z</time></trkpt><trkpt lat="54.224090" lon="-9.265380"><ele>10.979</ele><time>2022-11-17T06:02:10Z</time></trkpt><trkpt lat="54.217510" lon="-9.266990"><ele>19.019</ele><time>2022-11-17T06:02:50Z</time></trkpt><trkpt lat="54.207770" lon="-9.255750"><ele>21.346</ele><time>2022-11-17T06:03:30Z</time></trkpt><trkpt lat="54.206820" lon="-9.244080"><ele>26.995</ele><time>2022-11-17T06:04:10Z</time></trkpt><trkpt lat="54.208750" lon="-9.235540"><ele>21.030</ele><time>2022-11-17T06:04:50Z</time></trkpt><trkpt lat="54.208320" lon="-9.227640"><ele>8.072</ele><time>2022-11-17T06:05:30Z</time></trkpt><trkpt lat="54.212410" lon="-9.220130"><ele>11.935</ele><time>2022-11-17T06:06:10Z</time></trkpt><trkpt lat="54.209820" lon="-9.211950"><ele>11.481</ele><time>2022-11-17T06:06:50Z</time></trkpt><trkpt lat="54.207020" lon="-9.209020"><ele>5.032</ele><time>2022-11-17T06:07:30Z</time></trkpt><trkpt lat="54.201710" lon="-9.183430"><ele>20.061</ele><time>2022-11-17T06:08:10Z</time></trkpt><trkpt lat="54.198300" lon="-9.178460"><ele>22.521</ele><time>2022-11-17T06:08:50Z</time></trkpt><trkpt lat="54.188100" lon="-9.169960"><ele>27.013</ele><time>2022-11-17T06:09:30Z</time></trkpt><trkpt lat="54.182110" lon="-9.169970"><ele>29.909</ele><time>2022-11-17T06:10:10Z</time></trkpt><trkpt lat="54.146590" lon="-9.148990"><ele>19.457</ele><time>2022-11-17T06:10:50Z</time></trkpt><trkpt lat="54.144380" lon="-9.149570"><ele>23.157</ele><time>2022-11-17T06:11:30Z</time></trkpt><trkpt lat="54.140560" lon="-9.143540"><ele>15.724</ele><time>2022-11-17T06:12:10Z</time></trkpt><trkpt lat="54.135430" lon="-9.139910"><ele>9.143</ele><time>2022-11-17T06:12:50Z</time></trkpt><trkpt lat="54.130630" lon="-9.140780"><ele>8.388</ele><time>2022-11-17T06:13:30Z</time></trkpt><trkpt lat="54.126890" lon="-9.144350"><ele>15.050</ele><time>2022-11-17T06:14:10Z</time></trkpt><trkpt lat="54.121530" lon="-9.143640"><ele>12.033</ele><time>2022-11-17T06:14:50Z</time></trkpt><trkpt lat="54.115440" lon="-9.151430"><ele>6.079</ele><time>2022-11-17T06:15:30Z</time></trkpt><trkpt lat="54.114300" lon="-9.149390"><ele>4.540</ele><time>2022-11-17T06:16:10Z</time></trkpt><trkpt lat="54.112350" lon="-9.152560"><ele>4.019</ele><time>2022-11-17T06:16:50Z</time></trkpt><trkpt lat="54.112350" lon="-9.152560"><ele>4.009</ele><time>2022-11-17T06:17:30Z</time></trkpt><trkpt lat="54.118840" lon="-9.140240"><ele>4.419</ele><time>2022-11-17T06:18:10Z</time></trkpt><trkpt lat="54.125260" lon="-9.141270"><ele>5.609</ele><time>2022-11-17T06:18:50Z</time></trkpt><trkpt lat="54.129350" lon="-9.137640"><ele>3.862</ele><time>2022-11-17T06:19:30Z</time></trkpt><trkpt lat="54.139750" lon="-9.136680"><ele>5.812</ele><time>2022-11-17T06:20:10Z</time></trkpt><trkpt lat="54.150460" lon="-9.131480"><ele>12.829</ele><time>2022-11-17T06:20:50Z</time></trkpt><trkpt lat="54.161490" lon="-9.131450"><ele>8.578</ele><time>2022-11-17T06:21:30Z</time></trkpt><trkpt lat="54.168020" lon="-9.125450"><ele>12.143</ele><time>2022-11-17T06:22:10Z</time></trkpt><trkpt lat="54.176370" lon="-9.123040"><ele>21.175</ele><time>2022-11-17T06:22:50Z</time></trkpt><trkpt lat="54.182870" lon="-9.115700"><ele>29.658</ele><time>2022-11-17T06:23:30Z</time></trkpt><trkpt lat="54.193000" lon="-9.113870"><ele>39.244</ele><time>2022-11-17T06:24:10Z</time></trkpt><trkpt lat="54.210940" lon="-9.097220"><ele>5.695</ele><time>2022-11-17T06:24:50Z</time></trkpt><trkpt lat="54.217030" lon="-9.081280"><ele>34.093</ele><time>2022-11-17T06:25:30Z</time></trkpt><trkpt lat="54.185260" lon="-9.068760"><ele>67.065</ele><time>2022-11-17T06:26:10Z</time></trkpt><trkpt lat="54.172190" lon="-9.058800"><ele>70.921</ele><time>2022-11-17T06:26:50Z</time></trkpt><trkpt lat="54.174370" lon="-9.055760"><ele>70.009</ele><time>2022-11-17T06:27:30Z</time></trkpt><trkpt lat="54.168590" lon="-9.047970"><ele>70.940</ele><time>2022-11-17T06:28:10Z</time></trkpt><trkpt lat="54.167360" lon="-9.035430"><ele>69.040</ele><time>2022-11-17T06:28:50Z</time></trkpt><trkpt lat="54.170760" lon="-9.025660"><ele>76.877</ele><time>2022-11-17T06:29:30Z</time></trkpt><trkpt lat="54.175210" lon="-9.020160"><ele>72.926</ele><time>2022-11-17T06:30:10Z</time></trkpt><trkpt lat="54.164690" lon="-8.998950"><ele>85.091</ele><time>2022-11-17T06:30:50Z</time></trkpt><trkpt lat="54.160550" lon="-8.995620"><ele>87.883</ele><time>2022-11-17T06:31:30Z</time></trkpt><trkpt lat="54.144660" lon="-8.995630"><ele>105.856</ele><time>2022-11-17T06:32:10Z</time></trkpt><trkpt lat="54.124780" lon="-8.986710"><ele>124.892</ele><time>2022-11-17T06:32:50Z</time></trkpt><trkpt lat="54.121060" lon="-8.978710"><ele>115.473</ele><time>2022-11-17T06:33:30Z</time></trkpt><trkpt lat="54.119960" lon="-8.979420"><ele>116.052</ele><time>2022-11-17T06:34:10Z</time></trkpt><trkpt lat="54.117250" lon="-8.970560"><ele>119.953</ele><time>2022-11-17T06:34:50Z</time></trkpt><trkpt lat="54.111920" lon="-8.970360"><ele>153.808</ele><time>2022-11-17T06:35:30Z</time></trkpt><trkpt lat="54.102330" lon="-8.959970"><ele>168.209</ele><time>2022-11-17T06:36:10Z</time></trkpt><trkpt lat="54.092860" lon="-8.953940"><ele>176.596</ele><time>2022-11-17T06:36:50Z</time></trkpt><trkpt lat="54.088940" lon="-8.936430"><ele>161.756</ele><time>2022-11-17T06:37:30Z</time></trkpt><trkpt lat="54.091060" lon="-8.914550"><ele>179.363</ele><time>2022-11-17T06:38:10Z</time></trkpt><trkpt lat="54.097400" lon="-8.906220"><ele>167.892</ele><time>2022-11-17T06:38:50Z</time></trkpt><trkpt lat="54.093540" lon="-8.897220"><ele>162.377</ele><time>2022-11-17T06:39:30Z</time></trkpt><trkpt lat="54.096880" lon="-8.889500"><ele>167.889</ele><time>2022-11-17T06:40:10Z</time></trkpt><trkpt lat="54.100320" lon="-8.887880"><ele>160.292</ele><time>2022-11-17T06:40:50Z</time></trkpt><trkpt lat="54.104420" lon="-8.880140"><ele>136.518</ele><time>2022-11-17T06:41:30Z</time></trkpt><trkpt lat="54.103890" lon="-8.875990"><ele>123.629</ele><time>2022-11-17T06:42:10Z</time></trkpt><trkpt lat="54.100680" lon="-8.872300"><ele>108.468</ele><time>2022-11-17T06:42:50Z</time></trkpt><trkpt lat="54.103510" lon="-8.855580"><ele>105.342</ele><time>2022-11-17T06:43:30Z</time></trkpt><trkpt lat="54.105210" lon="-8.854550"><ele>120.926</ele><time>2022-11-17T06:44:10Z</time></trkpt><trkpt lat="54.113240" lon="-8.849950"><ele>123.909</ele><time>2022-11-17T06:44:50Z</time></trkpt><trkpt lat="54.128360" lon="-8.849910"><ele>170.137</ele><time>2022-11-17T06:45:30Z</time></trkpt><trkpt lat="54.139360" lon="-8.843080"><ele>205.967</ele><time>2022-11-17T06:46:10Z</time></trkpt><trkpt lat="54.151050" lon="-8.845470"><ele>191.254</ele><time>2022-11-17T06:46:50Z</time></trkpt><trkpt lat="54.158180" lon="-8.843500"><ele>185.463</ele><time>2022-11-17T06:47:30Z</time></trkpt><trkpt lat="54.172940" lon="-8.846420"><ele>201.328</ele><time>2022-11-17T06:48:10Z</time></trkpt><trkpt lat="54.184500" lon="-8.855350"><ele>201.160</ele><time>2022-11-17T06:48:50Z</time></trkpt><trkpt lat="54.199690" lon="-8.860990"><ele>170.823</ele><time>2022-11-17T06:49:30Z</time></trkpt><trkpt lat="54.208160" lon="-8.867810"><ele>139.719</ele><time>2022-11-17T06:50:10Z</time></trkpt><trkpt lat="54.211910" lon="-8.828870"><ele>164.260</ele><time>2022-11-17T06:50:50Z</time></trkpt><trkpt lat="54.213720" lon="-8.828820"><ele>153.963</ele><time>2022-11-17T06:51:30Z</time></trkpt><trkpt lat="54.218550" lon="-8.800620"><ele>146.744</ele><time>2022-11-17T06:52:10Z</time></trkpt><trkpt lat="54.225000" lon="-8.797860"><ele>101.018</ele><time>2022-11-17T06:52:50Z</time></trkpt><trkpt lat="54.221250" lon="-8.791810"><ele>120.509</ele><time>2022-11-17T06:53:30Z</time></trkpt><trkpt lat="54.220700" lon="-8.787780"><ele>127.977</ele><time>2022-11-17T06:54:10Z</time></trkpt><trkpt lat="54.222420" lon="-8.778320"><ele>120.267</ele><time>2022-11-17T06:54:50Z</time></trkpt><trkpt lat="54.226500" lon="-8.775820"><ele>98.644</ele><time>2022-11-17T06:55:30Z</time></trkpt><trkpt lat="54.227080" lon="-8.768570"><ele>100.553</ele><time>2022-11-17T06:56:10Z</time></trkpt><trkpt lat="54.225680" lon="-8.765220"><ele>101.688</ele><time>2022-11-17T06:56:50Z</time></trkpt><trkpt lat="54.221260" lon="-8.764090"><ele>136.160</ele><time>2022-11-17T06:57:30Z</time></trkpt><trkpt lat="54.218480" lon="-8.750480"><ele>128.153</ele><time>2022-11-17T06:58:10Z</time></trkpt><trkpt lat="54.217600" lon="-8.736360"><ele>91.399</ele><time>2022-11-17T06:58:50Z</time></trkpt><trkpt lat="54.216130" lon="-8.736540"><ele>93.820</ele><time>2022-11-17T06:59:30Z</time></trkpt><trkpt lat="54.214250" lon="-8.730810"><ele>129.241</ele><time>2022-11-17T07:00:10Z</time></trkpt><trkpt lat="54.211740" lon="-8.728600"><ele>156.881</ele><time>2022-11-17T07:00:50Z</time></trkpt><trkpt lat="54.210240" lon="-8.719890"><ele>202.909</ele><time>2022-11-17T07:01:30Z</time></trkpt><trkpt lat="54.205740" lon="-8.717700"><ele>226.209</ele><time>2022-11-17T07:02:10Z</time></trkpt><trkpt lat="54.200400" lon="-8.708180"><ele>240.745</ele><time>2022-11-17T07:02:50Z</time></trkpt><trkpt lat="54.183130" lon="-8.703880"><ele>200.385</ele><time>2022-11-17T07:03:30Z</time></trkpt><trkpt lat="54.181370" lon="-8.707540"><ele>188.692</ele><time>2022-11-17T07:04:10Z</time></trkpt><trkpt lat="54.177780" lon="-8.708220"><ele>173.481</ele><time>2022-11-17T07:04:50Z</time></trkpt><trkpt lat="54.161790" lon="-8.693430"><ele>129.296</ele><time>2022-11-17T07:05:30Z</time></trkpt><trkpt lat="54.162030" lon="-8.680270"><ele>117.228</ele><time>2022-11-17T07:06:10Z</time></trkpt><trkpt lat="54.165740" lon="-8.674190"><ele>127.371</ele><time>2022-11-17T07:06:50Z</time></trkpt><trkpt lat="54.165510" lon="-8.669130"><ele>123.517</ele><time>2022-11-17T07:07:30Z</time></trkpt><trkpt lat="54.159910" lon="-8.657780"><ele>98.768</ele><time>2022-11-17T07:08:10Z</time></trkpt><trkpt lat="54.155120" lon="-8.658790"><ele>91.616</ele><time>2022-11-17T07:08:50Z</time></trkpt><trkpt lat="54.161810" lon="-8.644710"><ele>99.076</ele><time>2022-11-17T07:09:30Z</time></trkpt><trkpt lat="54.167540" lon="-8.617450"><ele>84.713</ele><time>2022-11-17T07:10:10Z</time></trkpt><trkpt lat="54.172960" lon="-8.603010"><ele>64.209</ele><time>2022-11-17T07:10:50Z</time></trkpt><trkpt lat="54.172960" lon="-8.603010"><ele>64.272</ele><time>2022-11-17T07:11:30Z</time></trkpt><trkpt lat="54.175130" lon="-8.601130"><ele>57.512</ele><time>2022-11-17T07:12:10Z</time></trkpt><trkpt lat="54.172240" lon="-8.594290"><ele>77.939</ele><time>2022-11-17T07:12:50Z</time></trkpt><trkpt lat="54.168480" lon="-8.575620"><ele>63.278</ele><time>2022-11-17T07:13:30Z</time></trkpt><trkpt lat="54.171080" lon="-8.570240"><ele>58.143</ele><time>2022-11-17T07:14:10Z</time></trkpt><trkpt lat="54.173870" lon="-8.557260"><ele>59.135</ele><time>2022-11-17T07:14:50Z</time></trkpt><trkpt lat="54.168800" lon="-8.545310"><ele>60.558</ele><time>2022-11-17T07:15:30Z</time></trkpt><trkpt lat="54.171260" lon="-8.543060"><ele>50.584</ele><time>2022-11-17T07:16:10Z</time></trkpt><trkpt lat="54.176230" lon="-8.543460"><ele>50.615</ele><time>2022-11-17T07:16:50Z</time></trkpt><trkpt lat="54.175890" lon="-8.535330"><ele>45.676</ele><time>2022-11-17T07:17:30Z</time></trkpt><trkpt lat="54.177780" lon="-8.534430"><ele>44.090</ele><time>2022-11-17T07:18:10Z</time></trkpt><trkpt lat="54.180800" lon="-8.525950"><ele>59.019</ele><time>2022-11-17T07:18:50Z</time></trkpt><trkpt lat="54.180020" lon="-8.514220"><ele>51.109</ele><time>2022-11-17T07:19:30Z</time></trkpt><trkpt lat="54.184800" lon="-8.516440"><ele>45.378</ele><time>2022-11-17T07:20:10Z</time></trkpt><trkpt lat="54.188730" lon="-8.492500"><ele>30.038</ele><time>2022-11-17T07:20:50Z</time></trkpt><trkpt lat="54.186540" lon="-8.491200"><ele>29.615</ele><time>2022-11-17T07:21:30Z</time></trkpt><trkpt lat="54.186730" lon="-8.484160"><ele>25.814</ele><time>2022-11-17T07:22:10Z</time></trkpt><trkpt lat="54.190410" lon="-8.481860"><ele>26.849</ele><time>2022-11-17T07:22:50Z</time></trkpt><trkpt lat="54.192730" lon="-8.487630"><ele>36.911</ele><time>2022-11-17T07:23:30Z</time></trkpt><trkpt lat="54.202330" lon="-8.492880"><ele>28.394</ele><time>2022-11-17T07:24:10Z</time></trkpt><trkpt lat="54.207610" lon="-8.489476"><ele>41.910</ele><time>2022-11-17T07:24:50Z</time></trkpt><trkpt lat="54.211190" lon="-8.496940"><ele>28.351</ele><time>2022-11-17T07:25:30Z</time></trkpt><trkpt lat="54.213960" lon="-8.493460"><ele>31.371</ele><time>2022-11-17T07:26:10Z</time></trkpt><trkpt lat="54.214190" lon="-8.499630"><ele>19.941</ele><time>2022-11-17T07:26:50Z</time></trkpt><trkpt lat="54.211490" lon="-8.507190"><ele>23.715</ele><time>2022-11-17T07:27:30Z</time></trkpt><trkpt lat="54.216780" lon="-8.504370"><ele>23.409</ele><time>2022-11-17T07:28:10Z</time></trkpt><trkpt lat="54.226860" lon="-8.493520"><ele>1.668</ele><time>2022-11-17T07:28:50Z</time></trkpt><trkpt lat="54.228960" lon="-8.469710"><ele>22.188</ele><time>2022-11-17T07:29:30Z</time></trkpt><trkpt lat="54.233650" lon="-8.452950"><ele>20.815</ele><time>2022-11-17T07:30:10Z</time></trkpt><trkpt lat="54.236260" lon="-8.451690"><ele>14.794</ele><time>2022-11-17T07:30:50Z</time></trkpt><trkpt lat="54.241280" lon="-8.443390"><ele>4.579</ele><time>2022-11-17T07:31:30Z</time></trkpt><trkpt lat="54.243790" lon="-8.444100"><ele>5.591</ele><time>2022-11-17T07:32:10Z</time></trkpt><trkpt lat="54.247870" lon="-8.440850"><ele>23.514</ele><time>2022-11-17T07:32:50Z</time></trkpt><trkpt lat="54.255130" lon="-8.443520"><ele>36.180</ele><time>2022-11-17T07:33:30Z</time></trkpt><trkpt lat="54.256450" lon="-8.446570"><ele>42.371</ele><time>2022-11-17T07:34:10Z</time></trkpt><trkpt lat="54.257840" lon="-8.443620"><ele>6.255</ele><time>2022-11-17T07:34:50Z</time></trkpt><trkpt lat="54.262090" lon="-8.449410"><ele>16.407</ele><time>2022-11-17T07:35:30Z</time></trkpt><trkpt lat="54.264750" lon="-8.445640"><ele>4.417</ele><time>2022-11-17T07:36:10Z</time></trkpt><trkpt lat="54.269170" lon="-8.453580"><ele>2.009</ele><time>2022-11-17T07:36:50Z</time></trkpt><trkpt lat="54.271230" lon="-8.467080"><ele>6.156</ele><time>2022-11-17T07:37:30Z</time></trkpt><trkpt lat="54.272810" lon="-8.466830"><ele>16.566</ele><time>2022-11-17T07:38:10Z</time></trkpt><trkpt lat="54.272810" lon="-8.466830"><ele>16.533</ele><time>2022-11-17T07:38:50Z</time></trkpt><trkpt lat="54.273880" lon="-8.461600"><ele>16.712</ele><time>2022-11-17T07:39:30Z</time></trkpt><trkpt lat="54.276670" lon="-8.463800"><ele>3.037</ele><time>2022-11-17T07:40:10Z</time></trkpt><trkpt lat="54.277680" lon="-8.471330"><ele>3.389</ele><time>2022-11-17T07:40:50Z</time></trkpt><trkpt lat="54.284950" lon="-8.467920"><ele>13.282</ele><time>2022-11-17T07:41:30Z</time></trkpt><trkpt lat="54.288430" lon="-8.463520"><ele>16.218</ele><time>2022-11-17T07:42:10Z</time></trkpt><trkpt lat="54.293910" lon="-8.463350"><ele>45.679</ele><time>2022-11-17T07:42:50Z</time></trkpt><trkpt lat="54.301680" lon="-8.457440"><ele>44.224</ele><time>2022-11-17T07:43:30Z</time></trkpt><trkpt lat="54.309170" lon="-8.455070"><ele>78.204</ele><time>2022-11-17T07:44:10Z</time></trkpt><trkpt lat="54.316400" lon="-8.447850"><ele>40.014</ele><time>2022-11-17T07:44:50Z</time></trkpt><trkpt lat="54.322350" lon="-8.448990"><ele>22.909</ele><time>2022-11-17T07:45:30Z</time></trkpt><trkpt lat="54.325460" lon="-8.445120"><ele>16.943</ele><time>2022-11-17T07:46:10Z</time></trkpt><trkpt lat="54.328700" lon="-8.445020"><ele>29.663</ele><time>2022-11-17T07:46:50Z</time></trkpt><trkpt lat="54.328050" lon="-8.451170"><ele>23.930</ele><time>2022-11-17T07:47:30Z</time></trkpt><trkpt lat="54.329280" lon="-8.455240"><ele>27.769</ele><time>2022-11-17T07:48:10Z</time></trkpt><trkpt lat="54.326090" lon="-8.468640"><ele>14.814</ele><time>2022-11-17T07:48:50Z</time></trkpt><trkpt lat="54.326470" lon="-8.471710"><ele>9.016</ele><time>2022-11-17T07:49:30Z</time></trkpt><trkpt lat="54.329720" lon="-8.470140"><ele>11.589</ele><time>2022-11-17T07:50:10Z</time></trkpt><trkpt lat="54.331630" lon="-8.489260"><ele>8.185</ele><time>2022-11-17T07:50:50Z</time></trkpt><trkpt lat="54.330300" lon="-8.501810"><ele>8.046</ele><time>2022-11-17T07:51:30Z</time></trkpt><trkpt lat="54.336050" lon="-8.526700"><ele>3.068</ele><time>2022-11-17T07:52:10Z</time></trkpt><trkpt lat="54.338200" lon="-8.527760"><ele>12.042</ele><time>2022-11-17T07:52:50Z</time></trkpt><trkpt lat="54.339040" lon="-8.541970"><ele>9.126</ele><time>2022-11-17T07:53:30Z</time></trkpt><trkpt lat="54.343140" lon="-8.548470"><ele>12.009</ele><time>2022-11-17T07:54:10Z</time></trkpt><trkpt lat="54.346060" lon="-8.557940"><ele>12.077</ele><time>2022-11-17T07:54:50Z</time></trkpt><trkpt lat="54.353410" lon="-8.565480"><ele>29.117</ele><time>2022-11-17T07:55:30Z</time></trkpt><trkpt lat="54.358340" lon="-8.587640"><ele>18.594</ele><time>2022-11-17T07:56:10Z</time></trkpt><trkpt lat="54.353620" lon="-8.599480"><ele>7.473</ele><time>2022-11-17T07:56:50Z</time></trkpt><trkpt lat="54.348270" lon="-8.600330"><ele>9.828</ele><time>2022-11-17T07:57:30Z</time></trkpt><trkpt lat="54.346980" lon="-8.619200"><ele>23.920</ele><time>2022-11-17T07:58:10Z</time></trkpt><trkpt lat="54.340290" lon="-8.627300"><ele>9.363</ele><time>2022-11-17T07:58:50Z</time></trkpt><trkpt lat="54.334750" lon="-8.642980"><ele>2.779</ele><time>2022-11-17T07:59:30Z</time></trkpt><trkpt lat="54.347340" lon="-8.640290"><ele>21.460</ele><time>2022-11-17T08:00:10Z</time></trkpt><trkpt lat="54.351860" lon="-8.656860"><ele>21.627</ele><time>2022-11-17T08:00:50Z</time></trkpt><trkpt lat="54.351290" lon="-8.664000"><ele>4.268</ele><time>2022-11-17T08:01:30Z</time></trkpt><trkpt lat="54.356800" lon="-8.663690"><ele>2.014</ele><time>2022-11-17T08:02:10Z</time></trkpt><trkpt lat="54.358860" lon="-8.651720"><ele>4.009</ele><time>2022-11-17T08:02:50Z</time></trkpt><trkpt lat="54.369280" lon="-8.634850"><ele>13.373</ele><time>2022-11-17T08:03:30Z</time></trkpt><trkpt lat="54.359310" lon="-8.621260"><ele>16.773</ele><time>2022-11-17T08:04:10Z</time></trkpt><trkpt lat="54.357960" lon="-8.610830"><ele>17.440</ele><time>2022-11-17T08:04:50Z</time></trkpt><trkpt lat="54.360050" lon="-8.612960"><ele>17.589</ele><time>2022-11-17T08:05:30Z</time></trkpt><trkpt lat="54.361930" lon="-8.605890"><ele>33.074</ele><time>2022-11-17T08:06:10Z</time></trkpt><trkpt lat="54.367890" lon="-8.596490"><ele>42.856</ele><time>2022-11-17T08:06:50Z</time></trkpt><trkpt lat="54.380040" lon="-8.561720"><ele>35.019</ele><time>2022-11-17T08:07:30Z</time></trkpt><trkpt lat="54.380940" lon="-8.555060"><ele>31.625</ele><time>2022-11-17T08:08:10Z</time></trkpt><trkpt lat="54.386670" lon="-8.550740"><ele>15.086</ele><time>2022-11-17T08:08:50Z</time></trkpt><trkpt lat="54.391930" lon="-8.541250"><ele>6.667</ele><time>2022-11-17T08:09:30Z</time></trkpt><trkpt lat="54.393090" lon="-8.523240"><ele>14.581</ele><time>2022-11-17T08:10:10Z</time></trkpt><trkpt lat="54.391410" lon="-8.522690"><ele>13.919</ele><time>2022-11-17T08:10:50Z</time></trkpt><trkpt lat="54.388240" lon="-8.508330"><ele>29.009</ele><time>2022-11-17T08:11:30Z</time></trkpt><trkpt lat="54.387090" lon="-8.474200"><ele>57.547</ele><time>2022-11-17T08:12:10Z</time></trkpt><trkpt lat="54.395500" lon="-8.447390"><ele>72.247</ele><time>2022-11-17T08:12:50Z</time></trkpt><trkpt lat="54.399900" lon="-8.423160"><ele>64.064</ele><time>2022-11-17T08:13:30Z</time></trkpt><trkpt lat="54.400530" lon="-8.404880"><ele>75.223</ele><time>2022-11-17T08:14:10Z</time></trkpt><trkpt lat="54.427170" lon="-8.418880"><ele>47.058</ele><time>2022-11-17T08:14:50Z</time></trkpt><trkpt lat="54.452330" lon="-8.453010"><ele>4.850</ele><time>2022-11-17T08:15:30Z</time></trkpt><trkpt lat="54.458420" lon="-8.457110"><ele>16.263</ele><time>2022-11-17T08:16:10Z</time></trkpt><trkpt lat="54.464680" lon="-8.467360"><ele>14.789</ele><time>2022-11-17T08:16:50Z</time></trkpt><trkpt lat="54.468560" lon="-8.466160"><ele>20.240</ele><time>2022-11-17T08:17:30Z</time></trkpt><trkpt lat="54.471560" lon="-8.460390"><ele>12.034</ele><time>2022-11-17T08:18:10Z</time></trkpt><trkpt lat="54.472560" lon="-8.454230"><ele>7.155</ele><time>2022-11-17T08:18:50Z</time></trkpt><trkpt lat="54.470020" lon="-8.448070"><ele>5.910</ele><time>2022-11-17T08:19:30Z</time></trkpt><trkpt lat="54.467420" lon="-8.447500"><ele>6.709</ele><time>2022-11-17T08:20:10Z</time></trkpt><trkpt lat="54.457250" lon="-8.455980"><ele>11.484</ele><time>2022-11-17T08:20:50Z</time></trkpt><trkpt lat="54.452680" lon="-8.453420"><ele>5.344</ele><time>2022-11-17T08:21:30Z</time></trkpt><trkpt lat="54.449020" lon="-8.447180"><ele>0.591</ele><time>2022-11-17T08:22:10Z</time></trkpt><trkpt lat="54.448550" lon="-8.438920"><ele>2.330</ele><time>2022-11-17T08:22:50Z</time></trkpt><trkpt lat="54.451600" lon="-8.432230"><ele>2.865</ele><time>2022-11-17T08:23:30Z</time></trkpt><trkpt lat="54.455170" lon="-8.414320"><ele>10.647</ele><time>2022-11-17T08:24:10Z</time></trkpt><trkpt lat="54.454950" lon="-8.409360"><ele>17.090</ele><time>2022-11-17T08:24:50Z</time></trkpt><trkpt lat="54.460510" lon="-8.390220"><ele>19.216</ele><time>2022-11-17T08:25:30Z</time></trkpt><trkpt lat="54.458200" lon="-8.388630"><ele>28.517</ele><time>2022-11-17T08:26:10Z</time></trkpt><trkpt lat="54.460670" lon="-8.377380"><ele>21.649</ele><time>2022-11-17T08:26:50Z</time></trkpt><trkpt lat="54.465400" lon="-8.366690"><ele>23.302</ele><time>2022-11-17T08:27:30Z</time></trkpt><trkpt lat="54.468540" lon="-8.331040"><ele>10.722</ele><time>2022-11-17T08:28:10Z</time></trkpt><trkpt lat="54.475680" lon="-8.312260"><ele>5.409</ele><time>2022-11-17T08:28:50Z</time></trkpt><trkpt lat="54.476620" lon="-8.285030"><ele>11.325</ele><time>2022-11-17T08:29:30Z</time></trkpt><trkpt lat="54.481330" lon="-8.270830"><ele>17.955</ele><time>2022-11-17T08:30:10Z</time></trkpt><trkpt lat="54.481330" lon="-8.270830"><ele>17.962</ele><time>2022-11-17T08:30:50Z</time></trkpt><trkpt lat="54.479290" lon="-8.256290"><ele>17.051</ele><time>2022-11-17T08:31:30Z</time></trkpt><trkpt lat="54.480460" lon="-8.242720"><ele>16.396</ele><time>2022-11-17T08:32:10Z</time></trkpt><trkpt lat="54.478430" lon="-8.229800"><ele>43.398</ele><time>2022-11-17T08:32:50Z</time></trkpt><trkpt lat="54.478500" lon="-8.206450"><ele>53.661</ele><time>2022-11-17T08:33:30Z</time></trkpt><trkpt lat="54.476380" lon="-8.192270"><ele>56.277</ele><time>2022-11-17T08:34:10Z</time></trkpt><trkpt lat="54.481020" lon="-8.196150"><ele>61.368</ele><time>2022-11-17T08:34:50Z</time></trkpt><trkpt lat="54.499710" lon="-8.192620"><ele>16.539</ele><time>2022-11-17T08:35:30Z</time></trkpt><trkpt lat="54.500330" lon="-8.195420"><ele>10.201</ele><time>2022-11-17T08:36:10Z</time></trkpt><trkpt lat="54.500880" lon="-8.189750"><ele>10.421</ele><time>2022-11-17T08:36:50Z</time></trkpt><trkpt lat="54.504610" lon="-8.191010"><ele>31.609</ele><time>2022-11-17T08:37:30Z</time></trkpt><trkpt lat="54.503560" lon="-8.192440"><ele>32.084</ele><time>2022-11-17T08:38:10Z</time></trkpt><trkpt lat="54.504210" lon="-8.196800"><ele>23.364</ele><time>2022-11-17T08:38:50Z</time></trkpt><trkpt lat="54.508250" lon="-8.202920"><ele>12.021</ele><time>2022-11-17T08:39:30Z</time></trkpt><trkpt lat="54.509920" lon="-8.197560"><ele>26.410</ele><time>2022-11-17T08:40:10Z</time></trkpt><trkpt lat="54.514600" lon="-8.209180"><ele>50.125</ele><time>2022-11-17T08:40:50Z</time></trkpt><trkpt lat="54.513660" lon="-8.234540"><ele>28.237</ele><time>2022-11-17T08:41:30Z</time></trkpt><trkpt lat="54.516260" lon="-8.236030"><ele>29.720</ele><time>2022-11-17T08:42:10Z</time></trkpt><trkpt lat="54.518300" lon="-8.244530"><ele>14.846</ele><time>2022-11-17T08:42:50Z</time></trkpt><trkpt lat="54.521310" lon="-8.247210"><ele>25.767</ele><time>2022-11-17T08:43:30Z</time></trkpt><trkpt lat="54.520660" lon="-8.253620"><ele>25.479</ele><time>2022-11-17T08:44:10Z</time></trkpt><trkpt lat="54.524070" lon="-8.254240"><ele>36.705</ele><time>2022-11-17T08:44:50Z</time></trkpt><trkpt lat="54.526100" lon="-8.257360"><ele>20.025</ele><time>2022-11-17T08:45:30Z</time></trkpt><trkpt lat="54.525520" lon="-8.246710"><ele>28.209</ele><time>2022-11-17T08:46:10Z</time></trkpt><trkpt lat="54.526730" lon="-8.244030"><ele>21.388</ele><time>2022-11-17T08:46:50Z</time></trkpt><trkpt lat="54.529550" lon="-8.244930"><ele>21.538</ele><time>2022-11-17T08:47:30Z</time></trkpt><trkpt lat="54.531730" lon="-8.232150"><ele>39.755</ele><time>2022-11-17T08:48:10Z</time></trkpt><trkpt lat="54.536740" lon="-8.217450"><ele>67.934</ele><time>2022-11-17T08:48:50Z</time></trkpt><trkpt lat="54.536900" lon="-8.209760"><ele>78.059</ele><time>2022-11-17T08:49:30Z</time></trkpt><trkpt lat="54.544670" lon="-8.208950"><ele>36.861</ele><time>2022-11-17T08:50:10Z</time></trkpt><trkpt lat="54.543570" lon="-8.216310"><ele>30.414</ele><time>2022-11-17T08:50:50Z</time></trkpt><trkpt lat="54.545600" lon="-8.217090"><ele>26.750</ele><time>2022-11-17T08:51:30Z</time></trkpt><trkpt lat="54.548700" lon="-8.209130"><ele>15.961</ele><time>2022-11-17T08:52:10Z</time></trkpt><trkpt lat="54.552600" lon="-8.210580"><ele>1.663</ele><time>2022-11-17T08:52:50Z</time></trkpt><trkpt lat="54.558190" lon="-8.207150"><ele>4.044</ele><time>2022-11-17T08:53:30Z</time></trkpt><trkpt lat="54.562160" lon="-8.209920"><ele>3.018</ele><time>2022-11-17T08:54:10Z</time></trkpt><trkpt lat="54.564890" lon="-8.174360"><ele>8.009</ele><time>2022-11-17T08:54:50Z</time></trkpt><trkpt lat="54.571250" lon="-8.163320"><ele>8.047</ele><time>2022-11-17T08:55:30Z</time></trkpt><trkpt lat="54.571710" lon="-8.158370"><ele>19.027</ele><time>2022-11-17T08:56:10Z</time></trkpt><trkpt lat="54.575160" lon="-8.162120"><ele>17.384</ele><time>2022-11-17T08:56:50Z</time></trkpt><trkpt lat="54.581480" lon="-8.158930"><ele>13.123</ele><time>2022-11-17T08:57:30Z</time></trkpt><trkpt lat="54.585950" lon="-8.141010"><ele>14.498</ele><time>2022-11-17T08:58:10Z</time></trkpt><trkpt lat="54.590600" lon="-8.141130"><ele>8.050</ele><time>2022-11-17T08:58:50Z</time></trkpt><trkpt lat="54.596430" lon="-8.151340"><ele>1.083</ele><time>2022-11-17T08:59:30Z</time></trkpt><trkpt lat="54.599950" lon="-8.136430"><ele>14.659</ele><time>2022-11-17T09:00:10Z</time></trkpt><trkpt lat="54.603060" lon="-8.134010"><ele>6.460</ele><time>2022-11-17T09:00:50Z</time></trkpt><trkpt lat="54.608070" lon="-8.114220"><ele>6.245</ele><time>2022-11-17T09:01:30Z</time></trkpt><trkpt lat="54.612030" lon="-8.105790"><ele>1.847</ele><time>2022-11-17T09:02:10Z</time></trkpt><trkpt lat="54.614750" lon="-8.086930"><ele>27.011</ele><time>2022-11-17T09:02:50Z</time></trkpt><trkpt lat="54.621230" lon="-8.087370"><ele>21.409</ele><time>2022-11-17T09:03:30Z</time></trkpt><trkpt lat="54.630640" lon="-8.078720"><ele>35.715</ele><time>2022-11-17T09:04:10Z</time></trkpt><trkpt lat="54.641930" lon="-8.080770"><ele>37.565</ele><time>2022-11-17T09:04:50Z</time></trkpt><trkpt lat="54.642560" lon="-8.090320"><ele>22.892</ele><time>2022-11-17T09:05:30Z</time></trkpt><trkpt lat="54.647680" lon="-8.095710"><ele>20.541</ele><time>2022-11-17T09:06:10Z</time></trkpt><trkpt lat="54.654720" lon="-8.098300"><ele>11.936</ele><time>2022-11-17T09:06:50Z</time></trkpt><trkpt lat="54.653750" lon="-8.109350"><ele>10.588</ele><time>2022-11-17T09:07:30Z</time></trkpt><trkpt lat="54.653750" lon="-8.109350"><ele>10.551</ele><time>2022-11-17T09:08:10Z</time></trkpt><trkpt lat="54.657000" lon="-8.119120"><ele>20.237</ele><time>2022-11-17T09:08:50Z</time></trkpt><trkpt lat="54.664650" lon="-8.129850"><ele>16.548</ele><time>2022-11-17T09:09:30Z</time></trkpt><trkpt lat="54.658790" lon="-8.141630"><ele>23.226</ele><time>2022-11-17T09:10:10Z</time></trkpt><trkpt lat="54.655110" lon="-8.159180"><ele>21.347</ele><time>2022-11-17T09:10:50Z</time></trkpt><trkpt lat="54.648930" lon="-8.167620"><ele>10.911</ele><time>2022-11-17T09:11:30Z</time></trkpt><trkpt lat="54.646360" lon="-8.178550"><ele>17.309</ele><time>2022-11-17T09:12:10Z</time></trkpt><trkpt lat="54.642480" lon="-8.180910"><ele>6.973</ele><time>2022-11-17T09:12:50Z</time></trkpt><trkpt lat="54.640730" lon="-8.186440"><ele>11.563</ele><time>2022-11-17T09:13:30Z</time></trkpt><trkpt lat="54.641240" lon="-8.190780"><ele>37.140</ele><time>2022-11-17T09:14:10Z</time></trkpt><trkpt lat="54.643820" lon="-8.191680"><ele>54.389</ele><time>2022-11-17T09:14:50Z</time></trkpt><trkpt lat="54.646690" lon="-8.197520"><ele>85.374</ele><time>2022-11-17T09:15:30Z</time></trkpt><trkpt lat="54.643420" lon="-8.219390"><ele>77.056</ele><time>2022-11-17T09:16:10Z</time></trkpt><trkpt lat="54.635840" lon="-8.238570"><ele>53.089</ele><time>2022-11-17T09:16:50Z</time></trkpt><trkpt lat="54.638080" lon="-8.247260"><ele>34.825</ele><time>2022-11-17T09:17:30Z</time></trkpt><trkpt lat="54.646210" lon="-8.259860"><ele>28.696</ele><time>2022-11-17T09:18:10Z</time></trkpt><trkpt lat="54.649870" lon="-8.273850"><ele>11.519</ele><time>2022-11-17T09:18:50Z</time></trkpt><trkpt lat="54.654150" lon="-8.275840"><ele>5.009</ele><time>2022-11-17T09:19:30Z</time></trkpt><trkpt lat="54.654920" lon="-8.282320"><ele>13.419</ele><time>2022-11-17T09:20:10Z</time></trkpt><trkpt lat="54.653870" lon="-8.285840"><ele>27.109</ele><time>2022-11-17T09:20:50Z</time></trkpt><trkpt lat="54.657530" lon="-8.285650"><ele>43.752</ele><time>2022-11-17T09:21:30Z</time></trkpt><trkpt lat="54.661300" lon="-8.291900"><ele>73.582</ele><time>2022-11-17T09:22:10Z</time></trkpt><trkpt lat="54.668100" lon="-8.293500"><ele>89.219</ele><time>2022-11-17T09:22:50Z</time></trkpt><trkpt lat="54.668170" lon="-8.314650"><ele>125.358</ele><time>2022-11-17T09:23:30Z</time></trkpt><trkpt lat="54.672810" lon="-8.315770"><ele>159.573</ele><time>2022-11-17T09:24:10Z</time></trkpt><trkpt lat="54.678120" lon="-8.322790"><ele>119.735</ele><time>2022-11-17T09:24:50Z</time></trkpt><trkpt lat="54.685310" lon="-8.340570"><ele>126.178</ele><time>2022-11-17T09:25:30Z</time></trkpt><trkpt lat="54.686400" lon="-8.346990"><ele>127.154</ele><time>2022-11-17T09:26:10Z</time></trkpt><trkpt lat="54.694930" lon="-8.346640"><ele>141.035</ele><time>2022-11-17T09:26:50Z</time></trkpt><trkpt lat="54.696590" lon="-8.348510"><ele>134.245</ele><time>2022-11-17T09:27:30Z</time></trkpt><trkpt lat="54.703300" lon="-8.344530"><ele>104.147</ele><time>2022-11-17T09:28:10Z</time></trkpt><trkpt lat="54.715390" lon="-8.350790"><ele>119.311</ele><time>2022-11-17T09:28:50Z</time></trkpt><trkpt lat="54.719250" lon="-8.349010"><ele>124.509</ele><time>2022-11-17T09:29:30Z</time></trkpt><trkpt lat="54.726050" lon="-8.364940"><ele>150.825</ele><time>2022-11-17T09:30:10Z</time></trkpt><trkpt lat="54.735640" lon="-8.363500"><ele>171.165</ele><time>2022-11-17T09:30:50Z</time></trkpt><trkpt lat="54.745680" lon="-8.356150"><ele>149.422</ele><time>2022-11-17T09:31:30Z</time></trkpt><trkpt lat="54.747440" lon="-8.363300"><ele>123.431</ele><time>2022-11-17T09:32:10Z</time></trkpt><trkpt lat="54.746760" lon="-8.366580"><ele>117.956</ele><time>2022-11-17T09:32:50Z</time></trkpt><trkpt lat="54.760020" lon="-8.400160"><ele>32.288</ele><time>2022-11-17T09:33:30Z</time></trkpt><trkpt lat="54.761870" lon="-8.413080"><ele>18.631</ele><time>2022-11-17T09:34:10Z</time></trkpt><trkpt lat="54.764390" lon="-8.410480"><ele>33.817</ele><time>2022-11-17T09:34:50Z</time></trkpt><trkpt lat="54.769610" lon="-8.416700"><ele>6.428</ele><time>2022-11-17T09:35:30Z</time></trkpt><trkpt lat="54.771230" lon="-8.410020"><ele>16.082</ele><time>2022-11-17T09:36:10Z</time></trkpt><trkpt lat="54.786000" lon="-8.409950"><ele>28.443</ele><time>2022-11-17T09:36:50Z</time></trkpt><trkpt lat="54.790020" lon="-8.401740"><ele>15.217</ele><time>2022-11-17T09:37:30Z</time></trkpt><trkpt lat="54.796530" lon="-8.399580"><ele>43.509</ele><time>2022-11-17T09:38:10Z</time></trkpt><trkpt lat="54.802230" lon="-8.383030"><ele>37.069</ele><time>2022-11-17T09:38:50Z</time></trkpt><trkpt lat="54.805300" lon="-8.382180"><ele>31.599</ele><time>2022-11-17T09:39:30Z</time></trkpt><trkpt lat="54.808180" lon="-8.377240"><ele>37.156</ele><time>2022-11-17T09:40:10Z</time></trkpt><trkpt lat="54.823250" lon="-8.372910"><ele>43.385</ele><time>2022-11-17T09:40:50Z</time></trkpt><trkpt lat="54.824810" lon="-8.368480"><ele>63.090</ele><time>2022-11-17T09:41:30Z</time></trkpt><trkpt lat="54.830560" lon="-8.369440"><ele>16.062</ele><time>2022-11-17T09:42:10Z</time></trkpt><trkpt lat="54.833740" lon="-8.366260"><ele>21.455</ele><time>2022-11-17T09:42:50Z</time></trkpt><trkpt lat="54.833770" lon="-8.333450"><ele>9.551</ele><time>2022-11-17T09:43:30Z</time></trkpt><trkpt lat="54.838300" lon="-8.332210"><ele>13.432</ele><time>2022-11-17T09:44:10Z</time></trkpt><trkpt lat="54.842120" lon="-8.316340"><ele>3.058</ele><time>2022-11-17T09:44:50Z</time></trkpt><trkpt lat="54.850090" lon="-8.316700"><ele>28.652</ele><time>2022-11-17T09:45:30Z</time></trkpt><trkpt lat="54.853970" lon="-8.314410"><ele>29.317</ele><time>2022-11-17T09:46:10Z</time></trkpt><trkpt lat="54.857620" lon="-8.301580"><ele>32.709</ele><time>2022-11-17T09:46:50Z</time></trkpt><trkpt lat="54.859270" lon="-8.300510"><ele>34.096</ele><time>2022-11-17T09:47:30Z</time></trkpt><trkpt lat="54.875707" lon="-8.309189"><ele>22.516</ele><time>2022-11-17T09:48:10Z</time></trkpt><trkpt lat="54.880790" lon="-8.306140"><ele>30.333</ele><time>2022-11-17T09:48:50Z</time></trkpt><trkpt lat="54.885420" lon="-8.306790"><ele>15.622</ele><time>2022-11-17T09:49:30Z</time></trkpt><trkpt lat="54.888980" lon="-8.302950"><ele>9.667</ele><time>2022-11-17T09:50:10Z</time></trkpt><trkpt lat="54.897530" lon="-8.322210"><ele>67.349</ele><time>2022-11-17T09:50:50Z</time></trkpt><trkpt lat="54.913120" lon="-8.344520"><ele>40.232</ele><time>2022-11-17T09:51:30Z</time></trkpt><trkpt lat="54.930460" lon="-8.358680"><ele>50.118</ele><time>2022-11-17T09:52:10Z</time></trkpt><trkpt lat="54.936440" lon="-8.356960"><ele>37.349</ele><time>2022-11-17T09:52:50Z</time></trkpt><trkpt lat="54.938470" lon="-8.359640"><ele>53.658</ele><time>2022-11-17T09:53:30Z</time></trkpt><trkpt lat="54.943760" lon="-8.358230"><ele>45.652</ele><time>2022-11-17T09:54:10Z</time></trkpt><trkpt lat="54.950390" lon="-8.360770"><ele>8.117</ele><time>2022-11-17T09:54:50Z</time></trkpt><trkpt lat="54.950390" lon="-8.360770"><ele>8.109</ele><time>2022-11-17T09:55:30Z</time></trkpt><trkpt lat="54.952750" lon="-8.370610"><ele>9.616</ele><time>2022-11-17T09:56:10Z</time></trkpt><trkpt lat="54.954660" lon="-8.369470"><ele>16.886</ele><time>2022-11-17T09:56:50Z</time></trkpt><trkpt lat="54.960520" lon="-8.374190"><ele>20.243</ele><time>2022-11-17T09:57:30Z</time></trkpt><trkpt lat="54.961080" lon="-8.379990"><ele>22.912</ele><time>2022-11-17T09:58:10Z</time></trkpt><trkpt lat="54.966110" lon="-8.394950"><ele>1.037</ele><time>2022-11-17T09:58:50Z</time></trkpt><trkpt lat="54.975390" lon="-8.404090"><ele>5.829</ele><time>2022-11-17T09:59:30Z</time></trkpt><trkpt lat="54.978970" lon="-8.403350"><ele>19.022</ele><time>2022-11-17T10:00:10Z</time></trkpt><trkpt lat="54.982100" lon="-8.396480"><ele>27.788</ele><time>2022-11-17T10:00:50Z</time></trkpt><trkpt lat="54.985790" lon="-8.394030"><ele>29.919</ele><time>2022-11-17T10:01:30Z</time></trkpt><trkpt lat="54.986980" lon="-8.386440"><ele>32.099</ele><time>2022-11-17T10:02:10Z</time></trkpt><trkpt lat="54.990340" lon="-8.379940"><ele>33.107</ele><time>2022-11-17T10:02:50Z</time></trkpt><trkpt lat="54.991360" lon="-8.371200"><ele>38.527</ele><time>2022-11-17T10:03:30Z</time></trkpt><trkpt lat="54.994060" lon="-8.371320"><ele>39.009</ele><time>2022-11-17T10:04:10Z</time></trkpt><trkpt lat="54.994430" lon="-8.366130"><ele>36.140</ele><time>2022-11-17T10:04:50Z</time></trkpt><trkpt lat="54.996150" lon="-8.365440"><ele>24.320</ele><time>2022-11-17T10:05:30Z</time></trkpt><trkpt lat="54.996890" lon="-8.357230"><ele>21.017</ele><time>2022-11-17T10:06:10Z</time></trkpt><trkpt lat="54.994600" lon="-8.343620"><ele>44.586</ele><time>2022-11-17T10:06:50Z</time></trkpt><trkpt lat="54.995070" lon="-8.338810"><ele>44.721</ele><time>2022-11-17T10:07:30Z</time></trkpt><trkpt lat="55.002250" lon="-8.320880"><ele>40.993</ele><time>2022-11-17T10:08:10Z</time></trkpt><trkpt lat="55.001840" lon="-8.309810"><ele>50.236</ele><time>2022-11-17T10:08:50Z</time></trkpt><trkpt lat="55.006070" lon="-8.296790"><ele>45.672</ele><time>2022-11-17T10:09:30Z</time></trkpt><trkpt lat="55.000720" lon="-8.290200"><ele>57.583</ele><time>2022-11-17T10:10:10Z</time></trkpt><trkpt lat="54.998300" lon="-8.290660"><ele>53.161</ele><time>2022-11-17T10:10:50Z</time></trkpt><trkpt lat="54.999030" lon="-8.287150"><ele>48.921</ele><time>2022-11-17T10:11:30Z</time></trkpt><trkpt lat="55.003760" lon="-8.283500"><ele>45.613</ele><time>2022-11-17T10:12:10Z</time></trkpt><trkpt lat="55.006800" lon="-8.277400"><ele>42.009</ele><time>2022-11-17T10:12:50Z</time></trkpt><trkpt lat="55.010980" lon="-8.276540"><ele>40.717</ele><time>2022-11-17T10:13:30Z</time></trkpt><trkpt lat="55.013790" lon="-8.272110"><ele>37.037</ele><time>2022-11-17T10:14:10Z</time></trkpt><trkpt lat="55.013050" lon="-8.260760"><ele>63.274</ele><time>2022-11-17T10:14:50Z</time></trkpt><trkpt lat="55.015440" lon="-8.254500"><ele>73.773</ele><time>2022-11-17T10:15:30Z</time></trkpt><trkpt lat="55.024430" lon="-8.261680"><ele>17.088</ele><time>2022-11-17T10:16:10Z</time></trkpt><trkpt lat="55.028290" lon="-8.260690"><ele>32.340</ele><time>2022-11-17T10:16:50Z</time></trkpt><trkpt lat="55.032860" lon="-8.254380"><ele>43.923</ele><time>2022-11-17T10:17:30Z</time></trkpt><trkpt lat="55.042870" lon="-8.252440"><ele>66.949</ele><time>2022-11-17T10:18:10Z</time></trkpt><trkpt lat="55.046910" lon="-8.245350"><ele>69.130</ele><time>2022-11-17T10:18:50Z</time></trkpt><trkpt lat="55.050050" lon="-8.231820"><ele>59.773</ele><time>2022-11-17T10:19:30Z</time></trkpt><trkpt lat="55.045300" lon="-8.200530"><ele>60.385</ele><time>2022-11-17T10:20:10Z</time></trkpt><trkpt lat="55.044660" lon="-8.182710"><ele>78.613</ele><time>2022-11-17T10:20:50Z</time></trkpt><trkpt lat="55.041800" lon="-8.168220"><ele>71.909</ele><time>2022-11-17T10:21:30Z</time></trkpt><trkpt lat="55.038290" lon="-8.155780"><ele>84.818</ele><time>2022-11-17T10:22:10Z</time></trkpt><trkpt lat="55.032390" lon="-8.145570"><ele>102.558</ele><time>2022-11-17T10:22:50Z</time></trkpt><trkpt lat="55.037720" lon="-8.144520"><ele>116.355</ele><time>2022-11-17T10:23:30Z</time></trkpt><trkpt lat="55.041360" lon="-8.136740"><ele>166.654</ele><time>2022-11-17T10:24:10Z</time></trkpt><trkpt lat="55.045190" lon="-8.139080"><ele>153.039</ele><time>2022-11-17T10:24:50Z</time></trkpt><trkpt lat="55.051810" lon="-8.130410"><ele>131.871</ele><time>2022-11-17T10:25:30Z</time></trkpt><trkpt lat="55.054670" lon="-8.132660"><ele>122.394</ele><time>2022-11-17T10:26:10Z</time></trkpt><trkpt lat="55.057120" lon="-8.130900"><ele>113.490</ele><time>2022-11-17T10:26:50Z</time></trkpt><trkpt lat="55.058700" lon="-8.125770"><ele>122.971</ele><time>2022-11-17T10:27:30Z</time></trkpt><trkpt lat="55.063230" lon="-8.127800"><ele>125.388</ele><time>2022-11-17T10:28:10Z</time></trkpt><trkpt lat="55.063070" lon="-8.131730"><ele>118.224</ele><time>2022-11-17T10:28:50Z</time></trkpt><trkpt lat="55.069150" lon="-8.131440"><ele>122.926</ele><time>2022-11-17T10:29:30Z</time></trkpt><trkpt lat="55.071450" lon="-8.123960"><ele>131.409</ele><time>2022-11-17T10:30:10Z</time></trkpt><trkpt lat="55.078560" lon="-8.115750"><ele>140.999</ele><time>2022-11-17T10:30:50Z</time></trkpt><trkpt lat="55.077360" lon="-8.109360"><ele>159.369</ele><time>2022-11-17T10:31:30Z</time></trkpt><trkpt lat="55.073730" lon="-8.105500"><ele>162.996</ele><time>2022-11-17T10:32:10Z</time></trkpt><trkpt lat="55.075000" lon="-8.102150"><ele>152.085</ele><time>2022-11-17T10:32:50Z</time></trkpt><trkpt lat="55.087800" lon="-8.097010"><ele>135.160</ele><time>2022-11-17T10:33:30Z</time></trkpt><trkpt lat="55.096160" lon="-8.099410"><ele>103.492</ele><time>2022-11-17T10:34:10Z</time></trkpt><trkpt lat="55.101600" lon="-8.094720"><ele>87.215</ele><time>2022-11-17T10:34:50Z</time></trkpt><trkpt lat="55.105330" lon="-8.087870"><ele>93.341</ele><time>2022-11-17T10:35:30Z</time></trkpt><trkpt lat="55.109690" lon="-8.091270"><ele>96.462</ele><time>2022-11-17T10:36:10Z</time></trkpt><trkpt lat="55.124390" lon="-8.087760"><ele>68.941</ele><time>2022-11-17T10:36:50Z</time></trkpt><trkpt lat="55.120540" lon="-8.082580"><ele>69.381</ele><time>2022-11-17T10:37:30Z</time></trkpt><trkpt lat="55.121380" lon="-8.078390"><ele>63.109</ele><time>2022-11-17T10:38:10Z</time></trkpt><trkpt lat="55.118110" lon="-8.069310"><ele>80.309</ele><time>2022-11-17T10:38:50Z</time></trkpt><trkpt lat="55.119980" lon="-8.066070"><ele>83.915</ele><time>2022-11-17T10:39:30Z</time></trkpt><trkpt lat="55.125100" lon="-8.064640"><ele>55.635</ele><time>2022-11-17T10:40:10Z</time></trkpt><trkpt lat="55.125790" lon="-8.059970"><ele>58.162</ele><time>2022-11-17T10:40:50Z</time></trkpt><trkpt lat="55.129870" lon="-8.063800"><ele>46.191</ele><time>2022-11-17T10:41:30Z</time></trkpt><trkpt lat="55.139970" lon="-8.064500"><ele>24.896</ele><time>2022-11-17T10:42:10Z</time></trkpt><trkpt lat="55.138970" lon="-8.061880"><ele>30.248</ele><time>2022-11-17T10:42:50Z</time></trkpt><trkpt lat="55.140280" lon="-8.053920"><ele>56.931</ele><time>2022-11-17T10:43:30Z</time></trkpt><trkpt lat="55.138640" lon="-8.050700"><ele>59.457</ele><time>2022-11-17T10:44:10Z</time></trkpt><trkpt lat="55.140380" lon="-8.047340"><ele>72.598</ele><time>2022-11-17T10:44:50Z</time></trkpt><trkpt lat="55.124740" lon="-8.035700"><ele>123.992</ele><time>2022-11-17T10:45:30Z</time></trkpt><trkpt lat="55.124430" lon="-8.031410"><ele>124.873</ele><time>2022-11-17T10:46:10Z</time></trkpt><trkpt lat="55.131690" lon="-8.015370"><ele>178.820</ele><time>2022-11-17T10:46:50Z</time></trkpt><trkpt lat="55.137210" lon="-8.007740"><ele>183.609</ele><time>2022-11-17T10:47:30Z</time></trkpt><trkpt lat="55.143400" lon="-7.990070"><ele>143.590</ele><time>2022-11-17T10:48:10Z</time></trkpt><trkpt lat="55.142230" lon="-7.981960"><ele>110.050</ele><time>2022-11-17T10:48:50Z</time></trkpt><trkpt lat="55.137180" lon="-7.980420"><ele>119.237</ele><time>2022-11-17T10:49:30Z</time></trkpt><trkpt lat="55.136210" lon="-7.972090"><ele>112.666</ele><time>2022-11-17T10:50:10Z</time></trkpt><trkpt lat="55.131770" lon="-7.976860"><ele>97.141</ele><time>2022-11-17T10:50:50Z</time></trkpt><trkpt lat="55.129290" lon="-7.975770"><ele>95.183</ele><time>2022-11-17T10:51:30Z</time></trkpt><trkpt lat="55.136610" lon="-7.936890"><ele>66.056</ele><time>2022-11-17T10:52:10Z</time></trkpt><trkpt lat="55.130540" lon="-7.939700"><ele>52.862</ele><time>2022-11-17T10:52:50Z</time></trkpt><trkpt lat="55.122090" lon="-7.937820"><ele>49.363</ele><time>2022-11-17T10:53:30Z</time></trkpt><trkpt lat="55.127920" lon="-7.913010"><ele>29.757</ele><time>2022-11-17T10:54:10Z</time></trkpt><trkpt lat="55.124460" lon="-7.911500"><ele>45.300</ele><time>2022-11-17T10:54:50Z</time></trkpt><trkpt lat="55.122500" lon="-7.907760"><ele>54.020</ele><time>2022-11-17T10:55:30Z</time></trkpt><trkpt lat="55.122500" lon="-7.907760"><ele>54.009</ele><time>2022-11-17T10:56:10Z</time></trkpt><trkpt lat="55.133250" lon="-7.887790"><ele>17.656</ele><time>2022-11-17T10:56:50Z</time></trkpt><trkpt lat="55.131830" lon="-7.884010"><ele>29.246</ele><time>2022-11-17T10:57:30Z</time></trkpt><trkpt lat="55.132950" lon="-7.880440"><ele>26.683</ele><time>2022-11-17T10:58:10Z</time></trkpt><trkpt lat="55.130140" lon="-7.877100"><ele>35.032</ele><time>2022-11-17T10:58:50Z</time></trkpt><trkpt lat="55.133130" lon="-7.869100"><ele>17.097</ele><time>2022-11-17T10:59:30Z</time></trkpt><trkpt lat="55.125710" lon="-7.869540"><ele>6.969</ele><time>2022-11-17T11:00:10Z</time></trkpt><trkpt lat="55.127630" lon="-7.857860"><ele>17.092</ele><time>2022-11-17T11:00:50Z</time></trkpt><trkpt lat="55.123682" lon="-7.842516"><ele>33.578</ele><time>2022-11-17T11:01:30Z</time></trkpt><trkpt lat="55.124700" lon="-7.821580"><ele>47.589</ele><time>2022-11-17T11:02:10Z</time></trkpt><trkpt lat="55.126360" lon="-7.811820"><ele>40.716</ele><time>2022-11-17T11:02:50Z</time></trkpt><trkpt lat="55.129960" lon="-7.805730"><ele>64.976</ele><time>2022-11-17T11:03:30Z</time></trkpt><trkpt lat="55.130570" lon="-7.797750"><ele>90.313</ele><time>2022-11-17T11:04:10Z</time></trkpt><trkpt lat="55.129780" lon="-7.793710"><ele>113.609</ele><time>2022-11-17T11:04:50Z</time></trkpt><trkpt lat="55.125850" lon="-7.790700"><ele>142.042</ele><time>2022-11-17T11:05:30Z</time></trkpt><trkpt lat="55.123140" lon="-7.784670"><ele>157.392</ele><time>2022-11-17T11:06:10Z</time></trkpt><trkpt lat="55.122060" lon="-7.775090"><ele>160.249</ele><time>2022-11-17T11:06:50Z</time></trkpt><trkpt lat="55.123300" lon="-7.773850"><ele>156.848</ele><time>2022-11-17T11:07:30Z</time></trkpt><trkpt lat="55.123050" lon="-7.769740"><ele>152.953</ele><time>2022-11-17T11:08:10Z</time></trkpt><trkpt lat="55.121340" lon="-7.765140"><ele>148.625</ele><time>2022-11-17T11:08:50Z</time></trkpt><trkpt lat="55.123930" lon="-7.757580"><ele>129.648</ele><time>2022-11-17T11:09:30Z</time></trkpt><trkpt lat="55.119780" lon="-7.751270"><ele>123.144</ele><time>2022-11-17T11:10:10Z</time></trkpt><trkpt lat="55.119090" lon="-7.745900"><ele>121.165</ele><time>2022-11-17T11:10:50Z</time></trkpt><trkpt lat="55.120790" lon="-7.738380"><ele>108.628</ele><time>2022-11-17T11:11:30Z</time></trkpt><trkpt lat="55.124960" lon="-7.733000"><ele>104.389</ele><time>2022-11-17T11:12:10Z</time></trkpt><trkpt lat="55.126600" lon="-7.727060"><ele>91.717</ele><time>2022-11-17T11:12:50Z</time></trkpt><trkpt lat="55.122950" lon="-7.723540"><ele>90.309</ele><time>2022-11-17T11:13:30Z</time></trkpt><trkpt lat="55.117040" lon="-7.723870"><ele>92.993</ele><time>2022-11-17T11:14:10Z</time></trkpt><trkpt lat="55.113850" lon="-7.717960"><ele>71.993</ele><time>2022-11-17T11:14:50Z</time></trkpt><trkpt lat="55.106570" lon="-7.719590"><ele>40.420</ele><time>2022-11-17T11:15:30Z</time></trkpt><trkpt lat="55.104730" lon="-7.712440"><ele>42.899</ele><time>2022-11-17T11:16:10Z</time></trkpt><trkpt lat="55.098840" lon="-7.715910"><ele>3.974</ele><time>2022-11-17T11:16:50Z</time></trkpt><trkpt lat="55.096020" lon="-7.705400"><ele>47.876</ele><time>2022-11-17T11:17:30Z</time></trkpt><trkpt lat="55.092360" lon="-7.706100"><ele>45.519</ele><time>2022-11-17T11:18:10Z</time></trkpt><trkpt lat="55.089600" lon="-7.699600"><ele>55.715</ele><time>2022-11-17T11:18:50Z</time></trkpt><trkpt lat="55.095360" lon="-7.688300"><ele>42.046</ele><time>2022-11-17T11:19:30Z</time></trkpt><trkpt lat="55.090950" lon="-7.685080"><ele>39.868</ele><time>2022-11-17T11:20:10Z</time></trkpt><trkpt lat="55.086420" lon="-7.686260"><ele>45.642</ele><time>2022-11-17T11:20:50Z</time></trkpt><trkpt lat="55.082770" lon="-7.681170"><ele>67.826</ele><time>2022-11-17T11:21:30Z</time></trkpt><trkpt lat="55.076880" lon="-7.679820"><ele>62.609</ele><time>2022-11-17T11:22:10Z</time></trkpt><trkpt lat="55.071560" lon="-7.669790"><ele>94.767</ele><time>2022-11-17T11:22:50Z</time></trkpt><trkpt lat="55.064770" lon="-7.666100"><ele>61.397</ele><time>2022-11-17T11:23:30Z</time></trkpt><trkpt lat="55.066220" lon="-7.657340"><ele>53.464</ele><time>2022-11-17T11:24:10Z</time></trkpt><trkpt lat="55.064370" lon="-7.649050"><ele>43.283</ele><time>2022-11-17T11:24:50Z</time></trkpt><trkpt lat="55.059360" lon="-7.644260"><ele>42.648</ele><time>2022-11-17T11:25:30Z</time></trkpt><trkpt lat="55.049510" lon="-7.647890"><ele>23.850</ele><time>2022-11-17T11:26:10Z</time></trkpt><trkpt lat="55.044090" lon="-7.645400"><ele>16.723</ele><time>2022-11-17T11:26:50Z</time></trkpt><trkpt lat="55.037060" lon="-7.652210"><ele>10.719</ele><time>2022-11-17T11:27:30Z</time></trkpt><trkpt lat="55.036990" lon="-7.645470"><ele>13.770</ele><time>2022-11-17T11:28:10Z</time></trkpt><trkpt lat="55.033400" lon="-7.638430"><ele>24.459</ele><time>2022-11-17T11:28:50Z</time></trkpt><trkpt lat="55.024290" lon="-7.632400"><ele>54.903</ele><time>2022-11-17T11:29:30Z</time></trkpt><trkpt lat="55.022100" lon="-7.619630"><ele>79.023</ele><time>2022-11-17T11:30:10Z</time></trkpt><trkpt lat="55.023560" lon="-7.616950"><ele>86.209</ele><time>2022-11-17T11:30:50Z</time></trkpt><trkpt lat="55.019070" lon="-7.613010"><ele>108.516</ele><time>2022-11-17T11:31:30Z</time></trkpt><trkpt lat="55.013000" lon="-7.611670"><ele>70.066</ele><time>2022-11-17T11:32:10Z</time></trkpt><trkpt lat="55.008530" lon="-7.620050"><ele>51.343</ele><time>2022-11-17T11:32:50Z</time></trkpt><trkpt lat="55.001210" lon="-7.645260"><ele>53.672</ele><time>2022-11-17T11:33:30Z</time></trkpt><trkpt lat="54.988070" lon="-7.656490"><ele>29.167</ele><time>2022-11-17T11:34:10Z</time></trkpt><trkpt lat="54.985740" lon="-7.666500"><ele>53.749</ele><time>2022-11-17T11:34:50Z</time></trkpt><trkpt lat="54.973750" lon="-7.670980"><ele>77.532</ele><time>2022-11-17T11:35:30Z</time></trkpt><trkpt lat="54.970610" lon="-7.674990"><ele>62.618</ele><time>2022-11-17T11:36:10Z</time></trkpt><trkpt lat="54.963980" lon="-7.698730"><ele>69.389</ele><time>2022-11-17T11:36:50Z</time></trkpt><trkpt lat="54.961470" lon="-7.699880"><ele>43.359</ele><time>2022-11-17T11:37:30Z</time></trkpt><trkpt lat="54.959470" lon="-7.710150"><ele>20.503</ele><time>2022-11-17T11:38:10Z</time></trkpt><trkpt lat="54.955600" lon="-7.708400"><ele>11.523</ele><time>2022-11-17T11:38:50Z</time></trkpt><trkpt lat="54.953100" lon="-7.709900"><ele>9.109</ele><time>2022-11-17T11:39:30Z</time></trkpt><trkpt lat="54.947340" lon="-7.718270"><ele>1.646</ele><time>2022-11-17T11:40:10Z</time></trkpt><trkpt lat="54.946190" lon="-7.728750"><ele>2.086</ele><time>2022-11-17T11:40:50Z</time></trkpt><trkpt lat="54.947480" lon="-7.731220"><ele>3.063</ele><time>2022-11-17T11:41:30Z</time></trkpt><trkpt lat="54.947480" lon="-7.731220"><ele>3.082</ele><time>2022-11-17T11:42:10Z</time></trkpt><trkpt lat="54.948810" lon="-7.734430"><ele>4.037</ele><time>2022-11-17T11:42:50Z</time></trkpt><trkpt lat="54.945460" lon="-7.740650"><ele>2.459</ele><time>2022-11-17T11:43:30Z</time></trkpt><trkpt lat="54.941150" lon="-7.738860"><ele>5.042</ele><time>2022-11-17T11:44:10Z</time></trkpt><trkpt lat="54.942540" lon="-7.730910"><ele>8.038</ele><time>2022-11-17T11:44:50Z</time></trkpt><trkpt lat="54.940210" lon="-7.700520"><ele>6.959</ele><time>2022-11-17T11:45:30Z</time></trkpt><trkpt lat="54.946760" lon="-7.667810"><ele>26.282</ele><time>2022-11-17T11:46:10Z</time></trkpt><trkpt lat="54.950310" lon="-7.665130"><ele>23.843</ele><time>2022-11-17T11:46:50Z</time></trkpt><trkpt lat="54.951370" lon="-7.660860"><ele>30.017</ele><time>2022-11-17T11:47:30Z</time></trkpt><trkpt lat="54.948950" lon="-7.652800"><ele>29.509</ele><time>2022-11-17T11:48:10Z</time></trkpt><trkpt lat="54.942890" lon="-7.650790"><ele>14.539</ele><time>2022-11-17T11:48:50Z</time></trkpt><trkpt lat="54.939140" lon="-7.637920"><ele>8.019</ele><time>2022-11-17T11:49:30Z</time></trkpt><trkpt lat="54.939260" lon="-7.633730"><ele>2.276</ele><time>2022-11-17T11:50:10Z</time></trkpt><trkpt lat="54.942050" lon="-7.629730"><ele>11.815</ele><time>2022-11-17T11:50:50Z</time></trkpt><trkpt lat="54.952350" lon="-7.621640"><ele>49.060</ele><time>2022-11-17T11:51:30Z</time></trkpt><trkpt lat="54.950850" lon="-7.611790"><ele>87.672</ele><time>2022-11-17T11:52:10Z</time></trkpt><trkpt lat="54.947620" lon="-7.602910"><ele>85.165</ele><time>2022-11-17T11:52:50Z</time></trkpt><trkpt lat="54.947840" lon="-7.597010"><ele>87.771</ele><time>2022-11-17T11:53:30Z</time></trkpt><trkpt lat="54.945260" lon="-7.592250"><ele>74.812</ele><time>2022-11-17T11:54:10Z</time></trkpt><trkpt lat="54.961280" lon="-7.578820"><ele>80.487</ele><time>2022-11-17T11:54:50Z</time></trkpt><trkpt lat="54.966000" lon="-7.570840"><ele>75.442</ele><time>2022-11-17T11:55:30Z</time></trkpt><trkpt lat="54.966040" lon="-7.574740"><ele>78.326</ele><time>2022-11-17T11:56:10Z</time></trkpt><trkpt lat="54.969380" lon="-7.583310"><ele>78.709</ele><time>2022-11-17T11:56:50Z</time></trkpt><trkpt lat="54.979820" lon="-7.599260"><ele>46.689</ele><time>2022-11-17T11:57:30Z</time></trkpt><trkpt lat="54.980980" lon="-7.598500"><ele>42.319</ele><time>2022-11-17T11:58:10Z</time></trkpt><trkpt lat="54.991380" lon="-7.586710"><ele>37.716</ele><time>2022-11-17T11:58:50Z</time></trkpt><trkpt lat="55.000070" lon="-7.572390"><ele>27.765</ele><time>2022-11-17T11:59:30Z</time></trkpt><trkpt lat="55.001850" lon="-7.562380"><ele>52.350</ele><time>2022-11-17T12:00:10Z</time></trkpt><trkpt lat="55.006210" lon="-7.556300"><ele>37.332</ele><time>2022-11-17T12:00:50Z</time></trkpt><trkpt lat="54.995970" lon="-7.524090"><ele>4.025</ele><time>2022-11-17T12:01:30Z</time></trkpt><trkpt lat="54.996880" lon="-7.512010"><ele>9.821</ele><time>2022-11-17T12:02:10Z</time></trkpt><trkpt lat="54.998700" lon="-7.510270"><ele>4.012</ele><time>2022-11-17T12:02:50Z</time></trkpt><trkpt lat="55.002020" lon="-7.513930"><ele>0.113</ele><time>2022-11-17T12:03:30Z</time></trkpt><trkpt lat="55.004940" lon="-7.509950"><ele>2.043</ele><time>2022-11-17T12:04:10Z</time></trkpt><trkpt lat="55.009670" lon="-7.516850"><ele>1.707</ele><time>2022-11-17T12:04:50Z</time></trkpt><trkpt lat="55.015880" lon="-7.505360"><ele>2.409</ele><time>2022-11-17T12:05:30Z</time></trkpt><trkpt lat="55.019770" lon="-7.508570"><ele>2.392</ele><time>2022-11-17T12:06:10Z</time></trkpt><trkpt lat="55.022360" lon="-7.504410"><ele>13.692</ele><time>2022-11-17T12:06:50Z</time></trkpt><trkpt lat="55.024980" lon="-7.510520"><ele>15.029</ele><time>2022-11-17T12:07:30Z</time></trkpt><trkpt lat="55.026940" lon="-7.509500"><ele>20.858</ele><time>2022-11-17T12:08:10Z</time></trkpt><trkpt lat="55.033400" lon="-7.513670"><ele>30.823</ele><time>2022-11-17T12:08:50Z</time></trkpt><trkpt lat="55.034490" lon="-7.512190"><ele>34.785</ele><time>2022-11-17T12:09:30Z</time></trkpt><trkpt lat="55.037270" lon="-7.503270"><ele>30.368</ele><time>2022-11-17T12:10:10Z</time></trkpt><trkpt lat="55.033250" lon="-7.498860"><ele>38.914</ele><time>2022-11-17T12:10:50Z</time></trkpt><trkpt lat="55.031340" lon="-7.488840"><ele>12.525</ele><time>2022-11-17T12:11:30Z</time></trkpt><trkpt lat="55.023770" lon="-7.488740"><ele>9.018</ele><time>2022-11-17T12:12:10Z</time></trkpt><trkpt lat="55.017500" lon="-7.479250"><ele>12.098</ele><time>2022-11-17T12:12:50Z</time></trkpt><trkpt lat="55.016020" lon="-7.470810"><ele>48.717</ele><time>2022-11-17T12:13:30Z</time></trkpt><trkpt lat="55.012050" lon="-7.469080"><ele>83.609</ele><time>2022-11-17T12:14:10Z</time></trkpt><trkpt lat="55.009090" lon="-7.459810"><ele>115.172</ele><time>2022-11-17T12:14:50Z</time></trkpt><trkpt lat="55.009380" lon="-7.444770"><ele>137.182</ele><time>2022-11-17T12:15:30Z</time></trkpt><trkpt lat="55.008280" lon="-7.442150"><ele>148.689</ele><time>2022-11-17T12:16:10Z</time></trkpt><trkpt lat="55.011480" lon="-7.431710"><ele>135.818</ele><time>2022-11-17T12:16:50Z</time></trkpt><trkpt lat="55.025320" lon="-7.434060"><ele>168.683</ele><time>2022-11-17T12:17:30Z</time></trkpt><trkpt lat="55.030980" lon="-7.431190"><ele>117.385</ele><time>2022-11-17T12:18:10Z</time></trkpt><trkpt lat="55.035130" lon="-7.423530"><ele>92.938</ele><time>2022-11-17T12:18:50Z</time></trkpt><trkpt lat="55.027990" lon="-7.409030"><ele>130.714</ele><time>2022-11-17T12:19:30Z</time></trkpt><trkpt lat="55.030510" lon="-7.402010"><ele>95.435</ele><time>2022-11-17T12:20:10Z</time></trkpt><trkpt lat="55.032580" lon="-7.402220"><ele>92.437</ele><time>2022-11-17T12:20:50Z</time></trkpt><trkpt lat="55.038250" lon="-7.385490"><ele>21.549</ele><time>2022-11-17T12:21:30Z</time></trkpt><trkpt lat="55.034760" lon="-7.370320"><ele>23.613</ele><time>2022-11-17T12:22:10Z</time></trkpt><trkpt lat="55.038300" lon="-7.384420"><ele>14.909</ele><time>2022-11-17T12:22:50Z</time></trkpt><trkpt lat="55.030410" lon="-7.355280"><ele>24.584</ele><time>2022-11-17T12:23:30Z</time></trkpt><trkpt lat="55.008620" lon="-7.325890"><ele>31.234</ele><time>2022-11-17T12:24:10Z</time></trkpt><trkpt lat="55.011120" lon="-7.320520"><ele>9.941</ele><time>2022-11-17T12:24:50Z</time></trkpt><trkpt lat="55.009240" lon="-7.316620"><ele>3.370</ele><time>2022-11-17T12:25:30Z</time></trkpt><trkpt lat="55.004310" lon="-7.320980"><ele>4.525</ele><time>2022-11-17T12:26:10Z</time></trkpt><trkpt lat="54.995150" lon="-7.315760"><ele>1.547</ele><time>2022-11-17T12:26:50Z</time></trkpt><trkpt lat="54.992560" lon="-7.317220"><ele>1.070</ele><time>2022-11-17T12:27:30Z</time></trkpt><trkpt lat="54.988520" lon="-7.326620"><ele>0.796</ele><time>2022-11-17T12:28:10Z</time></trkpt><trkpt lat="54.986320" lon="-7.343310"><ele>1.837</ele><time>2022-11-17T12:28:50Z</time></trkpt><trkpt lat="54.983760" lon="-7.350100"><ele>8.223</ele><time>2022-11-17T12:29:30Z</time></trkpt><trkpt lat="54.976900" lon="-7.358510"><ele>6.483</ele><time>2022-11-17T12:30:10Z</time></trkpt><trkpt lat="54.965570" lon="-7.365950"><ele>7.911</ele><time>2022-11-17T12:30:50Z</time></trkpt><trkpt lat="54.960510" lon="-7.377430"><ele>3.209</ele><time>2022-11-17T12:31:30Z</time></trkpt><trkpt lat="54.951210" lon="-7.388740"><ele>2.783</ele><time>2022-11-17T12:32:10Z</time></trkpt><trkpt lat="54.954930" lon="-7.393910"><ele>36.973</ele><time>2022-11-17T12:32:50Z</time></trkpt><trkpt lat="54.951420" lon="-7.405470"><ele>32.070</ele><time>2022-11-17T12:33:30Z</time></trkpt><trkpt lat="54.950740" lon="-7.430550"><ele>7.749</ele><time>2022-11-17T12:34:10Z</time></trkpt><trkpt lat="54.955760" lon="-7.453080"><ele>20.714</ele><time>2022-11-17T12:34:50Z</time></trkpt><trkpt lat="54.957730" lon="-7.472710"><ele>27.136</ele><time>2022-11-17T12:35:30Z</time></trkpt><trkpt lat="54.940770" lon="-7.468780"><ele>30.569</ele><time>2022-11-17T12:36:10Z</time></trkpt><trkpt lat="54.935870" lon="-7.461350"><ele>6.045</ele><time>2022-11-17T12:36:50Z</time></trkpt><trkpt lat="54.921850" lon="-7.467940"><ele>8.786</ele><time>2022-11-17T12:37:30Z</time></trkpt><trkpt lat="54.894410" lon="-7.485190"><ele>41.178</ele><time>2022-11-17T12:38:10Z</time></trkpt><trkpt lat="54.877830" lon="-7.491380"><ele>0.833</ele><time>2022-11-17T12:38:50Z</time></trkpt><trkpt lat="54.876330" lon="-7.501210"><ele>3.226</ele><time>2022-11-17T12:39:30Z</time></trkpt><trkpt lat="54.866180" lon="-7.506240"><ele>17.309</ele><time>2022-11-17T12:40:10Z</time></trkpt><trkpt lat="54.861880" lon="-7.515330"><ele>44.258</ele><time>2022-11-17T12:40:50Z</time></trkpt><trkpt lat="54.856110" lon="-7.522450"><ele>46.268</ele><time>2022-11-17T12:41:30Z</time></trkpt><trkpt lat="54.849610" lon="-7.526880"><ele>18.235</ele><time>2022-11-17T12:42:10Z</time></trkpt><trkpt lat="54.844790" lon="-7.526470"><ele>4.064</ele><time>2022-11-17T12:42:50Z</time></trkpt><trkpt lat="54.837550" lon="-7.536150"><ele>45.089</ele><time>2022-11-17T12:43:30Z</time></trkpt><trkpt lat="54.837350" lon="-7.532310"><ele>60.831</ele><time>2022-11-17T12:44:10Z</time></trkpt><trkpt lat="54.834630" lon="-7.529540"><ele>67.264</ele><time>2022-11-17T12:44:50Z</time></trkpt><trkpt lat="54.835330" lon="-7.515320"><ele>86.860</ele><time>2022-11-17T12:45:30Z</time></trkpt><trkpt lat="54.837830" lon="-7.505220"><ele>83.271</ele><time>2022-11-17T12:46:10Z</time></trkpt><trkpt lat="54.836990" lon="-7.500860"><ele>76.698</ele><time>2022-11-17T12:46:50Z</time></trkpt><trkpt lat="54.835110" lon="-7.499270"><ele>74.215</ele><time>2022-11-17T12:47:30Z</time></trkpt><trkpt lat="54.835580" lon="-7.488160"><ele>17.026</ele><time>2022-11-17T12:48:10Z</time></trkpt><trkpt lat="54.832920" lon="-7.482240"><ele>6.109</ele><time>2022-11-17T12:48:50Z</time></trkpt><trkpt lat="54.831830" lon="-7.483620"><ele>8.410</ele><time>2022-11-17T12:49:30Z</time></trkpt><trkpt lat="54.831830" lon="-7.483620"><ele>8.450</ele><time>2022-11-17T12:50:10Z</time></trkpt><trkpt lat="54.826320" lon="-7.462980"><ele>7.537</ele><time>2022-11-17T12:50:50Z</time></trkpt><trkpt lat="54.821206" lon="-7.455682"><ele>13.586</ele><time>2022-11-17T12:51:30Z</time></trkpt><trkpt lat="54.814181" lon="-7.454291"><ele>9.681</ele><time>2022-11-17T12:52:10Z</time></trkpt><trkpt lat="54.812102" lon="-7.449371"><ele>29.193</ele><time>2022-11-17T12:52:50Z</time></trkpt><trkpt lat="54.803093" lon="-7.447451"><ele>86.286</ele><time>2022-11-17T12:53:30Z</time></trkpt><trkpt lat="54.789357" lon="-7.449206"><ele>95.422</ele><time>2022-11-17T12:54:10Z</time></trkpt><trkpt lat="54.783922" lon="-7.443417"><ele>94.943</ele><time>2022-11-17T12:54:50Z</time></trkpt><trkpt lat="54.783211" lon="-7.431001"><ele>146.888</ele><time>2022-11-17T12:55:30Z</time></trkpt><trkpt lat="54.778649" lon="-7.427832"><ele>142.224</ele><time>2022-11-17T12:56:10Z</time></trkpt><trkpt lat="54.777522" lon="-7.415813"><ele>134.626</ele><time>2022-11-17T12:56:50Z</time></trkpt><trkpt lat="54.778308" lon="-7.402333"><ele>134.009</ele><time>2022-11-17T12:57:30Z</time></trkpt><trkpt lat="54.776157" lon="-7.389291"><ele>114.329</ele><time>2022-11-17T12:58:10Z</time></trkpt><trkpt lat="54.780752" lon="-7.384904"><ele>137.739</ele><time>2022-11-17T12:58:50Z</time></trkpt><trkpt lat="54.782677" lon="-7.378189"><ele>147.656</ele><time>2022-11-17T12:59:30Z</time></trkpt><trkpt lat="54.760625" lon="-7.360824"><ele>139.695</ele><time>2022-11-17T13:00:10Z</time></trkpt><trkpt lat="54.753956" lon="-7.357975"><ele>116.320</ele><time>2022-11-17T13:00:50Z</time></trkpt><trkpt lat="54.755116" lon="-7.352359"><ele>119.692</ele><time>2022-11-17T13:01:30Z</time></trkpt><trkpt lat="54.750519" lon="-7.331420"><ele>108.085</ele><time>2022-11-17T13:02:10Z</time></trkpt><trkpt lat="54.747341" lon="-7.327383"><ele>101.331</ele><time>2022-11-17T13:02:50Z</time></trkpt><trkpt lat="54.751241" lon="-7.315461"><ele>105.582</ele><time>2022-11-17T13:03:30Z</time></trkpt><trkpt lat="54.751444" lon="-7.308005"><ele>93.441</ele><time>2022-11-17T13:04:10Z</time></trkpt><trkpt lat="54.755306" lon="-7.309010"><ele>112.581</ele><time>2022-11-17T13:04:50Z</time></trkpt><trkpt lat="54.758003" lon="-7.305270"><ele>105.009</ele><time>2022-11-17T13:05:30Z</time></trkpt><trkpt lat="54.764604" lon="-7.302210"><ele>123.609</ele><time>2022-11-17T13:06:10Z</time></trkpt><trkpt lat="54.759029" lon="-7.298295"><ele>106.565</ele><time>2022-11-17T13:06:50Z</time></trkpt><trkpt lat="54.756546" lon="-7.292226"><ele>88.785</ele><time>2022-11-17T13:07:30Z</time></trkpt><trkpt lat="54.761859" lon="-7.270591"><ele>116.822</ele><time>2022-11-17T13:08:10Z</time></trkpt><trkpt lat="54.767738" lon="-7.263871"><ele>134.451</ele><time>2022-11-17T13:08:50Z</time></trkpt><trkpt lat="54.768023" lon="-7.249090"><ele>94.636</ele><time>2022-11-17T13:09:30Z</time></trkpt><trkpt lat="54.766294" lon="-7.245833"><ele>100.018</ele><time>2022-11-17T13:10:10Z</time></trkpt><trkpt lat="54.745251" lon="-7.243238"><ele>171.221</ele><time>2022-11-17T13:10:50Z</time></trkpt><trkpt lat="54.744103" lon="-7.245312"><ele>150.817</ele><time>2022-11-17T13:11:30Z</time></trkpt><trkpt lat="54.742719" lon="-7.237708"><ele>167.838</ele><time>2022-11-17T13:12:10Z</time></trkpt><trkpt lat="54.744433" lon="-7.225351"><ele>194.959</ele><time>2022-11-17T13:12:50Z</time></trkpt><trkpt lat="54.742226" lon="-7.215734"><ele>189.403</ele><time>2022-11-17T13:13:30Z</time></trkpt><trkpt lat="54.734970" lon="-7.219774"><ele>146.923</ele><time>2022-11-17T13:14:10Z</time></trkpt><trkpt lat="54.727127" lon="-7.232265"><ele>96.509</ele><time>2022-11-17T13:14:50Z</time></trkpt><trkpt lat="54.724315" lon="-7.224372"><ele>92.076</ele><time>2022-11-17T13:15:30Z</time></trkpt><trkpt lat="54.723237" lon="-7.216352"><ele>92.436</ele><time>2022-11-17T13:16:10Z</time></trkpt><trkpt lat="54.724734" lon="-7.201459"><ele>112.253</ele><time>2022-11-17T13:16:50Z</time></trkpt><trkpt lat="54.732517" lon="-7.167998"><ele>111.842</ele><time>2022-11-17T13:17:30Z</time></trkpt><trkpt lat="54.730100" lon="-7.157497"><ele>124.597</ele><time>2022-11-17T13:18:10Z</time></trkpt><trkpt lat="54.730884" lon="-7.150262"><ele>150.259</ele><time>2022-11-17T13:18:50Z</time></trkpt><trkpt lat="54.732557" lon="-7.149399"><ele>151.042</ele><time>2022-11-17T13:19:30Z</time></trkpt><trkpt lat="54.729289" lon="-7.142986"><ele>133.358</ele><time>2022-11-17T13:20:10Z</time></trkpt><trkpt lat="54.731147" lon="-7.130747"><ele>163.299</ele><time>2022-11-17T13:20:50Z</time></trkpt><trkpt lat="54.731604" lon="-7.106067"><ele>126.568</ele><time>2022-11-17T13:21:30Z</time></trkpt><trkpt lat="54.727854" lon="-7.089290"><ele>161.642</ele><time>2022-11-17T13:22:10Z</time></trkpt><trkpt lat="54.729087" lon="-7.076181"><ele>159.526</ele><time>2022-11-17T13:22:50Z</time></trkpt><trkpt lat="54.728315" lon="-7.066976"><ele>141.009</ele><time>2022-11-17T13:23:30Z</time></trkpt><trkpt lat="54.724540" lon="-7.066319"><ele>136.467</ele><time>2022-11-17T13:24:10Z</time></trkpt><trkpt lat="54.713663" lon="-7.054124"><ele>148.757</ele><time>2022-11-17T13:24:50Z</time></trkpt><trkpt lat="54.709623" lon="-7.045375"><ele>150.954</ele><time>2022-11-17T13:25:30Z</time></trkpt><trkpt lat="54.699433" lon="-7.033926"><ele>155.773</ele><time>2022-11-17T13:26:10Z</time></trkpt><trkpt lat="54.703311" lon="-7.001969"><ele>171.868</ele><time>2022-11-17T13:26:50Z</time></trkpt><trkpt lat="54.702555" lon="-6.987924"><ele>185.580</ele><time>2022-11-17T13:27:30Z</time></trkpt><trkpt lat="54.699410" lon="-6.985252"><ele>179.033</ele><time>2022-11-17T13:28:10Z</time></trkpt><trkpt lat="54.694816" lon="-6.974228"><ele>158.339</ele><time>2022-11-17T13:28:50Z</time></trkpt><trkpt lat="54.688341" lon="-6.974177"><ele>176.050</ele><time>2022-11-17T13:29:30Z</time></trkpt><trkpt lat="54.684192" lon="-6.968686"><ele>172.099</ele><time>2022-11-17T13:30:10Z</time></trkpt><trkpt lat="54.690083" lon="-6.961538"><ele>198.507</ele><time>2022-11-17T13:30:50Z</time></trkpt><trkpt lat="54.690529" lon="-6.952349"><ele>200.527</ele><time>2022-11-17T13:31:30Z</time></trkpt><trkpt lat="54.693471" lon="-6.944901"><ele>191.209</ele><time>2022-11-17T13:32:10Z</time></trkpt><trkpt lat="54.695063" lon="-6.935049"><ele>196.640</ele><time>2022-11-17T13:32:50Z</time></trkpt><trkpt lat="54.681381" lon="-6.943274"><ele>158.910</ele><time>2022-11-17T13:33:30Z</time></trkpt><trkpt lat="54.680747" lon="-6.906905"><ele>204.877</ele><time>2022-11-17T13:34:10Z</time></trkpt><trkpt lat="54.673431" lon="-6.897278"><ele>210.926</ele><time>2022-11-17T13:34:50Z</time></trkpt><trkpt lat="54.667637" lon="-6.877547"><ele>159.521</ele><time>2022-11-17T13:35:30Z</time></trkpt><trkpt lat="54.662029" lon="-6.865971"><ele>128.673</ele><time>2022-11-17T13:36:10Z</time></trkpt><trkpt lat="54.662582" lon="-6.859277"><ele>130.066</ele><time>2022-11-17T13:36:50Z</time></trkpt><trkpt lat="54.655025" lon="-6.848965"><ele>131.442</ele><time>2022-11-17T13:37:30Z</time></trkpt><trkpt lat="54.656940" lon="-6.834723"><ele>106.953</ele><time>2022-11-17T13:38:10Z</time></trkpt><trkpt lat="54.661142" lon="-6.834237"><ele>97.135</ele><time>2022-11-17T13:38:50Z</time></trkpt><trkpt lat="54.656695" lon="-6.808629"><ele>108.186</ele><time>2022-11-17T13:39:30Z</time></trkpt><trkpt lat="54.649443" lon="-6.805493"><ele>87.014</ele><time>2022-11-17T13:40:10Z</time></trkpt><trkpt lat="54.650297" lon="-6.794022"><ele>72.409</ele><time>2022-11-17T13:40:50Z</time></trkpt><trkpt lat="54.645278" lon="-6.778083"><ele>52.064</ele><time>2022-11-17T13:41:30Z</time></trkpt><trkpt lat="54.643653" lon="-6.763880"><ele>83.814</ele><time>2022-11-17T13:42:10Z</time></trkpt><trkpt lat="54.644437" lon="-6.744721"><ele>75.051</ele><time>2022-11-17T13:42:50Z</time></trkpt><trkpt lat="54.642553" lon="-6.741851"><ele>68.510</ele><time>2022-11-17T13:43:30Z</time></trkpt><trkpt lat="54.639807" lon="-6.737151"><ele>64.485</ele><time>2022-11-17T13:44:10Z</time></trkpt><trkpt lat="54.640687" lon="-6.721127"><ele>58.517</ele><time>2022-11-17T13:44:50Z</time></trkpt><trkpt lat="54.638493" lon="-6.718270"><ele>48.160</ele><time>2022-11-17T13:45:30Z</time></trkpt><trkpt lat="54.637147" lon="-6.710963"><ele>53.566</ele><time>2022-11-17T13:46:10Z</time></trkpt><trkpt lat="54.628559" lon="-6.707022"><ele>35.467</ele><time>2022-11-17T13:46:50Z</time></trkpt><trkpt lat="54.626514" lon="-6.701280"><ele>36.845</ele><time>2022-11-17T13:47:30Z</time></trkpt><trkpt lat="54.627564" lon="-6.696253"><ele>41.947</ele><time>2022-11-17T13:48:10Z</time></trkpt><trkpt lat="54.625544" lon="-6.688569"><ele>40.211</ele><time>2022-11-17T13:48:50Z</time></trkpt><trkpt lat="54.619841" lon="-6.681138"><ele>40.809</ele><time>2022-11-17T13:49:30Z</time></trkpt><trkpt lat="54.612076" lon="-6.683569"><ele>41.985</ele><time>2022-11-17T13:50:10Z</time></trkpt><trkpt lat="54.606704" lon="-6.675530"><ele>44.175</ele><time>2022-11-17T13:50:50Z</time></trkpt><trkpt lat="54.601683" lon="-6.663890"><ele>42.152</ele><time>2022-11-17T13:51:30Z</time></trkpt><trkpt lat="54.599451" lon="-6.655133"><ele>74.961</ele><time>2022-11-17T13:52:10Z</time></trkpt><trkpt lat="54.599763" lon="-6.649036"><ele>81.226</ele><time>2022-11-17T13:52:50Z</time></trkpt><trkpt lat="54.594874" lon="-6.639885"><ele>77.578</ele><time>2022-11-17T13:53:30Z</time></trkpt><trkpt lat="54.592826" lon="-6.628371"><ele>93.131</ele><time>2022-11-17T13:54:10Z</time></trkpt><trkpt lat="54.590410" lon="-6.631579"><ele>83.277</ele><time>2022-11-17T13:54:50Z</time></trkpt><trkpt lat="54.584549" lon="-6.629241"><ele>57.248</ele><time>2022-11-17T13:55:30Z</time></trkpt><trkpt lat="54.578382" lon="-6.630176"><ele>56.831</ele><time>2022-11-17T13:56:10Z</time></trkpt><trkpt lat="54.573721" lon="-6.633779"><ele>64.461</ele><time>2022-11-17T13:56:50Z</time></trkpt><trkpt lat="54.571998" lon="-6.628768"><ele>70.507</ele><time>2022-11-17T13:57:30Z</time></trkpt><trkpt lat="54.567127" lon="-6.623127"><ele>59.009</ele><time>2022-11-17T13:58:10Z</time></trkpt><trkpt lat="54.557652" lon="-6.620113"><ele>34.464</ele><time>2022-11-17T13:58:50Z</time></trkpt><trkpt lat="54.554790" lon="-6.612598"><ele>21.264</ele><time>2022-11-17T13:59:30Z</time></trkpt><trkpt lat="54.538870" lon="-6.610872"><ele>11.141</ele><time>2022-11-17T14:00:10Z</time></trkpt><trkpt lat="54.534494" lon="-6.612512"><ele>15.920</ele><time>2022-11-17T14:00:50Z</time></trkpt><trkpt lat="54.531143" lon="-6.609208"><ele>13.075</ele><time>2022-11-17T14:01:30Z</time></trkpt><trkpt lat="54.512725" lon="-6.577446"><ele>13.847</ele><time>2022-11-17T14:02:10Z</time></trkpt><trkpt lat="54.512662" lon="-6.574199"><ele>14.460</ele><time>2022-11-17T14:02:50Z</time></trkpt><trkpt lat="54.508003" lon="-6.568842"><ele>13.066</ele><time>2022-11-17T14:03:30Z</time></trkpt><trkpt lat="54.505486" lon="-6.557298"><ele>22.017</ele><time>2022-11-17T14:04:10Z</time></trkpt><trkpt lat="54.502604" lon="-6.552302"><ele>14.113</ele><time>2022-11-17T14:04:50Z</time></trkpt><trkpt lat="54.503415" lon="-6.525927"><ele>12.443</ele><time>2022-11-17T14:05:30Z</time></trkpt><trkpt lat="54.501345" lon="-6.526705"><ele>17.207</ele><time>2022-11-17T14:06:10Z</time></trkpt><trkpt lat="54.498012" lon="-6.520651"><ele>22.909</ele><time>2022-11-17T14:06:50Z</time></trkpt><trkpt lat="54.494135" lon="-6.520205"><ele>27.572</ele><time>2022-11-17T14:07:30Z</time></trkpt><trkpt lat="54.495402" lon="-6.507208"><ele>22.632</ele><time>2022-11-17T14:08:10Z</time></trkpt><trkpt lat="54.494220" lon="-6.501581"><ele>15.919</ele><time>2022-11-17T14:08:50Z</time></trkpt><trkpt lat="54.490603" lon="-6.495626"><ele>16.078</ele><time>2022-11-17T14:09:30Z</time></trkpt><trkpt lat="54.485822" lon="-6.492828"><ele>12.033</ele><time>2022-11-17T14:10:10Z</time></trkpt><trkpt lat="54.480412" lon="-6.496121"><ele>13.025</ele><time>2022-11-17T14:10:50Z</time></trkpt><trkpt lat="54.476635" lon="-6.477216"><ele>21.028</ele><time>2022-11-17T14:11:30Z</time></trkpt><trkpt lat="54.470954" lon="-6.479366"><ele>16.644</ele><time>2022-11-17T14:12:10Z</time></trkpt><trkpt lat="54.468444" lon="-6.476264"><ele>16.535</ele><time>2022-11-17T14:12:50Z</time></trkpt><trkpt lat="54.458984" lon="-6.474221"><ele>19.038</ele><time>2022-11-17T14:13:30Z</time></trkpt><trkpt lat="54.457534" lon="-6.472035"><ele>21.170</ele><time>2022-11-17T14:14:10Z</time></trkpt><trkpt lat="54.446199" lon="-6.470948"><ele>23.017</ele><time>2022-11-17T14:14:50Z</time></trkpt><trkpt lat="54.446584" lon="-6.468598"><ele>23.209</ele><time>2022-11-17T14:15:30Z</time></trkpt><trkpt lat="54.441596" lon="-6.464571"><ele>27.564</ele><time>2022-11-17T14:16:10Z</time></trkpt><trkpt lat="54.438599" lon="-6.457763"><ele>23.974</ele><time>2022-11-17T14:16:50Z</time></trkpt><trkpt lat="54.440129" lon="-6.455484"><ele>24.121</ele><time>2022-11-17T14:17:30Z</time></trkpt><trkpt lat="54.437718" lon="-6.449021"><ele>14.030</ele><time>2022-11-17T14:18:10Z</time></trkpt><trkpt lat="54.431189" lon="-6.451174"><ele>17.225</ele><time>2022-11-17T14:18:50Z</time></trkpt><trkpt lat="54.430009" lon="-6.449531"><ele>21.047</ele><time>2022-11-17T14:19:30Z</time></trkpt><trkpt lat="54.425356" lon="-6.438538"><ele>18.530</ele><time>2022-11-17T14:20:10Z</time></trkpt><trkpt lat="54.426949" lon="-6.429812"><ele>33.056</ele><time>2022-11-17T14:20:50Z</time></trkpt><trkpt lat="54.430589" lon="-6.428502"><ele>32.997</ele><time>2022-11-17T14:21:30Z</time></trkpt><trkpt lat="54.435661" lon="-6.415822"><ele>39.336</ele><time>2022-11-17T14:22:10Z</time></trkpt><trkpt lat="54.441063" lon="-6.413225"><ele>35.017</ele><time>2022-11-17T14:22:50Z</time></trkpt><trkpt lat="54.444907" lon="-6.393348"><ele>36.718</ele><time>2022-11-17T14:23:30Z</time></trkpt><trkpt lat="54.447874" lon="-6.393216"><ele>43.309</ele><time>2022-11-17T14:24:10Z</time></trkpt><trkpt lat="54.449590" lon="-6.383854"><ele>26.074</ele><time>2022-11-17T14:24:50Z</time></trkpt><trkpt lat="54.451712" lon="-6.379840"><ele>27.484</ele><time>2022-11-17T14:25:30Z</time></trkpt><trkpt lat="54.457763" lon="-6.371677"><ele>27.121</ele><time>2022-11-17T14:26:10Z</time></trkpt><trkpt lat="54.464968" lon="-6.375705"><ele>25.430</ele><time>2022-11-17T14:26:50Z</time></trkpt><trkpt lat="54.467305" lon="-6.373393"><ele>27.225</ele><time>2022-11-17T14:27:30Z</time></trkpt><trkpt lat="54.469452" lon="-6.374608"><ele>29.087</ele><time>2022-11-17T14:28:10Z</time></trkpt><trkpt lat="54.469908" lon="-6.371728"><ele>23.980</ele><time>2022-11-17T14:28:50Z</time></trkpt><trkpt lat="54.474058" lon="-6.368068"><ele>24.446</ele><time>2022-11-17T14:29:30Z</time></trkpt><trkpt lat="54.486852" lon="-6.376103"><ele>19.767</ele><time>2022-11-17T14:30:10Z</time></trkpt><trkpt lat="54.474058" lon="-6.368068"><ele>24.435</ele><time>2022-11-17T14:30:50Z</time></trkpt><trkpt lat="54.484690" lon="-6.361740"><ele>16.086</ele><time>2022-11-17T14:31:30Z</time></trkpt><trkpt lat="54.487663" lon="-6.371512"><ele>18.614</ele><time>2022-11-17T14:32:10Z</time></trkpt><trkpt lat="54.488598" lon="-6.352588"><ele>20.309</ele><time>2022-11-17T14:32:50Z</time></trkpt><trkpt lat="54.488142" lon="-6.358500"><ele>20.374</ele><time>2022-11-17T14:33:30Z</time></trkpt><trkpt lat="54.484838" lon="-6.360557"><ele>13.614</ele><time>2022-11-17T14:34:10Z</time></trkpt><trkpt lat="54.483260" lon="-6.345585"><ele>18.291</ele><time>2022-11-17T14:34:50Z</time></trkpt><trkpt lat="54.488517" lon="-6.351902"><ele>18.730</ele><time>2022-11-17T14:35:30Z</time></trkpt><trkpt lat="54.483768" lon="-6.336141"><ele>27.365</ele><time>2022-11-17T14:36:10Z</time></trkpt><trkpt lat="54.482115" lon="-6.340563"><ele>27.447</ele><time>2022-11-17T14:36:50Z</time></trkpt><trkpt lat="54.483260" lon="-6.345585"><ele>18.220</ele><time>2022-11-17T14:37:30Z</time></trkpt><trkpt lat="54.492415" lon="-6.338780"><ele>16.326</ele><time>2022-11-17T14:38:10Z</time></trkpt><trkpt lat="54.483768" lon="-6.336141"><ele>27.317</ele><time>2022-11-17T14:38:50Z</time></trkpt><trkpt lat="54.496460" lon="-6.328751"><ele>24.323</ele><time>2022-11-17T14:39:30Z</time></trkpt><trkpt lat="54.493578" lon="-6.331354"><ele>22.283</ele><time>2022-11-17T14:40:10Z</time></trkpt><trkpt lat="54.492415" lon="-6.338780"><ele>16.311</ele><time>2022-11-17T14:40:50Z</time></trkpt><trkpt lat="54.498507" lon="-6.325611"><ele>17.109</ele><time>2022-11-17T14:41:30Z</time></trkpt><trkpt lat="54.498920" lon="-6.318546"><ele>24.533</ele><time>2022-11-17T14:42:10Z</time></trkpt><trkpt lat="54.496453" lon="-6.311644"><ele>29.033</ele><time>2022-11-17T14:42:50Z</time></trkpt><trkpt lat="54.499260" lon="-6.309511"><ele>38.130</ele><time>2022-11-17T14:43:30Z</time></trkpt><trkpt lat="54.498425" lon="-6.304603"><ele>31.479</ele><time>2022-11-17T14:44:10Z</time></trkpt><trkpt lat="54.497043" lon="-6.300446"><ele>41.934</ele><time>2022-11-17T14:44:50Z</time></trkpt><trkpt lat="54.490740" lon="-6.293794"><ele>56.786</ele><time>2022-11-17T14:45:30Z</time></trkpt><trkpt lat="54.490330" lon="-6.281389"><ele>58.629</ele><time>2022-11-17T14:46:10Z</time></trkpt><trkpt lat="54.496762" lon="-6.271617"><ele>56.715</ele><time>2022-11-17T14:46:50Z</time></trkpt><trkpt lat="54.499587" lon="-6.270897"><ele>54.546</ele><time>2022-11-17T14:47:30Z</time></trkpt><trkpt lat="54.499445" lon="-6.265579"><ele>53.039</ele><time>2022-11-17T14:48:10Z</time></trkpt><trkpt lat="54.501527" lon="-6.258850"><ele>48.501</ele><time>2022-11-17T14:48:50Z</time></trkpt><trkpt lat="54.499873" lon="-6.249152"><ele>53.921</ele><time>2022-11-17T14:49:30Z</time></trkpt><trkpt lat="54.500888" lon="-6.242116"><ele>53.809</ele><time>2022-11-17T14:50:10Z</time></trkpt><trkpt lat="54.493715" lon="-6.238830"><ele>45.614</ele><time>2022-11-17T14:50:50Z</time></trkpt><trkpt lat="54.487193" lon="-6.227675"><ele>52.674</ele><time>2022-11-17T14:51:30Z</time></trkpt><trkpt lat="54.485698" lon="-6.221131"><ele>50.561</ele><time>2022-11-17T14:52:10Z</time></trkpt><trkpt lat="54.483151" lon="-6.221123"><ele>50.080</ele><time>2022-11-17T14:52:50Z</time></trkpt><trkpt lat="54.481548" lon="-6.212231"><ele>42.575</ele><time>2022-11-17T14:53:30Z</time></trkpt><trkpt lat="54.485573" lon="-6.190236"><ele>34.947</ele><time>2022-11-17T14:54:10Z</time></trkpt><trkpt lat="54.485043" lon="-6.185689"><ele>35.480</ele><time>2022-11-17T14:54:50Z</time></trkpt><trkpt lat="54.488494" lon="-6.180444"><ele>44.456</ele><time>2022-11-17T14:55:30Z</time></trkpt><trkpt lat="54.487066" lon="-6.169543"><ele>43.437</ele><time>2022-11-17T14:56:10Z</time></trkpt><trkpt lat="54.489491" lon="-6.155389"><ele>35.031</ele><time>2022-11-17T14:56:50Z</time></trkpt><trkpt lat="54.488548" lon="-6.150038"><ele>32.061</ele><time>2022-11-17T14:57:30Z</time></trkpt><trkpt lat="54.483271" lon="-6.142857"><ele>31.807</ele><time>2022-11-17T14:58:10Z</time></trkpt><trkpt lat="54.489271" lon="-6.133309"><ele>32.009</ele><time>2022-11-17T14:58:50Z</time></trkpt><trkpt lat="54.490439" lon="-6.125659"><ele>37.474</ele><time>2022-11-17T14:59:30Z</time></trkpt><trkpt lat="54.488818" lon="-6.123348"><ele>34.594</ele><time>2022-11-17T15:00:10Z</time></trkpt><trkpt lat="54.494556" lon="-6.116458"><ele>32.851</ele><time>2022-11-17T15:00:50Z</time></trkpt><trkpt lat="54.493307" lon="-6.092768"><ele>37.910</ele><time>2022-11-17T15:01:30Z</time></trkpt><trkpt lat="54.495021" lon="-6.085697"><ele>32.065</ele><time>2022-11-17T15:02:10Z</time></trkpt><trkpt lat="54.498739" lon="-6.079896"><ele>37.547</ele><time>2022-11-17T15:02:50Z</time></trkpt><trkpt lat="54.495001" lon="-6.056648"><ele>42.060</ele><time>2022-11-17T15:03:30Z</time></trkpt><trkpt lat="54.495513" lon="-6.062654"><ele>39.026</ele><time>2022-11-17T15:04:10Z</time></trkpt><trkpt lat="54.495438" lon="-6.057682"><ele>40.697</ele><time>2022-11-17T15:04:50Z</time></trkpt><trkpt lat="54.499144" lon="-6.054867"><ele>30.548</ele><time>2022-11-17T15:05:30Z</time></trkpt><trkpt lat="54.495001" lon="-6.056648"><ele>42.061</ele><time>2022-11-17T15:06:10Z</time></trkpt><trkpt lat="54.500153" lon="-6.048494"><ele>33.117</ele><time>2022-11-17T15:06:50Z</time></trkpt><trkpt lat="54.498844" lon="-6.051544"><ele>31.709</ele><time>2022-11-17T15:07:30Z</time></trkpt><trkpt lat="54.499503" lon="-6.054464"><ele>30.315</ele><time>2022-11-17T15:08:10Z</time></trkpt><trkpt lat="54.502771" lon="-6.045807"><ele>28.825</ele><time>2022-11-17T15:08:50Z</time></trkpt><trkpt lat="54.500503" lon="-6.047390"><ele>33.432</ele><time>2022-11-17T15:09:30Z</time></trkpt><trkpt lat="54.509131" lon="-6.040272"><ele>32.331</ele><time>2022-11-17T15:10:10Z</time></trkpt><trkpt lat="54.504768" lon="-6.041670"><ele>29.066</ele><time>2022-11-17T15:10:50Z</time></trkpt><trkpt lat="54.502834" lon="-6.045175"><ele>27.188</ele><time>2022-11-17T15:11:30Z</time></trkpt><trkpt lat="54.512491" lon="-6.034675"><ele>28.071</ele><time>2022-11-17T15:12:10Z</time></trkpt><trkpt lat="54.509896" lon="-6.039635"><ele>29.947</ele><time>2022-11-17T15:12:50Z</time></trkpt><trkpt lat="54.513456" lon="-6.023945"><ele>31.058</ele><time>2022-11-17T15:13:30Z</time></trkpt><trkpt lat="54.519084" lon="-6.020201"><ele>23.779</ele><time>2022-11-17T15:14:10Z</time></trkpt><trkpt lat="54.523703" lon="-6.022274"><ele>22.805</ele><time>2022-11-17T15:14:50Z</time></trkpt><trkpt lat="54.524489" lon="-6.025404"><ele>20.225</ele><time>2022-11-17T15:15:30Z</time></trkpt><trkpt lat="54.529411" lon="-6.022382"><ele>20.709</ele><time>2022-11-17T15:16:10Z</time></trkpt><trkpt lat="54.530514" lon="-6.014710"><ele>17.278</ele><time>2022-11-17T15:16:50Z</time></trkpt><trkpt lat="54.537645" lon="-6.005252"><ele>16.018</ele><time>2022-11-17T15:17:30Z</time></trkpt><trkpt lat="54.539951" lon="-5.993218"><ele>13.825</ele><time>2022-11-17T15:18:10Z</time></trkpt><trkpt lat="54.542196" lon="-5.990606"><ele>12.074</ele><time>2022-11-17T15:18:50Z</time></trkpt><trkpt lat="54.537031" lon="-5.987070"><ele>12.079</ele><time>2022-11-17T15:19:30Z</time></trkpt><trkpt lat="54.535419" lon="-5.977765"><ele>17.691</ele><time>2022-11-17T15:20:10Z</time></trkpt><trkpt lat="54.531923" lon="-5.974016"><ele>13.474</ele><time>2022-11-17T15:20:50Z</time></trkpt><trkpt lat="54.536106" lon="-5.967678"><ele>17.290</ele><time>2022-11-17T15:21:30Z</time></trkpt><trkpt lat="54.537744" lon="-5.961367"><ele>10.011</ele><time>2022-11-17T15:22:10Z</time></trkpt><trkpt lat="54.542381" lon="-5.966083"><ele>13.958</ele><time>2022-11-17T15:22:50Z</time></trkpt><trkpt lat="54.547214" lon="-5.965200"><ele>17.052</ele><time>2022-11-17T15:23:30Z</time></trkpt><trkpt lat="54.549206" lon="-5.959828"><ele>17.517</ele><time>2022-11-17T15:24:10Z</time></trkpt><trkpt lat="54.548183" lon="-5.953996"><ele>11.809</ele><time>2022-11-17T15:24:50Z</time></trkpt><trkpt lat="54.552470" lon="-5.954005"><ele>15.316</ele><time>2022-11-17T15:25:30Z</time></trkpt><trkpt lat="54.555315" lon="-5.948500"><ele>9.076</ele><time>2022-11-17T15:26:10Z</time></trkpt><trkpt lat="54.553730" lon="-5.946986"><ele>10.973</ele><time>2022-11-17T15:26:50Z</time></trkpt><trkpt lat="54.553893" lon="-5.941319"><ele>12.372</ele><time>2022-11-17T15:27:30Z</time></trkpt><trkpt lat="54.556553" lon="-5.941427"><ele>15.817</ele><time>2022-11-17T15:28:10Z</time></trkpt><trkpt lat="54.560145" lon="-5.933506"><ele>4.539</ele><time>2022-11-17T15:28:50Z</time></trkpt><trkpt lat="54.563528" lon="-5.934662"><ele>8.632</ele><time>2022-11-17T15:29:30Z</time></trkpt><trkpt lat="54.564558" lon="-5.927086"><ele>7.618</ele><time>2022-11-17T15:30:10Z</time></trkpt><trkpt lat="54.577213" lon="-5.929615"><ele>4.999</ele><time>2022-11-17T15:30:50Z</time></trkpt><trkpt lat="54.580960" lon="-5.927797"><ele>3.738</ele><time>2022-11-17T15:31:30Z</time></trkpt><trkpt lat="54.584717" lon="-5.919770"><ele>6.070</ele><time>2022-11-17T15:32:10Z</time></trkpt><trkpt lat="54.597566" lon="-5.919151"><ele>5.617</ele><time>2022-11-17T15:32:50Z</time></trkpt><trkpt lat="54.598862" lon="-5.920940"><ele>3.209</ele><time>2022-11-17T15:33:30Z</time></trkpt><trkpt lat="54.903395" lon="-5.023395"><ele>10.894</ele><time>2022-11-17T15:34:10Z</time></trkpt><trkpt lat="54.904634" lon="-5.025805"><ele>8.374</ele><time>2022-11-17T15:34:50Z</time></trkpt><trkpt lat="54.903270" lon="-5.022639"><ele>10.861</ele><time>2022-11-17T15:35:30Z</time></trkpt><trkpt lat="54.904183" lon="-5.000707"><ele>8.930</ele><time>2022-11-17T15:36:10Z</time></trkpt><trkpt lat="54.897834" lon="-4.985748"><ele>34.125</ele><time>2022-11-17T15:36:50Z</time></trkpt><trkpt lat="54.898897" lon="-4.989984"><ele>28.037</ele><time>2022-11-17T15:37:30Z</time></trkpt><trkpt lat="54.902135" lon="-4.998741"><ele>17.320</ele><time>2022-11-17T15:38:10Z</time></trkpt><trkpt lat="54.895872" lon="-4.976186"><ele>32.516</ele><time>2022-11-17T15:38:50Z</time></trkpt><trkpt lat="54.896050" lon="-4.969412"><ele>26.887</ele><time>2022-11-17T15:39:30Z</time></trkpt><trkpt lat="54.885837" lon="-4.966492"><ele>24.099</ele><time>2022-11-17T15:40:10Z</time></trkpt><trkpt lat="54.886008" lon="-4.962757"><ele>21.407</ele><time>2022-11-17T15:40:50Z</time></trkpt><trkpt lat="54.875428" lon="-4.954772"><ele>21.227</ele><time>2022-11-17T15:41:30Z</time></trkpt><trkpt lat="54.887003" lon="-4.929051"><ele>23.009</ele><time>2022-11-17T15:42:10Z</time></trkpt><trkpt lat="54.879910" lon="-4.901208"><ele>9.430</ele><time>2022-11-17T15:42:50Z</time></trkpt><trkpt lat="54.873390" lon="-4.848193"><ele>11.030</ele><time>2022-11-17T15:43:30Z</time></trkpt><trkpt lat="54.874660" lon="-4.849454"><ele>18.617</ele><time>2022-11-17T15:44:10Z</time></trkpt><trkpt lat="54.874532" lon="-4.865538"><ele>12.036</ele><time>2022-11-17T15:44:50Z</time></trkpt><trkpt lat="54.875130" lon="-4.867637"><ele>17.471</ele><time>2022-11-17T15:45:30Z</time></trkpt><trkpt lat="54.872498" lon="-4.833207"><ele>8.053</ele><time>2022-11-17T15:46:10Z</time></trkpt><trkpt lat="54.873390" lon="-4.848193"><ele>11.016</ele><time>2022-11-17T15:46:50Z</time></trkpt><trkpt lat="54.873044" lon="-4.822737"><ele>10.762</ele><time>2022-11-17T15:47:30Z</time></trkpt><trkpt lat="54.872195" lon="-4.830290"><ele>7.853</ele><time>2022-11-17T15:48:10Z</time></trkpt><trkpt lat="54.874742" lon="-4.820670"><ele>15.724</ele><time>2022-11-17T15:48:50Z</time></trkpt><trkpt lat="54.873391" lon="-4.822356"><ele>13.004</ele><time>2022-11-17T15:49:30Z</time></trkpt><trkpt lat="54.851812" lon="-4.781922"><ele>29.614</ele><time>2022-11-17T15:50:10Z</time></trkpt><trkpt lat="54.845630" lon="-4.790986"><ele>8.709</ele><time>2022-11-17T15:50:50Z</time></trkpt><trkpt lat="54.851157" lon="-4.801741"><ele>21.123</ele><time>2022-11-17T15:51:30Z</time></trkpt><trkpt lat="54.864909" lon="-4.809101"><ele>20.973</ele><time>2022-11-17T15:52:10Z</time></trkpt><trkpt lat="54.869477" lon="-4.814886"><ele>10.780</ele><time>2022-11-17T15:52:50Z</time></trkpt><trkpt lat="54.873742" lon="-4.815212"><ele>6.699</ele><time>2022-11-17T15:53:30Z</time></trkpt><trkpt lat="54.851812" lon="-4.781922"><ele>29.674</ele><time>2022-11-17T15:54:10Z</time></trkpt><trkpt lat="54.855856" lon="-4.767486"><ele>56.036</ele><time>2022-11-17T15:54:50Z</time></trkpt><trkpt lat="54.838951" lon="-4.752712"><ele>33.679</ele><time>2022-11-17T15:55:30Z</time></trkpt><trkpt lat="54.833907" lon="-4.752032"><ele>14.725</ele><time>2022-11-17T15:56:10Z</time></trkpt><trkpt lat="54.828550" lon="-4.744467"><ele>5.246</ele><time>2022-11-17T15:56:50Z</time></trkpt><trkpt lat="54.824944" lon="-4.710002"><ele>12.833</ele><time>2022-11-17T15:57:30Z</time></trkpt><trkpt lat="54.816949" lon="-4.698322"><ele>9.323</ele><time>2022-11-17T15:58:10Z</time></trkpt><trkpt lat="54.814362" lon="-4.691428"><ele>12.615</ele><time>2022-11-17T15:58:50Z</time></trkpt><trkpt lat="54.814087" lon="-4.684484"><ele>48.709</ele><time>2022-11-17T15:59:30Z</time></trkpt><trkpt lat="54.824954" lon="-4.651497"><ele>115.314</ele><time>2022-11-17T16:00:10Z</time></trkpt><trkpt lat="54.824792" lon="-4.640532"><ele>99.514</ele><time>2022-11-17T16:00:50Z</time></trkpt><trkpt lat="54.828083" lon="-4.620364"><ele>80.111</ele><time>2022-11-17T16:01:30Z</time></trkpt><trkpt lat="54.832615" lon="-4.605748"><ele>72.190</ele><time>2022-11-17T16:02:10Z</time></trkpt><trkpt lat="54.835798" lon="-4.580247"><ele>71.285</ele><time>2022-11-17T16:02:50Z</time></trkpt><trkpt lat="54.842397" lon="-4.550889"><ele>50.257</ele><time>2022-11-17T16:03:30Z</time></trkpt><trkpt lat="54.849705" lon="-4.529635"><ele>27.890</ele><time>2022-11-17T16:04:10Z</time></trkpt><trkpt lat="54.854671" lon="-4.519920"><ele>32.036</ele><time>2022-11-17T16:04:50Z</time></trkpt><trkpt lat="54.856083" lon="-4.502954"><ele>39.037</ele><time>2022-11-17T16:05:30Z</time></trkpt><trkpt lat="54.859652" lon="-4.497344"><ele>39.575</ele><time>2022-11-17T16:06:10Z</time></trkpt><trkpt lat="54.859267" lon="-4.490628"><ele>39.628</ele><time>2022-11-17T16:06:50Z</time></trkpt><trkpt lat="54.856567" lon="-4.484638"><ele>34.120</ele><time>2022-11-17T16:07:30Z</time></trkpt><trkpt lat="54.855841" lon="-4.464894"><ele>19.209</ele><time>2022-11-17T16:08:10Z</time></trkpt><trkpt lat="54.857158" lon="-4.461844"><ele>12.048</ele><time>2022-11-17T16:08:50Z</time></trkpt><trkpt lat="54.866691" lon="-4.455787"><ele>21.038</ele><time>2022-11-17T16:09:30Z</time></trkpt><trkpt lat="54.866793" lon="-4.446245"><ele>45.215</ele><time>2022-11-17T16:10:10Z</time></trkpt><trkpt lat="54.869539" lon="-4.439080"><ele>29.424</ele><time>2022-11-17T16:10:50Z</time></trkpt><trkpt lat="54.873006" lon="-4.438308"><ele>8.919</ele><time>2022-11-17T16:11:30Z</time></trkpt><trkpt lat="54.881094" lon="-4.443009"><ele>7.881</ele><time>2022-11-17T16:12:10Z</time></trkpt><trkpt lat="54.884678" lon="-4.440074"><ele>8.094</ele><time>2022-11-17T16:12:50Z</time></trkpt><trkpt lat="54.890784" lon="-4.428357"><ele>5.210</ele><time>2022-11-17T16:13:30Z</time></trkpt><trkpt lat="54.906514" lon="-4.415738"><ele>5.431</ele><time>2022-11-17T16:14:10Z</time></trkpt><trkpt lat="54.916998" lon="-4.424388"><ele>8.896</ele><time>2022-11-17T16:14:50Z</time></trkpt><trkpt lat="54.924629" lon="-4.427288"><ele>12.231</ele><time>2022-11-17T16:15:30Z</time></trkpt><trkpt lat="54.934627" lon="-4.456390"><ele>6.324</ele><time>2022-11-17T16:16:10Z</time></trkpt><trkpt lat="54.934346" lon="-4.462193"><ele>18.009</ele><time>2022-11-17T16:16:50Z</time></trkpt><trkpt lat="54.945026" lon="-4.474934"><ele>19.970</ele><time>2022-11-17T16:17:30Z</time></trkpt><trkpt lat="54.950312" lon="-4.477718"><ele>12.060</ele><time>2022-11-17T16:18:10Z</time></trkpt><trkpt lat="54.951461" lon="-4.475076"><ele>6.817</ele><time>2022-11-17T16:18:50Z</time></trkpt><trkpt lat="54.955665" lon="-4.480745"><ele>9.756</ele><time>2022-11-17T16:19:30Z</time></trkpt><trkpt lat="54.964967" lon="-4.481870"><ele>19.211</ele><time>2022-11-17T16:20:10Z</time></trkpt><trkpt lat="54.960547" lon="-4.481213"><ele>13.673</ele><time>2022-11-17T16:20:50Z</time></trkpt><trkpt lat="54.970981" lon="-4.485588"><ele>31.536</ele><time>2022-11-17T16:21:30Z</time></trkpt><trkpt lat="54.979493" lon="-4.511773"><ele>45.982</ele><time>2022-11-17T16:22:10Z</time></trkpt><trkpt lat="54.986242" lon="-4.520208"><ele>33.013</ele><time>2022-11-17T16:22:50Z</time></trkpt><trkpt lat="55.001327" lon="-4.527327"><ele>45.435</ele><time>2022-11-17T16:23:30Z</time></trkpt><trkpt lat="55.019009" lon="-4.545996"><ele>51.786</ele><time>2022-11-17T16:24:10Z</time></trkpt><trkpt lat="55.025607" lon="-4.557535"><ele>36.914</ele><time>2022-11-17T16:24:50Z</time></trkpt><trkpt lat="55.029279" lon="-4.559922"><ele>40.309</ele><time>2022-11-17T16:25:30Z</time></trkpt><trkpt lat="55.037538" lon="-4.558991"><ele>32.884</ele><time>2022-11-17T16:26:10Z</time></trkpt><trkpt lat="55.042402" lon="-4.567339"><ele>46.614</ele><time>2022-11-17T16:26:50Z</time></trkpt><trkpt lat="55.044821" lon="-4.567080"><ele>50.041</ele><time>2022-11-17T16:27:30Z</time></trkpt><trkpt lat="55.046939" lon="-4.571288"><ele>55.630</ele><time>2022-11-17T16:28:10Z</time></trkpt><trkpt lat="55.051408" lon="-4.568402"><ele>65.985</ele><time>2022-11-17T16:28:50Z</time></trkpt><trkpt lat="55.061238" lon="-4.555182"><ele>70.377</ele><time>2022-11-17T16:29:30Z</time></trkpt><trkpt lat="55.067990" lon="-4.551854"><ele>82.290</ele><time>2022-11-17T16:30:10Z</time></trkpt><trkpt lat="55.074691" lon="-4.553135"><ele>80.786</ele><time>2022-11-17T16:30:50Z</time></trkpt><trkpt lat="55.073757" lon="-4.569859"><ele>103.877</ele><time>2022-11-17T16:31:30Z</time></trkpt><trkpt lat="55.076419" lon="-4.568003"><ele>109.149</ele><time>2022-11-17T16:32:10Z</time></trkpt><trkpt lat="55.087325" lon="-4.568506"><ele>144.102</ele><time>2022-11-17T16:32:50Z</time></trkpt><trkpt lat="55.095757" lon="-4.563547"><ele>166.522</ele><time>2022-11-17T16:33:30Z</time></trkpt><trkpt lat="55.102755" lon="-4.562714"><ele>184.409</ele><time>2022-11-17T16:34:10Z</time></trkpt><trkpt lat="55.116502" lon="-4.569012"><ele>198.795</ele><time>2022-11-17T16:34:50Z</time></trkpt><trkpt lat="55.121180" lon="-4.564524"><ele>209.245</ele><time>2022-11-17T16:35:30Z</time></trkpt><trkpt lat="55.131312" lon="-4.564646"><ele>209.792</ele><time>2022-11-17T16:36:10Z</time></trkpt><trkpt lat="55.136654" lon="-4.570338"><ele>219.671</ele><time>2022-11-17T16:36:50Z</time></trkpt><trkpt lat="55.141977" lon="-4.572214"><ele>222.016</ele><time>2022-11-17T16:37:30Z</time></trkpt><trkpt lat="55.147981" lon="-4.581114"><ele>215.538</ele><time>2022-11-17T16:38:10Z</time></trkpt><trkpt lat="55.156343" lon="-4.578829"><ele>224.931</ele><time>2022-11-17T16:38:50Z</time></trkpt><trkpt lat="55.169959" lon="-4.587455"><ele>266.627</ele><time>2022-11-17T16:39:30Z</time></trkpt><trkpt lat="55.175253" lon="-4.584318"><ele>298.498</ele><time>2022-11-17T16:40:10Z</time></trkpt><trkpt lat="55.182609" lon="-4.589432"><ele>315.677</ele><time>2022-11-17T16:40:50Z</time></trkpt><trkpt lat="55.188029" lon="-4.587145"><ele>327.761</ele><time>2022-11-17T16:41:30Z</time></trkpt><trkpt lat="55.192304" lon="-4.588321"><ele>349.827</ele><time>2022-11-17T16:42:10Z</time></trkpt><trkpt lat="55.201717" lon="-4.602318"><ele>372.809</ele><time>2022-11-17T16:42:50Z</time></trkpt><trkpt lat="55.221937" lon="-4.620815"><ele>206.338</ele><time>2022-11-17T16:43:30Z</time></trkpt><trkpt lat="55.222454" lon="-4.626344"><ele>157.888</ele><time>2022-11-17T16:44:10Z</time></trkpt><trkpt lat="55.227355" lon="-4.627589"><ele>150.055</ele><time>2022-11-17T16:44:50Z</time></trkpt><trkpt lat="55.232640" lon="-4.634751"><ele>166.914</ele><time>2022-11-17T16:45:30Z</time></trkpt><trkpt lat="55.238064" lon="-4.628671"><ele>181.989</ele><time>2022-11-17T16:46:10Z</time></trkpt><trkpt lat="55.243292" lon="-4.632647"><ele>226.691</ele><time>2022-11-17T16:46:50Z</time></trkpt><trkpt lat="55.256775" lon="-4.627628"><ele>308.994</ele><time>2022-11-17T16:47:30Z</time></trkpt><trkpt lat="55.270145" lon="-4.629444"><ele>318.020</ele><time>2022-11-17T16:48:10Z</time></trkpt><trkpt lat="55.274036" lon="-4.625251"><ele>313.511</ele><time>2022-11-17T16:48:50Z</time></trkpt><trkpt lat="55.276692" lon="-4.618528"><ele>296.721</ele><time>2022-11-17T16:49:30Z</time></trkpt><trkpt lat="55.275471" lon="-4.613538"><ele>295.641</ele><time>2022-11-17T16:50:10Z</time></trkpt><trkpt lat="55.278471" lon="-4.610885"><ele>290.705</ele><time>2022-11-17T16:50:50Z</time></trkpt><trkpt lat="55.281016" lon="-4.616720"><ele>273.309</ele><time>2022-11-17T16:51:30Z</time></trkpt><trkpt lat="55.285774" lon="-4.618472"><ele>261.563</ele><time>2022-11-17T16:52:10Z</time></trkpt><trkpt lat="55.288312" lon="-4.624768"><ele>235.313</ele><time>2022-11-17T16:52:50Z</time></trkpt><trkpt lat="55.296722" lon="-4.626341"><ele>182.460</ele><time>2022-11-17T16:53:30Z</time></trkpt><trkpt lat="55.299293" lon="-4.623841"><ele>169.449</ele><time>2022-11-17T16:54:10Z</time></trkpt><trkpt lat="55.302961" lon="-4.632794"><ele>122.324</ele><time>2022-11-17T16:54:50Z</time></trkpt><trkpt lat="55.306044" lon="-4.634885"><ele>99.236</ele><time>2022-11-17T16:55:30Z</time></trkpt><trkpt lat="55.311121" lon="-4.628849"><ele>92.429</ele><time>2022-11-17T16:56:10Z</time></trkpt><trkpt lat="55.314544" lon="-4.628894"><ele>79.315</ele><time>2022-11-17T16:56:50Z</time></trkpt><trkpt lat="55.319541" lon="-4.636027"><ele>54.196</ele><time>2022-11-17T16:57:30Z</time></trkpt><trkpt lat="55.330074" lon="-4.643945"><ele>40.587</ele><time>2022-11-17T16:58:10Z</time></trkpt><trkpt lat="55.329125" lon="-4.649758"><ele>42.942</ele><time>2022-11-17T16:58:50Z</time></trkpt><trkpt lat="55.330431" lon="-4.652770"><ele>50.126</ele><time>2022-11-17T16:59:30Z</time></trkpt><trkpt lat="55.327518" lon="-4.658049"><ele>50.109</ele><time>2022-11-17T17:00:10Z</time></trkpt><trkpt lat="55.329277" lon="-4.667760"><ele>92.149</ele><time>2022-11-17T17:00:50Z</time></trkpt><trkpt lat="55.332251" lon="-4.673421"><ele>84.799</ele><time>2022-11-17T17:01:30Z</time></trkpt><trkpt lat="55.334338" lon="-4.675391"><ele>78.476</ele><time>2022-11-17T17:02:10Z</time></trkpt><trkpt lat="55.338479" lon="-4.673704"><ele>71.745</ele><time>2022-11-17T17:02:50Z</time></trkpt><trkpt lat="55.340734" lon="-4.678326"><ele>74.070</ele><time>2022-11-17T17:03:30Z</time></trkpt><trkpt lat="55.349393" lon="-4.682714"><ele>65.332</ele><time>2022-11-17T17:04:10Z</time></trkpt><trkpt lat="55.350944" lon="-4.688704"><ele>88.775</ele><time>2022-11-17T17:04:50Z</time></trkpt><trkpt lat="55.352694" lon="-4.685964"><ele>94.451</ele><time>2022-11-17T17:05:30Z</time></trkpt><trkpt lat="55.354435" lon="-4.686785"><ele>102.462</ele><time>2022-11-17T17:06:10Z</time></trkpt><trkpt lat="55.354435" lon="-4.686785"><ele>102.413</ele><time>2022-11-17T17:06:50Z</time></trkpt><trkpt lat="55.356129" lon="-4.685670"><ele>113.143</ele><time>2022-11-17T17:07:30Z</time></trkpt><trkpt lat="55.366723" lon="-4.706399"><ele>174.407</ele><time>2022-11-17T17:08:10Z</time></trkpt><trkpt lat="55.376669" lon="-4.710428"><ele>190.009</ele><time>2022-11-17T17:08:50Z</time></trkpt><trkpt lat="55.380430" lon="-4.716501"><ele>198.172</ele><time>2022-11-17T17:09:30Z</time></trkpt><trkpt lat="55.389619" lon="-4.689781"><ele>120.622</ele><time>2022-11-17T17:10:10Z</time></trkpt><trkpt lat="55.388280" lon="-4.687993"><ele>133.669</ele><time>2022-11-17T17:10:50Z</time></trkpt><trkpt lat="55.390273" lon="-4.677844"><ele>97.098</ele><time>2022-11-17T17:11:30Z</time></trkpt><trkpt lat="55.395555" lon="-4.684662"><ele>120.823</ele><time>2022-11-17T17:12:10Z</time></trkpt><trkpt lat="55.403752" lon="-4.681473"><ele>170.215</ele><time>2022-11-17T17:12:50Z</time></trkpt><trkpt lat="55.412136" lon="-4.688335"><ele>200.358</ele><time>2022-11-17T17:13:30Z</time></trkpt><trkpt lat="55.416509" lon="-4.698521"><ele>116.284</ele><time>2022-11-17T17:14:10Z</time></trkpt><trkpt lat="55.422651" lon="-4.705996"><ele>57.575</ele><time>2022-11-17T17:14:50Z</time></trkpt><trkpt lat="55.423934" lon="-4.706844"><ele>52.677</ele><time>2022-11-17T17:15:30Z</time></trkpt><trkpt lat="55.424573" lon="-4.704053"><ele>50.961</ele><time>2022-11-17T17:16:10Z</time></trkpt><trkpt lat="55.429045" lon="-4.706240"><ele>30.127</ele><time>2022-11-17T17:16:50Z</time></trkpt><trkpt lat="55.440633" lon="-4.650654"><ele>3.109</ele><time>2022-11-17T17:17:30Z</time></trkpt><trkpt lat="55.445876" lon="-4.646642"><ele>4.018</ele><time>2022-11-17T17:18:10Z</time></trkpt><trkpt lat="55.460441" lon="-4.641847"><ele>0.028</ele><time>2022-11-17T17:18:50Z</time></trkpt><trkpt lat="55.455484" lon="-4.641601"><ele>6.195</ele><time>2022-11-17T17:19:30Z</time></trkpt><trkpt lat="55.465312" lon="-4.641244"><ele>0.064</ele><time>2022-11-17T17:20:10Z</time></trkpt><trkpt lat="55.460441" lon="-4.641847"><ele>0.019</ele><time>2022-11-17T17:20:50Z</time></trkpt><trkpt lat="55.466160" lon="-4.636764"><ele>6.231</ele><time>2022-11-17T17:21:30Z</time></trkpt><trkpt lat="55.464888" lon="-4.631621"><ele>8.844</ele><time>2022-11-17T17:22:10Z</time></trkpt><trkpt lat="55.465873" lon="-4.630600"><ele>9.070</ele><time>2022-11-17T17:22:50Z</time></trkpt><trkpt lat="55.473716" lon="-4.628323"><ele>6.041</ele><time>2022-11-17T17:23:30Z</time></trkpt><trkpt lat="55.474804" lon="-4.630668"><ele>3.546</ele><time>2022-11-17T17:24:10Z</time></trkpt><trkpt lat="55.477687" lon="-4.627944"><ele>1.788</ele><time>2022-11-17T17:24:50Z</time></trkpt><trkpt lat="55.490067" lon="-4.624880"><ele>6.816</ele><time>2022-11-17T17:25:30Z</time></trkpt><trkpt lat="55.488591" lon="-4.627110"><ele>4.409</ele><time>2022-11-17T17:26:10Z</time></trkpt><trkpt lat="55.480851" lon="-4.626935"><ele>3.045</ele><time>2022-11-17T17:26:50Z</time></trkpt><trkpt lat="55.490619" lon="-4.624517"><ele>3.345</ele><time>2022-11-17T17:27:30Z</time></trkpt><trkpt lat="55.494346" lon="-4.620585"><ele>0.062</ele><time>2022-11-17T17:28:10Z</time></trkpt><trkpt lat="55.501184" lon="-4.620245"><ele>2.451</ele><time>2022-11-17T17:28:50Z</time></trkpt><trkpt lat="55.501118" lon="-4.613822"><ele>7.036</ele><time>2022-11-17T17:29:30Z</time></trkpt><trkpt lat="55.505375" lon="-4.607178"><ele>9.348</ele><time>2022-11-17T17:30:10Z</time></trkpt><trkpt lat="55.508129" lon="-4.613552"><ele>5.771</ele><time>2022-11-17T17:30:50Z</time></trkpt><trkpt lat="55.518232" lon="-4.619293"><ele>6.457</ele><time>2022-11-17T17:31:30Z</time></trkpt><trkpt lat="55.511120" lon="-4.614501"><ele>7.268</ele><time>2022-11-17T17:32:10Z</time></trkpt><trkpt lat="55.519369" lon="-4.621096"><ele>8.017</ele><time>2022-11-17T17:32:50Z</time></trkpt><trkpt lat="55.518284" lon="-4.619705"><ele>6.287</ele><time>2022-11-17T17:33:30Z</time></trkpt><trkpt lat="55.527858" lon="-4.633531"><ele>11.315</ele><time>2022-11-17T17:34:10Z</time></trkpt><trkpt lat="55.527054" lon="-4.632598"><ele>11.209</ele><time>2022-11-17T17:34:50Z</time></trkpt><trkpt lat="55.521531" lon="-4.624578"><ele>9.352</ele><time>2022-11-17T17:35:30Z</time></trkpt><trkpt lat="55.534907" lon="-4.639815"><ele>10.312</ele><time>2022-11-17T17:36:10Z</time></trkpt><trkpt lat="55.528234" lon="-4.632684"><ele>13.729</ele><time>2022-11-17T17:36:50Z</time></trkpt><trkpt lat="55.533149" lon="-4.652588"><ele>3.388</ele><time>2022-11-17T17:37:30Z</time></trkpt><trkpt lat="55.534907" lon="-4.639815"><ele>10.313</ele><time>2022-11-17T17:38:10Z</time></trkpt><trkpt lat="55.534912" lon="-4.654063"><ele>3.485</ele><time>2022-11-17T17:38:50Z</time></trkpt><trkpt lat="55.541722" lon="-4.662324"><ele>3.598</ele><time>2022-11-17T17:39:30Z</time></trkpt><trkpt lat="55.540785" lon="-4.671488"><ele>5.784</ele><time>2022-11-17T17:40:10Z</time></trkpt><trkpt lat="55.541963" lon="-4.665561"><ele>1.195</ele><time>2022-11-17T17:40:50Z</time></trkpt><trkpt lat="55.541821" lon="-4.675518"><ele>3.286</ele><time>2022-11-17T17:41:30Z</time></trkpt><trkpt lat="55.540785" lon="-4.671488"><ele>5.760</ele><time>2022-11-17T17:42:10Z</time></trkpt><trkpt lat="55.541872" lon="-4.675381"><ele>3.626</ele><time>2022-11-17T17:42:50Z</time></trkpt><trkpt lat="55.548870" lon="-4.658049"><ele>3.109</ele><time>2022-11-17T17:43:30Z</time></trkpt><trkpt lat="55.561251" lon="-4.656850"><ele>3.079</ele><time>2022-11-17T17:44:10Z</time></trkpt><trkpt lat="55.562053" lon="-4.649515"><ele>10.169</ele><time>2022-11-17T17:44:50Z</time></trkpt><trkpt lat="55.566268" lon="-4.640366"><ele>13.246</ele><time>2022-11-17T17:45:30Z</time></trkpt><trkpt lat="55.591195" lon="-4.651472"><ele>13.415</ele><time>2022-11-17T17:46:10Z</time></trkpt><trkpt lat="55.569524" lon="-4.639500"><ele>13.830</ele><time>2022-11-17T17:46:50Z</time></trkpt><trkpt lat="55.593064" lon="-4.653634"><ele>11.052</ele><time>2022-11-17T17:47:30Z</time></trkpt><trkpt lat="55.588661" lon="-4.662394"><ele>9.655</ele><time>2022-11-17T17:48:10Z</time></trkpt><trkpt lat="55.590058" lon="-4.667319"><ele>7.991</ele><time>2022-11-17T17:48:50Z</time></trkpt><trkpt lat="55.602319" lon="-4.680990"><ele>8.732</ele><time>2022-11-17T17:49:30Z</time></trkpt><trkpt lat="55.608204" lon="-4.680124"><ele>5.026</ele><time>2022-11-17T17:50:10Z</time></trkpt><trkpt lat="55.619823" lon="-4.672984"><ele>6.547</ele><time>2022-11-17T17:50:50Z</time></trkpt><trkpt lat="55.623598" lon="-4.678677"><ele>7.911</ele><time>2022-11-17T17:51:30Z</time></trkpt><trkpt lat="55.623695" lon="-4.682256"><ele>5.009</ele><time>2022-11-17T17:52:10Z</time></trkpt><trkpt lat="55.626710" lon="-4.683036"><ele>8.293</ele><time>2022-11-17T17:52:50Z</time></trkpt><trkpt lat="55.631890" lon="-4.691319"><ele>12.213</ele><time>2022-11-17T17:53:30Z</time></trkpt><trkpt lat="55.644908" lon="-4.690829"><ele>6.770</ele><time>2022-11-17T17:54:10Z</time></trkpt><trkpt lat="55.643333" lon="-4.686006"><ele>6.019</ele><time>2022-11-17T17:54:50Z</time></trkpt><trkpt lat="55.640676" lon="-4.690986"><ele>3.924</ele><time>2022-11-17T17:55:30Z</time></trkpt><trkpt lat="55.650812" lon="-4.691650"><ele>7.946</ele><time>2022-11-17T17:56:10Z</time></trkpt><trkpt lat="55.644707" lon="-4.692233"><ele>9.079</ele><time>2022-11-17T17:56:50Z</time></trkpt><trkpt lat="55.653857" lon="-4.696249"><ele>20.665</ele><time>2022-11-17T17:57:30Z</time></trkpt><trkpt lat="55.651472" lon="-4.692474"><ele>12.956</ele><time>2022-11-17T17:58:10Z</time></trkpt><trkpt lat="55.655658" lon="-4.696997"><ele>19.694</ele><time>2022-11-17T17:58:50Z</time></trkpt><trkpt lat="55.654634" lon="-4.698118"><ele>19.757</ele><time>2022-11-17T17:59:30Z</time></trkpt><trkpt lat="55.658375" lon="-4.693384"><ele>12.322</ele><time>2022-11-17T18:00:10Z</time></trkpt><trkpt lat="55.656820" lon="-4.695833"><ele>11.609</ele><time>2022-11-17T18:00:50Z</time></trkpt><trkpt lat="55.662315" lon="-4.699763"><ele>25.020</ele><time>2022-11-17T18:01:30Z</time></trkpt><trkpt lat="55.661436" lon="-4.695554"><ele>19.050</ele><time>2022-11-17T18:02:10Z</time></trkpt><trkpt lat="55.658996" lon="-4.693957"><ele>17.077</ele><time>2022-11-17T18:02:50Z</time></trkpt><trkpt lat="55.664480" lon="-4.695979"><ele>29.076</ele><time>2022-11-17T18:03:30Z</time></trkpt><trkpt lat="55.662847" lon="-4.699413"><ele>21.981</ele><time>2022-11-17T18:04:10Z</time></trkpt><trkpt lat="55.665844" lon="-4.691680"><ele>39.043</ele><time>2022-11-17T18:04:50Z</time></trkpt><trkpt lat="55.664480" lon="-4.695979"><ele>29.066</ele><time>2022-11-17T18:05:30Z</time></trkpt><trkpt lat="55.668881" lon="-4.693759"><ele>40.082</ele><time>2022-11-17T18:06:10Z</time></trkpt><trkpt lat="55.682921" lon="-4.693912"><ele>36.083</ele><time>2022-11-17T18:06:50Z</time></trkpt><trkpt lat="55.687574" lon="-4.697029"><ele>42.321</ele><time>2022-11-17T18:07:30Z</time></trkpt><trkpt lat="55.692251" lon="-4.689580"><ele>67.241</ele><time>2022-11-17T18:08:10Z</time></trkpt><trkpt lat="55.702327" lon="-4.693349"><ele>55.805</ele><time>2022-11-17T18:08:50Z</time></trkpt><trkpt lat="55.715514" lon="-4.693558"><ele>66.209</ele><time>2022-11-17T18:09:30Z</time></trkpt><trkpt lat="55.714515" lon="-4.694107"><ele>65.273</ele><time>2022-11-17T18:10:10Z</time></trkpt><trkpt lat="55.738169" lon="-4.665745"><ele>37.763</ele><time>2022-11-17T18:10:50Z</time></trkpt><trkpt lat="55.737601" lon="-4.663597"><ele>40.130</ele><time>2022-11-17T18:11:30Z</time></trkpt><trkpt lat="55.728996" lon="-4.681871"><ele>69.449</ele><time>2022-11-17T18:12:10Z</time></trkpt><trkpt lat="55.722744" lon="-4.690223"><ele>68.214</ele><time>2022-11-17T18:12:50Z</time></trkpt><trkpt lat="55.716288" lon="-4.693119"><ele>69.466</ele><time>2022-11-17T18:13:30Z</time></trkpt><trkpt lat="55.740181" lon="-4.666010"><ele>45.019</ele><time>2022-11-17T18:14:10Z</time></trkpt><trkpt lat="55.738767" lon="-4.664510"><ele>41.695</ele><time>2022-11-17T18:14:50Z</time></trkpt><trkpt lat="55.738169" lon="-4.665745"><ele>37.736</ele><time>2022-11-17T18:15:30Z</time></trkpt><trkpt lat="55.745339" lon="-4.677891"><ele>42.828</ele><time>2022-11-17T18:16:10Z</time></trkpt><trkpt lat="55.746543" lon="-4.672027"><ele>38.389</ele><time>2022-11-17T18:16:50Z</time></trkpt><trkpt lat="55.740968" lon="-4.665768"><ele>43.517</ele><time>2022-11-17T18:17:30Z</time></trkpt><trkpt lat="55.750688" lon="-4.678892"><ele>47.009</ele><time>2022-11-17T18:18:10Z</time></trkpt><trkpt lat="55.745729" lon="-4.679414"><ele>40.123</ele><time>2022-11-17T18:18:50Z</time></trkpt><trkpt lat="55.757967" lon="-4.677046"><ele>59.083</ele><time>2022-11-17T18:19:30Z</time></trkpt><trkpt lat="55.756389" lon="-4.678086"><ele>57.060</ele><time>2022-11-17T18:20:10Z</time></trkpt><trkpt lat="55.790258" lon="-4.633187"><ele>36.499</ele><time>2022-11-17T18:20:50Z</time></trkpt><trkpt lat="55.779784" lon="-4.649166"><ele>56.274</ele><time>2022-11-17T18:21:30Z</time></trkpt><trkpt lat="55.767487" lon="-4.663865"><ele>58.266</ele><time>2022-11-17T18:22:10Z</time></trkpt><trkpt lat="55.792395" lon="-4.625143"><ele>28.629</ele><time>2022-11-17T18:22:50Z</time></trkpt><trkpt lat="55.791798" lon="-4.630576"><ele>35.125</ele><time>2022-11-17T18:23:30Z</time></trkpt><trkpt lat="55.792395" lon="-4.625143"><ele>28.696</ele><time>2022-11-17T18:24:10Z</time></trkpt><trkpt lat="55.795786" lon="-4.623097"><ele>32.035</ele><time>2022-11-17T18:24:50Z</time></trkpt><trkpt lat="55.793164" lon="-4.624624"><ele>30.486</ele><time>2022-11-17T18:25:30Z</time></trkpt><trkpt lat="55.801526" lon="-4.607218"><ele>35.014</ele><time>2022-11-17T18:26:10Z</time></trkpt><trkpt lat="55.796830" lon="-4.621644"><ele>33.809</ele><time>2022-11-17T18:26:50Z</time></trkpt><trkpt lat="55.795786" lon="-4.623097"><ele>32.054</ele><time>2022-11-17T18:27:30Z</time></trkpt><trkpt lat="55.813799" lon="-4.574182"><ele>45.484</ele><time>2022-11-17T18:28:10Z</time></trkpt><trkpt lat="55.812577" lon="-4.577566"><ele>41.531</ele><time>2022-11-17T18:28:50Z</time></trkpt><trkpt lat="55.826932" lon="-4.555828"><ele>45.940</ele><time>2022-11-17T18:29:30Z</time></trkpt><trkpt lat="55.818740" lon="-4.562272"><ele>50.165</ele><time>2022-11-17T18:30:10Z</time></trkpt><trkpt lat="55.813799" lon="-4.574182"><ele>45.427</ele><time>2022-11-17T18:30:50Z</time></trkpt><trkpt lat="55.834039" lon="-4.530774"><ele>30.930</ele><time>2022-11-17T18:31:30Z</time></trkpt><trkpt lat="55.833181" lon="-4.541807"><ele>40.946</ele><time>2022-11-17T18:32:10Z</time></trkpt><trkpt lat="55.828773" lon="-4.552981"><ele>50.347</ele><time>2022-11-17T18:32:50Z</time></trkpt><trkpt lat="55.835477" lon="-4.527661"><ele>30.635</ele><time>2022-11-17T18:33:30Z</time></trkpt><trkpt lat="55.834700" lon="-4.526643"><ele>26.786</ele><time>2022-11-17T18:34:10Z</time></trkpt><trkpt lat="55.838762" lon="-4.518069"><ele>17.514</ele><time>2022-11-17T18:34:50Z</time></trkpt><trkpt lat="55.842049" lon="-4.505067"><ele>10.409</ele><time>2022-11-17T18:35:30Z</time></trkpt><trkpt lat="55.837130" lon="-4.485460"><ele>17.774</ele><time>2022-11-17T18:36:10Z</time></trkpt><trkpt lat="55.839154" lon="-4.469820"><ele>21.064</ele><time>2022-11-17T18:36:50Z</time></trkpt><trkpt lat="55.836621" lon="-4.447091"><ele>22.091</ele><time>2022-11-17T18:37:30Z</time></trkpt><trkpt lat="55.841599" lon="-4.437283"><ele>21.030</ele><time>2022-11-17T18:38:10Z</time></trkpt><trkpt lat="55.840093" lon="-4.424583"><ele>18.065</ele><time>2022-11-17T18:38:50Z</time></trkpt><trkpt lat="55.839996" lon="-4.422191"><ele>20.177</ele><time>2022-11-17T18:39:30Z</time></trkpt><trkpt lat="55.837322" lon="-4.415353"><ele>24.910</ele><time>2022-11-17T18:40:10Z</time></trkpt><trkpt lat="55.835628" lon="-4.402902"><ele>23.186</ele><time>2022-11-17T18:40:50Z</time></trkpt><trkpt lat="55.834961" lon="-4.405367"><ele>26.557</ele><time>2022-11-17T18:41:30Z</time></trkpt><trkpt lat="55.836658" lon="-4.410725"><ele>17.036</ele><time>2022-11-17T18:42:10Z</time></trkpt><trkpt lat="55.833943" lon="-4.389138"><ele>24.617</ele><time>2022-11-17T18:42:50Z</time></trkpt><trkpt lat="55.832853" lon="-4.388548"><ele>20.518</ele><time>2022-11-17T18:43:30Z</time></trkpt><trkpt lat="55.835904" lon="-4.384476"><ele>8.709</ele><time>2022-11-17T18:44:10Z</time></trkpt><trkpt lat="55.834984" lon="-4.374933"><ele>14.654</ele><time>2022-11-17T18:44:50Z</time></trkpt><trkpt lat="55.838240" lon="-4.371186"><ele>13.114</ele><time>2022-11-17T18:45:30Z</time></trkpt><trkpt lat="55.837530" lon="-4.365913"><ele>15.011</ele><time>2022-11-17T18:46:10Z</time></trkpt><trkpt lat="55.840192" lon="-4.355719"><ele>20.110</ele><time>2022-11-17T18:46:50Z</time></trkpt><trkpt lat="55.840228" lon="-4.349179"><ele>17.275</ele><time>2022-11-17T18:47:30Z</time></trkpt><trkpt lat="55.837213" lon="-4.341442"><ele>17.097</ele><time>2022-11-17T18:48:10Z</time></trkpt><trkpt lat="55.832227" lon="-4.340345"><ele>22.020</ele><time>2022-11-17T18:48:50Z</time></trkpt><trkpt lat="55.829812" lon="-4.332139"><ele>16.726</ele><time>2022-11-17T18:49:30Z</time></trkpt><trkpt lat="55.831452" lon="-4.327882"><ele>16.457</ele><time>2022-11-17T18:50:10Z</time></trkpt><trkpt lat="55.828410" lon="-4.319812"><ele>23.441</ele><time>2022-11-17T18:50:50Z</time></trkpt><trkpt lat="55.829915" lon="-4.320600"><ele>23.481</ele><time>2022-11-17T18:51:30Z</time></trkpt><trkpt lat="55.832413" lon="-4.315483"><ele>24.309</ele><time>2022-11-17T18:52:10Z</time></trkpt><trkpt lat="55.835728" lon="-4.313600"><ele>24.409</ele><time>2022-11-17T18:52:50Z</time></trkpt><trkpt lat="55.843910" lon="-4.300234"><ele>23.025</ele><time>2022-11-17T18:53:30Z</time></trkpt><trkpt lat="55.840616" lon="-4.305674"><ele>27.115</ele><time>2022-11-17T18:54:10Z</time></trkpt><trkpt lat="55.838374" lon="-4.306222"><ele>26.792</ele><time>2022-11-17T18:54:50Z</time></trkpt><trkpt lat="55.849069" lon="-4.298929"><ele>17.171</ele><time>2022-11-17T18:55:30Z</time></trkpt><trkpt lat="55.845573" lon="-4.301325"><ele>21.636</ele><time>2022-11-17T18:56:10Z</time></trkpt><trkpt lat="55.853989" lon="-4.288258"><ele>9.658</ele><time>2022-11-17T18:56:50Z</time></trkpt><trkpt lat="55.856532" lon="-4.287622"><ele>10.941</ele><time>2022-11-17T18:57:30Z</time></trkpt><trkpt lat="55.856800" lon="-4.290482"><ele>5.567</ele><time>2022-11-17T18:58:10Z</time></trkpt><trkpt lat="55.856800" lon="-4.290482"><ele>5.538</ele><time>2022-11-17T18:58:50Z</time></trkpt><trkpt lat="55.856532" lon="-4.287622"><ele>10.988</ele><time>2022-11-17T18:59:30Z</time></trkpt><trkpt lat="55.855375" lon="-4.287979"><ele>6.824</ele><time>2022-11-17T19:00:10Z</time></trkpt><trkpt lat="55.861156" lon="-4.295778"><ele>1.026</ele><time>2022-11-17T19:00:50Z</time></trkpt><trkpt lat="55.859168" lon="-4.288823"><ele>1.009</ele><time>2022-11-17T19:01:30Z</time></trkpt><trkpt lat="55.866149" lon="-4.304194"><ele>4.429</ele><time>2022-11-17T19:02:10Z</time></trkpt><trkpt lat="55.868451" lon="-4.318780"><ele>8.289</ele><time>2022-11-17T19:02:50Z</time></trkpt><trkpt lat="55.865796" lon="-4.310411"><ele>1.766</ele><time>2022-11-17T19:03:30Z</time></trkpt><trkpt lat="55.866593" lon="-4.307120"><ele>3.545</ele><time>2022-11-17T19:04:10Z</time></trkpt><trkpt lat="55.865397" lon="-4.307554"><ele>2.210</ele><time>2022-11-17T19:04:50Z</time></trkpt><trkpt lat="55.862689" lon="-4.296873"><ele>5.952</ele><time>2022-11-17T19:05:30Z</time></trkpt><trkpt lat="55.869271" lon="-4.326921"><ele>5.985</ele><time>2022-11-17T19:06:10Z</time></trkpt><trkpt lat="55.868527" lon="-4.319139"><ele>6.161</ele><time>2022-11-17T19:06:50Z</time></trkpt><trkpt lat="55.869903" lon="-4.338505"><ele>7.872</ele><time>2022-11-17T19:07:30Z</time></trkpt><trkpt lat="55.876292" lon="-4.357465"><ele>5.455</ele><time>2022-11-17T19:08:10Z</time></trkpt><trkpt lat="55.897218" lon="-4.401983"><ele>8.807</ele><time>2022-11-17T19:08:50Z</time></trkpt><trkpt lat="55.896368" lon="-4.400420"><ele>7.817</ele><time>2022-11-17T19:09:30Z</time></trkpt><trkpt lat="55.902130" lon="-4.399459"><ele>10.709</ele><time>2022-11-17T19:10:10Z</time></trkpt><trkpt lat="55.901172" lon="-4.400171"><ele>9.886</ele><time>2022-11-17T19:10:50Z</time></trkpt><trkpt lat="55.904555" lon="-4.413647"><ele>9.746</ele><time>2022-11-17T19:11:30Z</time></trkpt><trkpt lat="55.903125" lon="-4.404988"><ele>9.043</ele><time>2022-11-17T19:12:10Z</time></trkpt><trkpt lat="55.909860" lon="-4.425103"><ele>11.162</ele><time>2022-11-17T19:12:50Z</time></trkpt><trkpt lat="55.904555" lon="-4.413647"><ele>9.747</ele><time>2022-11-17T19:13:30Z</time></trkpt><trkpt lat="55.911056" lon="-4.435353"><ele>6.899</ele><time>2022-11-17T19:14:10Z</time></trkpt><trkpt lat="55.909660" lon="-4.426257"><ele>10.282</ele><time>2022-11-17T19:14:50Z</time></trkpt><trkpt lat="55.920045" lon="-4.455635"><ele>10.078</ele><time>2022-11-17T19:15:30Z</time></trkpt><trkpt lat="55.917475" lon="-4.453089"><ele>8.639</ele><time>2022-11-17T19:16:10Z</time></trkpt><trkpt lat="55.911550" lon="-4.439226"><ele>8.659</ele><time>2022-11-17T19:16:50Z</time></trkpt><trkpt lat="55.911056" lon="-4.435353"><ele>6.803</ele><time>2022-11-17T19:17:30Z</time></trkpt><trkpt lat="55.929667" lon="-4.478450"><ele>8.623</ele><time>2022-11-17T19:18:10Z</time></trkpt><trkpt lat="55.923076" lon="-4.457831"><ele>7.309</ele><time>2022-11-17T19:18:50Z</time></trkpt><trkpt lat="55.920045" lon="-4.455635"><ele>10.066</ele><time>2022-11-17T19:19:30Z</time></trkpt><trkpt lat="55.931049" lon="-4.482954"><ele>15.276</ele><time>2022-11-17T19:20:10Z</time></trkpt><trkpt lat="55.930989" lon="-4.481069"><ele>15.853</ele><time>2022-11-17T19:20:50Z</time></trkpt><trkpt lat="55.929965" lon="-4.480259"><ele>8.162</ele><time>2022-11-17T19:21:30Z</time></trkpt><trkpt lat="55.931542" lon="-4.503012"><ele>12.087</ele><time>2022-11-17T19:22:10Z</time></trkpt><trkpt lat="55.931654" lon="-4.486946"><ele>17.799</ele><time>2022-11-17T19:22:50Z</time></trkpt><trkpt lat="55.934827" lon="-4.514565"><ele>5.952</ele><time>2022-11-17T19:23:30Z</time></trkpt><trkpt lat="55.931542" lon="-4.503012"><ele>12.068</ele><time>2022-11-17T19:24:10Z</time></trkpt><trkpt lat="55.934279" lon="-4.524301"><ele>6.619</ele><time>2022-11-17T19:24:50Z</time></trkpt><trkpt lat="55.934827" lon="-4.514565"><ele>5.983</ele><time>2022-11-17T19:25:30Z</time></trkpt><trkpt lat="55.940862" lon="-4.538557"><ele>15.625</ele><time>2022-11-17T19:26:10Z</time></trkpt><trkpt lat="55.937722" lon="-4.535294"><ele>12.117</ele><time>2022-11-17T19:26:50Z</time></trkpt><trkpt lat="55.934534" lon="-4.525735"><ele>8.209</ele><time>2022-11-17T19:27:30Z</time></trkpt><trkpt lat="55.945260" lon="-4.554905"><ele>7.019</ele><time>2022-11-17T19:28:10Z</time></trkpt><trkpt lat="55.942063" lon="-4.547329"><ele>5.649</ele><time>2022-11-17T19:28:50Z</time></trkpt><trkpt lat="55.946695" lon="-4.563703"><ele>5.056</ele><time>2022-11-17T19:29:30Z</time></trkpt><trkpt lat="55.947117" lon="-4.562112"><ele>7.075</ele><time>2022-11-17T19:30:10Z</time></trkpt><trkpt lat="55.945271" lon="-4.554791"><ele>7.060</ele><time>2022-11-17T19:30:50Z</time></trkpt><trkpt lat="55.945375" lon="-4.570239"><ele>5.372</ele><time>2022-11-17T19:31:30Z</time></trkpt><trkpt lat="55.946706" lon="-4.567860"><ele>5.515</ele><time>2022-11-17T19:32:10Z</time></trkpt><trkpt lat="55.944233" lon="-4.572971"><ele>5.071</ele><time>2022-11-17T19:32:50Z</time></trkpt><trkpt lat="55.959369" lon="-4.575473"><ele>2.592</ele><time>2022-11-17T19:33:30Z</time></trkpt><trkpt lat="55.953105" lon="-4.580573"><ele>4.252</ele><time>2022-11-17T19:34:10Z</time></trkpt><trkpt lat="55.949667" lon="-4.574514"><ele>1.453</ele><time>2022-11-17T19:34:50Z</time></trkpt><trkpt lat="55.944141" lon="-4.576582"><ele>6.508</ele><time>2022-11-17T19:35:30Z</time></trkpt><trkpt lat="55.971884" lon="-4.582376"><ele>5.909</ele><time>2022-11-17T19:36:10Z</time></trkpt><trkpt lat="55.970352" lon="-4.583434"><ele>7.756</ele><time>2022-11-17T19:36:50Z</time></trkpt><trkpt lat="55.968043" lon="-4.581465"><ele>8.726</ele><time>2022-11-17T19:37:30Z</time></trkpt><trkpt lat="55.966204" lon="-4.575375"><ele>3.713</ele><time>2022-11-17T19:38:10Z</time></trkpt><trkpt lat="55.962023" lon="-4.578645"><ele>3.092</ele><time>2022-11-17T19:38:50Z</time></trkpt><trkpt lat="55.960055" lon="-4.575340"><ele>3.017</ele><time>2022-11-17T19:39:30Z</time></trkpt><trkpt lat="55.973157" lon="-4.581486"><ele>6.089</ele><time>2022-11-17T19:40:10Z</time></trkpt><trkpt lat="55.971884" lon="-4.582376"><ele>5.932</ele><time>2022-11-17T19:40:50Z</time></trkpt><trkpt lat="55.974746" lon="-4.577599"><ele>7.048</ele><time>2022-11-17T19:41:30Z</time></trkpt><trkpt lat="55.973157" lon="-4.581486"><ele>6.079</ele><time>2022-11-17T19:42:10Z</time></trkpt><trkpt lat="55.980062" lon="-4.576201"><ele>7.561</ele><time>2022-11-17T19:42:50Z</time></trkpt><trkpt lat="55.977870" lon="-4.581419"><ele>9.921</ele><time>2022-11-17T19:43:30Z</time></trkpt><trkpt lat="55.975447" lon="-4.577474"><ele>6.413</ele><time>2022-11-17T19:44:10Z</time></trkpt><trkpt lat="55.984347" lon="-4.573522"><ele>10.309</ele><time>2022-11-17T19:44:50Z</time></trkpt><trkpt lat="55.980062" lon="-4.576201"><ele>7.527</ele><time>2022-11-17T19:45:30Z</time></trkpt><trkpt lat="55.997761" lon="-4.576529"><ele>10.117</ele><time>2022-11-17T19:46:10Z</time></trkpt><trkpt lat="55.994708" lon="-4.573267"><ele>11.254</ele><time>2022-11-17T19:46:50Z</time></trkpt><trkpt lat="55.991645" lon="-4.573307"><ele>12.013</ele><time>2022-11-17T19:47:30Z</time></trkpt><trkpt lat="55.988357" lon="-4.577369"><ele>14.788</ele><time>2022-11-17T19:48:10Z</time></trkpt><trkpt lat="55.986051" lon="-4.573766"><ele>9.050</ele><time>2022-11-17T19:48:50Z</time></trkpt><trkpt lat="56.001517" lon="-4.581427"><ele>12.583</ele><time>2022-11-17T19:49:30Z</time></trkpt><trkpt lat="55.997761" lon="-4.576529"><ele>10.129</ele><time>2022-11-17T19:50:10Z</time></trkpt><trkpt lat="56.003142" lon="-4.582425"><ele>10.850</ele><time>2022-11-17T19:50:50Z</time></trkpt><trkpt lat="56.001517" lon="-4.581427"><ele>12.552</ele><time>2022-11-17T19:51:30Z</time></trkpt><trkpt lat="56.008643" lon="-4.578807"><ele>35.253</ele><time>2022-11-17T19:52:10Z</time></trkpt><trkpt lat="56.007607" lon="-4.581934"><ele>27.808</ele><time>2022-11-17T19:52:50Z</time></trkpt><trkpt lat="56.006034" lon="-4.581149"><ele>16.809</ele><time>2022-11-17T19:53:30Z</time></trkpt><trkpt lat="56.012363" lon="-4.580820"><ele>53.656</ele><time>2022-11-17T19:54:10Z</time></trkpt><trkpt lat="56.008643" lon="-4.578807"><ele>35.266</ele><time>2022-11-17T19:54:50Z</time></trkpt><trkpt lat="56.013346" lon="-4.575153"><ele>61.533</ele><time>2022-11-17T19:55:30Z</time></trkpt><trkpt lat="56.012363" lon="-4.580820"><ele>53.692</ele><time>2022-11-17T19:56:10Z</time></trkpt><trkpt lat="56.012918" lon="-4.563106"><ele>43.167</ele><time>2022-11-17T19:56:50Z</time></trkpt><trkpt lat="56.015233" lon="-4.559864"><ele>57.519</ele><time>2022-11-17T19:57:30Z</time></trkpt><trkpt lat="56.013081" lon="-4.556565"><ele>75.972</ele><time>2022-11-17T19:58:10Z</time></trkpt><trkpt lat="56.014352" lon="-4.550938"><ele>85.358</ele><time>2022-11-17T19:58:50Z</time></trkpt><trkpt lat="56.012928" lon="-4.547989"><ele>81.339</ele><time>2022-11-17T19:59:30Z</time></trkpt><trkpt lat="56.016272" lon="-4.539029"><ele>74.799</ele><time>2022-11-17T20:00:10Z</time></trkpt><trkpt lat="56.015328" lon="-4.533738"><ele>69.007</ele><time>2022-11-17T20:00:50Z</time></trkpt><trkpt lat="56.022157" lon="-4.515291"><ele>74.227</ele><time>2022-11-17T20:01:30Z</time></trkpt><trkpt lat="56.020825" lon="-4.508493"><ele>73.609</ele><time>2022-11-17T20:02:10Z</time></trkpt><trkpt lat="56.026523" lon="-4.493389"><ele>58.330</ele><time>2022-11-17T20:02:50Z</time></trkpt><trkpt lat="56.032704" lon="-4.490429"><ele>62.520</ele><time>2022-11-17T20:03:30Z</time></trkpt><trkpt lat="56.030524" lon="-4.483679"><ele>52.087</ele><time>2022-11-17T20:04:10Z</time></trkpt><trkpt lat="56.037943" lon="-4.475140"><ele>45.866</ele><time>2022-11-17T20:04:50Z</time></trkpt><trkpt lat="56.039114" lon="-4.470260"><ele>44.921</ele><time>2022-11-17T20:05:30Z</time></trkpt><trkpt lat="56.042848" lon="-4.465134"><ele>49.673</ele><time>2022-11-17T20:06:10Z</time></trkpt><trkpt lat="56.043885" lon="-4.460172"><ele>51.066</ele><time>2022-11-17T20:06:50Z</time></trkpt><trkpt lat="56.042983" lon="-4.453785"><ele>39.732</ele><time>2022-11-17T20:07:30Z</time></trkpt><trkpt lat="56.049145" lon="-4.423594"><ele>27.163</ele><time>2022-11-17T20:08:10Z</time></trkpt><trkpt lat="56.055293" lon="-4.434014"><ele>58.591</ele><time>2022-11-17T20:08:50Z</time></trkpt><trkpt lat="56.065318" lon="-4.438615"><ele>50.881</ele><time>2022-11-17T20:09:30Z</time></trkpt><trkpt lat="56.065175" lon="-4.452103"><ele>51.219</ele><time>2022-11-17T20:10:10Z</time></trkpt><trkpt lat="56.081699" lon="-4.449716"><ele>133.409</ele><time>2022-11-17T20:10:50Z</time></trkpt><trkpt lat="56.088243" lon="-4.435502"><ele>202.820</ele><time>2022-11-17T20:11:30Z</time></trkpt><trkpt lat="56.100767" lon="-4.425969"><ele>214.290</ele><time>2022-11-17T20:12:10Z</time></trkpt><trkpt lat="56.110790" lon="-4.405525"><ele>124.357</ele><time>2022-11-17T20:12:50Z</time></trkpt><trkpt lat="56.118190" lon="-4.400491"><ele>70.696</ele><time>2022-11-17T20:13:30Z</time></trkpt><trkpt lat="56.129397" lon="-4.388128"><ele>34.241</ele><time>2022-11-17T20:14:10Z</time></trkpt><trkpt lat="56.135775" lon="-4.386249"><ele>36.153</ele><time>2022-11-17T20:14:50Z</time></trkpt><trkpt lat="56.140987" lon="-4.387758"><ele>62.446</ele><time>2022-11-17T20:15:30Z</time></trkpt><trkpt lat="56.146030" lon="-4.378833"><ele>75.732</ele><time>2022-11-17T20:16:10Z</time></trkpt><trkpt lat="56.146899" lon="-4.380882"><ele>77.583</ele><time>2022-11-17T20:16:50Z</time></trkpt><trkpt lat="56.152386" lon="-4.377399"><ele>79.181</ele><time>2022-11-17T20:17:30Z</time></trkpt><trkpt lat="56.156668" lon="-4.367023"><ele>43.361</ele><time>2022-11-17T20:18:10Z</time></trkpt><trkpt lat="56.159000" lon="-4.365018"><ele>18.417</ele><time>2022-11-17T20:18:50Z</time></trkpt><trkpt lat="56.168968" lon="-4.365960"><ele>22.709</ele><time>2022-11-17T20:19:30Z</time></trkpt><trkpt lat="56.176465" lon="-4.376489"><ele>24.979</ele><time>2022-11-17T20:20:10Z</time></trkpt><trkpt lat="56.178650" lon="-4.385159"><ele>23.239</ele><time>2022-11-17T20:20:50Z</time></trkpt><trkpt lat="56.178085" lon="-4.382794"><ele>21.126</ele><time>2022-11-17T20:21:30Z</time></trkpt><trkpt lat="56.178602" lon="-4.384674"><ele>22.995</ele><time>2022-11-17T20:22:10Z</time></trkpt><trkpt lat="56.179505" lon="-4.381450"><ele>38.990</ele><time>2022-11-17T20:22:50Z</time></trkpt><trkpt lat="56.180782" lon="-4.384387"><ele>64.922</ele><time>2022-11-17T20:23:30Z</time></trkpt><trkpt lat="56.184145" lon="-4.382473"><ele>85.675</ele><time>2022-11-17T20:24:10Z</time></trkpt><trkpt lat="56.185079" lon="-4.376935"><ele>108.841</ele><time>2022-11-17T20:24:50Z</time></trkpt><trkpt lat="56.186011" lon="-4.381576"><ele>144.512</ele><time>2022-11-17T20:25:30Z</time></trkpt><trkpt lat="56.188034" lon="-4.381484"><ele>155.788</ele><time>2022-11-17T20:26:10Z</time></trkpt><trkpt lat="56.189969" lon="-4.377419"><ele>187.724</ele><time>2022-11-17T20:26:50Z</time></trkpt><trkpt lat="56.189769" lon="-4.372402"><ele>213.826</ele><time>2022-11-17T20:27:30Z</time></trkpt><trkpt lat="56.198328" lon="-4.387730"><ele>255.409</ele><time>2022-11-17T20:28:10Z</time></trkpt><trkpt lat="56.199771" lon="-4.377437"><ele>243.929</ele><time>2022-11-17T20:28:50Z</time></trkpt><trkpt lat="56.202305" lon="-4.377391"><ele>216.319</ele><time>2022-11-17T20:29:30Z</time></trkpt><trkpt lat="56.200471" lon="-4.370661"><ele>197.746</ele><time>2022-11-17T20:30:10Z</time></trkpt><trkpt lat="56.201955" lon="-4.364054"><ele>170.675</ele><time>2022-11-17T20:30:50Z</time></trkpt><trkpt lat="56.203606" lon="-4.363759"><ele>165.920</ele><time>2022-11-17T20:31:30Z</time></trkpt><trkpt lat="56.203140" lon="-4.357239"><ele>146.282</ele><time>2022-11-17T20:32:10Z</time></trkpt><trkpt lat="56.204722" lon="-4.359417"><ele>133.995</ele><time>2022-11-17T20:32:50Z</time></trkpt><trkpt lat="56.206583" lon="-4.353239"><ele>144.291</ele><time>2022-11-17T20:33:30Z</time></trkpt><trkpt lat="56.208089" lon="-4.353804"><ele>151.172</ele><time>2022-11-17T20:34:10Z</time></trkpt><trkpt lat="56.208686" lon="-4.370714"><ele>143.415</ele><time>2022-11-17T20:34:50Z</time></trkpt><trkpt lat="56.211420" lon="-4.363376"><ele>158.465</ele><time>2022-11-17T20:35:30Z</time></trkpt><trkpt lat="56.214204" lon="-4.360873"><ele>156.011</ele><time>2022-11-17T20:36:10Z</time></trkpt><trkpt lat="56.214129" lon="-4.348842"><ele>160.409</ele><time>2022-11-17T20:36:50Z</time></trkpt><trkpt lat="56.216892" lon="-4.351664"><ele>131.962</ele><time>2022-11-17T20:37:30Z</time></trkpt><trkpt lat="56.219365" lon="-4.360240"><ele>100.412</ele><time>2022-11-17T20:38:10Z</time></trkpt><trkpt lat="56.220021" lon="-4.327580"><ele>93.869</ele><time>2022-11-17T20:38:50Z</time></trkpt><trkpt lat="56.218375" lon="-4.318620"><ele>91.628</ele><time>2022-11-17T20:39:30Z</time></trkpt><trkpt lat="56.216031" lon="-4.314703"><ele>90.613</ele><time>2022-11-17T20:40:10Z</time></trkpt><trkpt lat="56.217712" lon="-4.302872"><ele>90.995</ele><time>2022-11-17T20:40:50Z</time></trkpt><trkpt lat="56.215858" lon="-4.294169"><ele>98.278</ele><time>2022-11-17T20:41:30Z</time></trkpt><trkpt lat="56.216405" lon="-4.288003"><ele>101.024</ele><time>2022-11-17T20:42:10Z</time></trkpt><trkpt lat="56.225343" lon="-4.263063"><ele>88.535</ele><time>2022-11-17T20:42:50Z</time></trkpt><trkpt lat="56.236355" lon="-4.251375"><ele>83.292</ele><time>2022-11-17T20:43:30Z</time></trkpt><trkpt lat="56.240221" lon="-4.218430"><ele>74.473</ele><time>2022-11-17T20:44:10Z</time></trkpt><trkpt lat="56.243549" lon="-4.216952"><ele>71.820</ele><time>2022-11-17T20:44:50Z</time></trkpt><trkpt lat="56.249224" lon="-4.260855"><ele>102.309</ele><time>2022-11-17T20:45:30Z</time></trkpt><trkpt lat="56.241995" lon="-4.234868"><ele>71.060</ele><time>2022-11-17T20:46:10Z</time></trkpt><trkpt lat="56.242207" lon="-4.229057"><ele>71.350</ele><time>2022-11-17T20:46:50Z</time></trkpt><trkpt lat="56.244533" lon="-4.222488"><ele>72.617</ele><time>2022-11-17T20:47:30Z</time></trkpt><trkpt lat="56.249961" lon="-4.274510"><ele>122.256</ele><time>2022-11-17T20:48:10Z</time></trkpt><trkpt lat="56.251132" lon="-4.268182"><ele>112.021</ele><time>2022-11-17T20:48:50Z</time></trkpt><trkpt lat="56.249224" lon="-4.260855"><ele>102.363</ele><time>2022-11-17T20:49:30Z</time></trkpt><trkpt lat="56.252556" lon="-4.281848"><ele>131.886</ele><time>2022-11-17T20:50:10Z</time></trkpt><trkpt lat="56.249449" lon="-4.279466"><ele>124.372</ele><time>2022-11-17T20:50:50Z</time></trkpt><trkpt lat="56.248799" lon="-4.276258"><ele>125.823</ele><time>2022-11-17T20:51:30Z</time></trkpt><trkpt lat="56.249961" lon="-4.274510"><ele>122.245</ele><time>2022-11-17T20:52:10Z</time></trkpt><trkpt lat="56.254152" lon="-4.282969"><ele>129.647</ele><time>2022-11-17T20:52:50Z</time></trkpt><trkpt lat="56.252556" lon="-4.281848"><ele>131.811</ele><time>2022-11-17T20:53:30Z</time></trkpt><trkpt lat="56.261307" lon="-4.287808"><ele>127.209</ele><time>2022-11-17T20:54:10Z</time></trkpt><trkpt lat="56.255682" lon="-4.284625"><ele>123.285</ele><time>2022-11-17T20:54:50Z</time></trkpt><trkpt lat="56.254152" lon="-4.282969"><ele>129.655</ele><time>2022-11-17T20:55:30Z</time></trkpt><trkpt lat="56.268736" lon="-4.290731"><ele>127.642</ele><time>2022-11-17T20:56:10Z</time></trkpt><trkpt lat="56.262336" lon="-4.288381"><ele>129.181</ele><time>2022-11-17T20:56:50Z</time></trkpt><trkpt lat="56.287960" lon="-4.293559"><ele>136.246</ele><time>2022-11-17T20:57:30Z</time></trkpt><trkpt lat="56.279601" lon="-4.289940"><ele>131.368</ele><time>2022-11-17T20:58:10Z</time></trkpt><trkpt lat="56.272773" lon="-4.290681"><ele>135.161</ele><time>2022-11-17T20:58:50Z</time></trkpt><trkpt lat="56.291923" lon="-4.304757"><ele>141.967</ele><time>2022-11-17T20:59:30Z</time></trkpt><trkpt lat="56.289000" lon="-4.294197"><ele>130.598</ele><time>2022-11-17T21:00:10Z</time></trkpt><trkpt lat="56.287960" lon="-4.293559"><ele>136.265</ele><time>2022-11-17T21:00:50Z</time></trkpt><trkpt lat="56.299285" lon="-4.323552"><ele>144.568</ele><time>2022-11-17T21:01:30Z</time></trkpt><trkpt lat="56.298638" lon="-4.322330"><ele>160.114</ele><time>2022-11-17T21:02:10Z</time></trkpt><trkpt lat="56.305438" lon="-4.330889"><ele>127.509</ele><time>2022-11-17T21:02:50Z</time></trkpt><trkpt lat="56.300679" lon="-4.322913"><ele>127.247</ele><time>2022-11-17T21:03:30Z</time></trkpt><trkpt lat="56.316255" lon="-4.336740"><ele>150.337</ele><time>2022-11-17T21:04:10Z</time></trkpt><trkpt lat="56.308623" lon="-4.335222"><ele>161.714</ele><time>2022-11-17T21:04:50Z</time></trkpt><trkpt lat="56.307223" lon="-4.334268"><ele>155.843</ele><time>2022-11-17T21:05:30Z</time></trkpt><trkpt lat="56.321128" lon="-4.332815"><ele>139.798</ele><time>2022-11-17T21:06:10Z</time></trkpt><trkpt lat="56.318111" lon="-4.335584"><ele>160.370</ele><time>2022-11-17T21:06:50Z</time></trkpt><trkpt lat="56.350169" lon="-4.341655"><ele>137.863</ele><time>2022-11-17T21:07:30Z</time></trkpt><trkpt lat="56.348131" lon="-4.334839"><ele>134.159</ele><time>2022-11-17T21:08:10Z</time></trkpt><trkpt lat="56.345083" lon="-4.338075"><ele>164.660</ele><time>2022-11-17T21:08:50Z</time></trkpt><trkpt lat="56.332558" lon="-4.331593"><ele>179.652</ele><time>2022-11-17T21:09:30Z</time></trkpt><trkpt lat="56.325951" lon="-4.332393"><ele>142.353</ele><time>2022-11-17T21:10:10Z</time></trkpt><trkpt lat="56.350946" lon="-4.347995"><ele>139.608</ele><time>2022-11-17T21:10:50Z</time></trkpt><trkpt lat="56.352411" lon="-4.369783"><ele>135.309</ele><time>2022-11-17T21:11:30Z</time></trkpt><trkpt lat="56.355398" lon="-4.372972"><ele>128.716</ele><time>2022-11-17T21:12:10Z</time></trkpt><trkpt lat="56.357627" lon="-4.370960"><ele>139.656</ele><time>2022-11-17T21:12:50Z</time></trkpt><trkpt lat="56.357943" lon="-4.358530"><ele>142.723</ele><time>2022-11-17T21:13:30Z</time></trkpt><trkpt lat="56.356464" lon="-4.347927"><ele>147.532</ele><time>2022-11-17T21:14:10Z</time></trkpt><trkpt lat="56.356510" lon="-4.331771"><ele>143.667</ele><time>2022-11-17T21:14:50Z</time></trkpt><trkpt lat="56.354013" lon="-4.326816"><ele>131.019</ele><time>2022-11-17T21:15:30Z</time></trkpt><trkpt lat="56.358904" lon="-4.315614"><ele>142.022</ele><time>2022-11-17T21:16:10Z</time></trkpt><trkpt lat="56.362157" lon="-4.313518"><ele>151.098</ele><time>2022-11-17T21:16:50Z</time></trkpt><trkpt lat="56.361365" lon="-4.307974"><ele>153.739</ele><time>2022-11-17T21:17:30Z</time></trkpt><trkpt lat="56.366108" lon="-4.305550"><ele>155.057</ele><time>2022-11-17T21:18:10Z</time></trkpt><trkpt lat="56.371763" lon="-4.294705"><ele>135.100</ele><time>2022-11-17T21:18:50Z</time></trkpt><trkpt lat="56.380657" lon="-4.294124"><ele>196.320</ele><time>2022-11-17T21:19:30Z</time></trkpt><trkpt lat="56.379332" lon="-4.292950"><ele>167.609</ele><time>2022-11-17T21:20:10Z</time></trkpt><trkpt lat="56.380551" lon="-4.291244"><ele>155.436</ele><time>2022-11-17T21:20:50Z</time></trkpt><trkpt lat="56.377978" lon="-4.291985"><ele>135.246</ele><time>2022-11-17T21:21:30Z</time></trkpt><trkpt lat="56.395857" lon="-4.302792"><ele>234.923</ele><time>2022-11-17T21:22:10Z</time></trkpt><trkpt lat="56.389585" lon="-4.296702"><ele>218.812</ele><time>2022-11-17T21:22:50Z</time></trkpt><trkpt lat="56.385123" lon="-4.294210"><ele>209.427</ele><time>2022-11-17T21:23:30Z</time></trkpt><trkpt lat="56.417506" lon="-4.331712"><ele>290.519</ele><time>2022-11-17T21:24:10Z</time></trkpt><trkpt lat="56.403565" lon="-4.308904"><ele>249.912</ele><time>2022-11-17T21:24:50Z</time></trkpt><trkpt lat="56.395857" lon="-4.302792"><ele>234.978</ele><time>2022-11-17T21:25:30Z</time></trkpt><trkpt lat="56.421793" lon="-4.336820"><ele>288.529</ele><time>2022-11-17T21:26:10Z</time></trkpt><trkpt lat="56.417506" lon="-4.331712"><ele>290.512</ele><time>2022-11-17T21:26:50Z</time></trkpt><trkpt lat="56.425424" lon="-4.338641"><ele>291.432</ele><time>2022-11-17T21:27:30Z</time></trkpt><trkpt lat="56.421793" lon="-4.336820"><ele>288.505</ele><time>2022-11-17T21:28:10Z</time></trkpt><trkpt lat="56.433594" lon="-4.340383"><ele>243.409</ele><time>2022-11-17T21:28:50Z</time></trkpt><trkpt lat="56.440168" lon="-4.335295"><ele>227.142</ele><time>2022-11-17T21:29:30Z</time></trkpt><trkpt lat="56.436151" lon="-4.339273"><ele>229.752</ele><time>2022-11-17T21:30:10Z</time></trkpt><trkpt lat="56.445998" lon="-4.345518"><ele>179.199</ele><time>2022-11-17T21:30:50Z</time></trkpt><trkpt lat="56.442562" lon="-4.335663"><ele>217.468</ele><time>2022-11-17T21:31:30Z</time></trkpt><trkpt lat="56.459938" lon="-4.322846"><ele>138.813</ele><time>2022-11-17T21:32:10Z</time></trkpt><trkpt lat="56.448713" lon="-4.337388"><ele>172.055</ele><time>2022-11-17T21:32:50Z</time></trkpt><trkpt lat="56.445998" lon="-4.345518"><ele>179.138</ele><time>2022-11-17T21:33:30Z</time></trkpt><trkpt lat="56.462092" lon="-4.319788"><ele>126.754</ele><time>2022-11-17T21:34:10Z</time></trkpt><trkpt lat="56.460894" lon="-4.322724"><ele>130.675</ele><time>2022-11-17T21:34:50Z</time></trkpt><trkpt lat="56.460969" lon="-4.299748"><ele>157.261</ele><time>2022-11-17T21:35:30Z</time></trkpt><trkpt lat="56.459956" lon="-4.313697"><ele>149.721</ele><time>2022-11-17T21:36:10Z</time></trkpt><trkpt lat="56.462092" lon="-4.319788"><ele>126.713</ele><time>2022-11-17T21:36:50Z</time></trkpt><trkpt lat="56.468296" lon="-4.285709"><ele>159.609</ele><time>2022-11-17T21:37:30Z</time></trkpt><trkpt lat="56.461246" lon="-4.298319"><ele>152.637</ele><time>2022-11-17T21:38:10Z</time></trkpt><trkpt lat="56.472427" lon="-4.275825"><ele>126.257</ele><time>2022-11-17T21:38:50Z</time></trkpt><trkpt lat="56.468296" lon="-4.285709"><ele>159.624</ele><time>2022-11-17T21:39:30Z</time></trkpt><trkpt lat="56.477220" lon="-4.261642"><ele>124.243</ele><time>2022-11-17T21:40:10Z</time></trkpt><trkpt lat="56.479470" lon="-4.248696"><ele>119.038</ele><time>2022-11-17T21:40:50Z</time></trkpt><trkpt lat="56.485628" lon="-4.235585"><ele>119.160</ele><time>2022-11-17T21:41:30Z</time></trkpt><trkpt lat="56.487064" lon="-4.207099"><ele>152.313</ele><time>2022-11-17T21:42:10Z</time></trkpt><trkpt lat="56.494607" lon="-4.176518"><ele>155.329</ele><time>2022-11-17T21:42:50Z</time></trkpt><trkpt lat="56.495464" lon="-4.160816"><ele>122.080</ele><time>2022-11-17T21:43:30Z</time></trkpt><trkpt lat="56.504403" lon="-4.141061"><ele>182.154</ele><time>2022-11-17T21:44:10Z</time></trkpt><trkpt lat="56.514387" lon="-4.131627"><ele>181.856</ele><time>2022-11-17T21:44:50Z</time></trkpt><trkpt lat="56.525661" lon="-4.112957"><ele>146.511</ele><time>2022-11-17T21:45:30Z</time></trkpt><trkpt lat="56.548697" lon="-4.096345"><ele>173.409</ele><time>2022-11-17T21:46:10Z</time></trkpt><trkpt lat="56.555300" lon="-4.084308"><ele>187.216</ele><time>2022-11-17T21:46:50Z</time></trkpt><trkpt lat="56.559246" lon="-4.074152"><ele>211.286</ele><time>2022-11-17T21:47:30Z</time></trkpt><trkpt lat="56.563692" lon="-4.045480"><ele>160.263</ele><time>2022-11-17T21:48:10Z</time></trkpt><trkpt lat="56.568246" lon="-4.029806"><ele>118.682</ele><time>2022-11-17T21:48:50Z</time></trkpt><trkpt lat="56.580815" lon="-3.999328"><ele>115.797</ele><time>2022-11-17T21:49:30Z</time></trkpt><trkpt lat="56.588753" lon="-4.003635"><ele>138.489</ele><time>2022-11-17T21:50:10Z</time></trkpt><trkpt lat="56.594465" lon="-3.989183"><ele>122.672</ele><time>2022-11-17T21:50:50Z</time></trkpt><trkpt lat="56.607477" lon="-3.973282"><ele>107.838</ele><time>2022-11-17T21:51:30Z</time></trkpt><trkpt lat="56.611206" lon="-3.978874"><ele>97.749</ele><time>2022-11-17T21:52:10Z</time></trkpt><trkpt lat="56.614576" lon="-3.979259"><ele>99.455</ele><time>2022-11-17T21:52:50Z</time></trkpt><trkpt lat="56.613163" lon="-3.968622"><ele>97.807</ele><time>2022-11-17T21:53:30Z</time></trkpt><trkpt lat="56.615383" lon="-3.956367"><ele>98.017</ele><time>2022-11-17T21:54:10Z</time></trkpt><trkpt lat="56.615768" lon="-3.941619"><ele>93.309</ele><time>2022-11-17T21:54:50Z</time></trkpt><trkpt lat="56.620676" lon="-3.915962"><ele>96.586</ele><time>2022-11-17T21:55:30Z</time></trkpt><trkpt lat="56.620348" lon="-3.905767"><ele>90.186</ele><time>2022-11-17T21:56:10Z</time></trkpt><trkpt lat="56.622123" lon="-3.895583"><ele>88.273</ele><time>2022-11-17T21:56:50Z</time></trkpt><trkpt lat="56.625621" lon="-3.886444"><ele>91.742</ele><time>2022-11-17T21:57:30Z</time></trkpt><trkpt lat="56.625999" lon="-3.871127"><ele>91.477</ele><time>2022-11-17T21:58:10Z</time></trkpt><trkpt lat="56.627538" lon="-3.865534"><ele>94.539</ele><time>2022-11-17T21:58:50Z</time></trkpt><trkpt lat="56.624930" lon="-3.861882"><ele>90.332</ele><time>2022-11-17T21:59:30Z</time></trkpt><trkpt lat="56.627519" lon="-3.854871"><ele>84.388</ele><time>2022-11-17T22:00:10Z</time></trkpt><trkpt lat="56.634406" lon="-3.845419"><ele>92.379</ele><time>2022-11-17T22:00:50Z</time></trkpt><trkpt lat="56.637829" lon="-3.827600"><ele>101.694</ele><time>2022-11-17T22:01:30Z</time></trkpt><trkpt lat="56.643042" lon="-3.823425"><ele>91.657</ele><time>2022-11-17T22:02:10Z</time></trkpt><trkpt lat="56.644704" lon="-3.816138"><ele>96.022</ele><time>2022-11-17T22:02:50Z</time></trkpt><trkpt lat="56.651767" lon="-3.805294"><ele>91.909</ele><time>2022-11-17T22:03:30Z</time></trkpt><trkpt lat="56.654971" lon="-3.795697"><ele>104.750</ele><time>2022-11-17T22:04:10Z</time></trkpt><trkpt lat="56.655783" lon="-3.786950"><ele>84.320</ele><time>2022-11-17T22:04:50Z</time></trkpt><trkpt lat="56.661143" lon="-3.774439"><ele>89.647</ele><time>2022-11-17T22:05:30Z</time></trkpt><trkpt lat="56.661686" lon="-3.761077"><ele>73.676</ele><time>2022-11-17T22:06:10Z</time></trkpt><trkpt lat="56.660334" lon="-3.750702"><ele>66.721</ele><time>2022-11-17T22:06:50Z</time></trkpt><trkpt lat="56.658421" lon="-3.755497"><ele>65.043</ele><time>2022-11-17T22:07:30Z</time></trkpt><trkpt lat="56.656802" lon="-3.753552"><ele>71.176</ele><time>2022-11-17T22:08:10Z</time></trkpt><trkpt lat="56.647382" lon="-3.728028"><ele>80.112</ele><time>2022-11-17T22:08:50Z</time></trkpt><trkpt lat="56.644582" lon="-3.695718"><ele>70.613</ele><time>2022-11-17T22:09:30Z</time></trkpt><trkpt lat="56.647378" lon="-3.680514"><ele>62.194</ele><time>2022-11-17T22:10:10Z</time></trkpt><trkpt lat="56.648129" lon="-3.682444"><ele>74.457</ele><time>2022-11-17T22:10:50Z</time></trkpt><trkpt lat="56.652942" lon="-3.678245"><ele>95.322</ele><time>2022-11-17T22:11:30Z</time></trkpt><trkpt lat="56.663922" lon="-3.682110"><ele>99.709</ele><time>2022-11-17T22:12:10Z</time></trkpt><trkpt lat="56.671461" lon="-3.692357"><ele>98.110</ele><time>2022-11-17T22:12:50Z</time></trkpt><trkpt lat="56.673416" lon="-3.699646"><ele>124.280</ele><time>2022-11-17T22:13:30Z</time></trkpt><trkpt lat="56.681963" lon="-3.712787"><ele>99.997</ele><time>2022-11-17T22:14:10Z</time></trkpt><trkpt lat="56.684511" lon="-3.713388"><ele>100.766</ele><time>2022-11-17T22:14:50Z</time></trkpt><trkpt lat="56.695807" lon="-3.727033"><ele>86.021</ele><time>2022-11-17T22:15:30Z</time></trkpt><trkpt lat="56.697426" lon="-3.732260"><ele>91.993</ele><time>2022-11-17T22:16:10Z</time></trkpt><trkpt lat="56.702306" lon="-3.731977"><ele>99.956</ele><time>2022-11-17T22:16:50Z</time></trkpt><trkpt lat="56.702306" lon="-3.731977"><ele>99.962</ele><time>2022-11-17T22:17:30Z</time></trkpt><trkpt lat="56.704644" lon="-3.742071"><ele>112.213</ele><time>2022-11-17T22:18:10Z</time></trkpt><trkpt lat="56.707751" lon="-3.747720"><ele>118.619</ele><time>2022-11-17T22:18:50Z</time></trkpt><trkpt lat="56.708692" lon="-3.755434"><ele>113.409</ele><time>2022-11-17T22:19:30Z</time></trkpt><trkpt lat="56.712522" lon="-3.763380"><ele>125.319</ele><time>2022-11-17T22:20:10Z</time></trkpt><trkpt lat="56.718270" lon="-3.764641"><ele>131.109</ele><time>2022-11-17T22:20:50Z</time></trkpt><trkpt lat="56.725725" lon="-3.774847"><ele>124.732</ele><time>2022-11-17T22:21:30Z</time></trkpt><trkpt lat="56.738151" lon="-3.769758"><ele>164.362</ele><time>2022-11-17T22:22:10Z</time></trkpt><trkpt lat="56.742807" lon="-3.771476"><ele>156.769</ele><time>2022-11-17T22:22:50Z</time></trkpt><trkpt lat="56.743650" lon="-3.776119"><ele>137.028</ele><time>2022-11-17T22:23:30Z</time></trkpt><trkpt lat="56.743386" lon="-3.772210"><ele>150.283</ele><time>2022-11-17T22:24:10Z</time></trkpt><trkpt lat="56.744081" lon="-3.777917"><ele>125.245</ele><time>2022-11-17T22:24:50Z</time></trkpt><trkpt lat="56.765042" lon="-3.831538"><ele>135.558</ele><time>2022-11-17T22:25:30Z</time></trkpt><trkpt lat="56.752087" lon="-3.803684"><ele>120.874</ele><time>2022-11-17T22:26:10Z</time></trkpt><trkpt lat="56.745269" lon="-3.779917"><ele>122.225</ele><time>2022-11-17T22:26:50Z</time></trkpt><trkpt lat="56.767781" lon="-3.839480"><ele>139.741</ele><time>2022-11-17T22:27:30Z</time></trkpt><trkpt lat="56.765042" lon="-3.831538"><ele>135.581</ele><time>2022-11-17T22:28:10Z</time></trkpt><trkpt lat="56.766018" lon="-3.848054"><ele>132.309</ele><time>2022-11-17T22:28:50Z</time></trkpt><trkpt lat="56.767862" lon="-3.839991"><ele>136.609</ele><time>2022-11-17T22:29:30Z</time></trkpt><trkpt lat="56.766018" lon="-3.848054"><ele>132.375</ele><time>2022-11-17T22:30:10Z</time></trkpt><trkpt lat="56.764563" lon="-3.847511"><ele>128.455</ele><time>2022-11-17T22:30:50Z</time></trkpt><trkpt lat="56.766253" lon="-3.871693"><ele>139.182</ele><time>2022-11-17T22:31:30Z</time></trkpt><trkpt lat="56.767390" lon="-3.873659"><ele>135.451</ele><time>2022-11-17T22:32:10Z</time></trkpt><trkpt lat="56.766793" lon="-3.881059"><ele>137.916</ele><time>2022-11-17T22:32:50Z</time></trkpt><trkpt lat="56.770105" lon="-3.895564"><ele>143.128</ele><time>2022-11-17T22:33:30Z</time></trkpt><trkpt lat="56.769619" lon="-3.905825"><ele>142.621</ele><time>2022-11-17T22:34:10Z</time></trkpt><trkpt lat="56.771379" lon="-3.926138"><ele>159.877</ele><time>2022-11-17T22:34:50Z</time></trkpt><trkpt lat="56.768720" lon="-3.935203"><ele>164.568</ele><time>2022-11-17T22:35:30Z</time></trkpt><trkpt lat="56.767322" lon="-3.947825"><ele>163.627</ele><time>2022-11-17T22:36:10Z</time></trkpt><trkpt lat="56.769322" lon="-3.964233"><ele>206.668</ele><time>2022-11-17T22:36:50Z</time></trkpt><trkpt lat="56.772360" lon="-3.977915"><ele>206.514</ele><time>2022-11-17T22:37:30Z</time></trkpt><trkpt lat="56.779225" lon="-3.997551"><ele>215.409</ele><time>2022-11-17T22:38:10Z</time></trkpt><trkpt lat="56.787629" lon="-4.012321"><ele>247.143</ele><time>2022-11-17T22:38:50Z</time></trkpt><trkpt lat="56.792370" lon="-4.014056"><ele>248.943</ele><time>2022-11-17T22:39:30Z</time></trkpt><trkpt lat="56.800244" lon="-4.034408"><ele>260.880</ele><time>2022-11-17T22:40:10Z</time></trkpt><trkpt lat="56.803109" lon="-4.066561"><ele>272.479</ele><time>2022-11-17T22:40:50Z</time></trkpt><trkpt lat="56.805957" lon="-4.073167"><ele>280.484</ele><time>2022-11-17T22:41:30Z</time></trkpt><trkpt lat="56.806386" lon="-4.092944"><ele>314.496</ele><time>2022-11-17T22:42:10Z</time></trkpt><trkpt lat="56.810408" lon="-4.115900"><ele>328.359</ele><time>2022-11-17T22:42:50Z</time></trkpt><trkpt lat="56.817597" lon="-4.140516"><ele>364.545</ele><time>2022-11-17T22:43:30Z</time></trkpt><trkpt lat="56.818617" lon="-4.182640"><ele>399.116</ele><time>2022-11-17T22:44:10Z</time></trkpt><trkpt lat="56.828263" lon="-4.214032"><ele>438.425</ele><time>2022-11-17T22:44:50Z</time></trkpt><trkpt lat="56.833312" lon="-4.226752"><ele>431.726</ele><time>2022-11-17T22:45:30Z</time></trkpt><trkpt lat="56.839594" lon="-4.236549"><ele>438.608</ele><time>2022-11-17T22:46:10Z</time></trkpt><trkpt lat="56.867660" lon="-4.255710"><ele>447.309</ele><time>2022-11-17T22:46:50Z</time></trkpt><trkpt lat="56.874925" lon="-4.257413"><ele>435.373</ele><time>2022-11-17T22:47:30Z</time></trkpt><trkpt lat="56.910050" lon="-4.236272"><ele>391.683</ele><time>2022-11-17T22:48:10Z</time></trkpt><trkpt lat="56.917027" lon="-4.236664"><ele>380.080</ele><time>2022-11-17T22:48:50Z</time></trkpt><trkpt lat="56.930843" lon="-4.242460"><ele>357.239</ele><time>2022-11-17T22:49:30Z</time></trkpt><trkpt lat="56.938822" lon="-4.239701"><ele>350.874</ele><time>2022-11-17T22:50:10Z</time></trkpt><trkpt lat="56.941814" lon="-4.235279"><ele>349.536</ele><time>2022-11-17T22:50:50Z</time></trkpt><trkpt lat="56.943661" lon="-4.237375"><ele>354.139</ele><time>2022-11-17T22:51:30Z</time></trkpt><trkpt lat="56.946723" lon="-4.231923"><ele>347.185</ele><time>2022-11-17T22:52:10Z</time></trkpt><trkpt lat="56.958929" lon="-4.220259"><ele>334.186</ele><time>2022-11-17T22:52:50Z</time></trkpt><trkpt lat="56.962333" lon="-4.210858"><ele>331.494</ele><time>2022-11-17T22:53:30Z</time></trkpt><trkpt lat="56.982003" lon="-4.185530"><ele>315.557</ele><time>2022-11-17T22:54:10Z</time></trkpt><trkpt lat="56.994567" lon="-4.181287"><ele>304.622</ele><time>2022-11-17T22:54:50Z</time></trkpt><trkpt lat="57.006341" lon="-4.168444"><ele>294.409</ele><time>2022-11-17T22:55:30Z</time></trkpt><trkpt lat="57.003241" lon="-4.170127"><ele>299.750</ele><time>2022-11-17T22:56:10Z</time></trkpt><trkpt lat="57.021084" lon="-4.160085"><ele>294.550</ele><time>2022-11-17T22:56:50Z</time></trkpt><trkpt lat="57.015844" lon="-4.161713"><ele>297.137</ele><time>2022-11-17T22:57:30Z</time></trkpt><trkpt lat="57.006341" lon="-4.168444"><ele>294.426</ele><time>2022-11-17T22:58:10Z</time></trkpt><trkpt lat="57.021084" lon="-4.160085"><ele>294.591</ele><time>2022-11-17T22:58:50Z</time></trkpt><trkpt lat="57.033612" lon="-4.156717"><ele>279.433</ele><time>2022-11-17T22:59:30Z</time></trkpt><trkpt lat="57.044672" lon="-4.144326"><ele>260.086</ele><time>2022-11-17T23:00:10Z</time></trkpt><trkpt lat="57.043686" lon="-4.147494"><ele>259.562</ele><time>2022-11-17T23:00:50Z</time></trkpt><trkpt lat="57.038716" lon="-4.151555"><ele>266.963</ele><time>2022-11-17T23:01:30Z</time></trkpt><trkpt lat="57.048987" lon="-4.132724"><ele>260.594</ele><time>2022-11-17T23:02:10Z</time></trkpt><trkpt lat="57.046334" lon="-4.137774"><ele>257.457</ele><time>2022-11-17T23:02:50Z</time></trkpt><trkpt lat="57.063224" lon="-4.124245"><ele>247.022</ele><time>2022-11-17T23:03:30Z</time></trkpt><trkpt lat="57.062585" lon="-4.125543"><ele>249.009</ele><time>2022-11-17T23:04:10Z</time></trkpt><trkpt lat="57.056372" lon="-4.130807"><ele>237.030</ele><time>2022-11-17T23:04:50Z</time></trkpt><trkpt lat="57.048987" lon="-4.132724"><ele>260.590</ele><time>2022-11-17T23:05:30Z</time></trkpt><trkpt lat="57.070370" lon="-4.102051"><ele>244.487</ele><time>2022-11-17T23:06:10Z</time></trkpt><trkpt lat="57.067190" lon="-4.115677"><ele>247.486</ele><time>2022-11-17T23:06:50Z</time></trkpt><trkpt lat="57.063224" lon="-4.124245"><ele>247.031</ele><time>2022-11-17T23:07:30Z</time></trkpt><trkpt lat="57.072166" lon="-4.098240"><ele>245.263</ele><time>2022-11-17T23:08:10Z</time></trkpt><trkpt lat="57.070370" lon="-4.102051"><ele>244.496</ele><time>2022-11-17T23:08:50Z</time></trkpt><trkpt lat="57.072551" lon="-4.092190"><ele>228.972</ele><time>2022-11-17T23:09:30Z</time></trkpt><trkpt lat="57.072459" lon="-4.097339"><ele>239.533</ele><time>2022-11-17T23:10:10Z</time></trkpt><trkpt lat="57.079684" lon="-4.053790"><ele>233.746</ele><time>2022-11-17T23:10:50Z</time></trkpt><trkpt lat="57.079684" lon="-4.053790"><ele>233.788</ele><time>2022-11-17T23:11:30Z</time></trkpt><trkpt lat="57.072593" lon="-4.048212"><ele>222.016</ele><time>2022-11-17T23:12:10Z</time></trkpt><trkpt lat="57.070006" lon="-4.042670"><ele>234.909</ele><time>2022-11-17T23:12:50Z</time></trkpt><trkpt lat="57.072149" lon="-4.037139"><ele>223.515</ele><time>2022-11-17T23:13:30Z</time></trkpt><trkpt lat="57.073062" lon="-4.021397"><ele>247.055</ele><time>2022-11-17T23:14:10Z</time></trkpt><trkpt lat="57.069988" lon="-4.003692"><ele>262.122</ele><time>2022-11-17T23:14:50Z</time></trkpt><trkpt lat="57.070505" lon="-3.997663"><ele>257.621</ele><time>2022-11-17T23:15:30Z</time></trkpt><trkpt lat="57.073007" lon="-3.998814"><ele>258.286</ele><time>2022-11-17T23:16:10Z</time></trkpt><trkpt lat="57.079092" lon="-3.995309"><ele>249.558</ele><time>2022-11-17T23:16:50Z</time></trkpt><trkpt lat="57.080474" lon="-3.980976"><ele>255.171</ele><time>2022-11-17T23:17:30Z</time></trkpt><trkpt lat="57.085948" lon="-3.974643"><ele>240.457</ele><time>2022-11-17T23:18:10Z</time></trkpt><trkpt lat="57.089515" lon="-3.966419"><ele>237.218</ele><time>2022-11-17T23:18:50Z</time></trkpt><trkpt lat="57.093058" lon="-3.950495"><ele>257.092</ele><time>2022-11-17T23:19:30Z</time></trkpt><trkpt lat="57.100693" lon="-3.946619"><ele>256.073</ele><time>2022-11-17T23:20:10Z</time></trkpt><trkpt lat="57.104481" lon="-3.941966"><ele>254.120</ele><time>2022-11-17T23:20:50Z</time></trkpt><trkpt lat="57.110611" lon="-3.924142"><ele>242.509</ele><time>2022-11-17T23:21:30Z</time></trkpt><trkpt lat="57.112353" lon="-3.924364"><ele>242.010</ele><time>2022-11-17T23:22:10Z</time></trkpt><trkpt lat="57.116667" lon="-3.916990"><ele>243.530</ele><time>2022-11-17T23:22:50Z</time></trkpt><trkpt lat="57.118498" lon="-3.905435"><ele>259.177</ele><time>2022-11-17T23:23:30Z</time></trkpt><trkpt lat="57.114921" lon="-3.897046"><ele>260.456</ele><time>2022-11-17T23:24:10Z</time></trkpt><trkpt lat="57.121249" lon="-3.896395"><ele>255.531</ele><time>2022-11-17T23:24:50Z</time></trkpt><trkpt lat="57.129809" lon="-3.887109"><ele>272.363</ele><time>2022-11-17T23:25:30Z</time></trkpt><trkpt lat="57.140788" lon="-3.869682"><ele>245.576</ele><time>2022-11-17T23:26:10Z</time></trkpt><trkpt lat="57.143039" lon="-3.857676"><ele>233.422</ele><time>2022-11-17T23:26:50Z</time></trkpt><trkpt lat="57.154739" lon="-3.844899"><ele>235.583</ele><time>2022-11-17T23:27:30Z</time></trkpt><trkpt lat="57.161835" lon="-3.840359"><ele>235.958</ele><time>2022-11-17T23:28:10Z</time></trkpt><trkpt lat="57.174400" lon="-3.820991"><ele>214.852</ele><time>2022-11-17T23:28:50Z</time></trkpt><trkpt lat="57.168754" lon="-3.826436"><ele>218.517</ele><time>2022-11-17T23:29:30Z</time></trkpt><trkpt lat="57.167452" lon="-3.831616"><ele>230.909</ele><time>2022-11-17T23:30:10Z</time></trkpt><trkpt lat="57.176734" lon="-3.819236"><ele>223.786</ele><time>2022-11-17T23:30:50Z</time></trkpt><trkpt lat="57.175203" lon="-3.820091"><ele>217.796</ele><time>2022-11-17T23:31:30Z</time></trkpt><trkpt lat="57.177875" lon="-3.821162"><ele>222.593</ele><time>2022-11-17T23:32:10Z</time></trkpt><trkpt lat="57.176734" lon="-3.819236"><ele>223.752</ele><time>2022-11-17T23:32:50Z</time></trkpt><trkpt lat="57.183814" lon="-3.830284"><ele>214.047</ele><time>2022-11-17T23:33:30Z</time></trkpt><trkpt lat="57.194736" lon="-3.823722"><ele>216.019</ele><time>2022-11-17T23:34:10Z</time></trkpt><trkpt lat="57.192153" lon="-3.826518"><ele>212.572</ele><time>2022-11-17T23:34:50Z</time></trkpt><trkpt lat="57.188893" lon="-3.828117"><ele>212.278</ele><time>2022-11-17T23:35:30Z</time></trkpt><trkpt lat="57.200066" lon="-3.818728"><ele>214.249</ele><time>2022-11-17T23:36:10Z</time></trkpt><trkpt lat="57.199058" lon="-3.820693"><ele>214.084</ele><time>2022-11-17T23:36:50Z</time></trkpt><trkpt lat="57.195669" lon="-3.822038"><ele>214.407</ele><time>2022-11-17T23:37:30Z</time></trkpt><trkpt lat="57.202932" lon="-3.813605"><ele>213.517</ele><time>2022-11-17T23:38:10Z</time></trkpt><trkpt lat="57.202607" lon="-3.815769"><ele>214.909</ele><time>2022-11-17T23:38:50Z</time></trkpt><trkpt lat="57.199816" lon="-3.818197"><ele>213.359</ele><time>2022-11-17T23:39:30Z</time></trkpt><trkpt lat="57.203335" lon="-3.810975"><ele>207.039</ele><time>2022-11-17T23:40:10Z</time></trkpt><trkpt lat="57.204692" lon="-3.814542"><ele>220.476</ele><time>2022-11-17T23:40:50Z</time></trkpt><trkpt lat="57.207403" lon="-3.812563"><ele>221.775</ele><time>2022-11-17T23:41:30Z</time></trkpt><trkpt lat="57.210507" lon="-3.805655"><ele>220.240</ele><time>2022-11-17T23:42:10Z</time></trkpt><trkpt lat="57.217081" lon="-3.800786"><ele>224.722</ele><time>2022-11-17T23:42:50Z</time></trkpt><trkpt lat="57.210507" lon="-3.805655"><ele>220.215</ele><time>2022-11-17T23:43:30Z</time></trkpt><trkpt lat="57.217081" lon="-3.800786"><ele>224.791</ele><time>2022-11-17T23:44:10Z</time></trkpt><trkpt lat="57.233032" lon="-3.781388"><ele>237.912</ele><time>2022-11-17T23:44:50Z</time></trkpt><trkpt lat="57.231523" lon="-3.780382"><ele>225.425</ele><time>2022-11-17T23:45:30Z</time></trkpt><trkpt lat="57.224136" lon="-3.788262"><ele>228.926</ele><time>2022-11-17T23:46:10Z</time></trkpt><trkpt lat="57.221308" lon="-3.794252"><ele>231.008</ele><time>2022-11-17T23:46:50Z</time></trkpt><trkpt lat="57.239749" lon="-3.765129"><ele>240.409</ele><time>2022-11-17T23:47:30Z</time></trkpt><trkpt lat="57.233716" lon="-3.780435"><ele>231.773</ele><time>2022-11-17T23:48:10Z</time></trkpt><trkpt lat="57.248756" lon="-3.753838"><ele>224.053</ele><time>2022-11-17T23:48:50Z</time></trkpt><trkpt lat="57.242428" lon="-3.758726"><ele>234.290</ele><time>2022-11-17T23:49:30Z</time></trkpt><trkpt lat="57.239749" lon="-3.765129"><ele>240.449</ele><time>2022-11-17T23:50:10Z</time></trkpt><trkpt lat="57.248756" lon="-3.753838"><ele>224.024</ele><time>2022-11-17T23:50:50Z</time></trkpt><trkpt lat="57.250702" lon="-3.785722"><ele>239.556</ele><time>2022-11-17T23:51:30Z</time></trkpt><trkpt lat="57.249328" lon="-3.764814"><ele>229.819</ele><time>2022-11-17T23:52:10Z</time></trkpt><trkpt lat="57.247265" lon="-3.803161"><ele>251.525</ele><time>2022-11-17T23:52:50Z</time></trkpt><trkpt lat="57.250702" lon="-3.785722"><ele>239.526</ele><time>2022-11-17T23:53:30Z</time></trkpt><trkpt lat="57.257638" lon="-3.807471"><ele>282.316</ele><time>2022-11-17T23:54:10Z</time></trkpt><trkpt lat="57.253284" lon="-3.801349"><ele>274.976</ele><time>2022-11-17T23:54:50Z</time></trkpt><trkpt lat="57.247309" lon="-3.803406"><ele>252.613</ele><time>2022-11-17T23:55:30Z</time></trkpt><trkpt lat="57.281532" lon="-3.813485"><ele>265.009</ele><time>2022-11-17T23:56:10Z</time></trkpt><trkpt lat="57.278980" lon="-3.811275"><ele>262.992</ele><time>2022-11-17T23:56:50Z</time></trkpt><trkpt lat="57.271937" lon="-3.811069"><ele>269.822</ele><time>2022-11-17T23:57:30Z</time></trkpt><trkpt lat="57.282549" lon="-3.826330"><ele>277.099</ele><time>2022-11-17T23:58:10Z</time></trkpt><trkpt lat="57.283645" lon="-3.815343"><ele>258.348</ele><time>2022-11-17T23:58:50Z</time></trkpt><trkpt lat="57.279813" lon="-3.831059"><ele>277.713</ele><time>2022-11-17T23:59:30Z</time></trkpt><trkpt lat="57.282549" lon="-3.826330"><ele>277.035</ele><time>2022-11-18T00:00:10Z</time></trkpt><trkpt lat="57.271634" lon="-3.860665"><ele>303.638</ele><time>2022-11-18T00:00:50Z</time></trkpt><trkpt lat="57.279813" lon="-3.831059"><ele>277.744</ele><time>2022-11-18T00:01:30Z</time></trkpt><trkpt lat="57.273348" lon="-3.872735"><ele>289.975</ele><time>2022-11-18T00:02:10Z</time></trkpt><trkpt lat="57.270579" lon="-3.867582"><ele>302.129</ele><time>2022-11-18T00:02:50Z</time></trkpt><trkpt lat="57.271551" lon="-3.861169"><ele>304.600</ele><time>2022-11-18T00:03:30Z</time></trkpt><trkpt lat="57.272464" lon="-3.903403"><ele>358.720</ele><time>2022-11-18T00:04:10Z</time></trkpt><trkpt lat="57.272240" lon="-3.893912"><ele>354.609</ele><time>2022-11-18T00:04:50Z</time></trkpt><trkpt lat="57.275525" lon="-3.878604"><ele>306.633</ele><time>2022-11-18T00:05:30Z</time></trkpt><trkpt lat="57.273348" lon="-3.872735"><ele>289.933</ele><time>2022-11-18T00:06:10Z</time></trkpt><trkpt lat="57.272428" lon="-3.909197"><ele>361.040</ele><time>2022-11-18T00:06:50Z</time></trkpt><trkpt lat="57.272464" lon="-3.903403"><ele>358.739</ele><time>2022-11-18T00:07:30Z</time></trkpt><trkpt lat="57.276334" lon="-3.921119"><ele>334.844</ele><time>2022-11-18T00:08:10Z</time></trkpt><trkpt lat="57.272625" lon="-3.910173"><ele>360.916</ele><time>2022-11-18T00:08:50Z</time></trkpt><trkpt lat="57.291184" lon="-3.913931"><ele>373.669</ele><time>2022-11-18T00:09:30Z</time></trkpt><trkpt lat="57.286311" lon="-3.913659"><ele>365.885</ele><time>2022-11-18T00:10:10Z</time></trkpt><trkpt lat="57.276334" lon="-3.921119"><ele>334.866</ele><time>2022-11-18T00:10:50Z</time></trkpt><trkpt lat="57.296027" lon="-3.920950"><ele>378.814</ele><time>2022-11-18T00:11:30Z</time></trkpt><trkpt lat="57.291184" lon="-3.913931"><ele>373.654</ele><time>2022-11-18T00:12:10Z</time></trkpt><trkpt lat="57.302411" lon="-3.927932"><ele>388.909</ele><time>2022-11-18T00:12:50Z</time></trkpt><trkpt lat="57.309599" lon="-3.942646"><ele>403.609</ele><time>2022-11-18T00:13:30Z</time></trkpt><trkpt lat="57.314356" lon="-3.962951"><ele>370.212</ele><time>2022-11-18T00:14:10Z</time></trkpt><trkpt lat="57.323091" lon="-3.980659"><ele>326.972</ele><time>2022-11-18T00:14:50Z</time></trkpt><trkpt lat="57.324719" lon="-3.988496"><ele>300.639</ele><time>2022-11-18T00:15:30Z</time></trkpt><trkpt lat="57.337806" lon="-3.990895"><ele>307.578</ele><time>2022-11-18T00:16:10Z</time></trkpt><trkpt lat="57.342525" lon="-4.003207"><ele>293.993</ele><time>2022-11-18T00:16:50Z</time></trkpt><trkpt lat="57.348334" lon="-4.007637"><ele>297.095</ele><time>2022-11-18T00:17:30Z</time></trkpt><trkpt lat="57.355629" lon="-4.004981"><ele>298.358</ele><time>2022-11-18T00:18:10Z</time></trkpt><trkpt lat="57.359675" lon="-4.007328"><ele>298.454</ele><time>2022-11-18T00:18:50Z</time></trkpt><trkpt lat="57.363738" lon="-4.017789"><ele>280.235</ele><time>2022-11-18T00:19:30Z</time></trkpt><trkpt lat="57.378054" lon="-4.037981"><ele>294.726</ele><time>2022-11-18T00:20:10Z</time></trkpt><trkpt lat="57.385791" lon="-4.060138"><ele>285.447</ele><time>2022-11-18T00:20:50Z</time></trkpt><trkpt lat="57.392390" lon="-4.071433"><ele>280.011</ele><time>2022-11-18T00:21:30Z</time></trkpt><trkpt lat="57.394502" lon="-4.073720"><ele>280.809</ele><time>2022-11-18T00:22:10Z</time></trkpt><trkpt lat="57.400903" lon="-4.070072"><ele>285.233</ele><time>2022-11-18T00:22:50Z</time></trkpt><trkpt lat="57.410512" lon="-4.075701"><ele>295.863</ele><time>2022-11-18T00:23:30Z</time></trkpt><trkpt lat="57.415722" lon="-4.093228"><ele>248.030</ele><time>2022-11-18T00:24:10Z</time></trkpt><trkpt lat="57.421383" lon="-4.101867"><ele>236.829</ele><time>2022-11-18T00:24:50Z</time></trkpt><trkpt lat="57.424054" lon="-4.117177"><ele>184.854</ele><time>2022-11-18T00:25:30Z</time></trkpt><trkpt lat="57.427934" lon="-4.112576"><ele>203.116</ele><time>2022-11-18T00:26:10Z</time></trkpt><trkpt lat="57.448495" lon="-4.103350"><ele>186.949</ele><time>2022-11-18T00:26:50Z</time></trkpt><trkpt lat="57.453913" lon="-4.090847"><ele>187.915</ele><time>2022-11-18T00:27:30Z</time></trkpt><trkpt lat="57.458943" lon="-4.085393"><ele>173.776</ele><time>2022-11-18T00:28:10Z</time></trkpt><trkpt lat="57.462664" lon="-4.077571"><ele>170.394</ele><time>2022-11-18T00:28:50Z</time></trkpt><trkpt lat="57.465097" lon="-4.078905"><ele>147.157</ele><time>2022-11-18T00:29:30Z</time></trkpt><trkpt lat="57.469646" lon="-4.073001"><ele>129.722</ele><time>2022-11-18T00:30:10Z</time></trkpt><trkpt lat="57.471136" lon="-4.078098"><ele>106.009</ele><time>2022-11-18T00:30:50Z</time></trkpt><trkpt lat="57.474942" lon="-4.067785"><ele>107.620</ele><time>2022-11-18T00:31:30Z</time></trkpt><trkpt lat="57.474942" lon="-4.067785"><ele>107.670</ele><time>2022-11-18T00:32:10Z</time></trkpt><trkpt lat="57.473886" lon="-4.065169"><ele>104.867</ele><time>2022-11-18T00:32:50Z</time></trkpt><trkpt lat="57.476988" lon="-4.059147"><ele>108.546</ele><time>2022-11-18T00:33:30Z</time></trkpt><trkpt lat="57.474261" lon="-4.054780"><ele>148.231</ele><time>2022-11-18T00:34:10Z</time></trkpt><trkpt lat="57.479108" lon="-4.042549"><ele>144.393</ele><time>2022-11-18T00:34:50Z</time></trkpt><trkpt lat="57.485207" lon="-4.031252"><ele>137.326</ele><time>2022-11-18T00:35:30Z</time></trkpt><trkpt lat="57.496764" lon="-3.999436"><ele>126.342</ele><time>2022-11-18T00:36:10Z</time></trkpt><trkpt lat="57.502550" lon="-3.997839"><ele>88.463</ele><time>2022-11-18T00:36:50Z</time></trkpt><trkpt lat="57.504623" lon="-3.993243"><ele>85.694</ele><time>2022-11-18T00:37:30Z</time></trkpt><trkpt lat="57.503337" lon="-3.991739"><ele>105.757</ele><time>2022-11-18T00:38:10Z</time></trkpt><trkpt lat="57.503091" lon="-3.982068"><ele>131.022</ele><time>2022-11-18T00:38:50Z</time></trkpt><trkpt lat="57.500604" lon="-3.978050"><ele>154.509</ele><time>2022-11-18T00:39:30Z</time></trkpt><trkpt lat="57.500688" lon="-3.973418"><ele>164.710</ele><time>2022-11-18T00:40:10Z</time></trkpt><trkpt lat="57.496064" lon="-3.964100"><ele>180.510</ele><time>2022-11-18T00:40:50Z</time></trkpt><trkpt lat="57.499031" lon="-3.957406"><ele>155.837</ele><time>2022-11-18T00:41:30Z</time></trkpt><trkpt lat="57.497691" lon="-3.953235"><ele>164.236</ele><time>2022-11-18T00:42:10Z</time></trkpt><trkpt lat="57.498347" lon="-3.944128"><ele>158.061</ele><time>2022-11-18T00:42:50Z</time></trkpt><trkpt lat="57.500692" lon="-3.939515"><ele>152.463</ele><time>2022-11-18T00:43:30Z</time></trkpt><trkpt lat="57.504507" lon="-3.938420"><ele>137.566</ele><time>2022-11-18T00:44:10Z</time></trkpt><trkpt lat="57.501679" lon="-3.926252"><ele>175.942</ele><time>2022-11-18T00:44:50Z</time></trkpt><trkpt lat="57.504094" lon="-3.916671"><ele>170.083</ele><time>2022-11-18T00:45:30Z</time></trkpt><trkpt lat="57.504087" lon="-3.909954"><ele>164.432</ele><time>2022-11-18T00:46:10Z</time></trkpt><trkpt lat="57.507399" lon="-3.904758"><ele>150.392</ele><time>2022-11-18T00:46:50Z</time></trkpt><trkpt lat="57.508155" lon="-3.898537"><ele>146.411</ele><time>2022-11-18T00:47:30Z</time></trkpt><trkpt lat="57.513136" lon="-3.884744"><ele>144.909</ele><time>2022-11-18T00:48:10Z</time></trkpt><trkpt lat="57.515617" lon="-3.883858"><ele>146.394</ele><time>2022-11-18T00:48:50Z</time></trkpt><trkpt lat="57.517109" lon="-3.869345"><ele>144.454</ele><time>2022-11-18T00:49:30Z</time></trkpt><trkpt lat="57.529967" lon="-3.861876"><ele>134.121</ele><time>2022-11-18T00:50:10Z</time></trkpt><trkpt lat="57.538113" lon="-3.867527"><ele>75.270</ele><time>2022-11-18T00:50:50Z</time></trkpt><trkpt lat="57.542013" lon="-3.866443"><ele>54.575</ele><time>2022-11-18T00:51:30Z</time></trkpt><trkpt lat="57.550823" lon="-3.857971"><ele>45.347</ele><time>2022-11-18T00:52:10Z</time></trkpt><trkpt lat="57.552924" lon="-3.865652"><ele>23.170</ele><time>2022-11-18T00:52:50Z</time></trkpt><trkpt lat="57.559844" lon="-3.867907"><ele>25.176</ele><time>2022-11-18T00:53:30Z</time></trkpt><trkpt lat="57.568172" lon="-3.865990"><ele>15.737</ele><time>2022-11-18T00:54:10Z</time></trkpt><trkpt lat="57.571337" lon="-3.867640"><ele>10.072</ele><time>2022-11-18T00:54:50Z</time></trkpt><trkpt lat="57.573492" lon="-3.863562"><ele>10.613</ele><time>2022-11-18T00:55:30Z</time></trkpt><trkpt lat="57.581112" lon="-3.859448"><ele>10.014</ele><time>2022-11-18T00:56:10Z</time></trkpt><trkpt lat="57.580829" lon="-3.862935"><ele>8.409</ele><time>2022-11-18T00:56:50Z</time></trkpt><trkpt lat="57.585701" lon="-3.864353"><ele>6.078</ele><time>2022-11-18T00:57:30Z</time></trkpt><trkpt lat="57.587190" lon="-3.852095"><ele>7.178</ele><time>2022-11-18T00:58:10Z</time></trkpt><trkpt lat="57.591393" lon="-3.843559"><ele>8.225</ele><time>2022-11-18T00:58:50Z</time></trkpt><trkpt lat="57.595148" lon="-3.814184"><ele>22.534</ele><time>2022-11-18T00:59:30Z</time></trkpt><trkpt lat="57.599761" lon="-3.798317"><ele>11.349</ele><time>2022-11-18T01:00:10Z</time></trkpt><trkpt lat="57.605230" lon="-3.755980"><ele>23.481</ele><time>2022-11-18T01:00:50Z</time></trkpt><trkpt lat="57.603607" lon="-3.742491"><ele>31.064</ele><time>2022-11-18T01:01:30Z</time></trkpt><trkpt lat="57.605274" lon="-3.728952"><ele>25.220</ele><time>2022-11-18T01:02:10Z</time></trkpt><trkpt lat="57.593457" lon="-3.711309"><ele>29.721</ele><time>2022-11-18T01:02:50Z</time></trkpt><trkpt lat="57.593811" lon="-3.707983"><ele>34.048</ele><time>2022-11-18T01:03:30Z</time></trkpt><trkpt lat="57.601624" lon="-3.694248"><ele>16.861</ele><time>2022-11-18T01:04:10Z</time></trkpt><trkpt lat="57.609503" lon="-3.689976"><ele>24.117</ele><time>2022-11-18T01:04:50Z</time></trkpt><trkpt lat="57.610124" lon="-3.686400"><ele>21.409</ele><time>2022-11-18T01:05:30Z</time></trkpt><trkpt lat="57.614136" lon="-3.684464"><ele>24.045</ele><time>2022-11-18T01:06:10Z</time></trkpt><trkpt lat="57.622822" lon="-3.671826"><ele>16.965</ele><time>2022-11-18T01:06:50Z</time></trkpt><trkpt lat="57.621230" lon="-3.663012"><ele>14.942</ele><time>2022-11-18T01:07:30Z</time></trkpt><trkpt lat="57.625999" lon="-3.651799"><ele>5.571</ele><time>2022-11-18T01:08:10Z</time></trkpt><trkpt lat="57.621423" lon="-3.650170"><ele>7.976</ele><time>2022-11-18T01:08:50Z</time></trkpt><trkpt lat="57.614325" lon="-3.654631"><ele>11.138</ele><time>2022-11-18T01:09:30Z</time></trkpt><trkpt lat="57.611269" lon="-3.639676"><ele>18.261</ele><time>2022-11-18T01:10:10Z</time></trkpt><trkpt lat="57.615621" lon="-3.629389"><ele>11.237</ele><time>2022-11-18T01:10:50Z</time></trkpt><trkpt lat="57.612716" lon="-3.619316"><ele>9.048</ele><time>2022-11-18T01:11:30Z</time></trkpt><trkpt lat="57.616550" lon="-3.620592"><ele>7.919</ele><time>2022-11-18T01:12:10Z</time></trkpt><trkpt lat="57.629135" lon="-3.600348"><ele>4.009</ele><time>2022-11-18T01:12:50Z</time></trkpt><trkpt lat="57.628489" lon="-3.591542"><ele>7.319</ele><time>2022-11-18T01:13:30Z</time></trkpt><trkpt lat="57.635746" lon="-3.565231"><ele>9.209</ele><time>2022-11-18T01:14:10Z</time></trkpt><trkpt lat="57.632207" lon="-3.560005"><ele>7.942</ele><time>2022-11-18T01:14:50Z</time></trkpt><trkpt lat="57.628128" lon="-3.548372"><ele>14.072</ele><time>2022-11-18T01:15:30Z</time></trkpt><trkpt lat="57.634909" lon="-3.517994"><ele>17.839</ele><time>2022-11-18T01:16:10Z</time></trkpt><trkpt lat="57.639019" lon="-3.521216"><ele>14.388</ele><time>2022-11-18T01:16:50Z</time></trkpt><trkpt lat="57.645224" lon="-3.521178"><ele>12.233</ele><time>2022-11-18T01:17:30Z</time></trkpt><trkpt lat="57.644708" lon="-3.517584"><ele>9.995</ele><time>2022-11-18T01:18:10Z</time></trkpt><trkpt lat="57.651906" lon="-3.499381"><ele>12.288</ele><time>2022-11-18T01:18:50Z</time></trkpt><trkpt lat="57.651878" lon="-3.491532"><ele>13.324</ele><time>2022-11-18T01:19:30Z</time></trkpt><trkpt lat="57.654681" lon="-3.476373"><ele>11.945</ele><time>2022-11-18T01:20:10Z</time></trkpt><trkpt lat="57.653190" lon="-3.466880"><ele>11.491</ele><time>2022-11-18T01:20:50Z</time></trkpt><trkpt lat="57.654415" lon="-3.455202"><ele>13.081</ele><time>2022-11-18T01:21:30Z</time></trkpt><trkpt lat="57.674059" lon="-3.407208"><ele>11.619</ele><time>2022-11-18T01:22:10Z</time></trkpt><trkpt lat="57.670257" lon="-3.396795"><ele>8.409</ele><time>2022-11-18T01:22:50Z</time></trkpt><trkpt lat="57.669934" lon="-3.388832"><ele>6.060</ele><time>2022-11-18T01:23:30Z</time></trkpt><trkpt lat="57.671197" lon="-3.384072"><ele>5.170</ele><time>2022-11-18T01:24:10Z</time></trkpt><trkpt lat="57.661701" lon="-3.367363"><ele>53.777</ele><time>2022-11-18T01:24:50Z</time></trkpt><trkpt lat="57.662763" lon="-3.359264"><ele>53.016</ele><time>2022-11-18T01:25:30Z</time></trkpt><trkpt lat="57.653328" lon="-3.344926"><ele>68.651</ele><time>2022-11-18T01:26:10Z</time></trkpt><trkpt lat="57.652864" lon="-3.331736"><ele>27.313</ele><time>2022-11-18T01:26:50Z</time></trkpt><trkpt lat="57.650781" lon="-3.327472"><ele>20.166</ele><time>2022-11-18T01:27:30Z</time></trkpt><trkpt lat="57.652478" lon="-3.324817"><ele>16.252</ele><time>2022-11-18T01:28:10Z</time></trkpt><trkpt lat="57.652551" lon="-3.316554"><ele>17.813</ele><time>2022-11-18T01:28:50Z</time></trkpt><trkpt lat="57.650603" lon="-3.306632"><ele>17.251</ele><time>2022-11-18T01:29:30Z</time></trkpt><trkpt lat="57.650845" lon="-3.313365"><ele>16.901</ele><time>2022-11-18T01:30:10Z</time></trkpt><trkpt lat="57.652357" lon="-3.314849"><ele>18.011</ele><time>2022-11-18T01:30:50Z</time></trkpt><trkpt lat="57.641874" lon="-3.262973"><ele>11.009</ele><time>2022-11-18T01:31:30Z</time></trkpt><trkpt lat="57.647710" lon="-3.283706"><ele>11.216</ele><time>2022-11-18T01:32:10Z</time></trkpt><trkpt lat="57.652789" lon="-3.292845"><ele>13.056</ele><time>2022-11-18T01:32:50Z</time></trkpt><trkpt lat="57.649229" lon="-3.299137"><ele>13.093</ele><time>2022-11-18T01:33:30Z</time></trkpt><trkpt lat="57.650949" lon="-3.304296"><ele>18.042</ele><time>2022-11-18T01:34:10Z</time></trkpt><trkpt lat="57.657277" lon="-3.212914"><ele>14.817</ele><time>2022-11-18T01:34:50Z</time></trkpt><trkpt lat="57.655431" lon="-3.221710"><ele>29.779</ele><time>2022-11-18T01:35:30Z</time></trkpt><trkpt lat="57.655778" lon="-3.229318"><ele>13.872</ele><time>2022-11-18T01:36:10Z</time></trkpt><trkpt lat="57.647946" lon="-3.242729"><ele>14.228</ele><time>2022-11-18T01:36:50Z</time></trkpt><trkpt lat="57.644446" lon="-3.260031"><ele>9.079</ele><time>2022-11-18T01:37:30Z</time></trkpt><trkpt lat="57.641849" lon="-3.262833"><ele>11.524</ele><time>2022-11-18T01:38:10Z</time></trkpt><trkpt lat="57.657277" lon="-3.212914"><ele>14.804</ele><time>2022-11-18T01:38:50Z</time></trkpt><trkpt lat="57.660274" lon="-3.191297"><ele>31.014</ele><time>2022-11-18T01:39:30Z</time></trkpt><trkpt lat="57.663985" lon="-3.176344"><ele>36.109</ele><time>2022-11-18T01:40:10Z</time></trkpt><trkpt lat="57.666965" lon="-3.170711"><ele>32.653</ele><time>2022-11-18T01:40:50Z</time></trkpt><trkpt lat="57.667801" lon="-3.160340"><ele>37.333</ele><time>2022-11-18T01:41:30Z</time></trkpt><trkpt lat="57.666126" lon="-3.112817"><ele>16.130</ele><time>2022-11-18T01:42:10Z</time></trkpt><trkpt lat="57.662089" lon="-3.112484"><ele>19.039</ele><time>2022-11-18T01:42:50Z</time></trkpt><trkpt lat="57.662756" lon="-3.085093"><ele>5.034</ele><time>2022-11-18T01:43:30Z</time></trkpt><trkpt lat="57.659743" lon="-3.083670"><ele>7.156</ele><time>2022-11-18T01:44:10Z</time></trkpt><trkpt lat="57.660374" lon="-3.073354"><ele>11.089</ele><time>2022-11-18T01:44:50Z</time></trkpt><trkpt lat="57.658850" lon="-3.072308"><ele>11.435</ele><time>2022-11-18T01:45:30Z</time></trkpt><trkpt lat="57.662041" lon="-3.061311"><ele>12.666</ele><time>2022-11-18T01:46:10Z</time></trkpt><trkpt lat="57.653952" lon="-3.054112"><ele>24.821</ele><time>2022-11-18T01:46:50Z</time></trkpt><trkpt lat="57.659158" lon="-3.041140"><ele>20.041</ele><time>2022-11-18T01:47:30Z</time></trkpt><trkpt lat="57.658965" lon="-3.036480"><ele>13.305</ele><time>2022-11-18T01:48:10Z</time></trkpt><trkpt lat="57.662884" lon="-3.029825"><ele>5.609</ele><time>2022-11-18T01:48:50Z</time></trkpt><trkpt lat="57.663577" lon="-3.020379"><ele>3.373</ele><time>2022-11-18T01:49:30Z</time></trkpt><trkpt lat="57.662266" lon="-3.019068"><ele>19.113</ele><time>2022-11-18T01:50:10Z</time></trkpt><trkpt lat="57.664299" lon="-3.009286"><ele>14.860</ele><time>2022-11-18T01:50:50Z</time></trkpt><trkpt lat="57.668680" lon="-2.998430"><ele>4.419</ele><time>2022-11-18T01:51:30Z</time></trkpt><trkpt lat="57.670997" lon="-2.987511"><ele>28.614</ele><time>2022-11-18T01:52:10Z</time></trkpt><trkpt lat="57.675145" lon="-2.979383"><ele>19.316</ele><time>2022-11-18T01:52:50Z</time></trkpt><trkpt lat="57.675951" lon="-2.970540"><ele>24.619</ele><time>2022-11-18T01:53:30Z</time></trkpt><trkpt lat="57.673850" lon="-2.968552"><ele>27.095</ele><time>2022-11-18T01:54:10Z</time></trkpt><trkpt lat="57.677047" lon="-2.952130"><ele>25.026</ele><time>2022-11-18T01:54:50Z</time></trkpt><trkpt lat="57.686110" lon="-2.930026"><ele>26.955</ele><time>2022-11-18T01:55:30Z</time></trkpt><trkpt lat="57.695811" lon="-2.898343"><ele>46.107</ele><time>2022-11-18T01:56:10Z</time></trkpt><trkpt lat="57.696923" lon="-2.899688"><ele>35.317</ele><time>2022-11-18T01:56:50Z</time></trkpt><trkpt lat="57.699044" lon="-2.897216"><ele>18.609</ele><time>2022-11-18T01:57:30Z</time></trkpt><trkpt lat="57.699579" lon="-2.888874"><ele>41.156</ele><time>2022-11-18T01:58:10Z</time></trkpt><trkpt lat="57.703397" lon="-2.877625"><ele>37.296</ele><time>2022-11-18T01:58:50Z</time></trkpt><trkpt lat="57.702050" lon="-2.872667"><ele>46.113</ele><time>2022-11-18T01:59:30Z</time></trkpt><trkpt lat="57.704807" lon="-2.859420"><ele>24.192</ele><time>2022-11-18T02:00:10Z</time></trkpt><trkpt lat="57.704678" lon="-2.855788"><ele>28.567</ele><time>2022-11-18T02:00:50Z</time></trkpt><trkpt lat="57.701426" lon="-2.855761"><ele>45.749</ele><time>2022-11-18T02:01:30Z</time></trkpt><trkpt lat="57.694084" lon="-2.844947"><ele>34.142</ele><time>2022-11-18T02:02:10Z</time></trkpt><trkpt lat="57.690974" lon="-2.823430"><ele>27.968</ele><time>2022-11-18T02:02:50Z</time></trkpt><trkpt lat="57.684338" lon="-2.814417"><ele>60.079</ele><time>2022-11-18T02:03:30Z</time></trkpt><trkpt lat="57.676225" lon="-2.812458"><ele>27.674</ele><time>2022-11-18T02:04:10Z</time></trkpt><trkpt lat="57.673235" lon="-2.799584"><ele>31.056</ele><time>2022-11-18T02:04:50Z</time></trkpt><trkpt lat="57.674267" lon="-2.780113"><ele>32.821</ele><time>2022-11-18T02:05:30Z</time></trkpt><trkpt lat="57.671280" lon="-2.778143"><ele>53.209</ele><time>2022-11-18T02:06:10Z</time></trkpt><trkpt lat="57.670690" lon="-2.771021"><ele>70.558</ele><time>2022-11-18T02:06:50Z</time></trkpt><trkpt lat="57.666555" lon="-2.762220"><ele>76.268</ele><time>2022-11-18T02:07:30Z</time></trkpt><trkpt lat="57.664093" lon="-2.761696"><ele>82.335</ele><time>2022-11-18T02:08:10Z</time></trkpt><trkpt lat="57.661330" lon="-2.742667"><ele>70.284</ele><time>2022-11-18T02:08:50Z</time></trkpt><trkpt lat="57.667022" lon="-2.727198"><ele>72.719</ele><time>2022-11-18T02:09:30Z</time></trkpt><trkpt lat="57.675244" lon="-2.715609"><ele>39.891</ele><time>2022-11-18T02:10:10Z</time></trkpt><trkpt lat="57.673360" lon="-2.717860"><ele>34.654</ele><time>2022-11-18T02:10:50Z</time></trkpt><trkpt lat="57.673465" lon="-2.708721"><ele>32.550</ele><time>2022-11-18T02:11:30Z</time></trkpt><trkpt lat="57.679693" lon="-2.694974"><ele>25.941</ele><time>2022-11-18T02:12:10Z</time></trkpt><trkpt lat="57.677898" lon="-2.683909"><ele>33.559</ele><time>2022-11-18T02:12:50Z</time></trkpt><trkpt lat="57.679258" lon="-2.675821"><ele>68.003</ele><time>2022-11-18T02:13:30Z</time></trkpt><trkpt lat="57.676250" lon="-2.657188"><ele>37.323</ele><time>2022-11-18T02:14:10Z</time></trkpt><trkpt lat="57.677069" lon="-2.651669"><ele>42.509</ele><time>2022-11-18T02:14:50Z</time></trkpt><trkpt lat="57.673317" lon="-2.641368"><ele>69.086</ele><time>2022-11-18T02:15:30Z</time></trkpt><trkpt lat="57.670243" lon="-2.610729"><ele>67.876</ele><time>2022-11-18T02:16:10Z</time></trkpt><trkpt lat="57.670462" lon="-2.598035"><ele>60.453</ele><time>2022-11-18T02:16:50Z</time></trkpt><trkpt lat="57.673438" lon="-2.598178"><ele>45.632</ele><time>2022-11-18T02:17:30Z</time></trkpt><trkpt lat="57.677795" lon="-2.588517"><ele>13.777</ele><time>2022-11-18T02:18:10Z</time></trkpt><trkpt lat="57.677303" lon="-2.583713"><ele>5.479</ele><time>2022-11-18T02:18:50Z</time></trkpt><trkpt lat="57.680886" lon="-2.572037"><ele>7.492</ele><time>2022-11-18T02:19:30Z</time></trkpt><trkpt lat="57.681363" lon="-2.574559"><ele>8.798</ele><time>2022-11-18T02:20:10Z</time></trkpt><trkpt lat="57.679253" lon="-2.578983"><ele>8.599</ele><time>2022-11-18T02:20:50Z</time></trkpt><trkpt lat="57.669273" lon="-2.553588"><ele>9.364</ele><time>2022-11-18T02:21:30Z</time></trkpt><trkpt lat="57.671681" lon="-2.558211"><ele>3.906</ele><time>2022-11-18T02:22:10Z</time></trkpt><trkpt lat="57.668992" lon="-2.541820"><ele>7.916</ele><time>2022-11-18T02:22:50Z</time></trkpt><trkpt lat="57.670746" lon="-2.525267"><ele>7.909</ele><time>2022-11-18T02:23:30Z</time></trkpt><trkpt lat="57.670746" lon="-2.525267"><ele>7.937</ele><time>2022-11-18T02:24:10Z</time></trkpt><trkpt lat="57.665048" lon="-2.519795"><ele>6.837</ele><time>2022-11-18T02:24:50Z</time></trkpt><trkpt lat="57.661903" lon="-2.522226"><ele>14.974</ele><time>2022-11-18T02:25:30Z</time></trkpt><trkpt lat="57.662911" lon="-2.511913"><ele>8.423</ele><time>2022-11-18T02:26:10Z</time></trkpt><trkpt lat="57.659718" lon="-2.511587"><ele>16.618</ele><time>2022-11-18T02:26:50Z</time></trkpt><trkpt lat="57.658678" lon="-2.508333"><ele>23.580</ele><time>2022-11-18T02:27:30Z</time></trkpt><trkpt lat="57.660864" lon="-2.501166"><ele>40.193</ele><time>2022-11-18T02:28:10Z</time></trkpt><trkpt lat="57.660846" lon="-2.494560"><ele>51.469</ele><time>2022-11-18T02:28:50Z</time></trkpt><trkpt lat="57.644035" lon="-2.507906"><ele>68.140</ele><time>2022-11-18T02:29:30Z</time></trkpt><trkpt lat="57.631992" lon="-2.484776"><ele>66.726</ele><time>2022-11-18T02:30:10Z</time></trkpt><trkpt lat="57.628247" lon="-2.485497"><ele>72.047</ele><time>2022-11-18T02:30:50Z</time></trkpt><trkpt lat="57.627990" lon="-2.492098"><ele>74.011</ele><time>2022-11-18T02:31:30Z</time></trkpt><trkpt lat="57.622535" lon="-2.496432"><ele>62.209</ele><time>2022-11-18T02:32:10Z</time></trkpt><trkpt lat="57.621126" lon="-2.505024"><ele>57.883</ele><time>2022-11-18T02:32:50Z</time></trkpt><trkpt lat="57.617714" lon="-2.508849"><ele>53.823</ele><time>2022-11-18T02:33:30Z</time></trkpt><trkpt lat="57.606231" lon="-2.512975"><ele>37.730</ele><time>2022-11-18T02:34:10Z</time></trkpt><trkpt lat="57.597245" lon="-2.511864"><ele>27.839</ele><time>2022-11-18T02:34:50Z</time></trkpt><trkpt lat="57.588631" lon="-2.504064"><ele>68.624</ele><time>2022-11-18T02:35:30Z</time></trkpt><trkpt lat="57.582290" lon="-2.506942"><ele>46.386</ele><time>2022-11-18T02:36:10Z</time></trkpt><trkpt lat="57.577240" lon="-2.505030"><ele>36.849</ele><time>2022-11-18T02:36:50Z</time></trkpt><trkpt lat="57.565409" lon="-2.492689"><ele>35.595</ele><time>2022-11-18T02:37:30Z</time></trkpt><trkpt lat="57.562500" lon="-2.493995"><ele>33.286</ele><time>2022-11-18T02:38:10Z</time></trkpt><trkpt lat="57.554157" lon="-2.489684"><ele>36.344</ele><time>2022-11-18T02:38:50Z</time></trkpt><trkpt lat="57.542586" lon="-2.477500"><ele>39.205</ele><time>2022-11-18T02:39:30Z</time></trkpt><trkpt lat="57.541884" lon="-2.472758"><ele>51.915</ele><time>2022-11-18T02:40:10Z</time></trkpt><trkpt lat="57.539243" lon="-2.469764"><ele>55.009</ele><time>2022-11-18T02:40:50Z</time></trkpt><trkpt lat="57.540160" lon="-2.461330"><ele>67.845</ele><time>2022-11-18T02:41:30Z</time></trkpt><trkpt lat="57.537299" lon="-2.460184"><ele>54.335</ele><time>2022-11-18T02:42:10Z</time></trkpt><trkpt lat="57.537807" lon="-2.455574"><ele>54.982</ele><time>2022-11-18T02:42:50Z</time></trkpt><trkpt lat="57.533639" lon="-2.421428"><ele>70.191</ele><time>2022-11-18T02:43:30Z</time></trkpt><trkpt lat="57.536030" lon="-2.403282"><ele>94.056</ele><time>2022-11-18T02:44:10Z</time></trkpt><trkpt lat="57.532481" lon="-2.400919"><ele>70.958</ele><time>2022-11-18T02:44:50Z</time></trkpt><trkpt lat="57.532959" lon="-2.396459"><ele>77.551</ele><time>2022-11-18T02:45:30Z</time></trkpt><trkpt lat="57.531394" lon="-2.395123"><ele>64.097</ele><time>2022-11-18T02:46:10Z</time></trkpt><trkpt lat="57.534047" lon="-2.377260"><ele>69.868</ele><time>2022-11-18T02:46:50Z</time></trkpt><trkpt lat="57.541851" lon="-2.365297"><ele>73.011</ele><time>2022-11-18T02:47:30Z</time></trkpt><trkpt lat="57.546562" lon="-2.341030"><ele>82.921</ele><time>2022-11-18T02:48:10Z</time></trkpt><trkpt lat="57.543972" lon="-2.339972"><ele>76.103</ele><time>2022-11-18T02:48:50Z</time></trkpt><trkpt lat="57.543602" lon="-2.335792"><ele>90.209</ele><time>2022-11-18T02:49:30Z</time></trkpt><trkpt lat="57.541681" lon="-2.334449"><ele>98.982</ele><time>2022-11-18T02:50:10Z</time></trkpt><trkpt lat="57.544166" lon="-2.320016"><ele>119.912</ele><time>2022-11-18T02:50:50Z</time></trkpt><trkpt lat="57.541888" lon="-2.309706"><ele>126.429</ele><time>2022-11-18T02:51:30Z</time></trkpt><trkpt lat="57.545650" lon="-2.291148"><ele>145.058</ele><time>2022-11-18T02:52:10Z</time></trkpt><trkpt lat="57.542220" lon="-2.268934"><ele>122.853</ele><time>2022-11-18T02:52:50Z</time></trkpt><trkpt lat="57.543820" lon="-2.257526"><ele>150.685</ele><time>2022-11-18T02:53:30Z</time></trkpt><trkpt lat="57.543036" lon="-2.221335"><ele>152.168</ele><time>2022-11-18T02:54:10Z</time></trkpt><trkpt lat="57.539911" lon="-2.189175"><ele>121.094</ele><time>2022-11-18T02:54:50Z</time></trkpt><trkpt lat="57.537544" lon="-2.187589"><ele>111.335</ele><time>2022-11-18T02:55:30Z</time></trkpt><trkpt lat="57.535822" lon="-2.180921"><ele>100.064</ele><time>2022-11-18T02:56:10Z</time></trkpt><trkpt lat="57.532706" lon="-2.156584"><ele>83.006</ele><time>2022-11-18T02:56:50Z</time></trkpt><trkpt lat="57.529143" lon="-2.147477"><ele>70.116</ele><time>2022-11-18T02:57:30Z</time></trkpt><trkpt lat="57.526217" lon="-2.145488"><ele>85.409</ele><time>2022-11-18T02:58:10Z</time></trkpt><trkpt lat="57.521441" lon="-2.125926"><ele>73.387</ele><time>2022-11-18T02:58:50Z</time></trkpt><trkpt lat="57.520319" lon="-2.127053"><ele>77.837</ele><time>2022-11-18T02:59:30Z</time></trkpt><trkpt lat="57.520750" lon="-2.126682"><ele>75.834</ele><time>2022-11-18T03:00:10Z</time></trkpt><trkpt lat="57.512009" lon="-2.140577"><ele>88.373</ele><time>2022-11-18T03:00:50Z</time></trkpt><trkpt lat="57.498459" lon="-2.140577"><ele>89.428</ele><time>2022-11-18T03:01:30Z</time></trkpt><trkpt lat="57.490850" lon="-2.134819"><ele>84.130</ele><time>2022-11-18T03:02:10Z</time></trkpt><trkpt lat="57.483493" lon="-2.134896"><ele>82.033</ele><time>2022-11-18T03:02:50Z</time></trkpt><trkpt lat="57.466547" lon="-2.116319"><ele>74.689</ele><time>2022-11-18T03:03:30Z</time></trkpt><trkpt lat="57.462082" lon="-2.119466"><ele>91.130</ele><time>2022-11-18T03:04:10Z</time></trkpt><trkpt lat="57.457932" lon="-2.119083"><ele>73.062</ele><time>2022-11-18T03:04:50Z</time></trkpt><trkpt lat="57.446865" lon="-2.132748"><ele>111.683</ele><time>2022-11-18T03:05:30Z</time></trkpt><trkpt lat="57.442858" lon="-2.142365"><ele>117.711</ele><time>2022-11-18T03:06:10Z</time></trkpt><trkpt lat="57.439265" lon="-2.159912"><ele>91.409</ele><time>2022-11-18T03:06:50Z</time></trkpt><trkpt lat="57.435672" lon="-2.164517"><ele>84.647</ele><time>2022-11-18T03:07:30Z</time></trkpt><trkpt lat="57.435672" lon="-2.173071"><ele>73.097</ele><time>2022-11-18T03:08:10Z</time></trkpt><trkpt lat="57.415370" lon="-2.189082"><ele>18.034</ele><time>2022-11-18T03:08:50Z</time></trkpt><trkpt lat="57.410339" lon="-2.188863"><ele>27.253</ele><time>2022-11-18T03:09:30Z</time></trkpt><trkpt lat="57.382851" lon="-2.208602"><ele>72.048</ele><time>2022-11-18T03:10:10Z</time></trkpt><trkpt lat="57.370813" lon="-2.210576"><ele>63.070</ele><time>2022-11-18T03:10:50Z</time></trkpt><trkpt lat="57.372251" lon="-2.221543"><ele>92.773</ele><time>2022-11-18T03:11:30Z</time></trkpt><trkpt lat="57.368657" lon="-2.232290"><ele>92.079</ele><time>2022-11-18T03:12:10Z</time></trkpt><trkpt lat="57.365244" lon="-2.230097"><ele>85.920</ele><time>2022-11-18T03:12:50Z</time></trkpt><trkpt lat="57.355050" lon="-2.238659"><ele>86.269</ele><time>2022-11-18T03:13:30Z</time></trkpt><trkpt lat="57.350738" lon="-2.236247"><ele>87.804</ele><time>2022-11-18T03:14:10Z</time></trkpt><trkpt lat="57.347145" lon="-2.239098"><ele>94.624</ele><time>2022-11-18T03:14:50Z</time></trkpt><trkpt lat="57.327382" lon="-2.242169"><ele>96.509</ele><time>2022-11-18T03:15:30Z</time></trkpt><trkpt lat="57.324508" lon="-2.233395"><ele>93.677</ele><time>2022-11-18T03:16:10Z</time></trkpt><trkpt lat="57.328101" lon="-2.230544"><ele>96.217</ele><time>2022-11-18T03:16:50Z</time></trkpt><trkpt lat="57.326843" lon="-2.220674"><ele>82.434</ele><time>2022-11-18T03:17:30Z</time></trkpt><trkpt lat="57.328460" lon="-2.202251"><ele>81.993</ele><time>2022-11-18T03:18:10Z</time></trkpt><trkpt lat="57.323789" lon="-2.191943"><ele>70.168</ele><time>2022-11-18T03:18:50Z</time></trkpt><trkpt lat="57.322352" lon="-2.184047"><ele>78.570</ele><time>2022-11-18T03:19:30Z</time></trkpt><trkpt lat="57.317141" lon="-2.179441"><ele>90.083</ele><time>2022-11-18T03:20:10Z</time></trkpt><trkpt lat="57.304745" lon="-2.173300"><ele>99.979</ele><time>2022-11-18T03:20:50Z</time></trkpt><trkpt lat="57.301690" lon="-2.184266"><ele>104.040</ele><time>2022-11-18T03:21:30Z</time></trkpt><trkpt lat="57.297199" lon="-2.189530"><ele>141.519</ele><time>2022-11-18T03:22:10Z</time></trkpt><trkpt lat="57.288036" lon="-2.188872"><ele>161.009</ele><time>2022-11-18T03:22:50Z</time></trkpt><trkpt lat="57.269890" lon="-2.183389"><ele>116.619</ele><time>2022-11-18T03:23:30Z</time></trkpt><trkpt lat="57.263961" lon="-2.168694"><ele>97.709</ele><time>2022-11-18T03:24:10Z</time></trkpt><trkpt lat="57.247432" lon="-2.179221"><ele>77.882</ele><time>2022-11-18T03:24:50Z</time></trkpt><trkpt lat="57.227939" lon="-2.175274"><ele>51.012</ele><time>2022-11-18T03:25:30Z</time></trkpt><trkpt lat="57.216620" lon="-2.187775"><ele>41.079</ele><time>2022-11-18T03:26:10Z</time></trkpt><trkpt lat="57.213386" lon="-2.185801"><ele>44.938</ele><time>2022-11-18T03:26:50Z</time></trkpt><trkpt lat="57.209254" lon="-2.173958"><ele>40.673</ele><time>2022-11-18T03:27:30Z</time></trkpt><trkpt lat="57.202786" lon="-2.171984"><ele>38.325</ele><time>2022-11-18T03:28:10Z</time></trkpt><trkpt lat="57.198115" lon="-2.185801"><ele>56.518</ele><time>2022-11-18T03:28:50Z</time></trkpt><trkpt lat="57.190210" lon="-2.179002"><ele>56.074</ele><time>2022-11-18T03:29:30Z</time></trkpt><trkpt lat="57.186077" lon="-2.179441"><ele>49.645</ele><time>2022-11-18T03:30:10Z</time></trkpt><trkpt lat="57.179250" lon="-2.170229"><ele>45.899</ele><time>2022-11-18T03:30:50Z</time></trkpt><trkpt lat="57.178352" lon="-2.160579"><ele>25.107</ele><time>2022-11-18T03:31:30Z</time></trkpt><trkpt lat="57.174399" lon="-2.150709"><ele>37.527</ele><time>2022-11-18T03:32:10Z</time></trkpt><trkpt lat="57.175477" lon="-2.147200"><ele>31.709</ele><time>2022-11-18T03:32:50Z</time></trkpt><trkpt lat="57.174759" lon="-2.139304"><ele>19.770</ele><time>2022-11-18T03:33:30Z</time></trkpt><trkpt lat="57.172243" lon="-2.127899"><ele>41.340</ele><time>2022-11-18T03:34:10Z</time></trkpt><trkpt lat="57.175118" lon="-2.116713"><ele>17.837</ele><time>2022-11-18T03:34:50Z</time></trkpt><trkpt lat="57.169908" lon="-2.103553"><ele>28.866</ele><time>2022-11-18T03:35:30Z</time></trkpt><trkpt lat="57.148887" lon="-2.098070"><ele>26.081</ele><time>2022-11-18T03:36:10Z</time></trkpt><trkpt lat="57.147989" lon="-2.106405"><ele>25.923</ele><time>2022-11-18T03:36:50Z</time></trkpt><trkpt lat="57.145473" lon="-2.102457"><ele>27.386</ele><time>2022-11-18T03:37:30Z</time></trkpt><trkpt lat="57.144755" lon="-2.103992"><ele>31.082</ele><time>2022-11-18T03:38:10Z</time></trkpt><trkpt lat="57.135951" lon="-2.099167"><ele>23.253</ele><time>2022-11-18T03:38:50Z</time></trkpt><trkpt lat="60.394153" lon="5.325072"><ele>3.057</ele><time>2022-11-18T03:39:30Z</time></trkpt><trkpt lat="60.395606" lon="5.325861"><ele>2.000</ele><time>2022-11-18T03:40:10Z</time></trkpt><trkpt lat="60.401155" lon="5.315207"><ele>2.420</ele><time>2022-11-18T03:40:50Z</time></trkpt><trkpt lat="60.402055" lon="5.320223"><ele>2.209</ele><time>2022-11-18T03:41:30Z</time></trkpt><trkpt lat="60.405536" lon="5.323589"><ele>3.266</ele><time>2022-11-18T03:42:10Z</time></trkpt><trkpt lat="60.413508" lon="5.322128"><ele>10.916</ele><time>2022-11-18T03:42:50Z</time></trkpt><trkpt lat="60.424060" lon="5.303904"><ele>54.473</ele><time>2022-11-18T03:43:30Z</time></trkpt><trkpt lat="60.431907" lon="5.285893"><ele>57.352</ele><time>2022-11-18T03:44:10Z</time></trkpt><trkpt lat="60.438622" lon="5.286355"><ele>54.027</ele><time>2022-11-18T03:44:50Z</time></trkpt><trkpt lat="60.444409" lon="5.281285"><ele>52.059</ele><time>2022-11-18T03:45:30Z</time></trkpt><trkpt lat="60.444673" lon="5.289058"><ele>45.862</ele><time>2022-11-18T03:46:10Z</time></trkpt><trkpt lat="60.436751" lon="5.310368"><ele>19.418</ele><time>2022-11-18T03:46:50Z</time></trkpt><trkpt lat="60.436661" lon="5.320607"><ele>19.289</ele><time>2022-11-18T03:47:30Z</time></trkpt><trkpt lat="60.439425" lon="5.323381"><ele>33.164</ele><time>2022-11-18T03:48:10Z</time></trkpt><trkpt lat="60.443181" lon="5.321981"><ele>42.506</ele><time>2022-11-18T03:48:50Z</time></trkpt><trkpt lat="60.443583" lon="5.326269"><ele>56.516</ele><time>2022-11-18T03:49:30Z</time></trkpt><trkpt lat="60.449541" lon="5.319620"><ele>55.009</ele><time>2022-11-18T03:50:10Z</time></trkpt><trkpt lat="60.455718" lon="5.318169"><ele>76.947</ele><time>2022-11-18T03:50:50Z</time></trkpt><trkpt lat="60.456935" lon="5.306134"><ele>82.127</ele><time>2022-11-18T03:51:30Z</time></trkpt><trkpt lat="60.454799" lon="5.297462"><ele>54.264</ele><time>2022-11-18T03:52:10Z</time></trkpt><trkpt lat="60.457159" lon="5.289238"><ele>30.563</ele><time>2022-11-18T03:52:50Z</time></trkpt><trkpt lat="60.465375" lon="5.276677"><ele>22.488</ele><time>2022-11-18T03:53:30Z</time></trkpt><trkpt lat="60.467946" lon="5.277746"><ele>28.520</ele><time>2022-11-18T03:54:10Z</time></trkpt><trkpt lat="60.470411" lon="5.275055"><ele>49.643</ele><time>2022-11-18T03:54:50Z</time></trkpt><trkpt lat="60.478106" lon="5.258736"><ele>55.469</ele><time>2022-11-18T03:55:30Z</time></trkpt><trkpt lat="60.481248" lon="5.257265"><ele>51.150</ele><time>2022-11-18T03:56:10Z</time></trkpt><trkpt lat="60.490608" lon="5.260623"><ele>35.313</ele><time>2022-11-18T03:56:50Z</time></trkpt><trkpt lat="60.490060" lon="5.267795"><ele>49.443</ele><time>2022-11-18T03:57:30Z</time></trkpt><trkpt lat="60.495081" lon="5.262054"><ele>57.107</ele><time>2022-11-18T03:58:10Z</time></trkpt><trkpt lat="60.503131" lon="5.264114"><ele>44.509</ele><time>2022-11-18T03:58:50Z</time></trkpt><trkpt lat="60.505918" lon="5.267381"><ele>15.992</ele><time>2022-11-18T03:59:30Z</time></trkpt><trkpt lat="60.507468" lon="5.274046"><ele>47.822</ele><time>2022-11-18T04:00:10Z</time></trkpt><trkpt lat="60.511242" lon="5.275608"><ele>60.639</ele><time>2022-11-18T04:00:50Z</time></trkpt><trkpt lat="60.516650" lon="5.284311"><ele>22.138</ele><time>2022-11-18T04:01:30Z</time></trkpt><trkpt lat="60.523268" lon="5.265467"><ele>0.043</ele><time>2022-11-18T04:02:10Z</time></trkpt><trkpt lat="60.531975" lon="5.255474"><ele>7.455</ele><time>2022-11-18T04:02:50Z</time></trkpt><trkpt lat="60.541807" lon="5.262820"><ele>40.128</ele><time>2022-11-18T04:03:30Z</time></trkpt><trkpt lat="60.544994" lon="5.281339"><ele>33.864</ele><time>2022-11-18T04:04:10Z</time></trkpt><trkpt lat="60.551541" lon="5.279896"><ele>49.285</ele><time>2022-11-18T04:04:50Z</time></trkpt><trkpt lat="60.555288" lon="5.269676"><ele>9.143</ele><time>2022-11-18T04:05:30Z</time></trkpt><trkpt lat="60.555226" lon="5.265454"><ele>27.664</ele><time>2022-11-18T04:06:10Z</time></trkpt><trkpt lat="60.570986" lon="5.234592"><ele>40.710</ele><time>2022-11-18T04:06:50Z</time></trkpt><trkpt lat="60.571366" lon="5.226023"><ele>27.409</ele><time>2022-11-18T04:07:30Z</time></trkpt><trkpt lat="60.585275" lon="5.208443"><ele>31.625</ele><time>2022-11-18T04:08:10Z</time></trkpt><trkpt lat="60.598120" lon="5.202762"><ele>36.715</ele><time>2022-11-18T04:08:50Z</time></trkpt><trkpt lat="60.607215" lon="5.191860"><ele>39.742</ele><time>2022-11-18T04:09:30Z</time></trkpt><trkpt lat="60.607994" lon="5.186757"><ele>37.151</ele><time>2022-11-18T04:10:10Z</time></trkpt><trkpt lat="60.613255" lon="5.185510"><ele>52.076</ele><time>2022-11-18T04:10:50Z</time></trkpt><trkpt lat="60.622908" lon="5.164502"><ele>52.728</ele><time>2022-11-18T04:11:30Z</time></trkpt><trkpt lat="60.632619" lon="5.151279"><ele>54.281</ele><time>2022-11-18T04:12:10Z</time></trkpt><trkpt lat="60.634167" lon="5.143639"><ele>59.817</ele><time>2022-11-18T04:12:50Z</time></trkpt><trkpt lat="60.632416" lon="5.139920"><ele>70.418</ele><time>2022-11-18T04:13:30Z</time></trkpt><trkpt lat="60.632407" lon="5.128040"><ele>57.892</ele><time>2022-11-18T04:14:10Z</time></trkpt><trkpt lat="60.635994" lon="5.121052"><ele>36.573</ele><time>2022-11-18T04:14:50Z</time></trkpt><trkpt lat="60.635994" lon="5.121052"><ele>36.520</ele><time>2022-11-18T04:15:30Z</time></trkpt><trkpt lat="60.634839" lon="5.120073"><ele>18.409</ele><time>2022-11-18T04:16:10Z</time></trkpt><trkpt lat="60.636510" lon="5.116393"><ele>36.120</ele><time>2022-11-18T04:16:50Z</time></trkpt><trkpt lat="60.634716" lon="5.114824"><ele>47.930</ele><time>2022-11-18T04:17:30Z</time></trkpt><trkpt lat="60.636315" lon="5.109301"><ele>46.627</ele><time>2022-11-18T04:18:10Z</time></trkpt><trkpt lat="60.634745" lon="5.105054"><ele>28.186</ele><time>2022-11-18T04:18:50Z</time></trkpt><trkpt lat="60.635199" lon="5.099279"><ele>24.551</ele><time>2022-11-18T04:19:30Z</time></trkpt><trkpt lat="60.626934" lon="5.100871"><ele>63.213</ele><time>2022-11-18T04:20:10Z</time></trkpt><trkpt lat="60.627917" lon="5.084803"><ele>35.476</ele><time>2022-11-18T04:20:50Z</time></trkpt><trkpt lat="60.630361" lon="5.075081"><ele>27.232</ele><time>2022-11-18T04:21:30Z</time></trkpt><trkpt lat="60.639302" lon="5.057990"><ele>35.093</ele><time>2022-11-18T04:22:10Z</time></trkpt><trkpt lat="60.641431" lon="5.041412"><ele>32.931</ele><time>2022-11-18T04:22:50Z</time></trkpt><trkpt lat="60.646662" lon="5.042871"><ele>29.361</ele><time>2022-11-18T04:23:30Z</time></trkpt><trkpt lat="60.651013" lon="5.036378"><ele>33.607</ele><time>2022-11-18T04:24:10Z</time></trkpt><trkpt lat="60.656043" lon="5.009486"><ele>21.709</ele><time>2022-11-18T04:24:50Z</time></trkpt><trkpt lat="60.655513" lon="5.006195"><ele>16.554</ele><time>2022-11-18T04:25:30Z</time></trkpt><trkpt lat="60.664406" lon="4.979175"><ele>27.484</ele><time>2022-11-18T04:26:10Z</time></trkpt><trkpt lat="60.686800" lon="4.937252"><ele>12.921</ele><time>2022-11-18T04:26:50Z</time></trkpt><trkpt lat="60.698638" lon="4.928508"><ele>13.380</ele><time>2022-11-18T04:27:30Z</time></trkpt><trkpt lat="60.704272" lon="4.932816"><ele>8.055</ele><time>2022-11-18T04:28:10Z</time></trkpt><trkpt lat="60.704689" lon="4.945109"><ele>33.177</ele><time>2022-11-18T04:28:50Z</time></trkpt><trkpt lat="60.708071" lon="4.954506"><ele>41.790</ele><time>2022-11-18T04:29:30Z</time></trkpt><trkpt lat="60.706530" lon="4.964428"><ele>29.986</ele><time>2022-11-18T04:30:10Z</time></trkpt><trkpt lat="60.707887" lon="4.967185"><ele>26.427</ele><time>2022-11-18T04:30:50Z</time></trkpt><trkpt lat="60.707972" lon="4.985778"><ele>35.653</ele><time>2022-11-18T04:31:30Z</time></trkpt><trkpt lat="60.711513" lon="4.981275"><ele>24.204</ele><time>2022-11-18T04:32:10Z</time></trkpt><trkpt lat="60.712559" lon="4.984299"><ele>4.714</ele><time>2022-11-18T04:32:50Z</time></trkpt><trkpt lat="60.718853" lon="4.984236"><ele>15.209</ele><time>2022-11-18T04:33:30Z</time></trkpt><trkpt lat="60.724236" lon="4.976359"><ele>26.786</ele><time>2022-11-18T04:34:10Z</time></trkpt><trkpt lat="60.737006" lon="4.966422"><ele>24.536</ele><time>2022-11-18T04:34:50Z</time></trkpt><trkpt lat="60.745311" lon="4.954963"><ele>22.763</ele><time>2022-11-18T04:35:30Z</time></trkpt><trkpt lat="60.755314" lon="4.955161"><ele>24.022</ele><time>2022-11-18T04:36:10Z</time></trkpt><trkpt lat="60.763638" lon="4.937679"><ele>23.887</ele><time>2022-11-18T04:36:50Z</time></trkpt><trkpt lat="60.765166" lon="4.926668"><ele>21.869</ele><time>2022-11-18T04:37:30Z</time></trkpt><trkpt lat="60.764472" lon="4.915129"><ele>15.122</ele><time>2022-11-18T04:38:10Z</time></trkpt><trkpt lat="60.767211" lon="4.915246"><ele>15.078</ele><time>2022-11-18T04:38:50Z</time></trkpt><trkpt lat="60.774969" lon="4.924848"><ele>22.659</ele><time>2022-11-18T04:39:30Z</time></trkpt><trkpt lat="60.777337" lon="4.933268"><ele>23.827</ele><time>2022-11-18T04:40:10Z</time></trkpt><trkpt lat="60.785764" lon="4.935390"><ele>16.868</ele><time>2022-11-18T04:40:50Z</time></trkpt><trkpt lat="60.792456" lon="4.925099"><ele>12.814</ele><time>2022-11-18T04:41:30Z</time></trkpt><trkpt lat="60.803184" lon="4.918462"><ele>12.609</ele><time>2022-11-18T04:42:10Z</time></trkpt><trkpt lat="60.802520" lon="4.926782"><ele>9.953</ele><time>2022-11-18T04:42:50Z</time></trkpt><trkpt lat="60.798058" lon="4.936176"><ele>11.073</ele><time>2022-11-18T04:43:30Z</time></trkpt><trkpt lat="60.796027" lon="4.948967"><ele>15.330</ele><time>2022-11-18T04:44:10Z</time></trkpt><trkpt lat="60.787823" lon="4.959864"><ele>33.989</ele><time>2022-11-18T04:44:50Z</time></trkpt><trkpt lat="60.785529" lon="4.969676"><ele>38.544</ele><time>2022-11-18T04:45:30Z</time></trkpt><trkpt lat="60.803559" lon="4.980841"><ele>17.816</ele><time>2022-11-18T04:46:10Z</time></trkpt><trkpt lat="60.804261" lon="4.985364"><ele>20.799</ele><time>2022-11-18T04:46:50Z</time></trkpt><trkpt lat="60.801976" lon="5.004756"><ele>30.235</ele><time>2022-11-18T04:47:30Z</time></trkpt><trkpt lat="60.812756" lon="5.006938"><ele>9.046</ele><time>2022-11-18T04:48:10Z</time></trkpt><trkpt lat="60.814562" lon="5.004779"><ele>1.631</ele><time>2022-11-18T04:48:50Z</time></trkpt><trkpt lat="60.856700" lon="5.063960"><ele>0.061</ele><time>2022-11-18T04:49:30Z</time></trkpt><trkpt lat="60.846834" lon="5.089703"><ele>48.107</ele><time>2022-11-18T04:50:10Z</time></trkpt><trkpt lat="60.851202" lon="5.095215"><ele>46.109</ele><time>2022-11-18T04:50:50Z</time></trkpt><trkpt lat="60.849412" lon="5.107600"><ele>48.224</ele><time>2022-11-18T04:51:30Z</time></trkpt><trkpt lat="60.852085" lon="5.112620"><ele>18.924</ele><time>2022-11-18T04:52:10Z</time></trkpt><trkpt lat="60.872120" lon="5.118553"><ele>6.461</ele><time>2022-11-18T04:52:50Z</time></trkpt><trkpt lat="60.876604" lon="5.122318"><ele>9.840</ele><time>2022-11-18T04:53:30Z</time></trkpt><trkpt lat="60.878369" lon="5.133092"><ele>2.775</ele><time>2022-11-18T04:54:10Z</time></trkpt><trkpt lat="60.881523" lon="5.135848"><ele>2.657</ele><time>2022-11-18T04:54:50Z</time></trkpt><trkpt lat="60.888837" lon="5.130465"><ele>25.090</ele><time>2022-11-18T04:55:30Z</time></trkpt><trkpt lat="60.891517" lon="5.133003"><ele>7.386</ele><time>2022-11-18T04:56:10Z</time></trkpt><trkpt lat="60.893520" lon="5.127912"><ele>21.557</ele><time>2022-11-18T04:56:50Z</time></trkpt><trkpt lat="60.896733" lon="5.126158"><ele>43.299</ele><time>2022-11-18T04:57:30Z</time></trkpt><trkpt lat="60.902874" lon="5.134337"><ele>29.007</ele><time>2022-11-18T04:58:10Z</time></trkpt><trkpt lat="60.909232" lon="5.138253"><ele>36.927</ele><time>2022-11-18T04:58:50Z</time></trkpt><trkpt lat="60.921383" lon="5.130575"><ele>19.209</ele><time>2022-11-18T04:59:30Z</time></trkpt><trkpt lat="60.932910" lon="5.135546"><ele>4.020</ele><time>2022-11-18T05:00:10Z</time></trkpt><trkpt lat="60.935278" lon="5.133858"><ele>23.450</ele><time>2022-11-18T05:00:50Z</time></trkpt><trkpt lat="60.934835" lon="5.141263"><ele>32.867</ele><time>2022-11-18T05:01:30Z</time></trkpt><trkpt lat="60.936729" lon="5.145059"><ele>34.036</ele><time>2022-11-18T05:02:10Z</time></trkpt><trkpt lat="60.947103" lon="5.135699"><ele>47.161</ele><time>2022-11-18T05:02:50Z</time></trkpt><trkpt lat="60.949927" lon="5.142040"><ele>59.123</ele><time>2022-11-18T05:03:30Z</time></trkpt><trkpt lat="60.950451" lon="5.151070"><ele>51.276</ele><time>2022-11-18T05:04:10Z</time></trkpt><trkpt lat="60.959063" lon="5.166123"><ele>112.832</ele><time>2022-11-18T05:04:50Z</time></trkpt><trkpt lat="60.966255" lon="5.172613"><ele>81.883</ele><time>2022-11-18T05:05:30Z</time></trkpt><trkpt lat="60.967059" lon="5.189115"><ele>13.358</ele><time>2022-11-18T05:06:10Z</time></trkpt><trkpt lat="60.968543" lon="5.193809"><ele>6.652</ele><time>2022-11-18T05:06:50Z</time></trkpt><trkpt lat="60.971897" lon="5.185190"><ele>28.217</ele><time>2022-11-18T05:07:30Z</time></trkpt><trkpt lat="60.978694" lon="5.188919"><ele>30.309</ele><time>2022-11-18T05:08:10Z</time></trkpt><trkpt lat="60.988030" lon="5.182935"><ele>54.786</ele><time>2022-11-18T05:08:50Z</time></trkpt><trkpt lat="60.992601" lon="5.188667"><ele>25.956</ele><time>2022-11-18T05:09:30Z</time></trkpt><trkpt lat="60.995186" lon="5.188658"><ele>15.593</ele><time>2022-11-18T05:10:10Z</time></trkpt><trkpt lat="60.996729" lon="5.184695"><ele>23.292</ele><time>2022-11-18T05:10:50Z</time></trkpt><trkpt lat="60.999887" lon="5.188475"><ele>9.167</ele><time>2022-11-18T05:11:30Z</time></trkpt><trkpt lat="61.001858" lon="5.181945"><ele>29.359</ele><time>2022-11-18T05:12:10Z</time></trkpt><trkpt lat="61.004902" lon="5.191439"><ele>14.462</ele><time>2022-11-18T05:12:50Z</time></trkpt><trkpt lat="61.008779" lon="5.195003"><ele>36.828</ele><time>2022-11-18T05:13:30Z</time></trkpt><trkpt lat="61.009269" lon="5.191463"><ele>35.829</ele><time>2022-11-18T05:14:10Z</time></trkpt><trkpt lat="61.006060" lon="5.176053"><ele>10.379</ele><time>2022-11-18T05:14:50Z</time></trkpt><trkpt lat="61.003862" lon="5.172730"><ele>25.305</ele><time>2022-11-18T05:15:30Z</time></trkpt><trkpt lat="60.994940" lon="5.166351"><ele>7.925</ele><time>2022-11-18T05:16:10Z</time></trkpt><trkpt lat="60.985367" lon="5.166350"><ele>12.509</ele><time>2022-11-18T05:16:50Z</time></trkpt><trkpt lat="60.975879" lon="5.161731"><ele>14.248</ele><time>2022-11-18T05:17:30Z</time></trkpt><trkpt lat="60.969634" lon="5.135926"><ele>16.398</ele><time>2022-11-18T05:18:10Z</time></trkpt><trkpt lat="60.972125" lon="5.098924"><ele>27.295</ele><time>2022-11-18T05:18:50Z</time></trkpt><trkpt lat="60.975182" lon="5.094479"><ele>22.284</ele><time>2022-11-18T05:19:30Z</time></trkpt><trkpt lat="60.982009" lon="5.094520"><ele>12.299</ele><time>2022-11-18T05:20:10Z</time></trkpt><trkpt lat="60.983554" lon="5.089752"><ele>7.791</ele><time>2022-11-18T05:20:50Z</time></trkpt><trkpt lat="60.983875" lon="5.084265"><ele>2.234</ele><time>2022-11-18T05:21:30Z</time></trkpt><trkpt lat="60.980591" lon="5.083849"><ele>16.770</ele><time>2022-11-18T05:22:10Z</time></trkpt><trkpt lat="60.979805" lon="5.081012"><ele>14.971</ele><time>2022-11-18T05:22:50Z</time></trkpt><trkpt lat="60.981614" lon="5.071552"><ele>11.864</ele><time>2022-11-18T05:23:30Z</time></trkpt><trkpt lat="60.979768" lon="5.043231"><ele>16.506</ele><time>2022-11-18T05:24:10Z</time></trkpt><trkpt lat="60.987940" lon="5.036189"><ele>5.416</ele><time>2022-11-18T05:24:50Z</time></trkpt><trkpt lat="60.997834" lon="5.038866"><ele>18.109</ele><time>2022-11-18T05:25:30Z</time></trkpt><trkpt lat="61.004039" lon="5.032023"><ele>14.787</ele><time>2022-11-18T05:26:10Z</time></trkpt><trkpt lat="61.006557" lon="5.033900"><ele>9.627</ele><time>2022-11-18T05:26:50Z</time></trkpt><trkpt lat="61.011591" lon="5.030829"><ele>48.284</ele><time>2022-11-18T05:27:30Z</time></trkpt><trkpt lat="61.012833" lon="5.039499"><ele>28.913</ele><time>2022-11-18T05:28:10Z</time></trkpt><trkpt lat="61.015220" lon="5.038908"><ele>26.028</ele><time>2022-11-18T05:28:50Z</time></trkpt><trkpt lat="61.017225" lon="5.044660"><ele>25.930</ele><time>2022-11-18T05:29:30Z</time></trkpt><trkpt lat="61.020425" lon="5.044095"><ele>47.033</ele><time>2022-11-18T05:30:10Z</time></trkpt><trkpt lat="61.022433" lon="5.051760"><ele>81.679</ele><time>2022-11-18T05:30:50Z</time></trkpt><trkpt lat="61.021453" lon="5.056144"><ele>53.240</ele><time>2022-11-18T05:31:30Z</time></trkpt><trkpt lat="61.024577" lon="5.048876"><ele>14.564</ele><time>2022-11-18T05:32:10Z</time></trkpt><trkpt lat="61.027709" lon="5.053203"><ele>19.906</ele><time>2022-11-18T05:32:50Z</time></trkpt><trkpt lat="61.030145" lon="5.043182"><ele>28.416</ele><time>2022-11-18T05:33:30Z</time></trkpt><trkpt lat="61.033689" lon="5.036525"><ele>30.009</ele><time>2022-11-18T05:34:10Z</time></trkpt><trkpt lat="61.038296" lon="5.042616"><ele>28.157</ele><time>2022-11-18T05:34:50Z</time></trkpt><trkpt lat="61.044544" lon="5.039661"><ele>21.667</ele><time>2022-11-18T05:35:30Z</time></trkpt><trkpt lat="61.049754" lon="5.048987"><ele>15.574</ele><time>2022-11-18T05:36:10Z</time></trkpt><trkpt lat="61.053834" lon="5.042080"><ele>10.863</ele><time>2022-11-18T05:36:50Z</time></trkpt><trkpt lat="61.058332" lon="5.044208"><ele>23.088</ele><time>2022-11-18T05:37:30Z</time></trkpt><trkpt lat="61.064574" lon="5.065160"><ele>5.350</ele><time>2022-11-18T05:38:10Z</time></trkpt><trkpt lat="61.063322" lon="5.074497"><ele>27.923</ele><time>2022-11-18T05:38:50Z</time></trkpt><trkpt lat="61.062712" lon="5.072715"><ele>43.199</ele><time>2022-11-18T05:39:30Z</time></trkpt><trkpt lat="61.062028" lon="5.075171"><ele>58.610</ele><time>2022-11-18T05:40:10Z</time></trkpt><trkpt lat="61.061868" lon="5.072837"><ele>78.032</ele><time>2022-11-18T05:40:50Z</time></trkpt><trkpt lat="61.060611" lon="5.076933"><ele>102.592</ele><time>2022-11-18T05:41:30Z</time></trkpt><trkpt lat="61.057611" lon="5.078603"><ele>122.611</ele><time>2022-11-18T05:42:10Z</time></trkpt><trkpt lat="61.055728" lon="5.085375"><ele>109.309</ele><time>2022-11-18T05:42:50Z</time></trkpt><trkpt lat="61.057731" lon="5.103579"><ele>95.364</ele><time>2022-11-18T05:43:30Z</time></trkpt><trkpt lat="61.056905" lon="5.108485"><ele>83.354</ele><time>2022-11-18T05:44:10Z</time></trkpt><trkpt lat="61.058544" lon="5.111973"><ele>64.341</ele><time>2022-11-18T05:44:50Z</time></trkpt><trkpt lat="61.057499" lon="5.115412"><ele>58.050</ele><time>2022-11-18T05:45:30Z</time></trkpt><trkpt lat="61.059640" lon="5.123592"><ele>38.385</ele><time>2022-11-18T05:46:10Z</time></trkpt><trkpt lat="61.058828" lon="5.129802"><ele>42.177</ele><time>2022-11-18T05:46:50Z</time></trkpt><trkpt lat="61.061587" lon="5.141295"><ele>48.240</ele><time>2022-11-18T05:47:30Z</time></trkpt><trkpt lat="61.064725" lon="5.141759"><ele>61.076</ele><time>2022-11-18T05:48:10Z</time></trkpt><trkpt lat="61.064902" lon="5.148154"><ele>42.827</ele><time>2022-11-18T05:48:50Z</time></trkpt><trkpt lat="61.070803" lon="5.144314"><ele>26.125</ele><time>2022-11-18T05:49:30Z</time></trkpt><trkpt lat="61.071965" lon="5.146205"><ele>46.126</ele><time>2022-11-18T05:50:10Z</time></trkpt><trkpt lat="61.073316" lon="5.156737"><ele>36.008</ele><time>2022-11-18T05:50:50Z</time></trkpt><trkpt lat="61.068873" lon="5.181889"><ele>6.809</ele><time>2022-11-18T05:51:30Z</time></trkpt><trkpt lat="61.069781" lon="5.186674"><ele>4.263</ele><time>2022-11-18T05:52:10Z</time></trkpt><trkpt lat="61.073937" lon="5.189684"><ele>3.373</ele><time>2022-11-18T05:52:50Z</time></trkpt><trkpt lat="61.114190" lon="5.283678"><ele>1.820</ele><time>2022-11-18T05:53:30Z</time></trkpt><trkpt lat="61.112496" lon="5.286434"><ele>17.269</ele><time>2022-11-18T05:54:10Z</time></trkpt><trkpt lat="61.114549" lon="5.291509"><ele>37.044</ele><time>2022-11-18T05:54:50Z</time></trkpt><trkpt lat="61.115237" lon="5.305039"><ele>8.946</ele><time>2022-11-18T05:55:30Z</time></trkpt><trkpt lat="61.120106" lon="5.323449"><ele>7.429</ele><time>2022-11-18T05:56:10Z</time></trkpt><trkpt lat="61.125183" lon="5.325488"><ele>6.255</ele><time>2022-11-18T05:56:50Z</time></trkpt><trkpt lat="61.129979" lon="5.323440"><ele>12.566</ele><time>2022-11-18T05:57:30Z</time></trkpt><trkpt lat="61.131857" lon="5.328374"><ele>12.762</ele><time>2022-11-18T05:58:10Z</time></trkpt><trkpt lat="61.131974" lon="5.335547"><ele>19.983</ele><time>2022-11-18T05:58:50Z</time></trkpt><trkpt lat="61.134240" lon="5.338892"><ele>11.011</ele><time>2022-11-18T05:59:30Z</time></trkpt><trkpt lat="61.138662" lon="5.339429"><ele>13.409</ele><time>2022-11-18T06:00:10Z</time></trkpt><trkpt lat="61.142900" lon="5.355126"><ele>15.757</ele><time>2022-11-18T06:00:50Z</time></trkpt><trkpt lat="61.146245" lon="5.347344"><ele>18.267</ele><time>2022-11-18T06:01:30Z</time></trkpt><trkpt lat="61.150460" lon="5.343173"><ele>19.744</ele><time>2022-11-18T06:02:10Z</time></trkpt><trkpt lat="61.155992" lon="5.350531"><ele>21.393</ele><time>2022-11-18T06:02:50Z</time></trkpt><trkpt lat="61.156512" lon="5.346189"><ele>26.458</ele><time>2022-11-18T06:03:30Z</time></trkpt><trkpt lat="61.155063" lon="5.343221"><ele>47.540</ele><time>2022-11-18T06:04:10Z</time></trkpt><trkpt lat="61.157386" lon="5.345296"><ele>73.843</ele><time>2022-11-18T06:04:50Z</time></trkpt><trkpt lat="61.157080" lon="5.343054"><ele>84.459</ele><time>2022-11-18T06:05:30Z</time></trkpt><trkpt lat="61.158944" lon="5.342623"><ele>103.680</ele><time>2022-11-18T06:06:10Z</time></trkpt><trkpt lat="61.162282" lon="5.333679"><ele>112.364</ele><time>2022-11-18T06:06:50Z</time></trkpt><trkpt lat="61.162346" lon="5.319598"><ele>82.306</ele><time>2022-11-18T06:07:30Z</time></trkpt><trkpt lat="61.164422" lon="5.310340"><ele>79.816</ele><time>2022-11-18T06:08:10Z</time></trkpt><trkpt lat="61.163683" lon="5.305068"><ele>68.409</ele><time>2022-11-18T06:08:50Z</time></trkpt><trkpt lat="61.166932" lon="5.299408"><ele>43.767</ele><time>2022-11-18T06:09:30Z</time></trkpt><trkpt lat="61.171161" lon="5.296101"><ele>32.627</ele><time>2022-11-18T06:10:10Z</time></trkpt><trkpt lat="61.174201" lon="5.300141"><ele>13.354</ele><time>2022-11-18T06:10:50Z</time></trkpt><trkpt lat="61.176072" lon="5.297735"><ele>18.423</ele><time>2022-11-18T06:11:30Z</time></trkpt><trkpt lat="61.181380" lon="5.302619"><ele>22.498</ele><time>2022-11-18T06:12:10Z</time></trkpt><trkpt lat="61.185002" lon="5.314167"><ele>9.030</ele><time>2022-11-18T06:12:50Z</time></trkpt><trkpt lat="61.188997" lon="5.313053"><ele>6.773</ele><time>2022-11-18T06:13:30Z</time></trkpt><trkpt lat="61.190473" lon="5.301958"><ele>21.879</ele><time>2022-11-18T06:14:10Z</time></trkpt><trkpt lat="61.203967" lon="5.267633"><ele>5.020</ele><time>2022-11-18T06:14:50Z</time></trkpt><trkpt lat="61.214214" lon="5.227329"><ele>19.913</ele><time>2022-11-18T06:15:30Z</time></trkpt><trkpt lat="61.219950" lon="5.220677"><ele>44.443</ele><time>2022-11-18T06:16:10Z</time></trkpt><trkpt lat="61.223824" lon="5.202885"><ele>38.307</ele><time>2022-11-18T06:16:50Z</time></trkpt><trkpt lat="61.223900" lon="5.193131"><ele>24.609</ele><time>2022-11-18T06:17:30Z</time></trkpt><trkpt lat="61.225628" lon="5.192663"><ele>13.542</ele><time>2022-11-18T06:18:10Z</time></trkpt><trkpt lat="61.227436" lon="5.185538"><ele>8.582</ele><time>2022-11-18T06:18:50Z</time></trkpt><trkpt lat="61.227617" lon="5.176943"><ele>7.129</ele><time>2022-11-18T06:19:30Z</time></trkpt><trkpt lat="61.225913" lon="5.171978"><ele>9.728</ele><time>2022-11-18T06:20:10Z</time></trkpt><trkpt lat="61.224924" lon="5.109801"><ele>24.953</ele><time>2022-11-18T06:20:50Z</time></trkpt><trkpt lat="61.227926" lon="5.113428"><ele>25.565</ele><time>2022-11-18T06:21:30Z</time></trkpt><trkpt lat="61.232566" lon="5.110957"><ele>35.228</ele><time>2022-11-18T06:22:10Z</time></trkpt><trkpt lat="61.235566" lon="5.119989"><ele>13.954</ele><time>2022-11-18T06:22:50Z</time></trkpt><trkpt lat="61.238644" lon="5.120938"><ele>27.355</ele><time>2022-11-18T06:23:30Z</time></trkpt><trkpt lat="61.241209" lon="5.118071"><ele>39.189</ele><time>2022-11-18T06:24:10Z</time></trkpt><trkpt lat="61.243462" lon="5.108032"><ele>25.606</ele><time>2022-11-18T06:24:50Z</time></trkpt><trkpt lat="61.246624" lon="5.110952"><ele>27.826</ele><time>2022-11-18T06:25:30Z</time></trkpt><trkpt lat="61.249635" lon="5.109841"><ele>28.309</ele><time>2022-11-18T06:26:10Z</time></trkpt><trkpt lat="61.254343" lon="5.102839"><ele>18.289</ele><time>2022-11-18T06:26:50Z</time></trkpt><trkpt lat="61.257002" lon="5.105517"><ele>3.769</ele><time>2022-11-18T06:27:30Z</time></trkpt><trkpt lat="61.258302" lon="5.102019"><ele>4.956</ele><time>2022-11-18T06:28:10Z</time></trkpt><trkpt lat="61.254458" lon="5.094221"><ele>12.385</ele><time>2022-11-18T06:28:50Z</time></trkpt><trkpt lat="61.244112" lon="5.090783"><ele>42.660</ele><time>2022-11-18T06:29:30Z</time></trkpt><trkpt lat="61.242924" lon="5.066278"><ele>13.352</ele><time>2022-11-18T06:30:10Z</time></trkpt><trkpt lat="61.240993" lon="5.061173"><ele>23.055</ele><time>2022-11-18T06:30:50Z</time></trkpt><trkpt lat="61.240972" lon="5.042333"><ele>18.341</ele><time>2022-11-18T06:31:30Z</time></trkpt><trkpt lat="61.245042" lon="5.019394"><ele>29.722</ele><time>2022-11-18T06:32:10Z</time></trkpt><trkpt lat="61.249428" lon="5.018465"><ele>20.295</ele><time>2022-11-18T06:32:50Z</time></trkpt><trkpt lat="61.256532" lon="5.031317"><ele>10.449</ele><time>2022-11-18T06:33:30Z</time></trkpt><trkpt lat="61.260065" lon="5.031294"><ele>7.223</ele><time>2022-11-18T06:34:10Z</time></trkpt><trkpt lat="61.262793" lon="5.037986"><ele>28.109</ele><time>2022-11-18T06:34:50Z</time></trkpt><trkpt lat="61.264547" lon="5.027627"><ele>36.110</ele><time>2022-11-18T06:35:30Z</time></trkpt><trkpt lat="61.267610" lon="5.031482"><ele>29.080</ele><time>2022-11-18T06:36:10Z</time></trkpt><trkpt lat="61.274428" lon="5.025805"><ele>15.747</ele><time>2022-11-18T06:36:50Z</time></trkpt><trkpt lat="61.280674" lon="5.035839"><ele>28.916</ele><time>2022-11-18T06:37:30Z</time></trkpt><trkpt lat="61.283137" lon="5.035826"><ele>29.461</ele><time>2022-11-18T06:38:10Z</time></trkpt><trkpt lat="61.282824" lon="5.041500"><ele>14.963</ele><time>2022-11-18T06:38:50Z</time></trkpt><trkpt lat="61.285718" lon="5.053573"><ele>5.326</ele><time>2022-11-18T06:39:30Z</time></trkpt><trkpt lat="61.292932" lon="5.045179"><ele>11.862</ele><time>2022-11-18T06:40:10Z</time></trkpt><trkpt lat="61.297277" lon="5.072001"><ele>25.033</ele><time>2022-11-18T06:40:50Z</time></trkpt><trkpt lat="61.296253" lon="5.079334"><ele>7.329</ele><time>2022-11-18T06:41:30Z</time></trkpt><trkpt lat="61.297087" lon="5.084512"><ele>6.600</ele><time>2022-11-18T06:42:10Z</time></trkpt><trkpt lat="61.346804" lon="5.062212"><ele>5.120</ele><time>2022-11-18T06:42:50Z</time></trkpt><trkpt lat="61.347969" lon="5.068522"><ele>4.109</ele><time>2022-11-18T06:43:30Z</time></trkpt><trkpt lat="61.345835" lon="5.088202"><ele>23.533</ele><time>2022-11-18T06:44:10Z</time></trkpt><trkpt lat="61.347653" lon="5.100919"><ele>10.513</ele><time>2022-11-18T06:44:50Z</time></trkpt><trkpt lat="61.358029" lon="5.117454"><ele>33.880</ele><time>2022-11-18T06:45:30Z</time></trkpt><trkpt lat="61.361825" lon="5.118363"><ele>35.059</ele><time>2022-11-18T06:46:10Z</time></trkpt><trkpt lat="61.363767" lon="5.113133"><ele>22.534</ele><time>2022-11-18T06:46:50Z</time></trkpt><trkpt lat="61.365961" lon="5.115289"><ele>13.036</ele><time>2022-11-18T06:47:30Z</time></trkpt><trkpt lat="61.368777" lon="5.108921"><ele>5.799</ele><time>2022-11-18T06:48:10Z</time></trkpt><trkpt lat="61.374270" lon="5.106377"><ele>24.285</ele><time>2022-11-18T06:48:50Z</time></trkpt><trkpt lat="61.378991" lon="5.109445"><ele>16.076</ele><time>2022-11-18T06:49:30Z</time></trkpt><trkpt lat="61.385015" lon="5.106772"><ele>31.019</ele><time>2022-11-18T06:50:10Z</time></trkpt><trkpt lat="61.394183" lon="5.110120"><ele>31.409</ele><time>2022-11-18T06:50:50Z</time></trkpt><trkpt lat="61.402061" lon="5.107183"><ele>29.619</ele><time>2022-11-18T06:51:30Z</time></trkpt><trkpt lat="61.410613" lon="5.109768"><ele>29.609</ele><time>2022-11-18T06:52:10Z</time></trkpt><trkpt lat="61.414121" lon="5.116845"><ele>22.432</ele><time>2022-11-18T06:52:50Z</time></trkpt><trkpt lat="61.417087" lon="5.132495"><ele>23.842</ele><time>2022-11-18T06:53:30Z</time></trkpt><trkpt lat="61.420778" lon="5.135925"><ele>23.529</ele><time>2022-11-18T06:54:10Z</time></trkpt><trkpt lat="61.421844" lon="5.149824"><ele>25.988</ele><time>2022-11-18T06:54:50Z</time></trkpt><trkpt lat="61.425588" lon="5.154758"><ele>21.163</ele><time>2022-11-18T06:55:30Z</time></trkpt><trkpt lat="61.427157" lon="5.166283"><ele>3.385</ele><time>2022-11-18T06:56:10Z</time></trkpt><trkpt lat="61.428716" lon="5.167821"><ele>1.388</ele><time>2022-11-18T06:56:50Z</time></trkpt><trkpt lat="61.431491" lon="5.164174"><ele>17.344</ele><time>2022-11-18T06:57:30Z</time></trkpt><trkpt lat="61.428627" lon="5.187420"><ele>99.785</ele><time>2022-11-18T06:58:10Z</time></trkpt><trkpt lat="61.430580" lon="5.195043"><ele>110.775</ele><time>2022-11-18T06:58:50Z</time></trkpt><trkpt lat="61.429902" lon="5.205494"><ele>120.728</ele><time>2022-11-18T06:59:30Z</time></trkpt><trkpt lat="61.431447" lon="5.212220"><ele>125.720</ele><time>2022-11-18T07:00:10Z</time></trkpt><trkpt lat="61.447271" lon="5.221239"><ele>106.309</ele><time>2022-11-18T07:00:50Z</time></trkpt><trkpt lat="61.449513" lon="5.220714"><ele>86.668</ele><time>2022-11-18T07:01:30Z</time></trkpt><trkpt lat="61.451448" lon="5.214253"><ele>52.528</ele><time>2022-11-18T07:02:10Z</time></trkpt><trkpt lat="61.454155" lon="5.222387"><ele>38.965</ele><time>2022-11-18T07:02:50Z</time></trkpt><trkpt lat="61.454100" lon="5.235383"><ele>25.134</ele><time>2022-11-18T07:03:30Z</time></trkpt><trkpt lat="61.455969" lon="5.242632"><ele>29.329</ele><time>2022-11-18T07:04:10Z</time></trkpt><trkpt lat="61.468398" lon="5.256869"><ele>26.071</ele><time>2022-11-18T07:04:50Z</time></trkpt><trkpt lat="61.470217" lon="5.262414"><ele>26.524</ele><time>2022-11-18T07:05:30Z</time></trkpt><trkpt lat="61.468953" lon="5.289625"><ele>37.210</ele><time>2022-11-18T07:06:10Z</time></trkpt><trkpt lat="61.460136" lon="5.321102"><ele>68.741</ele><time>2022-11-18T07:06:50Z</time></trkpt><trkpt lat="61.461598" lon="5.333967"><ele>27.486</ele><time>2022-11-18T07:07:30Z</time></trkpt><trkpt lat="61.459929" lon="5.348121"><ele>12.860</ele><time>2022-11-18T07:08:10Z</time></trkpt><trkpt lat="61.459603" lon="5.382311"><ele>42.326</ele><time>2022-11-18T07:08:50Z</time></trkpt><trkpt lat="61.453505" lon="5.403924"><ele>101.609</ele><time>2022-11-18T07:09:30Z</time></trkpt><trkpt lat="61.451567" lon="5.427800"><ele>92.389</ele><time>2022-11-18T07:10:10Z</time></trkpt><trkpt lat="61.446804" lon="5.457335"><ele>14.919</ele><time>2022-11-18T07:10:50Z</time></trkpt><trkpt lat="61.443644" lon="5.467279"><ele>32.246</ele><time>2022-11-18T07:11:30Z</time></trkpt><trkpt lat="61.442492" lon="5.479337"><ele>26.235</ele><time>2022-11-18T07:12:10Z</time></trkpt><trkpt lat="61.439637" lon="5.556411"><ele>28.850</ele><time>2022-11-18T07:12:50Z</time></trkpt><trkpt lat="61.440673" lon="5.578239"><ele>113.232</ele><time>2022-11-18T07:13:30Z</time></trkpt><trkpt lat="61.437302" lon="5.614033"><ele>215.055</ele><time>2022-11-18T07:14:10Z</time></trkpt><trkpt lat="61.436125" lon="5.645609"><ele>222.741</ele><time>2022-11-18T07:14:50Z</time></trkpt><trkpt lat="61.438196" lon="5.656912"><ele>201.872</ele><time>2022-11-18T07:15:30Z</time></trkpt><trkpt lat="61.441356" lon="5.652247"><ele>196.142</ele><time>2022-11-18T07:16:10Z</time></trkpt><trkpt lat="61.448770" lon="5.653641"><ele>252.322</ele><time>2022-11-18T07:16:50Z</time></trkpt><trkpt lat="61.451730" lon="5.659930"><ele>287.714</ele><time>2022-11-18T07:17:30Z</time></trkpt><trkpt lat="61.455800" lon="5.680629"><ele>264.009</ele><time>2022-11-18T07:18:10Z</time></trkpt><trkpt lat="61.454829" lon="5.686365"><ele>287.815</ele><time>2022-11-18T07:18:50Z</time></trkpt><trkpt lat="61.456012" lon="5.690940"><ele>307.475</ele><time>2022-11-18T07:19:30Z</time></trkpt><trkpt lat="61.461090" lon="5.689302"><ele>350.982</ele><time>2022-11-18T07:20:10Z</time></trkpt><trkpt lat="61.463005" lon="5.691273"><ele>377.191</ele><time>2022-11-18T07:20:50Z</time></trkpt><trkpt lat="61.462089" lon="5.702547"><ele>429.986</ele><time>2022-11-18T07:21:30Z</time></trkpt><trkpt lat="61.467100" lon="5.719737"><ele>453.498</ele><time>2022-11-18T07:22:10Z</time></trkpt><trkpt lat="61.471668" lon="5.724376"><ele>405.031</ele><time>2022-11-18T07:22:50Z</time></trkpt><trkpt lat="61.478158" lon="5.742761"><ele>363.647</ele><time>2022-11-18T07:23:30Z</time></trkpt><trkpt lat="61.476873" lon="5.758870"><ele>307.048</ele><time>2022-11-18T07:24:10Z</time></trkpt><trkpt lat="61.478211" lon="5.764318"><ele>280.868</ele><time>2022-11-18T07:24:50Z</time></trkpt><trkpt lat="61.477319" lon="5.776250"><ele>229.142</ele><time>2022-11-18T07:25:30Z</time></trkpt><trkpt lat="61.478518" lon="5.785817"><ele>186.426</ele><time>2022-11-18T07:26:10Z</time></trkpt><trkpt lat="61.476565" lon="5.790246"><ele>159.909</ele><time>2022-11-18T07:26:50Z</time></trkpt><trkpt lat="61.465932" lon="5.797107"><ele>58.017</ele><time>2022-11-18T07:27:30Z</time></trkpt><trkpt lat="61.464494" lon="5.806514"><ele>21.177</ele><time>2022-11-18T07:28:10Z</time></trkpt><trkpt lat="61.459430" lon="5.816541"><ele>71.894</ele><time>2022-11-18T07:28:50Z</time></trkpt><trkpt lat="61.458980" lon="5.827717"><ele>4.563</ele><time>2022-11-18T07:29:30Z</time></trkpt><trkpt lat="61.455890" lon="5.831575"><ele>10.358</ele><time>2022-11-18T07:30:10Z</time></trkpt><trkpt lat="61.450462" lon="5.849733"><ele>2.060</ele><time>2022-11-18T07:30:50Z</time></trkpt><trkpt lat="61.450255" lon="5.849926"><ele>2.133</ele><time>2022-11-18T07:31:30Z</time></trkpt><trkpt lat="61.457333" lon="5.850477"><ele>4.489</ele><time>2022-11-18T07:32:10Z</time></trkpt><trkpt lat="61.460164" lon="5.847915"><ele>29.030</ele><time>2022-11-18T07:32:50Z</time></trkpt><trkpt lat="61.463134" lon="5.842883"><ele>26.986</ele><time>2022-11-18T07:33:30Z</time></trkpt><trkpt lat="61.465734" lon="5.826209"><ele>20.860</ele><time>2022-11-18T07:34:10Z</time></trkpt><trkpt lat="61.476828" lon="5.807423"><ele>19.326</ele><time>2022-11-18T07:34:50Z</time></trkpt><trkpt lat="61.478731" lon="5.807759"><ele>16.709</ele><time>2022-11-18T07:35:30Z</time></trkpt><trkpt lat="61.481030" lon="5.813796"><ele>12.689</ele><time>2022-11-18T07:36:10Z</time></trkpt><trkpt lat="61.487293" lon="5.817023"><ele>13.879</ele><time>2022-11-18T07:36:50Z</time></trkpt><trkpt lat="61.489664" lon="5.814599"><ele>15.216</ele><time>2022-11-18T07:37:30Z</time></trkpt><trkpt lat="61.491729" lon="5.805347"><ele>16.965</ele><time>2022-11-18T07:38:10Z</time></trkpt><trkpt lat="61.495740" lon="5.797763"><ele>13.560</ele><time>2022-11-18T07:38:50Z</time></trkpt><trkpt lat="61.495688" lon="5.789347"><ele>13.652</ele><time>2022-11-18T07:39:30Z</time></trkpt><trkpt lat="61.498752" lon="5.784736"><ele>9.825</ele><time>2022-11-18T07:40:10Z</time></trkpt><trkpt lat="61.498634" lon="5.776555"><ele>12.971</ele><time>2022-11-18T07:40:50Z</time></trkpt><trkpt lat="61.503589" lon="5.759087"><ele>12.862</ele><time>2022-11-18T07:41:30Z</time></trkpt><trkpt lat="61.503284" lon="5.724885"><ele>9.086</ele><time>2022-11-18T07:42:10Z</time></trkpt><trkpt lat="61.506637" lon="5.718999"><ele>3.160</ele><time>2022-11-18T07:42:50Z</time></trkpt><trkpt lat="61.516640" lon="5.718518"><ele>13.126</ele><time>2022-11-18T07:43:30Z</time></trkpt><trkpt lat="61.521280" lon="5.733635"><ele>16.709</ele><time>2022-11-18T07:44:10Z</time></trkpt><trkpt lat="61.526604" lon="5.743614"><ele>24.129</ele><time>2022-11-18T07:44:50Z</time></trkpt><trkpt lat="61.538026" lon="5.757563"><ele>31.699</ele><time>2022-11-18T07:45:30Z</time></trkpt><trkpt lat="61.538430" lon="5.771803"><ele>32.216</ele><time>2022-11-18T07:46:10Z</time></trkpt><trkpt lat="61.542538" lon="5.785874"><ele>37.055</ele><time>2022-11-18T07:46:50Z</time></trkpt><trkpt lat="61.548226" lon="5.778901"><ele>71.950</ele><time>2022-11-18T07:47:30Z</time></trkpt><trkpt lat="61.554862" lon="5.780281"><ele>123.582</ele><time>2022-11-18T07:48:10Z</time></trkpt><trkpt lat="61.558579" lon="5.776033"><ele>158.345</ele><time>2022-11-18T07:48:50Z</time></trkpt><trkpt lat="61.562824" lon="5.775985"><ele>188.161</ele><time>2022-11-18T07:49:30Z</time></trkpt><trkpt lat="61.566901" lon="5.771678"><ele>189.982</ele><time>2022-11-18T07:50:10Z</time></trkpt><trkpt lat="61.569218" lon="5.761860"><ele>218.611</ele><time>2022-11-18T07:50:50Z</time></trkpt><trkpt lat="61.572930" lon="5.760538"><ele>243.721</ele><time>2022-11-18T07:51:30Z</time></trkpt><trkpt lat="61.576473" lon="5.754498"><ele>283.503</ele><time>2022-11-18T07:52:10Z</time></trkpt><trkpt lat="61.578291" lon="5.756921"><ele>306.709</ele><time>2022-11-18T07:52:50Z</time></trkpt><trkpt lat="61.576313" lon="5.740585"><ele>382.492</ele><time>2022-11-18T07:53:30Z</time></trkpt><trkpt lat="61.576368" lon="5.727134"><ele>439.392</ele><time>2022-11-18T07:54:10Z</time></trkpt><trkpt lat="61.571322" lon="5.717074"><ele>479.969</ele><time>2022-11-18T07:54:50Z</time></trkpt><trkpt lat="61.570077" lon="5.709177"><ele>447.978</ele><time>2022-11-18T07:55:30Z</time></trkpt><trkpt lat="61.571075" lon="5.704019"><ele>424.243</ele><time>2022-11-18T07:56:10Z</time></trkpt><trkpt lat="61.572894" lon="5.703287"><ele>408.815</ele><time>2022-11-18T07:56:50Z</time></trkpt><trkpt lat="61.574398" lon="5.694658"><ele>366.728</ele><time>2022-11-18T07:57:30Z</time></trkpt><trkpt lat="61.571405" lon="5.693844"><ele>326.814</ele><time>2022-11-18T07:58:10Z</time></trkpt><trkpt lat="61.569121" lon="5.697889"><ele>297.945</ele><time>2022-11-18T07:58:50Z</time></trkpt><trkpt lat="61.569553" lon="5.685291"><ele>252.475</ele><time>2022-11-18T07:59:30Z</time></trkpt><trkpt lat="61.566317" lon="5.668249"><ele>199.728</ele><time>2022-11-18T08:00:10Z</time></trkpt><trkpt lat="61.568583" lon="5.649684"><ele>164.420</ele><time>2022-11-18T08:00:50Z</time></trkpt><trkpt lat="61.567064" lon="5.636876"><ele>158.609</ele><time>2022-11-18T08:01:30Z</time></trkpt><trkpt lat="61.569498" lon="5.607651"><ele>159.088</ele><time>2022-11-18T08:02:10Z</time></trkpt><trkpt lat="61.568398" lon="5.594404"><ele>131.548</ele><time>2022-11-18T08:02:50Z</time></trkpt><trkpt lat="61.570145" lon="5.566186"><ele>71.395</ele><time>2022-11-18T08:03:30Z</time></trkpt><trkpt lat="61.569429" lon="5.558006"><ele>72.454</ele><time>2022-11-18T08:04:10Z</time></trkpt><trkpt lat="61.575521" lon="5.533488"><ele>69.629</ele><time>2022-11-18T08:04:50Z</time></trkpt><trkpt lat="61.574834" lon="5.512535"><ele>123.221</ele><time>2022-11-18T08:05:30Z</time></trkpt><trkpt lat="61.586858" lon="5.479874"><ele>70.864</ele><time>2022-11-18T08:06:10Z</time></trkpt><trkpt lat="61.588108" lon="5.462108"><ele>2.230</ele><time>2022-11-18T08:06:50Z</time></trkpt><trkpt lat="61.590060" lon="5.460570"><ele>4.121</ele><time>2022-11-18T08:07:30Z</time></trkpt><trkpt lat="61.608544" lon="5.387162"><ele>36.453</ele><time>2022-11-18T08:08:10Z</time></trkpt><trkpt lat="61.610304" lon="5.359937"><ele>10.504</ele><time>2022-11-18T08:08:50Z</time></trkpt><trkpt lat="61.613486" lon="5.341037"><ele>17.214</ele><time>2022-11-18T08:09:30Z</time></trkpt><trkpt lat="61.613539" lon="5.329740"><ele>22.809</ele><time>2022-11-18T08:10:10Z</time></trkpt><trkpt lat="61.611437" lon="5.324231"><ele>30.976</ele><time>2022-11-18T08:10:50Z</time></trkpt><trkpt lat="61.611677" lon="5.231160"><ele>11.566</ele><time>2022-11-18T08:11:30Z</time></trkpt><trkpt lat="61.609921" lon="5.223487"><ele>13.923</ele><time>2022-11-18T08:12:10Z</time></trkpt><trkpt lat="61.608429" lon="5.195608"><ele>13.112</ele><time>2022-11-18T08:12:50Z</time></trkpt><trkpt lat="61.603575" lon="5.167804"><ele>10.267</ele><time>2022-11-18T08:13:30Z</time></trkpt><trkpt lat="61.603730" lon="5.157447"><ele>7.099</ele><time>2022-11-18T08:14:10Z</time></trkpt><trkpt lat="61.601650" lon="5.151773"><ele>8.512</ele><time>2022-11-18T08:14:50Z</time></trkpt><trkpt lat="61.602771" lon="5.136537"><ele>14.598</ele><time>2022-11-18T08:15:30Z</time></trkpt><trkpt lat="61.601022" lon="5.135314"><ele>18.929</ele><time>2022-11-18T08:16:10Z</time></trkpt><trkpt lat="61.599860" lon="5.110737"><ele>11.016</ele><time>2022-11-18T08:16:50Z</time></trkpt><trkpt lat="61.595790" lon="5.091906"><ele>16.776</ele><time>2022-11-18T08:17:30Z</time></trkpt><trkpt lat="61.592316" lon="5.056380"><ele>7.413</ele><time>2022-11-18T08:18:10Z</time></trkpt><trkpt lat="61.599163" lon="5.040199"><ele>13.009</ele><time>2022-11-18T08:18:50Z</time></trkpt><trkpt lat="61.599882" lon="5.027360"><ele>8.482</ele><time>2022-11-18T08:19:30Z</time></trkpt><trkpt lat="61.601537" lon="5.027327"><ele>1.682</ele><time>2022-11-18T08:20:10Z</time></trkpt><trkpt lat="61.601616" lon="5.031058"><ele>0.019</ele><time>2022-11-18T08:20:50Z</time></trkpt><trkpt lat="61.602939" lon="5.028580"><ele>0.078</ele><time>2022-11-18T08:21:30Z</time></trkpt><trkpt lat="62.534352" lon="6.267620"><ele>1.083</ele><time>2022-11-18T08:22:10Z</time></trkpt><trkpt lat="62.532665" lon="6.269665"><ele>15.225</ele><time>2022-11-18T08:22:50Z</time></trkpt><trkpt lat="62.533264" lon="6.273309"><ele>18.978</ele><time>2022-11-18T08:23:30Z</time></trkpt><trkpt lat="62.537191" lon="6.276842"><ele>7.144</ele><time>2022-11-18T08:24:10Z</time></trkpt><trkpt lat="62.542229" lon="6.290855"><ele>12.095</ele><time>2022-11-18T08:24:50Z</time></trkpt><trkpt lat="62.544810" lon="6.288005"><ele>16.899</ele><time>2022-11-18T08:25:30Z</time></trkpt><trkpt lat="62.546983" lon="6.279731"><ele>20.107</ele><time>2022-11-18T08:26:10Z</time></trkpt><trkpt lat="62.555146" lon="6.274097"><ele>6.427</ele><time>2022-11-18T08:26:50Z</time></trkpt><trkpt lat="62.558277" lon="6.273812"><ele>14.709</ele><time>2022-11-18T08:27:30Z</time></trkpt><trkpt lat="62.561992" lon="6.279726"><ele>17.240</ele><time>2022-11-18T08:28:10Z</time></trkpt><trkpt lat="62.567746" lon="6.274661"><ele>15.710</ele><time>2022-11-18T08:28:50Z</time></trkpt><trkpt lat="62.576670" lon="6.272172"><ele>13.057</ele><time>2022-11-18T08:29:30Z</time></trkpt><trkpt lat="62.581875" lon="6.265425"><ele>10.696</ele><time>2022-11-18T08:30:10Z</time></trkpt><trkpt lat="62.585121" lon="6.266872"><ele>7.691</ele><time>2022-11-18T08:30:50Z</time></trkpt><trkpt lat="62.586291" lon="6.276914"><ele>7.773</ele><time>2022-11-18T08:31:30Z</time></trkpt><trkpt lat="62.592301" lon="6.285071"><ele>11.416</ele><time>2022-11-18T08:32:10Z</time></trkpt><trkpt lat="62.595041" lon="6.297934"><ele>11.622</ele><time>2022-11-18T08:32:50Z</time></trkpt><trkpt lat="62.597767" lon="6.301975"><ele>12.033</ele><time>2022-11-18T08:33:30Z</time></trkpt><trkpt lat="62.598653" lon="6.311013"><ele>11.469</ele><time>2022-11-18T08:34:10Z</time></trkpt><trkpt lat="62.611011" lon="6.335263"><ele>12.004</ele><time>2022-11-18T08:34:50Z</time></trkpt><trkpt lat="62.607078" lon="6.349626"><ele>11.524</ele><time>2022-11-18T08:35:30Z</time></trkpt><trkpt lat="62.603447" lon="6.384280"><ele>18.009</ele><time>2022-11-18T08:36:10Z</time></trkpt><trkpt lat="62.610251" lon="6.426957"><ele>13.657</ele><time>2022-11-18T08:36:50Z</time></trkpt><trkpt lat="62.609180" lon="6.437919"><ele>33.437</ele><time>2022-11-18T08:37:30Z</time></trkpt><trkpt lat="62.604938" lon="6.441035"><ele>5.764</ele><time>2022-11-18T08:38:10Z</time></trkpt><trkpt lat="62.606917" lon="6.442301"><ele>7.773</ele><time>2022-11-18T08:38:50Z</time></trkpt><trkpt lat="62.607696" lon="6.448198"><ele>1.918</ele><time>2022-11-18T08:39:30Z</time></trkpt><trkpt lat="62.639757" lon="6.522734"><ele>1.540</ele><time>2022-11-18T08:40:10Z</time></trkpt><trkpt lat="62.648118" lon="6.556257"><ele>6.863</ele><time>2022-11-18T08:40:50Z</time></trkpt><trkpt lat="62.653114" lon="6.561130"><ele>0.939</ele><time>2022-11-18T08:41:30Z</time></trkpt><trkpt lat="62.651946" lon="6.570843"><ele>5.080</ele><time>2022-11-18T08:42:10Z</time></trkpt><trkpt lat="62.654401" lon="6.577722"><ele>14.857</ele><time>2022-11-18T08:42:50Z</time></trkpt><trkpt lat="62.657652" lon="6.576665"><ele>17.000</ele><time>2022-11-18T08:43:30Z</time></trkpt><trkpt lat="62.661959" lon="6.590509"><ele>14.920</ele><time>2022-11-18T08:44:10Z</time></trkpt><trkpt lat="62.665929" lon="6.594923"><ele>27.209</ele><time>2022-11-18T08:44:50Z</time></trkpt><trkpt lat="62.679797" lon="6.605219"><ele>30.756</ele><time>2022-11-18T08:45:30Z</time></trkpt><trkpt lat="62.693089" lon="6.629628"><ele>40.496</ele><time>2022-11-18T08:46:10Z</time></trkpt><trkpt lat="62.691595" lon="6.633985"><ele>39.793</ele><time>2022-11-18T08:46:50Z</time></trkpt><trkpt lat="62.683213" lon="6.638815"><ele>20.362</ele><time>2022-11-18T08:47:30Z</time></trkpt><trkpt lat="62.673442" lon="6.637069"><ele>25.417</ele><time>2022-11-18T08:48:10Z</time></trkpt><trkpt lat="62.670002" lon="6.639793"><ele>23.589</ele><time>2022-11-18T08:48:50Z</time></trkpt><trkpt lat="62.670321" lon="6.653457"><ele>26.322</ele><time>2022-11-18T08:49:30Z</time></trkpt><trkpt lat="62.673939" lon="6.673787"><ele>4.318</ele><time>2022-11-18T08:50:10Z</time></trkpt><trkpt lat="62.672681" lon="6.678660"><ele>29.849</ele><time>2022-11-18T08:50:50Z</time></trkpt><trkpt lat="62.683500" lon="6.671728"><ele>36.211</ele><time>2022-11-18T08:51:30Z</time></trkpt><trkpt lat="62.691885" lon="6.680675"><ele>34.221</ele><time>2022-11-18T08:52:10Z</time></trkpt><trkpt lat="62.693047" lon="6.687820"><ele>30.903</ele><time>2022-11-18T08:52:50Z</time></trkpt><trkpt lat="62.699821" lon="6.703761"><ele>2.209</ele><time>2022-11-18T08:53:30Z</time></trkpt><trkpt lat="62.710901" lon="6.720338"><ele>12.192</ele><time>2022-11-18T08:54:10Z</time></trkpt><trkpt lat="62.711696" lon="6.734095"><ele>18.052</ele><time>2022-11-18T08:54:50Z</time></trkpt><trkpt lat="62.714999" lon="6.746956"><ele>22.099</ele><time>2022-11-18T08:55:30Z</time></trkpt><trkpt lat="62.723715" lon="6.754413"><ele>33.128</ele><time>2022-11-18T08:56:10Z</time></trkpt><trkpt lat="62.730540" lon="6.772837"><ele>33.423</ele><time>2022-11-18T08:56:50Z</time></trkpt><trkpt lat="62.732629" lon="6.830581"><ele>34.575</ele><time>2022-11-18T08:57:30Z</time></trkpt><trkpt lat="62.742451" lon="6.871656"><ele>28.318</ele><time>2022-11-18T08:58:10Z</time></trkpt><trkpt lat="62.746102" lon="6.902944"><ele>6.824</ele><time>2022-11-18T08:58:50Z</time></trkpt><trkpt lat="62.746156" lon="6.918363"><ele>46.665</ele><time>2022-11-18T08:59:30Z</time></trkpt><trkpt lat="62.742026" lon="6.922202"><ele>31.951</ele><time>2022-11-18T09:00:10Z</time></trkpt><trkpt lat="62.740773" lon="6.926887"><ele>25.201</ele><time>2022-11-18T09:00:50Z</time></trkpt><trkpt lat="62.734891" lon="6.927992"><ele>36.811</ele><time>2022-11-18T09:01:30Z</time></trkpt><trkpt lat="62.731410" lon="6.934310"><ele>50.109</ele><time>2022-11-18T09:02:10Z</time></trkpt><trkpt lat="62.725853" lon="6.932225"><ele>12.196</ele><time>2022-11-18T09:02:50Z</time></trkpt><trkpt lat="62.719415" lon="6.937515"><ele>0.886</ele><time>2022-11-18T09:03:30Z</time></trkpt><trkpt lat="62.729213" lon="6.982889"><ele>0.033</ele><time>2022-11-18T09:04:10Z</time></trkpt><trkpt lat="62.730840" lon="6.998099"><ele>20.112</ele><time>2022-11-18T09:04:50Z</time></trkpt><trkpt lat="62.729889" lon="7.012605"><ele>53.867</ele><time>2022-11-18T09:05:30Z</time></trkpt><trkpt lat="62.732544" lon="7.007899"><ele>47.449</ele><time>2022-11-18T09:06:10Z</time></trkpt><trkpt lat="62.732300" lon="6.984450"><ele>48.372</ele><time>2022-11-18T09:06:50Z</time></trkpt><trkpt lat="62.746062" lon="6.996281"><ele>42.518</ele><time>2022-11-18T09:07:30Z</time></trkpt><trkpt lat="62.752033" lon="6.994006"><ele>46.849</ele><time>2022-11-18T09:08:10Z</time></trkpt><trkpt lat="62.758258" lon="7.001002"><ele>44.358</ele><time>2022-11-18T09:08:50Z</time></trkpt><trkpt lat="62.773600" lon="6.990101"><ele>40.052</ele><time>2022-11-18T09:09:30Z</time></trkpt><trkpt lat="62.779347" lon="6.994389"><ele>47.117</ele><time>2022-11-18T09:10:10Z</time></trkpt><trkpt lat="62.786800" lon="7.013794"><ele>45.509</ele><time>2022-11-18T09:10:50Z</time></trkpt><trkpt lat="62.789990" lon="7.010666"><ele>47.026</ele><time>2022-11-18T09:11:30Z</time></trkpt><trkpt lat="62.795551" lon="6.993476"><ele>47.526</ele><time>2022-11-18T09:12:10Z</time></trkpt><trkpt lat="62.798625" lon="6.995367"><ele>52.833</ele><time>2022-11-18T09:12:50Z</time></trkpt><trkpt lat="62.801011" lon="7.003844"><ele>45.062</ele><time>2022-11-18T09:13:30Z</time></trkpt><trkpt lat="62.814222" lon="7.024941"><ele>6.857</ele><time>2022-11-18T09:14:10Z</time></trkpt><trkpt lat="62.816362" lon="7.033538"><ele>14.859</ele><time>2022-11-18T09:14:50Z</time></trkpt><trkpt lat="62.817814" lon="7.063314"><ele>20.252</ele><time>2022-11-18T09:15:30Z</time></trkpt><trkpt lat="62.814646" lon="7.083362"><ele>3.548</ele><time>2022-11-18T09:16:10Z</time></trkpt><trkpt lat="62.817926" lon="7.096763"><ele>5.569</ele><time>2022-11-18T09:16:50Z</time></trkpt><trkpt lat="62.816568" lon="7.101347"><ele>5.449</ele><time>2022-11-18T09:17:30Z</time></trkpt><trkpt lat="62.812683" lon="7.102933"><ele>12.002</ele><time>2022-11-18T09:18:10Z</time></trkpt><trkpt lat="62.817888" lon="7.148815"><ele>50.722</ele><time>2022-11-18T09:18:50Z</time></trkpt><trkpt lat="62.807909" lon="7.157233"><ele>12.009</ele><time>2022-11-18T09:19:30Z</time></trkpt><trkpt lat="62.803473" lon="7.170892"><ele>4.365</ele><time>2022-11-18T09:20:10Z</time></trkpt><trkpt lat="62.802718" lon="7.192761"><ele>10.925</ele><time>2022-11-18T09:20:50Z</time></trkpt><trkpt lat="62.806037" lon="7.219813"><ele>5.042</ele><time>2022-11-18T09:21:30Z</time></trkpt><trkpt lat="62.802734" lon="7.231433"><ele>14.691</ele><time>2022-11-18T09:22:10Z</time></trkpt><trkpt lat="62.802569" lon="7.237380"><ele>33.566</ele><time>2022-11-18T09:22:50Z</time></trkpt><trkpt lat="62.806707" lon="7.246743"><ele>35.088</ele><time>2022-11-18T09:23:30Z</time></trkpt><trkpt lat="62.812394" lon="7.246006"><ele>50.081</ele><time>2022-11-18T09:24:10Z</time></trkpt><trkpt lat="62.818976" lon="7.237088"><ele>53.697</ele><time>2022-11-18T09:24:50Z</time></trkpt><trkpt lat="62.832176" lon="7.234487"><ele>24.318</ele><time>2022-11-18T09:25:30Z</time></trkpt><trkpt lat="62.837783" lon="7.236882"><ele>36.818</ele><time>2022-11-18T09:26:10Z</time></trkpt><trkpt lat="62.849661" lon="7.219488"><ele>36.798</ele><time>2022-11-18T09:26:50Z</time></trkpt><trkpt lat="62.855714" lon="7.193036"><ele>23.717</ele><time>2022-11-18T09:27:30Z</time></trkpt><trkpt lat="62.853404" lon="7.154575"><ele>37.309</ele><time>2022-11-18T09:28:10Z</time></trkpt><trkpt lat="62.853404" lon="7.154575"><ele>37.352</ele><time>2022-11-18T09:28:50Z</time></trkpt><trkpt lat="62.854207" lon="7.135003"><ele>35.982</ele><time>2022-11-18T09:29:30Z</time></trkpt><trkpt lat="62.846720" lon="7.084303"><ele>35.039</ele><time>2022-11-18T09:30:10Z</time></trkpt><trkpt lat="62.841442" lon="7.067955"><ele>44.968</ele><time>2022-11-18T09:30:50Z</time></trkpt><trkpt lat="62.839184" lon="7.045734"><ele>29.273</ele><time>2022-11-18T09:31:30Z</time></trkpt><trkpt lat="62.840090" lon="7.040317"><ele>13.875</ele><time>2022-11-18T09:32:10Z</time></trkpt><trkpt lat="62.843605" lon="7.028196"><ele>15.598</ele><time>2022-11-18T09:32:50Z</time></trkpt><trkpt lat="62.854759" lon="7.015196"><ele>20.214</ele><time>2022-11-18T09:33:30Z</time></trkpt><trkpt lat="62.870233" lon="7.013579"><ele>40.165</ele><time>2022-11-18T09:34:10Z</time></trkpt><trkpt lat="62.873252" lon="7.010121"><ele>26.847</ele><time>2022-11-18T09:34:50Z</time></trkpt><trkpt lat="62.875827" lon="7.002801"><ele>11.929</ele><time>2022-11-18T09:35:30Z</time></trkpt><trkpt lat="62.876687" lon="6.984716"><ele>20.421</ele><time>2022-11-18T09:36:10Z</time></trkpt><trkpt lat="62.879839" lon="6.973389"><ele>8.809</ele><time>2022-11-18T09:36:50Z</time></trkpt><trkpt lat="62.884068" lon="6.970429"><ele>4.475</ele><time>2022-11-18T09:37:30Z</time></trkpt><trkpt lat="62.891178" lon="6.983294"><ele>5.685</ele><time>2022-11-18T09:38:10Z</time></trkpt><trkpt lat="62.897781" lon="6.975512"><ele>4.032</ele><time>2022-11-18T09:38:50Z</time></trkpt><trkpt lat="62.902578" lon="6.959710"><ele>10.031</ele><time>2022-11-18T09:39:30Z</time></trkpt><trkpt lat="62.907179" lon="6.914072"><ele>3.636</ele><time>2022-11-18T09:40:10Z</time></trkpt><trkpt lat="62.921909" lon="6.947100"><ele>7.028</ele><time>2022-11-18T09:40:50Z</time></trkpt><trkpt lat="62.924279" lon="6.960233"><ele>16.721</ele><time>2022-11-18T09:41:30Z</time></trkpt><trkpt lat="62.931247" lon="6.981954"><ele>6.587</ele><time>2022-11-18T09:42:10Z</time></trkpt><trkpt lat="62.936806" lon="6.995808"><ele>3.118</ele><time>2022-11-18T09:42:50Z</time></trkpt><trkpt lat="62.940541" lon="6.999478"><ele>5.554</ele><time>2022-11-18T09:43:30Z</time></trkpt><trkpt lat="62.946583" lon="7.019935"><ele>4.356</ele><time>2022-11-18T09:44:10Z</time></trkpt><trkpt lat="62.948647" lon="7.033477"><ele>3.711</ele><time>2022-11-18T09:44:50Z</time></trkpt><trkpt lat="62.956363" lon="7.041355"><ele>2.109</ele><time>2022-11-18T09:45:30Z</time></trkpt><trkpt lat="62.963637" lon="7.055587"><ele>9.946</ele><time>2022-11-18T09:46:10Z</time></trkpt><trkpt lat="62.966310" lon="7.069015"><ele>7.336</ele><time>2022-11-18T09:46:50Z</time></trkpt><trkpt lat="62.965165" lon="7.078118"><ele>8.323</ele><time>2022-11-18T09:47:30Z</time></trkpt><trkpt lat="62.953972" lon="7.093948"><ele>12.372</ele><time>2022-11-18T09:48:10Z</time></trkpt><trkpt lat="62.958215" lon="7.111886"><ele>14.987</ele><time>2022-11-18T09:48:50Z</time></trkpt><trkpt lat="62.959243" lon="7.113391"><ele>18.289</ele><time>2022-11-18T09:49:30Z</time></trkpt><trkpt lat="62.964180" lon="7.100917"><ele>9.092</ele><time>2022-11-18T09:50:10Z</time></trkpt><trkpt lat="62.966836" lon="7.105867"><ele>15.058</ele><time>2022-11-18T09:50:50Z</time></trkpt><trkpt lat="62.974204" lon="7.109596"><ele>18.959</ele><time>2022-11-18T09:51:30Z</time></trkpt><trkpt lat="62.979504" lon="7.119549"><ele>3.675</ele><time>2022-11-18T09:52:10Z</time></trkpt><trkpt lat="62.978960" lon="7.143017"><ele>11.328</ele><time>2022-11-18T09:52:50Z</time></trkpt><trkpt lat="62.973929" lon="7.161287"><ele>11.620</ele><time>2022-11-18T09:53:30Z</time></trkpt><trkpt lat="62.982528" lon="7.159917"><ele>18.609</ele><time>2022-11-18T09:54:10Z</time></trkpt><trkpt lat="62.987234" lon="7.164565"><ele>16.068</ele><time>2022-11-18T09:54:50Z</time></trkpt><trkpt lat="62.989731" lon="7.171131"><ele>18.098</ele><time>2022-11-18T09:55:30Z</time></trkpt><trkpt lat="62.991438" lon="7.193643"><ele>18.885</ele><time>2022-11-18T09:56:10Z</time></trkpt><trkpt lat="62.988390" lon="7.210544"><ele>18.094</ele><time>2022-11-18T09:56:50Z</time></trkpt><trkpt lat="62.991816" lon="7.219299"><ele>11.729</ele><time>2022-11-18T09:57:30Z</time></trkpt><trkpt lat="62.997761" lon="7.225082"><ele>9.191</ele><time>2022-11-18T09:58:10Z</time></trkpt><trkpt lat="63.005889" lon="7.280743"><ele>9.434</ele><time>2022-11-18T09:58:50Z</time></trkpt><trkpt lat="63.005975" lon="7.293440"><ele>8.880</ele><time>2022-11-18T09:59:30Z</time></trkpt><trkpt lat="63.016736" lon="7.345815"><ele>1.431</ele><time>2022-11-18T10:00:10Z</time></trkpt><trkpt lat="63.018297" lon="7.365348"><ele>6.923</ele><time>2022-11-18T10:00:50Z</time></trkpt><trkpt lat="63.022190" lon="7.376637"><ele>4.083</ele><time>2022-11-18T10:01:30Z</time></trkpt><trkpt lat="63.014051" lon="7.400019"><ele>1.011</ele><time>2022-11-18T10:02:10Z</time></trkpt><trkpt lat="63.014045" lon="7.411814"><ele>1.109</ele><time>2022-11-18T10:02:50Z</time></trkpt><trkpt lat="63.012257" lon="7.421723"><ele>1.883</ele><time>2022-11-18T10:03:30Z</time></trkpt><trkpt lat="63.012257" lon="7.421723"><ele>1.863</ele><time>2022-11-18T10:04:10Z</time></trkpt><trkpt lat="63.009192" lon="7.431259"><ele>11.560</ele><time>2022-11-18T10:04:50Z</time></trkpt><trkpt lat="63.003516" lon="7.419761"><ele>27.259</ele><time>2022-11-18T10:05:30Z</time></trkpt><trkpt lat="62.999068" lon="7.400540"><ele>22.094</ele><time>2022-11-18T10:06:10Z</time></trkpt><trkpt lat="62.993234" lon="7.393600"><ele>35.746</ele><time>2022-11-18T10:06:50Z</time></trkpt><trkpt lat="62.992562" lon="7.382869"><ele>17.899</ele><time>2022-11-18T10:07:30Z</time></trkpt><trkpt lat="62.988120" lon="7.369317"><ele>36.825</ele><time>2022-11-18T10:08:10Z</time></trkpt><trkpt lat="62.980915" lon="7.365268"><ele>52.086</ele><time>2022-11-18T10:08:50Z</time></trkpt><trkpt lat="62.976423" lon="7.368483"><ele>52.895</ele><time>2022-11-18T10:09:30Z</time></trkpt><trkpt lat="62.974272" lon="7.382320"><ele>58.249</ele><time>2022-11-18T10:10:10Z</time></trkpt><trkpt lat="62.971959" lon="7.431581"><ele>60.823</ele><time>2022-11-18T10:10:50Z</time></trkpt><trkpt lat="62.963546" lon="7.457415"><ele>44.209</ele><time>2022-11-18T10:11:30Z</time></trkpt><trkpt lat="62.957362" lon="7.486109"><ele>18.030</ele><time>2022-11-18T10:12:10Z</time></trkpt><trkpt lat="62.955720" lon="7.530299"><ele>39.250</ele><time>2022-11-18T10:12:50Z</time></trkpt><trkpt lat="62.953109" lon="7.551594"><ele>48.227</ele><time>2022-11-18T10:13:30Z</time></trkpt><trkpt lat="62.956805" lon="7.568784"><ele>47.536</ele><time>2022-11-18T10:14:10Z</time></trkpt><trkpt lat="62.957995" lon="7.586790"><ele>10.321</ele><time>2022-11-18T10:14:50Z</time></trkpt><trkpt lat="62.963634" lon="7.600048"><ele>20.173</ele><time>2022-11-18T10:15:30Z</time></trkpt><trkpt lat="62.967557" lon="7.618841"><ele>22.276</ele><time>2022-11-18T10:16:10Z</time></trkpt><trkpt lat="62.975863" lon="7.637878"><ele>32.082</ele><time>2022-11-18T10:16:50Z</time></trkpt><trkpt lat="62.986831" lon="7.688518"><ele>15.143</ele><time>2022-11-18T10:17:30Z</time></trkpt><trkpt lat="62.993549" lon="7.708316"><ele>3.481</ele><time>2022-11-18T10:18:10Z</time></trkpt><trkpt lat="63.004988" lon="7.722837"><ele>38.461</ele><time>2022-11-18T10:18:50Z</time></trkpt><trkpt lat="63.007745" lon="7.712478"><ele>10.117</ele><time>2022-11-18T10:19:30Z</time></trkpt><trkpt lat="63.012174" lon="7.709843"><ele>11.309</ele><time>2022-11-18T10:20:10Z</time></trkpt><trkpt lat="63.015511" lon="7.702590"><ele>21.329</ele><time>2022-11-18T10:20:50Z</time></trkpt><trkpt lat="63.015294" lon="7.682500"><ele>51.539</ele><time>2022-11-18T10:21:30Z</time></trkpt><trkpt lat="63.021234" lon="7.676470"><ele>63.046</ele><time>2022-11-18T10:22:10Z</time></trkpt><trkpt lat="63.023291" lon="7.669069"><ele>50.655</ele><time>2022-11-18T10:22:50Z</time></trkpt><trkpt lat="63.026232" lon="7.666181"><ele>39.830</ele><time>2022-11-18T10:23:30Z</time></trkpt><trkpt lat="63.030459" lon="7.670443"><ele>48.292</ele><time>2022-11-18T10:24:10Z</time></trkpt><trkpt lat="63.038812" lon="7.671016"><ele>39.215</ele><time>2022-11-18T10:24:50Z</time></trkpt><trkpt lat="63.045229" lon="7.666358"><ele>64.431</ele><time>2022-11-18T10:25:30Z</time></trkpt><trkpt lat="63.045101" lon="7.639429"><ele>38.932</ele><time>2022-11-18T10:26:10Z</time></trkpt><trkpt lat="63.050897" lon="7.630102"><ele>4.868</ele><time>2022-11-18T10:26:50Z</time></trkpt><trkpt lat="63.052600" lon="7.634305"><ele>3.542</ele><time>2022-11-18T10:27:30Z</time></trkpt><trkpt lat="63.053988" lon="7.631638"><ele>16.526</ele><time>2022-11-18T10:28:10Z</time></trkpt><trkpt lat="63.062484" lon="7.642685"><ele>41.109</ele><time>2022-11-18T10:28:50Z</time></trkpt><trkpt lat="63.069485" lon="7.646217"><ele>26.747</ele><time>2022-11-18T10:29:30Z</time></trkpt><trkpt lat="63.072424" lon="7.644231"><ele>19.667</ele><time>2022-11-18T10:30:10Z</time></trkpt><trkpt lat="63.078346" lon="7.657264"><ele>24.864</ele><time>2022-11-18T10:30:50Z</time></trkpt><trkpt lat="63.083184" lon="7.661901"><ele>27.293</ele><time>2022-11-18T10:31:30Z</time></trkpt><trkpt lat="63.085856" lon="7.659350"><ele>38.028</ele><time>2022-11-18T10:32:10Z</time></trkpt><trkpt lat="63.090184" lon="7.638355"><ele>28.690</ele><time>2022-11-18T10:32:50Z</time></trkpt><trkpt lat="63.097100" lon="7.628564"><ele>16.693</ele><time>2022-11-18T10:33:30Z</time></trkpt><trkpt lat="63.103041" lon="7.627287"><ele>28.039</ele><time>2022-11-18T10:34:10Z</time></trkpt><trkpt lat="63.108345" lon="7.632254"><ele>20.080</ele><time>2022-11-18T10:34:50Z</time></trkpt><trkpt lat="63.123060" lon="7.657852"><ele>0.021</ele><time>2022-11-18T10:35:30Z</time></trkpt><trkpt lat="63.126622" lon="7.668606"><ele>0.041</ele><time>2022-11-18T10:36:10Z</time></trkpt><trkpt lat="63.129378" lon="7.700460"><ele>1.905</ele><time>2022-11-18T10:36:50Z</time></trkpt><trkpt lat="63.120934" lon="7.745648"><ele>45.509</ele><time>2022-11-18T10:37:30Z</time></trkpt><trkpt lat="63.113121" lon="7.754741"><ele>29.263</ele><time>2022-11-18T10:38:10Z</time></trkpt><trkpt lat="63.114153" lon="7.765081"><ele>5.283</ele><time>2022-11-18T10:38:50Z</time></trkpt><trkpt lat="63.107674" lon="7.772079"><ele>4.610</ele><time>2022-11-18T10:39:30Z</time></trkpt><trkpt lat="63.108391" lon="7.819274"><ele>22.949</ele><time>2022-11-18T10:40:10Z</time></trkpt><trkpt lat="63.107106" lon="7.828161"><ele>36.484</ele><time>2022-11-18T10:40:50Z</time></trkpt><trkpt lat="63.111829" lon="7.870283"><ele>1.186</ele><time>2022-11-18T10:41:30Z</time></trkpt><trkpt lat="63.153099" lon="7.954850"><ele>0.619</ele><time>2022-11-18T10:42:10Z</time></trkpt><trkpt lat="63.156027" lon="7.956368"><ele>8.875</ele><time>2022-11-18T10:42:50Z</time></trkpt><trkpt lat="63.165182" lon="7.945757"><ele>30.866</ele><time>2022-11-18T10:43:30Z</time></trkpt><trkpt lat="63.167868" lon="7.936881"><ele>32.447</ele><time>2022-11-18T10:44:10Z</time></trkpt><trkpt lat="63.173102" lon="7.935083"><ele>20.129</ele><time>2022-11-18T10:44:50Z</time></trkpt><trkpt lat="63.175410" lon="7.937530"><ele>28.021</ele><time>2022-11-18T10:45:30Z</time></trkpt><trkpt lat="63.186009" lon="7.966443"><ele>42.309</ele><time>2022-11-18T10:46:10Z</time></trkpt><trkpt lat="63.187355" lon="7.977510"><ele>47.635</ele><time>2022-11-18T10:46:50Z</time></trkpt><trkpt lat="63.194587" lon="7.991012"><ele>20.865</ele><time>2022-11-18T10:47:30Z</time></trkpt><trkpt lat="63.203055" lon="8.032910"><ele>17.082</ele><time>2022-11-18T10:48:10Z</time></trkpt><trkpt lat="63.211521" lon="8.055460"><ele>45.051</ele><time>2022-11-18T10:48:50Z</time></trkpt><trkpt lat="63.218301" lon="8.089788"><ele>52.786</ele><time>2022-11-18T10:49:30Z</time></trkpt><trkpt lat="63.225399" lon="8.112833"><ele>39.638</ele><time>2022-11-18T10:50:10Z</time></trkpt><trkpt lat="63.224884" lon="8.130123"><ele>30.111</ele><time>2022-11-18T10:50:50Z</time></trkpt><trkpt lat="63.219292" lon="8.134253"><ele>54.747</ele><time>2022-11-18T10:51:30Z</time></trkpt><trkpt lat="63.218723" lon="8.140674"><ele>51.328</ele><time>2022-11-18T10:52:10Z</time></trkpt><trkpt lat="63.213267" lon="8.138395"><ele>50.225</ele><time>2022-11-18T10:52:50Z</time></trkpt><trkpt lat="63.206943" lon="8.147174"><ele>23.226</ele><time>2022-11-18T10:53:30Z</time></trkpt><trkpt lat="63.206181" lon="8.155069"><ele>9.808</ele><time>2022-11-18T10:54:10Z</time></trkpt><trkpt lat="63.221159" lon="8.212149"><ele>37.709</ele><time>2022-11-18T10:54:50Z</time></trkpt><trkpt lat="63.224482" lon="8.214596"><ele>14.783</ele><time>2022-11-18T10:55:30Z</time></trkpt><trkpt lat="63.226654" lon="8.220269"><ele>11.143</ele><time>2022-11-18T10:56:10Z</time></trkpt><trkpt lat="63.227925" lon="8.231765"><ele>2.080</ele><time>2022-11-18T10:56:50Z</time></trkpt><trkpt lat="63.226933" lon="8.242621"><ele>8.319</ele><time>2022-11-18T10:57:30Z</time></trkpt><trkpt lat="63.231862" lon="8.263668"><ele>51.124</ele><time>2022-11-18T10:58:10Z</time></trkpt><trkpt lat="63.245081" lon="8.288715"><ele>3.846</ele><time>2022-11-18T10:58:50Z</time></trkpt><trkpt lat="63.250234" lon="8.312491"><ele>30.099</ele><time>2022-11-18T10:59:30Z</time></trkpt><trkpt lat="63.253842" lon="8.321984"><ele>27.865</ele><time>2022-11-18T11:00:10Z</time></trkpt><trkpt lat="63.253238" lon="8.329559"><ele>12.326</ele><time>2022-11-18T11:00:50Z</time></trkpt><trkpt lat="63.256654" lon="8.344687"><ele>22.077</ele><time>2022-11-18T11:01:30Z</time></trkpt><trkpt lat="63.257510" lon="8.368477"><ele>23.861</ele><time>2022-11-18T11:02:10Z</time></trkpt><trkpt lat="63.260702" lon="8.380189"><ele>26.727</ele><time>2022-11-18T11:02:50Z</time></trkpt><trkpt lat="63.259637" lon="8.394956"><ele>11.309</ele><time>2022-11-18T11:03:30Z</time></trkpt><trkpt lat="63.264499" lon="8.437015"><ele>90.298</ele><time>2022-11-18T11:04:10Z</time></trkpt><trkpt lat="63.264033" lon="8.445911"><ele>90.318</ele><time>2022-11-18T11:04:50Z</time></trkpt><trkpt lat="63.259742" lon="8.463651"><ele>90.825</ele><time>2022-11-18T11:05:30Z</time></trkpt><trkpt lat="63.256965" lon="8.466036"><ele>94.934</ele><time>2022-11-18T11:06:10Z</time></trkpt><trkpt lat="63.254672" lon="8.474479"><ele>64.289</ele><time>2022-11-18T11:06:50Z</time></trkpt><trkpt lat="63.249970" lon="8.478677"><ele>27.031</ele><time>2022-11-18T11:07:30Z</time></trkpt><trkpt lat="63.250779" lon="8.487029"><ele>29.384</ele><time>2022-11-18T11:08:10Z</time></trkpt><trkpt lat="63.256348" lon="8.498445"><ele>13.290</ele><time>2022-11-18T11:08:50Z</time></trkpt><trkpt lat="63.263074" lon="8.498760"><ele>17.071</ele><time>2022-11-18T11:09:30Z</time></trkpt><trkpt lat="63.266771" lon="8.495540"><ele>16.867</ele><time>2022-11-18T11:10:10Z</time></trkpt><trkpt lat="63.275047" lon="8.501242"><ele>0.081</ele><time>2022-11-18T11:10:50Z</time></trkpt><trkpt lat="63.280238" lon="8.521109"><ele>32.019</ele><time>2022-11-18T11:11:30Z</time></trkpt><trkpt lat="63.279172" lon="8.530964"><ele>64.009</ele><time>2022-11-18T11:12:10Z</time></trkpt><trkpt lat="63.279172" lon="8.530964"><ele>64.057</ele><time>2022-11-18T11:12:50Z</time></trkpt><trkpt lat="63.284756" lon="8.541349"><ele>16.557</ele><time>2022-11-18T11:13:30Z</time></trkpt><trkpt lat="63.296710" lon="8.534012"><ele>13.924</ele><time>2022-11-18T11:14:10Z</time></trkpt><trkpt lat="63.300501" lon="8.536978"><ele>12.743</ele><time>2022-11-18T11:14:50Z</time></trkpt><trkpt lat="63.305852" lon="8.556920"><ele>44.948</ele><time>2022-11-18T11:15:30Z</time></trkpt><trkpt lat="63.308031" lon="8.585928"><ele>43.090</ele><time>2022-11-18T11:16:10Z</time></trkpt><trkpt lat="63.310955" lon="8.601433"><ele>25.913</ele><time>2022-11-18T11:16:50Z</time></trkpt><trkpt lat="63.313862" lon="8.606337"><ele>11.989</ele><time>2022-11-18T11:17:30Z</time></trkpt><trkpt lat="63.318609" lon="8.603086"><ele>27.960</ele><time>2022-11-18T11:18:10Z</time></trkpt><trkpt lat="63.320578" lon="8.616301"><ele>11.618</ele><time>2022-11-18T11:18:50Z</time></trkpt><trkpt lat="63.323448" lon="8.622071"><ele>5.398</ele><time>2022-11-18T11:19:30Z</time></trkpt><trkpt lat="63.333861" lon="8.694088"><ele>11.217</ele><time>2022-11-18T11:20:10Z</time></trkpt><trkpt lat="63.338653" lon="8.691709"><ele>32.709</ele><time>2022-11-18T11:20:50Z</time></trkpt><trkpt lat="63.340810" lon="8.686933"><ele>26.392</ele><time>2022-11-18T11:21:30Z</time></trkpt><trkpt lat="63.345258" lon="8.689241"><ele>22.642</ele><time>2022-11-18T11:22:10Z</time></trkpt><trkpt lat="63.348534" lon="8.684149"><ele>21.019</ele><time>2022-11-18T11:22:50Z</time></trkpt><trkpt lat="63.352952" lon="8.683996"><ele>19.518</ele><time>2022-11-18T11:23:30Z</time></trkpt><trkpt lat="63.356985" lon="8.686179"><ele>17.683</ele><time>2022-11-18T11:24:10Z</time></trkpt><trkpt lat="63.358201" lon="8.695025"><ele>5.595</ele><time>2022-11-18T11:24:50Z</time></trkpt><trkpt lat="63.361912" lon="8.704231"><ele>3.878</ele><time>2022-11-18T11:25:30Z</time></trkpt><trkpt lat="63.370177" lon="8.692806"><ele>34.984</ele><time>2022-11-18T11:26:10Z</time></trkpt><trkpt lat="63.374133" lon="8.698739"><ele>70.615</ele><time>2022-11-18T11:26:50Z</time></trkpt><trkpt lat="63.386023" lon="8.698702"><ele>70.471</ele><time>2022-11-18T11:27:30Z</time></trkpt><trkpt lat="63.389165" lon="8.692145"><ele>75.041</ele><time>2022-11-18T11:28:10Z</time></trkpt><trkpt lat="63.392465" lon="8.690955"><ele>80.515</ele><time>2022-11-18T11:28:50Z</time></trkpt><trkpt lat="63.400927" lon="8.708885"><ele>70.009</ele><time>2022-11-18T11:29:30Z</time></trkpt><trkpt lat="63.411009" lon="8.717361"><ele>20.658</ele><time>2022-11-18T11:30:10Z</time></trkpt><trkpt lat="63.411915" lon="8.721832"><ele>12.358</ele><time>2022-11-18T11:30:50Z</time></trkpt><trkpt lat="63.410934" lon="8.728793"><ele>5.985</ele><time>2022-11-18T11:31:30Z</time></trkpt><trkpt lat="63.412726" lon="8.740109"><ele>22.454</ele><time>2022-11-18T11:32:10Z</time></trkpt><trkpt lat="63.419044" lon="8.753739"><ele>60.019</ele><time>2022-11-18T11:32:50Z</time></trkpt><trkpt lat="63.422059" lon="8.769393"><ele>59.481</ele><time>2022-11-18T11:33:30Z</time></trkpt><trkpt lat="63.423223" lon="8.792039"><ele>5.174</ele><time>2022-11-18T11:34:10Z</time></trkpt><trkpt lat="63.428148" lon="8.818108"><ele>11.770</ele><time>2022-11-18T11:34:50Z</time></trkpt><trkpt lat="63.424252" lon="8.855928"><ele>12.141</ele><time>2022-11-18T11:35:30Z</time></trkpt><trkpt lat="63.425833" lon="8.865305"><ele>25.155</ele><time>2022-11-18T11:36:10Z</time></trkpt><trkpt lat="63.422882" lon="8.868059"><ele>37.007</ele><time>2022-11-18T11:36:50Z</time></trkpt><trkpt lat="63.422232" lon="8.876928"><ele>25.017</ele><time>2022-11-18T11:37:30Z</time></trkpt><trkpt lat="63.416406" lon="8.878288"><ele>19.909</ele><time>2022-11-18T11:38:10Z</time></trkpt><trkpt lat="63.412298" lon="8.870945"><ele>27.656</ele><time>2022-11-18T11:38:50Z</time></trkpt><trkpt lat="63.407170" lon="8.870352"><ele>22.926</ele><time>2022-11-18T11:39:30Z</time></trkpt><trkpt lat="63.399674" lon="8.882114"><ele>31.033</ele><time>2022-11-18T11:40:10Z</time></trkpt><trkpt lat="63.393991" lon="8.883574"><ele>23.812</ele><time>2022-11-18T11:40:50Z</time></trkpt><trkpt lat="63.388746" lon="8.891424"><ele>19.297</ele><time>2022-11-18T11:41:30Z</time></trkpt><trkpt lat="63.383225" lon="8.906667"><ele>86.049</ele><time>2022-11-18T11:42:10Z</time></trkpt><trkpt lat="63.383533" lon="8.911178"><ele>90.022</ele><time>2022-11-18T11:42:50Z</time></trkpt><trkpt lat="63.386262" lon="8.912224"><ele>97.468</ele><time>2022-11-18T11:43:30Z</time></trkpt><trkpt lat="63.388065" lon="8.921532"><ele>88.269</ele><time>2022-11-18T11:44:10Z</time></trkpt><trkpt lat="63.382926" lon="8.931247"><ele>74.867</ele><time>2022-11-18T11:44:50Z</time></trkpt><trkpt lat="63.380382" lon="8.932338"><ele>59.181</ele><time>2022-11-18T11:45:30Z</time></trkpt><trkpt lat="63.378983" lon="8.937632"><ele>46.419</ele><time>2022-11-18T11:46:10Z</time></trkpt><trkpt lat="63.390074" lon="8.980308"><ele>38.909</ele><time>2022-11-18T11:46:50Z</time></trkpt><trkpt lat="63.385621" lon="8.995634"><ele>45.057</ele><time>2022-11-18T11:47:30Z</time></trkpt><trkpt lat="63.382104" lon="9.001319"><ele>50.077</ele><time>2022-11-18T11:48:10Z</time></trkpt><trkpt lat="63.374923" lon="8.999816"><ele>50.544</ele><time>2022-11-18T11:48:50Z</time></trkpt><trkpt lat="63.367153" lon="9.004171"><ele>53.073</ele><time>2022-11-18T11:49:30Z</time></trkpt><trkpt lat="63.363732" lon="9.007674"><ele>49.798</ele><time>2022-11-18T11:50:10Z</time></trkpt><trkpt lat="63.363019" lon="9.012827"><ele>53.040</ele><time>2022-11-18T11:50:50Z</time></trkpt><trkpt lat="63.358565" lon="9.019622"><ele>76.123</ele><time>2022-11-18T11:51:30Z</time></trkpt><trkpt lat="63.345377" lon="8.999723"><ele>104.779</ele><time>2022-11-18T11:52:10Z</time></trkpt><trkpt lat="63.340776" lon="8.997262"><ele>107.790</ele><time>2022-11-18T11:52:50Z</time></trkpt><trkpt lat="63.331046" lon="9.009473"><ele>120.366</ele><time>2022-11-18T11:53:30Z</time></trkpt><trkpt lat="63.324518" lon="9.007460"><ele>135.829</ele><time>2022-11-18T11:54:10Z</time></trkpt><trkpt lat="63.301875" lon="9.032690"><ele>142.821</ele><time>2022-11-18T11:54:50Z</time></trkpt><trkpt lat="63.298695" lon="9.042480"><ele>119.909</ele><time>2022-11-18T11:55:30Z</time></trkpt><trkpt lat="63.298825" lon="9.050907"><ele>95.997</ele><time>2022-11-18T11:56:10Z</time></trkpt><trkpt lat="63.292589" lon="9.084192"><ele>13.967</ele><time>2022-11-18T11:56:50Z</time></trkpt><trkpt lat="63.292589" lon="9.084192"><ele>13.994</ele><time>2022-11-18T11:57:30Z</time></trkpt><trkpt lat="63.286751" lon="9.092502"><ele>6.773</ele><time>2022-11-18T11:58:10Z</time></trkpt><trkpt lat="63.287043" lon="9.101563"><ele>5.748</ele><time>2022-11-18T11:58:50Z</time></trkpt><trkpt lat="63.296777" lon="9.124473"><ele>14.310</ele><time>2022-11-18T11:59:30Z</time></trkpt><trkpt lat="63.302454" lon="9.132564"><ele>6.183</ele><time>2022-11-18T12:00:10Z</time></trkpt><trkpt lat="63.309418" lon="9.131465"><ele>11.299</ele><time>2022-11-18T12:00:50Z</time></trkpt><trkpt lat="63.312746" lon="9.144613"><ele>40.140</ele><time>2022-11-18T12:01:30Z</time></trkpt><trkpt lat="63.317594" lon="9.150299"><ele>10.015</ele><time>2022-11-18T12:02:10Z</time></trkpt><trkpt lat="63.321686" lon="9.171338"><ele>6.765</ele><time>2022-11-18T12:02:50Z</time></trkpt><trkpt lat="63.327043" lon="9.185629"><ele>47.711</ele><time>2022-11-18T12:03:30Z</time></trkpt><trkpt lat="63.332088" lon="9.191001"><ele>37.809</ele><time>2022-11-18T12:04:10Z</time></trkpt><trkpt lat="63.332592" lon="9.201039"><ele>42.672</ele><time>2022-11-18T12:04:50Z</time></trkpt><trkpt lat="63.336402" lon="9.207838"><ele>58.162</ele><time>2022-11-18T12:05:30Z</time></trkpt><trkpt lat="63.337100" lon="9.221655"><ele>26.779</ele><time>2022-11-18T12:06:10Z</time></trkpt><trkpt lat="63.331242" lon="9.231306"><ele>3.638</ele><time>2022-11-18T12:06:50Z</time></trkpt><trkpt lat="63.331961" lon="9.238318"><ele>4.743</ele><time>2022-11-18T12:07:30Z</time></trkpt><trkpt lat="63.339223" lon="9.246273"><ele>48.415</ele><time>2022-11-18T12:08:10Z</time></trkpt><trkpt lat="63.343564" lon="9.242462"><ele>69.158</ele><time>2022-11-18T12:08:50Z</time></trkpt><trkpt lat="63.345801" lon="9.245131"><ele>79.524</ele><time>2022-11-18T12:09:30Z</time></trkpt><trkpt lat="63.348758" lon="9.251928"><ele>39.715</ele><time>2022-11-18T12:10:10Z</time></trkpt><trkpt lat="63.346309" lon="9.261112"><ele>2.985</ele><time>2022-11-18T12:10:50Z</time></trkpt><trkpt lat="63.349707" lon="9.272069"><ele>4.789</ele><time>2022-11-18T12:11:30Z</time></trkpt><trkpt lat="63.352764" lon="9.275598"><ele>5.117</ele><time>2022-11-18T12:12:10Z</time></trkpt><trkpt lat="63.353360" lon="9.283781"><ele>4.409</ele><time>2022-11-18T12:12:50Z</time></trkpt><trkpt lat="63.356963" lon="9.285952"><ele>18.329</ele><time>2022-11-18T12:13:30Z</time></trkpt><trkpt lat="63.354406" lon="9.293879"><ele>22.419</ele><time>2022-11-18T12:14:10Z</time></trkpt><trkpt lat="63.357439" lon="9.308757"><ele>33.316</ele><time>2022-11-18T12:14:50Z</time></trkpt><trkpt lat="63.355789" lon="9.313367"><ele>37.085</ele><time>2022-11-18T12:15:30Z</time></trkpt><trkpt lat="63.357394" lon="9.324612"><ele>40.910</ele><time>2022-11-18T12:16:10Z</time></trkpt><trkpt lat="63.355648" lon="9.344565"><ele>62.672</ele><time>2022-11-18T12:16:50Z</time></trkpt><trkpt lat="63.356522" lon="9.354525"><ele>102.135</ele><time>2022-11-18T12:17:30Z</time></trkpt><trkpt lat="63.354028" lon="9.359049"><ele>129.231</ele><time>2022-11-18T12:18:10Z</time></trkpt><trkpt lat="63.356181" lon="9.361934"><ele>143.272</ele><time>2022-11-18T12:18:50Z</time></trkpt><trkpt lat="63.356765" lon="9.372257"><ele>119.772</ele><time>2022-11-18T12:19:30Z</time></trkpt><trkpt lat="63.355272" lon="9.391078"><ele>98.113</ele><time>2022-11-18T12:20:10Z</time></trkpt><trkpt lat="63.347998" lon="9.403875"><ele>122.914</ele><time>2022-11-18T12:20:50Z</time></trkpt><trkpt lat="63.340128" lon="9.424230"><ele>154.109</ele><time>2022-11-18T12:21:30Z</time></trkpt><trkpt lat="63.326345" lon="9.435410"><ele>185.438</ele><time>2022-11-18T12:22:10Z</time></trkpt><trkpt lat="63.316002" lon="9.432919"><ele>207.718</ele><time>2022-11-18T12:22:50Z</time></trkpt><trkpt lat="63.313799" lon="9.437199"><ele>228.725</ele><time>2022-11-18T12:23:30Z</time></trkpt><trkpt lat="63.309507" lon="9.433334"><ele>272.974</ele><time>2022-11-18T12:24:10Z</time></trkpt><trkpt lat="63.306601" lon="9.447979"><ele>323.529</ele><time>2022-11-18T12:24:50Z</time></trkpt><trkpt lat="63.308879" lon="9.471725"><ele>400.051</ele><time>2022-11-18T12:25:30Z</time></trkpt><trkpt lat="63.312481" lon="9.489386"><ele>407.954</ele><time>2022-11-18T12:26:10Z</time></trkpt><trkpt lat="63.315737" lon="9.517533"><ele>366.980</ele><time>2022-11-18T12:26:50Z</time></trkpt><trkpt lat="63.321451" lon="9.528750"><ele>304.541</ele><time>2022-11-18T12:27:30Z</time></trkpt><trkpt lat="63.318487" lon="9.535250"><ele>306.345</ele><time>2022-11-18T12:28:10Z</time></trkpt><trkpt lat="63.315458" lon="9.554148"><ele>306.547</ele><time>2022-11-18T12:28:50Z</time></trkpt><trkpt lat="63.311269" lon="9.559046"><ele>306.511</ele><time>2022-11-18T12:29:30Z</time></trkpt><trkpt lat="63.304536" lon="9.586698"><ele>285.609</ele><time>2022-11-18T12:30:10Z</time></trkpt><trkpt lat="63.289532" lon="9.610157"><ele>223.955</ele><time>2022-11-18T12:30:50Z</time></trkpt><trkpt lat="63.288043" lon="9.627919"><ele>184.625</ele><time>2022-11-18T12:31:30Z</time></trkpt><trkpt lat="63.283126" lon="9.647513"><ele>160.092</ele><time>2022-11-18T12:32:10Z</time></trkpt><trkpt lat="63.277476" lon="9.639530"><ele>191.451</ele><time>2022-11-18T12:32:50Z</time></trkpt><trkpt lat="63.276338" lon="9.643852"><ele>196.256</ele><time>2022-11-18T12:33:30Z</time></trkpt><trkpt lat="63.277308" lon="9.652134"><ele>189.158</ele><time>2022-11-18T12:34:10Z</time></trkpt><trkpt lat="63.282274" lon="9.666918"><ele>178.441</ele><time>2022-11-18T12:34:50Z</time></trkpt><trkpt lat="63.287017" lon="9.695630"><ele>160.557</ele><time>2022-11-18T12:35:30Z</time></trkpt><trkpt lat="63.285165" lon="9.707762"><ele>204.018</ele><time>2022-11-18T12:36:10Z</time></trkpt><trkpt lat="63.277124" lon="9.716301"><ele>183.633</ele><time>2022-11-18T12:36:50Z</time></trkpt><trkpt lat="63.275480" lon="9.721905"><ele>169.223</ele><time>2022-11-18T12:37:30Z</time></trkpt><trkpt lat="63.276227" lon="9.735785"><ele>150.815</ele><time>2022-11-18T12:38:10Z</time></trkpt><trkpt lat="63.278157" lon="9.740948"><ele>154.109</ele><time>2022-11-18T12:38:50Z</time></trkpt><trkpt lat="63.277085" lon="9.756134"><ele>148.624</ele><time>2022-11-18T12:39:30Z</time></trkpt><trkpt lat="63.277950" lon="9.767059"><ele>153.324</ele><time>2022-11-18T12:40:10Z</time></trkpt><trkpt lat="63.282798" lon="9.786869"><ele>137.411</ele><time>2022-11-18T12:40:50Z</time></trkpt><trkpt lat="63.281026" lon="9.794169"><ele>101.360</ele><time>2022-11-18T12:41:30Z</time></trkpt><trkpt lat="63.280396" lon="9.809195"><ele>14.615</ele><time>2022-11-18T12:42:10Z</time></trkpt><trkpt lat="63.286635" lon="9.814001"><ele>6.527</ele><time>2022-11-18T12:42:50Z</time></trkpt><trkpt lat="63.292215" lon="9.827660"><ele>5.460</ele><time>2022-11-18T12:43:30Z</time></trkpt><trkpt lat="63.297840" lon="9.828222"><ele>3.066</ele><time>2022-11-18T12:44:10Z</time></trkpt><trkpt lat="63.296880" lon="9.846995"><ele>10.437</ele><time>2022-11-18T12:44:50Z</time></trkpt><trkpt lat="63.306227" lon="9.849915"><ele>11.086</ele><time>2022-11-18T12:45:30Z</time></trkpt><trkpt lat="63.309332" lon="9.856571"><ele>18.760</ele><time>2022-11-18T12:46:10Z</time></trkpt><trkpt lat="63.309332" lon="9.856571"><ele>18.726</ele><time>2022-11-18T12:46:50Z</time></trkpt><trkpt lat="63.326413" lon="9.898204"><ele>30.409</ele><time>2022-11-18T12:47:30Z</time></trkpt><trkpt lat="63.336666" lon="9.936694"><ele>12.299</ele><time>2022-11-18T12:48:10Z</time></trkpt><trkpt lat="63.348698" lon="9.969808"><ele>15.159</ele><time>2022-11-18T12:48:50Z</time></trkpt><trkpt lat="63.347081" lon="9.986080"><ele>15.286</ele><time>2022-11-18T12:49:30Z</time></trkpt><trkpt lat="63.345256" lon="9.990563"><ele>7.115</ele><time>2022-11-18T12:50:10Z</time></trkpt><trkpt lat="63.346792" lon="10.034554"><ele>40.290</ele><time>2022-11-18T12:50:50Z</time></trkpt><trkpt lat="63.345178" lon="10.047516"><ele>53.162</ele><time>2022-11-18T12:51:30Z</time></trkpt><trkpt lat="63.342018" lon="10.056172"><ele>44.585</ele><time>2022-11-18T12:52:10Z</time></trkpt><trkpt lat="63.338783" lon="10.057436"><ele>26.831</ele><time>2022-11-18T12:52:50Z</time></trkpt><trkpt lat="63.333396" lon="10.067880"><ele>18.732</ele><time>2022-11-18T12:53:30Z</time></trkpt><trkpt lat="63.325247" lon="10.071023"><ele>8.186</ele><time>2022-11-18T12:54:10Z</time></trkpt><trkpt lat="63.323954" lon="10.078413"><ele>14.560</ele><time>2022-11-18T12:54:50Z</time></trkpt><trkpt lat="63.326184" lon="10.094230"><ele>4.726</ele><time>2022-11-18T12:55:30Z</time></trkpt><trkpt lat="63.328903" lon="10.100496"><ele>7.109</ele><time>2022-11-18T12:56:10Z</time></trkpt><trkpt lat="63.328111" lon="10.106794"><ele>9.889</ele><time>2022-11-18T12:56:50Z</time></trkpt><trkpt lat="63.322533" lon="10.124441"><ele>6.399</ele><time>2022-11-18T12:57:30Z</time></trkpt><trkpt lat="63.322823" lon="10.130877"><ele>8.396</ele><time>2022-11-18T12:58:10Z</time></trkpt><trkpt lat="63.318295" lon="10.149464"><ele>8.955</ele><time>2022-11-18T12:58:50Z</time></trkpt><trkpt lat="63.312235" lon="10.158949"><ele>10.460</ele><time>2022-11-18T12:59:30Z</time></trkpt><trkpt lat="63.310372" lon="10.167390"><ele>3.162</ele><time>2022-11-18T13:00:10Z</time></trkpt><trkpt lat="63.312111" lon="10.182619"><ele>2.975</ele><time>2022-11-18T13:00:50Z</time></trkpt><trkpt lat="63.315069" lon="10.191187"><ele>2.481</ele><time>2022-11-18T13:01:30Z</time></trkpt><trkpt lat="63.321030" lon="10.194961"><ele>7.032</ele><time>2022-11-18T13:02:10Z</time></trkpt><trkpt lat="63.324386" lon="10.216681"><ele>4.576</ele><time>2022-11-18T13:02:50Z</time></trkpt><trkpt lat="63.324810" lon="10.230031"><ele>10.790</ele><time>2022-11-18T13:03:30Z</time></trkpt><trkpt lat="63.322234" lon="10.262246"><ele>12.019</ele><time>2022-11-18T13:04:10Z</time></trkpt><trkpt lat="63.324295" lon="10.276730"><ele>12.509</ele><time>2022-11-18T13:04:50Z</time></trkpt><trkpt lat="63.324128" lon="10.294741"><ele>27.928</ele><time>2022-11-18T13:05:30Z</time></trkpt><trkpt lat="63.325831" lon="10.301649"><ele>30.958</ele><time>2022-11-18T13:06:10Z</time></trkpt><trkpt lat="63.324953" lon="10.318409"><ele>40.075</ele><time>2022-11-18T13:06:50Z</time></trkpt><trkpt lat="63.332232" lon="10.332363"><ele>65.614</ele><time>2022-11-18T13:07:30Z</time></trkpt><trkpt lat="63.338883" lon="10.340035"><ele>97.159</ele><time>2022-11-18T13:08:10Z</time></trkpt><trkpt lat="63.340757" lon="10.338482"><ele>106.061</ele><time>2022-11-18T13:08:50Z</time></trkpt><trkpt lat="63.347538" lon="10.353811"><ele>132.174</ele><time>2022-11-18T13:09:30Z</time></trkpt><trkpt lat="63.371911" lon="10.368778"><ele>76.470</ele><time>2022-11-18T13:10:10Z</time></trkpt><trkpt lat="63.374881" lon="10.364730"><ele>62.181</ele><time>2022-11-18T13:10:50Z</time></trkpt><trkpt lat="63.399473" lon="10.388421"><ele>6.593</ele><time>2022-11-18T13:11:30Z</time></trkpt><trkpt lat="63.410530" lon="10.383987"><ele>25.265</ele><time>2022-11-18T13:12:10Z</time></trkpt><trkpt lat="63.412623" lon="10.398304"><ele>24.921</ele><time>2022-11-18T13:12:50Z</time></trkpt><trkpt lat="63.421030" lon="10.393179"><ele>16.609</ele><time>2022-11-18T13:13:30Z</time></trkpt><trkpt lat="63.427467" lon="10.392954"><ele>13.050</ele><time>2022-11-18T13:14:10Z</time></trkpt><trkpt lat="63.429006" lon="10.394095"><ele>12.010</ele><time>2022-11-18T13:14:50Z</time></trkpt><trkpt lat="63.428063" lon="10.402951"><ele>4.627</ele><time>2022-11-18T13:15:30Z</time></trkpt><trkpt lat="63.553167" lon="10.222912"><ele>0.616</ele><time>2022-11-18T13:16:10Z</time></trkpt><trkpt lat="63.556109" lon="10.228258"><ele>21.271</ele><time>2022-11-18T13:16:50Z</time></trkpt><trkpt lat="63.557305" lon="10.243198"><ele>31.483</ele><time>2022-11-18T13:17:30Z</time></trkpt><trkpt lat="63.555847" lon="10.252513"><ele>35.676</ele><time>2022-11-18T13:18:10Z</time></trkpt><trkpt lat="63.557689" lon="10.272684"><ele>28.322</ele><time>2022-11-18T13:18:50Z</time></trkpt><trkpt lat="63.556189" lon="10.306452"><ele>25.483</ele><time>2022-11-18T13:19:30Z</time></trkpt><trkpt lat="63.562253" lon="10.321395"><ele>15.521</ele><time>2022-11-18T13:20:10Z</time></trkpt><trkpt lat="63.565219" lon="10.336198"><ele>18.941</ele><time>2022-11-18T13:20:50Z</time></trkpt><trkpt lat="63.573618" lon="10.351872"><ele>11.905</ele><time>2022-11-18T13:21:30Z</time></trkpt><trkpt lat="63.575841" lon="10.367781"><ele>25.409</ele><time>2022-11-18T13:22:10Z</time></trkpt><trkpt lat="63.573653" lon="10.391841"><ele>20.213</ele><time>2022-11-18T13:22:50Z</time></trkpt><trkpt lat="63.569587" lon="10.408504"><ele>17.443</ele><time>2022-11-18T13:23:30Z</time></trkpt><trkpt lat="63.570010" lon="10.413127"><ele>14.060</ele><time>2022-11-18T13:24:10Z</time></trkpt><trkpt lat="63.572381" lon="10.419750"><ele>18.179</ele><time>2022-11-18T13:24:50Z</time></trkpt><trkpt lat="63.581292" lon="10.416835"><ele>6.194</ele><time>2022-11-18T13:25:30Z</time></trkpt><trkpt lat="63.587023" lon="10.421797"><ele>8.956</ele><time>2022-11-18T13:26:10Z</time></trkpt><trkpt lat="63.591198" lon="10.429996"><ele>19.399</ele><time>2022-11-18T13:26:50Z</time></trkpt><trkpt lat="63.591965" lon="10.440138"><ele>50.115</ele><time>2022-11-18T13:27:30Z</time></trkpt><trkpt lat="63.596536" lon="10.458092"><ele>26.726</ele><time>2022-11-18T13:28:10Z</time></trkpt><trkpt lat="63.600390" lon="10.459396"><ele>9.736</ele><time>2022-11-18T13:28:50Z</time></trkpt><trkpt lat="63.604459" lon="10.485836"><ele>11.317</ele><time>2022-11-18T13:29:30Z</time></trkpt><trkpt lat="63.608853" lon="10.494940"><ele>11.218</ele><time>2022-11-18T13:30:10Z</time></trkpt><trkpt lat="63.610853" lon="10.504373"><ele>30.809</ele><time>2022-11-18T13:30:50Z</time></trkpt><trkpt lat="63.623717" lon="10.532629"><ele>11.614</ele><time>2022-11-18T13:31:30Z</time></trkpt><trkpt lat="63.625828" lon="10.542343"><ele>25.024</ele><time>2022-11-18T13:32:10Z</time></trkpt><trkpt lat="63.626082" lon="10.555949"><ele>15.951</ele><time>2022-11-18T13:32:50Z</time></trkpt><trkpt lat="63.628768" lon="10.565068"><ele>17.620</ele><time>2022-11-18T13:33:30Z</time></trkpt><trkpt lat="63.635049" lon="10.574082"><ele>18.195</ele><time>2022-11-18T13:34:10Z</time></trkpt><trkpt lat="63.647054" lon="10.604445"><ele>14.917</ele><time>2022-11-18T13:34:50Z</time></trkpt><trkpt lat="63.651318" lon="10.608284"><ele>13.710</ele><time>2022-11-18T13:35:30Z</time></trkpt><trkpt lat="63.667431" lon="10.607385"><ele>14.646</ele><time>2022-11-18T13:36:10Z</time></trkpt><trkpt lat="63.672402" lon="10.627675"><ele>16.277</ele><time>2022-11-18T13:36:50Z</time></trkpt><trkpt lat="63.677106" lon="10.638735"><ele>58.631</ele><time>2022-11-18T13:37:30Z</time></trkpt><trkpt lat="63.678581" lon="10.633086"><ele>79.861</ele><time>2022-11-18T13:38:10Z</time></trkpt><trkpt lat="63.683560" lon="10.626903"><ele>116.207</ele><time>2022-11-18T13:38:50Z</time></trkpt><trkpt lat="63.685400" lon="10.631801"><ele>138.309</ele><time>2022-11-18T13:39:30Z</time></trkpt><trkpt lat="63.689771" lon="10.621034"><ele>188.844</ele><time>2022-11-18T13:40:10Z</time></trkpt><trkpt lat="63.691439" lon="10.627204"><ele>210.584</ele><time>2022-11-18T13:40:50Z</time></trkpt><trkpt lat="63.699965" lon="10.628295"><ele>194.031</ele><time>2022-11-18T13:41:30Z</time></trkpt><trkpt lat="63.706533" lon="10.644261"><ele>170.580</ele><time>2022-11-18T13:42:10Z</time></trkpt><trkpt lat="63.707772" lon="10.637616"><ele>196.315</ele><time>2022-11-18T13:42:50Z</time></trkpt><trkpt lat="63.714011" lon="10.638703"><ele>250.817</ele><time>2022-11-18T13:43:30Z</time></trkpt><trkpt lat="63.723139" lon="10.621049"><ele>303.880</ele><time>2022-11-18T13:44:10Z</time></trkpt><trkpt lat="63.725916" lon="10.623425"><ele>296.746</ele><time>2022-11-18T13:44:50Z</time></trkpt><trkpt lat="63.729700" lon="10.634270"><ele>288.967</ele><time>2022-11-18T13:45:30Z</time></trkpt><trkpt lat="63.734706" lon="10.635175"><ele>266.376</ele><time>2022-11-18T13:46:10Z</time></trkpt><trkpt lat="63.737068" lon="10.644748"><ele>266.890</ele><time>2022-11-18T13:46:50Z</time></trkpt><trkpt lat="63.746557" lon="10.621018"><ele>268.819</ele><time>2022-11-18T13:47:30Z</time></trkpt><trkpt lat="63.748184" lon="10.607674"><ele>276.009</ele><time>2022-11-18T13:48:10Z</time></trkpt><trkpt lat="63.756942" lon="10.596790"><ele>230.058</ele><time>2022-11-18T13:48:50Z</time></trkpt><trkpt lat="63.763176" lon="10.607995"><ele>254.188</ele><time>2022-11-18T13:49:30Z</time></trkpt><trkpt lat="63.770110" lon="10.629277"><ele>254.285</ele><time>2022-11-18T13:50:10Z</time></trkpt><trkpt lat="63.770753" lon="10.643556"><ele>279.654</ele><time>2022-11-18T13:50:50Z</time></trkpt><trkpt lat="63.781164" lon="10.692703"><ele>317.759</ele><time>2022-11-18T13:51:30Z</time></trkpt><trkpt lat="63.783120" lon="10.710274"><ele>262.741</ele><time>2022-11-18T13:52:10Z</time></trkpt><trkpt lat="63.792338" lon="10.736041"><ele>222.974</ele><time>2022-11-18T13:52:50Z</time></trkpt><trkpt lat="63.796553" lon="10.765446"><ele>246.290</ele><time>2022-11-18T13:53:30Z</time></trkpt><trkpt lat="63.803212" lon="10.795010"><ele>239.491</ele><time>2022-11-18T13:54:10Z</time></trkpt><trkpt lat="63.803965" lon="10.821359"><ele>227.177</ele><time>2022-11-18T13:54:50Z</time></trkpt><trkpt lat="63.810286" lon="10.832702"><ele>215.561</ele><time>2022-11-18T13:55:30Z</time></trkpt><trkpt lat="63.814726" lon="10.846453"><ele>204.927</ele><time>2022-11-18T13:56:10Z</time></trkpt><trkpt lat="63.825596" lon="10.931638"><ele>158.309</ele><time>2022-11-18T13:56:50Z</time></trkpt><trkpt lat="63.830359" lon="10.949300"><ele>105.878</ele><time>2022-11-18T13:57:30Z</time></trkpt><trkpt lat="63.831117" lon="10.971161"><ele>85.598</ele><time>2022-11-18T13:58:10Z</time></trkpt><trkpt lat="63.824261" lon="10.979453"><ele>31.945</ele><time>2022-11-18T13:58:50Z</time></trkpt><trkpt lat="63.820981" lon="10.991557"><ele>18.514</ele><time>2022-11-18T13:59:30Z</time></trkpt><trkpt lat="63.822970" lon="11.026332"><ele>8.639</ele><time>2022-11-18T14:00:10Z</time></trkpt><trkpt lat="63.825619" lon="11.032646"><ele>6.991</ele><time>2022-11-18T14:00:50Z</time></trkpt><trkpt lat="63.827160" lon="11.044118"><ele>13.164</ele><time>2022-11-18T14:01:30Z</time></trkpt><trkpt lat="63.832115" lon="11.048726"><ele>6.270</ele><time>2022-11-18T14:02:10Z</time></trkpt><trkpt lat="63.835687" lon="11.060823"><ele>7.961</ele><time>2022-11-18T14:02:50Z</time></trkpt><trkpt lat="63.841428" lon="11.067707"><ele>19.427</ele><time>2022-11-18T14:03:30Z</time></trkpt><trkpt lat="63.845507" lon="11.085126"><ele>48.868</ele><time>2022-11-18T14:04:10Z</time></trkpt><trkpt lat="63.845407" lon="11.093887"><ele>79.014</ele><time>2022-11-18T14:04:50Z</time></trkpt><trkpt lat="63.848134" lon="11.097298"><ele>79.009</ele><time>2022-11-18T14:05:30Z</time></trkpt><trkpt lat="63.848134" lon="11.097298"><ele>79.013</ele><time>2022-11-18T14:06:10Z</time></trkpt><trkpt lat="63.850598" lon="11.100901"><ele>92.483</ele><time>2022-11-18T14:06:50Z</time></trkpt><trkpt lat="63.847816" lon="11.102522"><ele>110.530</ele><time>2022-11-18T14:07:30Z</time></trkpt><trkpt lat="63.847424" lon="11.105547"><ele>118.119</ele><time>2022-11-18T14:08:10Z</time></trkpt><trkpt lat="63.850842" lon="11.115544"><ele>110.094</ele><time>2022-11-18T14:08:50Z</time></trkpt><trkpt lat="63.852044" lon="11.128083"><ele>98.766</ele><time>2022-11-18T14:09:30Z</time></trkpt><trkpt lat="63.858859" lon="11.139796"><ele>90.099</ele><time>2022-11-18T14:10:10Z</time></trkpt><trkpt lat="63.864895" lon="11.173071"><ele>61.415</ele><time>2022-11-18T14:10:50Z</time></trkpt><trkpt lat="63.864125" lon="11.180943"><ele>57.676</ele><time>2022-11-18T14:11:30Z</time></trkpt><trkpt lat="63.865774" lon="11.194119"><ele>65.075</ele><time>2022-11-18T14:12:10Z</time></trkpt><trkpt lat="63.864808" lon="11.204984"><ele>53.628</ele><time>2022-11-18T14:12:50Z</time></trkpt><trkpt lat="63.870420" lon="11.217717"><ele>51.920</ele><time>2022-11-18T14:13:30Z</time></trkpt><trkpt lat="63.873790" lon="11.233443"><ele>51.709</ele><time>2022-11-18T14:14:10Z</time></trkpt><trkpt lat="63.873908" lon="11.255502"><ele>41.388</ele><time>2022-11-18T14:14:50Z</time></trkpt><trkpt lat="63.875214" lon="11.263408"><ele>47.478</ele><time>2022-11-18T14:15:30Z</time></trkpt><trkpt lat="63.874150" lon="11.290900"><ele>16.095</ele><time>2022-11-18T14:16:10Z</time></trkpt><trkpt lat="63.883018" lon="11.286081"><ele>45.294</ele><time>2022-11-18T14:16:50Z</time></trkpt><trkpt lat="63.893510" lon="11.304413"><ele>62.139</ele><time>2022-11-18T14:17:30Z</time></trkpt><trkpt lat="63.915863" lon="11.308904"><ele>92.051</ele><time>2022-11-18T14:18:10Z</time></trkpt><trkpt lat="63.928169" lon="11.307238"><ele>89.044</ele><time>2022-11-18T14:18:50Z</time></trkpt><trkpt lat="63.941844" lon="11.324368"><ele>49.690</ele><time>2022-11-18T14:19:30Z</time></trkpt><trkpt lat="63.958156" lon="11.334426"><ele>25.151</ele><time>2022-11-18T14:20:10Z</time></trkpt><trkpt lat="63.959274" lon="11.349225"><ele>30.695</ele><time>2022-11-18T14:20:50Z</time></trkpt><trkpt lat="63.966294" lon="11.371758"><ele>10.449</ele><time>2022-11-18T14:21:30Z</time></trkpt><trkpt lat="63.968912" lon="11.417549"><ele>29.323</ele><time>2022-11-18T14:22:10Z</time></trkpt><trkpt lat="63.981136" lon="11.428804"><ele>31.009</ele><time>2022-11-18T14:22:50Z</time></trkpt><trkpt lat="63.999865" lon="11.475555"><ele>14.410</ele><time>2022-11-18T14:23:30Z</time></trkpt><trkpt lat="64.006172" lon="11.502004"><ele>7.060</ele><time>2022-11-18T14:24:10Z</time></trkpt><trkpt lat="64.008893" lon="11.502516"><ele>8.017</ele><time>2022-11-18T14:24:50Z</time></trkpt><trkpt lat="64.018418" lon="11.494130"><ele>3.656</ele><time>2022-11-18T14:25:30Z</time></trkpt><trkpt lat="64.018418" lon="11.494130"><ele>3.671</ele><time>2022-11-18T14:26:10Z</time></trkpt><trkpt lat="64.019111" lon="11.487072"><ele>3.023</ele><time>2022-11-18T14:26:50Z</time></trkpt><trkpt lat="64.015625" lon="11.481180"><ele>3.126</ele><time>2022-11-18T14:27:30Z</time></trkpt><trkpt lat="64.018087" lon="11.468842"><ele>3.822</ele><time>2022-11-18T14:28:10Z</time></trkpt><trkpt lat="64.015454" lon="11.463180"><ele>4.713</ele><time>2022-11-18T14:28:50Z</time></trkpt><trkpt lat="64.011276" lon="11.465102"><ele>11.157</ele><time>2022-11-18T14:29:30Z</time></trkpt><trkpt lat="64.011082" lon="11.462360"><ele>15.400</ele><time>2022-11-18T14:30:10Z</time></trkpt><trkpt lat="64.013971" lon="11.452819"><ele>20.720</ele><time>2022-11-18T14:30:50Z</time></trkpt><trkpt lat="64.027180" lon="11.447219"><ele>9.009</ele><time>2022-11-18T14:31:30Z</time></trkpt><trkpt lat="64.028421" lon="11.443982"><ele>17.746</ele><time>2022-11-18T14:32:10Z</time></trkpt><trkpt lat="64.030785" lon="11.415672"><ele>43.746</ele><time>2022-11-18T14:32:50Z</time></trkpt><trkpt lat="64.026898" lon="11.398493"><ele>45.693</ele><time>2022-11-18T14:33:30Z</time></trkpt><trkpt lat="64.030445" lon="11.394893"><ele>67.082</ele><time>2022-11-18T14:34:10Z</time></trkpt><trkpt lat="64.032580" lon="11.373145"><ele>23.017</ele><time>2022-11-18T14:34:50Z</time></trkpt><trkpt lat="64.037085" lon="11.374141"><ele>1.569</ele><time>2022-11-18T14:35:30Z</time></trkpt><trkpt lat="64.040017" lon="11.363165"><ele>4.192</ele><time>2022-11-18T14:36:10Z</time></trkpt><trkpt lat="64.038259" lon="11.351489"><ele>8.118</ele><time>2022-11-18T14:36:50Z</time></trkpt><trkpt lat="64.042890" lon="11.335507"><ele>27.879</ele><time>2022-11-18T14:37:30Z</time></trkpt><trkpt lat="64.040601" lon="11.321071"><ele>16.362</ele><time>2022-11-18T14:38:10Z</time></trkpt><trkpt lat="64.040867" lon="11.305018"><ele>43.783</ele><time>2022-11-18T14:38:50Z</time></trkpt><trkpt lat="64.047264" lon="11.303865"><ele>87.211</ele><time>2022-11-18T14:39:30Z</time></trkpt><trkpt lat="64.059953" lon="11.312196"><ele>72.309</ele><time>2022-11-18T14:40:10Z</time></trkpt><trkpt lat="64.070940" lon="11.312559"><ele>69.577</ele><time>2022-11-18T14:40:50Z</time></trkpt><trkpt lat="64.086085" lon="11.330305"><ele>41.997</ele><time>2022-11-18T14:41:30Z</time></trkpt><trkpt lat="64.091996" lon="11.345107"><ele>44.854</ele><time>2022-11-18T14:42:10Z</time></trkpt><trkpt lat="64.093775" lon="11.359151"><ele>32.723</ele><time>2022-11-18T14:42:50Z</time></trkpt><trkpt lat="64.099646" lon="11.372064"><ele>5.888</ele><time>2022-11-18T14:43:30Z</time></trkpt><trkpt lat="64.098364" lon="11.379843"><ele>16.130</ele><time>2022-11-18T14:44:10Z</time></trkpt><trkpt lat="64.099116" lon="11.383195"><ele>20.093</ele><time>2022-11-18T14:44:50Z</time></trkpt><trkpt lat="64.109423" lon="11.393515"><ele>3.829</ele><time>2022-11-18T14:45:30Z</time></trkpt><trkpt lat="64.112416" lon="11.383824"><ele>3.080</ele><time>2022-11-18T14:46:10Z</time></trkpt><trkpt lat="64.109641" lon="11.364705"><ele>7.122</ele><time>2022-11-18T14:46:50Z</time></trkpt><trkpt lat="64.113494" lon="11.359720"><ele>3.562</ele><time>2022-11-18T14:47:30Z</time></trkpt><trkpt lat="64.111168" lon="11.341059"><ele>6.808</ele><time>2022-11-18T14:48:10Z</time></trkpt><trkpt lat="64.112417" lon="11.318427"><ele>7.909</ele><time>2022-11-18T14:48:50Z</time></trkpt><trkpt lat="64.115029" lon="11.320668"><ele>4.083</ele><time>2022-11-18T14:49:30Z</time></trkpt><trkpt lat="64.124698" lon="11.317932"><ele>25.993</ele><time>2022-11-18T14:50:10Z</time></trkpt><trkpt lat="64.128889" lon="11.311639"><ele>40.060</ele><time>2022-11-18T14:50:50Z</time></trkpt><trkpt lat="64.130096" lon="11.304354"><ele>31.099</ele><time>2022-11-18T14:51:30Z</time></trkpt><trkpt lat="64.138159" lon="11.287125"><ele>38.824</ele><time>2022-11-18T14:52:10Z</time></trkpt><trkpt lat="64.159861" lon="11.269050"><ele>84.276</ele><time>2022-11-18T14:52:50Z</time></trkpt><trkpt lat="64.172389" lon="11.247323"><ele>79.049</ele><time>2022-11-18T14:53:30Z</time></trkpt><trkpt lat="64.177139" lon="11.221943"><ele>96.785</ele><time>2022-11-18T14:54:10Z</time></trkpt><trkpt lat="64.182397" lon="11.218460"><ele>110.436</ele><time>2022-11-18T14:54:50Z</time></trkpt><trkpt lat="64.184986" lon="11.225459"><ele>92.768</ele><time>2022-11-18T14:55:30Z</time></trkpt><trkpt lat="64.189119" lon="11.227448"><ele>84.242</ele><time>2022-11-18T14:56:10Z</time></trkpt><trkpt lat="64.196021" lon="11.216858"><ele>83.026</ele><time>2022-11-18T14:56:50Z</time></trkpt><trkpt lat="64.200745" lon="11.215036"><ele>73.809</ele><time>2022-11-18T14:57:30Z</time></trkpt><trkpt lat="64.216752" lon="11.216097"><ele>63.317</ele><time>2022-11-18T14:58:10Z</time></trkpt><trkpt lat="64.220869" lon="11.224054"><ele>54.737</ele><time>2022-11-18T14:58:50Z</time></trkpt><trkpt lat="64.224455" lon="11.222110"><ele>44.394</ele><time>2022-11-18T14:59:30Z</time></trkpt><trkpt lat="64.228754" lon="11.213359"><ele>27.963</ele><time>2022-11-18T15:00:10Z</time></trkpt><trkpt lat="64.250904" lon="11.208931"><ele>22.688</ele><time>2022-11-18T15:00:50Z</time></trkpt><trkpt lat="64.253545" lon="11.201819"><ele>20.730</ele><time>2022-11-18T15:01:30Z</time></trkpt><trkpt lat="64.261328" lon="11.197843"><ele>22.883</ele><time>2022-11-18T15:02:10Z</time></trkpt><trkpt lat="64.261329" lon="11.197843"><ele>22.849</ele><time>2022-11-18T15:02:50Z</time></trkpt><trkpt lat="64.273084" lon="11.192965"><ele>12.270</ele><time>2022-11-18T15:03:30Z</time></trkpt><trkpt lat="64.287081" lon="11.195035"><ele>10.994</ele><time>2022-11-18T15:04:10Z</time></trkpt><trkpt lat="64.293870" lon="11.200294"><ele>9.157</ele><time>2022-11-18T15:04:50Z</time></trkpt><trkpt lat="64.299403" lon="11.211471"><ele>6.022</ele><time>2022-11-18T15:05:30Z</time></trkpt><trkpt lat="64.312074" lon="11.226901"><ele>9.309</ele><time>2022-11-18T15:06:10Z</time></trkpt><trkpt lat="64.316209" lon="11.236699"><ele>2.860</ele><time>2022-11-18T15:06:50Z</time></trkpt><trkpt lat="64.321245" lon="11.239798"><ele>19.290</ele><time>2022-11-18T15:07:30Z</time></trkpt><trkpt lat="64.326669" lon="11.248676"><ele>8.747</ele><time>2022-11-18T15:08:10Z</time></trkpt><trkpt lat="64.334647" lon="11.251724"><ele>22.036</ele><time>2022-11-18T15:08:50Z</time></trkpt><trkpt lat="64.337647" lon="11.259042"><ele>27.181</ele><time>2022-11-18T15:09:30Z</time></trkpt><trkpt lat="64.339972" lon="11.283271"><ele>41.963</ele><time>2022-11-18T15:10:10Z</time></trkpt><trkpt lat="64.341631" lon="11.287544"><ele>44.656</ele><time>2022-11-18T15:10:50Z</time></trkpt><trkpt lat="64.356743" lon="11.297810"><ele>54.962</ele><time>2022-11-18T15:11:30Z</time></trkpt><trkpt lat="64.360648" lon="11.310474"><ele>28.553</ele><time>2022-11-18T15:12:10Z</time></trkpt><trkpt lat="64.365448" lon="11.319266"><ele>10.029</ele><time>2022-11-18T15:12:50Z</time></trkpt><trkpt lat="64.366148" lon="11.326246"><ele>2.100</ele><time>2022-11-18T15:13:30Z</time></trkpt><trkpt lat="64.364211" lon="11.335486"><ele>23.420</ele><time>2022-11-18T15:14:10Z</time></trkpt><trkpt lat="64.364663" lon="11.344519"><ele>30.809</ele><time>2022-11-18T15:14:50Z</time></trkpt><trkpt lat="64.373873" lon="11.369796"><ele>13.813</ele><time>2022-11-18T15:15:30Z</time></trkpt><trkpt lat="64.379594" lon="11.378038"><ele>5.943</ele><time>2022-11-18T15:16:10Z</time></trkpt><trkpt lat="64.378995" lon="11.387099"><ele>19.470</ele><time>2022-11-18T15:16:50Z</time></trkpt><trkpt lat="64.380591" lon="11.388138"><ele>2.819</ele><time>2022-11-18T15:17:30Z</time></trkpt><trkpt lat="64.380667" lon="11.392713"><ele>10.484</ele><time>2022-11-18T15:18:10Z</time></trkpt><trkpt lat="64.384400" lon="11.398922"><ele>8.666</ele><time>2022-11-18T15:18:50Z</time></trkpt><trkpt lat="64.395002" lon="11.402620"><ele>15.489</ele><time>2022-11-18T15:19:30Z</time></trkpt><trkpt lat="64.399700" lon="11.409277"><ele>29.545</ele><time>2022-11-18T15:20:10Z</time></trkpt><trkpt lat="64.405315" lon="11.445289"><ele>54.676</ele><time>2022-11-18T15:20:50Z</time></trkpt><trkpt lat="64.405700" lon="11.466753"><ele>50.387</ele><time>2022-11-18T15:21:30Z</time></trkpt><trkpt lat="64.412260" lon="11.483232"><ele>61.542</ele><time>2022-11-18T15:22:10Z</time></trkpt><trkpt lat="64.416803" lon="11.489483"><ele>69.026</ele><time>2022-11-18T15:22:50Z</time></trkpt><trkpt lat="64.428510" lon="11.489331"><ele>55.209</ele><time>2022-11-18T15:23:30Z</time></trkpt><trkpt lat="64.436991" lon="11.504506"><ele>45.369</ele><time>2022-11-18T15:24:10Z</time></trkpt><trkpt lat="64.442967" lon="11.521190"><ele>29.089</ele><time>2022-11-18T15:24:50Z</time></trkpt><trkpt lat="64.445169" lon="11.519988"><ele>15.486</ele><time>2022-11-18T15:25:30Z</time></trkpt><trkpt lat="64.448547" lon="11.523694"><ele>6.515</ele><time>2022-11-18T15:26:10Z</time></trkpt><trkpt lat="64.452813" lon="11.521585"><ele>0.010</ele><time>2022-11-18T15:26:50Z</time></trkpt><trkpt lat="64.456215" lon="11.527987"><ele>1.012</ele><time>2022-11-18T15:27:30Z</time></trkpt><trkpt lat="64.464443" lon="11.519148"><ele>4.025</ele><time>2022-11-18T15:28:10Z</time></trkpt><trkpt lat="64.466447" lon="11.510171"><ele>4.011</ele><time>2022-11-18T15:28:50Z</time></trkpt><trkpt lat="64.468489" lon="11.508913"><ele>2.622</ele><time>2022-11-18T15:29:30Z</time></trkpt><trkpt lat="64.468489" lon="11.508913"><ele>2.618</ele><time>2022-11-18T15:30:10Z</time></trkpt><trkpt lat="64.468306" lon="11.491111"><ele>3.898</ele><time>2022-11-18T15:30:50Z</time></trkpt><trkpt lat="64.472654" lon="11.494821"><ele>20.817</ele><time>2022-11-18T15:31:30Z</time></trkpt><trkpt lat="64.473468" lon="11.489269"><ele>45.209</ele><time>2022-11-18T15:32:10Z</time></trkpt><trkpt lat="64.477629" lon="11.483160"><ele>41.482</ele><time>2022-11-18T15:32:50Z</time></trkpt><trkpt lat="64.489060" lon="11.476530"><ele>17.142</ele><time>2022-11-18T15:33:30Z</time></trkpt><trkpt lat="64.491207" lon="11.469412"><ele>42.599</ele><time>2022-11-18T15:34:10Z</time></trkpt><trkpt lat="64.501526" lon="11.470689"><ele>36.718</ele><time>2022-11-18T15:34:50Z</time></trkpt><trkpt lat="64.508106" lon="11.487649"><ele>35.673</ele><time>2022-11-18T15:35:30Z</time></trkpt><trkpt lat="64.513311" lon="11.484601"><ele>11.015</ele><time>2022-11-18T15:36:10Z</time></trkpt><trkpt lat="64.515901" lon="11.489891"><ele>13.998</ele><time>2022-11-18T15:36:50Z</time></trkpt><trkpt lat="64.516478" lon="11.499482"><ele>14.424</ele><time>2022-11-18T15:37:30Z</time></trkpt><trkpt lat="64.513002" lon="11.511360"><ele>5.295</ele><time>2022-11-18T15:38:10Z</time></trkpt><trkpt lat="64.517356" lon="11.523380"><ele>13.938</ele><time>2022-11-18T15:38:50Z</time></trkpt><trkpt lat="64.518172" lon="11.538303"><ele>5.570</ele><time>2022-11-18T15:39:30Z</time></trkpt><trkpt lat="64.521331" lon="11.536127"><ele>8.217</ele><time>2022-11-18T15:40:10Z</time></trkpt><trkpt lat="64.523071" lon="11.539292"><ele>4.809</ele><time>2022-11-18T15:40:50Z</time></trkpt><trkpt lat="64.536453" lon="11.541799"><ele>45.834</ele><time>2022-11-18T15:41:30Z</time></trkpt><trkpt lat="64.546001" lon="11.539283"><ele>3.744</ele><time>2022-11-18T15:42:10Z</time></trkpt><trkpt lat="64.550288" lon="11.528500"><ele>6.321</ele><time>2022-11-18T15:42:50Z</time></trkpt><trkpt lat="64.555028" lon="11.525955"><ele>10.620</ele><time>2022-11-18T15:43:30Z</time></trkpt><trkpt lat="64.559329" lon="11.517843"><ele>13.855</ele><time>2022-11-18T15:44:10Z</time></trkpt><trkpt lat="64.562630" lon="11.502212"><ele>32.787</ele><time>2022-11-18T15:44:50Z</time></trkpt><trkpt lat="64.561617" lon="11.497815"><ele>10.360</ele><time>2022-11-18T15:45:30Z</time></trkpt><trkpt lat="64.554836" lon="11.489474"><ele>11.346</ele><time>2022-11-18T15:46:10Z</time></trkpt><trkpt lat="64.553852" lon="11.482978"><ele>14.317</ele><time>2022-11-18T15:46:50Z</time></trkpt><trkpt lat="64.550324" lon="11.477456"><ele>7.092</ele><time>2022-11-18T15:47:30Z</time></trkpt><trkpt lat="64.549747" lon="11.466650"><ele>23.073</ele><time>2022-11-18T15:48:10Z</time></trkpt><trkpt lat="64.551708" lon="11.460183"><ele>32.720</ele><time>2022-11-18T15:48:50Z</time></trkpt><trkpt lat="64.572817" lon="11.460382"><ele>61.009</ele><time>2022-11-18T15:49:30Z</time></trkpt><trkpt lat="64.587501" lon="11.465017"><ele>28.920</ele><time>2022-11-18T15:50:10Z</time></trkpt><trkpt lat="64.592783" lon="11.453626"><ele>25.950</ele><time>2022-11-18T15:50:50Z</time></trkpt><trkpt lat="64.592588" lon="11.445277"><ele>6.257</ele><time>2022-11-18T15:51:30Z</time></trkpt><trkpt lat="64.595015" lon="11.438861"><ele>5.596</ele><time>2022-11-18T15:52:10Z</time></trkpt><trkpt lat="64.601735" lon="11.435453"><ele>9.571</ele><time>2022-11-18T15:52:50Z</time></trkpt><trkpt lat="64.605202" lon="11.425229"><ele>29.993</ele><time>2022-11-18T15:53:30Z</time></trkpt><trkpt lat="64.608300" lon="11.423853"><ele>33.986</ele><time>2022-11-18T15:54:10Z</time></trkpt><trkpt lat="64.611873" lon="11.429038"><ele>6.862</ele><time>2022-11-18T15:54:50Z</time></trkpt><trkpt lat="64.619189" lon="11.429175"><ele>31.393</ele><time>2022-11-18T15:55:30Z</time></trkpt><trkpt lat="64.620927" lon="11.433573"><ele>48.518</ele><time>2022-11-18T15:56:10Z</time></trkpt><trkpt lat="64.615541" lon="11.453780"><ele>83.898</ele><time>2022-11-18T15:56:50Z</time></trkpt><trkpt lat="64.620045" lon="11.465065"><ele>109.717</ele><time>2022-11-18T15:57:30Z</time></trkpt><trkpt lat="64.628200" lon="11.462388"><ele>95.809</ele><time>2022-11-18T15:58:10Z</time></trkpt><trkpt lat="64.637998" lon="11.448339"><ele>103.312</ele><time>2022-11-18T15:58:50Z</time></trkpt><trkpt lat="64.650481" lon="11.444847"><ele>160.062</ele><time>2022-11-18T15:59:30Z</time></trkpt><trkpt lat="64.660088" lon="11.448317"><ele>151.249</ele><time>2022-11-18T16:00:10Z</time></trkpt><trkpt lat="64.670748" lon="11.442838"><ele>90.228</ele><time>2022-11-18T16:00:50Z</time></trkpt><trkpt lat="64.673553" lon="11.434183"><ele>49.383</ele><time>2022-11-18T16:01:30Z</time></trkpt><trkpt lat="64.678083" lon="11.437208"><ele>42.165</ele><time>2022-11-18T16:02:10Z</time></trkpt><trkpt lat="64.686429" lon="11.432063"><ele>4.388</ele><time>2022-11-18T16:02:50Z</time></trkpt><trkpt lat="64.695976" lon="11.452518"><ele>20.024</ele><time>2022-11-18T16:03:30Z</time></trkpt><trkpt lat="64.704373" lon="11.441573"><ele>35.225</ele><time>2022-11-18T16:04:10Z</time></trkpt><trkpt lat="64.708151" lon="11.459447"><ele>47.075</ele><time>2022-11-18T16:04:50Z</time></trkpt><trkpt lat="64.720525" lon="11.482410"><ele>17.228</ele><time>2022-11-18T16:05:30Z</time></trkpt><trkpt lat="64.728643" lon="11.520334"><ele>9.920</ele><time>2022-11-18T16:06:10Z</time></trkpt><trkpt lat="64.731395" lon="11.525278"><ele>14.009</ele><time>2022-11-18T16:06:50Z</time></trkpt><trkpt lat="64.735027" lon="11.524632"><ele>16.698</ele><time>2022-11-18T16:07:30Z</time></trkpt><trkpt lat="64.741151" lon="11.541580"><ele>12.438</ele><time>2022-11-18T16:08:10Z</time></trkpt><trkpt lat="64.747118" lon="11.542179"><ele>14.675</ele><time>2022-11-18T16:08:50Z</time></trkpt><trkpt lat="64.752642" lon="11.548127"><ele>34.964</ele><time>2022-11-18T16:09:30Z</time></trkpt><trkpt lat="64.749018" lon="11.565546"><ele>2.779</ele><time>2022-11-18T16:10:10Z</time></trkpt><trkpt lat="64.757373" lon="11.580906"><ele>6.561</ele><time>2022-11-18T16:10:50Z</time></trkpt><trkpt lat="64.761425" lon="11.598381"><ele>38.554</ele><time>2022-11-18T16:11:30Z</time></trkpt><trkpt lat="64.766868" lon="11.609762"><ele>25.680</ele><time>2022-11-18T16:12:10Z</time></trkpt><trkpt lat="64.768577" lon="11.624586"><ele>0.071</ele><time>2022-11-18T16:12:50Z</time></trkpt><trkpt lat="64.827438" lon="11.612655"><ele>0.354</ele><time>2022-11-18T16:13:30Z</time></trkpt><trkpt lat="64.818654" lon="11.531440"><ele>8.256</ele><time>2022-11-18T16:14:10Z</time></trkpt><trkpt lat="64.819810" lon="11.512604"><ele>17.411</ele><time>2022-11-18T16:14:50Z</time></trkpt><trkpt lat="64.823587" lon="11.496618"><ele>30.109</ele><time>2022-11-18T16:15:30Z</time></trkpt><trkpt lat="64.840331" lon="11.518768"><ele>52.676</ele><time>2022-11-18T16:16:10Z</time></trkpt><trkpt lat="64.843398" lon="11.515371"><ele>21.626</ele><time>2022-11-18T16:16:50Z</time></trkpt><trkpt lat="64.846430" lon="11.517280"><ele>3.853</ele><time>2022-11-18T16:17:30Z</time></trkpt><trkpt lat="64.848553" lon="11.531976"><ele>4.082</ele><time>2022-11-18T16:18:10Z</time></trkpt><trkpt lat="64.854023" lon="11.539043"><ele>2.097</ele><time>2022-11-18T16:18:50Z</time></trkpt><trkpt lat="64.861216" lon="11.563662"><ele>2.029</ele><time>2022-11-18T16:19:30Z</time></trkpt><trkpt lat="64.864962" lon="11.569669"><ele>5.162</ele><time>2022-11-18T16:20:10Z</time></trkpt><trkpt lat="64.867714" lon="11.587773"><ele>38.348</ele><time>2022-11-18T16:20:50Z</time></trkpt><trkpt lat="64.865138" lon="11.601715"><ele>61.199</ele><time>2022-11-18T16:21:30Z</time></trkpt><trkpt lat="64.878414" lon="11.641340"><ele>110.229</ele><time>2022-11-18T16:22:10Z</time></trkpt><trkpt lat="64.876535" lon="11.648534"><ele>85.800</ele><time>2022-11-18T16:22:50Z</time></trkpt><trkpt lat="64.877378" lon="11.658142"><ele>58.820</ele><time>2022-11-18T16:23:30Z</time></trkpt><trkpt lat="64.884465" lon="11.669692"><ele>38.609</ele><time>2022-11-18T16:24:10Z</time></trkpt><trkpt lat="64.894500" lon="11.679063"><ele>9.763</ele><time>2022-11-18T16:24:50Z</time></trkpt><trkpt lat="64.903089" lon="11.721681"><ele>25.313</ele><time>2022-11-18T16:25:30Z</time></trkpt><trkpt lat="64.907714" lon="11.735612"><ele>22.650</ele><time>2022-11-18T16:26:10Z</time></trkpt><trkpt lat="64.908973" lon="11.729459"><ele>6.889</ele><time>2022-11-18T16:26:50Z</time></trkpt><trkpt lat="64.907144" lon="11.705217"><ele>22.584</ele><time>2022-11-18T16:27:30Z</time></trkpt><trkpt lat="64.908310" lon="11.699734"><ele>33.176</ele><time>2022-11-18T16:28:10Z</time></trkpt><trkpt lat="64.910234" lon="11.699326"><ele>20.479</ele><time>2022-11-18T16:28:50Z</time></trkpt><trkpt lat="64.915959" lon="11.713939"><ele>25.095</ele><time>2022-11-18T16:29:30Z</time></trkpt><trkpt lat="64.922218" lon="11.723482"><ele>28.016</ele><time>2022-11-18T16:30:10Z</time></trkpt><trkpt lat="64.927668" lon="11.746511"><ele>40.341</ele><time>2022-11-18T16:30:50Z</time></trkpt><trkpt lat="64.935650" lon="11.766118"><ele>51.081</ele><time>2022-11-18T16:31:30Z</time></trkpt><trkpt lat="64.945493" lon="11.767938"><ele>61.009</ele><time>2022-11-18T16:32:10Z</time></trkpt><trkpt lat="64.948207" lon="11.776160"><ele>68.809</ele><time>2022-11-18T16:32:50Z</time></trkpt><trkpt lat="64.953240" lon="11.782945"><ele>61.955</ele><time>2022-11-18T16:33:30Z</time></trkpt><trkpt lat="64.955576" lon="11.780340"><ele>61.145</ele><time>2022-11-18T16:34:10Z</time></trkpt><trkpt lat="64.961346" lon="11.786471"><ele>63.662</ele><time>2022-11-18T16:34:50Z</time></trkpt><trkpt lat="64.969254" lon="11.810889"><ele>75.591</ele><time>2022-11-18T16:35:30Z</time></trkpt><trkpt lat="64.974564" lon="11.798103"><ele>35.916</ele><time>2022-11-18T16:36:10Z</time></trkpt><trkpt lat="64.980600" lon="11.800036"><ele>18.258</ele><time>2022-11-18T16:36:50Z</time></trkpt><trkpt lat="64.982467" lon="11.796600"><ele>20.381</ele><time>2022-11-18T16:37:30Z</time></trkpt><trkpt lat="64.980018" lon="11.772012"><ele>5.427</ele><time>2022-11-18T16:38:10Z</time></trkpt><trkpt lat="64.984116" lon="11.758996"><ele>17.138</ele><time>2022-11-18T16:38:50Z</time></trkpt><trkpt lat="64.986266" lon="11.758669"><ele>28.884</ele><time>2022-11-18T16:39:30Z</time></trkpt><trkpt lat="64.990909" lon="11.778595"><ele>76.907</ele><time>2022-11-18T16:40:10Z</time></trkpt><trkpt lat="64.990488" lon="11.788056"><ele>47.717</ele><time>2022-11-18T16:40:50Z</time></trkpt><trkpt lat="64.992670" lon="11.793882"><ele>28.909</ele><time>2022-11-18T16:41:30Z</time></trkpt><trkpt lat="64.997329" lon="11.798921"><ele>19.019</ele><time>2022-11-18T16:42:10Z</time></trkpt><trkpt lat="65.004081" lon="11.797400"><ele>33.569</ele><time>2022-11-18T16:42:50Z</time></trkpt><trkpt lat="65.010391" lon="11.806704"><ele>5.446</ele><time>2022-11-18T16:43:30Z</time></trkpt><trkpt lat="65.020269" lon="11.841087"><ele>10.175</ele><time>2022-11-18T16:44:10Z</time></trkpt><trkpt lat="65.034373" lon="11.867920"><ele>14.560</ele><time>2022-11-18T16:44:50Z</time></trkpt><trkpt lat="65.043845" lon="11.892812"><ele>29.922</ele><time>2022-11-18T16:45:30Z</time></trkpt><trkpt lat="65.046483" lon="11.893726"><ele>23.085</ele><time>2022-11-18T16:46:10Z</time></trkpt><trkpt lat="65.056543" lon="11.922512"><ele>45.811</ele><time>2022-11-18T16:46:50Z</time></trkpt><trkpt lat="65.056435" lon="11.931108"><ele>15.882</ele><time>2022-11-18T16:47:30Z</time></trkpt><trkpt lat="65.058746" lon="11.938163"><ele>8.596</ele><time>2022-11-18T16:48:10Z</time></trkpt><trkpt lat="65.059558" lon="11.951668"><ele>4.231</ele><time>2022-11-18T16:48:50Z</time></trkpt><trkpt lat="65.063509" lon="11.954375"><ele>4.524</ele><time>2022-11-18T16:49:30Z</time></trkpt><trkpt lat="65.070341" lon="11.950186"><ele>6.709</ele><time>2022-11-18T16:50:10Z</time></trkpt><trkpt lat="65.074701" lon="11.954601"><ele>12.260</ele><time>2022-11-18T16:50:50Z</time></trkpt><trkpt lat="65.087275" lon="12.017337"><ele>55.110</ele><time>2022-11-18T16:51:30Z</time></trkpt><trkpt lat="65.084902" lon="12.032412"><ele>29.747</ele><time>2022-11-18T16:52:10Z</time></trkpt><trkpt lat="65.075793" lon="12.040782"><ele>19.646</ele><time>2022-11-18T16:52:50Z</time></trkpt><trkpt lat="65.075932" lon="12.058834"><ele>8.031</ele><time>2022-11-18T16:53:30Z</time></trkpt><trkpt lat="65.077897" lon="12.071202"><ele>12.193</ele><time>2022-11-18T16:54:10Z</time></trkpt><trkpt lat="65.076035" lon="12.087313"><ele>37.136</ele><time>2022-11-18T16:54:50Z</time></trkpt><trkpt lat="65.078406" lon="12.092552"><ele>57.692</ele><time>2022-11-18T16:55:30Z</time></trkpt><trkpt lat="65.088618" lon="12.083054"><ele>109.033</ele><time>2022-11-18T16:56:10Z</time></trkpt><trkpt lat="65.100549" lon="12.092402"><ele>105.386</ele><time>2022-11-18T16:56:50Z</time></trkpt><trkpt lat="65.106329" lon="12.090333"><ele>110.960</ele><time>2022-11-18T16:57:30Z</time></trkpt><trkpt lat="65.108023" lon="12.099358"><ele>78.826</ele><time>2022-11-18T16:58:10Z</time></trkpt><trkpt lat="65.115150" lon="12.113040"><ele>11.409</ele><time>2022-11-18T16:58:50Z</time></trkpt><trkpt lat="65.116915" lon="12.129436"><ele>47.889</ele><time>2022-11-18T16:59:30Z</time></trkpt><trkpt lat="65.121947" lon="12.141406"><ele>18.949</ele><time>2022-11-18T17:00:10Z</time></trkpt><trkpt lat="65.121263" lon="12.169412"><ele>3.336</ele><time>2022-11-18T17:00:50Z</time></trkpt><trkpt lat="65.128533" lon="12.156624"><ele>5.625</ele><time>2022-11-18T17:01:30Z</time></trkpt><trkpt lat="65.124673" lon="12.128899"><ele>29.860</ele><time>2022-11-18T17:02:10Z</time></trkpt><trkpt lat="65.125115" lon="12.116895"><ele>64.742</ele><time>2022-11-18T17:02:50Z</time></trkpt><trkpt lat="65.149649" lon="12.115560"><ele>4.315</ele><time>2022-11-18T17:03:30Z</time></trkpt><trkpt lat="65.157388" lon="12.121188"><ele>5.011</ele><time>2022-11-18T17:04:10Z</time></trkpt><trkpt lat="65.173063" lon="12.115531"><ele>5.892</ele><time>2022-11-18T17:04:50Z</time></trkpt><trkpt lat="65.182323" lon="12.124340"><ele>15.412</ele><time>2022-11-18T17:05:30Z</time></trkpt><trkpt lat="65.184485" lon="12.120781"><ele>5.032</ele><time>2022-11-18T17:06:10Z</time></trkpt><trkpt lat="65.182665" lon="12.113201"><ele>1.205</ele><time>2022-11-18T17:06:50Z</time></trkpt><trkpt lat="65.216132" lon="12.040710"><ele>0.109</ele><time>2022-11-18T17:07:30Z</time></trkpt><trkpt lat="65.220733" lon="12.051883"><ele>8.722</ele><time>2022-11-18T17:08:10Z</time></trkpt><trkpt lat="65.222305" lon="12.064045"><ele>3.312</ele><time>2022-11-18T17:08:50Z</time></trkpt><trkpt lat="65.230452" lon="12.076821"><ele>4.619</ele><time>2022-11-18T17:09:30Z</time></trkpt><trkpt lat="65.231338" lon="12.086398"><ele>9.628</ele><time>2022-11-18T17:10:10Z</time></trkpt><trkpt lat="65.237873" lon="12.104781"><ele>5.633</ele><time>2022-11-18T17:10:50Z</time></trkpt><trkpt lat="65.238905" lon="12.114658"><ele>6.835</ele><time>2022-11-18T17:11:30Z</time></trkpt><trkpt lat="65.242379" lon="12.120841"><ele>5.038</ele><time>2022-11-18T17:12:10Z</time></trkpt><trkpt lat="65.251507" lon="12.122868"><ele>8.424</ele><time>2022-11-18T17:12:50Z</time></trkpt><trkpt lat="65.255065" lon="12.127126"><ele>8.585</ele><time>2022-11-18T17:13:30Z</time></trkpt><trkpt lat="65.256578" lon="12.137223"><ele>6.436</ele><time>2022-11-18T17:14:10Z</time></trkpt><trkpt lat="65.263349" lon="12.144937"><ele>9.317</ele><time>2022-11-18T17:14:50Z</time></trkpt><trkpt lat="65.281483" lon="12.149431"><ele>10.018</ele><time>2022-11-18T17:15:30Z</time></trkpt><trkpt lat="65.328459" lon="12.178370"><ele>17.109</ele><time>2022-11-18T17:16:10Z</time></trkpt><trkpt lat="65.340777" lon="12.196869"><ele>5.184</ele><time>2022-11-18T17:16:50Z</time></trkpt><trkpt lat="65.339789" lon="12.212623"><ele>9.234</ele><time>2022-11-18T17:17:30Z</time></trkpt><trkpt lat="65.343666" lon="12.222299"><ele>2.391</ele><time>2022-11-18T17:18:10Z</time></trkpt><trkpt lat="65.347942" lon="12.226485"><ele>3.040</ele><time>2022-11-18T17:18:50Z</time></trkpt><trkpt lat="65.351044" lon="12.225678"><ele>3.555</ele><time>2022-11-18T17:19:30Z</time></trkpt><trkpt lat="65.354730" lon="12.214390"><ele>7.147</ele><time>2022-11-18T17:20:10Z</time></trkpt><trkpt lat="65.359668" lon="12.211474"><ele>5.070</ele><time>2022-11-18T17:20:50Z</time></trkpt><trkpt lat="65.368172" lon="12.196985"><ele>3.616</ele><time>2022-11-18T17:21:30Z</time></trkpt><trkpt lat="65.377801" lon="12.203482"><ele>5.077</ele><time>2022-11-18T17:22:10Z</time></trkpt><trkpt lat="65.383821" lon="12.184724"><ele>14.313</ele><time>2022-11-18T17:22:50Z</time></trkpt><trkpt lat="65.390797" lon="12.175288"><ele>7.943</ele><time>2022-11-18T17:23:30Z</time></trkpt><trkpt lat="65.406883" lon="12.187105"><ele>3.907</ele><time>2022-11-18T17:24:10Z</time></trkpt><trkpt lat="65.410023" lon="12.192417"><ele>5.409</ele><time>2022-11-18T17:24:50Z</time></trkpt><trkpt lat="65.414371" lon="12.207809"><ele>9.082</ele><time>2022-11-18T17:25:30Z</time></trkpt><trkpt lat="65.427290" lon="12.231500"><ele>5.172</ele><time>2022-11-18T17:26:10Z</time></trkpt><trkpt lat="65.437524" lon="12.283553"><ele>19.159</ele><time>2022-11-18T17:26:50Z</time></trkpt><trkpt lat="65.443280" lon="12.304578"><ele>20.498</ele><time>2022-11-18T17:27:30Z</time></trkpt><trkpt lat="65.460384" lon="12.344713"><ele>3.623</ele><time>2022-11-18T17:28:10Z</time></trkpt><trkpt lat="65.467540" lon="12.355145"><ele>6.355</ele><time>2022-11-18T17:28:50Z</time></trkpt><trkpt lat="65.474348" lon="12.351339"><ele>13.798</ele><time>2022-11-18T17:29:30Z</time></trkpt><trkpt lat="65.478346" lon="12.337394"><ele>15.874</ele><time>2022-11-18T17:30:10Z</time></trkpt><trkpt lat="65.497480" lon="12.347668"><ele>14.935</ele><time>2022-11-18T17:30:50Z</time></trkpt><trkpt lat="65.497255" lon="12.343749"><ele>24.131</ele><time>2022-11-18T17:31:30Z</time></trkpt><trkpt lat="65.505412" lon="12.312059"><ele>16.161</ele><time>2022-11-18T17:32:10Z</time></trkpt><trkpt lat="65.505441" lon="12.303571"><ele>11.907</ele><time>2022-11-18T17:32:50Z</time></trkpt><trkpt lat="65.502452" lon="12.292429"><ele>12.909</ele><time>2022-11-18T17:33:30Z</time></trkpt><trkpt lat="65.495645" lon="12.279859"><ele>12.924</ele><time>2022-11-18T17:34:10Z</time></trkpt><trkpt lat="65.492824" lon="12.268298"><ele>14.124</ele><time>2022-11-18T17:34:50Z</time></trkpt><trkpt lat="65.492618" lon="12.263277"><ele>14.541</ele><time>2022-11-18T17:35:30Z</time></trkpt><trkpt lat="65.495180" lon="12.261250"><ele>3.270</ele><time>2022-11-18T17:36:10Z</time></trkpt><trkpt lat="65.495819" lon="12.248523"><ele>8.285</ele><time>2022-11-18T17:36:50Z</time></trkpt><trkpt lat="65.505753" lon="12.264352"><ele>11.287</ele><time>2022-11-18T17:37:30Z</time></trkpt><trkpt lat="65.519990" lon="12.275272"><ele>14.020</ele><time>2022-11-18T17:38:10Z</time></trkpt><trkpt lat="65.526505" lon="12.268862"><ele>12.296</ele><time>2022-11-18T17:38:50Z</time></trkpt><trkpt lat="65.531721" lon="12.268115"><ele>9.087</ele><time>2022-11-18T17:39:30Z</time></trkpt><trkpt lat="65.548331" lon="12.274146"><ele>12.949</ele><time>2022-11-18T17:40:10Z</time></trkpt><trkpt lat="65.554947" lon="12.293283"><ele>15.502</ele><time>2022-11-18T17:40:50Z</time></trkpt><trkpt lat="65.563521" lon="12.306431"><ele>11.022</ele><time>2022-11-18T17:41:30Z</time></trkpt><trkpt lat="65.567390" lon="12.304244"><ele>27.209</ele><time>2022-11-18T17:42:10Z</time></trkpt><trkpt lat="65.570398" lon="12.307322"><ele>30.615</ele><time>2022-11-18T17:42:50Z</time></trkpt><trkpt lat="65.579145" lon="12.300290"><ele>12.255</ele><time>2022-11-18T17:43:30Z</time></trkpt><trkpt lat="65.583214" lon="12.302198"><ele>0.032</ele><time>2022-11-18T17:44:10Z</time></trkpt><trkpt lat="65.578160" lon="12.391939"><ele>0.031</ele><time>2022-11-18T17:44:50Z</time></trkpt><trkpt lat="65.581927" lon="12.376082"><ele>6.326</ele><time>2022-11-18T17:45:30Z</time></trkpt><trkpt lat="65.586195" lon="12.372485"><ele>7.278</ele><time>2022-11-18T17:46:10Z</time></trkpt><trkpt lat="65.598306" lon="12.371607"><ele>4.541</ele><time>2022-11-18T17:46:50Z</time></trkpt><trkpt lat="65.606134" lon="12.365642"><ele>5.997</ele><time>2022-11-18T17:47:30Z</time></trkpt><trkpt lat="65.628671" lon="12.369053"><ele>10.738</ele><time>2022-11-18T17:48:10Z</time></trkpt><trkpt lat="65.653513" lon="12.383036"><ele>13.419</ele><time>2022-11-18T17:48:50Z</time></trkpt><trkpt lat="65.672388" lon="12.408321"><ele>9.609</ele><time>2022-11-18T17:49:30Z</time></trkpt><trkpt lat="65.677635" lon="12.409665"><ele>9.919</ele><time>2022-11-18T17:50:10Z</time></trkpt><trkpt lat="65.712476" lon="12.458975"><ele>5.309</ele><time>2022-11-18T17:50:50Z</time></trkpt><trkpt lat="65.821749" lon="12.430175"><ele>0.112</ele><time>2022-11-18T17:51:30Z</time></trkpt><trkpt lat="65.830544" lon="12.403759"><ele>8.062</ele><time>2022-11-18T17:52:10Z</time></trkpt><trkpt lat="65.841741" lon="12.394219"><ele>9.079</ele><time>2022-11-18T17:52:50Z</time></trkpt><trkpt lat="65.846457" lon="12.396569"><ele>8.858</ele><time>2022-11-18T17:53:30Z</time></trkpt><trkpt lat="65.857189" lon="12.430461"><ele>3.943</ele><time>2022-11-18T17:54:10Z</time></trkpt><trkpt lat="65.869410" lon="12.461528"><ele>6.235</ele><time>2022-11-18T17:54:50Z</time></trkpt><trkpt lat="65.871922" lon="12.478421"><ele>7.848</ele><time>2022-11-18T17:55:30Z</time></trkpt><trkpt lat="65.878733" lon="12.502180"><ele>4.934</ele><time>2022-11-18T17:56:10Z</time></trkpt><trkpt lat="65.887946" lon="12.514908"><ele>5.125</ele><time>2022-11-18T17:56:50Z</time></trkpt><trkpt lat="65.894271" lon="12.533358"><ele>2.688</ele><time>2022-11-18T17:57:30Z</time></trkpt><trkpt lat="65.897144" lon="12.536233"><ele>1.324</ele><time>2022-11-18T17:58:10Z</time></trkpt><trkpt lat="65.901174" lon="12.530878"><ele>7.026</ele><time>2022-11-18T17:58:50Z</time></trkpt><trkpt lat="65.902671" lon="12.520289"><ele>11.909</ele><time>2022-11-18T17:59:30Z</time></trkpt><trkpt lat="65.900565" lon="12.480523"><ele>20.449</ele><time>2022-11-18T18:00:10Z</time></trkpt><trkpt lat="65.896737" lon="12.461020"><ele>5.889</ele><time>2022-11-18T18:00:50Z</time></trkpt><trkpt lat="65.897861" lon="12.440642"><ele>9.826</ele><time>2022-11-18T18:01:30Z</time></trkpt><trkpt lat="65.892284" lon="12.423553"><ele>5.635</ele><time>2022-11-18T18:02:10Z</time></trkpt><trkpt lat="65.890889" lon="12.413390"><ele>14.240</ele><time>2022-11-18T18:02:50Z</time></trkpt><trkpt lat="65.892200" lon="12.407778"><ele>25.032</ele><time>2022-11-18T18:03:30Z</time></trkpt><trkpt lat="65.898218" lon="12.403186"><ele>11.255</ele><time>2022-11-18T18:04:10Z</time></trkpt><trkpt lat="65.902360" lon="12.406397"><ele>9.671</ele><time>2022-11-18T18:04:50Z</time></trkpt><trkpt lat="65.918768" lon="12.437734"><ele>22.562</ele><time>2022-11-18T18:05:30Z</time></trkpt><trkpt lat="65.921752" lon="12.453681"><ele>16.155</ele><time>2022-11-18T18:06:10Z</time></trkpt><trkpt lat="65.929506" lon="12.465601"><ele>4.307</ele><time>2022-11-18T18:06:50Z</time></trkpt><trkpt lat="65.935991" lon="12.464573"><ele>10.617</ele><time>2022-11-18T18:07:30Z</time></trkpt><trkpt lat="65.940222" lon="12.458634"><ele>9.009</ele><time>2022-11-18T18:08:10Z</time></trkpt><trkpt lat="65.943345" lon="12.458579"><ele>11.046</ele><time>2022-11-18T18:08:50Z</time></trkpt><trkpt lat="65.962408" lon="12.480467"><ele>21.826</ele><time>2022-11-18T18:09:30Z</time></trkpt><trkpt lat="65.965126" lon="12.489261"><ele>39.783</ele><time>2022-11-18T18:10:10Z</time></trkpt><trkpt lat="65.965363" lon="12.499012"><ele>55.252</ele><time>2022-11-18T18:10:50Z</time></trkpt><trkpt lat="65.969797" lon="12.512015"><ele>65.767</ele><time>2022-11-18T18:11:30Z</time></trkpt><trkpt lat="65.977797" lon="12.527499"><ele>73.069</ele><time>2022-11-18T18:12:10Z</time></trkpt><trkpt lat="65.992961" lon="12.566595"><ele>73.682</ele><time>2022-11-18T18:12:50Z</time></trkpt><trkpt lat="66.004032" lon="12.601058"><ele>50.018</ele><time>2022-11-18T18:13:30Z</time></trkpt><trkpt lat="66.009369" lon="12.609751"><ele>36.489</ele><time>2022-11-18T18:14:10Z</time></trkpt><trkpt lat="66.017911" lon="12.631756"><ele>7.235</ele><time>2022-11-18T18:14:50Z</time></trkpt><trkpt lat="66.016165" lon="12.646072"><ele>25.686</ele><time>2022-11-18T18:15:30Z</time></trkpt><trkpt lat="66.017212" lon="12.655811"><ele>42.014</ele><time>2022-11-18T18:16:10Z</time></trkpt><trkpt lat="66.025107" lon="12.693349"><ele>8.509</ele><time>2022-11-18T18:16:50Z</time></trkpt><trkpt lat="66.029064" lon="12.697358"><ele>2.454</ele><time>2022-11-18T18:17:30Z</time></trkpt><trkpt lat="66.033093" lon="12.720831"><ele>7.984</ele><time>2022-11-18T18:18:10Z</time></trkpt><trkpt lat="66.043089" lon="12.718726"><ele>46.871</ele><time>2022-11-18T18:18:50Z</time></trkpt><trkpt lat="66.045892" lon="12.731402"><ele>46.760</ele><time>2022-11-18T18:19:30Z</time></trkpt><trkpt lat="66.049574" lon="12.735370"><ele>34.615</ele><time>2022-11-18T18:20:10Z</time></trkpt><trkpt lat="66.051739" lon="12.743663"><ele>18.157</ele><time>2022-11-18T18:20:50Z</time></trkpt><trkpt lat="66.065264" lon="12.825454"><ele>15.760</ele><time>2022-11-18T18:21:30Z</time></trkpt><trkpt lat="66.068343" lon="12.867468"><ele>24.186</ele><time>2022-11-18T18:22:10Z</time></trkpt><trkpt lat="66.066930" lon="12.923688"><ele>38.157</ele><time>2022-11-18T18:22:50Z</time></trkpt><trkpt lat="66.064068" lon="12.945515"><ele>21.068</ele><time>2022-11-18T18:23:30Z</time></trkpt><trkpt lat="66.068772" lon="12.968552"><ele>18.742</ele><time>2022-11-18T18:24:10Z</time></trkpt><trkpt lat="66.071201" lon="12.994927"><ele>9.826</ele><time>2022-11-18T18:24:50Z</time></trkpt><trkpt lat="66.080334" lon="13.038323"><ele>36.609</ele><time>2022-11-18T18:25:30Z</time></trkpt><trkpt lat="66.091568" lon="13.056471"><ele>63.077</ele><time>2022-11-18T18:26:10Z</time></trkpt><trkpt lat="66.113131" lon="13.076666"><ele>73.827</ele><time>2022-11-18T18:26:50Z</time></trkpt><trkpt lat="66.118510" lon="13.063796"><ele>76.394</ele><time>2022-11-18T18:27:30Z</time></trkpt><trkpt lat="66.135565" lon="13.066499"><ele>80.823</ele><time>2022-11-18T18:28:10Z</time></trkpt><trkpt lat="66.138552" lon="13.079882"><ele>33.668</ele><time>2022-11-18T18:28:50Z</time></trkpt><trkpt lat="66.144930" lon="13.090032"><ele>6.470</ele><time>2022-11-18T18:29:30Z</time></trkpt><trkpt lat="66.149985" lon="13.093646"><ele>15.153</ele><time>2022-11-18T18:30:10Z</time></trkpt><trkpt lat="66.153831" lon="13.101894"><ele>15.049</ele><time>2022-11-18T18:30:50Z</time></trkpt><trkpt lat="66.154822" lon="13.090597"><ele>11.030</ele><time>2022-11-18T18:31:30Z</time></trkpt><trkpt lat="66.153903" lon="13.083278"><ele>6.988</ele><time>2022-11-18T18:32:10Z</time></trkpt><trkpt lat="66.201123" lon="13.007228"><ele>0.024</ele><time>2022-11-18T18:32:50Z</time></trkpt><trkpt lat="66.199857" lon="13.020630"><ele>12.026</ele><time>2022-11-18T18:33:30Z</time></trkpt><trkpt lat="66.200922" lon="13.034306"><ele>12.009</ele><time>2022-11-18T18:34:10Z</time></trkpt><trkpt lat="66.214876" lon="13.058316"><ele>5.449</ele><time>2022-11-18T18:34:50Z</time></trkpt><trkpt lat="66.224978" lon="13.090805"><ele>11.929</ele><time>2022-11-18T18:35:30Z</time></trkpt><trkpt lat="66.235103" lon="13.108388"><ele>27.356</ele><time>2022-11-18T18:36:10Z</time></trkpt><trkpt lat="66.250230" lon="13.154975"><ele>17.175</ele><time>2022-11-18T18:36:50Z</time></trkpt><trkpt lat="66.272715" lon="13.206590"><ele>41.070</ele><time>2022-11-18T18:37:30Z</time></trkpt><trkpt lat="66.271004" lon="13.223728"><ele>84.822</ele><time>2022-11-18T18:38:10Z</time></trkpt><trkpt lat="66.271430" lon="13.229556"><ele>98.555</ele><time>2022-11-18T18:38:50Z</time></trkpt><trkpt lat="66.273421" lon="13.228491"><ele>115.451</ele><time>2022-11-18T18:39:30Z</time></trkpt><trkpt lat="66.275531" lon="13.233945"><ele>140.422</ele><time>2022-11-18T18:40:10Z</time></trkpt><trkpt lat="66.273680" lon="13.236919"><ele>159.333</ele><time>2022-11-18T18:40:50Z</time></trkpt><trkpt lat="66.274378" lon="13.249172"><ele>197.823</ele><time>2022-11-18T18:41:30Z</time></trkpt><trkpt lat="66.278706" lon="13.246223"><ele>235.215</ele><time>2022-11-18T18:42:10Z</time></trkpt><trkpt lat="66.278690" lon="13.253280"><ele>256.809</ele><time>2022-11-18T18:42:50Z</time></trkpt><trkpt lat="66.281641" lon="13.263048"><ele>295.714</ele><time>2022-11-18T18:43:30Z</time></trkpt><trkpt lat="66.280818" lon="13.269864"><ele>322.284</ele><time>2022-11-18T18:44:10Z</time></trkpt><trkpt lat="66.287347" lon="13.290274"><ele>304.841</ele><time>2022-11-18T18:44:50Z</time></trkpt><trkpt lat="66.291591" lon="13.313440"><ele>301.590</ele><time>2022-11-18T18:45:30Z</time></trkpt><trkpt lat="66.297748" lon="13.362724"><ele>309.185</ele><time>2022-11-18T18:46:10Z</time></trkpt><trkpt lat="66.298123" lon="13.402065"><ele>205.977</ele><time>2022-11-18T18:46:50Z</time></trkpt><trkpt lat="66.300074" lon="13.416337"><ele>174.390</ele><time>2022-11-18T18:47:30Z</time></trkpt><trkpt lat="66.298758" lon="13.425084"><ele>149.826</ele><time>2022-11-18T18:48:10Z</time></trkpt><trkpt lat="66.295228" lon="13.429274"><ele>128.047</ele><time>2022-11-18T18:48:50Z</time></trkpt><trkpt lat="66.296048" lon="13.439035"><ele>102.331</ele><time>2022-11-18T18:49:30Z</time></trkpt><trkpt lat="66.295045" lon="13.445065"><ele>80.661</ele><time>2022-11-18T18:50:10Z</time></trkpt><trkpt lat="66.296960" lon="13.452657"><ele>53.607</ele><time>2022-11-18T18:50:50Z</time></trkpt><trkpt lat="66.299787" lon="13.455500"><ele>27.109</ele><time>2022-11-18T18:51:30Z</time></trkpt><trkpt lat="66.304158" lon="13.499507"><ele>19.424</ele><time>2022-11-18T18:52:10Z</time></trkpt><trkpt lat="66.297863" lon="13.528093"><ele>41.984</ele><time>2022-11-18T18:52:50Z</time></trkpt><trkpt lat="66.295999" lon="13.548945"><ele>21.011</ele><time>2022-11-18T18:53:30Z</time></trkpt><trkpt lat="66.303372" lon="13.554933"><ele>31.480</ele><time>2022-11-18T18:54:10Z</time></trkpt><trkpt lat="66.304620" lon="13.567039"><ele>11.755</ele><time>2022-11-18T18:54:50Z</time></trkpt><trkpt lat="66.308491" lon="13.563191"><ele>2.837</ele><time>2022-11-18T18:55:30Z</time></trkpt><trkpt lat="66.316136" lon="13.527201"><ele>15.550</ele><time>2022-11-18T18:56:10Z</time></trkpt><trkpt lat="66.319813" lon="13.521109"><ele>30.366</ele><time>2022-11-18T18:56:50Z</time></trkpt><trkpt lat="66.321966" lon="13.498057"><ele>25.187</ele><time>2022-11-18T18:57:30Z</time></trkpt><trkpt lat="66.344139" lon="13.496428"><ele>348.661</ele><time>2022-11-18T18:58:10Z</time></trkpt><trkpt lat="66.347291" lon="13.491702"><ele>32.121</ele><time>2022-11-18T18:58:50Z</time></trkpt><trkpt lat="66.342907" lon="13.465183"><ele>12.813</ele><time>2022-11-18T18:59:30Z</time></trkpt><trkpt lat="66.345442" lon="13.456600"><ele>5.209</ele><time>2022-11-18T19:00:10Z</time></trkpt><trkpt lat="66.345378" lon="13.446722"><ele>13.877</ele><time>2022-11-18T19:00:50Z</time></trkpt><trkpt lat="66.349599" lon="13.436394"><ele>8.787</ele><time>2022-11-18T19:01:30Z</time></trkpt><trkpt lat="66.349774" lon="13.430422"><ele>11.424</ele><time>2022-11-18T19:02:10Z</time></trkpt><trkpt lat="66.336995" lon="13.405793"><ele>11.163</ele><time>2022-11-18T19:02:50Z</time></trkpt><trkpt lat="66.335680" lon="13.392553"><ele>18.938</ele><time>2022-11-18T19:03:30Z</time></trkpt><trkpt lat="66.336289" lon="13.368803"><ele>3.360</ele><time>2022-11-18T19:04:10Z</time></trkpt><trkpt lat="66.329211" lon="13.357912"><ele>20.133</ele><time>2022-11-18T19:04:50Z</time></trkpt><trkpt lat="66.324098" lon="13.331263"><ele>31.579</ele><time>2022-11-18T19:05:30Z</time></trkpt><trkpt lat="66.321020" lon="13.323029"><ele>23.180</ele><time>2022-11-18T19:06:10Z</time></trkpt><trkpt lat="66.307334" lon="13.238160"><ele>5.878</ele><time>2022-11-18T19:06:50Z</time></trkpt><trkpt lat="66.305610" lon="13.209024"><ele>11.633</ele><time>2022-11-18T19:07:30Z</time></trkpt><trkpt lat="66.309000" lon="13.188464"><ele>310.626</ele><time>2022-11-18T19:08:10Z</time></trkpt><trkpt lat="66.315630" lon="13.168659"><ele>620.909</ele><time>2022-11-18T19:08:50Z</time></trkpt><trkpt lat="66.320172" lon="13.162544"><ele>213.078</ele><time>2022-11-18T19:09:30Z</time></trkpt><trkpt lat="66.328254" lon="13.164028"><ele>8.388</ele><time>2022-11-18T19:10:10Z</time></trkpt><trkpt lat="66.333342" lon="13.151658"><ele>5.085</ele><time>2022-11-18T19:10:50Z</time></trkpt><trkpt lat="66.332921" lon="13.143234"><ele>8.914</ele><time>2022-11-18T19:11:30Z</time></trkpt><trkpt lat="66.325771" lon="13.127175"><ele>26.679</ele><time>2022-11-18T19:12:10Z</time></trkpt><trkpt lat="66.324015" lon="13.108808"><ele>26.031</ele><time>2022-11-18T19:12:50Z</time></trkpt><trkpt lat="66.318047" lon="13.080458"><ele>24.434</ele><time>2022-11-18T19:13:30Z</time></trkpt><trkpt lat="66.319284" lon="13.067081"><ele>27.580</ele><time>2022-11-18T19:14:10Z</time></trkpt><trkpt lat="66.322748" lon="13.061578"><ele>14.381</ele><time>2022-11-18T19:14:50Z</time></trkpt><trkpt lat="66.324946" lon="13.048800"><ele>12.925</ele><time>2022-11-18T19:15:30Z</time></trkpt><trkpt lat="66.339921" lon="13.007608"><ele>23.826</ele><time>2022-11-18T19:16:10Z</time></trkpt><trkpt lat="66.346608" lon="13.001573"><ele>28.008</ele><time>2022-11-18T19:16:50Z</time></trkpt><trkpt lat="66.356696" lon="13.003768"><ele>60.009</ele><time>2022-11-18T19:17:30Z</time></trkpt><trkpt lat="66.360149" lon="13.021787"><ele>29.583</ele><time>2022-11-18T19:18:10Z</time></trkpt><trkpt lat="66.367429" lon="13.038960"><ele>6.233</ele><time>2022-11-18T19:18:50Z</time></trkpt><trkpt lat="66.379284" lon="13.091386"><ele>4.350</ele><time>2022-11-18T19:19:30Z</time></trkpt><trkpt lat="66.385457" lon="13.103383"><ele>11.229</ele><time>2022-11-18T19:20:10Z</time></trkpt><trkpt lat="66.388568" lon="13.119677"><ele>3.334</ele><time>2022-11-18T19:20:50Z</time></trkpt><trkpt lat="66.397504" lon="13.133020"><ele>3.766</ele><time>2022-11-18T19:21:30Z</time></trkpt><trkpt lat="66.401904" lon="13.157203"><ele>4.649</ele><time>2022-11-18T19:22:10Z</time></trkpt><trkpt lat="66.406940" lon="13.160473"><ele>7.155</ele><time>2022-11-18T19:22:50Z</time></trkpt><trkpt lat="66.411388" lon="13.158531"><ele>5.896</ele><time>2022-11-18T19:23:30Z</time></trkpt><trkpt lat="66.429222" lon="13.142176"><ele>16.642</ele><time>2022-11-18T19:24:10Z</time></trkpt><trkpt lat="66.439436" lon="13.155045"><ele>40.122</ele><time>2022-11-18T19:24:50Z</time></trkpt><trkpt lat="66.443625" lon="13.148952"><ele>67.414</ele><time>2022-11-18T19:25:30Z</time></trkpt><trkpt lat="66.448123" lon="13.160392"><ele>72.609</ele><time>2022-11-18T19:26:10Z</time></trkpt><trkpt lat="66.448182" lon="13.174917"><ele>85.495</ele><time>2022-11-18T19:26:50Z</time></trkpt><trkpt lat="66.453464" lon="13.202448"><ele>85.435</ele><time>2022-11-18T19:27:30Z</time></trkpt><trkpt lat="66.458290" lon="13.207527"><ele>84.922</ele><time>2022-11-18T19:28:10Z</time></trkpt><trkpt lat="66.458590" lon="13.215318"><ele>64.471</ele><time>2022-11-18T19:28:50Z</time></trkpt><trkpt lat="66.462960" lon="13.227999"><ele>31.086</ele><time>2022-11-18T19:29:30Z</time></trkpt><trkpt lat="66.471894" lon="13.237546"><ele>23.638</ele><time>2022-11-18T19:30:10Z</time></trkpt><trkpt lat="66.482988" lon="13.243837"><ele>38.291</ele><time>2022-11-18T19:30:50Z</time></trkpt><trkpt lat="66.487993" lon="13.235273"><ele>23.277</ele><time>2022-11-18T19:31:30Z</time></trkpt><trkpt lat="66.486778" lon="13.227540"><ele>6.778</ele><time>2022-11-18T19:32:10Z</time></trkpt><trkpt lat="66.488831" lon="13.227087"><ele>3.068</ele><time>2022-11-18T19:32:50Z</time></trkpt><trkpt lat="66.624342" lon="13.285844"><ele>7.542</ele><time>2022-11-18T19:33:30Z</time></trkpt><trkpt lat="66.624328" lon="13.289330"><ele>5.626</ele><time>2022-11-18T19:34:10Z</time></trkpt><trkpt lat="66.620549" lon="13.294939"><ele>37.609</ele><time>2022-11-18T19:34:50Z</time></trkpt><trkpt lat="66.620000" lon="13.313284"><ele>29.247</ele><time>2022-11-18T19:35:30Z</time></trkpt><trkpt lat="66.624340" lon="13.326956"><ele>19.917</ele><time>2022-11-18T19:36:10Z</time></trkpt><trkpt lat="66.630669" lon="13.323852"><ele>34.144</ele><time>2022-11-18T19:36:50Z</time></trkpt><trkpt lat="66.633076" lon="13.326985"><ele>36.733</ele><time>2022-11-18T19:37:30Z</time></trkpt><trkpt lat="66.632448" lon="13.359933"><ele>2.138</ele><time>2022-11-18T19:38:10Z</time></trkpt><trkpt lat="66.633860" lon="13.370843"><ele>15.640</ele><time>2022-11-18T19:38:50Z</time></trkpt><trkpt lat="66.632352" lon="13.376227"><ele>8.043</ele><time>2022-11-18T19:39:30Z</time></trkpt><trkpt lat="66.635510" lon="13.388204"><ele>16.829</ele><time>2022-11-18T19:40:10Z</time></trkpt><trkpt lat="66.633570" lon="13.401595"><ele>33.370</ele><time>2022-11-18T19:40:50Z</time></trkpt><trkpt lat="66.629736" lon="13.404963"><ele>59.345</ele><time>2022-11-18T19:41:30Z</time></trkpt><trkpt lat="66.627947" lon="13.413009"><ele>89.747</ele><time>2022-11-18T19:42:10Z</time></trkpt><trkpt lat="66.621935" lon="13.457390"><ele>99.711</ele><time>2022-11-18T19:42:50Z</time></trkpt><trkpt lat="66.641275" lon="13.521269"><ele>29.309</ele><time>2022-11-18T19:43:30Z</time></trkpt><trkpt lat="66.645784" lon="13.527191"><ele>44.255</ele><time>2022-11-18T19:44:10Z</time></trkpt><trkpt lat="66.646540" lon="13.533557"><ele>45.095</ele><time>2022-11-18T19:44:50Z</time></trkpt><trkpt lat="66.644450" lon="13.548132"><ele>12.812</ele><time>2022-11-18T19:45:30Z</time></trkpt><trkpt lat="66.647401" lon="13.566564"><ele>5.581</ele><time>2022-11-18T19:46:10Z</time></trkpt><trkpt lat="66.650610" lon="13.564676"><ele>7.246</ele><time>2022-11-18T19:46:50Z</time></trkpt><trkpt lat="66.652426" lon="13.553929"><ele>9.928</ele><time>2022-11-18T19:47:30Z</time></trkpt><trkpt lat="66.657133" lon="13.545369"><ele>10.271</ele><time>2022-11-18T19:48:10Z</time></trkpt><trkpt lat="66.667795" lon="13.538558"><ele>8.477</ele><time>2022-11-18T19:48:50Z</time></trkpt><trkpt lat="66.671283" lon="13.532050"><ele>10.978</ele><time>2022-11-18T19:49:30Z</time></trkpt><trkpt lat="66.672406" lon="13.515460"><ele>31.938</ele><time>2022-11-18T19:50:10Z</time></trkpt><trkpt lat="66.676173" lon="13.503179"><ele>18.570</ele><time>2022-11-18T19:50:50Z</time></trkpt><trkpt lat="66.678578" lon="13.464104"><ele>46.417</ele><time>2022-11-18T19:51:30Z</time></trkpt><trkpt lat="66.682508" lon="13.461490"><ele>47.609</ele><time>2022-11-18T19:52:10Z</time></trkpt><trkpt lat="66.684727" lon="13.466597"><ele>35.894</ele><time>2022-11-18T19:52:50Z</time></trkpt><trkpt lat="66.691228" lon="13.468822"><ele>60.474</ele><time>2022-11-18T19:53:30Z</time></trkpt><trkpt lat="66.697957" lon="13.465437"><ele>43.341</ele><time>2022-11-18T19:54:10Z</time></trkpt><trkpt lat="66.704802" lon="13.470846"><ele>24.070</ele><time>2022-11-18T19:54:50Z</time></trkpt><trkpt lat="66.707412" lon="13.466352"><ele>24.885</ele><time>2022-11-18T19:55:30Z</time></trkpt><trkpt lat="66.713877" lon="13.465732"><ele>26.347</ele><time>2022-11-18T19:56:10Z</time></trkpt><trkpt lat="66.717285" lon="13.472317"><ele>26.340</ele><time>2022-11-18T19:56:50Z</time></trkpt><trkpt lat="66.719259" lon="13.470590"><ele>12.096</ele><time>2022-11-18T19:57:30Z</time></trkpt><trkpt lat="66.719261" lon="13.475848"><ele>4.347</ele><time>2022-11-18T19:58:10Z</time></trkpt><trkpt lat="66.720433" lon="13.476029"><ele>0.087</ele><time>2022-11-18T19:58:50Z</time></trkpt><trkpt lat="66.738567" lon="13.513745"><ele>0.042</ele><time>2022-11-18T19:59:30Z</time></trkpt><trkpt lat="66.739584" lon="13.537984"><ele>10.426</ele><time>2022-11-18T20:00:10Z</time></trkpt><trkpt lat="66.743094" lon="13.551341"><ele>6.009</ele><time>2022-11-18T20:00:50Z</time></trkpt><trkpt lat="66.744580" lon="13.581966"><ele>53.589</ele><time>2022-11-18T20:01:30Z</time></trkpt><trkpt lat="66.751882" lon="13.604142"><ele>80.259</ele><time>2022-11-18T20:02:10Z</time></trkpt><trkpt lat="66.754557" lon="13.639051"><ele>105.176</ele><time>2022-11-18T20:02:50Z</time></trkpt><trkpt lat="66.756207" lon="13.670677"><ele>116.185</ele><time>2022-11-18T20:03:30Z</time></trkpt><trkpt lat="66.753810" lon="13.699144"><ele>16.560</ele><time>2022-11-18T20:04:10Z</time></trkpt><trkpt lat="66.753015" lon="13.745117"><ele>9.442</ele><time>2022-11-18T20:04:50Z</time></trkpt><trkpt lat="66.756378" lon="13.761309"><ele>5.045</ele><time>2022-11-18T20:05:30Z</time></trkpt><trkpt lat="66.759302" lon="13.759195"><ele>6.531</ele><time>2022-11-18T20:06:10Z</time></trkpt><trkpt lat="66.761431" lon="13.706102"><ele>9.632</ele><time>2022-11-18T20:06:50Z</time></trkpt><trkpt lat="66.764147" lon="13.695788"><ele>20.321</ele><time>2022-11-18T20:07:30Z</time></trkpt><trkpt lat="66.765039" lon="13.675052"><ele>9.541</ele><time>2022-11-18T20:08:10Z</time></trkpt><trkpt lat="66.768408" lon="13.660651"><ele>12.905</ele><time>2022-11-18T20:08:50Z</time></trkpt><trkpt lat="66.771646" lon="13.620912"><ele>8.809</ele><time>2022-11-18T20:09:30Z</time></trkpt><trkpt lat="66.768239" lon="13.558245"><ele>30.853</ele><time>2022-11-18T20:10:10Z</time></trkpt><trkpt lat="66.769473" lon="13.545079"><ele>29.243</ele><time>2022-11-18T20:10:50Z</time></trkpt><trkpt lat="66.772396" lon="13.548307"><ele>5.780</ele><time>2022-11-18T20:11:30Z</time></trkpt><trkpt lat="66.776308" lon="13.536006"><ele>8.359</ele><time>2022-11-18T20:12:10Z</time></trkpt><trkpt lat="66.784854" lon="13.530009"><ele>33.084</ele><time>2022-11-18T20:12:50Z</time></trkpt><trkpt lat="66.789558" lon="13.505849"><ele>27.936</ele><time>2022-11-18T20:13:30Z</time></trkpt><trkpt lat="66.796042" lon="13.503214"><ele>16.849</ele><time>2022-11-18T20:14:10Z</time></trkpt><trkpt lat="66.800925" lon="13.508055"><ele>32.715</ele><time>2022-11-18T20:14:50Z</time></trkpt><trkpt lat="66.802034" lon="13.513688"><ele>29.896</ele><time>2022-11-18T20:15:30Z</time></trkpt><trkpt lat="66.800916" lon="13.533401"><ele>23.042</ele><time>2022-11-18T20:16:10Z</time></trkpt><trkpt lat="66.802998" lon="13.546970"><ele>40.222</ele><time>2022-11-18T20:16:50Z</time></trkpt><trkpt lat="66.804547" lon="13.583219"><ele>14.914</ele><time>2022-11-18T20:17:30Z</time></trkpt><trkpt lat="66.806685" lon="13.588703"><ele>0.009</ele><time>2022-11-18T20:18:10Z</time></trkpt><trkpt lat="66.867467" lon="13.703973"><ele>0.085</ele><time>2022-11-18T20:18:50Z</time></trkpt><trkpt lat="66.871965" lon="13.707234"><ele>4.015</ele><time>2022-11-18T20:19:30Z</time></trkpt><trkpt lat="66.875918" lon="13.701954"><ele>9.252</ele><time>2022-11-18T20:20:10Z</time></trkpt><trkpt lat="66.876635" lon="13.686171"><ele>10.141</ele><time>2022-11-18T20:20:50Z</time></trkpt><trkpt lat="66.879712" lon="13.681453"><ele>9.266</ele><time>2022-11-18T20:21:30Z</time></trkpt><trkpt lat="66.883781" lon="13.656128"><ele>10.858</ele><time>2022-11-18T20:22:10Z</time></trkpt><trkpt lat="66.903448" lon="13.647024"><ele>11.021</ele><time>2022-11-18T20:22:50Z</time></trkpt><trkpt lat="66.918319" lon="13.622088"><ele>21.047</ele><time>2022-11-18T20:23:30Z</time></trkpt><trkpt lat="66.924357" lon="13.620981"><ele>31.668</ele><time>2022-11-18T20:24:10Z</time></trkpt><trkpt lat="66.943114" lon="13.591692"><ele>21.185</ele><time>2022-11-18T20:24:50Z</time></trkpt><trkpt lat="66.949511" lon="13.600600"><ele>14.089</ele><time>2022-11-18T20:25:30Z</time></trkpt><trkpt lat="66.951536" lon="13.613180"><ele>7.617</ele><time>2022-11-18T20:26:10Z</time></trkpt><trkpt lat="66.949399" lon="13.641438"><ele>11.709</ele><time>2022-11-18T20:26:50Z</time></trkpt><trkpt lat="66.949179" lon="13.674673"><ele>9.749</ele><time>2022-11-18T20:27:30Z</time></trkpt><trkpt lat="66.944784" lon="13.705603"><ele>7.039</ele><time>2022-11-18T20:28:10Z</time></trkpt><trkpt lat="66.945292" lon="13.734071"><ele>10.496</ele><time>2022-11-18T20:28:50Z</time></trkpt><trkpt lat="66.957197" lon="13.782378"><ele>11.415</ele><time>2022-11-18T20:29:30Z</time></trkpt><trkpt lat="66.959641" lon="13.805109"><ele>7.960</ele><time>2022-11-18T20:30:10Z</time></trkpt><trkpt lat="66.958604" lon="13.836403"><ele>203.232</ele><time>2022-11-18T20:30:50Z</time></trkpt><trkpt lat="66.953758" lon="13.894008"><ele>99.065</ele><time>2022-11-18T20:31:30Z</time></trkpt><trkpt lat="66.947347" lon="13.905460"><ele>6.161</ele><time>2022-11-18T20:32:10Z</time></trkpt><trkpt lat="66.946415" lon="13.917011"><ele>19.292</ele><time>2022-11-18T20:32:50Z</time></trkpt><trkpt lat="66.952399" lon="13.945944"><ele>7.834</ele><time>2022-11-18T20:33:30Z</time></trkpt><trkpt lat="66.959357" lon="13.961573"><ele>47.755</ele><time>2022-11-18T20:34:10Z</time></trkpt><trkpt lat="66.963996" lon="13.999711"><ele>23.810</ele><time>2022-11-18T20:34:50Z</time></trkpt><trkpt lat="66.961858" lon="14.013960"><ele>6.509</ele><time>2022-11-18T20:35:30Z</time></trkpt><trkpt lat="66.975954" lon="14.018724"><ele>32.544</ele><time>2022-11-18T20:36:10Z</time></trkpt><trkpt lat="66.979541" lon="14.032756"><ele>5.764</ele><time>2022-11-18T20:36:50Z</time></trkpt><trkpt lat="66.985420" lon="14.041002"><ele>21.681</ele><time>2022-11-18T20:37:30Z</time></trkpt><trkpt lat="66.987556" lon="14.058577"><ele>44.260</ele><time>2022-11-18T20:38:10Z</time></trkpt><trkpt lat="66.984531" lon="14.069430"><ele>70.935</ele><time>2022-11-18T20:38:50Z</time></trkpt><trkpt lat="66.989684" lon="14.080631"><ele>117.847</ele><time>2022-11-18T20:39:30Z</time></trkpt><trkpt lat="66.993028" lon="14.101906"><ele>169.130</ele><time>2022-11-18T20:40:10Z</time></trkpt><trkpt lat="66.992226" lon="14.127212"><ele>115.066</ele><time>2022-11-18T20:40:50Z</time></trkpt><trkpt lat="66.983096" lon="14.146423"><ele>64.977</ele><time>2022-11-18T20:41:30Z</time></trkpt><trkpt lat="66.979177" lon="14.145523"><ele>33.289</ele><time>2022-11-18T20:42:10Z</time></trkpt><trkpt lat="66.976387" lon="14.149446"><ele>11.906</ele><time>2022-11-18T20:42:50Z</time></trkpt><trkpt lat="66.975983" lon="14.154541"><ele>10.026</ele><time>2022-11-18T20:43:30Z</time></trkpt><trkpt lat="66.986449" lon="14.165312"><ele>66.609</ele><time>2022-11-18T20:44:10Z</time></trkpt><trkpt lat="66.991137" lon="14.173872"><ele>76.259</ele><time>2022-11-18T20:44:50Z</time></trkpt><trkpt lat="66.993096" lon="14.183612"><ele>66.469</ele><time>2022-11-18T20:45:30Z</time></trkpt><trkpt lat="66.992086" lon="14.218637"><ele>15.416</ele><time>2022-11-18T20:46:10Z</time></trkpt><trkpt lat="66.999201" lon="14.241194"><ele>8.265</ele><time>2022-11-18T20:46:50Z</time></trkpt><trkpt lat="67.001191" lon="14.241371"><ele>5.170</ele><time>2022-11-18T20:47:30Z</time></trkpt><trkpt lat="67.006986" lon="14.231227"><ele>32.692</ele><time>2022-11-18T20:48:10Z</time></trkpt><trkpt lat="67.010850" lon="14.241496"><ele>7.665</ele><time>2022-11-18T20:48:50Z</time></trkpt><trkpt lat="67.032556" lon="14.261782"><ele>9.131</ele><time>2022-11-18T20:49:30Z</time></trkpt><trkpt lat="67.036158" lon="14.269051"><ele>8.922</ele><time>2022-11-18T20:50:10Z</time></trkpt><trkpt lat="67.055500" lon="14.277095"><ele>5.731</ele><time>2022-11-18T20:50:50Z</time></trkpt><trkpt lat="67.060263" lon="14.262781"><ele>16.961</ele><time>2022-11-18T20:51:30Z</time></trkpt><trkpt lat="67.065032" lon="14.263282"><ele>7.307</ele><time>2022-11-18T20:52:10Z</time></trkpt><trkpt lat="67.070125" lon="14.257397"><ele>37.009</ele><time>2022-11-18T20:52:50Z</time></trkpt><trkpt lat="67.070125" lon="14.257397"><ele>37.034</ele><time>2022-11-18T20:53:30Z</time></trkpt><trkpt lat="67.077079" lon="14.275785"><ele>79.564</ele><time>2022-11-18T20:54:10Z</time></trkpt><trkpt lat="67.079126" lon="14.313171"><ele>9.651</ele><time>2022-11-18T20:54:50Z</time></trkpt><trkpt lat="67.081427" lon="14.327696"><ele>6.440</ele><time>2022-11-18T20:55:30Z</time></trkpt><trkpt lat="67.083107" lon="14.326962"><ele>4.895</ele><time>2022-11-18T20:56:10Z</time></trkpt><trkpt lat="67.085669" lon="14.313933"><ele>18.867</ele><time>2022-11-18T20:56:50Z</time></trkpt><trkpt lat="67.095351" lon="14.309344"><ele>12.750</ele><time>2022-11-18T20:57:30Z</time></trkpt><trkpt lat="67.102645" lon="14.309312"><ele>36.996</ele><time>2022-11-18T20:58:10Z</time></trkpt><trkpt lat="67.106322" lon="14.319289"><ele>63.597</ele><time>2022-11-18T20:58:50Z</time></trkpt><trkpt lat="67.114022" lon="14.316626"><ele>57.066</ele><time>2022-11-18T20:59:30Z</time></trkpt><trkpt lat="67.119762" lon="14.320318"><ele>22.129</ele><time>2022-11-18T21:00:10Z</time></trkpt><trkpt lat="67.123840" lon="14.332417"><ele>33.321</ele><time>2022-11-18T21:00:50Z</time></trkpt><trkpt lat="67.126244" lon="14.351511"><ele>62.309</ele><time>2022-11-18T21:01:30Z</time></trkpt><trkpt lat="67.143780" lon="14.387556"><ele>204.287</ele><time>2022-11-18T21:02:10Z</time></trkpt><trkpt lat="67.147903" lon="14.402845"><ele>182.967</ele><time>2022-11-18T21:02:50Z</time></trkpt><trkpt lat="67.155058" lon="14.407336"><ele>167.264</ele><time>2022-11-18T21:03:30Z</time></trkpt><trkpt lat="67.161980" lon="14.423213"><ele>133.393</ele><time>2022-11-18T21:04:10Z</time></trkpt><trkpt lat="67.166098" lon="14.447410"><ele>139.998</ele><time>2022-11-18T21:04:50Z</time></trkpt><trkpt lat="67.171846" lon="14.448970"><ele>120.150</ele><time>2022-11-18T21:05:30Z</time></trkpt><trkpt lat="67.179851" lon="14.464712"><ele>61.863</ele><time>2022-11-18T21:06:10Z</time></trkpt><trkpt lat="67.183141" lon="14.495129"><ele>14.579</ele><time>2022-11-18T21:06:50Z</time></trkpt><trkpt lat="67.180642" lon="14.514394"><ele>19.310</ele><time>2022-11-18T21:07:30Z</time></trkpt><trkpt lat="67.177768" lon="14.569632"><ele>14.148</ele><time>2022-11-18T21:08:10Z</time></trkpt><trkpt lat="67.180979" lon="14.583137"><ele>23.761</ele><time>2022-11-18T21:08:50Z</time></trkpt><trkpt lat="67.180853" lon="14.599351"><ele>70.717</ele><time>2022-11-18T21:09:30Z</time></trkpt><trkpt lat="67.195097" lon="14.605542"><ele>15.009</ele><time>2022-11-18T21:10:10Z</time></trkpt><trkpt lat="67.196991" lon="14.619868"><ele>14.985</ele><time>2022-11-18T21:10:50Z</time></trkpt><trkpt lat="67.196517" lon="14.628400"><ele>4.155</ele><time>2022-11-18T21:11:30Z</time></trkpt><trkpt lat="67.199926" lon="14.634204"><ele>4.192</ele><time>2022-11-18T21:12:10Z</time></trkpt><trkpt lat="67.207192" lon="14.606855"><ele>36.231</ele><time>2022-11-18T21:12:50Z</time></trkpt><trkpt lat="67.210585" lon="14.610813"><ele>61.156</ele><time>2022-11-18T21:13:30Z</time></trkpt><trkpt lat="67.212719" lon="14.621366"><ele>75.058</ele><time>2022-11-18T21:14:10Z</time></trkpt><trkpt lat="67.216099" lon="14.626092"><ele>54.431</ele><time>2022-11-18T21:14:50Z</time></trkpt><trkpt lat="67.221618" lon="14.613522"><ele>3.947</ele><time>2022-11-18T21:15:30Z</time></trkpt><trkpt lat="67.229217" lon="14.604653"><ele>27.638</ele><time>2022-11-18T21:16:10Z</time></trkpt><trkpt lat="67.233900" lon="14.624503"><ele>29.034</ele><time>2022-11-18T21:16:50Z</time></trkpt><trkpt lat="67.236735" lon="14.649742"><ele>28.055</ele><time>2022-11-18T21:17:30Z</time></trkpt><trkpt lat="67.235744" lon="14.676531"><ele>27.010</ele><time>2022-11-18T21:18:10Z</time></trkpt><trkpt lat="67.238261" lon="14.708438"><ele>11.809</ele><time>2022-11-18T21:18:50Z</time></trkpt><trkpt lat="67.244186" lon="14.721739"><ele>7.294</ele><time>2022-11-18T21:19:30Z</time></trkpt><trkpt lat="67.245934" lon="14.720354"><ele>9.884</ele><time>2022-11-18T21:20:10Z</time></trkpt><trkpt lat="67.247880" lon="14.706776"><ele>11.321</ele><time>2022-11-18T21:20:50Z</time></trkpt><trkpt lat="67.252492" lon="14.707606"><ele>37.340</ele><time>2022-11-18T21:21:30Z</time></trkpt><trkpt lat="67.264608" lon="14.738005"><ele>22.875</ele><time>2022-11-18T21:22:10Z</time></trkpt><trkpt lat="67.269940" lon="14.735722"><ele>24.997</ele><time>2022-11-18T21:22:50Z</time></trkpt><trkpt lat="67.273364" lon="14.725538"><ele>10.010</ele><time>2022-11-18T21:23:30Z</time></trkpt><trkpt lat="67.275749" lon="14.730191"><ele>10.156</ele><time>2022-11-18T21:24:10Z</time></trkpt><trkpt lat="67.279569" lon="14.724556"><ele>13.817</ele><time>2022-11-18T21:24:50Z</time></trkpt><trkpt lat="67.282903" lon="14.733997"><ele>6.933</ele><time>2022-11-18T21:25:30Z</time></trkpt><trkpt lat="67.290224" lon="14.726022"><ele>10.923</ele><time>2022-11-18T21:26:10Z</time></trkpt><trkpt lat="67.297381" lon="14.729516"><ele>11.715</ele><time>2022-11-18T21:26:50Z</time></trkpt><trkpt lat="67.300625" lon="14.738238"><ele>19.809</ele><time>2022-11-18T21:27:30Z</time></trkpt><trkpt lat="67.303580" lon="14.733983"><ele>0.364</ele><time>2022-11-18T21:28:10Z</time></trkpt><trkpt lat="67.305001" lon="14.717267"><ele>0.064</ele><time>2022-11-18T21:28:50Z</time></trkpt><trkpt lat="67.298997" lon="14.685431"><ele>18.441</ele><time>2022-11-18T21:29:30Z</time></trkpt><trkpt lat="67.294961" lon="14.673281"><ele>14.850</ele><time>2022-11-18T21:30:10Z</time></trkpt><trkpt lat="67.290181" lon="14.625255"><ele>9.935</ele><time>2022-11-18T21:30:50Z</time></trkpt><trkpt lat="67.289886" lon="14.609449"><ele>9.217</ele><time>2022-11-18T21:31:30Z</time></trkpt><trkpt lat="67.276898" lon="14.502661"><ele>30.140</ele><time>2022-11-18T21:32:10Z</time></trkpt><trkpt lat="67.278254" lon="14.485523"><ele>40.636</ele><time>2022-11-18T21:32:50Z</time></trkpt><trkpt lat="67.275101" lon="14.442526"><ele>21.017</ele><time>2022-11-18T21:33:30Z</time></trkpt><trkpt lat="67.284545" lon="14.408167"><ele>22.033</ele><time>2022-11-18T21:34:10Z</time></trkpt><trkpt lat="67.286303" lon="14.398839"><ele>14.823</ele><time>2022-11-18T21:34:50Z</time></trkpt><trkpt lat="67.286005" lon="14.389545"><ele>6.315</ele><time>2022-11-18T21:35:30Z</time></trkpt><trkpt lat="67.288357" lon="14.393659"><ele>0.009</ele><time>2022-11-18T21:36:10Z</time></trkpt><trkpt lat="67.899831" lon="13.043785"><ele>0.014</ele><time>2022-11-18T21:36:50Z</time></trkpt><trkpt lat="67.901221" lon="13.046376"><ele>7.774</ele><time>2022-11-18T21:37:30Z</time></trkpt><trkpt lat="67.902330" lon="13.041556"><ele>11.321</ele><time>2022-11-18T21:38:10Z</time></trkpt><trkpt lat="67.907305" lon="13.050461"><ele>26.270</ele><time>2022-11-18T21:38:50Z</time></trkpt><trkpt lat="67.910248" lon="13.069932"><ele>25.885</ele><time>2022-11-18T21:39:30Z</time></trkpt><trkpt lat="67.914915" lon="13.080380"><ele>16.867</ele><time>2022-11-18T21:40:10Z</time></trkpt><trkpt lat="67.922339" lon="13.078406"><ele>16.010</ele><time>2022-11-18T21:40:50Z</time></trkpt><trkpt lat="67.928031" lon="13.083470"><ele>23.026</ele><time>2022-11-18T21:41:30Z</time></trkpt><trkpt lat="67.932373" lon="13.074561"><ele>10.227</ele><time>2022-11-18T21:42:10Z</time></trkpt><trkpt lat="67.938676" lon="13.073843"><ele>6.074</ele><time>2022-11-18T21:42:50Z</time></trkpt><trkpt lat="67.939666" lon="13.076908"><ele>0.156</ele><time>2022-11-18T21:43:30Z</time></trkpt><trkpt lat="67.939088" lon="13.090507"><ele>8.921</ele><time>2022-11-18T21:44:10Z</time></trkpt><trkpt lat="67.942628" lon="13.101086"><ele>3.509</ele><time>2022-11-18T21:44:50Z</time></trkpt><trkpt lat="67.941238" lon="13.117758"><ele>4.748</ele><time>2022-11-18T21:45:30Z</time></trkpt><trkpt lat="67.944968" lon="13.123633"><ele>9.398</ele><time>2022-11-18T21:46:10Z</time></trkpt><trkpt lat="67.945769" lon="13.136479"><ele>6.855</ele><time>2022-11-18T21:46:50Z</time></trkpt><trkpt lat="67.951147" lon="13.137037"><ele>8.564</ele><time>2022-11-18T21:47:30Z</time></trkpt><trkpt lat="67.959327" lon="13.145237"><ele>15.379</ele><time>2022-11-18T21:48:10Z</time></trkpt><trkpt lat="67.962054" lon="13.151063"><ele>44.911</ele><time>2022-11-18T21:48:50Z</time></trkpt><trkpt lat="67.965224" lon="13.168435"><ele>45.334</ele><time>2022-11-18T21:49:30Z</time></trkpt><trkpt lat="67.971517" lon="13.175851"><ele>24.290</ele><time>2022-11-18T21:50:10Z</time></trkpt><trkpt lat="67.975609" lon="13.185385"><ele>26.261</ele><time>2022-11-18T21:50:50Z</time></trkpt><trkpt lat="67.991540" lon="13.166619"><ele>5.048</ele><time>2022-11-18T21:51:30Z</time></trkpt><trkpt lat="67.999498" lon="13.175131"><ele>10.261</ele><time>2022-11-18T21:52:10Z</time></trkpt><trkpt lat="68.004707" lon="13.176283"><ele>13.317</ele><time>2022-11-18T21:52:50Z</time></trkpt><trkpt lat="68.006624" lon="13.169798"><ele>0.609</ele><time>2022-11-18T21:53:30Z</time></trkpt><trkpt lat="68.010618" lon="13.167030"><ele>8.735</ele><time>2022-11-18T21:54:10Z</time></trkpt><trkpt lat="68.021090" lon="13.184945"><ele>13.785</ele><time>2022-11-18T21:54:50Z</time></trkpt><trkpt lat="68.028656" lon="13.177220"><ele>8.072</ele><time>2022-11-18T21:55:30Z</time></trkpt><trkpt lat="68.031960" lon="13.179599"><ele>6.111</ele><time>2022-11-18T21:56:10Z</time></trkpt><trkpt lat="68.038232" lon="13.171610"><ele>6.436</ele><time>2022-11-18T21:56:50Z</time></trkpt><trkpt lat="68.045093" lon="13.171390"><ele>22.728</ele><time>2022-11-18T21:57:30Z</time></trkpt><trkpt lat="68.064609" lon="13.195073"><ele>12.951</ele><time>2022-11-18T21:58:10Z</time></trkpt><trkpt lat="68.073574" lon="13.199861"><ele>13.267</ele><time>2022-11-18T21:58:50Z</time></trkpt><trkpt lat="68.074694" lon="13.212058"><ele>14.418</ele><time>2022-11-18T21:59:30Z</time></trkpt><trkpt lat="68.073831" lon="13.239280"><ele>3.945</ele><time>2022-11-18T22:00:10Z</time></trkpt><trkpt lat="68.078417" lon="13.238216"><ele>6.247</ele><time>2022-11-18T22:00:50Z</time></trkpt><trkpt lat="68.087603" lon="13.228552"><ele>3.811</ele><time>2022-11-18T22:01:30Z</time></trkpt><trkpt lat="68.090805" lon="13.231023"><ele>5.909</ele><time>2022-11-18T22:02:10Z</time></trkpt><trkpt lat="68.095696" lon="13.244136"><ele>9.935</ele><time>2022-11-18T22:02:50Z</time></trkpt><trkpt lat="68.100825" lon="13.247731"><ele>22.825</ele><time>2022-11-18T22:03:30Z</time></trkpt><trkpt lat="68.103099" lon="13.255712"><ele>18.182</ele><time>2022-11-18T22:04:10Z</time></trkpt><trkpt lat="68.104244" lon="13.276031"><ele>5.941</ele><time>2022-11-18T22:04:50Z</time></trkpt><trkpt lat="68.101080" lon="13.321981"><ele>7.026</ele><time>2022-11-18T22:05:30Z</time></trkpt><trkpt lat="68.087014" lon="13.307985"><ele>12.068</ele><time>2022-11-18T22:06:10Z</time></trkpt><trkpt lat="68.083803" lon="13.292611"><ele>4.361</ele><time>2022-11-18T22:06:50Z</time></trkpt><trkpt lat="68.079864" lon="13.293894"><ele>5.057</ele><time>2022-11-18T22:07:30Z</time></trkpt><trkpt lat="68.072497" lon="13.333419"><ele>6.098</ele><time>2022-11-18T22:08:10Z</time></trkpt><trkpt lat="68.072187" lon="13.341681"><ele>5.185</ele><time>2022-11-18T22:08:50Z</time></trkpt><trkpt lat="68.076227" lon="13.346837"><ele>6.189</ele><time>2022-11-18T22:09:30Z</time></trkpt><trkpt lat="68.093259" lon="13.336963"><ele>7.017</ele><time>2022-11-18T22:10:10Z</time></trkpt><trkpt lat="68.102459" lon="13.344276"><ele>5.409</ele><time>2022-11-18T22:10:50Z</time></trkpt><trkpt lat="68.109980" lon="13.341442"><ele>9.839</ele><time>2022-11-18T22:11:30Z</time></trkpt><trkpt lat="68.118432" lon="13.347009"><ele>11.799</ele><time>2022-11-18T22:12:10Z</time></trkpt><trkpt lat="68.124372" lon="13.377612"><ele>17.416</ele><time>2022-11-18T22:12:50Z</time></trkpt><trkpt lat="68.129298" lon="13.387748"><ele>39.915</ele><time>2022-11-18T22:13:30Z</time></trkpt><trkpt lat="68.129089" lon="13.401746"><ele>47.940</ele><time>2022-11-18T22:14:10Z</time></trkpt><trkpt lat="68.135096" lon="13.447340"><ele>4.432</ele><time>2022-11-18T22:14:50Z</time></trkpt><trkpt lat="68.139037" lon="13.455146"><ele>7.795</ele><time>2022-11-18T22:15:30Z</time></trkpt><trkpt lat="68.144383" lon="13.456045"><ele>0.341</ele><time>2022-11-18T22:16:10Z</time></trkpt><trkpt lat="68.149784" lon="13.473357"><ele>0.032</ele><time>2022-11-18T22:16:50Z</time></trkpt><trkpt lat="68.149889" lon="13.479866"><ele>29.171</ele><time>2022-11-18T22:17:30Z</time></trkpt><trkpt lat="68.147471" lon="13.488222"><ele>17.141</ele><time>2022-11-18T22:18:10Z</time></trkpt><trkpt lat="68.147996" lon="13.499662"><ele>25.615</ele><time>2022-11-18T22:18:50Z</time></trkpt><trkpt lat="68.156590" lon="13.521864"><ele>15.009</ele><time>2022-11-18T22:19:30Z</time></trkpt><trkpt lat="68.156126" lon="13.529601"><ele>9.598</ele><time>2022-11-18T22:20:10Z</time></trkpt><trkpt lat="68.150641" lon="13.542529"><ele>11.038</ele><time>2022-11-18T22:20:50Z</time></trkpt><trkpt lat="68.142635" lon="13.548430"><ele>12.565</ele><time>2022-11-18T22:21:30Z</time></trkpt><trkpt lat="68.136301" lon="13.560535"><ele>12.334</ele><time>2022-11-18T22:22:10Z</time></trkpt><trkpt lat="68.137494" lon="13.572342"><ele>8.069</ele><time>2022-11-18T22:22:50Z</time></trkpt><trkpt lat="68.141815" lon="13.584168"><ele>11.051</ele><time>2022-11-18T22:23:30Z</time></trkpt><trkpt lat="68.147337" lon="13.611386"><ele>10.094</ele><time>2022-11-18T22:24:10Z</time></trkpt><trkpt lat="68.147337" lon="13.611386"><ele>10.080</ele><time>2022-11-18T22:24:50Z</time></trkpt><trkpt lat="68.143839" lon="13.627382"><ele>9.361</ele><time>2022-11-18T22:25:30Z</time></trkpt><trkpt lat="68.144205" lon="13.645873"><ele>3.466</ele><time>2022-11-18T22:26:10Z</time></trkpt><trkpt lat="68.148816" lon="13.657127"><ele>17.729</ele><time>2022-11-18T22:26:50Z</time></trkpt><trkpt lat="68.148861" lon="13.668931"><ele>24.921</ele><time>2022-11-18T22:27:30Z</time></trkpt><trkpt lat="68.151953" lon="13.673576"><ele>46.709</ele><time>2022-11-18T22:28:10Z</time></trkpt><trkpt lat="68.157714" lon="13.693582"><ele>107.857</ele><time>2022-11-18T22:28:50Z</time></trkpt><trkpt lat="68.155084" lon="13.733069"><ele>30.287</ele><time>2022-11-18T22:29:30Z</time></trkpt><trkpt lat="68.157368" lon="13.748810"><ele>13.134</ele><time>2022-11-18T22:30:10Z</time></trkpt><trkpt lat="68.156009" lon="13.779774"><ele>16.273</ele><time>2022-11-18T22:30:50Z</time></trkpt><trkpt lat="68.158209" lon="13.783506"><ele>12.148</ele><time>2022-11-18T22:31:30Z</time></trkpt><trkpt lat="68.161334" lon="13.782062"><ele>10.530</ele><time>2022-11-18T22:32:10Z</time></trkpt><trkpt lat="68.164272" lon="13.788214"><ele>4.683</ele><time>2022-11-18T22:32:50Z</time></trkpt><trkpt lat="68.166749" lon="13.804210"><ele>7.689</ele><time>2022-11-18T22:33:30Z</time></trkpt><trkpt lat="68.168364" lon="13.842972"><ele>10.690</ele><time>2022-11-18T22:34:10Z</time></trkpt><trkpt lat="68.182329" lon="13.853030"><ele>11.487</ele><time>2022-11-18T22:34:50Z</time></trkpt><trkpt lat="68.184357" lon="13.860320"><ele>9.742</ele><time>2022-11-18T22:35:30Z</time></trkpt><trkpt lat="68.189988" lon="13.860711"><ele>3.426</ele><time>2022-11-18T22:36:10Z</time></trkpt><trkpt lat="68.196515" lon="13.881939"><ele>6.809</ele><time>2022-11-18T22:36:50Z</time></trkpt><trkpt lat="68.199855" lon="13.885060"><ele>6.099</ele><time>2022-11-18T22:37:30Z</time></trkpt><trkpt lat="68.203703" lon="13.880826"><ele>3.769</ele><time>2022-11-18T22:38:10Z</time></trkpt><trkpt lat="68.205668" lon="13.887042"><ele>2.466</ele><time>2022-11-18T22:38:50Z</time></trkpt><trkpt lat="68.204732" lon="13.894601"><ele>5.795</ele><time>2022-11-18T22:39:30Z</time></trkpt><trkpt lat="68.201564" lon="13.898577"><ele>4.570</ele><time>2022-11-18T22:40:10Z</time></trkpt><trkpt lat="68.187747" lon="13.892045"><ele>6.762</ele><time>2022-11-18T22:40:50Z</time></trkpt><trkpt lat="68.184552" lon="13.893716"><ele>12.295</ele><time>2022-11-18T22:41:30Z</time></trkpt><trkpt lat="68.183233" lon="13.902526"><ele>13.991</ele><time>2022-11-18T22:42:10Z</time></trkpt><trkpt lat="68.181953" lon="13.916426"><ele>6.292</ele><time>2022-11-18T22:42:50Z</time></trkpt><trkpt lat="68.184057" lon="13.926552"><ele>9.128</ele><time>2022-11-18T22:43:30Z</time></trkpt><trkpt lat="68.194545" lon="13.938823"><ele>5.789</ele><time>2022-11-18T22:44:10Z</time></trkpt><trkpt lat="68.197494" lon="13.963034"><ele>6.017</ele><time>2022-11-18T22:44:50Z</time></trkpt><trkpt lat="68.200811" lon="13.969161"><ele>11.909</ele><time>2022-11-18T22:45:30Z</time></trkpt><trkpt lat="68.201769" lon="13.979756"><ele>6.443</ele><time>2022-11-18T22:46:10Z</time></trkpt><trkpt lat="68.201543" lon="13.993744"><ele>5.613</ele><time>2022-11-18T22:46:50Z</time></trkpt><trkpt lat="68.197264" lon="13.996294"><ele>5.350</ele><time>2022-11-18T22:47:30Z</time></trkpt><trkpt lat="68.192329" lon="14.007474"><ele>8.979</ele><time>2022-11-18T22:48:10Z</time></trkpt><trkpt lat="68.190971" lon="14.016010"><ele>11.034</ele><time>2022-11-18T22:48:50Z</time></trkpt><trkpt lat="68.191751" lon="14.020994"><ele>11.116</ele><time>2022-11-18T22:49:30Z</time></trkpt><trkpt lat="68.195603" lon="14.035815"><ele>5.919</ele><time>2022-11-18T22:50:10Z</time></trkpt><trkpt lat="68.202708" lon="14.036503"><ele>5.955</ele><time>2022-11-18T22:50:50Z</time></trkpt><trkpt lat="68.206135" lon="14.041573"><ele>9.056</ele><time>2022-11-18T22:51:30Z</time></trkpt><trkpt lat="68.209103" lon="14.053785"><ele>6.846</ele><time>2022-11-18T22:52:10Z</time></trkpt><trkpt lat="68.215605" lon="14.055994"><ele>11.788</ele><time>2022-11-18T22:52:50Z</time></trkpt><trkpt lat="68.221919" lon="14.071444"><ele>7.016</ele><time>2022-11-18T22:53:30Z</time></trkpt><trkpt lat="68.227547" lon="14.077430"><ele>7.009</ele><time>2022-11-18T22:54:10Z</time></trkpt><trkpt lat="68.230572" lon="14.085434"><ele>7.165</ele><time>2022-11-18T22:54:50Z</time></trkpt><trkpt lat="68.233869" lon="14.112219"><ele>15.085</ele><time>2022-11-18T22:55:30Z</time></trkpt><trkpt lat="68.242840" lon="14.122127"><ele>15.752</ele><time>2022-11-18T22:56:10Z</time></trkpt><trkpt lat="68.246911" lon="14.135024"><ele>15.851</ele><time>2022-11-18T22:56:50Z</time></trkpt><trkpt lat="68.247023" lon="14.143812"><ele>6.046</ele><time>2022-11-18T22:57:30Z</time></trkpt><trkpt lat="68.249104" lon="14.151221"><ele>6.548</ele><time>2022-11-18T22:58:10Z</time></trkpt><trkpt lat="68.259004" lon="14.164048"><ele>25.121</ele><time>2022-11-18T22:58:50Z</time></trkpt><trkpt lat="68.268569" lon="14.151646"><ele>7.567</ele><time>2022-11-18T22:59:30Z</time></trkpt><trkpt lat="68.265602" lon="14.176108"><ele>3.838</ele><time>2022-11-18T23:00:10Z</time></trkpt><trkpt lat="68.257191" lon="14.202701"><ele>8.095</ele><time>2022-11-18T23:00:50Z</time></trkpt><trkpt lat="68.259638" lon="14.229930"><ele>7.749</ele><time>2022-11-18T23:01:30Z</time></trkpt><trkpt lat="68.263215" lon="14.243092"><ele>7.623</ele><time>2022-11-18T23:02:10Z</time></trkpt><trkpt lat="68.259597" lon="14.275024"><ele>17.809</ele><time>2022-11-18T23:02:50Z</time></trkpt><trkpt lat="68.240988" lon="14.281382"><ele>6.280</ele><time>2022-11-18T23:03:30Z</time></trkpt><trkpt lat="68.239131" lon="14.252842"><ele>11.740</ele><time>2022-11-18T23:04:10Z</time></trkpt><trkpt lat="68.229097" lon="14.224352"><ele>28.467</ele><time>2022-11-18T23:04:50Z</time></trkpt><trkpt lat="68.216120" lon="14.214441"><ele>15.986</ele><time>2022-11-18T23:05:30Z</time></trkpt><trkpt lat="68.211362" lon="14.222046"><ele>11.811</ele><time>2022-11-18T23:06:10Z</time></trkpt><trkpt lat="68.206082" lon="14.223625"><ele>23.533</ele><time>2022-11-18T23:06:50Z</time></trkpt><trkpt lat="68.208454" lon="14.264967"><ele>40.746</ele><time>2022-11-18T23:07:30Z</time></trkpt><trkpt lat="68.206673" lon="14.282080"><ele>42.672</ele><time>2022-11-18T23:08:10Z</time></trkpt><trkpt lat="68.215119" lon="14.317684"><ele>7.023</ele><time>2022-11-18T23:08:50Z</time></trkpt><trkpt lat="68.211311" lon="14.354823"><ele>20.769</ele><time>2022-11-18T23:09:30Z</time></trkpt><trkpt lat="68.214793" lon="14.402402"><ele>2.004</ele><time>2022-11-18T23:10:10Z</time></trkpt><trkpt lat="68.212854" lon="14.416975"><ele>17.624</ele><time>2022-11-18T23:10:50Z</time></trkpt><trkpt lat="68.215192" lon="14.436407"><ele>8.809</ele><time>2022-11-18T23:11:30Z</time></trkpt><trkpt lat="68.211889" lon="14.477240"><ele>8.687</ele><time>2022-11-18T23:12:10Z</time></trkpt><trkpt lat="68.213499" lon="14.482243"><ele>8.037</ele><time>2022-11-18T23:12:50Z</time></trkpt><trkpt lat="68.216265" lon="14.483457"><ele>5.694</ele><time>2022-11-18T23:13:30Z</time></trkpt><trkpt lat="68.221436" lon="14.502306"><ele>21.393</ele><time>2022-11-18T23:14:10Z</time></trkpt><trkpt lat="68.225374" lon="14.526291"><ele>36.988</ele><time>2022-11-18T23:14:50Z</time></trkpt><trkpt lat="68.228004" lon="14.532014"><ele>26.460</ele><time>2022-11-18T23:15:30Z</time></trkpt><trkpt lat="68.231290" lon="14.531394"><ele>11.423</ele><time>2022-11-18T23:16:10Z</time></trkpt><trkpt lat="68.234630" lon="14.536766"><ele>11.359</ele><time>2022-11-18T23:16:50Z</time></trkpt><trkpt lat="68.236301" lon="14.545471"><ele>1.320</ele><time>2022-11-18T23:17:30Z</time></trkpt><trkpt lat="68.235864" lon="14.561291"><ele>5.886</ele><time>2022-11-18T23:18:10Z</time></trkpt><trkpt lat="68.235864" lon="14.561291"><ele>5.860</ele><time>2022-11-18T23:18:50Z</time></trkpt><trkpt lat="68.243151" lon="14.577905"><ele>4.526</ele><time>2022-11-18T23:19:30Z</time></trkpt><trkpt lat="68.242005" lon="14.592173"><ele>8.209</ele><time>2022-11-18T23:20:10Z</time></trkpt><trkpt lat="68.245881" lon="14.632131"><ele>9.859</ele><time>2022-11-18T23:20:50Z</time></trkpt><trkpt lat="68.243589" lon="14.635748"><ele>44.589</ele><time>2022-11-18T23:21:30Z</time></trkpt><trkpt lat="68.244601" lon="14.653613"><ele>3.766</ele><time>2022-11-18T23:22:10Z</time></trkpt><trkpt lat="68.246686" lon="14.658972"><ele>4.015</ele><time>2022-11-18T23:22:50Z</time></trkpt><trkpt lat="68.250732" lon="14.663131"><ele>5.420</ele><time>2022-11-18T23:23:30Z</time></trkpt><trkpt lat="68.258874" lon="14.657258"><ele>9.582</ele><time>2022-11-18T23:24:10Z</time></trkpt><trkpt lat="68.265929" lon="14.659719"><ele>4.325</ele><time>2022-11-18T23:24:50Z</time></trkpt><trkpt lat="68.274463" lon="14.656913"><ele>13.421</ele><time>2022-11-18T23:25:30Z</time></trkpt><trkpt lat="68.277522" lon="14.662918"><ele>3.932</ele><time>2022-11-18T23:26:10Z</time></trkpt><trkpt lat="68.283358" lon="14.659860"><ele>3.873</ele><time>2022-11-18T23:26:50Z</time></trkpt><trkpt lat="68.284228" lon="14.676212"><ele>9.185</ele><time>2022-11-18T23:27:30Z</time></trkpt><trkpt lat="68.287901" lon="14.694533"><ele>10.113</ele><time>2022-11-18T23:28:10Z</time></trkpt><trkpt lat="68.294997" lon="14.698405"><ele>7.509</ele><time>2022-11-18T23:28:50Z</time></trkpt><trkpt lat="68.300277" lon="14.706460"><ele>16.048</ele><time>2022-11-18T23:29:30Z</time></trkpt><trkpt lat="68.315700" lon="14.714456"><ele>29.058</ele><time>2022-11-18T23:30:10Z</time></trkpt><trkpt lat="68.319629" lon="14.700573"><ele>4.345</ele><time>2022-11-18T23:30:50Z</time></trkpt><trkpt lat="68.324270" lon="14.696771"><ele>5.944</ele><time>2022-11-18T23:31:30Z</time></trkpt><trkpt lat="68.325266" lon="14.686974"><ele>3.789</ele><time>2022-11-18T23:32:10Z</time></trkpt><trkpt lat="68.323730" lon="14.674720"><ele>7.131</ele><time>2022-11-18T23:32:50Z</time></trkpt><trkpt lat="68.326435" lon="14.651624"><ele>4.264</ele><time>2022-11-18T23:33:30Z</time></trkpt><trkpt lat="68.320374" lon="14.644641"><ele>8.450</ele><time>2022-11-18T23:34:10Z</time></trkpt><trkpt lat="68.317605" lon="14.624621"><ele>26.141</ele><time>2022-11-18T23:34:50Z</time></trkpt><trkpt lat="68.317637" lon="14.598665"><ele>33.972</ele><time>2022-11-18T23:35:30Z</time></trkpt><trkpt lat="68.313020" lon="14.574836"><ele>38.813</ele><time>2022-11-18T23:36:10Z</time></trkpt><trkpt lat="68.322032" lon="14.538636"><ele>20.314</ele><time>2022-11-18T23:36:50Z</time></trkpt><trkpt lat="68.325856" lon="14.510057"><ele>15.909</ele><time>2022-11-18T23:37:30Z</time></trkpt><trkpt lat="68.331447" lon="14.510544"><ele>4.968</ele><time>2022-11-18T23:38:10Z</time></trkpt><trkpt lat="68.340041" lon="14.485348"><ele>17.258</ele><time>2022-11-18T23:38:50Z</time></trkpt><trkpt lat="68.346399" lon="14.495217"><ele>16.765</ele><time>2022-11-18T23:39:30Z</time></trkpt><trkpt lat="68.351087" lon="14.494418"><ele>5.624</ele><time>2022-11-18T23:40:10Z</time></trkpt><trkpt lat="68.361857" lon="14.478497"><ele>11.099</ele><time>2022-11-18T23:40:50Z</time></trkpt><trkpt lat="68.366645" lon="14.462532"><ele>5.851</ele><time>2022-11-18T23:41:30Z</time></trkpt><trkpt lat="68.384361" lon="14.461070"><ele>6.974</ele><time>2022-11-18T23:42:10Z</time></trkpt><trkpt lat="68.393247" lon="14.466273"><ele>5.020</ele><time>2022-11-18T23:42:50Z</time></trkpt><trkpt lat="68.393537" lon="14.481418"><ele>2.911</ele><time>2022-11-18T23:43:30Z</time></trkpt><trkpt lat="68.401762" lon="14.503687"><ele>6.157</ele><time>2022-11-18T23:44:10Z</time></trkpt><trkpt lat="68.403053" lon="14.514374"><ele>9.000</ele><time>2022-11-18T23:44:50Z</time></trkpt><trkpt lat="68.400512" lon="14.526324"><ele>14.720</ele><time>2022-11-18T23:45:30Z</time></trkpt><trkpt lat="68.395836" lon="14.537227"><ele>3.909</ele><time>2022-11-18T23:46:10Z</time></trkpt><trkpt lat="68.394456" lon="14.557759"><ele>5.876</ele><time>2022-11-18T23:46:50Z</time></trkpt><trkpt lat="68.398686" lon="14.568759"><ele>6.396</ele><time>2022-11-18T23:47:30Z</time></trkpt><trkpt lat="68.398853" lon="14.581315"><ele>11.543</ele><time>2022-11-18T23:48:10Z</time></trkpt><trkpt lat="68.402132" lon="14.581895"><ele>12.762</ele><time>2022-11-18T23:48:50Z</time></trkpt><trkpt lat="68.407900" lon="14.570863"><ele>13.037</ele><time>2022-11-18T23:49:30Z</time></trkpt><trkpt lat="68.413417" lon="14.551371"><ele>12.389</ele><time>2022-11-18T23:50:10Z</time></trkpt><trkpt lat="68.417162" lon="14.551160"><ele>15.032</ele><time>2022-11-18T23:50:50Z</time></trkpt><trkpt lat="68.423823" lon="14.580732"><ele>14.038</ele><time>2022-11-18T23:51:30Z</time></trkpt><trkpt lat="68.424673" lon="14.594819"><ele>14.269</ele><time>2022-11-18T23:52:10Z</time></trkpt><trkpt lat="68.433016" lon="14.624091"><ele>9.347</ele><time>2022-11-18T23:52:50Z</time></trkpt><trkpt lat="68.430828" lon="14.652073"><ele>13.129</ele><time>2022-11-18T23:53:30Z</time></trkpt><trkpt lat="68.427764" lon="14.667045"><ele>15.021</ele><time>2022-11-18T23:54:10Z</time></trkpt><trkpt lat="68.413824" lon="14.679084"><ele>11.909</ele><time>2022-11-18T23:54:50Z</time></trkpt><trkpt lat="68.403606" lon="14.673309"><ele>17.275</ele><time>2022-11-18T23:55:30Z</time></trkpt><trkpt lat="68.397837" lon="14.679858"><ele>6.785</ele><time>2022-11-18T23:56:10Z</time></trkpt><trkpt lat="68.388106" lon="14.698780"><ele>4.952</ele><time>2022-11-18T23:56:50Z</time></trkpt><trkpt lat="68.386294" lon="14.712140"><ele>3.541</ele><time>2022-11-18T23:57:30Z</time></trkpt><trkpt lat="68.390185" lon="14.721590"><ele>7.276</ele><time>2022-11-18T23:58:10Z</time></trkpt><trkpt lat="68.405053" lon="14.705946"><ele>10.048</ele><time>2022-11-18T23:58:50Z</time></trkpt><trkpt lat="68.421660" lon="14.705107"><ele>10.061</ele><time>2022-11-18T23:59:30Z</time></trkpt><trkpt lat="68.430802" lon="14.716396"><ele>25.217</ele><time>2022-11-19T00:00:10Z</time></trkpt><trkpt lat="68.435100" lon="14.730984"><ele>1.768</ele><time>2022-11-19T00:00:50Z</time></trkpt><trkpt lat="68.432229" lon="14.802156"><ele>9.964</ele><time>2022-11-19T00:01:30Z</time></trkpt><trkpt lat="68.430878" lon="14.818789"><ele>19.506</ele><time>2022-11-19T00:02:10Z</time></trkpt><trkpt lat="68.429098" lon="14.819869"><ele>10.016</ele><time>2022-11-19T00:02:50Z</time></trkpt><trkpt lat="68.430910" lon="14.824385"><ele>0.809</ele><time>2022-11-19T00:03:30Z</time></trkpt><trkpt lat="68.498633" lon="14.801324"><ele>0.087</ele><time>2022-11-19T00:04:10Z</time></trkpt><trkpt lat="68.498854" lon="14.798384"><ele>3.047</ele><time>2022-11-19T00:04:50Z</time></trkpt><trkpt lat="68.501262" lon="14.800495"><ele>5.074</ele><time>2022-11-19T00:05:30Z</time></trkpt><trkpt lat="68.500108" lon="14.770141"><ele>12.793</ele><time>2022-11-19T00:06:10Z</time></trkpt><trkpt lat="68.503509" lon="14.748025"><ele>5.758</ele><time>2022-11-19T00:06:50Z</time></trkpt><trkpt lat="68.506979" lon="14.742337"><ele>11.620</ele><time>2022-11-19T00:07:30Z</time></trkpt><trkpt lat="68.511681" lon="14.724911"><ele>5.053</ele><time>2022-11-19T00:08:10Z</time></trkpt><trkpt lat="68.516547" lon="14.723584"><ele>11.139</ele><time>2022-11-19T00:08:50Z</time></trkpt><trkpt lat="68.526954" lon="14.702151"><ele>13.870</ele><time>2022-11-19T00:09:30Z</time></trkpt><trkpt lat="68.529974" lon="14.693723"><ele>12.969</ele><time>2022-11-19T00:10:10Z</time></trkpt><trkpt lat="68.533272" lon="14.674043"><ele>6.804</ele><time>2022-11-19T00:10:50Z</time></trkpt><trkpt lat="68.540080" lon="14.665854"><ele>2.624</ele><time>2022-11-19T00:11:30Z</time></trkpt><trkpt lat="68.543227" lon="14.652561"><ele>16.909</ele><time>2022-11-19T00:12:10Z</time></trkpt><trkpt lat="68.551079" lon="14.636437"><ele>5.787</ele><time>2022-11-19T00:12:50Z</time></trkpt><trkpt lat="68.553426" lon="14.624014"><ele>11.497</ele><time>2022-11-19T00:13:30Z</time></trkpt><trkpt lat="68.562486" lon="14.618076"><ele>13.124</ele><time>2022-11-19T00:14:10Z</time></trkpt><trkpt lat="68.564234" lon="14.625416"><ele>11.553</ele><time>2022-11-19T00:14:50Z</time></trkpt><trkpt lat="68.574641" lon="14.643461"><ele>13.048</ele><time>2022-11-19T00:15:30Z</time></trkpt><trkpt lat="68.577678" lon="14.658963"><ele>19.570</ele><time>2022-11-19T00:16:10Z</time></trkpt><trkpt lat="68.584754" lon="14.675478"><ele>20.043</ele><time>2022-11-19T00:16:50Z</time></trkpt><trkpt lat="68.585319" lon="14.691569"><ele>22.439</ele><time>2022-11-19T00:17:30Z</time></trkpt><trkpt lat="68.578934" lon="14.703095"><ele>17.370</ele><time>2022-11-19T00:18:10Z</time></trkpt><trkpt lat="68.575457" lon="14.724957"><ele>8.779</ele><time>2022-11-19T00:18:50Z</time></trkpt><trkpt lat="68.575999" lon="14.765574"><ele>20.805</ele><time>2022-11-19T00:19:30Z</time></trkpt><trkpt lat="68.574382" lon="14.794942"><ele>20.025</ele><time>2022-11-19T00:20:10Z</time></trkpt><trkpt lat="68.575447" lon="14.813826"><ele>5.209</ele><time>2022-11-19T00:20:50Z</time></trkpt><trkpt lat="68.574368" lon="14.821029"><ele>5.918</ele><time>2022-11-19T00:21:30Z</time></trkpt><trkpt lat="68.570039" lon="14.826606"><ele>3.788</ele><time>2022-11-19T00:22:10Z</time></trkpt><trkpt lat="68.567131" lon="14.844515"><ele>3.875</ele><time>2022-11-19T00:22:50Z</time></trkpt><trkpt lat="68.568720" lon="14.870802"><ele>10.444</ele><time>2022-11-19T00:23:30Z</time></trkpt><trkpt lat="68.567763" lon="14.886823"><ele>8.129</ele><time>2022-11-19T00:24:10Z</time></trkpt><trkpt lat="68.569767" lon="14.902889"><ele>6.731</ele><time>2022-11-19T00:24:50Z</time></trkpt><trkpt lat="68.569095" lon="14.911666"><ele>4.034</ele><time>2022-11-19T00:25:30Z</time></trkpt><trkpt lat="68.565385" lon="14.914123"><ele>3.020</ele><time>2022-11-19T00:26:10Z</time></trkpt><trkpt lat="68.572073" lon="14.932349"><ele>15.051</ele><time>2022-11-19T00:26:50Z</time></trkpt><trkpt lat="68.569025" lon="14.964258"><ele>1.412</ele><time>2022-11-19T00:27:30Z</time></trkpt><trkpt lat="68.570072" lon="14.989206"><ele>0.032</ele><time>2022-11-19T00:28:10Z</time></trkpt><trkpt lat="68.573395" lon="14.996144"><ele>0.005</ele><time>2022-11-19T00:28:50Z</time></trkpt><trkpt lat="68.583271" lon="15.004986"><ele>3.609</ele><time>2022-11-19T00:29:30Z</time></trkpt><trkpt lat="68.582591" lon="15.029148"><ele>13.042</ele><time>2022-11-19T00:30:10Z</time></trkpt><trkpt lat="68.584504" lon="15.049465"><ele>8.942</ele><time>2022-11-19T00:30:50Z</time></trkpt><trkpt lat="68.597066" lon="15.074973"><ele>7.929</ele><time>2022-11-19T00:31:30Z</time></trkpt><trkpt lat="68.614446" lon="15.129525"><ele>5.028</ele><time>2022-11-19T00:32:10Z</time></trkpt><trkpt lat="68.616297" lon="15.162457"><ele>23.113</ele><time>2022-11-19T00:32:50Z</time></trkpt><trkpt lat="68.633130" lon="15.209618"><ele>13.355</ele><time>2022-11-19T00:33:30Z</time></trkpt><trkpt lat="68.635448" lon="15.245506"><ele>13.298</ele><time>2022-11-19T00:34:10Z</time></trkpt><trkpt lat="68.645756" lon="15.281401"><ele>3.764</ele><time>2022-11-19T00:34:50Z</time></trkpt><trkpt lat="68.654473" lon="15.332579"><ele>4.035</ele><time>2022-11-19T00:35:30Z</time></trkpt><trkpt lat="68.670865" lon="15.377283"><ele>4.353</ele><time>2022-11-19T00:36:10Z</time></trkpt><trkpt lat="68.676049" lon="15.384039"><ele>3.404</ele><time>2022-11-19T00:36:50Z</time></trkpt><trkpt lat="68.688031" lon="15.409495"><ele>5.214</ele><time>2022-11-19T00:37:30Z</time></trkpt><trkpt lat="68.699888" lon="15.414217"><ele>11.709</ele><time>2022-11-19T00:38:10Z</time></trkpt><trkpt lat="68.705042" lon="15.412651"><ele>5.026</ele><time>2022-11-19T00:38:50Z</time></trkpt><trkpt lat="68.706313" lon="15.416041"><ele>2.816</ele><time>2022-11-19T00:39:30Z</time></trkpt><trkpt lat="68.706738" lon="15.440010"><ele>5.063</ele><time>2022-11-19T00:40:10Z</time></trkpt><trkpt lat="68.716489" lon="15.441346"><ele>7.992</ele><time>2022-11-19T00:40:50Z</time></trkpt><trkpt lat="68.720346" lon="15.462637"><ele>32.227</ele><time>2022-11-19T00:41:30Z</time></trkpt><trkpt lat="68.724995" lon="15.475800"><ele>7.099</ele><time>2022-11-19T00:42:10Z</time></trkpt><trkpt lat="68.720857" lon="15.507608"><ele>12.232</ele><time>2022-11-19T00:42:50Z</time></trkpt><trkpt lat="68.722578" lon="15.523786"><ele>4.688</ele><time>2022-11-19T00:43:30Z</time></trkpt><trkpt lat="68.741383" lon="15.518266"><ele>17.089</ele><time>2022-11-19T00:44:10Z</time></trkpt><trkpt lat="68.744025" lon="15.508317"><ele>24.587</ele><time>2022-11-19T00:44:50Z</time></trkpt><trkpt lat="68.747988" lon="15.502349"><ele>11.742</ele><time>2022-11-19T00:45:30Z</time></trkpt><trkpt lat="68.752091" lon="15.474642"><ele>7.726</ele><time>2022-11-19T00:46:10Z</time></trkpt><trkpt lat="68.754651" lon="15.466326"><ele>7.809</ele><time>2022-11-19T00:46:50Z</time></trkpt><trkpt lat="68.758346" lon="15.467780"><ele>14.189</ele><time>2022-11-19T00:47:30Z</time></trkpt><trkpt lat="68.764953" lon="15.462398"><ele>7.699</ele><time>2022-11-19T00:48:10Z</time></trkpt><trkpt lat="68.775027" lon="15.481735"><ele>10.126</ele><time>2022-11-19T00:48:50Z</time></trkpt><trkpt lat="68.787278" lon="15.491792"><ele>19.475</ele><time>2022-11-19T00:49:30Z</time></trkpt><trkpt lat="68.794712" lon="15.514413"><ele>28.920</ele><time>2022-11-19T00:50:10Z</time></trkpt><trkpt lat="68.797356" lon="15.531159"><ele>16.332</ele><time>2022-11-19T00:50:50Z</time></trkpt><trkpt lat="68.802807" lon="15.544533"><ele>3.485</ele><time>2022-11-19T00:51:30Z</time></trkpt><trkpt lat="68.813278" lon="15.543572"><ele>13.751</ele><time>2022-11-19T00:52:10Z</time></trkpt><trkpt lat="68.819767" lon="15.567630"><ele>15.752</ele><time>2022-11-19T00:52:50Z</time></trkpt><trkpt lat="68.816292" lon="15.608332"><ele>5.734</ele><time>2022-11-19T00:53:30Z</time></trkpt><trkpt lat="68.816312" lon="15.629127"><ele>4.455</ele><time>2022-11-19T00:54:10Z</time></trkpt><trkpt lat="68.812162" lon="15.663415"><ele>3.010</ele><time>2022-11-19T00:54:50Z</time></trkpt><trkpt lat="68.815657" lon="15.680590"><ele>3.609</ele><time>2022-11-19T00:55:30Z</time></trkpt><trkpt lat="68.819167" lon="15.685653"><ele>12.084</ele><time>2022-11-19T00:56:10Z</time></trkpt><trkpt lat="68.826157" lon="15.682073"><ele>25.074</ele><time>2022-11-19T00:56:50Z</time></trkpt><trkpt lat="68.831603" lon="15.665701"><ele>12.081</ele><time>2022-11-19T00:57:30Z</time></trkpt><trkpt lat="68.834299" lon="15.633764"><ele>11.040</ele><time>2022-11-19T00:58:10Z</time></trkpt><trkpt lat="68.839347" lon="15.602695"><ele>12.795</ele><time>2022-11-19T00:58:50Z</time></trkpt><trkpt lat="68.856445" lon="15.561387"><ele>16.217</ele><time>2022-11-19T00:59:30Z</time></trkpt><trkpt lat="68.862135" lon="15.556073"><ele>7.690</ele><time>2022-11-19T01:00:10Z</time></trkpt><trkpt lat="68.888305" lon="15.575865"><ele>5.596</ele><time>2022-11-19T01:00:50Z</time></trkpt><trkpt lat="68.889289" lon="15.582273"><ele>5.027</ele><time>2022-11-19T01:01:30Z</time></trkpt><trkpt lat="68.883787" lon="15.595439"><ele>5.124</ele><time>2022-11-19T01:02:10Z</time></trkpt><trkpt lat="68.886420" lon="15.623729"><ele>2.204</ele><time>2022-11-19T01:02:50Z</time></trkpt><trkpt lat="68.890788" lon="15.623438"><ele>17.214</ele><time>2022-11-19T01:03:30Z</time></trkpt><trkpt lat="68.896441" lon="15.612875"><ele>11.109</ele><time>2022-11-19T01:04:10Z</time></trkpt><trkpt lat="68.915759" lon="15.614658"><ele>4.053</ele><time>2022-11-19T01:04:50Z</time></trkpt><trkpt lat="68.948254" lon="15.646836"><ele>9.393</ele><time>2022-11-19T01:05:30Z</time></trkpt><trkpt lat="68.951131" lon="15.660945"><ele>11.530</ele><time>2022-11-19T01:06:10Z</time></trkpt><trkpt lat="68.953753" lon="15.664463"><ele>4.069</ele><time>2022-11-19T01:06:50Z</time></trkpt><trkpt lat="68.958644" lon="15.658477"><ele>2.224</ele><time>2022-11-19T01:07:30Z</time></trkpt><trkpt lat="68.968877" lon="15.626882"><ele>15.726</ele><time>2022-11-19T01:08:10Z</time></trkpt><trkpt lat="68.981879" lon="15.641328"><ele>2.139</ele><time>2022-11-19T01:08:50Z</time></trkpt><trkpt lat="68.985858" lon="15.652148"><ele>4.985</ele><time>2022-11-19T01:09:30Z</time></trkpt><trkpt lat="68.999955" lon="15.633146"><ele>24.866</ele><time>2022-11-19T01:10:10Z</time></trkpt><trkpt lat="69.007510" lon="15.586864"><ele>16.085</ele><time>2022-11-19T01:10:50Z</time></trkpt><trkpt lat="69.009737" lon="15.563270"><ele>30.789</ele><time>2022-11-19T01:11:30Z</time></trkpt><trkpt lat="69.009133" lon="15.528493"><ele>11.117</ele><time>2022-11-19T01:12:10Z</time></trkpt><trkpt lat="69.011578" lon="15.517502"><ele>15.309</ele><time>2022-11-19T01:12:50Z</time></trkpt><trkpt lat="69.015489" lon="15.512780"><ele>17.099</ele><time>2022-11-19T01:13:30Z</time></trkpt><trkpt lat="69.022734" lon="15.515220"><ele>20.049</ele><time>2022-11-19T01:14:10Z</time></trkpt><trkpt lat="69.032677" lon="15.528950"><ele>20.276</ele><time>2022-11-19T01:14:50Z</time></trkpt><trkpt lat="69.041654" lon="15.515699"><ele>10.025</ele><time>2022-11-19T01:15:30Z</time></trkpt><trkpt lat="69.041654" lon="15.515699"><ele>10.010</ele><time>2022-11-19T01:16:10Z</time></trkpt><trkpt lat="69.046328" lon="15.516105"><ele>10.032</ele><time>2022-11-19T01:16:50Z</time></trkpt><trkpt lat="69.051663" lon="15.525259"><ele>9.955</ele><time>2022-11-19T01:17:30Z</time></trkpt><trkpt lat="69.068673" lon="15.542200"><ele>10.741</ele><time>2022-11-19T01:18:10Z</time></trkpt><trkpt lat="69.079443" lon="15.565704"><ele>6.592</ele><time>2022-11-19T01:18:50Z</time></trkpt><trkpt lat="69.085464" lon="15.556442"><ele>6.975</ele><time>2022-11-19T01:19:30Z</time></trkpt><trkpt lat="69.087911" lon="15.556985"><ele>11.728</ele><time>2022-11-19T01:20:10Z</time></trkpt><trkpt lat="69.089848" lon="15.564039"><ele>11.420</ele><time>2022-11-19T01:20:50Z</time></trkpt><trkpt lat="69.094596" lon="15.569380"><ele>9.309</ele><time>2022-11-19T01:21:30Z</time></trkpt><trkpt lat="69.099092" lon="15.562629"><ele>15.068</ele><time>2022-11-19T01:22:10Z</time></trkpt><trkpt lat="69.102050" lon="15.565665"><ele>17.068</ele><time>2022-11-19T01:22:50Z</time></trkpt><trkpt lat="69.109243" lon="15.606165"><ele>8.135</ele><time>2022-11-19T01:23:30Z</time></trkpt><trkpt lat="69.115593" lon="15.615683"><ele>3.854</ele><time>2022-11-19T01:24:10Z</time></trkpt><trkpt lat="69.121623" lon="15.615900"><ele>8.449</ele><time>2022-11-19T01:24:50Z</time></trkpt><trkpt lat="69.124656" lon="15.629756"><ele>8.371</ele><time>2022-11-19T01:25:30Z</time></trkpt><trkpt lat="69.128488" lon="15.665698"><ele>5.064</ele><time>2022-11-19T01:26:10Z</time></trkpt><trkpt lat="69.136542" lon="15.676806"><ele>7.720</ele><time>2022-11-19T01:26:50Z</time></trkpt><trkpt lat="69.137474" lon="15.729569"><ele>8.141</ele><time>2022-11-19T01:27:30Z</time></trkpt><trkpt lat="69.154174" lon="15.794080"><ele>10.043</ele><time>2022-11-19T01:28:10Z</time></trkpt><trkpt lat="69.164359" lon="15.815205"><ele>6.264</ele><time>2022-11-19T01:28:50Z</time></trkpt><trkpt lat="69.180296" lon="15.819812"><ele>6.010</ele><time>2022-11-19T01:29:30Z</time></trkpt><trkpt lat="69.190769" lon="15.831940"><ele>7.009</ele><time>2022-11-19T01:30:10Z</time></trkpt><trkpt lat="69.199023" lon="15.856006"><ele>7.095</ele><time>2022-11-19T01:30:50Z</time></trkpt><trkpt lat="69.211008" lon="15.866392"><ele>6.625</ele><time>2022-11-19T01:31:30Z</time></trkpt><trkpt lat="69.214329" lon="15.899801"><ele>18.142</ele><time>2022-11-19T01:32:10Z</time></trkpt><trkpt lat="69.217165" lon="15.913290"><ele>26.791</ele><time>2022-11-19T01:32:50Z</time></trkpt><trkpt lat="69.228236" lon="15.938127"><ele>31.056</ele><time>2022-11-19T01:33:30Z</time></trkpt><trkpt lat="69.234454" lon="15.945677"><ele>61.168</ele><time>2022-11-19T01:34:10Z</time></trkpt><trkpt lat="69.243613" lon="15.970271"><ele>32.941</ele><time>2022-11-19T01:34:50Z</time></trkpt><trkpt lat="69.248675" lon="15.968269"><ele>31.917</ele><time>2022-11-19T01:35:30Z</time></trkpt><trkpt lat="69.254777" lon="15.957495"><ele>31.468</ele><time>2022-11-19T01:36:10Z</time></trkpt><trkpt lat="69.256195" lon="15.957509"><ele>34.281</ele><time>2022-11-19T01:36:50Z</time></trkpt><trkpt lat="69.257519" lon="15.965220"><ele>35.861</ele><time>2022-11-19T01:37:30Z</time></trkpt><trkpt lat="69.260648" lon="15.965449"><ele>32.917</ele><time>2022-11-19T01:38:10Z</time></trkpt><trkpt lat="69.264050" lon="15.957932"><ele>35.909</ele><time>2022-11-19T01:38:50Z</time></trkpt><trkpt lat="69.268985" lon="15.961131"><ele>19.089</ele><time>2022-11-19T01:39:30Z</time></trkpt><trkpt lat="69.271814" lon="15.955946"><ele>10.019</ele><time>2022-11-19T01:40:10Z</time></trkpt><trkpt lat="69.273181" lon="15.964458"><ele>4.166</ele><time>2022-11-19T01:40:50Z</time></trkpt><trkpt lat="69.282550" lon="15.990032"><ele>11.865</ele><time>2022-11-19T01:41:30Z</time></trkpt><trkpt lat="69.298372" lon="15.994489"><ele>9.870</ele><time>2022-11-19T01:42:10Z</time></trkpt><trkpt lat="69.298472" lon="16.000527"><ele>6.312</ele><time>2022-11-19T01:42:50Z</time></trkpt><trkpt lat="69.296018" lon="16.004655"><ele>4.875</ele><time>2022-11-19T01:43:30Z</time></trkpt><trkpt lat="69.292755" lon="16.021388"><ele>9.891</ele><time>2022-11-19T01:44:10Z</time></trkpt><trkpt lat="69.296837" lon="16.036018"><ele>5.642</ele><time>2022-11-19T01:44:50Z</time></trkpt><trkpt lat="69.297729" lon="16.049910"><ele>6.199</ele><time>2022-11-19T01:45:30Z</time></trkpt><trkpt lat="69.300486" lon="16.054630"><ele>6.807</ele><time>2022-11-19T01:46:10Z</time></trkpt><trkpt lat="69.304106" lon="16.074977"><ele>4.027</ele><time>2022-11-19T01:46:50Z</time></trkpt><trkpt lat="69.309663" lon="16.090132"><ele>6.609</ele><time>2022-11-19T01:47:30Z</time></trkpt><trkpt lat="69.312194" lon="16.118139"><ele>7.950</ele><time>2022-11-19T01:48:10Z</time></trkpt><trkpt lat="69.320603" lon="16.123962"><ele>4.030</ele><time>2022-11-19T01:48:50Z</time></trkpt><trkpt lat="69.320354" lon="16.127669"><ele>4.427</ele><time>2022-11-19T01:49:30Z</time></trkpt><trkpt lat="69.322515" lon="16.132657"><ele>2.956</ele><time>2022-11-19T01:50:10Z</time></trkpt><trkpt lat="69.326820" lon="16.133890"><ele>0.081</ele><time>2022-11-19T01:50:50Z</time></trkpt><trkpt lat="69.363719" lon="17.054171"><ele>0.083</ele><time>2022-11-19T01:51:30Z</time></trkpt><trkpt lat="69.356875" lon="17.095667"><ele>30.086</ele><time>2022-11-19T01:52:10Z</time></trkpt><trkpt lat="69.354284" lon="17.139162"><ele>7.512</ele><time>2022-11-19T01:52:50Z</time></trkpt><trkpt lat="69.350001" lon="17.175131"><ele>5.523</ele><time>2022-11-19T01:53:30Z</time></trkpt><trkpt lat="69.350555" lon="17.186439"><ele>5.413</ele><time>2022-11-19T01:54:10Z</time></trkpt><trkpt lat="69.352162" lon="17.187476"><ele>4.343</ele><time>2022-11-19T01:54:50Z</time></trkpt><trkpt lat="69.354395" lon="17.181715"><ele>7.607</ele><time>2022-11-19T01:55:30Z</time></trkpt><trkpt lat="69.363018" lon="17.119201"><ele>134.009</ele><time>2022-11-19T01:56:10Z</time></trkpt><trkpt lat="69.368349" lon="17.104686"><ele>144.512</ele><time>2022-11-19T01:56:50Z</time></trkpt><trkpt lat="69.367052" lon="17.116883"><ele>105.222</ele><time>2022-11-19T01:57:30Z</time></trkpt><trkpt lat="69.368130" lon="17.130514"><ele>62.639</ele><time>2022-11-19T01:58:10Z</time></trkpt><trkpt lat="69.383433" lon="17.116500"><ele>9.038</ele><time>2022-11-19T01:58:50Z</time></trkpt><trkpt lat="69.393588" lon="17.128946"><ele>9.083</ele><time>2022-11-19T01:59:30Z</time></trkpt><trkpt lat="69.403184" lon="17.129654"><ele>17.135</ele><time>2022-11-19T02:00:10Z</time></trkpt><trkpt lat="69.410156" lon="17.149507"><ele>12.918</ele><time>2022-11-19T02:00:50Z</time></trkpt><trkpt lat="69.411970" lon="17.150461"><ele>21.754</ele><time>2022-11-19T02:01:30Z</time></trkpt><trkpt lat="69.413350" lon="17.155228"><ele>15.265</ele><time>2022-11-19T02:02:10Z</time></trkpt><trkpt lat="69.413471" lon="17.167358"><ele>4.361</ele><time>2022-11-19T02:02:50Z</time></trkpt><trkpt lat="69.415056" lon="17.168418"><ele>17.121</ele><time>2022-11-19T02:03:30Z</time></trkpt><trkpt lat="69.414683" lon="17.175611"><ele>21.013</ele><time>2022-11-19T02:04:10Z</time></trkpt><trkpt lat="69.410362" lon="17.186717"><ele>3.409</ele><time>2022-11-19T02:04:50Z</time></trkpt><trkpt lat="69.410537" lon="17.197548"><ele>7.797</ele><time>2022-11-19T02:05:30Z</time></trkpt><trkpt lat="69.415115" lon="17.215554"><ele>24.357</ele><time>2022-11-19T02:06:10Z</time></trkpt><trkpt lat="69.411645" lon="17.246706"><ele>5.344</ele><time>2022-11-19T02:06:50Z</time></trkpt><trkpt lat="69.412689" lon="17.259190"><ele>11.383</ele><time>2022-11-19T02:07:30Z</time></trkpt><trkpt lat="69.401603" lon="17.282750"><ele>3.718</ele><time>2022-11-19T02:08:10Z</time></trkpt><trkpt lat="69.403971" lon="17.286844"><ele>7.350</ele><time>2022-11-19T02:08:50Z</time></trkpt><trkpt lat="69.403277" lon="17.295598"><ele>3.683</ele><time>2022-11-19T02:09:30Z</time></trkpt><trkpt lat="69.396010" lon="17.335275"><ele>7.949</ele><time>2022-11-19T02:10:10Z</time></trkpt><trkpt lat="69.394928" lon="17.361455"><ele>20.230</ele><time>2022-11-19T02:10:50Z</time></trkpt><trkpt lat="69.390277" lon="17.381996"><ele>3.291</ele><time>2022-11-19T02:11:30Z</time></trkpt><trkpt lat="69.389055" lon="17.398729"><ele>2.681</ele><time>2022-11-19T02:12:10Z</time></trkpt><trkpt lat="69.391516" lon="17.399256"><ele>29.519</ele><time>2022-11-19T02:12:50Z</time></trkpt><trkpt lat="69.391069" lon="17.427031"><ele>93.509</ele><time>2022-11-19T02:13:30Z</time></trkpt><trkpt lat="69.395807" lon="17.465406"><ele>230.330</ele><time>2022-11-19T02:14:10Z</time></trkpt><trkpt lat="69.395125" lon="17.479348"><ele>280.390</ele><time>2022-11-19T02:14:50Z</time></trkpt><trkpt lat="69.398784" lon="17.496693"><ele>367.927</ele><time>2022-11-19T02:15:30Z</time></trkpt><trkpt lat="69.408990" lon="17.516722"><ele>427.316</ele><time>2022-11-19T02:16:10Z</time></trkpt><trkpt lat="69.411641" lon="17.518765"><ele>195.741</ele><time>2022-11-19T02:16:50Z</time></trkpt><trkpt lat="69.416762" lon="17.513136"><ele>160.973</ele><time>2022-11-19T02:17:30Z</time></trkpt><trkpt lat="69.417509" lon="17.507928"><ele>145.616</ele><time>2022-11-19T02:18:10Z</time></trkpt><trkpt lat="69.422820" lon="17.504798"><ele>111.092</ele><time>2022-11-19T02:18:50Z</time></trkpt><trkpt lat="69.420855" lon="17.499937"><ele>90.043</ele><time>2022-11-19T02:19:30Z</time></trkpt><trkpt lat="69.426615" lon="17.500966"><ele>39.438</ele><time>2022-11-19T02:20:10Z</time></trkpt><trkpt lat="69.432061" lon="17.491234"><ele>11.470</ele><time>2022-11-19T02:20:50Z</time></trkpt><trkpt lat="69.439416" lon="17.467635"><ele>14.117</ele><time>2022-11-19T02:21:30Z</time></trkpt><trkpt lat="69.441830" lon="17.451057"><ele>7.909</ele><time>2022-11-19T02:22:10Z</time></trkpt><trkpt lat="69.441922" lon="17.425842"><ele>3.764</ele><time>2022-11-19T02:22:50Z</time></trkpt><trkpt lat="69.435385" lon="17.392587"><ele>5.064</ele><time>2022-11-19T02:23:30Z</time></trkpt><trkpt lat="69.435101" lon="17.382074"><ele>6.891</ele><time>2022-11-19T02:24:10Z</time></trkpt><trkpt lat="69.441469" lon="17.341390"><ele>17.450</ele><time>2022-11-19T02:24:50Z</time></trkpt><trkpt lat="69.441469" lon="17.341390"><ele>17.465</ele><time>2022-11-19T02:25:30Z</time></trkpt><trkpt lat="69.442792" lon="17.352285"><ele>106.137</ele><time>2022-11-19T02:26:10Z</time></trkpt><trkpt lat="69.453266" lon="17.346310"><ele>39.620</ele><time>2022-11-19T02:26:50Z</time></trkpt><trkpt lat="69.461004" lon="17.353408"><ele>16.966</ele><time>2022-11-19T02:27:30Z</time></trkpt><trkpt lat="69.470961" lon="17.335398"><ele>6.927</ele><time>2022-11-19T02:28:10Z</time></trkpt><trkpt lat="69.475936" lon="17.331568"><ele>7.063</ele><time>2022-11-19T02:28:50Z</time></trkpt><trkpt lat="69.489282" lon="17.335019"><ele>27.444</ele><time>2022-11-19T02:29:30Z</time></trkpt><trkpt lat="69.484869" lon="17.362201"><ele>10.018</ele><time>2022-11-19T02:30:10Z</time></trkpt><trkpt lat="69.479459" lon="17.380565"><ele>4.809</ele><time>2022-11-19T02:30:50Z</time></trkpt><trkpt lat="69.478492" lon="17.391697"><ele>4.247</ele><time>2022-11-19T02:31:30Z</time></trkpt><trkpt lat="69.481125" lon="17.407031"><ele>10.057</ele><time>2022-11-19T02:32:10Z</time></trkpt><trkpt lat="69.479330" lon="17.421041"><ele>11.784</ele><time>2022-11-19T02:32:50Z</time></trkpt><trkpt lat="69.474971" lon="17.432528"><ele>22.333</ele><time>2022-11-19T02:33:30Z</time></trkpt><trkpt lat="69.485303" lon="17.491041"><ele>5.388</ele><time>2022-11-19T02:34:10Z</time></trkpt><trkpt lat="69.496630" lon="17.503745"><ele>5.580</ele><time>2022-11-19T02:34:50Z</time></trkpt><trkpt lat="69.498797" lon="17.510626"><ele>5.083</ele><time>2022-11-19T02:35:30Z</time></trkpt><trkpt lat="69.499617" lon="17.522166"><ele>21.749</ele><time>2022-11-19T02:36:10Z</time></trkpt><trkpt lat="69.488297" lon="17.555121"><ele>17.430</ele><time>2022-11-19T02:36:50Z</time></trkpt><trkpt lat="69.474459" lon="17.549606"><ele>5.821</ele><time>2022-11-19T02:37:30Z</time></trkpt><trkpt lat="69.470681" lon="17.564506"><ele>7.441</ele><time>2022-11-19T02:38:10Z</time></trkpt><trkpt lat="69.462313" lon="17.578146"><ele>4.805</ele><time>2022-11-19T02:38:50Z</time></trkpt><trkpt lat="69.457747" lon="17.598210"><ele>29.909</ele><time>2022-11-19T02:39:30Z</time></trkpt><trkpt lat="69.461524" lon="17.607157"><ele>9.943</ele><time>2022-11-19T02:40:10Z</time></trkpt><trkpt lat="69.461719" lon="17.632635"><ele>76.213</ele><time>2022-11-19T02:40:50Z</time></trkpt><trkpt lat="69.467099" lon="17.654943"><ele>18.940</ele><time>2022-11-19T02:41:30Z</time></trkpt><trkpt lat="69.466358" lon="17.692604"><ele>76.289</ele><time>2022-11-19T02:42:10Z</time></trkpt><trkpt lat="69.468024" lon="17.696064"><ele>93.184</ele><time>2022-11-19T02:42:50Z</time></trkpt><trkpt lat="69.472912" lon="17.694694"><ele>129.636</ele><time>2022-11-19T02:43:30Z</time></trkpt><trkpt lat="69.475932" lon="17.736624"><ele>102.549</ele><time>2022-11-19T02:44:10Z</time></trkpt><trkpt lat="69.474643" lon="17.752681"><ele>99.255</ele><time>2022-11-19T02:44:50Z</time></trkpt><trkpt lat="69.467133" lon="17.770078"><ele>94.466</ele><time>2022-11-19T02:45:30Z</time></trkpt><trkpt lat="69.467160" lon="17.780007"><ele>68.431</ele><time>2022-11-19T02:46:10Z</time></trkpt><trkpt lat="69.461170" lon="17.832524"><ele>27.461</ele><time>2022-11-19T02:46:50Z</time></trkpt><trkpt lat="69.465436" lon="17.850731"><ele>4.607</ele><time>2022-11-19T02:47:30Z</time></trkpt><trkpt lat="69.468619" lon="17.855564"><ele>9.009</ele><time>2022-11-19T02:48:10Z</time></trkpt><trkpt lat="69.485037" lon="17.844196"><ele>2.994</ele><time>2022-11-19T02:48:50Z</time></trkpt><trkpt lat="69.496787" lon="17.859273"><ele>6.984</ele><time>2022-11-19T02:49:30Z</time></trkpt><trkpt lat="69.500446" lon="17.870448"><ele>4.451</ele><time>2022-11-19T02:50:10Z</time></trkpt><trkpt lat="69.502524" lon="17.891677"><ele>4.340</ele><time>2022-11-19T02:50:50Z</time></trkpt><trkpt lat="69.505047" lon="17.901450"><ele>7.345</ele><time>2022-11-19T02:51:30Z</time></trkpt><trkpt lat="69.507438" lon="17.902953"><ele>7.917</ele><time>2022-11-19T02:52:10Z</time></trkpt><trkpt lat="69.506935" lon="17.908722"><ele>0.090</ele><time>2022-11-19T02:52:50Z</time></trkpt><trkpt lat="69.607853" lon="18.032868"><ele>0.096</ele><time>2022-11-19T02:53:30Z</time></trkpt><trkpt lat="69.604034" lon="18.030918"><ele>2.027</ele><time>2022-11-19T02:54:10Z</time></trkpt><trkpt lat="69.601454" lon="18.047985"><ele>7.317</ele><time>2022-11-19T02:54:50Z</time></trkpt><trkpt lat="69.609786" lon="18.073518"><ele>21.687</ele><time>2022-11-19T02:55:30Z</time></trkpt><trkpt lat="69.610525" lon="18.093532"><ele>23.715</ele><time>2022-11-19T02:56:10Z</time></trkpt><trkpt lat="69.618197" lon="18.105101"><ele>16.009</ele><time>2022-11-19T02:56:50Z</time></trkpt><trkpt lat="69.622402" lon="18.129848"><ele>21.942</ele><time>2022-11-19T02:57:30Z</time></trkpt><trkpt lat="69.629676" lon="18.155849"><ele>17.982</ele><time>2022-11-19T02:58:10Z</time></trkpt><trkpt lat="69.628784" lon="18.173745"><ele>8.549</ele><time>2022-11-19T02:58:50Z</time></trkpt><trkpt lat="69.620137" lon="18.207997"><ele>6.068</ele><time>2022-11-19T02:59:30Z</time></trkpt><trkpt lat="69.620837" lon="18.215244"><ele>5.813</ele><time>2022-11-19T03:00:10Z</time></trkpt><trkpt lat="69.625094" lon="18.226820"><ele>20.775</ele><time>2022-11-19T03:00:50Z</time></trkpt><trkpt lat="69.618526" lon="18.246089"><ele>10.378</ele><time>2022-11-19T03:01:30Z</time></trkpt><trkpt lat="69.617718" lon="18.263610"><ele>12.554</ele><time>2022-11-19T03:02:10Z</time></trkpt><trkpt lat="69.608696" lon="18.267690"><ele>8.095</ele><time>2022-11-19T03:02:50Z</time></trkpt><trkpt lat="69.607165" lon="18.276841"><ele>5.181</ele><time>2022-11-19T03:03:30Z</time></trkpt><trkpt lat="69.601821" lon="18.286412"><ele>3.361</ele><time>2022-11-19T03:04:10Z</time></trkpt><trkpt lat="69.582727" lon="18.275201"><ele>8.717</ele><time>2022-11-19T03:04:50Z</time></trkpt><trkpt lat="69.581445" lon="18.278345"><ele>3.809</ele><time>2022-11-19T03:05:30Z</time></trkpt><trkpt lat="69.607973" lon="18.307649"><ele>7.129</ele><time>2022-11-19T03:06:10Z</time></trkpt><trkpt lat="69.612435" lon="18.334646"><ele>12.499</ele><time>2022-11-19T03:06:50Z</time></trkpt><trkpt lat="69.630904" lon="18.397468"><ele>6.376</ele><time>2022-11-19T03:07:30Z</time></trkpt><trkpt lat="69.640815" lon="18.414616"><ele>15.245</ele><time>2022-11-19T03:08:10Z</time></trkpt><trkpt lat="69.640045" lon="18.428467"><ele>42.070</ele><time>2022-11-19T03:08:50Z</time></trkpt><trkpt lat="69.636200" lon="18.446337"><ele>85.352</ele><time>2022-11-19T03:09:30Z</time></trkpt><trkpt lat="69.640143" lon="18.464104"><ele>104.555</ele><time>2022-11-19T03:10:10Z</time></trkpt><trkpt lat="69.645523" lon="18.472033"><ele>106.571</ele><time>2022-11-19T03:10:50Z</time></trkpt><trkpt lat="69.649413" lon="18.485428"><ele>146.612</ele><time>2022-11-19T03:11:30Z</time></trkpt><trkpt lat="69.652303" lon="18.541364"><ele>165.481</ele><time>2022-11-19T03:12:10Z</time></trkpt><trkpt lat="69.663074" lon="18.571950"><ele>150.861</ele><time>2022-11-19T03:12:50Z</time></trkpt><trkpt lat="69.672244" lon="18.627950"><ele>118.617</ele><time>2022-11-19T03:13:30Z</time></trkpt><trkpt lat="69.685484" lon="18.653421"><ele>5.009</ele><time>2022-11-19T03:14:10Z</time></trkpt><trkpt lat="69.684555" lon="18.662105"><ele>4.499</ele><time>2022-11-19T03:14:50Z</time></trkpt><trkpt lat="69.685885" lon="18.676511"><ele>12.619</ele><time>2022-11-19T03:15:30Z</time></trkpt><trkpt lat="69.684374" lon="18.705107"><ele>11.896</ele><time>2022-11-19T03:16:10Z</time></trkpt><trkpt lat="69.682054" lon="18.717490"><ele>8.385</ele><time>2022-11-19T03:16:50Z</time></trkpt><trkpt lat="69.682117" lon="18.738737"><ele>19.430</ele><time>2022-11-19T03:17:30Z</time></trkpt><trkpt lat="69.680772" lon="18.745416"><ele>27.392</ele><time>2022-11-19T03:18:10Z</time></trkpt><trkpt lat="69.675855" lon="18.751570"><ele>12.545</ele><time>2022-11-19T03:18:50Z</time></trkpt><trkpt lat="69.674326" lon="18.760824"><ele>13.471</ele><time>2022-11-19T03:19:30Z</time></trkpt><trkpt lat="69.683465" lon="18.795697"><ele>8.232</ele><time>2022-11-19T03:20:10Z</time></trkpt><trkpt lat="69.685449" lon="18.845573"><ele>5.675</ele><time>2022-11-19T03:20:50Z</time></trkpt><trkpt lat="69.696307" lon="18.883680"><ele>8.628</ele><time>2022-11-19T03:21:30Z</time></trkpt><trkpt lat="69.688786" lon="18.907724"><ele>0.620</ele><time>2022-11-19T03:22:10Z</time></trkpt><trkpt lat="69.686101" lon="18.908878"><ele>9.009</ele><time>2022-11-19T03:22:50Z</time></trkpt><trkpt lat="69.679361" lon="18.901122"><ele>4.088</ele><time>2022-11-19T03:23:30Z</time></trkpt><trkpt lat="69.672744" lon="18.908524"><ele>3.648</ele><time>2022-11-19T03:24:10Z</time></trkpt><trkpt lat="69.672258" lon="18.918165"><ele>4.495</ele><time>2022-11-19T03:24:50Z</time></trkpt><trkpt lat="69.669917" lon="18.921713"><ele>9.084</ele><time>2022-11-19T03:25:30Z</time></trkpt><trkpt lat="69.665217" lon="18.909930"><ele>6.089</ele><time>2022-11-19T03:26:10Z</time></trkpt><trkpt lat="69.658096" lon="18.908074"><ele>5.171</ele><time>2022-11-19T03:26:50Z</time></trkpt><trkpt lat="69.648765" lon="18.898826"><ele>4.944</ele><time>2022-11-19T03:27:30Z</time></trkpt><trkpt lat="69.637607" lon="18.902760"><ele>5.940</ele><time>2022-11-19T03:28:10Z</time></trkpt><trkpt lat="69.630829" lon="18.913002"><ele>11.091</ele><time>2022-11-19T03:28:50Z</time></trkpt><trkpt lat="69.629870" lon="18.917524"><ele>8.545</ele><time>2022-11-19T03:29:30Z</time></trkpt><trkpt lat="69.647801" lon="18.953882"><ele>5.147</ele><time>2022-11-19T03:30:10Z</time></trkpt><trkpt lat="69.647105" lon="18.958599"><ele>0.011</ele><time>2022-11-19T03:30:50Z</time></trkpt><trkpt lat="69.647708" lon="18.959980"><ele>2.709</ele><time>2022-11-19T03:31:30Z</time></trkpt><trkpt lat="69.648659" lon="18.954849"><ele>6.515</ele><time>2022-11-19T03:32:10Z</time></trkpt><trkpt lat="69.652484" lon="18.959052"><ele>4.015</ele><time>2022-11-19T03:32:50Z</time></trkpt><trkpt lat="69.652660" lon="18.964929"><ele>3.782</ele><time>2022-11-19T03:33:30Z</time></trkpt><trkpt lat="69.654424" lon="18.963946"><ele>5.851</ele><time>2022-11-19T03:34:10Z</time></trkpt><trkpt lat="69.648174" lon="18.986481"><ele>21.366</ele><time>2022-11-19T03:34:50Z</time></trkpt><trkpt lat="69.622511" lon="18.946471"><ele>17.528</ele><time>2022-11-19T03:35:30Z</time></trkpt><trkpt lat="69.598267" lon="18.937735"><ele>17.571</ele><time>2022-11-19T03:36:10Z</time></trkpt><trkpt lat="69.566300" lon="18.949745"><ele>22.847</ele><time>2022-11-19T03:36:50Z</time></trkpt><trkpt lat="69.544300" lon="18.963733"><ele>12.618</ele><time>2022-11-19T03:37:30Z</time></trkpt><trkpt lat="69.540917" lon="18.968578"><ele>15.359</ele><time>2022-11-19T03:38:10Z</time></trkpt><trkpt lat="69.539757" lon="18.976292"><ele>13.603</ele><time>2022-11-19T03:38:50Z</time></trkpt><trkpt lat="69.557621" lon="19.068323"><ele>25.623</ele><time>2022-11-19T03:39:30Z</time></trkpt><trkpt lat="69.563633" lon="19.127955"><ele>32.609</ele><time>2022-11-19T03:40:10Z</time></trkpt><trkpt lat="69.563100" lon="19.143637"><ele>47.096</ele><time>2022-11-19T03:40:50Z</time></trkpt><trkpt lat="69.572318" lon="19.170128"><ele>5.246</ele><time>2022-11-19T03:41:30Z</time></trkpt><trkpt lat="69.570816" lon="19.185348"><ele>5.013</ele><time>2022-11-19T03:42:10Z</time></trkpt><trkpt lat="69.567963" lon="19.187831"><ele>6.232</ele><time>2022-11-19T03:42:50Z</time></trkpt><trkpt lat="69.564056" lon="19.182744"><ele>16.697</ele><time>2022-11-19T03:43:30Z</time></trkpt><trkpt lat="69.561419" lon="19.186878"><ele>25.929</ele><time>2022-11-19T03:44:10Z</time></trkpt><trkpt lat="69.563577" lon="19.194722"><ele>52.052</ele><time>2022-11-19T03:44:50Z</time></trkpt><trkpt lat="69.567684" lon="19.199144"><ele>67.658</ele><time>2022-11-19T03:45:30Z</time></trkpt><trkpt lat="69.575037" lon="19.225413"><ele>72.229</ele><time>2022-11-19T03:46:10Z</time></trkpt><trkpt lat="69.579071" lon="19.248032"><ele>69.066</ele><time>2022-11-19T03:46:50Z</time></trkpt><trkpt lat="69.588650" lon="19.275090"><ele>62.629</ele><time>2022-11-19T03:47:30Z</time></trkpt><trkpt lat="69.598948" lon="19.319069"><ele>76.121</ele><time>2022-11-19T03:48:10Z</time></trkpt><trkpt lat="69.606800" lon="19.341573"><ele>63.309</ele><time>2022-11-19T03:48:50Z</time></trkpt><trkpt lat="69.614560" lon="19.390656"><ele>64.427</ele><time>2022-11-19T03:49:30Z</time></trkpt><trkpt lat="69.620870" lon="19.410613"><ele>49.637</ele><time>2022-11-19T03:50:10Z</time></trkpt><trkpt lat="69.627866" lon="19.404438"><ele>19.464</ele><time>2022-11-19T03:50:50Z</time></trkpt><trkpt lat="69.632157" lon="19.415651"><ele>30.893</ele><time>2022-11-19T03:51:30Z</time></trkpt><trkpt lat="69.643358" lon="19.473705"><ele>53.028</ele><time>2022-11-19T03:52:10Z</time></trkpt><trkpt lat="69.642913" lon="19.495529"><ele>50.580</ele><time>2022-11-19T03:52:50Z</time></trkpt><trkpt lat="69.644698" lon="19.522215"><ele>14.183</ele><time>2022-11-19T03:53:30Z</time></trkpt><trkpt lat="69.649969" lon="19.532647"><ele>15.989</ele><time>2022-11-19T03:54:10Z</time></trkpt><trkpt lat="69.652624" lon="19.556116"><ele>22.250</ele><time>2022-11-19T03:54:50Z</time></trkpt><trkpt lat="69.658101" lon="19.573903"><ele>19.324</ele><time>2022-11-19T03:55:30Z</time></trkpt><trkpt lat="69.665187" lon="19.634219"><ele>4.004</ele><time>2022-11-19T03:56:10Z</time></trkpt><trkpt lat="69.669914" lon="19.651189"><ele>0.514</ele><time>2022-11-19T03:56:50Z</time></trkpt><trkpt lat="69.663501" lon="19.810805"><ele>4.909</ele><time>2022-11-19T03:57:30Z</time></trkpt><trkpt lat="69.658230" lon="19.819686"><ele>7.823</ele><time>2022-11-19T03:58:10Z</time></trkpt><trkpt lat="69.642838" lon="19.817802"><ele>19.493</ele><time>2022-11-19T03:58:50Z</time></trkpt><trkpt lat="69.624872" lon="19.835113"><ele>21.770</ele><time>2022-11-19T03:59:30Z</time></trkpt><trkpt lat="69.618973" lon="19.855914"><ele>20.559</ele><time>2022-11-19T04:00:10Z</time></trkpt><trkpt lat="69.618887" lon="19.868737"><ele>9.464</ele><time>2022-11-19T04:00:50Z</time></trkpt><trkpt lat="69.615731" lon="19.869706"><ele>22.656</ele><time>2022-11-19T04:01:30Z</time></trkpt><trkpt lat="69.611755" lon="19.885709"><ele>20.329</ele><time>2022-11-19T04:02:10Z</time></trkpt><trkpt lat="69.604855" lon="19.945120"><ele>9.075</ele><time>2022-11-19T04:02:50Z</time></trkpt><trkpt lat="69.599475" lon="19.955969"><ele>6.876</ele><time>2022-11-19T04:03:30Z</time></trkpt><trkpt lat="69.598088" lon="19.966797"><ele>6.278</ele><time>2022-11-19T04:04:10Z</time></trkpt><trkpt lat="69.595377" lon="19.969958"><ele>15.433</ele><time>2022-11-19T04:04:50Z</time></trkpt><trkpt lat="69.591262" lon="19.992081"><ele>5.326</ele><time>2022-11-19T04:05:30Z</time></trkpt><trkpt lat="69.586519" lon="20.049956"><ele>6.709</ele><time>2022-11-19T04:06:10Z</time></trkpt><trkpt lat="69.588890" lon="20.113672"><ele>18.768</ele><time>2022-11-19T04:06:50Z</time></trkpt><trkpt lat="69.585531" lon="20.142307"><ele>6.258</ele><time>2022-11-19T04:07:30Z</time></trkpt><trkpt lat="69.582895" lon="20.149248"><ele>10.775</ele><time>2022-11-19T04:08:10Z</time></trkpt><trkpt lat="69.581047" lon="20.166628"><ele>18.464</ele><time>2022-11-19T04:08:50Z</time></trkpt><trkpt lat="69.574077" lon="20.199025"><ele>30.349</ele><time>2022-11-19T04:09:30Z</time></trkpt><trkpt lat="69.576420" lon="20.209042"><ele>15.771</ele><time>2022-11-19T04:10:10Z</time></trkpt><trkpt lat="69.577302" lon="20.222882"><ele>4.234</ele><time>2022-11-19T04:10:50Z</time></trkpt><trkpt lat="69.601529" lon="20.534081"><ele>0.550</ele><time>2022-11-19T04:11:30Z</time></trkpt><trkpt lat="69.603130" lon="20.537380"><ele>5.091</ele><time>2022-11-19T04:12:10Z</time></trkpt><trkpt lat="69.609754" lon="20.503436"><ele>13.874</ele><time>2022-11-19T04:12:50Z</time></trkpt><trkpt lat="69.615705" lon="20.487035"><ele>27.956</ele><time>2022-11-19T04:13:30Z</time></trkpt><trkpt lat="69.637162" lon="20.464184"><ele>54.121</ele><time>2022-11-19T04:14:10Z</time></trkpt><trkpt lat="69.661635" lon="20.473353"><ele>17.309</ele><time>2022-11-19T04:14:50Z</time></trkpt><trkpt lat="69.669868" lon="20.482662"><ele>13.828</ele><time>2022-11-19T04:15:30Z</time></trkpt><trkpt lat="69.670118" lon="20.492310"><ele>6.818</ele><time>2022-11-19T04:16:10Z</time></trkpt><trkpt lat="69.676076" lon="20.500509"><ele>9.835</ele><time>2022-11-19T04:16:50Z</time></trkpt><trkpt lat="69.699826" lon="20.525531"><ele>23.044</ele><time>2022-11-19T04:17:30Z</time></trkpt><trkpt lat="69.708697" lon="20.530990"><ele>23.899</ele><time>2022-11-19T04:18:10Z</time></trkpt><trkpt lat="69.734511" lon="20.522756"><ele>4.471</ele><time>2022-11-19T04:18:50Z</time></trkpt><trkpt lat="69.747849" lon="20.490371"><ele>23.964</ele><time>2022-11-19T04:19:30Z</time></trkpt><trkpt lat="69.752469" lon="20.493016"><ele>3.760</ele><time>2022-11-19T04:20:10Z</time></trkpt><trkpt lat="69.754769" lon="20.489951"><ele>9.361</ele><time>2022-11-19T04:20:50Z</time></trkpt><trkpt lat="69.758481" lon="20.466969"><ele>20.147</ele><time>2022-11-19T04:21:30Z</time></trkpt><trkpt lat="69.761669" lon="20.464765"><ele>20.029</ele><time>2022-11-19T04:22:10Z</time></trkpt><trkpt lat="69.765409" lon="20.496217"><ele>11.021</ele><time>2022-11-19T04:22:50Z</time></trkpt><trkpt lat="69.760966" lon="20.515605"><ele>19.009</ele><time>2022-11-19T04:23:30Z</time></trkpt><trkpt lat="69.759440" lon="20.536630"><ele>39.035</ele><time>2022-11-19T04:24:10Z</time></trkpt><trkpt lat="69.768052" lon="20.547721"><ele>23.875</ele><time>2022-11-19T04:24:50Z</time></trkpt><trkpt lat="69.773188" lon="20.562617"><ele>13.372</ele><time>2022-11-19T04:25:30Z</time></trkpt><trkpt lat="69.790227" lon="20.650128"><ele>6.311</ele><time>2022-11-19T04:26:10Z</time></trkpt><trkpt lat="69.791132" lon="20.666972"><ele>10.736</ele><time>2022-11-19T04:26:50Z</time></trkpt><trkpt lat="69.789765" lon="20.693169"><ele>4.378</ele><time>2022-11-19T04:27:30Z</time></trkpt><trkpt lat="69.792425" lon="20.710367"><ele>3.111</ele><time>2022-11-19T04:28:10Z</time></trkpt><trkpt lat="69.801187" lon="20.720372"><ele>6.397</ele><time>2022-11-19T04:28:50Z</time></trkpt><trkpt lat="69.805997" lon="20.743325"><ele>21.868</ele><time>2022-11-19T04:29:30Z</time></trkpt><trkpt lat="69.820135" lon="20.779860"><ele>49.873</ele><time>2022-11-19T04:30:10Z</time></trkpt><trkpt lat="69.821354" lon="20.795213"><ele>79.285</ele><time>2022-11-19T04:30:50Z</time></trkpt><trkpt lat="69.819288" lon="20.812652"><ele>102.413</ele><time>2022-11-19T04:31:30Z</time></trkpt><trkpt lat="69.825308" lon="20.838662"><ele>180.509</ele><time>2022-11-19T04:32:10Z</time></trkpt><trkpt lat="69.819870" lon="20.849444"><ele>210.318</ele><time>2022-11-19T04:32:50Z</time></trkpt><trkpt lat="69.817804" lon="20.863779"><ele>229.768</ele><time>2022-11-19T04:33:30Z</time></trkpt><trkpt lat="69.821054" lon="20.887032"><ele>157.075</ele><time>2022-11-19T04:34:10Z</time></trkpt><trkpt lat="69.818483" lon="20.896999"><ele>126.644</ele><time>2022-11-19T04:34:50Z</time></trkpt><trkpt lat="69.807142" lon="20.921329"><ele>19.389</ele><time>2022-11-19T04:35:30Z</time></trkpt><trkpt lat="69.800641" lon="20.924136"><ele>2.761</ele><time>2022-11-19T04:36:10Z</time></trkpt><trkpt lat="69.777409" lon="20.963813"><ele>13.754</ele><time>2022-11-19T04:36:50Z</time></trkpt><trkpt lat="69.767582" lon="21.013870"><ele>4.750</ele><time>2022-11-19T04:37:30Z</time></trkpt><trkpt lat="69.767707" lon="21.023288"><ele>4.731</ele><time>2022-11-19T04:38:10Z</time></trkpt><trkpt lat="69.789017" lon="21.049120"><ele>16.428</ele><time>2022-11-19T04:38:50Z</time></trkpt><trkpt lat="69.790834" lon="21.058695"><ele>31.389</ele><time>2022-11-19T04:39:30Z</time></trkpt><trkpt lat="69.791411" lon="21.075489"><ele>54.417</ele><time>2022-11-19T04:40:10Z</time></trkpt><trkpt lat="69.795845" lon="21.092178"><ele>47.009</ele><time>2022-11-19T04:40:50Z</time></trkpt><trkpt lat="69.803649" lon="21.138157"><ele>3.523</ele><time>2022-11-19T04:41:30Z</time></trkpt><trkpt lat="69.818696" lon="21.152485"><ele>7.033</ele><time>2022-11-19T04:42:10Z</time></trkpt><trkpt lat="69.824672" lon="21.179787"><ele>21.620</ele><time>2022-11-19T04:42:50Z</time></trkpt><trkpt lat="69.830648" lon="21.188071"><ele>27.059</ele><time>2022-11-19T04:43:30Z</time></trkpt><trkpt lat="69.835493" lon="21.204887"><ele>23.464</ele><time>2022-11-19T04:44:10Z</time></trkpt><trkpt lat="69.849076" lon="21.226362"><ele>7.826</ele><time>2022-11-19T04:44:50Z</time></trkpt><trkpt lat="69.854350" lon="21.230773"><ele>12.979</ele><time>2022-11-19T04:45:30Z</time></trkpt><trkpt lat="69.859044" lon="21.228860"><ele>9.325</ele><time>2022-11-19T04:46:10Z</time></trkpt><trkpt lat="69.883959" lon="21.194165"><ele>11.826</ele><time>2022-11-19T04:46:50Z</time></trkpt><trkpt lat="69.894125" lon="21.188305"><ele>19.426</ele><time>2022-11-19T04:47:30Z</time></trkpt><trkpt lat="69.896168" lon="21.190432"><ele>24.747</ele><time>2022-11-19T04:48:10Z</time></trkpt><trkpt lat="69.901098" lon="21.213109"><ele>17.011</ele><time>2022-11-19T04:48:50Z</time></trkpt><trkpt lat="69.898517" lon="21.232342"><ele>7.109</ele><time>2022-11-19T04:49:30Z</time></trkpt><trkpt lat="69.899187" lon="21.281788"><ele>16.713</ele><time>2022-11-19T04:50:10Z</time></trkpt><trkpt lat="69.896803" lon="21.305367"><ele>22.413</ele><time>2022-11-19T04:50:50Z</time></trkpt><trkpt lat="69.900209" lon="21.318342"><ele>18.510</ele><time>2022-11-19T04:51:30Z</time></trkpt><trkpt lat="69.906366" lon="21.327757"><ele>7.799</ele><time>2022-11-19T04:52:10Z</time></trkpt><trkpt lat="69.906366" lon="21.327757"><ele>7.794</ele><time>2022-11-19T04:52:50Z</time></trkpt><trkpt lat="69.908140" lon="21.342010"><ele>24.566</ele><time>2022-11-19T04:53:30Z</time></trkpt><trkpt lat="69.901446" lon="21.358486"><ele>20.069</ele><time>2022-11-19T04:54:10Z</time></trkpt><trkpt lat="69.899825" lon="21.391082"><ele>24.195</ele><time>2022-11-19T04:54:50Z</time></trkpt><trkpt lat="69.891581" lon="21.430834"><ele>55.516</ele><time>2022-11-19T04:55:30Z</time></trkpt><trkpt lat="69.884067" lon="21.451742"><ele>127.882</ele><time>2022-11-19T04:56:10Z</time></trkpt><trkpt lat="69.882450" lon="21.463159"><ele>158.143</ele><time>2022-11-19T04:56:50Z</time></trkpt><trkpt lat="69.883620" lon="21.476863"><ele>194.517</ele><time>2022-11-19T04:57:30Z</time></trkpt><trkpt lat="69.890400" lon="21.493560"><ele>253.809</ele><time>2022-11-19T04:58:10Z</time></trkpt><trkpt lat="69.891443" lon="21.531198"><ele>348.719</ele><time>2022-11-19T04:58:50Z</time></trkpt><trkpt lat="69.897699" lon="21.544728"><ele>397.059</ele><time>2022-11-19T04:59:30Z</time></trkpt><trkpt lat="69.899009" lon="21.553003"><ele>397.726</ele><time>2022-11-19T05:00:10Z</time></trkpt><trkpt lat="69.900226" lon="21.572247"><ele>384.565</ele><time>2022-11-19T05:00:50Z</time></trkpt><trkpt lat="69.899309" lon="21.601053"><ele>381.140</ele><time>2022-11-19T05:01:30Z</time></trkpt><trkpt lat="69.895916" lon="21.620280"><ele>384.322</ele><time>2022-11-19T05:02:10Z</time></trkpt><trkpt lat="69.886783" lon="21.627795"><ele>318.355</ele><time>2022-11-19T05:02:50Z</time></trkpt><trkpt lat="69.888874" lon="21.635449"><ele>290.081</ele><time>2022-11-19T05:03:30Z</time></trkpt><trkpt lat="69.888415" lon="21.641144"><ele>284.712</ele><time>2022-11-19T05:04:10Z</time></trkpt><trkpt lat="69.885700" lon="21.652798"><ele>266.365</ele><time>2022-11-19T05:04:50Z</time></trkpt><trkpt lat="69.881724" lon="21.656581"><ele>237.068</ele><time>2022-11-19T05:05:30Z</time></trkpt><trkpt lat="69.879150" lon="21.664366"><ele>218.914</ele><time>2022-11-19T05:06:10Z</time></trkpt><trkpt lat="69.878654" lon="21.678517"><ele>179.409</ele><time>2022-11-19T05:06:50Z</time></trkpt><trkpt lat="69.885567" lon="21.684638"><ele>130.277</ele><time>2022-11-19T05:07:30Z</time></trkpt><trkpt lat="69.879370" lon="21.754638"><ele>48.247</ele><time>2022-11-19T05:08:10Z</time></trkpt><trkpt lat="69.865203" lon="21.794981"><ele>62.094</ele><time>2022-11-19T05:08:50Z</time></trkpt><trkpt lat="69.860418" lon="21.802263"><ele>58.273</ele><time>2022-11-19T05:09:30Z</time></trkpt><trkpt lat="69.857693" lon="21.800003"><ele>65.488</ele><time>2022-11-19T05:10:10Z</time></trkpt><trkpt lat="69.844290" lon="21.821855"><ele>51.690</ele><time>2022-11-19T05:10:50Z</time></trkpt><trkpt lat="69.838782" lon="21.898851"><ele>16.783</ele><time>2022-11-19T05:11:30Z</time></trkpt><trkpt lat="69.842862" lon="21.926368"><ele>6.829</ele><time>2022-11-19T05:12:10Z</time></trkpt><trkpt lat="69.837841" lon="21.949208"><ele>10.380</ele><time>2022-11-19T05:12:50Z</time></trkpt><trkpt lat="69.838669" lon="21.977419"><ele>17.735</ele><time>2022-11-19T05:13:30Z</time></trkpt><trkpt lat="69.841419" lon="21.994642"><ele>25.686</ele><time>2022-11-19T05:14:10Z</time></trkpt><trkpt lat="69.841484" lon="22.013413"><ele>4.114</ele><time>2022-11-19T05:14:50Z</time></trkpt><trkpt lat="69.846356" lon="22.027181"><ele>9.909</ele><time>2022-11-19T05:15:30Z</time></trkpt><trkpt lat="69.853414" lon="22.024065"><ele>9.634</ele><time>2022-11-19T05:16:10Z</time></trkpt><trkpt lat="69.866939" lon="21.992945"><ele>42.914</ele><time>2022-11-19T05:16:50Z</time></trkpt><trkpt lat="69.870615" lon="21.990104"><ele>72.491</ele><time>2022-11-19T05:17:30Z</time></trkpt><trkpt lat="69.872837" lon="21.983070"><ele>97.640</ele><time>2022-11-19T05:18:10Z</time></trkpt><trkpt lat="69.876488" lon="21.983654"><ele>124.545</ele><time>2022-11-19T05:18:50Z</time></trkpt><trkpt lat="69.876846" lon="21.974519"><ele>151.757</ele><time>2022-11-19T05:19:30Z</time></trkpt><trkpt lat="69.882651" lon="21.974690"><ele>198.540</ele><time>2022-11-19T05:20:10Z</time></trkpt><trkpt lat="69.887685" lon="21.981095"><ele>238.456</ele><time>2022-11-19T05:20:50Z</time></trkpt><trkpt lat="69.893091" lon="22.003740"><ele>234.717</ele><time>2022-11-19T05:21:30Z</time></trkpt><trkpt lat="69.902058" lon="22.024307"><ele>166.557</ele><time>2022-11-19T05:22:10Z</time></trkpt><trkpt lat="69.906924" lon="22.030462"><ele>127.300</ele><time>2022-11-19T05:22:50Z</time></trkpt><trkpt lat="69.910658" lon="22.058569"><ele>102.620</ele><time>2022-11-19T05:23:30Z</time></trkpt><trkpt lat="69.916344" lon="22.075320"><ele>97.509</ele><time>2022-11-19T05:24:10Z</time></trkpt><trkpt lat="69.923859" lon="22.075967"><ele>84.626</ele><time>2022-11-19T05:24:50Z</time></trkpt><trkpt lat="69.928962" lon="22.055591"><ele>41.776</ele><time>2022-11-19T05:25:30Z</time></trkpt><trkpt lat="69.939353" lon="22.051840"><ele>6.473</ele><time>2022-11-19T05:26:10Z</time></trkpt><trkpt lat="69.939353" lon="22.051840"><ele>6.492</ele><time>2022-11-19T05:26:50Z</time></trkpt><trkpt lat="69.956752" lon="22.033988"><ele>12.737</ele><time>2022-11-19T05:27:30Z</time></trkpt><trkpt lat="69.963914" lon="22.039371"><ele>17.239</ele><time>2022-11-19T05:28:10Z</time></trkpt><trkpt lat="69.975661" lon="22.036956"><ele>7.922</ele><time>2022-11-19T05:28:50Z</time></trkpt><trkpt lat="69.987046" lon="22.044051"><ele>5.258</ele><time>2022-11-19T05:29:30Z</time></trkpt><trkpt lat="70.003304" lon="22.031587"><ele>36.639</ele><time>2022-11-19T05:30:10Z</time></trkpt><trkpt lat="70.007823" lon="22.044779"><ele>58.236</ele><time>2022-11-19T05:30:50Z</time></trkpt><trkpt lat="70.024460" lon="22.074723"><ele>5.817</ele><time>2022-11-19T05:31:30Z</time></trkpt><trkpt lat="70.026063" lon="22.090185"><ele>9.918</ele><time>2022-11-19T05:32:10Z</time></trkpt><trkpt lat="70.028954" lon="22.094267"><ele>6.709</ele><time>2022-11-19T05:32:50Z</time></trkpt><trkpt lat="70.032561" lon="22.136340"><ele>48.664</ele><time>2022-11-19T05:33:30Z</time></trkpt><trkpt lat="70.037677" lon="22.164510"><ele>37.634</ele><time>2022-11-19T05:34:10Z</time></trkpt><trkpt lat="70.036643" lon="22.229282"><ele>76.561</ele><time>2022-11-19T05:34:50Z</time></trkpt><trkpt lat="70.040122" lon="22.253804"><ele>42.360</ele><time>2022-11-19T05:35:30Z</time></trkpt><trkpt lat="70.033363" lon="22.278882"><ele>2.875</ele><time>2022-11-19T05:36:10Z</time></trkpt><trkpt lat="70.023770" lon="22.288404"><ele>3.677</ele><time>2022-11-19T05:36:50Z</time></trkpt><trkpt lat="70.022823" lon="22.299177"><ele>4.570</ele><time>2022-11-19T05:37:30Z</time></trkpt><trkpt lat="70.040530" lon="22.342952"><ele>9.196</ele><time>2022-11-19T05:38:10Z</time></trkpt><trkpt lat="70.054680" lon="22.391469"><ele>7.247</ele><time>2022-11-19T05:38:50Z</time></trkpt><trkpt lat="70.055978" lon="22.442708"><ele>12.848</ele><time>2022-11-19T05:39:30Z</time></trkpt><trkpt lat="70.059942" lon="22.512428"><ele>35.661</ele><time>2022-11-19T05:40:10Z</time></trkpt><trkpt lat="70.069189" lon="22.603068"><ele>12.217</ele><time>2022-11-19T05:40:50Z</time></trkpt><trkpt lat="70.075058" lon="22.646438"><ele>7.509</ele><time>2022-11-19T05:41:30Z</time></trkpt><trkpt lat="70.074617" lon="22.683363"><ele>18.655</ele><time>2022-11-19T05:42:10Z</time></trkpt><trkpt lat="70.085480" lon="22.724870"><ele>22.555</ele><time>2022-11-19T05:42:50Z</time></trkpt><trkpt lat="70.087765" lon="22.739353"><ele>21.832</ele><time>2022-11-19T05:43:30Z</time></trkpt><trkpt lat="70.089071" lon="22.770064"><ele>23.031</ele><time>2022-11-19T05:44:10Z</time></trkpt><trkpt lat="70.096610" lon="22.839734"><ele>17.766</ele><time>2022-11-19T05:44:50Z</time></trkpt><trkpt lat="70.105473" lon="22.878731"><ele>25.738</ele><time>2022-11-19T05:45:30Z</time></trkpt><trkpt lat="70.113485" lon="22.894488"><ele>29.061</ele><time>2022-11-19T05:46:10Z</time></trkpt><trkpt lat="70.123579" lon="22.932706"><ele>19.337</ele><time>2022-11-19T05:46:50Z</time></trkpt><trkpt lat="70.135600" lon="22.960883"><ele>20.438</ele><time>2022-11-19T05:47:30Z</time></trkpt><trkpt lat="70.137673" lon="22.972642"><ele>48.912</ele><time>2022-11-19T05:48:10Z</time></trkpt><trkpt lat="70.135166" lon="22.979045"><ele>32.432</ele><time>2022-11-19T05:48:50Z</time></trkpt><trkpt lat="70.134063" lon="22.989021"><ele>25.505</ele><time>2022-11-19T05:49:30Z</time></trkpt><trkpt lat="70.134063" lon="22.989021"><ele>25.509</ele><time>2022-11-19T05:50:10Z</time></trkpt><trkpt lat="70.121702" lon="22.982530"><ele>17.832</ele><time>2022-11-19T05:50:50Z</time></trkpt><trkpt lat="70.116285" lon="22.988850"><ele>17.192</ele><time>2022-11-19T05:51:30Z</time></trkpt><trkpt lat="70.112822" lon="22.987018"><ele>7.159</ele><time>2022-11-19T05:52:10Z</time></trkpt><trkpt lat="70.109475" lon="22.992783"><ele>12.998</ele><time>2022-11-19T05:52:50Z</time></trkpt><trkpt lat="70.105627" lon="22.988172"><ele>20.323</ele><time>2022-11-19T05:53:30Z</time></trkpt><trkpt lat="70.076121" lon="22.982901"><ele>10.735</ele><time>2022-11-19T05:54:10Z</time></trkpt><trkpt lat="70.068684" lon="22.987002"><ele>26.688</ele><time>2022-11-19T05:54:50Z</time></trkpt><trkpt lat="70.062518" lon="22.995581"><ele>26.594</ele><time>2022-11-19T05:55:30Z</time></trkpt><trkpt lat="70.057839" lon="22.995591"><ele>22.725</ele><time>2022-11-19T05:56:10Z</time></trkpt><trkpt lat="70.054787" lon="22.984514"><ele>8.967</ele><time>2022-11-19T05:56:50Z</time></trkpt><trkpt lat="70.049417" lon="22.981035"><ele>43.181</ele><time>2022-11-19T05:57:30Z</time></trkpt><trkpt lat="70.045495" lon="22.952865"><ele>9.019</ele><time>2022-11-19T05:58:10Z</time></trkpt><trkpt lat="70.041360" lon="22.950040"><ele>9.009</ele><time>2022-11-19T05:58:50Z</time></trkpt><trkpt lat="70.039633" lon="22.954310"><ele>4.527</ele><time>2022-11-19T05:59:30Z</time></trkpt><trkpt lat="70.039989" lon="22.965291"><ele>7.297</ele><time>2022-11-19T06:00:10Z</time></trkpt><trkpt lat="70.037995" lon="22.971680"><ele>8.854</ele><time>2022-11-19T06:00:50Z</time></trkpt><trkpt lat="70.031752" lon="22.974950"><ele>4.553</ele><time>2022-11-19T06:01:30Z</time></trkpt><trkpt lat="70.028720" lon="23.000153"><ele>13.528</ele><time>2022-11-19T06:02:10Z</time></trkpt><trkpt lat="70.020768" lon="23.012259"><ele>27.870</ele><time>2022-11-19T06:02:50Z</time></trkpt><trkpt lat="70.015092" lon="23.027091"><ele>10.013</ele><time>2022-11-19T06:03:30Z</time></trkpt><trkpt lat="70.017533" lon="23.047818"><ele>2.899</ele><time>2022-11-19T06:04:10Z</time></trkpt><trkpt lat="70.020260" lon="23.047487"><ele>19.840</ele><time>2022-11-19T06:04:50Z</time></trkpt><trkpt lat="70.026115" lon="23.057677"><ele>22.598</ele><time>2022-11-19T06:05:30Z</time></trkpt><trkpt lat="70.026883" lon="23.072580"><ele>50.315</ele><time>2022-11-19T06:06:10Z</time></trkpt><trkpt lat="70.025620" lon="23.079279"><ele>40.226</ele><time>2022-11-19T06:06:50Z</time></trkpt><trkpt lat="70.002476" lon="23.100443"><ele>35.909</ele><time>2022-11-19T06:07:30Z</time></trkpt><trkpt lat="69.984993" lon="23.093832"><ele>10.750</ele><time>2022-11-19T06:08:10Z</time></trkpt><trkpt lat="69.975172" lon="23.099160"><ele>34.880</ele><time>2022-11-19T06:08:50Z</time></trkpt><trkpt lat="69.971849" lon="23.109808"><ele>66.037</ele><time>2022-11-19T06:09:30Z</time></trkpt><trkpt lat="69.966375" lon="23.110729"><ele>64.966</ele><time>2022-11-19T06:10:10Z</time></trkpt><trkpt lat="69.953530" lon="23.085466"><ele>8.081</ele><time>2022-11-19T06:10:50Z</time></trkpt><trkpt lat="69.948883" lon="23.065191"><ele>11.643</ele><time>2022-11-19T06:11:30Z</time></trkpt><trkpt lat="69.948055" lon="23.052430"><ele>6.756</ele><time>2022-11-19T06:12:10Z</time></trkpt><trkpt lat="69.942171" lon="23.041825"><ele>22.912</ele><time>2022-11-19T06:12:50Z</time></trkpt><trkpt lat="69.938470" lon="23.027515"><ele>17.383</ele><time>2022-11-19T06:13:30Z</time></trkpt><trkpt lat="69.924268" lon="23.011772"><ele>6.396</ele><time>2022-11-19T06:14:10Z</time></trkpt><trkpt lat="69.920637" lon="23.025986"><ele>33.431</ele><time>2022-11-19T06:14:50Z</time></trkpt><trkpt lat="69.918745" lon="23.020240"><ele>50.224</ele><time>2022-11-19T06:15:30Z</time></trkpt><trkpt lat="69.916566" lon="23.019869"><ele>66.109</ele><time>2022-11-19T06:16:10Z</time></trkpt><trkpt lat="69.914130" lon="23.035198"><ele>71.730</ele><time>2022-11-19T06:16:50Z</time></trkpt><trkpt lat="69.908624" lon="23.037509"><ele>72.080</ele><time>2022-11-19T06:17:30Z</time></trkpt><trkpt lat="69.906702" lon="23.046864"><ele>71.037</ele><time>2022-11-19T06:18:10Z</time></trkpt><trkpt lat="69.909966" lon="23.060273"><ele>64.916</ele><time>2022-11-19T06:18:50Z</time></trkpt><trkpt lat="69.922862" lon="23.083490"><ele>75.081</ele><time>2022-11-19T06:19:30Z</time></trkpt><trkpt lat="69.928546" lon="23.112211"><ele>64.513</ele><time>2022-11-19T06:20:10Z</time></trkpt><trkpt lat="69.928435" lon="23.120982"><ele>53.336</ele><time>2022-11-19T06:20:50Z</time></trkpt><trkpt lat="69.938773" lon="23.129766"><ele>45.382</ele><time>2022-11-19T06:21:30Z</time></trkpt><trkpt lat="69.949005" lon="23.151574"><ele>16.733</ele><time>2022-11-19T06:22:10Z</time></trkpt><trkpt lat="69.951706" lon="23.162422"><ele>35.418</ele><time>2022-11-19T06:22:50Z</time></trkpt><trkpt lat="69.951744" lon="23.169329"><ele>39.798</ele><time>2022-11-19T06:23:30Z</time></trkpt><trkpt lat="69.946553" lon="23.181330"><ele>42.917</ele><time>2022-11-19T06:24:10Z</time></trkpt><trkpt lat="69.945839" lon="23.188165"><ele>44.309</ele><time>2022-11-19T06:24:50Z</time></trkpt><trkpt lat="69.958723" lon="23.224692"><ele>35.342</ele><time>2022-11-19T06:25:30Z</time></trkpt><trkpt lat="69.960160" lon="23.235492"><ele>27.432</ele><time>2022-11-19T06:26:10Z</time></trkpt><trkpt lat="69.960433" lon="23.235900"><ele>28.859</ele><time>2022-11-19T06:26:50Z</time></trkpt><trkpt lat="69.966846" lon="23.267189"><ele>58.628</ele><time>2022-11-19T06:27:30Z</time></trkpt><trkpt lat="69.977158" lon="23.292783"><ele>66.293</ele><time>2022-11-19T06:28:10Z</time></trkpt><trkpt lat="69.973568" lon="23.364056"><ele>3.645</ele><time>2022-11-19T06:28:50Z</time></trkpt><trkpt lat="69.972100" lon="23.371900"><ele>5.118</ele><time>2022-11-19T06:29:30Z</time></trkpt><trkpt lat="69.963416" lon="23.382682"><ele>7.094</ele><time>2022-11-19T06:30:10Z</time></trkpt><trkpt lat="69.961320" lon="23.401636"><ele>8.855</ele><time>2022-11-19T06:30:50Z</time></trkpt><trkpt lat="69.975205" lon="23.454800"><ele>10.727</ele><time>2022-11-19T06:31:30Z</time></trkpt><trkpt lat="69.974324" lon="23.462218"><ele>5.268</ele><time>2022-11-19T06:32:10Z</time></trkpt><trkpt lat="69.975551" lon="23.467089"><ele>3.014</ele><time>2022-11-19T06:32:50Z</time></trkpt><trkpt lat="69.984749" lon="23.485585"><ele>10.109</ele><time>2022-11-19T06:33:30Z</time></trkpt><trkpt lat="69.993212" lon="23.487485"><ele>6.433</ele><time>2022-11-19T06:34:10Z</time></trkpt><trkpt lat="70.000073" lon="23.478039"><ele>10.323</ele><time>2022-11-19T06:34:50Z</time></trkpt><trkpt lat="70.001437" lon="23.484176"><ele>4.350</ele><time>2022-11-19T06:35:30Z</time></trkpt><trkpt lat="70.001598" lon="23.500148"><ele>3.929</ele><time>2022-11-19T06:36:10Z</time></trkpt><trkpt lat="70.009926" lon="23.508399"><ele>5.414</ele><time>2022-11-19T06:36:50Z</time></trkpt><trkpt lat="70.014827" lon="23.536349"><ele>3.236</ele><time>2022-11-19T06:37:30Z</time></trkpt><trkpt lat="70.023384" lon="23.537585"><ele>43.179</ele><time>2022-11-19T06:38:10Z</time></trkpt><trkpt lat="70.025603" lon="23.543987"><ele>51.675</ele><time>2022-11-19T06:38:50Z</time></trkpt><trkpt lat="70.035189" lon="23.554732"><ele>129.756</ele><time>2022-11-19T06:39:30Z</time></trkpt><trkpt lat="70.039445" lon="23.566221"><ele>147.865</ele><time>2022-11-19T06:40:10Z</time></trkpt><trkpt lat="70.044057" lon="23.565398"><ele>178.968</ele><time>2022-11-19T06:40:50Z</time></trkpt><trkpt lat="70.044898" lon="23.558317"><ele>201.814</ele><time>2022-11-19T06:41:30Z</time></trkpt><trkpt lat="70.054079" lon="23.558229"><ele>233.609</ele><time>2022-11-19T06:42:10Z</time></trkpt><trkpt lat="70.063791" lon="23.544890"><ele>247.877</ele><time>2022-11-19T06:42:50Z</time></trkpt><trkpt lat="70.086249" lon="23.537053"><ele>227.017</ele><time>2022-11-19T06:43:30Z</time></trkpt><trkpt lat="70.096092" lon="23.551967"><ele>191.554</ele><time>2022-11-19T06:44:10Z</time></trkpt><trkpt lat="70.107507" lon="23.552840"><ele>161.163</ele><time>2022-11-19T06:44:50Z</time></trkpt><trkpt lat="70.124117" lon="23.594788"><ele>183.978</ele><time>2022-11-19T06:45:30Z</time></trkpt><trkpt lat="70.131363" lon="23.625169"><ele>236.090</ele><time>2022-11-19T06:46:10Z</time></trkpt><trkpt lat="70.138952" lon="23.673944"><ele>313.343</ele><time>2022-11-19T06:46:50Z</time></trkpt><trkpt lat="70.168050" lon="23.757149"><ele>335.119</ele><time>2022-11-19T06:47:30Z</time></trkpt><trkpt lat="70.179557" lon="23.817918"><ele>323.050</ele><time>2022-11-19T06:48:10Z</time></trkpt><trkpt lat="70.181432" lon="23.841881"><ele>323.851</ele><time>2022-11-19T06:48:50Z</time></trkpt><trkpt lat="70.177136" lon="23.871317"><ele>370.401</ele><time>2022-11-19T06:49:30Z</time></trkpt><trkpt lat="70.176510" lon="23.896479"><ele>375.111</ele><time>2022-11-19T06:50:10Z</time></trkpt><trkpt lat="70.179137" lon="23.931343"><ele>351.009</ele><time>2022-11-19T06:50:50Z</time></trkpt><trkpt lat="70.189193" lon="23.987640"><ele>305.536</ele><time>2022-11-19T06:51:30Z</time></trkpt><trkpt lat="70.187349" lon="24.014681"><ele>302.676</ele><time>2022-11-19T06:52:10Z</time></trkpt><trkpt lat="70.187947" lon="24.039058"><ele>283.563</ele><time>2022-11-19T06:52:50Z</time></trkpt><trkpt lat="70.191636" lon="24.054940"><ele>284.392</ele><time>2022-11-19T06:53:30Z</time></trkpt><trkpt lat="70.206578" lon="24.068966"><ele>290.417</ele><time>2022-11-19T06:54:10Z</time></trkpt><trkpt lat="70.206578" lon="24.068966"><ele>290.459</ele><time>2022-11-19T06:54:50Z</time></trkpt><trkpt lat="70.269138" lon="24.100814"><ele>237.072</ele><time>2022-11-19T06:55:30Z</time></trkpt><trkpt lat="70.281568" lon="24.099668"><ele>239.118</ele><time>2022-11-19T06:56:10Z</time></trkpt><trkpt lat="70.287104" lon="24.105299"><ele>234.579</ele><time>2022-11-19T06:56:50Z</time></trkpt><trkpt lat="70.297076" lon="24.141603"><ele>218.443</ele><time>2022-11-19T06:57:30Z</time></trkpt><trkpt lat="70.297109" lon="24.147843"><ele>220.764</ele><time>2022-11-19T06:58:10Z</time></trkpt><trkpt lat="70.294146" lon="24.159178"><ele>215.410</ele><time>2022-11-19T06:58:50Z</time></trkpt><trkpt lat="70.295032" lon="24.171024"><ele>214.809</ele><time>2022-11-19T06:59:30Z</time></trkpt><trkpt lat="70.307861" lon="24.193054"><ele>181.185</ele><time>2022-11-19T07:00:10Z</time></trkpt><trkpt lat="70.330232" lon="24.266819"><ele>166.425</ele><time>2022-11-19T07:00:50Z</time></trkpt><trkpt lat="70.345307" lon="24.340824"><ele>143.942</ele><time>2022-11-19T07:01:30Z</time></trkpt><trkpt lat="70.351062" lon="24.356796"><ele>150.141</ele><time>2022-11-19T07:02:10Z</time></trkpt><trkpt lat="70.356595" lon="24.356672"><ele>152.556</ele><time>2022-11-19T07:02:50Z</time></trkpt><trkpt lat="70.367702" lon="24.381445"><ele>163.958</ele><time>2022-11-19T07:03:30Z</time></trkpt><trkpt lat="70.383814" lon="24.449034"><ele>135.761</ele><time>2022-11-19T07:04:10Z</time></trkpt><trkpt lat="70.385835" lon="24.450269"><ele>131.977</ele><time>2022-11-19T07:04:50Z</time></trkpt><trkpt lat="70.390889" lon="24.442808"><ele>117.688</ele><time>2022-11-19T07:05:30Z</time></trkpt><trkpt lat="70.394156" lon="24.443922"><ele>124.712</ele><time>2022-11-19T07:06:10Z</time></trkpt><trkpt lat="70.403818" lon="24.484722"><ele>87.832</ele><time>2022-11-19T07:06:50Z</time></trkpt><trkpt lat="70.409396" lon="24.495396"><ele>76.805</ele><time>2022-11-19T07:07:30Z</time></trkpt><trkpt lat="70.422239" lon="24.503200"><ele>68.509</ele><time>2022-11-19T07:08:10Z</time></trkpt><trkpt lat="70.432600" lon="24.502034"><ele>65.842</ele><time>2022-11-19T07:08:50Z</time></trkpt><trkpt lat="70.431579" lon="24.516520"><ele>73.352</ele><time>2022-11-19T07:09:30Z</time></trkpt><trkpt lat="70.433500" lon="24.536654"><ele>108.629</ele><time>2022-11-19T07:10:10Z</time></trkpt><trkpt lat="70.438424" lon="24.553686"><ele>155.028</ele><time>2022-11-19T07:10:50Z</time></trkpt><trkpt lat="70.442428" lon="24.623568"><ele>201.123</ele><time>2022-11-19T07:11:30Z</time></trkpt><trkpt lat="70.456973" lon="24.718768"><ele>197.175</ele><time>2022-11-19T07:12:10Z</time></trkpt><trkpt lat="70.458182" lon="24.743917"><ele>187.118</ele><time>2022-11-19T07:12:50Z</time></trkpt><trkpt lat="70.467040" lon="24.807195"><ele>200.054</ele><time>2022-11-19T07:13:30Z</time></trkpt><trkpt lat="70.479248" lon="24.873451"><ele>180.065</ele><time>2022-11-19T07:14:10Z</time></trkpt><trkpt lat="70.479267" lon="24.884545"><ele>183.519</ele><time>2022-11-19T07:14:50Z</time></trkpt><trkpt lat="70.472474" lon="24.925280"><ele>165.609</ele><time>2022-11-19T07:15:30Z</time></trkpt><trkpt lat="70.469110" lon="24.967056"><ele>91.219</ele><time>2022-11-19T07:16:10Z</time></trkpt><trkpt lat="70.469504" lon="25.010227"><ele>55.709</ele><time>2022-11-19T07:16:50Z</time></trkpt><trkpt lat="70.470913" lon="25.039421"><ele>47.882</ele><time>2022-11-19T07:17:30Z</time></trkpt><trkpt lat="70.474119" lon="25.050875"><ele>45.782</ele><time>2022-11-19T07:18:10Z</time></trkpt><trkpt lat="70.472384" lon="25.060852"><ele>17.449</ele><time>2022-11-19T07:18:50Z</time></trkpt><trkpt lat="70.473924" lon="25.071274"><ele>5.018</ele><time>2022-11-19T07:19:30Z</time></trkpt><trkpt lat="70.473839" lon="25.071358"><ele>5.073</ele><time>2022-11-19T07:20:10Z</time></trkpt><trkpt lat="70.479314" lon="25.066900"><ele>8.265</ele><time>2022-11-19T07:20:50Z</time></trkpt><trkpt lat="70.483863" lon="25.076548"><ele>14.548</ele><time>2022-11-19T07:21:30Z</time></trkpt><trkpt lat="70.486261" lon="25.067045"><ele>15.884</ele><time>2022-11-19T07:22:10Z</time></trkpt><trkpt lat="70.486120" lon="25.055752"><ele>16.325</ele><time>2022-11-19T07:22:50Z</time></trkpt><trkpt lat="70.494801" lon="25.041212"><ele>30.342</ele><time>2022-11-19T07:23:30Z</time></trkpt><trkpt lat="70.500353" lon="25.038954"><ele>7.022</ele><time>2022-11-19T07:24:10Z</time></trkpt><trkpt lat="70.507628" lon="25.059072"><ele>15.514</ele><time>2022-11-19T07:24:50Z</time></trkpt><trkpt lat="70.518066" lon="25.076527"><ele>10.609</ele><time>2022-11-19T07:25:30Z</time></trkpt><trkpt lat="70.522115" lon="25.079200"><ele>10.035</ele><time>2022-11-19T07:26:10Z</time></trkpt><trkpt lat="70.526722" lon="25.093450"><ele>9.745</ele><time>2022-11-19T07:26:50Z</time></trkpt><trkpt lat="70.531375" lon="25.095770"><ele>7.372</ele><time>2022-11-19T07:27:30Z</time></trkpt><trkpt lat="70.535176" lon="25.111205"><ele>9.771</ele><time>2022-11-19T07:28:10Z</time></trkpt><trkpt lat="70.537336" lon="25.136283"><ele>12.886</ele><time>2022-11-19T07:28:50Z</time></trkpt><trkpt lat="70.542721" lon="25.146336"><ele>13.068</ele><time>2022-11-19T07:29:30Z</time></trkpt><trkpt lat="70.550055" lon="25.171951"><ele>18.311</ele><time>2022-11-19T07:30:10Z</time></trkpt><trkpt lat="70.556879" lon="25.188404"><ele>12.317</ele><time>2022-11-19T07:30:50Z</time></trkpt><trkpt lat="70.567083" lon="25.234619"><ele>10.648</ele><time>2022-11-19T07:31:30Z</time></trkpt><trkpt lat="70.572090" lon="25.240872"><ele>13.417</ele><time>2022-11-19T07:32:10Z</time></trkpt><trkpt lat="70.576516" lon="25.238332"><ele>8.987</ele><time>2022-11-19T07:32:50Z</time></trkpt><trkpt lat="70.581050" lon="25.246259"><ele>15.415</ele><time>2022-11-19T07:33:30Z</time></trkpt><trkpt lat="70.589383" lon="25.245198"><ele>3.709</ele><time>2022-11-19T07:34:10Z</time></trkpt><trkpt lat="70.591341" lon="25.254195"><ele>5.352</ele><time>2022-11-19T07:34:50Z</time></trkpt><trkpt lat="70.593096" lon="25.280234"><ele>13.022</ele><time>2022-11-19T07:35:30Z</time></trkpt><trkpt lat="70.597406" lon="25.289144"><ele>127.159</ele><time>2022-11-19T07:36:10Z</time></trkpt><trkpt lat="70.621557" lon="25.293685"><ele>201.618</ele><time>2022-11-19T07:36:50Z</time></trkpt><trkpt lat="70.624977" lon="25.304197"><ele>82.023</ele><time>2022-11-19T07:37:30Z</time></trkpt><trkpt lat="70.626945" lon="25.325218"><ele>26.295</ele><time>2022-11-19T07:38:10Z</time></trkpt><trkpt lat="70.637285" lon="25.373038"><ele>32.718</ele><time>2022-11-19T07:38:50Z</time></trkpt><trkpt lat="70.638691" lon="25.373520"><ele>32.164</ele><time>2022-11-19T07:39:30Z</time></trkpt><trkpt lat="70.643037" lon="25.361074"><ele>20.995</ele><time>2022-11-19T07:40:10Z</time></trkpt><trkpt lat="70.646322" lon="25.361399"><ele>14.572</ele><time>2022-11-19T07:40:50Z</time></trkpt><trkpt lat="70.647116" lon="25.382762"><ele>11.513</ele><time>2022-11-19T07:41:30Z</time></trkpt><trkpt lat="70.653127" lon="25.398976"><ele>13.014</ele><time>2022-11-19T07:42:10Z</time></trkpt><trkpt lat="70.660668" lon="25.407162"><ele>8.809</ele><time>2022-11-19T07:42:50Z</time></trkpt><trkpt lat="70.667093" lon="25.389379"><ele>5.488</ele><time>2022-11-19T07:43:30Z</time></trkpt><trkpt lat="70.670300" lon="25.391987"><ele>8.948</ele><time>2022-11-19T07:44:10Z</time></trkpt><trkpt lat="70.671999" lon="25.398924"><ele>8.635</ele><time>2022-11-19T07:44:50Z</time></trkpt><trkpt lat="70.669812" lon="25.410865"><ele>10.374</ele><time>2022-11-19T07:45:30Z</time></trkpt><trkpt lat="70.671247" lon="25.421863"><ele>10.949</ele><time>2022-11-19T07:46:10Z</time></trkpt><trkpt lat="70.671062" lon="25.443993"><ele>9.751</ele><time>2022-11-19T07:46:50Z</time></trkpt><trkpt lat="70.673879" lon="25.460946"><ele>12.214</ele><time>2022-11-19T07:47:30Z</time></trkpt><trkpt lat="70.680103" lon="25.481813"><ele>12.210</ele><time>2022-11-19T07:48:10Z</time></trkpt><trkpt lat="70.682546" lon="25.487861"><ele>12.891</ele><time>2022-11-19T07:48:50Z</time></trkpt><trkpt lat="70.692965" lon="25.497806"><ele>9.212</ele><time>2022-11-19T07:49:30Z</time></trkpt><trkpt lat="70.699159" lon="25.515670"><ele>10.132</ele><time>2022-11-19T07:50:10Z</time></trkpt><trkpt lat="70.706041" lon="25.522875"><ele>8.605</ele><time>2022-11-19T07:50:50Z</time></trkpt><trkpt lat="70.706475" lon="25.535893"><ele>10.609</ele><time>2022-11-19T07:51:30Z</time></trkpt><trkpt lat="70.705156" lon="25.545342"><ele>9.412</ele><time>2022-11-19T07:52:10Z</time></trkpt><trkpt lat="70.707864" lon="25.556195"><ele>11.712</ele><time>2022-11-19T07:52:50Z</time></trkpt><trkpt lat="70.718946" lon="25.578619"><ele>10.089</ele><time>2022-11-19T07:53:30Z</time></trkpt><trkpt lat="70.730650" lon="25.609871"><ele>26.058</ele><time>2022-11-19T07:54:10Z</time></trkpt><trkpt lat="70.736629" lon="25.618854"><ele>33.983</ele><time>2022-11-19T07:54:50Z</time></trkpt><trkpt lat="70.739190" lon="25.613575"><ele>27.755</ele><time>2022-11-19T07:55:30Z</time></trkpt><trkpt lat="70.739190" lon="25.613575"><ele>27.788</ele><time>2022-11-19T07:56:10Z</time></trkpt><trkpt lat="70.745425" lon="25.602878"><ele>35.074</ele><time>2022-11-19T07:56:50Z</time></trkpt><trkpt lat="70.746545" lon="25.594942"><ele>22.445</ele><time>2022-11-19T07:57:30Z</time></trkpt><trkpt lat="70.751802" lon="25.589155"><ele>11.053</ele><time>2022-11-19T07:58:10Z</time></trkpt><trkpt lat="70.759504" lon="25.594361"><ele>10.804</ele><time>2022-11-19T07:58:50Z</time></trkpt><trkpt lat="70.766617" lon="25.608217"><ele>12.214</ele><time>2022-11-19T07:59:30Z</time></trkpt><trkpt lat="70.772884" lon="25.614548"><ele>9.609</ele><time>2022-11-19T08:00:10Z</time></trkpt><trkpt lat="70.776164" lon="25.622175"><ele>11.826</ele><time>2022-11-19T08:00:50Z</time></trkpt><trkpt lat="70.780546" lon="25.656129"><ele>18.836</ele><time>2022-11-19T08:01:30Z</time></trkpt><trkpt lat="70.779959" lon="25.666054"><ele>28.453</ele><time>2022-11-19T08:02:10Z</time></trkpt><trkpt lat="70.788091" lon="25.698720"><ele>31.122</ele><time>2022-11-19T08:02:50Z</time></trkpt><trkpt lat="70.786970" lon="25.707886"><ele>32.767</ele><time>2022-11-19T08:03:30Z</time></trkpt><trkpt lat="70.788955" lon="25.715985"><ele>40.429</ele><time>2022-11-19T08:04:10Z</time></trkpt><trkpt lat="70.812005" lon="25.745479"><ele>43.352</ele><time>2022-11-19T08:04:50Z</time></trkpt><trkpt lat="70.821183" lon="25.767238"><ele>13.758</ele><time>2022-11-19T08:05:30Z</time></trkpt><trkpt lat="70.836479" lon="25.786618"><ele>30.049</ele><time>2022-11-19T08:06:10Z</time></trkpt><trkpt lat="70.863580" lon="25.805015"><ele>13.092</ele><time>2022-11-19T08:06:50Z</time></trkpt><trkpt lat="70.877967" lon="25.834071"><ele>62.773</ele><time>2022-11-19T08:07:30Z</time></trkpt><trkpt lat="70.879791" lon="25.828460"><ele>64.820</ele><time>2022-11-19T08:08:10Z</time></trkpt><trkpt lat="70.878317" lon="25.811419"><ele>83.409</ele><time>2022-11-19T08:08:50Z</time></trkpt><trkpt lat="70.870488" lon="25.786620"><ele>56.730</ele><time>2022-11-19T08:09:30Z</time></trkpt><trkpt lat="70.869244" lon="25.776105"><ele>55.730</ele><time>2022-11-19T08:10:10Z</time></trkpt><trkpt lat="70.870051" lon="25.758733"><ele>29.657</ele><time>2022-11-19T08:10:50Z</time></trkpt><trkpt lat="70.862416" lon="25.737811"><ele>13.126</ele><time>2022-11-19T08:11:30Z</time></trkpt><trkpt lat="70.861814" lon="25.728744"><ele>10.291</ele><time>2022-11-19T08:12:10Z</time></trkpt><trkpt lat="70.864717" lon="25.722912"><ele>16.533</ele><time>2022-11-19T08:12:50Z</time></trkpt><trkpt lat="70.876237" lon="25.733735"><ele>9.776</ele><time>2022-11-19T08:13:30Z</time></trkpt><trkpt lat="70.880593" lon="25.724014"><ele>7.762</ele><time>2022-11-19T08:14:10Z</time></trkpt><trkpt lat="70.884568" lon="25.722899"><ele>8.513</ele><time>2022-11-19T08:14:50Z</time></trkpt><trkpt lat="70.891356" lon="25.678979"><ele>9.459</ele><time>2022-11-19T08:15:30Z</time></trkpt><trkpt lat="70.950474" lon="25.712259"><ele>76.803</ele><time>2022-11-19T08:16:10Z</time></trkpt><trkpt lat="70.961513" lon="25.694561"><ele>3.923</ele><time>2022-11-19T08:16:50Z</time></trkpt><trkpt lat="70.969083" lon="25.704010"><ele>22.009</ele><time>2022-11-19T08:17:30Z</time></trkpt><trkpt lat="70.973949" lon="25.703323"><ele>23.046</ele><time>2022-11-19T08:18:10Z</time></trkpt><trkpt lat="70.982389" lon="25.724782"><ele>9.066</ele><time>2022-11-19T08:18:50Z</time></trkpt><trkpt lat="70.991177" lon="25.738896"><ele>9.013</ele><time>2022-11-19T08:19:30Z</time></trkpt><trkpt lat="70.990618" lon="25.745878"><ele>4.732</ele><time>2022-11-19T08:20:10Z</time></trkpt><trkpt lat="70.986857" lon="25.756141"><ele>8.117</ele><time>2022-11-19T08:20:50Z</time></trkpt><trkpt lat="70.982764" lon="25.759447"><ele>9.169</ele><time>2022-11-19T08:21:30Z</time></trkpt><trkpt lat="70.977286" lon="25.779507"><ele>12.642</ele><time>2022-11-19T08:22:10Z</time></trkpt><trkpt lat="70.975321" lon="25.813545"><ele>6.648</ele><time>2022-11-19T08:22:50Z</time></trkpt><trkpt lat="70.983966" lon="25.861865"><ele>140.989</ele><time>2022-11-19T08:23:30Z</time></trkpt><trkpt lat="70.992887" lon="25.931441"><ele>32.794</ele><time>2022-11-19T08:24:10Z</time></trkpt><trkpt lat="70.993950" lon="25.954933"><ele>26.057</ele><time>2022-11-19T08:24:50Z</time></trkpt><trkpt lat="71.001780" lon="25.965893"><ele>14.122</ele><time>2022-11-19T08:25:30Z</time></trkpt><trkpt lat="71.001780" lon="25.965893"><ele>14.109</ele><time>2022-11-19T08:26:10Z</time></trkpt><trkpt lat="71.004811" lon="25.965835"><ele>15.020</ele><time>2022-11-19T08:26:50Z</time></trkpt><trkpt lat="71.008945" lon="25.953073"><ele>19.940</ele><time>2022-11-19T08:27:30Z</time></trkpt><trkpt lat="71.011405" lon="25.923575"><ele>10.467</ele><time>2022-11-19T08:28:10Z</time></trkpt><trkpt lat="71.009580" lon="25.909744"><ele>7.876</ele><time>2022-11-19T08:28:50Z</time></trkpt><trkpt lat="71.009843" lon="25.893977"><ele>2.921</ele><time>2022-11-19T08:29:30Z</time></trkpt><trkpt lat="71.014408" lon="25.890438"><ele>10.323</ele><time>2022-11-19T08:30:10Z</time></trkpt><trkpt lat="71.015828" lon="25.882042"><ele>4.066</ele><time>2022-11-19T08:30:50Z</time></trkpt><trkpt lat="71.020760" lon="25.881812"><ele>13.642</ele><time>2022-11-19T08:31:30Z</time></trkpt><trkpt lat="71.025418" lon="25.889943"><ele>25.693</ele><time>2022-11-19T08:32:10Z</time></trkpt><trkpt lat="71.030575" lon="25.886052"><ele>32.078</ele><time>2022-11-19T08:32:50Z</time></trkpt><trkpt lat="71.034509" lon="25.888343"><ele>64.233</ele><time>2022-11-19T08:33:30Z</time></trkpt><trkpt lat="71.030611" lon="25.881644"><ele>80.026</ele><time>2022-11-19T08:34:10Z</time></trkpt><trkpt lat="71.031023" lon="25.873375"><ele>107.609</ele><time>2022-11-19T08:34:50Z</time></trkpt><trkpt lat="71.029156" lon="25.864818"><ele>129.468</ele><time>2022-11-19T08:35:30Z</time></trkpt><trkpt lat="71.030931" lon="25.861045"><ele>155.668</ele><time>2022-11-19T08:36:10Z</time></trkpt><trkpt lat="71.027230" lon="25.845390"><ele>217.035</ele><time>2022-11-19T08:36:50Z</time></trkpt><trkpt lat="71.030301" lon="25.835303"><ele>244.194</ele><time>2022-11-19T08:37:30Z</time></trkpt><trkpt lat="71.035516" lon="25.830692"><ele>256.999</ele><time>2022-11-19T08:38:10Z</time></trkpt><trkpt lat="71.037226" lon="25.819236"><ele>248.071</ele><time>2022-11-19T08:38:50Z</time></trkpt><trkpt lat="71.036028" lon="25.801655"><ele>262.364</ele><time>2022-11-19T08:39:30Z</time></trkpt><trkpt lat="71.040459" lon="25.773675"><ele>266.790</ele><time>2022-11-19T08:40:10Z</time></trkpt><trkpt lat="71.048437" lon="25.759499"><ele>231.821</ele><time>2022-11-19T08:40:50Z</time></trkpt><trkpt lat="71.052052" lon="25.765145"><ele>204.974</ele><time>2022-11-19T08:41:30Z</time></trkpt><trkpt lat="71.059820" lon="25.767084"><ele>204.756</ele><time>2022-11-19T08:42:10Z</time></trkpt><trkpt lat="71.066935" lon="25.788952"><ele>139.121</ele><time>2022-11-19T08:42:50Z</time></trkpt><trkpt lat="71.069806" lon="25.786358"><ele>130.809</ele><time>2022-11-19T08:43:30Z</time></trkpt><trkpt lat="71.072428" lon="25.774247"><ele>141.538</ele><time>2022-11-19T08:44:10Z</time></trkpt><trkpt lat="71.079404" lon="25.770528"><ele>85.498</ele><time>2022-11-19T08:44:50Z</time></trkpt><trkpt lat="71.085015" lon="25.779186"><ele>43.885</ele><time>2022-11-19T08:45:30Z</time></trkpt><trkpt lat="71.091197" lon="25.782362"><ele>43.754</ele><time>2022-11-19T08:46:10Z</time></trkpt><trkpt lat="71.094174" lon="25.768327"><ele>84.029</ele><time>2022-11-19T08:46:50Z</time></trkpt><trkpt lat="71.101012" lon="25.762107"><ele>71.461</ele><time>2022-11-19T08:47:30Z</time></trkpt><trkpt lat="71.101113" lon="25.742306"><ele>98.344</ele><time>2022-11-19T08:48:10Z</time></trkpt><trkpt lat="71.106735" lon="25.731631"><ele>76.450</ele><time>2022-11-19T08:48:50Z</time></trkpt><trkpt lat="71.107939" lon="25.693500"><ele>191.441</ele><time>2022-11-19T08:49:30Z</time></trkpt><trkpt lat="71.120734" lon="25.707276"><ele>301.839</ele><time>2022-11-19T08:50:10Z</time></trkpt><trkpt lat="71.137954" lon="25.741254"><ele>269.001</ele><time>2022-11-19T08:50:50Z</time></trkpt><trkpt lat="71.142023" lon="25.760205"><ele>221.921</ele><time>2022-11-19T08:51:30Z</time></trkpt><trkpt lat="71.152002" lon="25.775996"><ele>281.609</ele><time>2022-11-19T08:52:10Z</time></trkpt><trkpt lat="71.158700" lon="25.780323"><ele>277.254</ele><time>2022-11-19T08:52:50Z</time></trkpt><trkpt lat="71.163964" lon="25.777476"><ele>280.944</ele><time>2022-11-19T08:53:30Z</time></trkpt><trkpt lat="71.169417" lon="25.783315"><ele>307.031</ele><time>2022-11-19T08:54:10Z</time></trkpt></trkseg></trk></gpx>